<?xml version="1.0" encoding="UTF-8"?>
<gpx version="1.1" creator="https://www.youtrack.es" xsi:schemaLocation="http://www.topografix.com/GPX/1/1 http://www.topografix.com/GPX/1/1/gpx.xsd http://www.garmin.com/xmlschemas/GpxExtensions/v3 http://www.garmin.com/xmlschemas/GpxExtensionsv3.xsd http://www.garmin.com/xmlschemas/TrackPointExtension/v1 http://www.garmin.com/xmlschemas/TrackPointExtensionv1.xsd" xmlns:gpxtpx="http://www.garmin.com/xmlschemas/TrackPointExtension/v1" xmlns:gpxx="http://www.garmin.com/xmlschemas/GpxExtensions/v3" xmlns:xsi="http://www.w3.org/2001/XMLSchema-instance">
  <metadata>
    <author>
      <name>Carlos Javier Guzman Burbano</name>
      <email id="carlosjavier.guzmanburbano" domain="gmail.com"/>
    </author>
    <link href="https://www.youtrack.es">
      <text>YouTrack.es</text>
    </link>
    <time>2026-05-08T02:17:31Z</time>
  </metadata>
  <wpt lat="1.99624" lon="-76.709">
    <ele>3492.68</ele>
    <name>Foto</name>
  </wpt>
  <wpt lat="1.99624" lon="-76.709">
    <ele>3492.68</ele>
    <name>Foto</name>
  </wpt>
  <trk>
    <src>https://www.youtrack.es</src>
    <link href="https://www.youtrack.es/ruta/39012-cerro-de-bellones">
      <text>YouTrack.es</text>
    </link>
    <trkseg>
      <trkpt lat="1.971626" lon="-76.725417">
        <ele>3329.878</ele>
        <time>2022-12-18T09:21:11Z</time>
      </trkpt>
      <trkpt lat="1.971677" lon="-76.725397">
        <ele>3329.833</ele>
        <time>2022-12-18T09:21:21Z</time>
      </trkpt>
      <trkpt lat="1.971746" lon="-76.725368">
        <ele>3329.826</ele>
        <time>2022-12-18T09:21:24Z</time>
      </trkpt>
      <trkpt lat="1.971792" lon="-76.72535">
        <ele>3329.809</ele>
        <time>2022-12-18T09:21:26Z</time>
      </trkpt>
      <trkpt lat="1.971851" lon="-76.725328">
        <ele>3329.858</ele>
        <time>2022-12-18T09:21:29Z</time>
      </trkpt>
      <trkpt lat="1.971897" lon="-76.725316">
        <ele>3329.859</ele>
        <time>2022-12-18T09:21:33Z</time>
      </trkpt>
      <trkpt lat="1.971942" lon="-76.725294">
        <ele>3329.848</ele>
        <time>2022-12-18T09:21:36Z</time>
      </trkpt>
      <trkpt lat="1.971989" lon="-76.725296">
        <ele>3329.852</ele>
        <time>2022-12-18T09:21:39Z</time>
      </trkpt>
      <trkpt lat="1.972041" lon="-76.725301">
        <ele>3329.850</ele>
        <time>2022-12-18T09:21:43Z</time>
      </trkpt>
      <trkpt lat="1.972092" lon="-76.725295">
        <ele>3329.811</ele>
        <time>2022-12-18T09:21:47Z</time>
      </trkpt>
      <trkpt lat="1.972137" lon="-76.725298">
        <ele>3329.847</ele>
        <time>2022-12-18T09:21:50Z</time>
      </trkpt>
      <trkpt lat="1.972191" lon="-76.725296">
        <ele>3329.824</ele>
        <time>2022-12-18T09:21:54Z</time>
      </trkpt>
      <trkpt lat="1.972237" lon="-76.725266">
        <ele>3329.879</ele>
        <time>2022-12-18T09:21:58Z</time>
      </trkpt>
      <trkpt lat="1.972269" lon="-76.72523">
        <ele>3329.815</ele>
        <time>2022-12-18T09:22:02Z</time>
      </trkpt>
      <trkpt lat="1.97229" lon="-76.725185">
        <ele>3329.865</ele>
        <time>2022-12-18T09:22:06Z</time>
      </trkpt>
      <trkpt lat="1.972337" lon="-76.725173">
        <ele>3329.811</ele>
        <time>2022-12-18T09:22:10Z</time>
      </trkpt>
      <trkpt lat="1.972378" lon="-76.725152">
        <ele>3329.809</ele>
        <time>2022-12-18T09:22:13Z</time>
      </trkpt>
      <trkpt lat="1.972431" lon="-76.72514">
        <ele>3329.822</ele>
        <time>2022-12-18T09:22:16Z</time>
      </trkpt>
      <trkpt lat="1.972481" lon="-76.725134">
        <ele>3329.883</ele>
        <time>2022-12-18T09:22:19Z</time>
      </trkpt>
      <trkpt lat="1.972529" lon="-76.725143">
        <ele>3329.822</ele>
        <time>2022-12-18T09:22:22Z</time>
      </trkpt>
      <trkpt lat="1.972579" lon="-76.725154">
        <ele>3329.856</ele>
        <time>2022-12-18T09:22:25Z</time>
      </trkpt>
      <trkpt lat="1.972625" lon="-76.72517">
        <ele>3329.854</ele>
        <time>2022-12-18T09:22:30Z</time>
      </trkpt>
      <trkpt lat="1.972659" lon="-76.72514">
        <ele>3329.825</ele>
        <time>2022-12-18T09:22:33Z</time>
      </trkpt>
      <trkpt lat="1.972707" lon="-76.725146">
        <ele>3329.861</ele>
        <time>2022-12-18T09:22:38Z</time>
      </trkpt>
      <trkpt lat="1.972747" lon="-76.725182">
        <ele>3329.888</ele>
        <time>2022-12-18T09:22:43Z</time>
      </trkpt>
      <trkpt lat="1.972792" lon="-76.725191">
        <ele>3329.853</ele>
        <time>2022-12-18T09:22:48Z</time>
      </trkpt>
      <trkpt lat="1.97284" lon="-76.725188">
        <ele>3329.891</ele>
        <time>2022-12-18T09:22:53Z</time>
      </trkpt>
      <trkpt lat="1.972885" lon="-76.725172">
        <ele>3329.881</ele>
        <time>2022-12-18T09:22:57Z</time>
      </trkpt>
      <trkpt lat="1.972923" lon="-76.725141">
        <ele>3329.819</ele>
        <time>2022-12-18T09:23:02Z</time>
      </trkpt>
      <trkpt lat="1.972967" lon="-76.725112">
        <ele>3329.809</ele>
        <time>2022-12-18T09:23:04Z</time>
      </trkpt>
      <trkpt lat="1.973003" lon="-76.725071">
        <ele>3329.880</ele>
        <time>2022-12-18T09:23:09Z</time>
      </trkpt>
      <trkpt lat="1.973034" lon="-76.725031">
        <ele>3329.851</ele>
        <time>2022-12-18T09:23:13Z</time>
      </trkpt>
      <trkpt lat="1.973073" lon="-76.725006">
        <ele>3329.830</ele>
        <time>2022-12-18T09:23:17Z</time>
      </trkpt>
      <trkpt lat="1.973123" lon="-76.724978">
        <ele>3329.864</ele>
        <time>2022-12-18T09:23:21Z</time>
      </trkpt>
      <trkpt lat="1.973173" lon="-76.724944">
        <ele>3329.862</ele>
        <time>2022-12-18T09:23:24Z</time>
      </trkpt>
      <trkpt lat="1.97322" lon="-76.724923">
        <ele>3329.853</ele>
        <time>2022-12-18T09:23:25Z</time>
      </trkpt>
      <trkpt lat="1.973283" lon="-76.724902">
        <ele>3329.839</ele>
        <time>2022-12-18T09:23:28Z</time>
      </trkpt>
      <trkpt lat="1.973329" lon="-76.724895">
        <ele>3329.876</ele>
        <time>2022-12-18T09:23:30Z</time>
      </trkpt>
      <trkpt lat="1.973375" lon="-76.724921">
        <ele>3329.841</ele>
        <time>2022-12-18T09:23:34Z</time>
      </trkpt>
      <trkpt lat="1.973407" lon="-76.72496">
        <ele>3329.863</ele>
        <time>2022-12-18T09:23:37Z</time>
      </trkpt>
      <trkpt lat="1.973439" lon="-76.725008">
        <ele>3329.844</ele>
        <time>2022-12-18T09:23:42Z</time>
      </trkpt>
      <trkpt lat="1.973446" lon="-76.725054">
        <ele>3329.818</ele>
        <time>2022-12-18T09:23:45Z</time>
      </trkpt>
      <trkpt lat="1.973459" lon="-76.725097">
        <ele>3344.809</ele>
        <time>2022-12-18T09:23:50Z</time>
      </trkpt>
      <trkpt lat="1.973486" lon="-76.72514">
        <ele>3351.277</ele>
        <time>2022-12-18T09:23:54Z</time>
      </trkpt>
      <trkpt lat="1.973526" lon="-76.725172">
        <ele>3351.368</ele>
        <time>2022-12-18T09:23:58Z</time>
      </trkpt>
      <trkpt lat="1.973575" lon="-76.72519">
        <ele>3350.597</ele>
        <time>2022-12-18T09:24:02Z</time>
      </trkpt>
      <trkpt lat="1.973619" lon="-76.725209">
        <ele>3348.571</ele>
        <time>2022-12-18T09:24:06Z</time>
      </trkpt>
      <trkpt lat="1.973672" lon="-76.72522">
        <ele>3347.219</ele>
        <time>2022-12-18T09:24:10Z</time>
      </trkpt>
      <trkpt lat="1.973723" lon="-76.725225">
        <ele>3344.730</ele>
        <time>2022-12-18T09:24:14Z</time>
      </trkpt>
      <trkpt lat="1.973775" lon="-76.725229">
        <ele>3345.476</ele>
        <time>2022-12-18T09:24:18Z</time>
      </trkpt>
      <trkpt lat="1.973826" lon="-76.725234">
        <ele>3346.823</ele>
        <time>2022-12-18T09:24:22Z</time>
      </trkpt>
      <trkpt lat="1.973876" lon="-76.725233">
        <ele>3349.098</ele>
        <time>2022-12-18T09:24:26Z</time>
      </trkpt>
      <trkpt lat="1.97393" lon="-76.725227">
        <ele>3352.196</ele>
        <time>2022-12-18T09:24:29Z</time>
      </trkpt>
      <trkpt lat="1.973978" lon="-76.725218">
        <ele>3351.231</ele>
        <time>2022-12-18T09:24:32Z</time>
      </trkpt>
      <trkpt lat="1.974023" lon="-76.725201">
        <ele>3351.024</ele>
        <time>2022-12-18T09:24:35Z</time>
      </trkpt>
      <trkpt lat="1.974115" lon="-76.725152">
        <ele>3351.709</ele>
        <time>2022-12-18T09:24:41Z</time>
      </trkpt>
      <trkpt lat="1.974176" lon="-76.725172">
        <ele>3354.160</ele>
        <time>2022-12-18T09:24:46Z</time>
      </trkpt>
      <trkpt lat="1.974222" lon="-76.725176">
        <ele>3357.051</ele>
        <time>2022-12-18T09:24:47Z</time>
      </trkpt>
      <trkpt lat="1.974272" lon="-76.725176">
        <ele>3357.370</ele>
        <time>2022-12-18T09:24:51Z</time>
      </trkpt>
      <trkpt lat="1.974331" lon="-76.725175">
        <ele>3357.774</ele>
        <time>2022-12-18T09:24:54Z</time>
      </trkpt>
      <trkpt lat="1.974383" lon="-76.725156">
        <ele>3357.382</ele>
        <time>2022-12-18T09:24:59Z</time>
      </trkpt>
      <trkpt lat="1.97443" lon="-76.725155">
        <ele>3358.673</ele>
        <time>2022-12-18T09:25:03Z</time>
      </trkpt>
      <trkpt lat="1.974488" lon="-76.725142">
        <ele>3359.479</ele>
        <time>2022-12-18T09:25:08Z</time>
      </trkpt>
      <trkpt lat="1.974521" lon="-76.725104">
        <ele>3360.526</ele>
        <time>2022-12-18T09:25:13Z</time>
      </trkpt>
      <trkpt lat="1.974545" lon="-76.725058">
        <ele>3364.041</ele>
        <time>2022-12-18T09:25:17Z</time>
      </trkpt>
      <trkpt lat="1.974553" lon="-76.725014">
        <ele>3354.599</ele>
        <time>2022-12-18T09:25:21Z</time>
      </trkpt>
      <trkpt lat="1.974578" lon="-76.724966">
        <ele>3358.107</ele>
        <time>2022-12-18T09:25:24Z</time>
      </trkpt>
      <trkpt lat="1.974591" lon="-76.724915">
        <ele>3359.127</ele>
        <time>2022-12-18T09:25:27Z</time>
      </trkpt>
      <trkpt lat="1.974603" lon="-76.724869">
        <ele>3362.609</ele>
        <time>2022-12-18T09:25:30Z</time>
      </trkpt>
      <trkpt lat="1.974616" lon="-76.72482">
        <ele>3363.040</ele>
        <time>2022-12-18T09:25:33Z</time>
      </trkpt>
      <trkpt lat="1.974617" lon="-76.72476">
        <ele>3362.661</ele>
        <time>2022-12-18T09:25:36Z</time>
      </trkpt>
      <trkpt lat="1.974632" lon="-76.724714">
        <ele>3361.180</ele>
        <time>2022-12-18T09:25:39Z</time>
      </trkpt>
      <trkpt lat="1.974644" lon="-76.72466">
        <ele>3361.454</ele>
        <time>2022-12-18T09:25:43Z</time>
      </trkpt>
      <trkpt lat="1.974665" lon="-76.724619">
        <ele>3362.122</ele>
        <time>2022-12-18T09:25:46Z</time>
      </trkpt>
      <trkpt lat="1.97469" lon="-76.724577">
        <ele>3361.753</ele>
        <time>2022-12-18T09:25:48Z</time>
      </trkpt>
      <trkpt lat="1.974714" lon="-76.724524">
        <ele>3362.859</ele>
        <time>2022-12-18T09:25:52Z</time>
      </trkpt>
      <trkpt lat="1.974753" lon="-76.724476">
        <ele>3362.076</ele>
        <time>2022-12-18T09:25:55Z</time>
      </trkpt>
      <trkpt lat="1.974786" lon="-76.724444">
        <ele>3362.471</ele>
        <time>2022-12-18T09:25:58Z</time>
      </trkpt>
      <trkpt lat="1.974832" lon="-76.724421">
        <ele>3358.939</ele>
        <time>2022-12-18T09:26:02Z</time>
      </trkpt>
      <trkpt lat="1.974877" lon="-76.724414">
        <ele>3361.201</ele>
        <time>2022-12-18T09:26:05Z</time>
      </trkpt>
      <trkpt lat="1.974926" lon="-76.724414">
        <ele>3365.021</ele>
        <time>2022-12-18T09:26:24Z</time>
      </trkpt>
      <trkpt lat="1.974926" lon="-76.724414">
        <ele>3365.009</ele>
        <time>2022-12-18T09:26:24Z</time>
      </trkpt>
      <trkpt lat="1.975179" lon="-76.724499">
        <ele>3367.244</ele>
        <time>2022-12-18T09:26:26Z</time>
      </trkpt>
      <trkpt lat="1.97522" lon="-76.724532">
        <ele>3368.945</ele>
        <time>2022-12-18T09:26:28Z</time>
      </trkpt>
      <trkpt lat="1.975246" lon="-76.72457">
        <ele>3369.674</ele>
        <time>2022-12-18T09:26:31Z</time>
      </trkpt>
      <trkpt lat="1.97529" lon="-76.724624">
        <ele>3368.588</ele>
        <time>2022-12-18T09:26:34Z</time>
      </trkpt>
      <trkpt lat="1.975324" lon="-76.724656">
        <ele>3367.676</ele>
        <time>2022-12-18T09:26:36Z</time>
      </trkpt>
      <trkpt lat="1.97536" lon="-76.7247">
        <ele>3368.997</ele>
        <time>2022-12-18T09:26:39Z</time>
      </trkpt>
      <trkpt lat="1.975389" lon="-76.724744">
        <ele>3369.243</ele>
        <time>2022-12-18T09:26:41Z</time>
      </trkpt>
      <trkpt lat="1.975428" lon="-76.724777">
        <ele>3371.750</ele>
        <time>2022-12-18T09:26:46Z</time>
      </trkpt>
      <trkpt lat="1.975483" lon="-76.72479">
        <ele>3374.545</ele>
        <time>2022-12-18T09:26:55Z</time>
      </trkpt>
      <trkpt lat="1.975513" lon="-76.724824">
        <ele>3376.961</ele>
        <time>2022-12-18T09:26:58Z</time>
      </trkpt>
      <trkpt lat="1.975549" lon="-76.724864">
        <ele>3380.121</ele>
        <time>2022-12-18T09:27:02Z</time>
      </trkpt>
      <trkpt lat="1.97558" lon="-76.724898">
        <ele>3380.313</ele>
        <time>2022-12-18T09:27:05Z</time>
      </trkpt>
      <trkpt lat="1.975615" lon="-76.724931">
        <ele>3378.309</ele>
        <time>2022-12-18T09:27:10Z</time>
      </trkpt>
      <trkpt lat="1.975668" lon="-76.724935">
        <ele>3382.197</ele>
        <time>2022-12-18T09:27:16Z</time>
      </trkpt>
      <trkpt lat="1.97571" lon="-76.72496">
        <ele>3384.038</ele>
        <time>2022-12-18T09:27:21Z</time>
      </trkpt>
      <trkpt lat="1.975758" lon="-76.724991">
        <ele>3384.067</ele>
        <time>2022-12-18T09:27:24Z</time>
      </trkpt>
      <trkpt lat="1.975805" lon="-76.725021">
        <ele>3383.311</ele>
        <time>2022-12-18T09:27:26Z</time>
      </trkpt>
      <trkpt lat="1.97584" lon="-76.725049">
        <ele>3383.029</ele>
        <time>2022-12-18T09:27:29Z</time>
      </trkpt>
      <trkpt lat="1.975879" lon="-76.725078">
        <ele>3380.080</ele>
        <time>2022-12-18T09:27:31Z</time>
      </trkpt>
      <trkpt lat="1.97593" lon="-76.725116">
        <ele>3379.786</ele>
        <time>2022-12-18T09:27:34Z</time>
      </trkpt>
      <trkpt lat="1.975969" lon="-76.725138">
        <ele>3379.623</ele>
        <time>2022-12-18T09:27:36Z</time>
      </trkpt>
      <trkpt lat="1.976011" lon="-76.725159">
        <ele>3380.338</ele>
        <time>2022-12-18T09:27:38Z</time>
      </trkpt>
      <trkpt lat="1.976067" lon="-76.725189">
        <ele>3378.956</ele>
        <time>2022-12-18T09:27:41Z</time>
      </trkpt>
      <trkpt lat="1.976112" lon="-76.725213">
        <ele>3380.759</ele>
        <time>2022-12-18T09:27:44Z</time>
      </trkpt>
      <trkpt lat="1.976152" lon="-76.725235">
        <ele>3381.114</ele>
        <time>2022-12-18T09:27:47Z</time>
      </trkpt>
      <trkpt lat="1.976197" lon="-76.725245">
        <ele>3382.209</ele>
        <time>2022-12-18T09:27:50Z</time>
      </trkpt>
      <trkpt lat="1.976253" lon="-76.725249">
        <ele>3382.836</ele>
        <time>2022-12-18T09:27:53Z</time>
      </trkpt>
      <trkpt lat="1.976322" lon="-76.725248">
        <ele>3383.157</ele>
        <time>2022-12-18T09:27:56Z</time>
      </trkpt>
      <trkpt lat="1.97637" lon="-76.725229">
        <ele>3383.086</ele>
        <time>2022-12-18T09:27:58Z</time>
      </trkpt>
      <trkpt lat="1.976417" lon="-76.725206">
        <ele>3383.770</ele>
        <time>2022-12-18T09:28:01Z</time>
      </trkpt>
      <trkpt lat="1.976466" lon="-76.725175">
        <ele>3384.348</ele>
        <time>2022-12-18T09:28:05Z</time>
      </trkpt>
      <trkpt lat="1.976482" lon="-76.725124">
        <ele>3383.479</ele>
        <time>2022-12-18T09:28:07Z</time>
      </trkpt>
      <trkpt lat="1.976495" lon="-76.725077">
        <ele>3381.725</ele>
        <time>2022-12-18T09:28:10Z</time>
      </trkpt>
      <trkpt lat="1.976517" lon="-76.725027">
        <ele>3380.372</ele>
        <time>2022-12-18T09:28:12Z</time>
      </trkpt>
      <trkpt lat="1.97652" lon="-76.724981">
        <ele>3381.247</ele>
        <time>2022-12-18T09:28:14Z</time>
      </trkpt>
      <trkpt lat="1.976542" lon="-76.724919">
        <ele>3379.527</ele>
        <time>2022-12-18T09:28:17Z</time>
      </trkpt>
      <trkpt lat="1.976555" lon="-76.724872">
        <ele>3380.168</ele>
        <time>2022-12-18T09:28:19Z</time>
      </trkpt>
      <trkpt lat="1.976564" lon="-76.724827">
        <ele>3379.214</ele>
        <time>2022-12-18T09:28:21Z</time>
      </trkpt>
      <trkpt lat="1.976576" lon="-76.72478">
        <ele>3379.209</ele>
        <time>2022-12-18T09:28:23Z</time>
      </trkpt>
      <trkpt lat="1.976595" lon="-76.724731">
        <ele>3382.083</ele>
        <time>2022-12-18T09:28:26Z</time>
      </trkpt>
      <trkpt lat="1.976608" lon="-76.724685">
        <ele>3380.284</ele>
        <time>2022-12-18T09:28:29Z</time>
      </trkpt>
      <trkpt lat="1.976627" lon="-76.724636">
        <ele>3380.413</ele>
        <time>2022-12-18T09:28:32Z</time>
      </trkpt>
      <trkpt lat="1.976636" lon="-76.724579">
        <ele>3381.447</ele>
        <time>2022-12-18T09:28:35Z</time>
      </trkpt>
      <trkpt lat="1.976645" lon="-76.724523">
        <ele>3381.165</ele>
        <time>2022-12-18T09:28:37Z</time>
      </trkpt>
      <trkpt lat="1.976634" lon="-76.724465">
        <ele>3380.676</ele>
        <time>2022-12-18T09:28:40Z</time>
      </trkpt>
      <trkpt lat="1.97661" lon="-76.724427">
        <ele>3378.992</ele>
        <time>2022-12-18T09:29:10Z</time>
      </trkpt>
      <trkpt lat="1.976644" lon="-76.724216">
        <ele>3376.949</ele>
        <time>2022-12-18T09:29:16Z</time>
      </trkpt>
      <trkpt lat="1.976726" lon="-76.724014">
        <ele>3378.624</ele>
        <time>2022-12-18T09:29:17Z</time>
      </trkpt>
      <trkpt lat="1.976768" lon="-76.723987">
        <ele>3379.759</ele>
        <time>2022-12-18T09:29:19Z</time>
      </trkpt>
      <trkpt lat="1.976818" lon="-76.723961">
        <ele>3380.203</ele>
        <time>2022-12-18T09:29:21Z</time>
      </trkpt>
      <trkpt lat="1.976873" lon="-76.723941">
        <ele>3380.723</ele>
        <time>2022-12-18T09:29:23Z</time>
      </trkpt>
      <trkpt lat="1.976921" lon="-76.723934">
        <ele>3382.209</ele>
        <time>2022-12-18T09:29:25Z</time>
      </trkpt>
      <trkpt lat="1.976974" lon="-76.723956">
        <ele>3380.886</ele>
        <time>2022-12-18T09:29:28Z</time>
      </trkpt>
      <trkpt lat="1.977018" lon="-76.723997">
        <ele>3382.947</ele>
        <time>2022-12-18T09:29:31Z</time>
      </trkpt>
      <trkpt lat="1.97706" lon="-76.724029">
        <ele>3385.866</ele>
        <time>2022-12-18T09:29:34Z</time>
      </trkpt>
      <trkpt lat="1.977099" lon="-76.724063">
        <ele>3386.160</ele>
        <time>2022-12-18T09:29:37Z</time>
      </trkpt>
      <trkpt lat="1.977139" lon="-76.724085">
        <ele>3386.148</ele>
        <time>2022-12-18T09:29:40Z</time>
      </trkpt>
      <trkpt lat="1.977185" lon="-76.724101">
        <ele>3387.589</ele>
        <time>2022-12-18T09:29:43Z</time>
      </trkpt>
      <trkpt lat="1.977229" lon="-76.724123">
        <ele>3386.675</ele>
        <time>2022-12-18T09:29:47Z</time>
      </trkpt>
      <trkpt lat="1.977268" lon="-76.724153">
        <ele>3381.422</ele>
        <time>2022-12-18T09:29:51Z</time>
      </trkpt>
      <trkpt lat="1.977358" lon="-76.724201">
        <ele>3386.037</ele>
        <time>2022-12-18T09:29:58Z</time>
      </trkpt>
      <trkpt lat="1.97738" lon="-76.724246">
        <ele>3386.551</ele>
        <time>2022-12-18T09:30:00Z</time>
      </trkpt>
      <trkpt lat="1.977427" lon="-76.724298">
        <ele>3387.601</ele>
        <time>2022-12-18T09:30:02Z</time>
      </trkpt>
      <trkpt lat="1.977469" lon="-76.724338">
        <ele>3386.011</ele>
        <time>2022-12-18T09:30:04Z</time>
      </trkpt>
      <trkpt lat="1.977503" lon="-76.724382">
        <ele>3385.309</ele>
        <time>2022-12-18T09:30:06Z</time>
      </trkpt>
      <trkpt lat="1.977524" lon="-76.724425">
        <ele>3385.216</ele>
        <time>2022-12-18T09:30:08Z</time>
      </trkpt>
      <trkpt lat="1.977562" lon="-76.724491">
        <ele>3384.947</ele>
        <time>2022-12-18T09:30:11Z</time>
      </trkpt>
      <trkpt lat="1.977578" lon="-76.724535">
        <ele>3386.266</ele>
        <time>2022-12-18T09:30:13Z</time>
      </trkpt>
      <trkpt lat="1.977572" lon="-76.72459">
        <ele>3389.860</ele>
        <time>2022-12-18T09:30:17Z</time>
      </trkpt>
      <trkpt lat="1.977539" lon="-76.724627">
        <ele>3393.438</ele>
        <time>2022-12-18T09:30:22Z</time>
      </trkpt>
      <trkpt lat="1.977521" lon="-76.724674">
        <ele>3393.789</ele>
        <time>2022-12-18T09:30:27Z</time>
      </trkpt>
      <trkpt lat="1.977487" lon="-76.724724">
        <ele>3392.775</ele>
        <time>2022-12-18T09:30:31Z</time>
      </trkpt>
      <trkpt lat="1.977494" lon="-76.724775">
        <ele>3392.452</ele>
        <time>2022-12-18T09:30:35Z</time>
      </trkpt>
      <trkpt lat="1.977515" lon="-76.724828">
        <ele>3392.917</ele>
        <time>2022-12-18T09:30:39Z</time>
      </trkpt>
      <trkpt lat="1.977545" lon="-76.724873">
        <ele>3393.088</ele>
        <time>2022-12-18T09:30:44Z</time>
      </trkpt>
      <trkpt lat="1.977584" lon="-76.724908">
        <ele>3393.524</ele>
        <time>2022-12-18T09:30:47Z</time>
      </trkpt>
      <trkpt lat="1.977616" lon="-76.724953">
        <ele>3392.026</ele>
        <time>2022-12-18T09:30:50Z</time>
      </trkpt>
      <trkpt lat="1.977665" lon="-76.724984">
        <ele>3389.309</ele>
        <time>2022-12-18T09:30:53Z</time>
      </trkpt>
      <trkpt lat="1.97773" lon="-76.724972">
        <ele>3388.729</ele>
        <time>2022-12-18T09:30:56Z</time>
      </trkpt>
      <trkpt lat="1.977782" lon="-76.724936">
        <ele>3390.470</ele>
        <time>2022-12-18T09:30:59Z</time>
      </trkpt>
      <trkpt lat="1.977824" lon="-76.724889">
        <ele>3390.249</ele>
        <time>2022-12-18T09:31:02Z</time>
      </trkpt>
      <trkpt lat="1.977849" lon="-76.72484">
        <ele>3392.613</ele>
        <time>2022-12-18T09:31:05Z</time>
      </trkpt>
      <trkpt lat="1.977872" lon="-76.724788">
        <ele>3393.661</ele>
        <time>2022-12-18T09:31:08Z</time>
      </trkpt>
      <trkpt lat="1.977898" lon="-76.724732">
        <ele>3392.982</ele>
        <time>2022-12-18T09:31:11Z</time>
      </trkpt>
      <trkpt lat="1.977934" lon="-76.724675">
        <ele>3393.738</ele>
        <time>2022-12-18T09:31:14Z</time>
      </trkpt>
      <trkpt lat="1.977952" lon="-76.724616">
        <ele>3394.635</ele>
        <time>2022-12-18T09:31:17Z</time>
      </trkpt>
      <trkpt lat="1.977967" lon="-76.724564">
        <ele>3394.310</ele>
        <time>2022-12-18T09:31:20Z</time>
      </trkpt>
      <trkpt lat="1.978004" lon="-76.724528">
        <ele>3394.065</ele>
        <time>2022-12-18T09:31:22Z</time>
      </trkpt>
      <trkpt lat="1.978054" lon="-76.724509">
        <ele>3393.468</ele>
        <time>2022-12-18T09:31:24Z</time>
      </trkpt>
      <trkpt lat="1.978099" lon="-76.7245">
        <ele>3391.714</ele>
        <time>2022-12-18T09:31:26Z</time>
      </trkpt>
      <trkpt lat="1.978157" lon="-76.724492">
        <ele>3393.109</ele>
        <time>2022-12-18T09:31:29Z</time>
      </trkpt>
      <trkpt lat="1.978224" lon="-76.7245">
        <ele>3393.537</ele>
        <time>2022-12-18T09:31:32Z</time>
      </trkpt>
      <trkpt lat="1.978272" lon="-76.72452">
        <ele>3398.368</ele>
        <time>2022-12-18T09:31:35Z</time>
      </trkpt>
      <trkpt lat="1.978316" lon="-76.724543">
        <ele>3398.717</ele>
        <time>2022-12-18T09:31:37Z</time>
      </trkpt>
      <trkpt lat="1.978358" lon="-76.72457">
        <ele>3399.581</ele>
        <time>2022-12-18T09:31:39Z</time>
      </trkpt>
      <trkpt lat="1.978401" lon="-76.724591">
        <ele>3401.049</ele>
        <time>2022-12-18T09:31:41Z</time>
      </trkpt>
      <trkpt lat="1.978452" lon="-76.724631">
        <ele>3403.290</ele>
        <time>2022-12-18T09:31:44Z</time>
      </trkpt>
      <trkpt lat="1.978484" lon="-76.724666">
        <ele>3405.756</ele>
        <time>2022-12-18T09:31:46Z</time>
      </trkpt>
      <trkpt lat="1.978523" lon="-76.7247">
        <ele>3406.893</ele>
        <time>2022-12-18T09:31:48Z</time>
      </trkpt>
      <trkpt lat="1.978565" lon="-76.724727">
        <ele>3409.168</ele>
        <time>2022-12-18T09:31:51Z</time>
      </trkpt>
      <trkpt lat="1.978606" lon="-76.724752">
        <ele>3410.966</ele>
        <time>2022-12-18T09:31:53Z</time>
      </trkpt>
      <trkpt lat="1.978663" lon="-76.72478">
        <ele>3411.729</ele>
        <time>2022-12-18T09:31:56Z</time>
      </trkpt>
      <trkpt lat="1.978715" lon="-76.724798">
        <ele>3412.521</ele>
        <time>2022-12-18T09:31:59Z</time>
      </trkpt>
      <trkpt lat="1.978775" lon="-76.724829">
        <ele>3414.409</ele>
        <time>2022-12-18T09:32:02Z</time>
      </trkpt>
      <trkpt lat="1.978818" lon="-76.724843">
        <ele>3414.797</ele>
        <time>2022-12-18T09:32:04Z</time>
      </trkpt>
      <trkpt lat="1.978874" lon="-76.724845">
        <ele>3416.668</ele>
        <time>2022-12-18T09:32:07Z</time>
      </trkpt>
      <trkpt lat="1.978918" lon="-76.724831">
        <ele>3417.267</ele>
        <time>2022-12-18T09:32:10Z</time>
      </trkpt>
      <trkpt lat="1.978978" lon="-76.724833">
        <ele>3419.091</ele>
        <time>2022-12-18T09:32:14Z</time>
      </trkpt>
      <trkpt lat="1.979027" lon="-76.724842">
        <ele>3421.679</ele>
        <time>2022-12-18T09:32:18Z</time>
      </trkpt>
      <trkpt lat="1.979075" lon="-76.724856">
        <ele>3424.040</ele>
        <time>2022-12-18T09:32:23Z</time>
      </trkpt>
      <trkpt lat="1.979123" lon="-76.724852">
        <ele>3423.176</ele>
        <time>2022-12-18T09:32:26Z</time>
      </trkpt>
      <trkpt lat="1.979174" lon="-76.724835">
        <ele>3418.233</ele>
        <time>2022-12-18T09:32:28Z</time>
      </trkpt>
      <trkpt lat="1.979235" lon="-76.724817">
        <ele>3416.798</ele>
        <time>2022-12-18T09:32:30Z</time>
      </trkpt>
      <trkpt lat="1.979294" lon="-76.7248">
        <ele>3415.829</ele>
        <time>2022-12-18T09:32:32Z</time>
      </trkpt>
      <trkpt lat="1.979341" lon="-76.724787">
        <ele>3417.200</ele>
        <time>2022-12-18T09:32:34Z</time>
      </trkpt>
      <trkpt lat="1.979401" lon="-76.724775">
        <ele>3419.020</ele>
        <time>2022-12-18T09:32:37Z</time>
      </trkpt>
      <trkpt lat="1.979453" lon="-76.724752">
        <ele>3417.409</ele>
        <time>2022-12-18T09:32:40Z</time>
      </trkpt>
      <trkpt lat="1.97951" lon="-76.724747">
        <ele>3418.253</ele>
        <time>2022-12-18T09:32:43Z</time>
      </trkpt>
      <trkpt lat="1.979574" lon="-76.724739">
        <ele>3418.594</ele>
        <time>2022-12-18T09:32:46Z</time>
      </trkpt>
      <trkpt lat="1.979617" lon="-76.724726">
        <ele>3418.313</ele>
        <time>2022-12-18T09:32:48Z</time>
      </trkpt>
      <trkpt lat="1.979664" lon="-76.724708">
        <ele>3417.037</ele>
        <time>2022-12-18T09:32:50Z</time>
      </trkpt>
      <trkpt lat="1.979704" lon="-76.72468">
        <ele>3414.745</ele>
        <time>2022-12-18T09:32:52Z</time>
      </trkpt>
      <trkpt lat="1.979746" lon="-76.724641">
        <ele>3414.256</ele>
        <time>2022-12-18T09:32:53Z</time>
      </trkpt>
      <trkpt lat="1.979798" lon="-76.724581">
        <ele>3411.282</ele>
        <time>2022-12-18T09:32:55Z</time>
      </trkpt>
      <trkpt lat="1.979834" lon="-76.724526">
        <ele>3411.269</ele>
        <time>2022-12-18T09:32:57Z</time>
      </trkpt>
      <trkpt lat="1.979847" lon="-76.724474">
        <ele>3411.684</ele>
        <time>2022-12-18T09:32:59Z</time>
      </trkpt>
      <trkpt lat="1.979846" lon="-76.724419">
        <ele>3410.615</ele>
        <time>2022-12-18T09:33:01Z</time>
      </trkpt>
      <trkpt lat="1.979853" lon="-76.724371">
        <ele>3410.565</ele>
        <time>2022-12-18T09:33:03Z</time>
      </trkpt>
      <trkpt lat="1.979849" lon="-76.724318">
        <ele>3411.811</ele>
        <time>2022-12-18T09:33:05Z</time>
      </trkpt>
      <trkpt lat="1.979843" lon="-76.724264">
        <ele>3399.409</ele>
        <time>2022-12-18T09:33:07Z</time>
      </trkpt>
      <trkpt lat="1.979834" lon="-76.724206">
        <ele>3405.072</ele>
        <time>2022-12-18T09:33:09Z</time>
      </trkpt>
      <trkpt lat="1.979822" lon="-76.724161">
        <ele>3404.733</ele>
        <time>2022-12-18T09:33:11Z</time>
      </trkpt>
      <trkpt lat="1.979802" lon="-76.724118">
        <ele>3409.182</ele>
        <time>2022-12-18T09:33:13Z</time>
      </trkpt>
      <trkpt lat="1.979785" lon="-76.724074">
        <ele>3409.526</ele>
        <time>2022-12-18T09:33:15Z</time>
      </trkpt>
      <trkpt lat="1.979765" lon="-76.724028">
        <ele>3410.154</ele>
        <time>2022-12-18T09:33:17Z</time>
      </trkpt>
      <trkpt lat="1.97974" lon="-76.723984">
        <ele>3410.045</ele>
        <time>2022-12-18T09:33:19Z</time>
      </trkpt>
      <trkpt lat="1.979718" lon="-76.723944">
        <ele>3410.391</ele>
        <time>2022-12-18T09:33:21Z</time>
      </trkpt>
      <trkpt lat="1.979686" lon="-76.723888">
        <ele>3410.578</ele>
        <time>2022-12-18T09:33:24Z</time>
      </trkpt>
      <trkpt lat="1.979666" lon="-76.723843">
        <ele>3409.063</ele>
        <time>2022-12-18T09:33:26Z</time>
      </trkpt>
      <trkpt lat="1.979646" lon="-76.723801">
        <ele>3398.757</ele>
        <time>2022-12-18T09:33:28Z</time>
      </trkpt>
      <trkpt lat="1.979629" lon="-76.723758">
        <ele>3405.000</ele>
        <time>2022-12-18T09:33:30Z</time>
      </trkpt>
      <trkpt lat="1.979595" lon="-76.7237">
        <ele>3406.820</ele>
        <time>2022-12-18T09:33:33Z</time>
      </trkpt>
      <trkpt lat="1.979579" lon="-76.723657">
        <ele>3407.109</ele>
        <time>2022-12-18T09:33:35Z</time>
      </trkpt>
      <trkpt lat="1.979547" lon="-76.723615">
        <ele>3408.496</ele>
        <time>2022-12-18T09:33:38Z</time>
      </trkpt>
      <trkpt lat="1.979583" lon="-76.723643">
        <ele>3413.647</ele>
        <time>2022-12-18T09:33:53Z</time>
      </trkpt>
      <trkpt lat="1.979618" lon="-76.723614">
        <ele>3408.596</ele>
        <time>2022-12-18T09:38:44Z</time>
      </trkpt>
      <trkpt lat="1.979615" lon="-76.723566">
        <ele>3406.060</ele>
        <time>2022-12-18T09:38:48Z</time>
      </trkpt>
      <trkpt lat="1.979606" lon="-76.723612">
        <ele>3417.718</ele>
        <time>2022-12-18T09:41:50Z</time>
      </trkpt>
      <trkpt lat="1.979603" lon="-76.723657">
        <ele>3417.119</ele>
        <time>2022-12-18T09:41:54Z</time>
      </trkpt>
      <trkpt lat="1.979594" lon="-76.723612">
        <ele>3415.025</ele>
        <time>2022-12-18T09:42:01Z</time>
      </trkpt>
      <trkpt lat="1.979558" lon="-76.723585">
        <ele>3411.222</ele>
        <time>2022-12-18T09:43:28Z</time>
      </trkpt>
      <trkpt lat="1.979542" lon="-76.723535">
        <ele>3410.047</ele>
        <time>2022-12-18T09:43:33Z</time>
      </trkpt>
      <trkpt lat="1.979527" lon="-76.723491">
        <ele>3409.727</ele>
        <time>2022-12-18T09:43:35Z</time>
      </trkpt>
      <trkpt lat="1.979506" lon="-76.72345">
        <ele>3409.168</ele>
        <time>2022-12-18T09:43:38Z</time>
      </trkpt>
      <trkpt lat="1.979486" lon="-76.723401">
        <ele>3407.014</ele>
        <time>2022-12-18T09:43:41Z</time>
      </trkpt>
      <trkpt lat="1.979462" lon="-76.72336">
        <ele>3406.509</ele>
        <time>2022-12-18T09:43:44Z</time>
      </trkpt>
      <trkpt lat="1.979442" lon="-76.723314">
        <ele>3405.613</ele>
        <time>2022-12-18T09:43:47Z</time>
      </trkpt>
      <trkpt lat="1.979427" lon="-76.72327">
        <ele>3405.564</ele>
        <time>2022-12-18T09:43:50Z</time>
      </trkpt>
      <trkpt lat="1.979407" lon="-76.723223">
        <ele>3405.433</ele>
        <time>2022-12-18T09:43:54Z</time>
      </trkpt>
      <trkpt lat="1.979385" lon="-76.723178">
        <ele>3404.767</ele>
        <time>2022-12-18T09:43:57Z</time>
      </trkpt>
      <trkpt lat="1.979368" lon="-76.723131">
        <ele>3388.075</ele>
        <time>2022-12-18T09:44:00Z</time>
      </trkpt>
      <trkpt lat="1.979348" lon="-76.723078">
        <ele>3397.646</ele>
        <time>2022-12-18T09:44:03Z</time>
      </trkpt>
      <trkpt lat="1.979314" lon="-76.723036">
        <ele>3401.612</ele>
        <time>2022-12-18T09:44:06Z</time>
      </trkpt>
      <trkpt lat="1.979283" lon="-76.723">
        <ele>3385.789</ele>
        <time>2022-12-18T09:44:09Z</time>
      </trkpt>
      <trkpt lat="1.979263" lon="-76.722956">
        <ele>3393.914</ele>
        <time>2022-12-18T09:44:12Z</time>
      </trkpt>
      <trkpt lat="1.979248" lon="-76.722909">
        <ele>3400.059</ele>
        <time>2022-12-18T09:44:16Z</time>
      </trkpt>
      <trkpt lat="1.979222" lon="-76.722857">
        <ele>3394.803</ele>
        <time>2022-12-18T09:44:20Z</time>
      </trkpt>
      <trkpt lat="1.97922" lon="-76.722811">
        <ele>3379.423</ele>
        <time>2022-12-18T09:44:23Z</time>
      </trkpt>
      <trkpt lat="1.979208" lon="-76.722766">
        <ele>3384.009</ele>
        <time>2022-12-18T09:44:26Z</time>
      </trkpt>
      <trkpt lat="1.979186" lon="-76.722724">
        <ele>3397.336</ele>
        <time>2022-12-18T09:44:29Z</time>
      </trkpt>
      <trkpt lat="1.979161" lon="-76.722676">
        <ele>3403.927</ele>
        <time>2022-12-18T09:44:33Z</time>
      </trkpt>
      <trkpt lat="1.979146" lon="-76.72262">
        <ele>3407.636</ele>
        <time>2022-12-18T09:44:36Z</time>
      </trkpt>
      <trkpt lat="1.979129" lon="-76.722571">
        <ele>3408.090</ele>
        <time>2022-12-18T09:44:38Z</time>
      </trkpt>
      <trkpt lat="1.979112" lon="-76.72252">
        <ele>3406.098</ele>
        <time>2022-12-18T09:44:41Z</time>
      </trkpt>
      <trkpt lat="1.979101" lon="-76.722475">
        <ele>3407.399</ele>
        <time>2022-12-18T09:44:42Z</time>
      </trkpt>
      <trkpt lat="1.979086" lon="-76.72242">
        <ele>3405.835</ele>
        <time>2022-12-18T09:44:45Z</time>
      </trkpt>
      <trkpt lat="1.97907" lon="-76.722358">
        <ele>3404.622</ele>
        <time>2022-12-18T09:44:47Z</time>
      </trkpt>
      <trkpt lat="1.979048" lon="-76.722299">
        <ele>3403.657</ele>
        <time>2022-12-18T09:44:49Z</time>
      </trkpt>
      <trkpt lat="1.979032" lon="-76.72225">
        <ele>3403.464</ele>
        <time>2022-12-18T09:44:51Z</time>
      </trkpt>
      <trkpt lat="1.979019" lon="-76.722188">
        <ele>3404.106</ele>
        <time>2022-12-18T09:44:53Z</time>
      </trkpt>
      <trkpt lat="1.979025" lon="-76.722126">
        <ele>3404.616</ele>
        <time>2022-12-18T09:44:55Z</time>
      </trkpt>
      <trkpt lat="1.979043" lon="-76.722082">
        <ele>3405.209</ele>
        <time>2022-12-18T09:44:57Z</time>
      </trkpt>
      <trkpt lat="1.979011" lon="-76.722016">
        <ele>3380.697</ele>
        <time>2022-12-18T09:45:07Z</time>
      </trkpt>
      <trkpt lat="1.978997" lon="-76.721963">
        <ele>3398.748</ele>
        <time>2022-12-18T09:45:12Z</time>
      </trkpt>
      <trkpt lat="1.978989" lon="-76.72191">
        <ele>3408.097</ele>
        <time>2022-12-18T09:45:16Z</time>
      </trkpt>
      <trkpt lat="1.978985" lon="-76.721864">
        <ele>3408.881</ele>
        <time>2022-12-18T09:45:19Z</time>
      </trkpt>
      <trkpt lat="1.978982" lon="-76.721817">
        <ele>3409.949</ele>
        <time>2022-12-18T09:45:22Z</time>
      </trkpt>
      <trkpt lat="1.978966" lon="-76.721768">
        <ele>3409.320</ele>
        <time>2022-12-18T09:45:25Z</time>
      </trkpt>
      <trkpt lat="1.978952" lon="-76.721722">
        <ele>3410.476</ele>
        <time>2022-12-18T09:45:28Z</time>
      </trkpt>
      <trkpt lat="1.978945" lon="-76.721675">
        <ele>3411.023</ele>
        <time>2022-12-18T09:45:33Z</time>
      </trkpt>
      <trkpt lat="1.978931" lon="-76.721581">
        <ele>3411.278</ele>
        <time>2022-12-18T09:45:46Z</time>
      </trkpt>
      <trkpt lat="1.978904" lon="-76.721467">
        <ele>3412.841</ele>
        <time>2022-12-18T09:45:48Z</time>
      </trkpt>
      <trkpt lat="1.978888" lon="-76.72141">
        <ele>3412.481</ele>
        <time>2022-12-18T09:45:51Z</time>
      </trkpt>
      <trkpt lat="1.97887" lon="-76.721362">
        <ele>3412.409</ele>
        <time>2022-12-18T09:45:54Z</time>
      </trkpt>
      <trkpt lat="1.978871" lon="-76.721314">
        <ele>3396.409</ele>
        <time>2022-12-18T09:45:56Z</time>
      </trkpt>
      <trkpt lat="1.978877" lon="-76.721255">
        <ele>3391.285</ele>
        <time>2022-12-18T09:46:00Z</time>
      </trkpt>
      <trkpt lat="1.97888" lon="-76.7212">
        <ele>3397.036</ele>
        <time>2022-12-18T09:46:02Z</time>
      </trkpt>
      <trkpt lat="1.978866" lon="-76.721075">
        <ele>3384.925</ele>
        <time>2022-12-18T09:46:17Z</time>
      </trkpt>
      <trkpt lat="1.978846" lon="-76.720939">
        <ele>3415.989</ele>
        <time>2022-12-18T09:46:19Z</time>
      </trkpt>
      <trkpt lat="1.978832" lon="-76.720877">
        <ele>3416.227</ele>
        <time>2022-12-18T09:46:21Z</time>
      </trkpt>
      <trkpt lat="1.978812" lon="-76.72081">
        <ele>3416.418</ele>
        <time>2022-12-18T09:46:25Z</time>
      </trkpt>
      <trkpt lat="1.978827" lon="-76.720763">
        <ele>3417.884</ele>
        <time>2022-12-18T09:46:28Z</time>
      </trkpt>
      <trkpt lat="1.978874" lon="-76.720768">
        <ele>3418.581</ele>
        <time>2022-12-18T09:46:35Z</time>
      </trkpt>
      <trkpt lat="1.978923" lon="-76.720778">
        <ele>3401.746</ele>
        <time>2022-12-18T09:46:42Z</time>
      </trkpt>
      <trkpt lat="1.978971" lon="-76.720788">
        <ele>3413.292</ele>
        <time>2022-12-18T09:46:47Z</time>
      </trkpt>
      <trkpt lat="1.979019" lon="-76.720785">
        <ele>3417.673</ele>
        <time>2022-12-18T09:46:52Z</time>
      </trkpt>
      <trkpt lat="1.978973" lon="-76.720783">
        <ele>3420.520</ele>
        <time>2022-12-18T09:50:06Z</time>
      </trkpt>
      <trkpt lat="1.978929" lon="-76.720772">
        <ele>3419.009</ele>
        <time>2022-12-18T09:50:16Z</time>
      </trkpt>
      <trkpt lat="1.978886" lon="-76.720787">
        <ele>3420.190</ele>
        <time>2022-12-18T09:50:20Z</time>
      </trkpt>
      <trkpt lat="1.978876" lon="-76.720743">
        <ele>3409.841</ele>
        <time>2022-12-18T09:50:26Z</time>
      </trkpt>
      <trkpt lat="1.978865" lon="-76.720687">
        <ele>3409.430</ele>
        <time>2022-12-18T09:50:29Z</time>
      </trkpt>
      <trkpt lat="1.978847" lon="-76.720637">
        <ele>3416.654</ele>
        <time>2022-12-18T09:50:32Z</time>
      </trkpt>
      <trkpt lat="1.978822" lon="-76.720586">
        <ele>3397.842</ele>
        <time>2022-12-18T09:50:35Z</time>
      </trkpt>
      <trkpt lat="1.978797" lon="-76.720529">
        <ele>3410.253</ele>
        <time>2022-12-18T09:50:38Z</time>
      </trkpt>
      <trkpt lat="1.978795" lon="-76.720474">
        <ele>3413.119</ele>
        <time>2022-12-18T09:50:40Z</time>
      </trkpt>
      <trkpt lat="1.978771" lon="-76.72041">
        <ele>3413.926</ele>
        <time>2022-12-18T09:50:43Z</time>
      </trkpt>
      <trkpt lat="1.978741" lon="-76.720362">
        <ele>3417.481</ele>
        <time>2022-12-18T09:50:45Z</time>
      </trkpt>
      <trkpt lat="1.978736" lon="-76.720306">
        <ele>3417.578</ele>
        <time>2022-12-18T09:50:47Z</time>
      </trkpt>
      <trkpt lat="1.978715" lon="-76.720256">
        <ele>3416.633</ele>
        <time>2022-12-18T09:50:49Z</time>
      </trkpt>
      <trkpt lat="1.978687" lon="-76.720201">
        <ele>3415.626</ele>
        <time>2022-12-18T09:50:51Z</time>
      </trkpt>
      <trkpt lat="1.978661" lon="-76.720144">
        <ele>3414.309</ele>
        <time>2022-12-18T09:50:53Z</time>
      </trkpt>
      <trkpt lat="1.978637" lon="-76.720089">
        <ele>3413.148</ele>
        <time>2022-12-18T09:50:55Z</time>
      </trkpt>
      <trkpt lat="1.97862" lon="-76.720034">
        <ele>3413.299</ele>
        <time>2022-12-18T09:50:57Z</time>
      </trkpt>
      <trkpt lat="1.978603" lon="-76.719981">
        <ele>3413.268</ele>
        <time>2022-12-18T09:50:59Z</time>
      </trkpt>
      <trkpt lat="1.97846" lon="-76.719711">
        <ele>3413.282</ele>
        <time>2022-12-18T09:51:09Z</time>
      </trkpt>
      <trkpt lat="1.978492" lon="-76.719785">
        <ele>3406.260</ele>
        <time>2022-12-18T09:51:11Z</time>
      </trkpt>
      <trkpt lat="1.978432" lon="-76.71967">
        <ele>3406.051</ele>
        <time>2022-12-18T09:51:12Z</time>
      </trkpt>
      <trkpt lat="1.978404" lon="-76.719601">
        <ele>3406.187</ele>
        <time>2022-12-18T09:51:13Z</time>
      </trkpt>
      <trkpt lat="1.978358" lon="-76.719516">
        <ele>3407.954</ele>
        <time>2022-12-18T09:51:15Z</time>
      </trkpt>
      <trkpt lat="1.978342" lon="-76.719468">
        <ele>3409.099</ele>
        <time>2022-12-18T09:51:16Z</time>
      </trkpt>
      <trkpt lat="1.978318" lon="-76.719395">
        <ele>3409.829</ele>
        <time>2022-12-18T09:51:18Z</time>
      </trkpt>
      <trkpt lat="1.978289" lon="-76.719332">
        <ele>3409.800</ele>
        <time>2022-12-18T09:51:20Z</time>
      </trkpt>
      <trkpt lat="1.978268" lon="-76.719289">
        <ele>3408.120</ele>
        <time>2022-12-18T09:51:21Z</time>
      </trkpt>
      <trkpt lat="1.978223" lon="-76.71922">
        <ele>3408.009</ele>
        <time>2022-12-18T09:51:23Z</time>
      </trkpt>
      <trkpt lat="1.978174" lon="-76.71915">
        <ele>3407.993</ele>
        <time>2022-12-18T09:51:25Z</time>
      </trkpt>
      <trkpt lat="1.978153" lon="-76.719109">
        <ele>3408.284</ele>
        <time>2022-12-18T09:51:26Z</time>
      </trkpt>
      <trkpt lat="1.978105" lon="-76.719035">
        <ele>3409.313</ele>
        <time>2022-12-18T09:51:28Z</time>
      </trkpt>
      <trkpt lat="1.978065" lon="-76.71897">
        <ele>3409.137</ele>
        <time>2022-12-18T09:51:30Z</time>
      </trkpt>
      <trkpt lat="1.978028" lon="-76.718902">
        <ele>3409.845</ele>
        <time>2022-12-18T09:51:41Z</time>
      </trkpt>
      <trkpt lat="1.977886" lon="-76.718609">
        <ele>3406.856</ele>
        <time>2022-12-18T09:51:43Z</time>
      </trkpt>
      <trkpt lat="1.977766" lon="-76.718346">
        <ele>3404.232</ele>
        <time>2022-12-18T09:51:45Z</time>
      </trkpt>
      <trkpt lat="1.977726" lon="-76.71826">
        <ele>3404.739</ele>
        <time>2022-12-18T09:51:46Z</time>
      </trkpt>
      <trkpt lat="1.977693" lon="-76.718137">
        <ele>3404.514</ele>
        <time>2022-12-18T09:51:48Z</time>
      </trkpt>
      <trkpt lat="1.977669" lon="-76.71804">
        <ele>3405.328</ele>
        <time>2022-12-18T09:51:50Z</time>
      </trkpt>
      <trkpt lat="1.977654" lon="-76.717975">
        <ele>3406.189</ele>
        <time>2022-12-18T09:51:52Z</time>
      </trkpt>
      <trkpt lat="1.977631" lon="-76.717915">
        <ele>3406.917</ele>
        <time>2022-12-18T09:51:54Z</time>
      </trkpt>
      <trkpt lat="1.977637" lon="-76.717846">
        <ele>3407.409</ele>
        <time>2022-12-18T09:51:55Z</time>
      </trkpt>
      <trkpt lat="1.977636" lon="-76.7178">
        <ele>3406.173</ele>
        <time>2022-12-18T09:51:57Z</time>
      </trkpt>
      <trkpt lat="1.977641" lon="-76.717744">
        <ele>3407.544</ele>
        <time>2022-12-18T09:51:58Z</time>
      </trkpt>
      <trkpt lat="1.977636" lon="-76.717698">
        <ele>3407.893</ele>
        <time>2022-12-18T09:52:00Z</time>
      </trkpt>
      <trkpt lat="1.977628" lon="-76.717636">
        <ele>3407.787</ele>
        <time>2022-12-18T09:52:02Z</time>
      </trkpt>
      <trkpt lat="1.977609" lon="-76.717581">
        <ele>3406.955</ele>
        <time>2022-12-18T09:52:04Z</time>
      </trkpt>
      <trkpt lat="1.977595" lon="-76.717522">
        <ele>3406.666</ele>
        <time>2022-12-18T09:52:06Z</time>
      </trkpt>
      <trkpt lat="1.97758" lon="-76.717455">
        <ele>3406.992</ele>
        <time>2022-12-18T09:52:08Z</time>
      </trkpt>
      <trkpt lat="1.977558" lon="-76.717391">
        <ele>3407.779</ele>
        <time>2022-12-18T09:52:10Z</time>
      </trkpt>
      <trkpt lat="1.977532" lon="-76.71733">
        <ele>3408.134</ele>
        <time>2022-12-18T09:52:12Z</time>
      </trkpt>
      <trkpt lat="1.977498" lon="-76.717273">
        <ele>3407.783</ele>
        <time>2022-12-18T09:52:14Z</time>
      </trkpt>
      <trkpt lat="1.977443" lon="-76.717241">
        <ele>3409.525</ele>
        <time>2022-12-18T09:52:17Z</time>
      </trkpt>
      <trkpt lat="1.977453" lon="-76.717285">
        <ele>3411.017</ele>
        <time>2022-12-18T09:53:00Z</time>
      </trkpt>
      <trkpt lat="1.9775" lon="-76.717267">
        <ele>3413.309</ele>
        <time>2022-12-18T09:54:13Z</time>
      </trkpt>
      <trkpt lat="1.977454" lon="-76.717271">
        <ele>3411.849</ele>
        <time>2022-12-18T09:55:45Z</time>
      </trkpt>
      <trkpt lat="1.977432" lon="-76.717229">
        <ele>3414.810</ele>
        <time>2022-12-18T09:56:07Z</time>
      </trkpt>
      <trkpt lat="1.977482" lon="-76.717238">
        <ele>3413.049</ele>
        <time>2022-12-18T09:56:21Z</time>
      </trkpt>
      <trkpt lat="1.977515" lon="-76.717296">
        <ele>3414.753</ele>
        <time>2022-12-18T09:56:24Z</time>
      </trkpt>
      <trkpt lat="1.977534" lon="-76.717339">
        <ele>3414.271</ele>
        <time>2022-12-18T09:56:26Z</time>
      </trkpt>
      <trkpt lat="1.977558" lon="-76.717389">
        <ele>3415.432</ele>
        <time>2022-12-18T09:56:28Z</time>
      </trkpt>
      <trkpt lat="1.977574" lon="-76.717439">
        <ele>3415.928</ele>
        <time>2022-12-18T09:56:30Z</time>
      </trkpt>
      <trkpt lat="1.977588" lon="-76.717484">
        <ele>3416.335</ele>
        <time>2022-12-18T09:56:32Z</time>
      </trkpt>
      <trkpt lat="1.977604" lon="-76.717541">
        <ele>3417.790</ele>
        <time>2022-12-18T09:56:35Z</time>
      </trkpt>
      <trkpt lat="1.97765" lon="-76.717574">
        <ele>3418.517</ele>
        <time>2022-12-18T09:56:38Z</time>
      </trkpt>
      <trkpt lat="1.977692" lon="-76.717597">
        <ele>3419.087</ele>
        <time>2022-12-18T09:56:41Z</time>
      </trkpt>
      <trkpt lat="1.977677" lon="-76.717644">
        <ele>3417.715</ele>
        <time>2022-12-18T09:56:46Z</time>
      </trkpt>
      <trkpt lat="1.977666" lon="-76.717596">
        <ele>3417.009</ele>
        <time>2022-12-18T09:56:48Z</time>
      </trkpt>
      <trkpt lat="1.977681" lon="-76.71754">
        <ele>3415.762</ele>
        <time>2022-12-18T09:56:50Z</time>
      </trkpt>
      <trkpt lat="1.977637" lon="-76.717521">
        <ele>3415.593</ele>
        <time>2022-12-18T09:57:05Z</time>
      </trkpt>
      <trkpt lat="1.977621" lon="-76.717566">
        <ele>3414.012</ele>
        <time>2022-12-18T09:57:09Z</time>
      </trkpt>
      <trkpt lat="1.977663" lon="-76.717584">
        <ele>3413.586</ele>
        <time>2022-12-18T09:57:13Z</time>
      </trkpt>
      <trkpt lat="1.977686" lon="-76.71754">
        <ele>3414.074</ele>
        <time>2022-12-18T09:57:16Z</time>
      </trkpt>
      <trkpt lat="1.977679" lon="-76.717491">
        <ele>3412.045</ele>
        <time>2022-12-18T09:57:19Z</time>
      </trkpt>
      <trkpt lat="1.97765" lon="-76.717447">
        <ele>3411.921</ele>
        <time>2022-12-18T09:57:23Z</time>
      </trkpt>
      <trkpt lat="1.977649" lon="-76.717398">
        <ele>3412.528</ele>
        <time>2022-12-18T09:57:27Z</time>
      </trkpt>
      <trkpt lat="1.977643" lon="-76.71735">
        <ele>3411.283</ele>
        <time>2022-12-18T09:57:31Z</time>
      </trkpt>
      <trkpt lat="1.977608" lon="-76.717311">
        <ele>3411.245</ele>
        <time>2022-12-18T09:57:36Z</time>
      </trkpt>
      <trkpt lat="1.977592" lon="-76.717258">
        <ele>3411.747</ele>
        <time>2022-12-18T09:57:41Z</time>
      </trkpt>
      <trkpt lat="1.977572" lon="-76.717216">
        <ele>3410.611</ele>
        <time>2022-12-18T09:57:44Z</time>
      </trkpt>
      <trkpt lat="1.977556" lon="-76.717162">
        <ele>3412.309</ele>
        <time>2022-12-18T09:57:49Z</time>
      </trkpt>
      <trkpt lat="1.977541" lon="-76.717115">
        <ele>3411.585</ele>
        <time>2022-12-18T09:57:52Z</time>
      </trkpt>
      <trkpt lat="1.977528" lon="-76.717066">
        <ele>3411.646</ele>
        <time>2022-12-18T09:57:56Z</time>
      </trkpt>
      <trkpt lat="1.977502" lon="-76.717018">
        <ele>3412.195</ele>
        <time>2022-12-18T09:58:00Z</time>
      </trkpt>
      <trkpt lat="1.977481" lon="-76.716969">
        <ele>3412.119</ele>
        <time>2022-12-18T09:58:04Z</time>
      </trkpt>
      <trkpt lat="1.977463" lon="-76.716926">
        <ele>3412.937</ele>
        <time>2022-12-18T09:58:07Z</time>
      </trkpt>
      <trkpt lat="1.977447" lon="-76.716878">
        <ele>3412.938</ele>
        <time>2022-12-18T09:58:10Z</time>
      </trkpt>
      <trkpt lat="1.977439" lon="-76.716826">
        <ele>3413.084</ele>
        <time>2022-12-18T09:58:13Z</time>
      </trkpt>
      <trkpt lat="1.977434" lon="-76.716773">
        <ele>3412.021</ele>
        <time>2022-12-18T09:58:16Z</time>
      </trkpt>
      <trkpt lat="1.977435" lon="-76.716721">
        <ele>3412.336</ele>
        <time>2022-12-18T09:58:19Z</time>
      </trkpt>
      <trkpt lat="1.977434" lon="-76.716674">
        <ele>3411.819</ele>
        <time>2022-12-18T09:58:22Z</time>
      </trkpt>
      <trkpt lat="1.977438" lon="-76.716623">
        <ele>3412.209</ele>
        <time>2022-12-18T09:58:25Z</time>
      </trkpt>
      <trkpt lat="1.977452" lon="-76.716567">
        <ele>3411.919</ele>
        <time>2022-12-18T09:58:28Z</time>
      </trkpt>
      <trkpt lat="1.977465" lon="-76.716512">
        <ele>3413.509</ele>
        <time>2022-12-18T09:58:31Z</time>
      </trkpt>
      <trkpt lat="1.977474" lon="-76.716459">
        <ele>3414.192</ele>
        <time>2022-12-18T09:58:34Z</time>
      </trkpt>
      <trkpt lat="1.977479" lon="-76.716405">
        <ele>3414.133</ele>
        <time>2022-12-18T09:58:37Z</time>
      </trkpt>
      <trkpt lat="1.977474" lon="-76.716351">
        <ele>3414.792</ele>
        <time>2022-12-18T09:58:40Z</time>
      </trkpt>
      <trkpt lat="1.977475" lon="-76.716179">
        <ele>3414.956</ele>
        <time>2022-12-18T09:58:50Z</time>
      </trkpt>
      <trkpt lat="1.97744" lon="-76.71615">
        <ele>3402.874</ele>
        <time>2022-12-18T09:58:54Z</time>
      </trkpt>
      <trkpt lat="1.977408" lon="-76.716097">
        <ele>3382.385</ele>
        <time>2022-12-18T09:58:57Z</time>
      </trkpt>
      <trkpt lat="1.977376" lon="-76.716054">
        <ele>3395.811</ele>
        <time>2022-12-18T09:59:00Z</time>
      </trkpt>
      <trkpt lat="1.977343" lon="-76.716019">
        <ele>3406.968</ele>
        <time>2022-12-18T09:59:03Z</time>
      </trkpt>
      <trkpt lat="1.977315" lon="-76.715983">
        <ele>3411.573</ele>
        <time>2022-12-18T09:59:06Z</time>
      </trkpt>
      <trkpt lat="1.977287" lon="-76.715941">
        <ele>3413.964</ele>
        <time>2022-12-18T09:59:09Z</time>
      </trkpt>
      <trkpt lat="1.977254" lon="-76.715909">
        <ele>3414.506</ele>
        <time>2022-12-18T09:59:12Z</time>
      </trkpt>
      <trkpt lat="1.977224" lon="-76.715868">
        <ele>3414.516</ele>
        <time>2022-12-18T09:59:16Z</time>
      </trkpt>
      <trkpt lat="1.9772" lon="-76.71582">
        <ele>3414.909</ele>
        <time>2022-12-18T09:59:20Z</time>
      </trkpt>
      <trkpt lat="1.977165" lon="-76.715784">
        <ele>3413.917</ele>
        <time>2022-12-18T09:59:23Z</time>
      </trkpt>
      <trkpt lat="1.977137" lon="-76.715745">
        <ele>3414.658</ele>
        <time>2022-12-18T09:59:26Z</time>
      </trkpt>
      <trkpt lat="1.977112" lon="-76.715701">
        <ele>3415.327</ele>
        <time>2022-12-18T09:59:29Z</time>
      </trkpt>
      <trkpt lat="1.977096" lon="-76.715654">
        <ele>3416.051</ele>
        <time>2022-12-18T09:59:33Z</time>
      </trkpt>
      <trkpt lat="1.977067" lon="-76.715619">
        <ele>3416.779</ele>
        <time>2022-12-18T09:59:36Z</time>
      </trkpt>
      <trkpt lat="1.977034" lon="-76.715587">
        <ele>3416.820</ele>
        <time>2022-12-18T09:59:39Z</time>
      </trkpt>
      <trkpt lat="1.977001" lon="-76.71554">
        <ele>3417.446</ele>
        <time>2022-12-18T09:59:43Z</time>
      </trkpt>
      <trkpt lat="1.976971" lon="-76.715494">
        <ele>3417.823</ele>
        <time>2022-12-18T09:59:47Z</time>
      </trkpt>
      <trkpt lat="1.976943" lon="-76.715446">
        <ele>3419.168</ele>
        <time>2022-12-18T09:59:51Z</time>
      </trkpt>
      <trkpt lat="1.976919" lon="-76.715401">
        <ele>3419.295</ele>
        <time>2022-12-18T09:59:54Z</time>
      </trkpt>
      <trkpt lat="1.976891" lon="-76.715351">
        <ele>3420.449</ele>
        <time>2022-12-18T09:59:59Z</time>
      </trkpt>
      <trkpt lat="1.976867" lon="-76.715309">
        <ele>3420.923</ele>
        <time>2022-12-18T10:00:02Z</time>
      </trkpt>
      <trkpt lat="1.976836" lon="-76.715273">
        <ele>3420.409</ele>
        <time>2022-12-18T10:00:05Z</time>
      </trkpt>
      <trkpt lat="1.976802" lon="-76.715237">
        <ele>3421.060</ele>
        <time>2022-12-18T10:00:08Z</time>
      </trkpt>
      <trkpt lat="1.976766" lon="-76.715197">
        <ele>3422.991</ele>
        <time>2022-12-18T10:00:11Z</time>
      </trkpt>
      <trkpt lat="1.97674" lon="-76.71516">
        <ele>3422.950</ele>
        <time>2022-12-18T10:00:13Z</time>
      </trkpt>
      <trkpt lat="1.97673" lon="-76.715105">
        <ele>3424.824</ele>
        <time>2022-12-18T10:01:53Z</time>
      </trkpt>
      <trkpt lat="1.976696" lon="-76.715049">
        <ele>3423.952</ele>
        <time>2022-12-18T10:01:57Z</time>
      </trkpt>
      <trkpt lat="1.976667" lon="-76.715007">
        <ele>3423.913</ele>
        <time>2022-12-18T10:01:59Z</time>
      </trkpt>
      <trkpt lat="1.976633" lon="-76.71497">
        <ele>3424.119</ele>
        <time>2022-12-18T10:02:02Z</time>
      </trkpt>
      <trkpt lat="1.976602" lon="-76.714914">
        <ele>3424.616</ele>
        <time>2022-12-18T10:02:05Z</time>
      </trkpt>
      <trkpt lat="1.976574" lon="-76.714864">
        <ele>3424.131</ele>
        <time>2022-12-18T10:02:08Z</time>
      </trkpt>
      <trkpt lat="1.976541" lon="-76.714816">
        <ele>3424.087</ele>
        <time>2022-12-18T10:02:11Z</time>
      </trkpt>
      <trkpt lat="1.97651" lon="-76.714766">
        <ele>3424.842</ele>
        <time>2022-12-18T10:02:14Z</time>
      </trkpt>
      <trkpt lat="1.976486" lon="-76.714724">
        <ele>3425.126</ele>
        <time>2022-12-18T10:02:17Z</time>
      </trkpt>
      <trkpt lat="1.976469" lon="-76.714678">
        <ele>3425.309</ele>
        <time>2022-12-18T10:02:20Z</time>
      </trkpt>
      <trkpt lat="1.976401" lon="-76.714489">
        <ele>3426.099</ele>
        <time>2022-12-18T10:02:32Z</time>
      </trkpt>
      <trkpt lat="1.97641" lon="-76.714427">
        <ele>3425.080</ele>
        <time>2022-12-18T10:02:35Z</time>
      </trkpt>
      <trkpt lat="1.976396" lon="-76.714348">
        <ele>3424.279</ele>
        <time>2022-12-18T10:02:37Z</time>
      </trkpt>
      <trkpt lat="1.976387" lon="-76.714298">
        <ele>3425.563</ele>
        <time>2022-12-18T10:02:38Z</time>
      </trkpt>
      <trkpt lat="1.976375" lon="-76.714235">
        <ele>3425.711</ele>
        <time>2022-12-18T10:02:41Z</time>
      </trkpt>
      <trkpt lat="1.97637" lon="-76.714171">
        <ele>3426.062</ele>
        <time>2022-12-18T10:02:44Z</time>
      </trkpt>
      <trkpt lat="1.976372" lon="-76.714113">
        <ele>3426.468</ele>
        <time>2022-12-18T10:02:47Z</time>
      </trkpt>
      <trkpt lat="1.976379" lon="-76.71405">
        <ele>3427.365</ele>
        <time>2022-12-18T10:02:50Z</time>
      </trkpt>
      <trkpt lat="1.976374" lon="-76.713991">
        <ele>3426.880</ele>
        <time>2022-12-18T10:02:53Z</time>
      </trkpt>
      <trkpt lat="1.976367" lon="-76.713932">
        <ele>3426.688</ele>
        <time>2022-12-18T10:02:56Z</time>
      </trkpt>
      <trkpt lat="1.976373" lon="-76.713887">
        <ele>3427.124</ele>
        <time>2022-12-18T10:02:58Z</time>
      </trkpt>
      <trkpt lat="1.976355" lon="-76.713843">
        <ele>3426.126</ele>
        <time>2022-12-18T10:03:00Z</time>
      </trkpt>
      <trkpt lat="1.976352" lon="-76.713789">
        <ele>3427.109</ele>
        <time>2022-12-18T10:03:03Z</time>
      </trkpt>
      <trkpt lat="1.976357" lon="-76.713625">
        <ele>3429.399</ele>
        <time>2022-12-18T10:03:34Z</time>
      </trkpt>
      <trkpt lat="1.976365" lon="-76.713463">
        <ele>3430.220</ele>
        <time>2022-12-18T10:03:35Z</time>
      </trkpt>
      <trkpt lat="1.976377" lon="-76.713363">
        <ele>3430.119</ele>
        <time>2022-12-18T10:03:36Z</time>
      </trkpt>
      <trkpt lat="1.976389" lon="-76.713296">
        <ele>3430.613</ele>
        <time>2022-12-18T10:03:37Z</time>
      </trkpt>
      <trkpt lat="1.976417" lon="-76.713212">
        <ele>3431.441</ele>
        <time>2022-12-18T10:03:39Z</time>
      </trkpt>
      <trkpt lat="1.976454" lon="-76.713158">
        <ele>3431.452</ele>
        <time>2022-12-18T10:03:42Z</time>
      </trkpt>
      <trkpt lat="1.976482" lon="-76.713121">
        <ele>3431.318</ele>
        <time>2022-12-18T10:03:44Z</time>
      </trkpt>
      <trkpt lat="1.976519" lon="-76.713082">
        <ele>3432.645</ele>
        <time>2022-12-18T10:03:46Z</time>
      </trkpt>
      <trkpt lat="1.976554" lon="-76.71305">
        <ele>3432.630</ele>
        <time>2022-12-18T10:03:49Z</time>
      </trkpt>
      <trkpt lat="1.976605" lon="-76.71302">
        <ele>3432.918</ele>
        <time>2022-12-18T10:03:52Z</time>
      </trkpt>
      <trkpt lat="1.976653" lon="-76.71298">
        <ele>3433.398</ele>
        <time>2022-12-18T10:03:55Z</time>
      </trkpt>
      <trkpt lat="1.9767" lon="-76.712946">
        <ele>3434.317</ele>
        <time>2022-12-18T10:03:58Z</time>
      </trkpt>
      <trkpt lat="1.976745" lon="-76.712912">
        <ele>3435.409</ele>
        <time>2022-12-18T10:04:01Z</time>
      </trkpt>
      <trkpt lat="1.976797" lon="-76.712891">
        <ele>3435.852</ele>
        <time>2022-12-18T10:04:04Z</time>
      </trkpt>
      <trkpt lat="1.976846" lon="-76.71285">
        <ele>3437.043</ele>
        <time>2022-12-18T10:04:07Z</time>
      </trkpt>
      <trkpt lat="1.976886" lon="-76.71282">
        <ele>3437.792</ele>
        <time>2022-12-18T10:04:09Z</time>
      </trkpt>
      <trkpt lat="1.976941" lon="-76.712784">
        <ele>3436.876</ele>
        <time>2022-12-18T10:04:12Z</time>
      </trkpt>
      <trkpt lat="1.97698" lon="-76.71276">
        <ele>3436.374</ele>
        <time>2022-12-18T10:04:14Z</time>
      </trkpt>
      <trkpt lat="1.977039" lon="-76.712742">
        <ele>3436.985</ele>
        <time>2022-12-18T10:04:17Z</time>
      </trkpt>
      <trkpt lat="1.977084" lon="-76.712747">
        <ele>3437.541</ele>
        <time>2022-12-18T10:04:19Z</time>
      </trkpt>
      <trkpt lat="1.977151" lon="-76.712744">
        <ele>3437.358</ele>
        <time>2022-12-18T10:04:22Z</time>
      </trkpt>
      <trkpt lat="1.977198" lon="-76.71276">
        <ele>3438.183</ele>
        <time>2022-12-18T10:04:24Z</time>
      </trkpt>
      <trkpt lat="1.977247" lon="-76.712775">
        <ele>3439.233</ele>
        <time>2022-12-18T10:04:26Z</time>
      </trkpt>
      <trkpt lat="1.977294" lon="-76.712782">
        <ele>3440.823</ele>
        <time>2022-12-18T10:04:28Z</time>
      </trkpt>
      <trkpt lat="1.977339" lon="-76.712787">
        <ele>3440.915</ele>
        <time>2022-12-18T10:04:30Z</time>
      </trkpt>
      <trkpt lat="1.977389" lon="-76.712799">
        <ele>3441.909</ele>
        <time>2022-12-18T10:04:33Z</time>
      </trkpt>
      <trkpt lat="1.977433" lon="-76.712819">
        <ele>3442.854</ele>
        <time>2022-12-18T10:04:35Z</time>
      </trkpt>
      <trkpt lat="1.977478" lon="-76.712811">
        <ele>3443.645</ele>
        <time>2022-12-18T10:04:37Z</time>
      </trkpt>
      <trkpt lat="1.977538" lon="-76.712805">
        <ele>3443.054</ele>
        <time>2022-12-18T10:04:40Z</time>
      </trkpt>
      <trkpt lat="1.9776" lon="-76.712824">
        <ele>3443.268</ele>
        <time>2022-12-18T10:04:43Z</time>
      </trkpt>
      <trkpt lat="1.977658" lon="-76.712829">
        <ele>3442.796</ele>
        <time>2022-12-18T10:04:46Z</time>
      </trkpt>
      <trkpt lat="1.977715" lon="-76.712828">
        <ele>3443.077</ele>
        <time>2022-12-18T10:04:49Z</time>
      </trkpt>
      <trkpt lat="1.977772" lon="-76.712816">
        <ele>3443.753</ele>
        <time>2022-12-18T10:04:52Z</time>
      </trkpt>
      <trkpt lat="1.977824" lon="-76.712809">
        <ele>3443.260</ele>
        <time>2022-12-18T10:04:54Z</time>
      </trkpt>
      <trkpt lat="1.977877" lon="-76.712797">
        <ele>3441.765</ele>
        <time>2022-12-18T10:04:56Z</time>
      </trkpt>
      <trkpt lat="1.977927" lon="-76.712791">
        <ele>3441.491</ele>
        <time>2022-12-18T10:04:58Z</time>
      </trkpt>
      <trkpt lat="1.977981" lon="-76.712787">
        <ele>3439.781</ele>
        <time>2022-12-18T10:05:00Z</time>
      </trkpt>
      <trkpt lat="1.978031" lon="-76.712787">
        <ele>3441.019</ele>
        <time>2022-12-18T10:05:02Z</time>
      </trkpt>
      <trkpt lat="1.978097" lon="-76.712787">
        <ele>3440.109</ele>
        <time>2022-12-18T10:05:06Z</time>
      </trkpt>
      <trkpt lat="1.978147" lon="-76.712781">
        <ele>3437.260</ele>
        <time>2022-12-18T10:05:08Z</time>
      </trkpt>
      <trkpt lat="1.978198" lon="-76.712782">
        <ele>3437.191</ele>
        <time>2022-12-18T10:05:11Z</time>
      </trkpt>
      <trkpt lat="1.978251" lon="-76.712787">
        <ele>3437.360</ele>
        <time>2022-12-18T10:05:15Z</time>
      </trkpt>
      <trkpt lat="1.978306" lon="-76.712795">
        <ele>3436.824</ele>
        <time>2022-12-18T10:05:18Z</time>
      </trkpt>
      <trkpt lat="1.978365" lon="-76.712788">
        <ele>3436.262</ele>
        <time>2022-12-18T10:05:21Z</time>
      </trkpt>
      <trkpt lat="1.978417" lon="-76.712785">
        <ele>3438.013</ele>
        <time>2022-12-18T10:05:24Z</time>
      </trkpt>
      <trkpt lat="1.978472" lon="-76.712778">
        <ele>3436.919</ele>
        <time>2022-12-18T10:05:27Z</time>
      </trkpt>
      <trkpt lat="1.978524" lon="-76.712769">
        <ele>3436.936</ele>
        <time>2022-12-18T10:05:29Z</time>
      </trkpt>
      <trkpt lat="1.978577" lon="-76.712775">
        <ele>3440.261</ele>
        <time>2022-12-18T10:05:31Z</time>
      </trkpt>
      <trkpt lat="1.978636" lon="-76.712774">
        <ele>3440.112</ele>
        <time>2022-12-18T10:05:33Z</time>
      </trkpt>
      <trkpt lat="1.978687" lon="-76.712777">
        <ele>3440.132</ele>
        <time>2022-12-18T10:05:34Z</time>
      </trkpt>
      <trkpt lat="1.97874" lon="-76.71278">
        <ele>3439.105</ele>
        <time>2022-12-18T10:05:36Z</time>
      </trkpt>
      <trkpt lat="1.978791" lon="-76.712782">
        <ele>3439.109</ele>
        <time>2022-12-18T10:05:37Z</time>
      </trkpt>
      <trkpt lat="1.978891" lon="-76.712796">
        <ele>3437.432</ele>
        <time>2022-12-18T10:05:39Z</time>
      </trkpt>
      <trkpt lat="1.978942" lon="-76.712809">
        <ele>3436.813</ele>
        <time>2022-12-18T10:05:40Z</time>
      </trkpt>
      <trkpt lat="1.978991" lon="-76.712826">
        <ele>3436.082</ele>
        <time>2022-12-18T10:05:41Z</time>
      </trkpt>
      <trkpt lat="1.979085" lon="-76.71287">
        <ele>3435.826</ele>
        <time>2022-12-18T10:05:43Z</time>
      </trkpt>
      <trkpt lat="1.979133" lon="-76.712903">
        <ele>3435.394</ele>
        <time>2022-12-18T10:05:44Z</time>
      </trkpt>
      <trkpt lat="1.979176" lon="-76.712935">
        <ele>3435.575</ele>
        <time>2022-12-18T10:05:45Z</time>
      </trkpt>
      <trkpt lat="1.97926" lon="-76.712993">
        <ele>3433.621</ele>
        <time>2022-12-18T10:05:47Z</time>
      </trkpt>
      <trkpt lat="1.979302" lon="-76.713025">
        <ele>3433.418</ele>
        <time>2022-12-18T10:05:48Z</time>
      </trkpt>
      <trkpt lat="1.979378" lon="-76.713086">
        <ele>3432.513</ele>
        <time>2022-12-18T10:05:50Z</time>
      </trkpt>
      <trkpt lat="1.979452" lon="-76.713145">
        <ele>3432.268</ele>
        <time>2022-12-18T10:05:52Z</time>
      </trkpt>
      <trkpt lat="1.979492" lon="-76.713179">
        <ele>3431.242</ele>
        <time>2022-12-18T10:05:53Z</time>
      </trkpt>
      <trkpt lat="1.979568" lon="-76.713233">
        <ele>3431.026</ele>
        <time>2022-12-18T10:05:55Z</time>
      </trkpt>
      <trkpt lat="1.979611" lon="-76.713259">
        <ele>3430.609</ele>
        <time>2022-12-18T10:05:56Z</time>
      </trkpt>
      <trkpt lat="1.979655" lon="-76.71328">
        <ele>3430.527</ele>
        <time>2022-12-18T10:05:57Z</time>
      </trkpt>
      <trkpt lat="1.979742" lon="-76.713328">
        <ele>3429.748</ele>
        <time>2022-12-18T10:05:59Z</time>
      </trkpt>
      <trkpt lat="1.979788" lon="-76.713358">
        <ele>3427.837</ele>
        <time>2022-12-18T10:06:00Z</time>
      </trkpt>
      <trkpt lat="1.979877" lon="-76.713414">
        <ele>3427.051</ele>
        <time>2022-12-18T10:06:02Z</time>
      </trkpt>
      <trkpt lat="1.979927" lon="-76.713437">
        <ele>3426.179</ele>
        <time>2022-12-18T10:06:03Z</time>
      </trkpt>
      <trkpt lat="1.980023" lon="-76.713481">
        <ele>3424.850</ele>
        <time>2022-12-18T10:06:05Z</time>
      </trkpt>
      <trkpt lat="1.980118" lon="-76.713531">
        <ele>3423.846</ele>
        <time>2022-12-18T10:06:07Z</time>
      </trkpt>
      <trkpt lat="1.980164" lon="-76.713558">
        <ele>3423.033</ele>
        <time>2022-12-18T10:06:08Z</time>
      </trkpt>
      <trkpt lat="1.980208" lon="-76.713582">
        <ele>3423.218</ele>
        <time>2022-12-18T10:06:09Z</time>
      </trkpt>
      <trkpt lat="1.980298" lon="-76.713623">
        <ele>3422.853</ele>
        <time>2022-12-18T10:06:11Z</time>
      </trkpt>
      <trkpt lat="1.980394" lon="-76.713643">
        <ele>3423.104</ele>
        <time>2022-12-18T10:06:13Z</time>
      </trkpt>
      <trkpt lat="1.980495" lon="-76.713637">
        <ele>3421.614</ele>
        <time>2022-12-18T10:06:15Z</time>
      </trkpt>
      <trkpt lat="1.980608" lon="-76.713613">
        <ele>3421.709</ele>
        <time>2022-12-18T10:06:17Z</time>
      </trkpt>
      <trkpt lat="1.980717" lon="-76.713573">
        <ele>3421.266</ele>
        <time>2022-12-18T10:06:19Z</time>
      </trkpt>
      <trkpt lat="1.980772" lon="-76.713556">
        <ele>3420.767</ele>
        <time>2022-12-18T10:06:20Z</time>
      </trkpt>
      <trkpt lat="1.980971" lon="-76.713467">
        <ele>3420.246</ele>
        <time>2022-12-18T10:06:35Z</time>
      </trkpt>
      <trkpt lat="1.981477" lon="-76.713318">
        <ele>3418.680</ele>
        <time>2022-12-18T10:06:37Z</time>
      </trkpt>
      <trkpt lat="1.981628" lon="-76.71327">
        <ele>3418.688</ele>
        <time>2022-12-18T10:06:38Z</time>
      </trkpt>
      <trkpt lat="1.981737" lon="-76.713234">
        <ele>3418.179</ele>
        <time>2022-12-18T10:06:39Z</time>
      </trkpt>
      <trkpt lat="1.981886" lon="-76.713176">
        <ele>3417.685</ele>
        <time>2022-12-18T10:06:41Z</time>
      </trkpt>
      <trkpt lat="1.981951" lon="-76.713148">
        <ele>3417.212</ele>
        <time>2022-12-18T10:06:42Z</time>
      </trkpt>
      <trkpt lat="1.982073" lon="-76.713105">
        <ele>3417.577</ele>
        <time>2022-12-18T10:06:44Z</time>
      </trkpt>
      <trkpt lat="1.982199" lon="-76.713069">
        <ele>3417.565</ele>
        <time>2022-12-18T10:06:46Z</time>
      </trkpt>
      <trkpt lat="1.982325" lon="-76.713031">
        <ele>3417.168</ele>
        <time>2022-12-18T10:06:48Z</time>
      </trkpt>
      <trkpt lat="1.982386" lon="-76.71301">
        <ele>3416.914</ele>
        <time>2022-12-18T10:06:49Z</time>
      </trkpt>
      <trkpt lat="1.982509" lon="-76.712968">
        <ele>3414.809</ele>
        <time>2022-12-18T10:06:51Z</time>
      </trkpt>
      <trkpt lat="1.982575" lon="-76.712939">
        <ele>3414.627</ele>
        <time>2022-12-18T10:06:52Z</time>
      </trkpt>
      <trkpt lat="1.982709" lon="-76.712889">
        <ele>3413.118</ele>
        <time>2022-12-18T10:06:54Z</time>
      </trkpt>
      <trkpt lat="1.982777" lon="-76.712859">
        <ele>3413.187</ele>
        <time>2022-12-18T10:06:55Z</time>
      </trkpt>
      <trkpt lat="1.982843" lon="-76.71283">
        <ele>3413.741</ele>
        <time>2022-12-18T10:06:56Z</time>
      </trkpt>
      <trkpt lat="1.98298" lon="-76.712786">
        <ele>3413.329</ele>
        <time>2022-12-18T10:06:58Z</time>
      </trkpt>
      <trkpt lat="1.983108" lon="-76.712757">
        <ele>3414.170</ele>
        <time>2022-12-18T10:07:00Z</time>
      </trkpt>
      <trkpt lat="1.983216" lon="-76.712729">
        <ele>3413.696</ele>
        <time>2022-12-18T10:07:02Z</time>
      </trkpt>
      <trkpt lat="1.983261" lon="-76.712716">
        <ele>3413.763</ele>
        <time>2022-12-18T10:07:03Z</time>
      </trkpt>
      <trkpt lat="1.983342" lon="-76.712689">
        <ele>3413.448</ele>
        <time>2022-12-18T10:07:05Z</time>
      </trkpt>
      <trkpt lat="1.983407" lon="-76.712664">
        <ele>3413.741</ele>
        <time>2022-12-18T10:07:07Z</time>
      </trkpt>
      <trkpt lat="1.983485" lon="-76.712631">
        <ele>3414.081</ele>
        <time>2022-12-18T10:07:09Z</time>
      </trkpt>
      <trkpt lat="1.983548" lon="-76.712605">
        <ele>3415.109</ele>
        <time>2022-12-18T10:07:11Z</time>
      </trkpt>
      <trkpt lat="1.98359" lon="-76.712587">
        <ele>3414.909</ele>
        <time>2022-12-18T10:07:13Z</time>
      </trkpt>
      <trkpt lat="1.983649" lon="-76.712556">
        <ele>3414.885</ele>
        <time>2022-12-18T10:07:16Z</time>
      </trkpt>
      <trkpt lat="1.983695" lon="-76.712537">
        <ele>3415.656</ele>
        <time>2022-12-18T10:07:17Z</time>
      </trkpt>
      <trkpt lat="1.983745" lon="-76.712514">
        <ele>3415.495</ele>
        <time>2022-12-18T10:07:20Z</time>
      </trkpt>
      <trkpt lat="1.983802" lon="-76.712493">
        <ele>3417.349</ele>
        <time>2022-12-18T10:07:22Z</time>
      </trkpt>
      <trkpt lat="1.983854" lon="-76.71247">
        <ele>3416.357</ele>
        <time>2022-12-18T10:07:24Z</time>
      </trkpt>
      <trkpt lat="1.983903" lon="-76.712449">
        <ele>3416.858</ele>
        <time>2022-12-18T10:07:26Z</time>
      </trkpt>
      <trkpt lat="1.983948" lon="-76.712426">
        <ele>3415.994</ele>
        <time>2022-12-18T10:07:28Z</time>
      </trkpt>
      <trkpt lat="1.984009" lon="-76.712417">
        <ele>3416.841</ele>
        <time>2022-12-18T10:07:31Z</time>
      </trkpt>
      <trkpt lat="1.984062" lon="-76.712412">
        <ele>3415.676</ele>
        <time>2022-12-18T10:07:33Z</time>
      </trkpt>
      <trkpt lat="1.984118" lon="-76.712404">
        <ele>3415.538</ele>
        <time>2022-12-18T10:07:34Z</time>
      </trkpt>
      <trkpt lat="1.984165" lon="-76.712397">
        <ele>3412.970</ele>
        <time>2022-12-18T10:07:35Z</time>
      </trkpt>
      <trkpt lat="1.984214" lon="-76.712385">
        <ele>3412.417</ele>
        <time>2022-12-18T10:07:37Z</time>
      </trkpt>
      <trkpt lat="1.984266" lon="-76.712377">
        <ele>3412.009</ele>
        <time>2022-12-18T10:07:39Z</time>
      </trkpt>
      <trkpt lat="1.984325" lon="-76.712372">
        <ele>3412.224</ele>
        <time>2022-12-18T10:07:42Z</time>
      </trkpt>
      <trkpt lat="1.984373" lon="-76.712376">
        <ele>3412.215</ele>
        <time>2022-12-18T10:07:44Z</time>
      </trkpt>
      <trkpt lat="1.984418" lon="-76.712379">
        <ele>3413.264</ele>
        <time>2022-12-18T10:07:46Z</time>
      </trkpt>
      <trkpt lat="1.98447" lon="-76.712381">
        <ele>3412.938</ele>
        <time>2022-12-18T10:07:48Z</time>
      </trkpt>
      <trkpt lat="1.984519" lon="-76.712383">
        <ele>3413.286</ele>
        <time>2022-12-18T10:07:50Z</time>
      </trkpt>
      <trkpt lat="1.984565" lon="-76.712377">
        <ele>3412.617</ele>
        <time>2022-12-18T10:07:52Z</time>
      </trkpt>
      <trkpt lat="1.984617" lon="-76.712371">
        <ele>3411.613</ele>
        <time>2022-12-18T10:07:55Z</time>
      </trkpt>
      <trkpt lat="1.984665" lon="-76.712367">
        <ele>3411.570</ele>
        <time>2022-12-18T10:07:57Z</time>
      </trkpt>
      <trkpt lat="1.98471" lon="-76.712357">
        <ele>3414.565</ele>
        <time>2022-12-18T10:07:59Z</time>
      </trkpt>
      <trkpt lat="1.98477" lon="-76.712345">
        <ele>3414.872</ele>
        <time>2022-12-18T10:08:02Z</time>
      </trkpt>
      <trkpt lat="1.984814" lon="-76.712335">
        <ele>3414.213</ele>
        <time>2022-12-18T10:08:04Z</time>
      </trkpt>
      <trkpt lat="1.984861" lon="-76.712325">
        <ele>3412.614</ele>
        <time>2022-12-18T10:08:06Z</time>
      </trkpt>
      <trkpt lat="1.984921" lon="-76.712315">
        <ele>3413.109</ele>
        <time>2022-12-18T10:08:08Z</time>
      </trkpt>
      <trkpt lat="1.984972" lon="-76.712313">
        <ele>3411.788</ele>
        <time>2022-12-18T10:08:10Z</time>
      </trkpt>
      <trkpt lat="1.985026" lon="-76.712319">
        <ele>3412.319</ele>
        <time>2022-12-18T10:08:12Z</time>
      </trkpt>
      <trkpt lat="1.985084" lon="-76.712328">
        <ele>3412.468</ele>
        <time>2022-12-18T10:08:14Z</time>
      </trkpt>
      <trkpt lat="1.985145" lon="-76.71233">
        <ele>3411.322</ele>
        <time>2022-12-18T10:08:16Z</time>
      </trkpt>
      <trkpt lat="1.985207" lon="-76.712331">
        <ele>3411.110</ele>
        <time>2022-12-18T10:08:18Z</time>
      </trkpt>
      <trkpt lat="1.985265" lon="-76.712328">
        <ele>3410.281</ele>
        <time>2022-12-18T10:08:20Z</time>
      </trkpt>
      <trkpt lat="1.985322" lon="-76.712308">
        <ele>3409.567</ele>
        <time>2022-12-18T10:08:22Z</time>
      </trkpt>
      <trkpt lat="1.985371" lon="-76.712271">
        <ele>3409.174</ele>
        <time>2022-12-18T10:08:24Z</time>
      </trkpt>
      <trkpt lat="1.985422" lon="-76.712215">
        <ele>3408.519</ele>
        <time>2022-12-18T10:08:26Z</time>
      </trkpt>
      <trkpt lat="1.985447" lon="-76.712147">
        <ele>3407.785</ele>
        <time>2022-12-18T10:08:28Z</time>
      </trkpt>
      <trkpt lat="1.985465" lon="-76.712076">
        <ele>3407.089</ele>
        <time>2022-12-18T10:08:30Z</time>
      </trkpt>
      <trkpt lat="1.985488" lon="-76.712006">
        <ele>3406.917</ele>
        <time>2022-12-18T10:08:32Z</time>
      </trkpt>
      <trkpt lat="1.985508" lon="-76.711932">
        <ele>3406.209</ele>
        <time>2022-12-18T10:08:34Z</time>
      </trkpt>
      <trkpt lat="1.985532" lon="-76.711872">
        <ele>3406.149</ele>
        <time>2022-12-18T10:08:36Z</time>
      </trkpt>
      <trkpt lat="1.985567" lon="-76.711798">
        <ele>3404.830</ele>
        <time>2022-12-18T10:08:38Z</time>
      </trkpt>
      <trkpt lat="1.985615" lon="-76.711746">
        <ele>3402.619</ele>
        <time>2022-12-18T10:08:40Z</time>
      </trkpt>
      <trkpt lat="1.985674" lon="-76.711715">
        <ele>3401.823</ele>
        <time>2022-12-18T10:08:42Z</time>
      </trkpt>
      <trkpt lat="1.985758" lon="-76.711677">
        <ele>3399.941</ele>
        <time>2022-12-18T10:08:44Z</time>
      </trkpt>
      <trkpt lat="1.985817" lon="-76.711656">
        <ele>3399.922</ele>
        <time>2022-12-18T10:08:46Z</time>
      </trkpt>
      <trkpt lat="1.985863" lon="-76.711653">
        <ele>3400.918</ele>
        <time>2022-12-18T10:08:47Z</time>
      </trkpt>
      <trkpt lat="1.98596" lon="-76.71164">
        <ele>3401.075</ele>
        <time>2022-12-18T10:08:49Z</time>
      </trkpt>
      <trkpt lat="1.986011" lon="-76.711629">
        <ele>3408.340</ele>
        <time>2022-12-18T10:08:50Z</time>
      </trkpt>
      <trkpt lat="1.986063" lon="-76.711597">
        <ele>3412.717</ele>
        <time>2022-12-18T10:08:51Z</time>
      </trkpt>
      <trkpt lat="1.986257" lon="-76.71151">
        <ele>3397.187</ele>
        <time>2022-12-18T10:08:53Z</time>
      </trkpt>
      <trkpt lat="1.986379" lon="-76.711457">
        <ele>3397.515</ele>
        <time>2022-12-18T10:08:55Z</time>
      </trkpt>
      <trkpt lat="1.986426" lon="-76.711441">
        <ele>3397.109</ele>
        <time>2022-12-18T10:08:56Z</time>
      </trkpt>
      <trkpt lat="1.986497" lon="-76.711425">
        <ele>3397.962</ele>
        <time>2022-12-18T10:08:58Z</time>
      </trkpt>
      <trkpt lat="1.986567" lon="-76.711418">
        <ele>3400.033</ele>
        <time>2022-12-18T10:09:00Z</time>
      </trkpt>
      <trkpt lat="1.986627" lon="-76.711413">
        <ele>3399.892</ele>
        <time>2022-12-18T10:09:02Z</time>
      </trkpt>
      <trkpt lat="1.986688" lon="-76.711406">
        <ele>3400.896</ele>
        <time>2022-12-18T10:09:04Z</time>
      </trkpt>
      <trkpt lat="1.986742" lon="-76.711397">
        <ele>3401.044</ele>
        <time>2022-12-18T10:09:06Z</time>
      </trkpt>
      <trkpt lat="1.986812" lon="-76.711407">
        <ele>3400.735</ele>
        <time>2022-12-18T10:09:09Z</time>
      </trkpt>
      <trkpt lat="1.986865" lon="-76.711394">
        <ele>3400.761</ele>
        <time>2022-12-18T10:09:11Z</time>
      </trkpt>
      <trkpt lat="1.98692" lon="-76.711361">
        <ele>3400.998</ele>
        <time>2022-12-18T10:09:13Z</time>
      </trkpt>
      <trkpt lat="1.986977" lon="-76.711349">
        <ele>3400.633</ele>
        <time>2022-12-18T10:09:15Z</time>
      </trkpt>
      <trkpt lat="1.987021" lon="-76.711326">
        <ele>3401.524</ele>
        <time>2022-12-18T10:09:17Z</time>
      </trkpt>
      <trkpt lat="1.987069" lon="-76.711289">
        <ele>3401.304</ele>
        <time>2022-12-18T10:09:19Z</time>
      </trkpt>
      <trkpt lat="1.987115" lon="-76.711254">
        <ele>3401.014</ele>
        <time>2022-12-18T10:09:21Z</time>
      </trkpt>
      <trkpt lat="1.987166" lon="-76.711227">
        <ele>3401.509</ele>
        <time>2022-12-18T10:09:23Z</time>
      </trkpt>
      <trkpt lat="1.987218" lon="-76.711196">
        <ele>3400.463</ele>
        <time>2022-12-18T10:09:25Z</time>
      </trkpt>
      <trkpt lat="1.987263" lon="-76.711164">
        <ele>3406.514</ele>
        <time>2022-12-18T10:09:27Z</time>
      </trkpt>
      <trkpt lat="1.987313" lon="-76.711139">
        <ele>3403.423</ele>
        <time>2022-12-18T10:09:29Z</time>
      </trkpt>
      <trkpt lat="1.987362" lon="-76.71113">
        <ele>3402.177</ele>
        <time>2022-12-18T10:09:31Z</time>
      </trkpt>
      <trkpt lat="1.987389" lon="-76.71109">
        <ele>3401.635</ele>
        <time>2022-12-18T10:09:33Z</time>
      </trkpt>
      <trkpt lat="1.987434" lon="-76.711072">
        <ele>3401.576</ele>
        <time>2022-12-18T10:09:35Z</time>
      </trkpt>
      <trkpt lat="1.987468" lon="-76.711033">
        <ele>3403.072</ele>
        <time>2022-12-18T10:09:37Z</time>
      </trkpt>
      <trkpt lat="1.987522" lon="-76.710995">
        <ele>3401.829</ele>
        <time>2022-12-18T10:09:40Z</time>
      </trkpt>
      <trkpt lat="1.987568" lon="-76.710962">
        <ele>3401.334</ele>
        <time>2022-12-18T10:09:42Z</time>
      </trkpt>
      <trkpt lat="1.987621" lon="-76.710932">
        <ele>3400.875</ele>
        <time>2022-12-18T10:09:44Z</time>
      </trkpt>
      <trkpt lat="1.987672" lon="-76.710896">
        <ele>3401.528</ele>
        <time>2022-12-18T10:09:46Z</time>
      </trkpt>
      <trkpt lat="1.987726" lon="-76.710862">
        <ele>3400.520</ele>
        <time>2022-12-18T10:09:48Z</time>
      </trkpt>
      <trkpt lat="1.98779" lon="-76.710838">
        <ele>3399.909</ele>
        <time>2022-12-18T10:09:50Z</time>
      </trkpt>
      <trkpt lat="1.98784" lon="-76.710822">
        <ele>3400.568</ele>
        <time>2022-12-18T10:09:52Z</time>
      </trkpt>
      <trkpt lat="1.987893" lon="-76.710818">
        <ele>3400.649</ele>
        <time>2022-12-18T10:09:54Z</time>
      </trkpt>
      <trkpt lat="1.98795" lon="-76.710803">
        <ele>3400.978</ele>
        <time>2022-12-18T10:09:56Z</time>
      </trkpt>
      <trkpt lat="1.987995" lon="-76.710792">
        <ele>3400.922</ele>
        <time>2022-12-18T10:09:58Z</time>
      </trkpt>
      <trkpt lat="1.988053" lon="-76.710802">
        <ele>3401.570</ele>
        <time>2022-12-18T10:10:01Z</time>
      </trkpt>
      <trkpt lat="1.988109" lon="-76.710794">
        <ele>3401.311</ele>
        <time>2022-12-18T10:10:04Z</time>
      </trkpt>
      <trkpt lat="1.988167" lon="-76.710807">
        <ele>3401.857</ele>
        <time>2022-12-18T10:10:07Z</time>
      </trkpt>
      <trkpt lat="1.988218" lon="-76.710807">
        <ele>3401.654</ele>
        <time>2022-12-18T10:10:10Z</time>
      </trkpt>
      <trkpt lat="1.988274" lon="-76.710796">
        <ele>3400.749</ele>
        <time>2022-12-18T10:10:13Z</time>
      </trkpt>
      <trkpt lat="1.988326" lon="-76.710799">
        <ele>3400.865</ele>
        <time>2022-12-18T10:10:16Z</time>
      </trkpt>
      <trkpt lat="1.988373" lon="-76.710801">
        <ele>3400.568</ele>
        <time>2022-12-18T10:10:19Z</time>
      </trkpt>
      <trkpt lat="1.988417" lon="-76.710811">
        <ele>3399.714</ele>
        <time>2022-12-18T10:10:22Z</time>
      </trkpt>
      <trkpt lat="1.98847" lon="-76.7108">
        <ele>3399.309</ele>
        <time>2022-12-18T10:10:26Z</time>
      </trkpt>
      <trkpt lat="1.988497" lon="-76.710764">
        <ele>3400.157</ele>
        <time>2022-12-18T10:10:31Z</time>
      </trkpt>
      <trkpt lat="1.988448" lon="-76.710764">
        <ele>3398.338</ele>
        <time>2022-12-18T10:10:34Z</time>
      </trkpt>
      <trkpt lat="1.988402" lon="-76.710776">
        <ele>3398.057</ele>
        <time>2022-12-18T10:10:37Z</time>
      </trkpt>
      <trkpt lat="1.988401" lon="-76.710822">
        <ele>3399.891</ele>
        <time>2022-12-18T10:10:53Z</time>
      </trkpt>
      <trkpt lat="1.988446" lon="-76.710832">
        <ele>3400.789</ele>
        <time>2022-12-18T10:11:21Z</time>
      </trkpt>
      <trkpt lat="1.988497" lon="-76.710835">
        <ele>3401.440</ele>
        <time>2022-12-18T10:11:24Z</time>
      </trkpt>
      <trkpt lat="1.988552" lon="-76.710829">
        <ele>3401.356</ele>
        <time>2022-12-18T10:11:27Z</time>
      </trkpt>
      <trkpt lat="1.988614" lon="-76.710824">
        <ele>3402.643</ele>
        <time>2022-12-18T10:11:30Z</time>
      </trkpt>
      <trkpt lat="1.988673" lon="-76.710815">
        <ele>3403.028</ele>
        <time>2022-12-18T10:11:33Z</time>
      </trkpt>
      <trkpt lat="1.988734" lon="-76.710819">
        <ele>3403.793</ele>
        <time>2022-12-18T10:11:36Z</time>
      </trkpt>
      <trkpt lat="1.988788" lon="-76.710817">
        <ele>3404.165</ele>
        <time>2022-12-18T10:11:39Z</time>
      </trkpt>
      <trkpt lat="1.988848" lon="-76.71081">
        <ele>3403.421</ele>
        <time>2022-12-18T10:11:41Z</time>
      </trkpt>
      <trkpt lat="1.9889" lon="-76.710801">
        <ele>3403.909</ele>
        <time>2022-12-18T10:11:43Z</time>
      </trkpt>
      <trkpt lat="1.988961" lon="-76.710799">
        <ele>3405.560</ele>
        <time>2022-12-18T10:11:46Z</time>
      </trkpt>
      <trkpt lat="1.98902" lon="-76.710817">
        <ele>3406.261</ele>
        <time>2022-12-18T10:11:49Z</time>
      </trkpt>
      <trkpt lat="1.989058" lon="-76.710848">
        <ele>3406.870</ele>
        <time>2022-12-18T10:11:51Z</time>
      </trkpt>
      <trkpt lat="1.98909" lon="-76.71088">
        <ele>3407.284</ele>
        <time>2022-12-18T10:11:53Z</time>
      </trkpt>
      <trkpt lat="1.989133" lon="-76.710919">
        <ele>3404.992</ele>
        <time>2022-12-18T10:11:56Z</time>
      </trkpt>
      <trkpt lat="1.989174" lon="-76.71094">
        <ele>3404.763</ele>
        <time>2022-12-18T10:11:58Z</time>
      </trkpt>
      <trkpt lat="1.989232" lon="-76.710961">
        <ele>3404.999</ele>
        <time>2022-12-18T10:12:01Z</time>
      </trkpt>
      <trkpt lat="1.989279" lon="-76.71096">
        <ele>3403.856</ele>
        <time>2022-12-18T10:12:04Z</time>
      </trkpt>
      <trkpt lat="1.989331" lon="-76.710959">
        <ele>3404.571</ele>
        <time>2022-12-18T10:12:08Z</time>
      </trkpt>
      <trkpt lat="1.989383" lon="-76.710959">
        <ele>3404.553</ele>
        <time>2022-12-18T10:12:11Z</time>
      </trkpt>
      <trkpt lat="1.989428" lon="-76.710955">
        <ele>3405.804</ele>
        <time>2022-12-18T10:12:15Z</time>
      </trkpt>
      <trkpt lat="1.989474" lon="-76.710939">
        <ele>3405.914</ele>
        <time>2022-12-18T10:12:20Z</time>
      </trkpt>
      <trkpt lat="1.9895" lon="-76.710978">
        <ele>3405.109</ele>
        <time>2022-12-18T10:12:26Z</time>
      </trkpt>
      <trkpt lat="1.989455" lon="-76.710968">
        <ele>3403.716</ele>
        <time>2022-12-18T10:12:35Z</time>
      </trkpt>
      <trkpt lat="1.989401" lon="-76.710963">
        <ele>3403.887</ele>
        <time>2022-12-18T10:12:38Z</time>
      </trkpt>
      <trkpt lat="1.989345" lon="-76.710963">
        <ele>3403.066</ele>
        <time>2022-12-18T10:12:41Z</time>
      </trkpt>
      <trkpt lat="1.989296" lon="-76.710965">
        <ele>3401.550</ele>
        <time>2022-12-18T10:12:44Z</time>
      </trkpt>
      <trkpt lat="1.989245" lon="-76.710961">
        <ele>3401.958</ele>
        <time>2022-12-18T10:12:47Z</time>
      </trkpt>
      <trkpt lat="1.989194" lon="-76.710945">
        <ele>3401.659</ele>
        <time>2022-12-18T10:12:51Z</time>
      </trkpt>
      <trkpt lat="1.989151" lon="-76.71093">
        <ele>3402.365</ele>
        <time>2022-12-18T10:12:55Z</time>
      </trkpt>
      <trkpt lat="1.98912" lon="-76.710895">
        <ele>3402.642</ele>
        <time>2022-12-18T10:13:01Z</time>
      </trkpt>
      <trkpt lat="1.989156" lon="-76.710929">
        <ele>3402.897</ele>
        <time>2022-12-18T10:13:29Z</time>
      </trkpt>
      <trkpt lat="1.989204" lon="-76.710945">
        <ele>3404.221</ele>
        <time>2022-12-18T10:13:32Z</time>
      </trkpt>
      <trkpt lat="1.989257" lon="-76.710966">
        <ele>3405.141</ele>
        <time>2022-12-18T10:13:35Z</time>
      </trkpt>
      <trkpt lat="1.989314" lon="-76.71097">
        <ele>3406.205</ele>
        <time>2022-12-18T10:13:40Z</time>
      </trkpt>
      <trkpt lat="1.989363" lon="-76.710967">
        <ele>3406.809</ele>
        <time>2022-12-18T10:13:43Z</time>
      </trkpt>
      <trkpt lat="1.989421" lon="-76.710959">
        <ele>3407.893</ele>
        <time>2022-12-18T10:13:47Z</time>
      </trkpt>
      <trkpt lat="1.989481" lon="-76.710954">
        <ele>3408.464</ele>
        <time>2022-12-18T10:13:51Z</time>
      </trkpt>
      <trkpt lat="1.989527" lon="-76.710954">
        <ele>3409.943</ele>
        <time>2022-12-18T10:13:54Z</time>
      </trkpt>
      <trkpt lat="1.989572" lon="-76.710955">
        <ele>3410.087</ele>
        <time>2022-12-18T10:13:57Z</time>
      </trkpt>
      <trkpt lat="1.989617" lon="-76.71095">
        <ele>3410.895</ele>
        <time>2022-12-18T10:14:00Z</time>
      </trkpt>
      <trkpt lat="1.989662" lon="-76.710941">
        <ele>3412.166</ele>
        <time>2022-12-18T10:14:03Z</time>
      </trkpt>
      <trkpt lat="1.989716" lon="-76.710936">
        <ele>3412.222</ele>
        <time>2022-12-18T10:14:07Z</time>
      </trkpt>
      <trkpt lat="1.98977" lon="-76.710925">
        <ele>3413.759</ele>
        <time>2022-12-18T10:14:11Z</time>
      </trkpt>
      <trkpt lat="1.989821" lon="-76.710907">
        <ele>3415.774</ele>
        <time>2022-12-18T10:14:15Z</time>
      </trkpt>
      <trkpt lat="1.989871" lon="-76.710907">
        <ele>3416.386</ele>
        <time>2022-12-18T10:14:19Z</time>
      </trkpt>
      <trkpt lat="1.989918" lon="-76.710896">
        <ele>3416.760</ele>
        <time>2022-12-18T10:14:22Z</time>
      </trkpt>
      <trkpt lat="1.989969" lon="-76.710885">
        <ele>3417.826</ele>
        <time>2022-12-18T10:14:26Z</time>
      </trkpt>
      <trkpt lat="1.990027" lon="-76.710896">
        <ele>3418.009</ele>
        <time>2022-12-18T10:14:30Z</time>
      </trkpt>
      <trkpt lat="1.99007" lon="-76.710911">
        <ele>3416.699</ele>
        <time>2022-12-18T10:14:33Z</time>
      </trkpt>
      <trkpt lat="1.990119" lon="-76.710909">
        <ele>3415.990</ele>
        <time>2022-12-18T10:14:36Z</time>
      </trkpt>
      <trkpt lat="1.990167" lon="-76.71091">
        <ele>3417.489</ele>
        <time>2022-12-18T10:14:38Z</time>
      </trkpt>
      <trkpt lat="1.99022" lon="-76.710897">
        <ele>3418.113</ele>
        <time>2022-12-18T10:14:43Z</time>
      </trkpt>
      <trkpt lat="1.990261" lon="-76.710872">
        <ele>3421.321</ele>
        <time>2022-12-18T10:14:47Z</time>
      </trkpt>
      <trkpt lat="1.990305" lon="-76.71085">
        <ele>3422.312</ele>
        <time>2022-12-18T10:14:51Z</time>
      </trkpt>
      <trkpt lat="1.990344" lon="-76.710873">
        <ele>3422.658</ele>
        <time>2022-12-18T10:14:55Z</time>
      </trkpt>
      <trkpt lat="1.990366" lon="-76.710916">
        <ele>3423.345</ele>
        <time>2022-12-18T10:14:59Z</time>
      </trkpt>
      <trkpt lat="1.990387" lon="-76.710966">
        <ele>3425.070</ele>
        <time>2022-12-18T10:15:03Z</time>
      </trkpt>
      <trkpt lat="1.990416" lon="-76.711013">
        <ele>3428.494</ele>
        <time>2022-12-18T10:15:14Z</time>
      </trkpt>
      <trkpt lat="1.990449" lon="-76.711049">
        <ele>3427.957</ele>
        <time>2022-12-18T10:15:19Z</time>
      </trkpt>
      <trkpt lat="1.9905" lon="-76.711057">
        <ele>3425.022</ele>
        <time>2022-12-18T10:15:23Z</time>
      </trkpt>
      <trkpt lat="1.990544" lon="-76.71107">
        <ele>3426.109</ele>
        <time>2022-12-18T10:15:29Z</time>
      </trkpt>
      <trkpt lat="1.990589" lon="-76.711075">
        <ele>3431.280</ele>
        <time>2022-12-18T10:15:42Z</time>
      </trkpt>
      <trkpt lat="1.990637" lon="-76.711086">
        <ele>3432.781</ele>
        <time>2022-12-18T10:15:46Z</time>
      </trkpt>
      <trkpt lat="1.990694" lon="-76.711095">
        <ele>3434.710</ele>
        <time>2022-12-18T10:15:50Z</time>
      </trkpt>
      <trkpt lat="1.990745" lon="-76.711125">
        <ele>3435.474</ele>
        <time>2022-12-18T10:15:54Z</time>
      </trkpt>
      <trkpt lat="1.990782" lon="-76.711161">
        <ele>3437.162</ele>
        <time>2022-12-18T10:15:58Z</time>
      </trkpt>
      <trkpt lat="1.99082" lon="-76.711192">
        <ele>3437.993</ele>
        <time>2022-12-18T10:16:02Z</time>
      </trkpt>
      <trkpt lat="1.990855" lon="-76.711221">
        <ele>3439.039</ele>
        <time>2022-12-18T10:16:06Z</time>
      </trkpt>
      <trkpt lat="1.990902" lon="-76.711252">
        <ele>3438.846</ele>
        <time>2022-12-18T10:16:10Z</time>
      </trkpt>
      <trkpt lat="1.990945" lon="-76.711278">
        <ele>3438.481</ele>
        <time>2022-12-18T10:16:15Z</time>
      </trkpt>
      <trkpt lat="1.990991" lon="-76.711277">
        <ele>3438.737</ele>
        <time>2022-12-18T10:16:24Z</time>
      </trkpt>
      <trkpt lat="1.991036" lon="-76.711273">
        <ele>3437.649</ele>
        <time>2022-12-18T10:16:26Z</time>
      </trkpt>
      <trkpt lat="1.991116" lon="-76.711273">
        <ele>3437.013</ele>
        <time>2022-12-18T10:16:28Z</time>
      </trkpt>
      <trkpt lat="1.991211" lon="-76.711264">
        <ele>3435.809</ele>
        <time>2022-12-18T10:16:30Z</time>
      </trkpt>
      <trkpt lat="1.991264" lon="-76.711258">
        <ele>3435.634</ele>
        <time>2022-12-18T10:16:31Z</time>
      </trkpt>
      <trkpt lat="1.991366" lon="-76.711214">
        <ele>3436.045</ele>
        <time>2022-12-18T10:16:33Z</time>
      </trkpt>
      <trkpt lat="1.991443" lon="-76.711175">
        <ele>3436.494</ele>
        <time>2022-12-18T10:16:35Z</time>
      </trkpt>
      <trkpt lat="1.991504" lon="-76.711129">
        <ele>3437.078</ele>
        <time>2022-12-18T10:16:37Z</time>
      </trkpt>
      <trkpt lat="1.991549" lon="-76.711103">
        <ele>3435.896</ele>
        <time>2022-12-18T10:16:39Z</time>
      </trkpt>
      <trkpt lat="1.991584" lon="-76.711061">
        <ele>3435.267</ele>
        <time>2022-12-18T10:16:44Z</time>
      </trkpt>
      <trkpt lat="1.991604" lon="-76.711006">
        <ele>3436.563</ele>
        <time>2022-12-18T10:16:47Z</time>
      </trkpt>
      <trkpt lat="1.991627" lon="-76.710961">
        <ele>3434.980</ele>
        <time>2022-12-18T10:16:50Z</time>
      </trkpt>
      <trkpt lat="1.991666" lon="-76.710907">
        <ele>3434.845</ele>
        <time>2022-12-18T10:16:53Z</time>
      </trkpt>
      <trkpt lat="1.991709" lon="-76.710864">
        <ele>3438.686</ele>
        <time>2022-12-18T10:16:57Z</time>
      </trkpt>
      <trkpt lat="1.991732" lon="-76.710816">
        <ele>3441.060</ele>
        <time>2022-12-18T10:16:59Z</time>
      </trkpt>
      <trkpt lat="1.991762" lon="-76.710773">
        <ele>3441.426</ele>
        <time>2022-12-18T10:17:01Z</time>
      </trkpt>
      <trkpt lat="1.991794" lon="-76.71073">
        <ele>3441.409</ele>
        <time>2022-12-18T10:17:03Z</time>
      </trkpt>
      <trkpt lat="1.991824" lon="-76.710684">
        <ele>3441.859</ele>
        <time>2022-12-18T10:17:05Z</time>
      </trkpt>
      <trkpt lat="1.991857" lon="-76.71064">
        <ele>3440.050</ele>
        <time>2022-12-18T10:17:07Z</time>
      </trkpt>
      <trkpt lat="1.991887" lon="-76.710602">
        <ele>3439.949</ele>
        <time>2022-12-18T10:17:09Z</time>
      </trkpt>
      <trkpt lat="1.991927" lon="-76.710549">
        <ele>3438.923</ele>
        <time>2022-12-18T10:17:12Z</time>
      </trkpt>
      <trkpt lat="1.991959" lon="-76.710506">
        <ele>3439.821</ele>
        <time>2022-12-18T10:17:14Z</time>
      </trkpt>
      <trkpt lat="1.992009" lon="-76.710453">
        <ele>3438.182</ele>
        <time>2022-12-18T10:17:16Z</time>
      </trkpt>
      <trkpt lat="1.992063" lon="-76.710405">
        <ele>3436.938</ele>
        <time>2022-12-18T10:17:18Z</time>
      </trkpt>
      <trkpt lat="1.992108" lon="-76.710372">
        <ele>3437.985</ele>
        <time>2022-12-18T10:17:21Z</time>
      </trkpt>
      <trkpt lat="1.992063" lon="-76.710358">
        <ele>3431.980</ele>
        <time>2022-12-18T10:19:44Z</time>
      </trkpt>
      <trkpt lat="1.99211" lon="-76.710358">
        <ele>3436.859</ele>
        <time>2022-12-18T10:19:54Z</time>
      </trkpt>
      <trkpt lat="1.99207" lon="-76.710381">
        <ele>3432.403</ele>
        <time>2022-12-18T10:20:17Z</time>
      </trkpt>
      <trkpt lat="1.992032" lon="-76.710417">
        <ele>3430.223</ele>
        <time>2022-12-18T10:20:19Z</time>
      </trkpt>
      <trkpt lat="1.991993" lon="-76.710452">
        <ele>3431.709</ele>
        <time>2022-12-18T10:20:22Z</time>
      </trkpt>
      <trkpt lat="1.991951" lon="-76.710494">
        <ele>3432.886</ele>
        <time>2022-12-18T10:20:26Z</time>
      </trkpt>
      <trkpt lat="1.991924" lon="-76.710541">
        <ele>3432.867</ele>
        <time>2022-12-18T10:20:28Z</time>
      </trkpt>
      <trkpt lat="1.991901" lon="-76.710596">
        <ele>3433.586</ele>
        <time>2022-12-18T10:20:31Z</time>
      </trkpt>
      <trkpt lat="1.991869" lon="-76.710652">
        <ele>3434.630</ele>
        <time>2022-12-18T10:20:34Z</time>
      </trkpt>
      <trkpt lat="1.991844" lon="-76.710692">
        <ele>3435.288</ele>
        <time>2022-12-18T10:20:36Z</time>
      </trkpt>
      <trkpt lat="1.991814" lon="-76.71073">
        <ele>3431.659</ele>
        <time>2022-12-18T10:20:38Z</time>
      </trkpt>
      <trkpt lat="1.991781" lon="-76.710776">
        <ele>3434.235</ele>
        <time>2022-12-18T10:20:40Z</time>
      </trkpt>
      <trkpt lat="1.991757" lon="-76.710822">
        <ele>3435.142</ele>
        <time>2022-12-18T10:20:42Z</time>
      </trkpt>
      <trkpt lat="1.991733" lon="-76.710867">
        <ele>3435.127</ele>
        <time>2022-12-18T10:20:44Z</time>
      </trkpt>
      <trkpt lat="1.991707" lon="-76.710908">
        <ele>3434.776</ele>
        <time>2022-12-18T10:20:46Z</time>
      </trkpt>
      <trkpt lat="1.991667" lon="-76.710941">
        <ele>3434.590</ele>
        <time>2022-12-18T10:20:50Z</time>
      </trkpt>
      <trkpt lat="1.991637" lon="-76.710986">
        <ele>3434.219</ele>
        <time>2022-12-18T10:20:54Z</time>
      </trkpt>
      <trkpt lat="1.991604" lon="-76.71103">
        <ele>3434.109</ele>
        <time>2022-12-18T10:20:57Z</time>
      </trkpt>
      <trkpt lat="1.991558" lon="-76.711087">
        <ele>3432.888</ele>
        <time>2022-12-18T10:21:00Z</time>
      </trkpt>
      <trkpt lat="1.991512" lon="-76.711124">
        <ele>3432.559</ele>
        <time>2022-12-18T10:21:02Z</time>
      </trkpt>
      <trkpt lat="1.991465" lon="-76.711159">
        <ele>3431.678</ele>
        <time>2022-12-18T10:21:04Z</time>
      </trkpt>
      <trkpt lat="1.991419" lon="-76.711183">
        <ele>3432.042</ele>
        <time>2022-12-18T10:21:06Z</time>
      </trkpt>
      <trkpt lat="1.991367" lon="-76.711195">
        <ele>3431.910</ele>
        <time>2022-12-18T10:21:08Z</time>
      </trkpt>
      <trkpt lat="1.99132" lon="-76.711221">
        <ele>3432.081</ele>
        <time>2022-12-18T10:21:10Z</time>
      </trkpt>
      <trkpt lat="1.991272" lon="-76.711228">
        <ele>3432.967</ele>
        <time>2022-12-18T10:21:12Z</time>
      </trkpt>
      <trkpt lat="1.991223" lon="-76.711235">
        <ele>3432.654</ele>
        <time>2022-12-18T10:21:14Z</time>
      </trkpt>
      <trkpt lat="1.99118" lon="-76.711249">
        <ele>3432.179</ele>
        <time>2022-12-18T10:21:16Z</time>
      </trkpt>
      <trkpt lat="1.991124" lon="-76.711265">
        <ele>3432.869</ele>
        <time>2022-12-18T10:21:19Z</time>
      </trkpt>
      <trkpt lat="1.991079" lon="-76.711269">
        <ele>3433.304</ele>
        <time>2022-12-18T10:21:22Z</time>
      </trkpt>
      <trkpt lat="1.991024" lon="-76.711259">
        <ele>3434.724</ele>
        <time>2022-12-18T10:21:26Z</time>
      </trkpt>
      <trkpt lat="1.99097" lon="-76.711244">
        <ele>3434.809</ele>
        <time>2022-12-18T10:21:45Z</time>
      </trkpt>
      <trkpt lat="1.991022" lon="-76.711264">
        <ele>3435.197</ele>
        <time>2022-12-18T10:21:54Z</time>
      </trkpt>
      <trkpt lat="1.991074" lon="-76.711266">
        <ele>3435.828</ele>
        <time>2022-12-18T10:21:56Z</time>
      </trkpt>
      <trkpt lat="1.991138" lon="-76.711255">
        <ele>3435.827</ele>
        <time>2022-12-18T10:21:58Z</time>
      </trkpt>
      <trkpt lat="1.991184" lon="-76.711246">
        <ele>3434.341</ele>
        <time>2022-12-18T10:21:59Z</time>
      </trkpt>
      <trkpt lat="1.991245" lon="-76.711228">
        <ele>3433.839</ele>
        <time>2022-12-18T10:22:01Z</time>
      </trkpt>
      <trkpt lat="1.991297" lon="-76.71122">
        <ele>3434.420</ele>
        <time>2022-12-18T10:22:03Z</time>
      </trkpt>
      <trkpt lat="1.991349" lon="-76.711209">
        <ele>3435.316</ele>
        <time>2022-12-18T10:22:05Z</time>
      </trkpt>
      <trkpt lat="1.991401" lon="-76.711189">
        <ele>3435.233</ele>
        <time>2022-12-18T10:22:08Z</time>
      </trkpt>
      <trkpt lat="1.991465" lon="-76.711164">
        <ele>3435.848</ele>
        <time>2022-12-18T10:22:11Z</time>
      </trkpt>
      <trkpt lat="1.991519" lon="-76.711134">
        <ele>3436.551</ele>
        <time>2022-12-18T10:22:14Z</time>
      </trkpt>
      <trkpt lat="1.991568" lon="-76.711108">
        <ele>3433.501</ele>
        <time>2022-12-18T10:22:18Z</time>
      </trkpt>
      <trkpt lat="1.991603" lon="-76.711066">
        <ele>3434.811</ele>
        <time>2022-12-18T10:22:22Z</time>
      </trkpt>
      <trkpt lat="1.991633" lon="-76.711031">
        <ele>3434.309</ele>
        <time>2022-12-18T10:22:25Z</time>
      </trkpt>
      <trkpt lat="1.991667" lon="-76.710998">
        <ele>3435.076</ele>
        <time>2022-12-18T10:22:29Z</time>
      </trkpt>
      <trkpt lat="1.991703" lon="-76.710955">
        <ele>3435.567</ele>
        <time>2022-12-18T10:22:33Z</time>
      </trkpt>
      <trkpt lat="1.991726" lon="-76.710915">
        <ele>3438.626</ele>
        <time>2022-12-18T10:22:37Z</time>
      </trkpt>
      <trkpt lat="1.991751" lon="-76.710869">
        <ele>3438.490</ele>
        <time>2022-12-18T10:22:42Z</time>
      </trkpt>
      <trkpt lat="1.991777" lon="-76.710822">
        <ele>3439.328</ele>
        <time>2022-12-18T10:22:46Z</time>
      </trkpt>
      <trkpt lat="1.99181" lon="-76.710777">
        <ele>3439.149</ele>
        <time>2022-12-18T10:22:50Z</time>
      </trkpt>
      <trkpt lat="1.991844" lon="-76.710729">
        <ele>3439.395</ele>
        <time>2022-12-18T10:22:54Z</time>
      </trkpt>
      <trkpt lat="1.991875" lon="-76.710694">
        <ele>3437.882</ele>
        <time>2022-12-18T10:22:57Z</time>
      </trkpt>
      <trkpt lat="1.991907" lon="-76.710653">
        <ele>3437.627</ele>
        <time>2022-12-18T10:23:01Z</time>
      </trkpt>
      <trkpt lat="1.99193" lon="-76.710612">
        <ele>3434.387</ele>
        <time>2022-12-18T10:23:04Z</time>
      </trkpt>
      <trkpt lat="1.991962" lon="-76.710579">
        <ele>3434.442</ele>
        <time>2022-12-18T10:23:07Z</time>
      </trkpt>
      <trkpt lat="1.991994" lon="-76.710539">
        <ele>3430.126</ele>
        <time>2022-12-18T10:23:09Z</time>
      </trkpt>
      <trkpt lat="1.992049" lon="-76.71048">
        <ele>3429.309</ele>
        <time>2022-12-18T10:23:11Z</time>
      </trkpt>
      <trkpt lat="1.9921" lon="-76.710434">
        <ele>3428.199</ele>
        <time>2022-12-18T10:23:13Z</time>
      </trkpt>
      <trkpt lat="1.992148" lon="-76.710394">
        <ele>3426.470</ele>
        <time>2022-12-18T10:23:16Z</time>
      </trkpt>
      <trkpt lat="1.99218" lon="-76.710352">
        <ele>3426.959</ele>
        <time>2022-12-18T10:23:46Z</time>
      </trkpt>
      <trkpt lat="1.992712" lon="-76.709906">
        <ele>3423.633</ele>
        <time>2022-12-18T10:23:48Z</time>
      </trkpt>
      <trkpt lat="1.992834" lon="-76.709816">
        <ele>3424.871</ele>
        <time>2022-12-18T10:23:49Z</time>
      </trkpt>
      <trkpt lat="1.99293" lon="-76.709772">
        <ele>3425.322</ele>
        <time>2022-12-18T10:23:51Z</time>
      </trkpt>
      <trkpt lat="1.992977" lon="-76.709763">
        <ele>3426.648</ele>
        <time>2022-12-18T10:23:53Z</time>
      </trkpt>
      <trkpt lat="1.993025" lon="-76.70977">
        <ele>3427.555</ele>
        <time>2022-12-18T10:23:57Z</time>
      </trkpt>
      <trkpt lat="1.993073" lon="-76.709775">
        <ele>3428.070</ele>
        <time>2022-12-18T10:24:00Z</time>
      </trkpt>
      <trkpt lat="1.993126" lon="-76.709773">
        <ele>3429.999</ele>
        <time>2022-12-18T10:24:04Z</time>
      </trkpt>
      <trkpt lat="1.993177" lon="-76.709754">
        <ele>3431.807</ele>
        <time>2022-12-18T10:24:08Z</time>
      </trkpt>
      <trkpt lat="1.993231" lon="-76.709729">
        <ele>3431.227</ele>
        <time>2022-12-18T10:24:12Z</time>
      </trkpt>
      <trkpt lat="1.993258" lon="-76.709683">
        <ele>3432.609</ele>
        <time>2022-12-18T10:24:17Z</time>
      </trkpt>
      <trkpt lat="1.993273" lon="-76.709631">
        <ele>3435.010</ele>
        <time>2022-12-18T10:24:22Z</time>
      </trkpt>
      <trkpt lat="1.993277" lon="-76.709574">
        <ele>3437.371</ele>
        <time>2022-12-18T10:24:29Z</time>
      </trkpt>
      <trkpt lat="1.993289" lon="-76.709517">
        <ele>3438.970</ele>
        <time>2022-12-18T10:24:32Z</time>
      </trkpt>
      <trkpt lat="1.993296" lon="-76.709465">
        <ele>3439.324</ele>
        <time>2022-12-18T10:24:37Z</time>
      </trkpt>
      <trkpt lat="1.993306" lon="-76.709413">
        <ele>3440.492</ele>
        <time>2022-12-18T10:24:42Z</time>
      </trkpt>
      <trkpt lat="1.993309" lon="-76.709355">
        <ele>3439.613</ele>
        <time>2022-12-18T10:24:46Z</time>
      </trkpt>
      <trkpt lat="1.993313" lon="-76.709307">
        <ele>3440.069</ele>
        <time>2022-12-18T10:24:49Z</time>
      </trkpt>
      <trkpt lat="1.993322" lon="-76.709254">
        <ele>3441.456</ele>
        <time>2022-12-18T10:24:53Z</time>
      </trkpt>
      <trkpt lat="1.993328" lon="-76.709199">
        <ele>3441.591</ele>
        <time>2022-12-18T10:24:57Z</time>
      </trkpt>
      <trkpt lat="1.993352" lon="-76.709138">
        <ele>3442.785</ele>
        <time>2022-12-18T10:25:05Z</time>
      </trkpt>
      <trkpt lat="1.993388" lon="-76.709095">
        <ele>3444.089</ele>
        <time>2022-12-18T10:25:07Z</time>
      </trkpt>
      <trkpt lat="1.993423" lon="-76.709061">
        <ele>3444.317</ele>
        <time>2022-12-18T10:25:10Z</time>
      </trkpt>
      <trkpt lat="1.993475" lon="-76.709037">
        <ele>3445.609</ele>
        <time>2022-12-18T10:25:14Z</time>
      </trkpt>
      <trkpt lat="1.993527" lon="-76.709031">
        <ele>3446.219</ele>
        <time>2022-12-18T10:25:18Z</time>
      </trkpt>
      <trkpt lat="1.993585" lon="-76.709042">
        <ele>3446.230</ele>
        <time>2022-12-18T10:25:22Z</time>
      </trkpt>
      <trkpt lat="1.993638" lon="-76.70903">
        <ele>3447.739</ele>
        <time>2022-12-18T10:25:26Z</time>
      </trkpt>
      <trkpt lat="1.993696" lon="-76.709017">
        <ele>3447.013</ele>
        <time>2022-12-18T10:25:30Z</time>
      </trkpt>
      <trkpt lat="1.993746" lon="-76.70902">
        <ele>3447.591</ele>
        <time>2022-12-18T10:25:34Z</time>
      </trkpt>
      <trkpt lat="1.993798" lon="-76.709028">
        <ele>3448.382</ele>
        <time>2022-12-18T10:25:38Z</time>
      </trkpt>
      <trkpt lat="1.993846" lon="-76.709071">
        <ele>3449.228</ele>
        <time>2022-12-18T10:25:42Z</time>
      </trkpt>
      <trkpt lat="1.993882" lon="-76.709104">
        <ele>3449.895</ele>
        <time>2022-12-18T10:25:46Z</time>
      </trkpt>
      <trkpt lat="1.993916" lon="-76.709151">
        <ele>3447.710</ele>
        <time>2022-12-18T10:25:50Z</time>
      </trkpt>
      <trkpt lat="1.993936" lon="-76.7092">
        <ele>3448.412</ele>
        <time>2022-12-18T10:25:53Z</time>
      </trkpt>
      <trkpt lat="1.99395" lon="-76.709245">
        <ele>3449.532</ele>
        <time>2022-12-18T10:25:56Z</time>
      </trkpt>
      <trkpt lat="1.993965" lon="-76.709288">
        <ele>3450.305</ele>
        <time>2022-12-18T10:25:59Z</time>
      </trkpt>
      <trkpt lat="1.993976" lon="-76.709333">
        <ele>3452.109</ele>
        <time>2022-12-18T10:26:03Z</time>
      </trkpt>
      <trkpt lat="1.993988" lon="-76.709378">
        <ele>3450.322</ele>
        <time>2022-12-18T10:26:06Z</time>
      </trkpt>
      <trkpt lat="1.993995" lon="-76.709425">
        <ele>3451.353</ele>
        <time>2022-12-18T10:26:09Z</time>
      </trkpt>
      <trkpt lat="1.994002" lon="-76.709472">
        <ele>3453.092</ele>
        <time>2022-12-18T10:26:12Z</time>
      </trkpt>
      <trkpt lat="1.994012" lon="-76.70953">
        <ele>3453.676</ele>
        <time>2022-12-18T10:26:16Z</time>
      </trkpt>
      <trkpt lat="1.994029" lon="-76.709587">
        <ele>3454.014</ele>
        <time>2022-12-18T10:26:20Z</time>
      </trkpt>
      <trkpt lat="1.994047" lon="-76.70964">
        <ele>3455.715</ele>
        <time>2022-12-18T10:26:24Z</time>
      </trkpt>
      <trkpt lat="1.994067" lon="-76.709696">
        <ele>3456.531</ele>
        <time>2022-12-18T10:26:28Z</time>
      </trkpt>
      <trkpt lat="1.994085" lon="-76.709748">
        <ele>3458.228</ele>
        <time>2022-12-18T10:26:32Z</time>
      </trkpt>
      <trkpt lat="1.9941" lon="-76.709799">
        <ele>3459.053</ele>
        <time>2022-12-18T10:26:36Z</time>
      </trkpt>
      <trkpt lat="1.994116" lon="-76.709854">
        <ele>3459.368</ele>
        <time>2022-12-18T10:26:40Z</time>
      </trkpt>
      <trkpt lat="1.994124" lon="-76.709903">
        <ele>3461.042</ele>
        <time>2022-12-18T10:26:43Z</time>
      </trkpt>
      <trkpt lat="1.994132" lon="-76.709957">
        <ele>3461.526</ele>
        <time>2022-12-18T10:26:47Z</time>
      </trkpt>
      <trkpt lat="1.994139" lon="-76.710006">
        <ele>3461.709</ele>
        <time>2022-12-18T10:26:50Z</time>
      </trkpt>
      <trkpt lat="1.994148" lon="-76.710054">
        <ele>3462.087</ele>
        <time>2022-12-18T10:26:54Z</time>
      </trkpt>
      <trkpt lat="1.994156" lon="-76.710109">
        <ele>3461.788</ele>
        <time>2022-12-18T10:26:58Z</time>
      </trkpt>
      <trkpt lat="1.994155" lon="-76.710155">
        <ele>3462.887</ele>
        <time>2022-12-18T10:27:01Z</time>
      </trkpt>
      <trkpt lat="1.994156" lon="-76.710219">
        <ele>3462.751</ele>
        <time>2022-12-18T10:27:08Z</time>
      </trkpt>
      <trkpt lat="1.994177" lon="-76.710262">
        <ele>3462.469</ele>
        <time>2022-12-18T10:27:10Z</time>
      </trkpt>
      <trkpt lat="1.994226" lon="-76.710256">
        <ele>3462.080</ele>
        <time>2022-12-18T10:27:15Z</time>
      </trkpt>
      <trkpt lat="1.994267" lon="-76.710231">
        <ele>3462.166</ele>
        <time>2022-12-18T10:27:19Z</time>
      </trkpt>
      <trkpt lat="1.994296" lon="-76.710192">
        <ele>3463.633</ele>
        <time>2022-12-18T10:27:24Z</time>
      </trkpt>
      <trkpt lat="1.994305" lon="-76.710126">
        <ele>3464.118</ele>
        <time>2022-12-18T10:27:32Z</time>
      </trkpt>
      <trkpt lat="1.994294" lon="-76.710078">
        <ele>3463.617</ele>
        <time>2022-12-18T10:27:34Z</time>
      </trkpt>
      <trkpt lat="1.994311" lon="-76.710034">
        <ele>3462.187</ele>
        <time>2022-12-18T10:33:35Z</time>
      </trkpt>
      <trkpt lat="1.994331" lon="-76.709983">
        <ele>3461.615</ele>
        <time>2022-12-18T10:33:39Z</time>
      </trkpt>
      <trkpt lat="1.994342" lon="-76.709933">
        <ele>3463.309</ele>
        <time>2022-12-18T10:33:42Z</time>
      </trkpt>
      <trkpt lat="1.99435" lon="-76.709888">
        <ele>3463.222</ele>
        <time>2022-12-18T10:33:44Z</time>
      </trkpt>
      <trkpt lat="1.994358" lon="-76.709831">
        <ele>3462.873</ele>
        <time>2022-12-18T10:33:47Z</time>
      </trkpt>
      <trkpt lat="1.994357" lon="-76.709774">
        <ele>3462.942</ele>
        <time>2022-12-18T10:33:51Z</time>
      </trkpt>
      <trkpt lat="1.994367" lon="-76.709719">
        <ele>3461.846</ele>
        <time>2022-12-18T10:33:54Z</time>
      </trkpt>
      <trkpt lat="1.994385" lon="-76.709676">
        <ele>3462.254</ele>
        <time>2022-12-18T10:33:57Z</time>
      </trkpt>
      <trkpt lat="1.994404" lon="-76.709616">
        <ele>3463.795</ele>
        <time>2022-12-18T10:34:01Z</time>
      </trkpt>
      <trkpt lat="1.99442" lon="-76.709574">
        <ele>3465.051</ele>
        <time>2022-12-18T10:34:04Z</time>
      </trkpt>
      <trkpt lat="1.994437" lon="-76.709526">
        <ele>3466.488</ele>
        <time>2022-12-18T10:34:07Z</time>
      </trkpt>
      <trkpt lat="1.994449" lon="-76.709482">
        <ele>3467.283</ele>
        <time>2022-12-18T10:34:10Z</time>
      </trkpt>
      <trkpt lat="1.994464" lon="-76.709433">
        <ele>3467.329</ele>
        <time>2022-12-18T10:34:13Z</time>
      </trkpt>
      <trkpt lat="1.994481" lon="-76.709383">
        <ele>3467.600</ele>
        <time>2022-12-18T10:34:18Z</time>
      </trkpt>
      <trkpt lat="1.994498" lon="-76.70934">
        <ele>3469.820</ele>
        <time>2022-12-18T10:34:20Z</time>
      </trkpt>
      <trkpt lat="1.994522" lon="-76.70928">
        <ele>3469.709</ele>
        <time>2022-12-18T10:34:26Z</time>
      </trkpt>
      <trkpt lat="1.994539" lon="-76.709229">
        <ele>3471.163</ele>
        <time>2022-12-18T10:34:28Z</time>
      </trkpt>
      <trkpt lat="1.994561" lon="-76.709171">
        <ele>3470.974</ele>
        <time>2022-12-18T10:34:32Z</time>
      </trkpt>
      <trkpt lat="1.994586" lon="-76.709117">
        <ele>3472.083</ele>
        <time>2022-12-18T10:34:36Z</time>
      </trkpt>
      <trkpt lat="1.994614" lon="-76.709067">
        <ele>3473.227</ele>
        <time>2022-12-18T10:34:40Z</time>
      </trkpt>
      <trkpt lat="1.99464" lon="-76.709018">
        <ele>3474.525</ele>
        <time>2022-12-18T10:34:44Z</time>
      </trkpt>
      <trkpt lat="1.994669" lon="-76.708973">
        <ele>3474.376</ele>
        <time>2022-12-18T10:34:48Z</time>
      </trkpt>
      <trkpt lat="1.994694" lon="-76.708924">
        <ele>3475.752</ele>
        <time>2022-12-18T10:34:52Z</time>
      </trkpt>
      <trkpt lat="1.994722" lon="-76.70888">
        <ele>3477.839</ele>
        <time>2022-12-18T10:34:56Z</time>
      </trkpt>
      <trkpt lat="1.994761" lon="-76.708849">
        <ele>3477.964</ele>
        <time>2022-12-18T10:35:00Z</time>
      </trkpt>
      <trkpt lat="1.994809" lon="-76.708831">
        <ele>3477.565</ele>
        <time>2022-12-18T10:35:04Z</time>
      </trkpt>
      <trkpt lat="1.99486" lon="-76.708862">
        <ele>3479.268</ele>
        <time>2022-12-18T10:35:08Z</time>
      </trkpt>
      <trkpt lat="1.994887" lon="-76.708909">
        <ele>3479.714</ele>
        <time>2022-12-18T10:35:12Z</time>
      </trkpt>
      <trkpt lat="1.994912" lon="-76.708959">
        <ele>3480.309</ele>
        <time>2022-12-18T10:35:16Z</time>
      </trkpt>
      <trkpt lat="1.994937" lon="-76.709008">
        <ele>3479.187</ele>
        <time>2022-12-18T10:35:20Z</time>
      </trkpt>
      <trkpt lat="1.994967" lon="-76.709048">
        <ele>3481.338</ele>
        <time>2022-12-18T10:35:24Z</time>
      </trkpt>
      <trkpt lat="1.994992" lon="-76.709092">
        <ele>3482.227</ele>
        <time>2022-12-18T10:35:28Z</time>
      </trkpt>
      <trkpt lat="1.995018" lon="-76.709143">
        <ele>3463.051</ele>
        <time>2022-12-18T10:35:32Z</time>
      </trkpt>
      <trkpt lat="1.995036" lon="-76.709187">
        <ele>3465.989</ele>
        <time>2022-12-18T10:35:35Z</time>
      </trkpt>
      <trkpt lat="1.995054" lon="-76.709239">
        <ele>3476.070</ele>
        <time>2022-12-18T10:35:38Z</time>
      </trkpt>
      <trkpt lat="1.995072" lon="-76.709295">
        <ele>3481.456</ele>
        <time>2022-12-18T10:35:42Z</time>
      </trkpt>
      <trkpt lat="1.995087" lon="-76.70934">
        <ele>3483.683</ele>
        <time>2022-12-18T10:35:45Z</time>
      </trkpt>
      <trkpt lat="1.995123" lon="-76.709391">
        <ele>3485.128</ele>
        <time>2022-12-18T10:35:51Z</time>
      </trkpt>
      <trkpt lat="1.995171" lon="-76.709438">
        <ele>3485.296</ele>
        <time>2022-12-18T10:35:53Z</time>
      </trkpt>
      <trkpt lat="1.995222" lon="-76.709473">
        <ele>3485.331</ele>
        <time>2022-12-18T10:35:56Z</time>
      </trkpt>
      <trkpt lat="1.995283" lon="-76.709508">
        <ele>3483.924</ele>
        <time>2022-12-18T10:35:59Z</time>
      </trkpt>
      <trkpt lat="1.995345" lon="-76.709519">
        <ele>3483.309</ele>
        <time>2022-12-18T10:36:02Z</time>
      </trkpt>
      <trkpt lat="1.995397" lon="-76.709504">
        <ele>3485.030</ele>
        <time>2022-12-18T10:36:05Z</time>
      </trkpt>
      <trkpt lat="1.995434" lon="-76.709473">
        <ele>3484.771</ele>
        <time>2022-12-18T10:36:08Z</time>
      </trkpt>
      <trkpt lat="1.995463" lon="-76.709433">
        <ele>3485.620</ele>
        <time>2022-12-18T10:36:11Z</time>
      </trkpt>
      <trkpt lat="1.995493" lon="-76.709397">
        <ele>3478.574</ele>
        <time>2022-12-18T10:36:14Z</time>
      </trkpt>
      <trkpt lat="1.99553" lon="-76.709343">
        <ele>3484.132</ele>
        <time>2022-12-18T10:36:18Z</time>
      </trkpt>
      <trkpt lat="1.995565" lon="-76.709295">
        <ele>3485.183</ele>
        <time>2022-12-18T10:36:21Z</time>
      </trkpt>
      <trkpt lat="1.995588" lon="-76.709255">
        <ele>3486.659</ele>
        <time>2022-12-18T10:36:23Z</time>
      </trkpt>
      <trkpt lat="1.995611" lon="-76.709195">
        <ele>3488.036</ele>
        <time>2022-12-18T10:36:26Z</time>
      </trkpt>
      <trkpt lat="1.995623" lon="-76.709147">
        <ele>3488.051</ele>
        <time>2022-12-18T10:36:29Z</time>
      </trkpt>
      <trkpt lat="1.995636" lon="-76.709103">
        <ele>3487.253</ele>
        <time>2022-12-18T10:36:32Z</time>
      </trkpt>
      <trkpt lat="1.995643" lon="-76.709018">
        <ele>3487.204</ele>
        <time>2022-12-18T10:36:39Z</time>
      </trkpt>
      <trkpt lat="1.995643" lon="-76.708931">
        <ele>3488.114</ele>
        <time>2022-12-18T10:36:41Z</time>
      </trkpt>
      <trkpt lat="1.995657" lon="-76.708882">
        <ele>3479.009</ele>
        <time>2022-12-18T10:36:43Z</time>
      </trkpt>
      <trkpt lat="1.995703" lon="-76.708844">
        <ele>3485.236</ele>
        <time>2022-12-18T10:36:46Z</time>
      </trkpt>
      <trkpt lat="1.995744" lon="-76.708823">
        <ele>3486.257</ele>
        <time>2022-12-18T10:36:48Z</time>
      </trkpt>
      <trkpt lat="1.9958" lon="-76.708801">
        <ele>3487.056</ele>
        <time>2022-12-18T10:36:51Z</time>
      </trkpt>
      <trkpt lat="1.995846" lon="-76.708787">
        <ele>3488.560</ele>
        <time>2022-12-18T10:36:54Z</time>
      </trkpt>
      <trkpt lat="1.995892" lon="-76.708777">
        <ele>3490.798</ele>
        <time>2022-12-18T10:36:57Z</time>
      </trkpt>
      <trkpt lat="1.995952" lon="-76.708783">
        <ele>3490.949</ele>
        <time>2022-12-18T10:37:00Z</time>
      </trkpt>
      <trkpt lat="1.995998" lon="-76.70879">
        <ele>3490.995</ele>
        <time>2022-12-18T10:37:02Z</time>
      </trkpt>
      <trkpt lat="1.996045" lon="-76.708798">
        <ele>3490.612</ele>
        <time>2022-12-18T10:37:04Z</time>
      </trkpt>
      <trkpt lat="1.996095" lon="-76.708806">
        <ele>3491.417</ele>
        <time>2022-12-18T10:37:07Z</time>
      </trkpt>
      <trkpt lat="1.99615" lon="-76.708815">
        <ele>3491.913</ele>
        <time>2022-12-18T10:37:09Z</time>
      </trkpt>
      <trkpt lat="1.996195" lon="-76.708828">
        <ele>3492.343</ele>
        <time>2022-12-18T10:37:11Z</time>
      </trkpt>
      <trkpt lat="1.996243" lon="-76.708849">
        <ele>3493.807</ele>
        <time>2022-12-18T10:37:14Z</time>
      </trkpt>
      <trkpt lat="1.996288" lon="-76.708877">
        <ele>3493.809</ele>
        <time>2022-12-18T10:37:17Z</time>
      </trkpt>
      <trkpt lat="1.996338" lon="-76.708896">
        <ele>3494.982</ele>
        <time>2022-12-18T10:37:21Z</time>
      </trkpt>
      <trkpt lat="1.996344" lon="-76.708948">
        <ele>3496.563</ele>
        <time>2022-12-18T10:37:39Z</time>
      </trkpt>
      <trkpt lat="1.996319" lon="-76.708993">
        <ele>3479.352</ele>
        <time>2022-12-18T10:37:49Z</time>
      </trkpt>
      <trkpt lat="1.996276" lon="-76.70901">
        <ele>3484.786</ele>
        <time>2022-12-18T10:37:53Z</time>
      </trkpt>
      <trkpt lat="1.996234" lon="-76.709041">
        <ele>3489.914</ele>
        <time>2022-12-18T10:37:58Z</time>
      </trkpt>
      <trkpt lat="1.996264" lon="-76.708996">
        <ele>3492.585</ele>
        <time>2022-12-18T10:38:14Z</time>
      </trkpt>
      <trkpt lat="1.996306" lon="-76.708961">
        <ele>3494.161</ele>
        <time>2022-12-18T10:38:19Z</time>
      </trkpt>
      <trkpt lat="1.996353" lon="-76.708938">
        <ele>3482.028</ele>
        <time>2022-12-18T10:38:24Z</time>
      </trkpt>
      <trkpt lat="1.99635" lon="-76.708886">
        <ele>3490.193</ele>
        <time>2022-12-18T10:38:31Z</time>
      </trkpt>
      <trkpt lat="1.996363" lon="-76.708841">
        <ele>3492.698</ele>
        <time>2022-12-18T10:38:39Z</time>
      </trkpt>
      <trkpt lat="1.996347" lon="-76.708885">
        <ele>3477.115</ele>
        <time>2022-12-18T10:39:38Z</time>
      </trkpt>
      <trkpt lat="1.996364" lon="-76.708929">
        <ele>3484.226</ele>
        <time>2022-12-18T10:39:43Z</time>
      </trkpt>
      <trkpt lat="1.996335" lon="-76.708967">
        <ele>3489.909</ele>
        <time>2022-12-18T10:39:49Z</time>
      </trkpt>
      <trkpt lat="1.996283" lon="-76.708981">
        <ele>3491.590</ele>
        <time>2022-12-18T10:39:53Z</time>
      </trkpt>
      <trkpt lat="1.996244" lon="-76.709011">
        <ele>3492.291</ele>
        <time>2022-12-18T10:39:59Z</time>
      </trkpt>
      <trkpt lat="1.996242" lon="-76.70906">
        <ele>3498.390</ele>
        <time>2022-12-18T10:42:24Z</time>
      </trkpt>
      <trkpt lat="1.996253" lon="-76.70901">
        <ele>3487.414</ele>
        <time>2022-12-18T10:43:36Z</time>
      </trkpt>
      <trkpt lat="1.99629" lon="-76.708978">
        <ele>3496.492</ele>
        <time>2022-12-18T10:46:35Z</time>
      </trkpt>
      <trkpt lat="1.996329" lon="-76.708954">
        <ele>3493.083</ele>
        <time>2022-12-18T10:47:21Z</time>
      </trkpt>
      <trkpt lat="1.996335" lon="-76.708909">
        <ele>3488.039</ele>
        <time>2022-12-18T10:47:28Z</time>
      </trkpt>
      <trkpt lat="1.996335" lon="-76.708858">
        <ele>3492.136</ele>
        <time>2022-12-18T10:47:35Z</time>
      </trkpt>
      <trkpt lat="1.996385" lon="-76.70886">
        <ele>3494.951</ele>
        <time>2022-12-18T10:47:44Z</time>
      </trkpt>
      <trkpt lat="1.996425" lon="-76.708891">
        <ele>3496.688</ele>
        <time>2022-12-18T10:47:49Z</time>
      </trkpt>
      <trkpt lat="1.996474" lon="-76.708926">
        <ele>3498.024</ele>
        <time>2022-12-18T10:47:53Z</time>
      </trkpt>
      <trkpt lat="1.996507" lon="-76.708973">
        <ele>3500.026</ele>
        <time>2022-12-18T10:47:57Z</time>
      </trkpt>
      <trkpt lat="1.99653" lon="-76.70902">
        <ele>3501.509</ele>
        <time>2022-12-18T10:48:00Z</time>
      </trkpt>
      <trkpt lat="1.996556" lon="-76.709067">
        <ele>3503.379</ele>
        <time>2022-12-18T10:48:04Z</time>
      </trkpt>
      <trkpt lat="1.99659" lon="-76.709107">
        <ele>3504.570</ele>
        <time>2022-12-18T10:48:08Z</time>
      </trkpt>
      <trkpt lat="1.99664" lon="-76.709138">
        <ele>3504.879</ele>
        <time>2022-12-18T10:48:11Z</time>
      </trkpt>
      <trkpt lat="1.996685" lon="-76.70916">
        <ele>3505.483</ele>
        <time>2022-12-18T10:48:14Z</time>
      </trkpt>
      <trkpt lat="1.996734" lon="-76.709172">
        <ele>3504.851</ele>
        <time>2022-12-18T10:48:18Z</time>
      </trkpt>
      <trkpt lat="1.996785" lon="-76.709197">
        <ele>3505.562</ele>
        <time>2022-12-18T10:48:22Z</time>
      </trkpt>
      <trkpt lat="1.996835" lon="-76.709205">
        <ele>3506.248</ele>
        <time>2022-12-18T10:48:26Z</time>
      </trkpt>
      <trkpt lat="1.996883" lon="-76.709188">
        <ele>3502.515</ele>
        <time>2022-12-18T10:48:31Z</time>
      </trkpt>
      <trkpt lat="1.996934" lon="-76.709191">
        <ele>3506.170</ele>
        <time>2022-12-18T10:48:38Z</time>
      </trkpt>
      <trkpt lat="1.996965" lon="-76.709148">
        <ele>3506.613</ele>
        <time>2022-12-18T10:48:46Z</time>
      </trkpt>
      <trkpt lat="1.997004" lon="-76.709108">
        <ele>3507.343</ele>
        <time>2022-12-18T10:48:49Z</time>
      </trkpt>
      <trkpt lat="1.997047" lon="-76.709091">
        <ele>3509.107</ele>
        <time>2022-12-18T10:48:53Z</time>
      </trkpt>
      <trkpt lat="1.997092" lon="-76.709064">
        <ele>3509.109</ele>
        <time>2022-12-18T10:48:57Z</time>
      </trkpt>
      <trkpt lat="1.99714" lon="-76.709064">
        <ele>3512.332</ele>
        <time>2022-12-18T10:49:03Z</time>
      </trkpt>
      <trkpt lat="1.997202" lon="-76.70907">
        <ele>3514.973</ele>
        <time>2022-12-18T10:49:07Z</time>
      </trkpt>
      <trkpt lat="1.99725" lon="-76.709089">
        <ele>3515.012</ele>
        <time>2022-12-18T10:49:11Z</time>
      </trkpt>
      <trkpt lat="1.997293" lon="-76.709109">
        <ele>3515.566</ele>
        <time>2022-12-18T10:49:14Z</time>
      </trkpt>
      <trkpt lat="1.997321" lon="-76.709149">
        <ele>3516.094</ele>
        <time>2022-12-18T10:49:18Z</time>
      </trkpt>
      <trkpt lat="1.99733" lon="-76.709194">
        <ele>3516.825</ele>
        <time>2022-12-18T10:49:21Z</time>
      </trkpt>
      <trkpt lat="1.997338" lon="-76.709246">
        <ele>3499.161</ele>
        <time>2022-12-18T10:49:25Z</time>
      </trkpt>
      <trkpt lat="1.997353" lon="-76.709292">
        <ele>3508.268</ele>
        <time>2022-12-18T10:49:29Z</time>
      </trkpt>
      <trkpt lat="1.99737" lon="-76.709334">
        <ele>3513.643</ele>
        <time>2022-12-18T10:49:32Z</time>
      </trkpt>
      <trkpt lat="1.997383" lon="-76.709384">
        <ele>3517.366</ele>
        <time>2022-12-18T10:49:36Z</time>
      </trkpt>
      <trkpt lat="1.997392" lon="-76.709431">
        <ele>3519.629</ele>
        <time>2022-12-18T10:49:40Z</time>
      </trkpt>
      <trkpt lat="1.997407" lon="-76.709476">
        <ele>3512.621</ele>
        <time>2022-12-18T10:49:43Z</time>
      </trkpt>
      <trkpt lat="1.997424" lon="-76.709522">
        <ele>3518.609</ele>
        <time>2022-12-18T10:49:46Z</time>
      </trkpt>
      <trkpt lat="1.997435" lon="-76.709577">
        <ele>3521.267</ele>
        <time>2022-12-18T10:49:50Z</time>
      </trkpt>
      <trkpt lat="1.997456" lon="-76.709627">
        <ele>3523.358</ele>
        <time>2022-12-18T10:49:54Z</time>
      </trkpt>
      <trkpt lat="1.997469" lon="-76.709681">
        <ele>3524.747</ele>
        <time>2022-12-18T10:49:58Z</time>
      </trkpt>
      <trkpt lat="1.997502" lon="-76.709721">
        <ele>3524.391</ele>
        <time>2022-12-18T10:50:02Z</time>
      </trkpt>
      <trkpt lat="1.997528" lon="-76.709761">
        <ele>3524.399</ele>
        <time>2022-12-18T10:50:06Z</time>
      </trkpt>
      <trkpt lat="1.997566" lon="-76.709804">
        <ele>3524.380</ele>
        <time>2022-12-18T10:50:09Z</time>
      </trkpt>
      <trkpt lat="1.997591" lon="-76.709843">
        <ele>3523.846</ele>
        <time>2022-12-18T10:50:12Z</time>
      </trkpt>
      <trkpt lat="1.997627" lon="-76.709886">
        <ele>3525.363</ele>
        <time>2022-12-18T10:50:19Z</time>
      </trkpt>
      <trkpt lat="1.997665" lon="-76.709931">
        <ele>3526.668</ele>
        <time>2022-12-18T10:50:21Z</time>
      </trkpt>
      <trkpt lat="1.997701" lon="-76.709967">
        <ele>3526.395</ele>
        <time>2022-12-18T10:50:24Z</time>
      </trkpt>
      <trkpt lat="1.99773" lon="-76.710005">
        <ele>3526.249</ele>
        <time>2022-12-18T10:50:27Z</time>
      </trkpt>
      <trkpt lat="1.997763" lon="-76.710055">
        <ele>3526.823</ele>
        <time>2022-12-18T10:50:31Z</time>
      </trkpt>
      <trkpt lat="1.99779" lon="-76.710096">
        <ele>3526.809</ele>
        <time>2022-12-18T10:50:35Z</time>
      </trkpt>
      <trkpt lat="1.997823" lon="-76.71014">
        <ele>3529.530</ele>
        <time>2022-12-18T10:50:39Z</time>
      </trkpt>
      <trkpt lat="1.997864" lon="-76.710182">
        <ele>3529.951</ele>
        <time>2022-12-18T10:50:44Z</time>
      </trkpt>
      <trkpt lat="1.997896" lon="-76.71022">
        <ele>3530.170</ele>
        <time>2022-12-18T10:50:48Z</time>
      </trkpt>
      <trkpt lat="1.997925" lon="-76.710264">
        <ele>3530.054</ele>
        <time>2022-12-18T10:50:52Z</time>
      </trkpt>
      <trkpt lat="1.997957" lon="-76.710295">
        <ele>3530.242</ele>
        <time>2022-12-18T10:50:55Z</time>
      </trkpt>
      <trkpt lat="1.997998" lon="-76.71032">
        <ele>3530.693</ele>
        <time>2022-12-18T10:50:58Z</time>
      </trkpt>
      <trkpt lat="1.998051" lon="-76.710347">
        <ele>3531.719</ele>
        <time>2022-12-18T10:51:02Z</time>
      </trkpt>
      <trkpt lat="1.99809" lon="-76.71038">
        <ele>3533.236</ele>
        <time>2022-12-18T10:51:05Z</time>
      </trkpt>
      <trkpt lat="1.998132" lon="-76.710412">
        <ele>3533.181</ele>
        <time>2022-12-18T10:51:08Z</time>
      </trkpt>
      <trkpt lat="1.998176" lon="-76.710433">
        <ele>3533.349</ele>
        <time>2022-12-18T10:51:11Z</time>
      </trkpt>
      <trkpt lat="1.99821" lon="-76.710462">
        <ele>3533.802</ele>
        <time>2022-12-18T10:51:14Z</time>
      </trkpt>
      <trkpt lat="1.998244" lon="-76.710494">
        <ele>3534.322</ele>
        <time>2022-12-18T10:51:17Z</time>
      </trkpt>
      <trkpt lat="1.998295" lon="-76.7105">
        <ele>3534.609</ele>
        <time>2022-12-18T10:51:20Z</time>
      </trkpt>
      <trkpt lat="1.998353" lon="-76.710514">
        <ele>3534.155</ele>
        <time>2022-12-18T10:51:24Z</time>
      </trkpt>
      <trkpt lat="1.998416" lon="-76.710524">
        <ele>3534.676</ele>
        <time>2022-12-18T10:51:28Z</time>
      </trkpt>
      <trkpt lat="1.998462" lon="-76.710527">
        <ele>3535.435</ele>
        <time>2022-12-18T10:51:31Z</time>
      </trkpt>
      <trkpt lat="1.998526" lon="-76.710529">
        <ele>3536.289</ele>
        <time>2022-12-18T10:51:38Z</time>
      </trkpt>
      <trkpt lat="1.998591" lon="-76.710524">
        <ele>3534.867</ele>
        <time>2022-12-18T10:51:40Z</time>
      </trkpt>
      <trkpt lat="1.998643" lon="-76.710526">
        <ele>3535.528</ele>
        <time>2022-12-18T10:51:43Z</time>
      </trkpt>
      <trkpt lat="1.998691" lon="-76.710536">
        <ele>3536.724</ele>
        <time>2022-12-18T10:51:46Z</time>
      </trkpt>
      <trkpt lat="1.998734" lon="-76.710558">
        <ele>3536.181</ele>
        <time>2022-12-18T10:51:49Z</time>
      </trkpt>
      <trkpt lat="1.998776" lon="-76.710576">
        <ele>3535.866</ele>
        <time>2022-12-18T10:51:51Z</time>
      </trkpt>
      <trkpt lat="1.998821" lon="-76.710588">
        <ele>3535.935</ele>
        <time>2022-12-18T10:51:54Z</time>
      </trkpt>
      <trkpt lat="1.998867" lon="-76.710602">
        <ele>3536.886</ele>
        <time>2022-12-18T10:51:57Z</time>
      </trkpt>
      <trkpt lat="1.998921" lon="-76.710597">
        <ele>3536.714</ele>
        <time>2022-12-18T10:52:01Z</time>
      </trkpt>
      <trkpt lat="1.998966" lon="-76.710599">
        <ele>3538.609</ele>
        <time>2022-12-18T10:52:04Z</time>
      </trkpt>
      <trkpt lat="1.999021" lon="-76.710601">
        <ele>3539.484</ele>
        <time>2022-12-18T10:52:08Z</time>
      </trkpt>
      <trkpt lat="1.999088" lon="-76.710586">
        <ele>3539.765</ele>
        <time>2022-12-18T10:52:15Z</time>
      </trkpt>
      <trkpt lat="1.999065" lon="-76.710526">
        <ele>3540.064</ele>
        <time>2022-12-18T10:52:17Z</time>
      </trkpt>
      <trkpt lat="1.999045" lon="-76.710484">
        <ele>3540.338</ele>
        <time>2022-12-18T10:52:19Z</time>
      </trkpt>
      <trkpt lat="1.999019" lon="-76.710432">
        <ele>3539.916</ele>
        <time>2022-12-18T10:52:22Z</time>
      </trkpt>
      <trkpt lat="1.998991" lon="-76.710376">
        <ele>3539.227</ele>
        <time>2022-12-18T10:52:25Z</time>
      </trkpt>
      <trkpt lat="1.99896" lon="-76.710322">
        <ele>3538.963</ele>
        <time>2022-12-18T10:52:28Z</time>
      </trkpt>
      <trkpt lat="1.998947" lon="-76.710273">
        <ele>3537.850</ele>
        <time>2022-12-18T10:52:31Z</time>
      </trkpt>
      <trkpt lat="1.998942" lon="-76.710218">
        <ele>3538.995</ele>
        <time>2022-12-18T10:52:35Z</time>
      </trkpt>
      <trkpt lat="1.998947" lon="-76.71016">
        <ele>3538.741</ele>
        <time>2022-12-18T10:52:39Z</time>
      </trkpt>
      <trkpt lat="1.998954" lon="-76.710114">
        <ele>3539.781</ele>
        <time>2022-12-18T10:52:42Z</time>
      </trkpt>
      <trkpt lat="1.998946" lon="-76.710062">
        <ele>3538.509</ele>
        <time>2022-12-18T10:52:45Z</time>
      </trkpt>
      <trkpt lat="1.998937" lon="-76.71001">
        <ele>3539.409</ele>
        <time>2022-12-18T10:52:48Z</time>
      </trkpt>
      <trkpt lat="1.998935" lon="-76.709955">
        <ele>3539.535</ele>
        <time>2022-12-18T10:52:51Z</time>
      </trkpt>
      <trkpt lat="1.998939" lon="-76.709902">
        <ele>3540.066</ele>
        <time>2022-12-18T10:52:55Z</time>
      </trkpt>
      <trkpt lat="1.998948" lon="-76.709855">
        <ele>3540.115</ele>
        <time>2022-12-18T10:52:58Z</time>
      </trkpt>
      <trkpt lat="1.998953" lon="-76.709802">
        <ele>3538.869</ele>
        <time>2022-12-18T10:53:02Z</time>
      </trkpt>
      <trkpt lat="1.998959" lon="-76.709754">
        <ele>3539.547</ele>
        <time>2022-12-18T10:53:05Z</time>
      </trkpt>
      <trkpt lat="1.998965" lon="-76.709702">
        <ele>3541.398</ele>
        <time>2022-12-18T10:53:09Z</time>
      </trkpt>
      <trkpt lat="1.998978" lon="-76.709657">
        <ele>3543.414</ele>
        <time>2022-12-18T10:53:14Z</time>
      </trkpt>
      <trkpt lat="1.998995" lon="-76.70961">
        <ele>3544.441</ele>
        <time>2022-12-18T10:53:19Z</time>
      </trkpt>
      <trkpt lat="1.999022" lon="-76.709563">
        <ele>3545.526</ele>
        <time>2022-12-18T10:53:23Z</time>
      </trkpt>
      <trkpt lat="1.999065" lon="-76.709527">
        <ele>3546.642</ele>
        <time>2022-12-18T10:53:28Z</time>
      </trkpt>
      <trkpt lat="1.999102" lon="-76.709482">
        <ele>3546.422</ele>
        <time>2022-12-18T10:53:31Z</time>
      </trkpt>
      <trkpt lat="1.999154" lon="-76.709457">
        <ele>3545.414</ele>
        <time>2022-12-18T10:53:34Z</time>
      </trkpt>
      <trkpt lat="1.999211" lon="-76.709442">
        <ele>3545.909</ele>
        <time>2022-12-18T10:53:38Z</time>
      </trkpt>
      <trkpt lat="1.999258" lon="-76.709418">
        <ele>3545.985</ele>
        <time>2022-12-18T10:53:41Z</time>
      </trkpt>
      <trkpt lat="1.999305" lon="-76.7094">
        <ele>3546.666</ele>
        <time>2022-12-18T10:53:44Z</time>
      </trkpt>
      <trkpt lat="1.999355" lon="-76.709385">
        <ele>3547.375</ele>
        <time>2022-12-18T10:53:47Z</time>
      </trkpt>
      <trkpt lat="1.999402" lon="-76.709374">
        <ele>3548.239</ele>
        <time>2022-12-18T10:53:51Z</time>
      </trkpt>
      <trkpt lat="1.999453" lon="-76.709358">
        <ele>3549.077</ele>
        <time>2022-12-18T10:53:55Z</time>
      </trkpt>
      <trkpt lat="1.999503" lon="-76.709344">
        <ele>3548.718</ele>
        <time>2022-12-18T10:53:58Z</time>
      </trkpt>
      <trkpt lat="1.999553" lon="-76.709333">
        <ele>3549.724</ele>
        <time>2022-12-18T10:54:01Z</time>
      </trkpt>
      <trkpt lat="1.999598" lon="-76.709321">
        <ele>3549.891</ele>
        <time>2022-12-18T10:54:04Z</time>
      </trkpt>
      <trkpt lat="1.999659" lon="-76.709307">
        <ele>3549.566</ele>
        <time>2022-12-18T10:54:08Z</time>
      </trkpt>
      <trkpt lat="1.999712" lon="-76.709301">
        <ele>3550.147</ele>
        <time>2022-12-18T10:54:11Z</time>
      </trkpt>
      <trkpt lat="1.999762" lon="-76.709301">
        <ele>3550.429</ele>
        <time>2022-12-18T10:54:14Z</time>
      </trkpt>
      <trkpt lat="1.999814" lon="-76.709293">
        <ele>3549.221</ele>
        <time>2022-12-18T10:54:17Z</time>
      </trkpt>
      <trkpt lat="1.99986" lon="-76.709293">
        <ele>3549.509</ele>
        <time>2022-12-18T10:54:20Z</time>
      </trkpt>
      <trkpt lat="1.999914" lon="-76.709291">
        <ele>3549.355</ele>
        <time>2022-12-18T10:54:23Z</time>
      </trkpt>
      <trkpt lat="1.999969" lon="-76.709288">
        <ele>3550.766</ele>
        <time>2022-12-18T10:54:27Z</time>
      </trkpt>
      <trkpt lat="2.000018" lon="-76.709288">
        <ele>3551.795</ele>
        <time>2022-12-18T10:54:30Z</time>
      </trkpt>
      <trkpt lat="2.000075" lon="-76.709283">
        <ele>3551.869</ele>
        <time>2022-12-18T10:54:34Z</time>
      </trkpt>
      <trkpt lat="2.000123" lon="-76.709284">
        <ele>3553.777</ele>
        <time>2022-12-18T10:54:37Z</time>
      </trkpt>
      <trkpt lat="2.000175" lon="-76.709282">
        <ele>3538.118</ele>
        <time>2022-12-18T10:54:40Z</time>
      </trkpt>
      <trkpt lat="2.000234" lon="-76.709287">
        <ele>3551.144</ele>
        <time>2022-12-18T10:54:44Z</time>
      </trkpt>
      <trkpt lat="2.00029" lon="-76.709284">
        <ele>3555.051</ele>
        <time>2022-12-18T10:54:48Z</time>
      </trkpt>
      <trkpt lat="2.000345" lon="-76.709278">
        <ele>3556.616</ele>
        <time>2022-12-18T10:54:52Z</time>
      </trkpt>
      <trkpt lat="2.000405" lon="-76.709284">
        <ele>3559.085</ele>
        <time>2022-12-18T10:54:56Z</time>
      </trkpt>
      <trkpt lat="2.00046" lon="-76.709291">
        <ele>3559.789</ele>
        <time>2022-12-18T10:55:00Z</time>
      </trkpt>
      <trkpt lat="2.000516" lon="-76.709293">
        <ele>3560.217</ele>
        <time>2022-12-18T10:55:04Z</time>
      </trkpt>
      <trkpt lat="2.000574" lon="-76.709308">
        <ele>3562.209</ele>
        <time>2022-12-18T10:55:08Z</time>
      </trkpt>
      <trkpt lat="2.000623" lon="-76.709332">
        <ele>3563.739</ele>
        <time>2022-12-18T10:55:12Z</time>
      </trkpt>
      <trkpt lat="2.000671" lon="-76.709348">
        <ele>3563.030</ele>
        <time>2022-12-18T10:55:14Z</time>
      </trkpt>
      <trkpt lat="2.000721" lon="-76.709365">
        <ele>3563.799</ele>
        <time>2022-12-18T10:55:16Z</time>
      </trkpt>
      <trkpt lat="2.00077" lon="-76.709382">
        <ele>3563.473</ele>
        <time>2022-12-18T10:55:19Z</time>
      </trkpt>
      <trkpt lat="2.000824" lon="-76.709405">
        <ele>3562.671</ele>
        <time>2022-12-18T10:55:22Z</time>
      </trkpt>
      <trkpt lat="2.00087" lon="-76.709426">
        <ele>3562.352</ele>
        <time>2022-12-18T10:55:25Z</time>
      </trkpt>
      <trkpt lat="2.000931" lon="-76.709451">
        <ele>3563.068</ele>
        <time>2022-12-18T10:55:28Z</time>
      </trkpt>
      <trkpt lat="2.000984" lon="-76.70948">
        <ele>3564.415</ele>
        <time>2022-12-18T10:55:34Z</time>
      </trkpt>
      <trkpt lat="2.001029" lon="-76.709511">
        <ele>3565.140</ele>
        <time>2022-12-18T10:55:36Z</time>
      </trkpt>
      <trkpt lat="2.001077" lon="-76.709549">
        <ele>3565.445</ele>
        <time>2022-12-18T10:55:40Z</time>
      </trkpt>
      <trkpt lat="2.001132" lon="-76.709573">
        <ele>3565.547</ele>
        <time>2022-12-18T10:55:43Z</time>
      </trkpt>
      <trkpt lat="2.001191" lon="-76.709595">
        <ele>3566.311</ele>
        <time>2022-12-18T10:55:46Z</time>
      </trkpt>
      <trkpt lat="2.00124" lon="-76.709619">
        <ele>3566.509</ele>
        <time>2022-12-18T10:55:49Z</time>
      </trkpt>
      <trkpt lat="2.001286" lon="-76.709648">
        <ele>3567.685</ele>
        <time>2022-12-18T10:55:52Z</time>
      </trkpt>
      <trkpt lat="2.001334" lon="-76.709679">
        <ele>3567.996</ele>
        <time>2022-12-18T10:55:55Z</time>
      </trkpt>
      <trkpt lat="2.00138" lon="-76.709714">
        <ele>3567.665</ele>
        <time>2022-12-18T10:55:58Z</time>
      </trkpt>
      <trkpt lat="2.001419" lon="-76.709746">
        <ele>3569.199</ele>
        <time>2022-12-18T10:56:01Z</time>
      </trkpt>
      <trkpt lat="2.001462" lon="-76.709785">
        <ele>3569.747</ele>
        <time>2022-12-18T10:56:04Z</time>
      </trkpt>
      <trkpt lat="2.001504" lon="-76.709812">
        <ele>3569.588</ele>
        <time>2022-12-18T10:56:07Z</time>
      </trkpt>
      <trkpt lat="2.001561" lon="-76.709833">
        <ele>3570.084</ele>
        <time>2022-12-18T10:56:10Z</time>
      </trkpt>
      <trkpt lat="2.001605" lon="-76.709853">
        <ele>3570.761</ele>
        <time>2022-12-18T10:56:13Z</time>
      </trkpt>
      <trkpt lat="2.001655" lon="-76.709881">
        <ele>3571.666</ele>
        <time>2022-12-18T10:56:16Z</time>
      </trkpt>
      <trkpt lat="2.001697" lon="-76.7099">
        <ele>3572.177</ele>
        <time>2022-12-18T10:56:19Z</time>
      </trkpt>
      <trkpt lat="2.001743" lon="-76.709933">
        <ele>3572.461</ele>
        <time>2022-12-18T10:56:23Z</time>
      </trkpt>
      <trkpt lat="2.001793" lon="-76.709951">
        <ele>3572.327</ele>
        <time>2022-12-18T10:56:27Z</time>
      </trkpt>
      <trkpt lat="2.001739" lon="-76.709926">
        <ele>3570.109</ele>
        <time>2022-12-18T10:56:41Z</time>
      </trkpt>
      <trkpt lat="2.001687" lon="-76.709937">
        <ele>3569.638</ele>
        <time>2022-12-18T10:56:46Z</time>
      </trkpt>
      <trkpt lat="2.001733" lon="-76.709924">
        <ele>3569.679</ele>
        <time>2022-12-18T11:02:51Z</time>
      </trkpt>
      <trkpt lat="2.001781" lon="-76.709932">
        <ele>3569.338</ele>
        <time>2022-12-18T11:02:58Z</time>
      </trkpt>
      <trkpt lat="2.001816" lon="-76.709965">
        <ele>3569.462</ele>
        <time>2022-12-18T11:03:10Z</time>
      </trkpt>
      <trkpt lat="2.00186" lon="-76.709979">
        <ele>3569.760</ele>
        <time>2022-12-18T11:04:02Z</time>
      </trkpt>
      <trkpt lat="2.001895" lon="-76.710007">
        <ele>3569.811</ele>
        <time>2022-12-18T11:04:06Z</time>
      </trkpt>
      <trkpt lat="2.001941" lon="-76.710021">
        <ele>3570.197</ele>
        <time>2022-12-18T11:04:09Z</time>
      </trkpt>
      <trkpt lat="2.001987" lon="-76.710022">
        <ele>3570.444</ele>
        <time>2022-12-18T11:04:12Z</time>
      </trkpt>
      <trkpt lat="2.002034" lon="-76.710025">
        <ele>3570.549</ele>
        <time>2022-12-18T11:04:14Z</time>
      </trkpt>
      <trkpt lat="2.002087" lon="-76.710023">
        <ele>3570.791</ele>
        <time>2022-12-18T11:04:17Z</time>
      </trkpt>
      <trkpt lat="2.002137" lon="-76.710028">
        <ele>3574.081</ele>
        <time>2022-12-18T11:04:20Z</time>
      </trkpt>
      <trkpt lat="2.002183" lon="-76.710029">
        <ele>3574.119</ele>
        <time>2022-12-18T11:04:22Z</time>
      </trkpt>
      <trkpt lat="2.002235" lon="-76.710029">
        <ele>3574.509</ele>
        <time>2022-12-18T11:04:25Z</time>
      </trkpt>
      <trkpt lat="2.00229" lon="-76.710033">
        <ele>3574.780</ele>
        <time>2022-12-18T11:04:28Z</time>
      </trkpt>
      <trkpt lat="2.002343" lon="-76.710033">
        <ele>3575.711</ele>
        <time>2022-12-18T11:04:34Z</time>
      </trkpt>
      <trkpt lat="2.002392" lon="-76.710036">
        <ele>3576.090</ele>
        <time>2022-12-18T11:04:37Z</time>
      </trkpt>
      <trkpt lat="2.002438" lon="-76.710044">
        <ele>3576.564</ele>
        <time>2022-12-18T11:04:39Z</time>
      </trkpt>
      <trkpt lat="2.002485" lon="-76.710053">
        <ele>3576.922</ele>
        <time>2022-12-18T11:04:42Z</time>
      </trkpt>
      <trkpt lat="2.002533" lon="-76.710068">
        <ele>3578.083</ele>
        <time>2022-12-18T11:04:45Z</time>
      </trkpt>
      <trkpt lat="2.002585" lon="-76.710077">
        <ele>3578.849</ele>
        <time>2022-12-18T11:04:48Z</time>
      </trkpt>
      <trkpt lat="2.002635" lon="-76.710083">
        <ele>3579.766</ele>
        <time>2022-12-18T11:04:51Z</time>
      </trkpt>
      <trkpt lat="2.002679" lon="-76.710095">
        <ele>3580.141</ele>
        <time>2022-12-18T11:04:54Z</time>
      </trkpt>
      <trkpt lat="2.002723" lon="-76.710109">
        <ele>3580.917</ele>
        <time>2022-12-18T11:04:58Z</time>
      </trkpt>
      <trkpt lat="2.002775" lon="-76.710131">
        <ele>3581.287</ele>
        <time>2022-12-18T11:05:01Z</time>
      </trkpt>
      <trkpt lat="2.002826" lon="-76.710145">
        <ele>3581.515</ele>
        <time>2022-12-18T11:05:03Z</time>
      </trkpt>
      <trkpt lat="2.002883" lon="-76.710159">
        <ele>3582.909</ele>
        <time>2022-12-18T11:05:06Z</time>
      </trkpt>
      <trkpt lat="2.002927" lon="-76.710174">
        <ele>3583.132</ele>
        <time>2022-12-18T11:05:09Z</time>
      </trkpt>
      <trkpt lat="2.002989" lon="-76.710205">
        <ele>3583.473</ele>
        <time>2022-12-18T11:05:11Z</time>
      </trkpt>
      <trkpt lat="2.003043" lon="-76.710235">
        <ele>3584.112</ele>
        <time>2022-12-18T11:05:13Z</time>
      </trkpt>
      <trkpt lat="2.003087" lon="-76.710265">
        <ele>3584.516</ele>
        <time>2022-12-18T11:05:16Z</time>
      </trkpt>
      <trkpt lat="2.003135" lon="-76.710288">
        <ele>3584.654</ele>
        <time>2022-12-18T11:05:17Z</time>
      </trkpt>
      <trkpt lat="2.003182" lon="-76.710315">
        <ele>3584.965</ele>
        <time>2022-12-18T11:05:20Z</time>
      </trkpt>
      <trkpt lat="2.003223" lon="-76.710344">
        <ele>3585.911</ele>
        <time>2022-12-18T11:05:22Z</time>
      </trkpt>
      <trkpt lat="2.003265" lon="-76.710378">
        <ele>3586.458</ele>
        <time>2022-12-18T11:05:25Z</time>
      </trkpt>
      <trkpt lat="2.00331" lon="-76.710405">
        <ele>3586.593</ele>
        <time>2022-12-18T11:05:28Z</time>
      </trkpt>
      <trkpt lat="2.003353" lon="-76.710424">
        <ele>3586.735</ele>
        <time>2022-12-18T11:05:30Z</time>
      </trkpt>
      <trkpt lat="2.003406" lon="-76.710446">
        <ele>3586.986</ele>
        <time>2022-12-18T11:05:32Z</time>
      </trkpt>
      <trkpt lat="2.003464" lon="-76.71047">
        <ele>3587.014</ele>
        <time>2022-12-18T11:05:35Z</time>
      </trkpt>
      <trkpt lat="2.003512" lon="-76.710497">
        <ele>3587.309</ele>
        <time>2022-12-18T11:05:38Z</time>
      </trkpt>
      <trkpt lat="2.003553" lon="-76.710528">
        <ele>3587.544</ele>
        <time>2022-12-18T11:05:41Z</time>
      </trkpt>
      <trkpt lat="2.003595" lon="-76.710564">
        <ele>3587.945</ele>
        <time>2022-12-18T11:05:45Z</time>
      </trkpt>
      <trkpt lat="2.003572" lon="-76.710605">
        <ele>3583.674</ele>
        <time>2022-12-18T11:27:03Z</time>
      </trkpt>
      <trkpt lat="2.003589" lon="-76.710562">
        <ele>3585.128</ele>
        <time>2022-12-18T11:29:41Z</time>
      </trkpt>
      <trkpt lat="2.003583" lon="-76.71061">
        <ele>3587.186</ele>
        <time>2022-12-18T11:31:07Z</time>
      </trkpt>
      <trkpt lat="2.003616" lon="-76.71065">
        <ele>3589.127</ele>
        <time>2022-12-18T11:32:29Z</time>
      </trkpt>
      <trkpt lat="2.003659" lon="-76.710718">
        <ele>3589.213</ele>
        <time>2022-12-18T11:32:37Z</time>
      </trkpt>
      <trkpt lat="2.003708" lon="-76.710762">
        <ele>3589.230</ele>
        <time>2022-12-18T11:32:39Z</time>
      </trkpt>
      <trkpt lat="2.003754" lon="-76.710808">
        <ele>3589.225</ele>
        <time>2022-12-18T11:32:42Z</time>
      </trkpt>
      <trkpt lat="2.003793" lon="-76.710847">
        <ele>3589.275</ele>
        <time>2022-12-18T11:32:44Z</time>
      </trkpt>
      <trkpt lat="2.003832" lon="-76.710889">
        <ele>3589.128</ele>
        <time>2022-12-18T11:32:46Z</time>
      </trkpt>
      <trkpt lat="2.003867" lon="-76.710932">
        <ele>3588.720</ele>
        <time>2022-12-18T11:32:48Z</time>
      </trkpt>
      <trkpt lat="2.003901" lon="-76.710964">
        <ele>3588.709</ele>
        <time>2022-12-18T11:32:50Z</time>
      </trkpt>
      <trkpt lat="2.003941" lon="-76.711005">
        <ele>3588.188</ele>
        <time>2022-12-18T11:32:53Z</time>
      </trkpt>
      <trkpt lat="2.003977" lon="-76.711038">
        <ele>3588.149</ele>
        <time>2022-12-18T11:32:55Z</time>
      </trkpt>
      <trkpt lat="2.004019" lon="-76.711064">
        <ele>3588.178</ele>
        <time>2022-12-18T11:32:57Z</time>
      </trkpt>
      <trkpt lat="2.004058" lon="-76.71112">
        <ele>3588.172</ele>
        <time>2022-12-18T11:33:00Z</time>
      </trkpt>
      <trkpt lat="2.004084" lon="-76.711164">
        <ele>3588.370</ele>
        <time>2022-12-18T11:33:02Z</time>
      </trkpt>
      <trkpt lat="2.004119" lon="-76.711199">
        <ele>3588.461</ele>
        <time>2022-12-18T11:33:04Z</time>
      </trkpt>
      <trkpt lat="2.004162" lon="-76.711232">
        <ele>3588.587</ele>
        <time>2022-12-18T11:33:06Z</time>
      </trkpt>
      <trkpt lat="2.004209" lon="-76.711266">
        <ele>3588.994</ele>
        <time>2022-12-18T11:33:09Z</time>
      </trkpt>
      <trkpt lat="2.004253" lon="-76.71131">
        <ele>3589.139</ele>
        <time>2022-12-18T11:33:12Z</time>
      </trkpt>
      <trkpt lat="2.004299" lon="-76.711353">
        <ele>3589.025</ele>
        <time>2022-12-18T11:33:15Z</time>
      </trkpt>
      <trkpt lat="2.004354" lon="-76.711384">
        <ele>3589.126</ele>
        <time>2022-12-18T11:33:18Z</time>
      </trkpt>
      <trkpt lat="2.0044" lon="-76.711424">
        <ele>3589.108</ele>
        <time>2022-12-18T11:33:21Z</time>
      </trkpt>
      <trkpt lat="2.004449" lon="-76.711454">
        <ele>3589.509</ele>
        <time>2022-12-18T11:33:25Z</time>
      </trkpt>
      <trkpt lat="2.004491" lon="-76.711478">
        <ele>3590.423</ele>
        <time>2022-12-18T11:33:28Z</time>
      </trkpt>
      <trkpt lat="2.004537" lon="-76.711494">
        <ele>3590.964</ele>
        <time>2022-12-18T11:33:31Z</time>
      </trkpt>
      <trkpt lat="2.004587" lon="-76.711511">
        <ele>3591.173</ele>
        <time>2022-12-18T11:33:35Z</time>
      </trkpt>
      <trkpt lat="2.004638" lon="-76.71153">
        <ele>3591.437</ele>
        <time>2022-12-18T11:33:39Z</time>
      </trkpt>
      <trkpt lat="2.004691" lon="-76.711537">
        <ele>3591.885</ele>
        <time>2022-12-18T11:33:42Z</time>
      </trkpt>
      <trkpt lat="2.004743" lon="-76.711531">
        <ele>3591.896</ele>
        <time>2022-12-18T11:33:45Z</time>
      </trkpt>
      <trkpt lat="2.004791" lon="-76.711531">
        <ele>3592.052</ele>
        <time>2022-12-18T11:33:48Z</time>
      </trkpt>
      <trkpt lat="2.004842" lon="-76.711538">
        <ele>3592.459</ele>
        <time>2022-12-18T11:33:51Z</time>
      </trkpt>
      <trkpt lat="2.004893" lon="-76.711553">
        <ele>3593.494</ele>
        <time>2022-12-18T11:33:56Z</time>
      </trkpt>
      <trkpt lat="2.004939" lon="-76.711555">
        <ele>3593.842</ele>
        <time>2022-12-18T11:33:59Z</time>
      </trkpt>
      <trkpt lat="2.005" lon="-76.711561">
        <ele>3594.622</ele>
        <time>2022-12-18T11:34:03Z</time>
      </trkpt>
      <trkpt lat="2.005054" lon="-76.711568">
        <ele>3594.914</ele>
        <time>2022-12-18T11:34:06Z</time>
      </trkpt>
      <trkpt lat="2.005118" lon="-76.711579">
        <ele>3595.109</ele>
        <time>2022-12-18T11:34:09Z</time>
      </trkpt>
      <trkpt lat="2.005176" lon="-76.711576">
        <ele>3595.165</ele>
        <time>2022-12-18T11:34:12Z</time>
      </trkpt>
      <trkpt lat="2.005222" lon="-76.711565">
        <ele>3595.176</ele>
        <time>2022-12-18T11:34:14Z</time>
      </trkpt>
      <trkpt lat="2.005271" lon="-76.711553">
        <ele>3595.185</ele>
        <time>2022-12-18T11:34:16Z</time>
      </trkpt>
      <trkpt lat="2.005322" lon="-76.711531">
        <ele>3595.149</ele>
        <time>2022-12-18T11:34:19Z</time>
      </trkpt>
      <trkpt lat="2.005367" lon="-76.711505">
        <ele>3594.737</ele>
        <time>2022-12-18T11:34:22Z</time>
      </trkpt>
      <trkpt lat="2.005415" lon="-76.71149">
        <ele>3594.638</ele>
        <time>2022-12-18T11:34:30Z</time>
      </trkpt>
      <trkpt lat="2.005466" lon="-76.711489">
        <ele>3594.544</ele>
        <time>2022-12-18T11:34:34Z</time>
      </trkpt>
      <trkpt lat="2.005521" lon="-76.711483">
        <ele>3594.481</ele>
        <time>2022-12-18T11:34:37Z</time>
      </trkpt>
      <trkpt lat="2.005573" lon="-76.711476">
        <ele>3594.476</ele>
        <time>2022-12-18T11:34:40Z</time>
      </trkpt>
      <trkpt lat="2.005623" lon="-76.711474">
        <ele>3594.474</ele>
        <time>2022-12-18T11:34:43Z</time>
      </trkpt>
      <trkpt lat="2.005676" lon="-76.71147">
        <ele>3594.456</ele>
        <time>2022-12-18T11:34:46Z</time>
      </trkpt>
      <trkpt lat="2.005733" lon="-76.711465">
        <ele>3594.721</ele>
        <time>2022-12-18T11:34:49Z</time>
      </trkpt>
      <trkpt lat="2.005792" lon="-76.711458">
        <ele>3594.809</ele>
        <time>2022-12-18T11:34:52Z</time>
      </trkpt>
      <trkpt lat="2.005847" lon="-76.711448">
        <ele>3594.618</ele>
        <time>2022-12-18T11:34:55Z</time>
      </trkpt>
      <trkpt lat="2.005913" lon="-76.711452">
        <ele>3593.049</ele>
        <time>2022-12-18T11:34:58Z</time>
      </trkpt>
      <trkpt lat="2.00596" lon="-76.711478">
        <ele>3592.598</ele>
        <time>2022-12-18T11:35:00Z</time>
      </trkpt>
      <trkpt lat="2.006016" lon="-76.711521">
        <ele>3592.022</ele>
        <time>2022-12-18T11:35:02Z</time>
      </trkpt>
      <trkpt lat="2.006052" lon="-76.711572">
        <ele>3591.610</ele>
        <time>2022-12-18T11:35:04Z</time>
      </trkpt>
      <trkpt lat="2.006076" lon="-76.711627">
        <ele>3591.551</ele>
        <time>2022-12-18T11:35:06Z</time>
      </trkpt>
      <trkpt lat="2.006078" lon="-76.711673">
        <ele>3591.317</ele>
        <time>2022-12-18T11:35:08Z</time>
      </trkpt>
      <trkpt lat="2.006112" lon="-76.711722">
        <ele>3591.484</ele>
        <time>2022-12-18T11:35:11Z</time>
      </trkpt>
      <trkpt lat="2.006149" lon="-76.711776">
        <ele>3591.719</ele>
        <time>2022-12-18T11:35:14Z</time>
      </trkpt>
      <trkpt lat="2.006162" lon="-76.711823">
        <ele>3591.851</ele>
        <time>2022-12-18T11:35:16Z</time>
      </trkpt>
      <trkpt lat="2.00618" lon="-76.711871">
        <ele>3592.101</ele>
        <time>2022-12-18T11:35:18Z</time>
      </trkpt>
      <trkpt lat="2.006201" lon="-76.711919">
        <ele>3592.111</ele>
        <time>2022-12-18T11:35:20Z</time>
      </trkpt>
      <trkpt lat="2.006226" lon="-76.711964">
        <ele>3592.209</ele>
        <time>2022-12-18T11:35:22Z</time>
      </trkpt>
      <trkpt lat="2.006249" lon="-76.712006">
        <ele>3592.296</ele>
        <time>2022-12-18T11:35:24Z</time>
      </trkpt>
      <trkpt lat="2.006275" lon="-76.712048">
        <ele>3592.257</ele>
        <time>2022-12-18T11:35:26Z</time>
      </trkpt>
      <trkpt lat="2.006292" lon="-76.712096">
        <ele>3592.266</ele>
        <time>2022-12-18T11:35:28Z</time>
      </trkpt>
      <trkpt lat="2.006323" lon="-76.712159">
        <ele>3592.270</ele>
        <time>2022-12-18T11:35:31Z</time>
      </trkpt>
      <trkpt lat="2.00634" lon="-76.712206">
        <ele>3592.238</ele>
        <time>2022-12-18T11:35:33Z</time>
      </trkpt>
      <trkpt lat="2.006358" lon="-76.712254">
        <ele>3592.289</ele>
        <time>2022-12-18T11:35:35Z</time>
      </trkpt>
      <trkpt lat="2.006377" lon="-76.712299">
        <ele>3592.135</ele>
        <time>2022-12-18T11:35:37Z</time>
      </trkpt>
      <trkpt lat="2.006412" lon="-76.712353">
        <ele>3592.172</ele>
        <time>2022-12-18T11:35:40Z</time>
      </trkpt>
      <trkpt lat="2.006443" lon="-76.712393">
        <ele>3592.467</ele>
        <time>2022-12-18T11:35:43Z</time>
      </trkpt>
      <trkpt lat="2.006486" lon="-76.712423">
        <ele>3592.862</ele>
        <time>2022-12-18T11:35:46Z</time>
      </trkpt>
      <trkpt lat="2.006532" lon="-76.712453">
        <ele>3592.983</ele>
        <time>2022-12-18T11:35:49Z</time>
      </trkpt>
      <trkpt lat="2.006585" lon="-76.712474">
        <ele>3593.211</ele>
        <time>2022-12-18T11:35:52Z</time>
      </trkpt>
      <trkpt lat="2.006633" lon="-76.712493">
        <ele>3594.909</ele>
        <time>2022-12-18T11:35:56Z</time>
      </trkpt>
      <trkpt lat="2.006681" lon="-76.712503">
        <ele>3595.337</ele>
        <time>2022-12-18T11:35:59Z</time>
      </trkpt>
      <trkpt lat="2.006736" lon="-76.7125">
        <ele>3595.718</ele>
        <time>2022-12-18T11:36:02Z</time>
      </trkpt>
      <trkpt lat="2.006787" lon="-76.712518">
        <ele>3595.917</ele>
        <time>2022-12-18T11:36:06Z</time>
      </trkpt>
      <trkpt lat="2.006845" lon="-76.712539">
        <ele>3596.011</ele>
        <time>2022-12-18T11:36:10Z</time>
      </trkpt>
      <trkpt lat="2.006891" lon="-76.712563">
        <ele>3596.289</ele>
        <time>2022-12-18T11:36:13Z</time>
      </trkpt>
      <trkpt lat="2.006938" lon="-76.712587">
        <ele>3596.220</ele>
        <time>2022-12-18T11:36:16Z</time>
      </trkpt>
      <trkpt lat="2.006971" lon="-76.71263">
        <ele>3596.256</ele>
        <time>2022-12-18T11:36:20Z</time>
      </trkpt>
      <trkpt lat="2.007" lon="-76.71267">
        <ele>3596.273</ele>
        <time>2022-12-18T11:36:23Z</time>
      </trkpt>
      <trkpt lat="2.00704" lon="-76.712699">
        <ele>3594.548</ele>
        <time>2022-12-18T11:36:26Z</time>
      </trkpt>
      <trkpt lat="2.007075" lon="-76.712749">
        <ele>3594.591</ele>
        <time>2022-12-18T11:36:30Z</time>
      </trkpt>
      <trkpt lat="2.007109" lon="-76.712785">
        <ele>3594.581</ele>
        <time>2022-12-18T11:36:33Z</time>
      </trkpt>
      <trkpt lat="2.007121" lon="-76.712829">
        <ele>3595.419</ele>
        <time>2022-12-18T11:36:37Z</time>
      </trkpt>
      <trkpt lat="2.007137" lon="-76.712884">
        <ele>3595.609</ele>
        <time>2022-12-18T11:36:40Z</time>
      </trkpt>
      <trkpt lat="2.00716" lon="-76.712925">
        <ele>3597.720</ele>
        <time>2022-12-18T11:36:43Z</time>
      </trkpt>
      <trkpt lat="2.007261" lon="-76.713064">
        <ele>3598.281</ele>
        <time>2022-12-18T11:36:55Z</time>
      </trkpt>
      <trkpt lat="2.007302" lon="-76.713085">
        <ele>3600.020</ele>
        <time>2022-12-18T11:37:00Z</time>
      </trkpt>
      <trkpt lat="2.007342" lon="-76.713117">
        <ele>3600.054</ele>
        <time>2022-12-18T11:37:05Z</time>
      </trkpt>
      <trkpt lat="2.007378" lon="-76.713146">
        <ele>3600.012</ele>
        <time>2022-12-18T11:37:08Z</time>
      </trkpt>
      <trkpt lat="2.007399" lon="-76.713204">
        <ele>3599.453</ele>
        <time>2022-12-18T11:37:35Z</time>
      </trkpt>
      <trkpt lat="2.00743" lon="-76.713255">
        <ele>3599.459</ele>
        <time>2022-12-18T11:37:38Z</time>
      </trkpt>
      <trkpt lat="2.00745" lon="-76.713329">
        <ele>3599.246</ele>
        <time>2022-12-18T11:37:41Z</time>
      </trkpt>
      <trkpt lat="2.007473" lon="-76.713421">
        <ele>3599.391</ele>
        <time>2022-12-18T11:37:43Z</time>
      </trkpt>
      <trkpt lat="2.007501" lon="-76.7135">
        <ele>3598.442</ele>
        <time>2022-12-18T11:37:45Z</time>
      </trkpt>
      <trkpt lat="2.007537" lon="-76.713532">
        <ele>3597.722</ele>
        <time>2022-12-18T11:37:47Z</time>
      </trkpt>
      <trkpt lat="2.007575" lon="-76.713581">
        <ele>3597.414</ele>
        <time>2022-12-18T11:37:49Z</time>
      </trkpt>
      <trkpt lat="2.00761" lon="-76.713633">
        <ele>3596.909</ele>
        <time>2022-12-18T11:37:52Z</time>
      </trkpt>
      <trkpt lat="2.007665" lon="-76.713664">
        <ele>3596.715</ele>
        <time>2022-12-18T11:37:55Z</time>
      </trkpt>
      <trkpt lat="2.007703" lon="-76.713698">
        <ele>3596.646</ele>
        <time>2022-12-18T11:37:57Z</time>
      </trkpt>
      <trkpt lat="2.007742" lon="-76.713728">
        <ele>3596.665</ele>
        <time>2022-12-18T11:37:59Z</time>
      </trkpt>
      <trkpt lat="2.007791" lon="-76.713761">
        <ele>3596.659</ele>
        <time>2022-12-18T11:38:01Z</time>
      </trkpt>
      <trkpt lat="2.007834" lon="-76.713794">
        <ele>3596.787</ele>
        <time>2022-12-18T11:38:03Z</time>
      </trkpt>
      <trkpt lat="2.007883" lon="-76.713825">
        <ele>3596.828</ele>
        <time>2022-12-18T11:38:05Z</time>
      </trkpt>
      <trkpt lat="2.007944" lon="-76.713857">
        <ele>3596.924</ele>
        <time>2022-12-18T11:38:08Z</time>
      </trkpt>
      <trkpt lat="2.007963" lon="-76.713898">
        <ele>3596.911</ele>
        <time>2022-12-18T11:38:10Z</time>
      </trkpt>
      <trkpt lat="2.007968" lon="-76.71395">
        <ele>3596.936</ele>
        <time>2022-12-18T11:38:13Z</time>
      </trkpt>
      <trkpt lat="2.008006" lon="-76.713989">
        <ele>3596.915</ele>
        <time>2022-12-18T11:38:16Z</time>
      </trkpt>
      <trkpt lat="2.008005" lon="-76.714038">
        <ele>3596.965</ele>
        <time>2022-12-18T11:38:19Z</time>
      </trkpt>
      <trkpt lat="2.008036" lon="-76.714089">
        <ele>3597.111</ele>
        <time>2022-12-18T11:38:22Z</time>
      </trkpt>
      <trkpt lat="2.008038" lon="-76.714145">
        <ele>3597.109</ele>
        <time>2022-12-18T11:38:25Z</time>
      </trkpt>
      <trkpt lat="2.008047" lon="-76.71419">
        <ele>3597.682</ele>
        <time>2022-12-18T11:38:28Z</time>
      </trkpt>
      <trkpt lat="2.008042" lon="-76.714239">
        <ele>3597.773</ele>
        <time>2022-12-18T11:38:30Z</time>
      </trkpt>
      <trkpt lat="2.008055" lon="-76.714293">
        <ele>3597.852</ele>
        <time>2022-12-18T11:38:33Z</time>
      </trkpt>
      <trkpt lat="2.008069" lon="-76.714348">
        <ele>3598.646</ele>
        <time>2022-12-18T11:38:36Z</time>
      </trkpt>
      <trkpt lat="2.008097" lon="-76.714395">
        <ele>3599.964</ele>
        <time>2022-12-18T11:38:39Z</time>
      </trkpt>
      <trkpt lat="2.008116" lon="-76.714452">
        <ele>3600.025</ele>
        <time>2022-12-18T11:38:42Z</time>
      </trkpt>
      <trkpt lat="2.008131" lon="-76.714502">
        <ele>3600.061</ele>
        <time>2022-12-18T11:38:45Z</time>
      </trkpt>
      <trkpt lat="2.008167" lon="-76.714559">
        <ele>3600.058</ele>
        <time>2022-12-18T11:38:48Z</time>
      </trkpt>
      <trkpt lat="2.00818" lon="-76.714608">
        <ele>3599.443</ele>
        <time>2022-12-18T11:38:50Z</time>
      </trkpt>
      <trkpt lat="2.008195" lon="-76.714652">
        <ele>3599.156</ele>
        <time>2022-12-18T11:38:52Z</time>
      </trkpt>
      <trkpt lat="2.008214" lon="-76.714696">
        <ele>3599.559</ele>
        <time>2022-12-18T11:38:54Z</time>
      </trkpt>
      <trkpt lat="2.008243" lon="-76.714745">
        <ele>3600.214</ele>
        <time>2022-12-18T11:38:56Z</time>
      </trkpt>
      <trkpt lat="2.00827" lon="-76.714789">
        <ele>3599.809</ele>
        <time>2022-12-18T11:38:58Z</time>
      </trkpt>
      <trkpt lat="2.008303" lon="-76.714861">
        <ele>3600.176</ele>
        <time>2022-12-18T11:39:00Z</time>
      </trkpt>
      <trkpt lat="2.008327" lon="-76.714922">
        <ele>3599.727</ele>
        <time>2022-12-18T11:39:02Z</time>
      </trkpt>
      <trkpt lat="2.008349" lon="-76.714974">
        <ele>3599.636</ele>
        <time>2022-12-18T11:39:04Z</time>
      </trkpt>
      <trkpt lat="2.008389" lon="-76.715032">
        <ele>3599.560</ele>
        <time>2022-12-18T11:39:06Z</time>
      </trkpt>
      <trkpt lat="2.008426" lon="-76.71509">
        <ele>3598.348</ele>
        <time>2022-12-18T11:39:08Z</time>
      </trkpt>
      <trkpt lat="2.008463" lon="-76.715144">
        <ele>3598.199</ele>
        <time>2022-12-18T11:39:10Z</time>
      </trkpt>
      <trkpt lat="2.008502" lon="-76.715201">
        <ele>3597.975</ele>
        <time>2022-12-18T11:39:12Z</time>
      </trkpt>
      <trkpt lat="2.00854" lon="-76.715243">
        <ele>3597.352</ele>
        <time>2022-12-18T11:39:14Z</time>
      </trkpt>
      <trkpt lat="2.008598" lon="-76.71529">
        <ele>3596.847</ele>
        <time>2022-12-18T11:39:16Z</time>
      </trkpt>
      <trkpt lat="2.008625" lon="-76.715378">
        <ele>3592.987</ele>
        <time>2022-12-18T11:39:18Z</time>
      </trkpt>
      <trkpt lat="2.008627" lon="-76.715458">
        <ele>3592.942</ele>
        <time>2022-12-18T11:39:20Z</time>
      </trkpt>
      <trkpt lat="2.008619" lon="-76.715522">
        <ele>3593.326</ele>
        <time>2022-12-18T11:39:22Z</time>
      </trkpt>
      <trkpt lat="2.008599" lon="-76.715567">
        <ele>3593.409</ele>
        <time>2022-12-18T11:39:24Z</time>
      </trkpt>
      <trkpt lat="2.008587" lon="-76.715622">
        <ele>3592.279</ele>
        <time>2022-12-18T11:39:28Z</time>
      </trkpt>
      <trkpt lat="2.008605" lon="-76.71569">
        <ele>3591.810</ele>
        <time>2022-12-18T11:39:31Z</time>
      </trkpt>
      <trkpt lat="2.008616" lon="-76.715744">
        <ele>3591.379</ele>
        <time>2022-12-18T11:39:33Z</time>
      </trkpt>
      <trkpt lat="2.008603" lon="-76.715805">
        <ele>3591.213</ele>
        <time>2022-12-18T11:39:35Z</time>
      </trkpt>
      <trkpt lat="2.00856" lon="-76.715856">
        <ele>3591.041</ele>
        <time>2022-12-18T11:39:37Z</time>
      </trkpt>
      <trkpt lat="2.008524" lon="-76.715906">
        <ele>3590.912</ele>
        <time>2022-12-18T11:39:39Z</time>
      </trkpt>
      <trkpt lat="2.008514" lon="-76.71596">
        <ele>3590.878</ele>
        <time>2022-12-18T11:39:41Z</time>
      </trkpt>
      <trkpt lat="2.008503" lon="-76.716027">
        <ele>3590.685</ele>
        <time>2022-12-18T11:39:43Z</time>
      </trkpt>
      <trkpt lat="2.008498" lon="-76.716092">
        <ele>3590.630</ele>
        <time>2022-12-18T11:39:45Z</time>
      </trkpt>
      <trkpt lat="2.008502" lon="-76.716149">
        <ele>3590.672</ele>
        <time>2022-12-18T11:39:47Z</time>
      </trkpt>
      <trkpt lat="2.008521" lon="-76.716214">
        <ele>3589.913</ele>
        <time>2022-12-18T11:39:49Z</time>
      </trkpt>
      <trkpt lat="2.00854" lon="-76.716269">
        <ele>3589.714</ele>
        <time>2022-12-18T11:39:51Z</time>
      </trkpt>
      <trkpt lat="2.008528" lon="-76.716337">
        <ele>3589.809</ele>
        <time>2022-12-18T11:39:54Z</time>
      </trkpt>
      <trkpt lat="2.008524" lon="-76.716402">
        <ele>3589.728</ele>
        <time>2022-12-18T11:39:57Z</time>
      </trkpt>
      <trkpt lat="2.008533" lon="-76.716452">
        <ele>3589.239</ele>
        <time>2022-12-18T11:39:59Z</time>
      </trkpt>
      <trkpt lat="2.008531" lon="-76.71652">
        <ele>3587.598</ele>
        <time>2022-12-18T11:40:01Z</time>
      </trkpt>
      <trkpt lat="2.008526" lon="-76.716587">
        <ele>3587.312</ele>
        <time>2022-12-18T11:40:03Z</time>
      </trkpt>
      <trkpt lat="2.008534" lon="-76.716639">
        <ele>3586.910</ele>
        <time>2022-12-18T11:40:05Z</time>
      </trkpt>
      <trkpt lat="2.00855" lon="-76.71669">
        <ele>3587.041</ele>
        <time>2022-12-18T11:40:07Z</time>
      </trkpt>
      <trkpt lat="2.008556" lon="-76.716744">
        <ele>3587.067</ele>
        <time>2022-12-18T11:40:09Z</time>
      </trkpt>
      <trkpt lat="2.008574" lon="-76.716805">
        <ele>3587.154</ele>
        <time>2022-12-18T11:40:11Z</time>
      </trkpt>
      <trkpt lat="2.008586" lon="-76.716867">
        <ele>3587.299</ele>
        <time>2022-12-18T11:40:13Z</time>
      </trkpt>
      <trkpt lat="2.008596" lon="-76.716922">
        <ele>3587.359</ele>
        <time>2022-12-18T11:40:15Z</time>
      </trkpt>
      <trkpt lat="2.008627" lon="-76.716983">
        <ele>3587.403</ele>
        <time>2022-12-18T11:40:18Z</time>
      </trkpt>
      <trkpt lat="2.008661" lon="-76.717031">
        <ele>3587.423</ele>
        <time>2022-12-18T11:40:20Z</time>
      </trkpt>
      <trkpt lat="2.008697" lon="-76.717076">
        <ele>3587.409</ele>
        <time>2022-12-18T11:40:22Z</time>
      </trkpt>
      <trkpt lat="2.008723" lon="-76.71712">
        <ele>3586.866</ele>
        <time>2022-12-18T11:40:24Z</time>
      </trkpt>
      <trkpt lat="2.008757" lon="-76.717153">
        <ele>3586.817</ele>
        <time>2022-12-18T11:40:26Z</time>
      </trkpt>
      <trkpt lat="2.008804" lon="-76.717196">
        <ele>3587.156</ele>
        <time>2022-12-18T11:40:29Z</time>
      </trkpt>
      <trkpt lat="2.008889" lon="-76.717284">
        <ele>3587.290</ele>
        <time>2022-12-18T11:40:34Z</time>
      </trkpt>
      <trkpt lat="2.008948" lon="-76.717294">
        <ele>3587.768</ele>
        <time>2022-12-18T11:40:37Z</time>
      </trkpt>
      <trkpt lat="2.008998" lon="-76.717318">
        <ele>3587.799</ele>
        <time>2022-12-18T11:40:39Z</time>
      </trkpt>
      <trkpt lat="2.009028" lon="-76.717368">
        <ele>3588.175</ele>
        <time>2022-12-18T11:40:42Z</time>
      </trkpt>
      <trkpt lat="2.009049" lon="-76.717422">
        <ele>3588.252</ele>
        <time>2022-12-18T11:40:44Z</time>
      </trkpt>
      <trkpt lat="2.009088" lon="-76.717469">
        <ele>3588.317</ele>
        <time>2022-12-18T11:40:47Z</time>
      </trkpt>
      <trkpt lat="2.009139" lon="-76.717505">
        <ele>3588.643</ele>
        <time>2022-12-18T11:40:51Z</time>
      </trkpt>
      <trkpt lat="2.009197" lon="-76.717544">
        <ele>3588.564</ele>
        <time>2022-12-18T11:40:54Z</time>
      </trkpt>
      <trkpt lat="2.009236" lon="-76.717577">
        <ele>3588.110</ele>
        <time>2022-12-18T11:40:57Z</time>
      </trkpt>
      <trkpt lat="2.009302" lon="-76.717596">
        <ele>3586.909</ele>
        <time>2022-12-18T11:41:00Z</time>
      </trkpt>
      <trkpt lat="2.009355" lon="-76.717608">
        <ele>3585.735</ele>
        <time>2022-12-18T11:41:02Z</time>
      </trkpt>
      <trkpt lat="2.009423" lon="-76.717626">
        <ele>3585.316</ele>
        <time>2022-12-18T11:41:03Z</time>
      </trkpt>
      <trkpt lat="2.009494" lon="-76.717659">
        <ele>3584.165</ele>
        <time>2022-12-18T11:41:05Z</time>
      </trkpt>
      <trkpt lat="2.009536" lon="-76.717677">
        <ele>3583.699</ele>
        <time>2022-12-18T11:41:07Z</time>
      </trkpt>
      <trkpt lat="2.00958" lon="-76.717691">
        <ele>3583.827</ele>
        <time>2022-12-18T11:41:31Z</time>
      </trkpt>
      <trkpt lat="2.009835" lon="-76.717683">
        <ele>3584.478</ele>
        <time>2022-12-18T11:41:37Z</time>
      </trkpt>
      <trkpt lat="2.010278" lon="-76.717602">
        <ele>3586.954</ele>
        <time>2022-12-18T11:41:39Z</time>
      </trkpt>
      <trkpt lat="2.010339" lon="-76.717584">
        <ele>3587.091</ele>
        <time>2022-12-18T11:41:40Z</time>
      </trkpt>
      <trkpt lat="2.010404" lon="-76.717564">
        <ele>3587.196</ele>
        <time>2022-12-18T11:41:42Z</time>
      </trkpt>
      <trkpt lat="2.010472" lon="-76.717548">
        <ele>3586.821</ele>
        <time>2022-12-18T11:41:45Z</time>
      </trkpt>
      <trkpt lat="2.010525" lon="-76.717522">
        <ele>3586.641</ele>
        <time>2022-12-18T11:41:47Z</time>
      </trkpt>
      <trkpt lat="2.010574" lon="-76.717503">
        <ele>3586.105</ele>
        <time>2022-12-18T11:41:49Z</time>
      </trkpt>
      <trkpt lat="2.01063" lon="-76.717471">
        <ele>3586.009</ele>
        <time>2022-12-18T11:41:52Z</time>
      </trkpt>
      <trkpt lat="2.010673" lon="-76.717456">
        <ele>3586.063</ele>
        <time>2022-12-18T11:41:54Z</time>
      </trkpt>
      <trkpt lat="2.010714" lon="-76.717436">
        <ele>3586.184</ele>
        <time>2022-12-18T11:41:56Z</time>
      </trkpt>
      <trkpt lat="2.010758" lon="-76.717406">
        <ele>3586.933</ele>
        <time>2022-12-18T11:41:59Z</time>
      </trkpt>
      <trkpt lat="2.010802" lon="-76.71739">
        <ele>3587.547</ele>
        <time>2022-12-18T11:42:01Z</time>
      </trkpt>
      <trkpt lat="2.01087" lon="-76.717373">
        <ele>3587.865</ele>
        <time>2022-12-18T11:42:08Z</time>
      </trkpt>
      <trkpt lat="2.010946" lon="-76.717384">
        <ele>3587.876</ele>
        <time>2022-12-18T11:42:10Z</time>
      </trkpt>
      <trkpt lat="2.010994" lon="-76.717406">
        <ele>3587.882</ele>
        <time>2022-12-18T11:42:13Z</time>
      </trkpt>
      <trkpt lat="2.011042" lon="-76.717435">
        <ele>3587.569</ele>
        <time>2022-12-18T11:42:17Z</time>
      </trkpt>
      <trkpt lat="2.011085" lon="-76.717453">
        <ele>3587.524</ele>
        <time>2022-12-18T11:42:20Z</time>
      </trkpt>
      <trkpt lat="2.011129" lon="-76.717474">
        <ele>3587.693</ele>
        <time>2022-12-18T11:42:24Z</time>
      </trkpt>
      <trkpt lat="2.011186" lon="-76.717486">
        <ele>3587.965</ele>
        <time>2022-12-18T11:42:28Z</time>
      </trkpt>
      <trkpt lat="2.011239" lon="-76.71751">
        <ele>3588.621</ele>
        <time>2022-12-18T11:42:32Z</time>
      </trkpt>
      <trkpt lat="2.011291" lon="-76.717518">
        <ele>3590.309</ele>
        <time>2022-12-18T11:42:36Z</time>
      </trkpt>
      <trkpt lat="2.011337" lon="-76.71754">
        <ele>3590.850</ele>
        <time>2022-12-18T11:42:39Z</time>
      </trkpt>
      <trkpt lat="2.011372" lon="-76.717573">
        <ele>3591.741</ele>
        <time>2022-12-18T11:42:42Z</time>
      </trkpt>
      <trkpt lat="2.011403" lon="-76.717612">
        <ele>3592.760</ele>
        <time>2022-12-18T11:42:45Z</time>
      </trkpt>
      <trkpt lat="2.011423" lon="-76.717658">
        <ele>3593.464</ele>
        <time>2022-12-18T11:42:49Z</time>
      </trkpt>
      <trkpt lat="2.01144" lon="-76.717704">
        <ele>3594.952</ele>
        <time>2022-12-18T11:42:52Z</time>
      </trkpt>
      <trkpt lat="2.011473" lon="-76.717755">
        <ele>3595.833</ele>
        <time>2022-12-18T11:42:56Z</time>
      </trkpt>
      <trkpt lat="2.011504" lon="-76.717799">
        <ele>3595.939</ele>
        <time>2022-12-18T11:43:00Z</time>
      </trkpt>
      <trkpt lat="2.011534" lon="-76.717833">
        <ele>3595.916</ele>
        <time>2022-12-18T11:43:03Z</time>
      </trkpt>
      <trkpt lat="2.011567" lon="-76.717877">
        <ele>3596.081</ele>
        <time>2022-12-18T11:43:07Z</time>
      </trkpt>
      <trkpt lat="2.011604" lon="-76.717912">
        <ele>3596.351</ele>
        <time>2022-12-18T11:43:11Z</time>
      </trkpt>
      <trkpt lat="2.01164" lon="-76.717954">
        <ele>3597.401</ele>
        <time>2022-12-18T11:43:16Z</time>
      </trkpt>
      <trkpt lat="2.011672" lon="-76.717993">
        <ele>3598.311</ele>
        <time>2022-12-18T11:43:19Z</time>
      </trkpt>
      <trkpt lat="2.011706" lon="-76.718033">
        <ele>3599.109</ele>
        <time>2022-12-18T11:43:21Z</time>
      </trkpt>
      <trkpt lat="2.011747" lon="-76.718062">
        <ele>3599.246</ele>
        <time>2022-12-18T11:43:23Z</time>
      </trkpt>
      <trkpt lat="2.011792" lon="-76.718078">
        <ele>3599.787</ele>
        <time>2022-12-18T11:43:26Z</time>
      </trkpt>
      <trkpt lat="2.011839" lon="-76.71809">
        <ele>3600.026</ele>
        <time>2022-12-18T11:43:29Z</time>
      </trkpt>
      <trkpt lat="2.011905" lon="-76.718086">
        <ele>3599.870</ele>
        <time>2022-12-18T11:43:32Z</time>
      </trkpt>
      <trkpt lat="2.011954" lon="-76.718083">
        <ele>3599.638</ele>
        <time>2022-12-18T11:43:35Z</time>
      </trkpt>
      <trkpt lat="2.01201" lon="-76.718101">
        <ele>3599.839</ele>
        <time>2022-12-18T11:43:38Z</time>
      </trkpt>
      <trkpt lat="2.012058" lon="-76.71813">
        <ele>3599.895</ele>
        <time>2022-12-18T11:43:41Z</time>
      </trkpt>
      <trkpt lat="2.012103" lon="-76.718168">
        <ele>3599.932</ele>
        <time>2022-12-18T11:43:44Z</time>
      </trkpt>
      <trkpt lat="2.012155" lon="-76.718207">
        <ele>3600.227</ele>
        <time>2022-12-18T11:43:47Z</time>
      </trkpt>
      <trkpt lat="2.012196" lon="-76.718243">
        <ele>3600.036</ele>
        <time>2022-12-18T11:43:49Z</time>
      </trkpt>
      <trkpt lat="2.012246" lon="-76.718275">
        <ele>3600.217</ele>
        <time>2022-12-18T11:43:51Z</time>
      </trkpt>
      <trkpt lat="2.012332" lon="-76.71833">
        <ele>3600.318</ele>
        <time>2022-12-18T11:43:57Z</time>
      </trkpt>
      <trkpt lat="2.012387" lon="-76.718372">
        <ele>3600.009</ele>
        <time>2022-12-18T11:43:59Z</time>
      </trkpt>
      <trkpt lat="2.012442" lon="-76.718408">
        <ele>3600.494</ele>
        <time>2022-12-18T11:44:02Z</time>
      </trkpt>
      <trkpt lat="2.012497" lon="-76.718444">
        <ele>3600.515</ele>
        <time>2022-12-18T11:44:05Z</time>
      </trkpt>
      <trkpt lat="2.012549" lon="-76.71847">
        <ele>3600.424</ele>
        <time>2022-12-18T11:44:08Z</time>
      </trkpt>
      <trkpt lat="2.0126" lon="-76.718493">
        <ele>3600.728</ele>
        <time>2022-12-18T11:44:11Z</time>
      </trkpt>
      <trkpt lat="2.012649" lon="-76.718513">
        <ele>3601.086</ele>
        <time>2022-12-18T11:44:14Z</time>
      </trkpt>
      <trkpt lat="2.012699" lon="-76.718539">
        <ele>3601.067</ele>
        <time>2022-12-18T11:44:17Z</time>
      </trkpt>
      <trkpt lat="2.012746" lon="-76.718553">
        <ele>3601.313</ele>
        <time>2022-12-18T11:44:20Z</time>
      </trkpt>
      <trkpt lat="2.012802" lon="-76.718561">
        <ele>3601.580</ele>
        <time>2022-12-18T11:44:23Z</time>
      </trkpt>
      <trkpt lat="2.012859" lon="-76.718547">
        <ele>3602.395</ele>
        <time>2022-12-18T11:44:27Z</time>
      </trkpt>
      <trkpt lat="2.012895" lon="-76.718519">
        <ele>3604.187</ele>
        <time>2022-12-18T11:44:32Z</time>
      </trkpt>
      <trkpt lat="2.012941" lon="-76.718506">
        <ele>3607.042</ele>
        <time>2022-12-18T11:45:41Z</time>
      </trkpt>
      <trkpt lat="2.012989" lon="-76.718485">
        <ele>3607.126</ele>
        <time>2022-12-18T11:45:44Z</time>
      </trkpt>
      <trkpt lat="2.013043" lon="-76.718466">
        <ele>3607.109</ele>
        <time>2022-12-18T11:45:48Z</time>
      </trkpt>
      <trkpt lat="2.01309" lon="-76.718446">
        <ele>3606.959</ele>
        <time>2022-12-18T11:45:52Z</time>
      </trkpt>
      <trkpt lat="2.013142" lon="-76.71843">
        <ele>3606.550</ele>
        <time>2022-12-18T11:45:56Z</time>
      </trkpt>
      <trkpt lat="2.013191" lon="-76.718429">
        <ele>3607.059</ele>
        <time>2022-12-18T11:46:00Z</time>
      </trkpt>
      <trkpt lat="2.013237" lon="-76.718429">
        <ele>3607.093</ele>
        <time>2022-12-18T11:46:04Z</time>
      </trkpt>
      <trkpt lat="2.013286" lon="-76.718417">
        <ele>3607.061</ele>
        <time>2022-12-18T11:46:08Z</time>
      </trkpt>
      <trkpt lat="2.013336" lon="-76.718387">
        <ele>3606.862</ele>
        <time>2022-12-18T11:46:12Z</time>
      </trkpt>
      <trkpt lat="2.013382" lon="-76.718358">
        <ele>3606.328</ele>
        <time>2022-12-18T11:46:16Z</time>
      </trkpt>
      <trkpt lat="2.013424" lon="-76.71838">
        <ele>3606.135</ele>
        <time>2022-12-18T11:46:20Z</time>
      </trkpt>
      <trkpt lat="2.013449" lon="-76.718433">
        <ele>3605.810</ele>
        <time>2022-12-18T11:46:24Z</time>
      </trkpt>
      <trkpt lat="2.013483" lon="-76.718393">
        <ele>3605.983</ele>
        <time>2022-12-18T11:46:32Z</time>
      </trkpt>
      <trkpt lat="2.01353" lon="-76.718382">
        <ele>3605.425</ele>
        <time>2022-12-18T11:46:36Z</time>
      </trkpt>
      <trkpt lat="2.013501" lon="-76.718339">
        <ele>3606.117</ele>
        <time>2022-12-18T11:46:47Z</time>
      </trkpt>
      <trkpt lat="2.013536" lon="-76.718304">
        <ele>3605.909</ele>
        <time>2022-12-18T11:46:53Z</time>
      </trkpt>
      <trkpt lat="2.013577" lon="-76.71828">
        <ele>3605.619</ele>
        <time>2022-12-18T11:46:58Z</time>
      </trkpt>
      <trkpt lat="2.013534" lon="-76.718308">
        <ele>3605.010</ele>
        <time>2022-12-18T11:47:07Z</time>
      </trkpt>
      <trkpt lat="2.013526" lon="-76.718363">
        <ele>3603.859</ele>
        <time>2022-12-18T11:47:13Z</time>
      </trkpt>
      <trkpt lat="2.013475" lon="-76.718386">
        <ele>3603.853</ele>
        <time>2022-12-18T11:47:18Z</time>
      </trkpt>
      <trkpt lat="2.013419" lon="-76.718383">
        <ele>3603.711</ele>
        <time>2022-12-18T11:47:23Z</time>
      </trkpt>
      <trkpt lat="2.013385" lon="-76.718343">
        <ele>3604.432</ele>
        <time>2022-12-18T11:47:27Z</time>
      </trkpt>
      <trkpt lat="2.013341" lon="-76.718365">
        <ele>3604.558</ele>
        <time>2022-12-18T11:47:31Z</time>
      </trkpt>
      <trkpt lat="2.013295" lon="-76.718389">
        <ele>3604.655</ele>
        <time>2022-12-18T11:47:35Z</time>
      </trkpt>
      <trkpt lat="2.013239" lon="-76.718382">
        <ele>3604.590</ele>
        <time>2022-12-18T11:47:41Z</time>
      </trkpt>
      <trkpt lat="2.013188" lon="-76.718381">
        <ele>3604.348</ele>
        <time>2022-12-18T11:47:44Z</time>
      </trkpt>
      <trkpt lat="2.013135" lon="-76.718383">
        <ele>3602.861</ele>
        <time>2022-12-18T11:47:48Z</time>
      </trkpt>
      <trkpt lat="2.013082" lon="-76.718399">
        <ele>3602.317</ele>
        <time>2022-12-18T11:47:52Z</time>
      </trkpt>
      <trkpt lat="2.013041" lon="-76.718424">
        <ele>3601.609</ele>
        <time>2022-12-18T11:47:56Z</time>
      </trkpt>
      <trkpt lat="2.012991" lon="-76.718441">
        <ele>3601.025</ele>
        <time>2022-12-18T11:48:01Z</time>
      </trkpt>
      <trkpt lat="2.012944" lon="-76.718459">
        <ele>3600.566</ele>
        <time>2022-12-18T11:48:06Z</time>
      </trkpt>
      <trkpt lat="2.012901" lon="-76.718474">
        <ele>3599.515</ele>
        <time>2022-12-18T11:48:10Z</time>
      </trkpt>
      <trkpt lat="2.01286" lon="-76.718494">
        <ele>3599.029</ele>
        <time>2022-12-18T11:48:17Z</time>
      </trkpt>
      <trkpt lat="2.012899" lon="-76.71853">
        <ele>3599.087</ele>
        <time>2022-12-18T11:48:55Z</time>
      </trkpt>
      <trkpt lat="2.012949" lon="-76.718515">
        <ele>3599.788</ele>
        <time>2022-12-18T11:49:24Z</time>
      </trkpt>
      <trkpt lat="2.013004" lon="-76.718535">
        <ele>3599.934</ele>
        <time>2022-12-18T11:49:27Z</time>
      </trkpt>
      <trkpt lat="2.013063" lon="-76.718567">
        <ele>3600.931</ele>
        <time>2022-12-18T11:49:30Z</time>
      </trkpt>
      <trkpt lat="2.013129" lon="-76.7186">
        <ele>3601.656</ele>
        <time>2022-12-18T11:49:36Z</time>
      </trkpt>
      <trkpt lat="2.013248" lon="-76.718624">
        <ele>3600.262</ele>
        <time>2022-12-18T11:49:38Z</time>
      </trkpt>
      <trkpt lat="2.013301" lon="-76.718642">
        <ele>3600.883</ele>
        <time>2022-12-18T11:49:41Z</time>
      </trkpt>
      <trkpt lat="2.01335" lon="-76.71866">
        <ele>3601.111</ele>
        <time>2022-12-18T11:49:45Z</time>
      </trkpt>
      <trkpt lat="2.013402" lon="-76.71868">
        <ele>3601.109</ele>
        <time>2022-12-18T11:49:48Z</time>
      </trkpt>
      <trkpt lat="2.013452" lon="-76.718684">
        <ele>3600.847</ele>
        <time>2022-12-18T11:49:54Z</time>
      </trkpt>
      <trkpt lat="2.013495" lon="-76.718706">
        <ele>3600.618</ele>
        <time>2022-12-18T11:49:58Z</time>
      </trkpt>
      <trkpt lat="2.013538" lon="-76.718725">
        <ele>3598.997</ele>
        <time>2022-12-18T11:50:03Z</time>
      </trkpt>
      <trkpt lat="2.013588" lon="-76.718739">
        <ele>3598.241</ele>
        <time>2022-12-18T11:50:09Z</time>
      </trkpt>
      <trkpt lat="2.013635" lon="-76.718778">
        <ele>3598.159</ele>
        <time>2022-12-18T11:50:20Z</time>
      </trkpt>
      <trkpt lat="2.013677" lon="-76.718798">
        <ele>3597.880</ele>
        <time>2022-12-18T11:50:24Z</time>
      </trkpt>
      <trkpt lat="2.013732" lon="-76.718809">
        <ele>3597.896</ele>
        <time>2022-12-18T11:50:30Z</time>
      </trkpt>
      <trkpt lat="2.013779" lon="-76.718817">
        <ele>3597.483</ele>
        <time>2022-12-18T11:50:35Z</time>
      </trkpt>
      <trkpt lat="2.013819" lon="-76.71885">
        <ele>3594.798</ele>
        <time>2022-12-18T11:50:56Z</time>
      </trkpt>
      <trkpt lat="2.013874" lon="-76.71886">
        <ele>3594.239</ele>
        <time>2022-12-18T11:51:00Z</time>
      </trkpt>
      <trkpt lat="2.013926" lon="-76.718862">
        <ele>3594.001</ele>
        <time>2022-12-18T11:51:04Z</time>
      </trkpt>
      <trkpt lat="2.013977" lon="-76.71886">
        <ele>3592.921</ele>
        <time>2022-12-18T11:51:15Z</time>
      </trkpt>
      <trkpt lat="2.014036" lon="-76.718862">
        <ele>3589.209</ele>
        <time>2022-12-18T11:51:21Z</time>
      </trkpt>
      <trkpt lat="2.014088" lon="-76.718863">
        <ele>3589.044</ele>
        <time>2022-12-18T11:51:27Z</time>
      </trkpt>
      <trkpt lat="2.014144" lon="-76.718874">
        <ele>3588.785</ele>
        <time>2022-12-18T11:51:31Z</time>
      </trkpt>
      <trkpt lat="2.014189" lon="-76.718901">
        <ele>3583.814</ele>
        <time>2022-12-18T11:51:50Z</time>
      </trkpt>
      <trkpt lat="2.014225" lon="-76.718935">
        <ele>3582.648</ele>
        <time>2022-12-18T11:51:55Z</time>
      </trkpt>
      <trkpt lat="2.014271" lon="-76.718939">
        <ele>3582.116</ele>
        <time>2022-12-18T11:52:02Z</time>
      </trkpt>
      <trkpt lat="2.014318" lon="-76.718951">
        <ele>3581.377</ele>
        <time>2022-12-18T11:52:06Z</time>
      </trkpt>
      <trkpt lat="2.014362" lon="-76.718968">
        <ele>3579.683</ele>
        <time>2022-12-18T11:52:11Z</time>
      </trkpt>
      <trkpt lat="2.014408" lon="-76.718972">
        <ele>3579.190</ele>
        <time>2022-12-18T11:52:15Z</time>
      </trkpt>
      <trkpt lat="2.014455" lon="-76.718955">
        <ele>3577.245</ele>
        <time>2022-12-18T11:52:22Z</time>
      </trkpt>
      <trkpt lat="2.01451" lon="-76.718945">
        <ele>3575.272</ele>
        <time>2022-12-18T11:52:27Z</time>
      </trkpt>
      <trkpt lat="2.01455" lon="-76.718912">
        <ele>3573.013</ele>
        <time>2022-12-18T11:52:33Z</time>
      </trkpt>
      <trkpt lat="2.014585" lon="-76.718881">
        <ele>3571.914</ele>
        <time>2022-12-18T11:52:42Z</time>
      </trkpt>
      <trkpt lat="2.014623" lon="-76.718907">
        <ele>3572.609</ele>
        <time>2022-12-18T11:53:48Z</time>
      </trkpt>
      <trkpt lat="2.014679" lon="-76.718918">
        <ele>3572.698</ele>
        <time>2022-12-18T11:53:52Z</time>
      </trkpt>
      <trkpt lat="2.014732" lon="-76.718945">
        <ele>3572.649</ele>
        <time>2022-12-18T11:53:57Z</time>
      </trkpt>
      <trkpt lat="2.014775" lon="-76.718971">
        <ele>3572.728</ele>
        <time>2022-12-18T11:54:01Z</time>
      </trkpt>
      <trkpt lat="2.014815" lon="-76.718992">
        <ele>3572.742</ele>
        <time>2022-12-18T11:54:05Z</time>
      </trkpt>
      <trkpt lat="2.014872" lon="-76.718987">
        <ele>3575.550</ele>
        <time>2022-12-18T11:54:10Z</time>
      </trkpt>
      <trkpt lat="2.014917" lon="-76.718985">
        <ele>3576.371</ele>
        <time>2022-12-18T11:54:14Z</time>
      </trkpt>
      <trkpt lat="2.014965" lon="-76.718993">
        <ele>3577.377</ele>
        <time>2022-12-18T11:54:18Z</time>
      </trkpt>
      <trkpt lat="2.015013" lon="-76.718987">
        <ele>3579.094</ele>
        <time>2022-12-18T11:54:23Z</time>
      </trkpt>
      <trkpt lat="2.015067" lon="-76.71897">
        <ele>3580.979</ele>
        <time>2022-12-18T11:54:27Z</time>
      </trkpt>
      <trkpt lat="2.015119" lon="-76.718981">
        <ele>3581.541</ele>
        <time>2022-12-18T11:54:32Z</time>
      </trkpt>
      <trkpt lat="2.015166" lon="-76.718987">
        <ele>3582.081</ele>
        <time>2022-12-18T11:54:36Z</time>
      </trkpt>
      <trkpt lat="2.015211" lon="-76.718991">
        <ele>3582.309</ele>
        <time>2022-12-18T11:54:39Z</time>
      </trkpt>
      <trkpt lat="2.015262" lon="-76.71901">
        <ele>3583.509</ele>
        <time>2022-12-18T11:54:47Z</time>
      </trkpt>
      <trkpt lat="2.015319" lon="-76.719027">
        <ele>3583.995</ele>
        <time>2022-12-18T11:54:50Z</time>
      </trkpt>
      <trkpt lat="2.015359" lon="-76.719052">
        <ele>3584.126</ele>
        <time>2022-12-18T11:54:53Z</time>
      </trkpt>
      <trkpt lat="2.01539" lon="-76.719093">
        <ele>3584.295</ele>
        <time>2022-12-18T11:54:57Z</time>
      </trkpt>
      <trkpt lat="2.015416" lon="-76.719143">
        <ele>3584.299</ele>
        <time>2022-12-18T11:55:01Z</time>
      </trkpt>
      <trkpt lat="2.015429" lon="-76.7192">
        <ele>3584.277</ele>
        <time>2022-12-18T11:55:04Z</time>
      </trkpt>
      <trkpt lat="2.015441" lon="-76.719263">
        <ele>3583.798</ele>
        <time>2022-12-18T11:55:07Z</time>
      </trkpt>
      <trkpt lat="2.015451" lon="-76.719319">
        <ele>3582.144</ele>
        <time>2022-12-18T11:55:10Z</time>
      </trkpt>
      <trkpt lat="2.01546" lon="-76.719366">
        <ele>3581.511</ele>
        <time>2022-12-18T11:55:12Z</time>
      </trkpt>
      <trkpt lat="2.015497" lon="-76.719432">
        <ele>3580.576</ele>
        <time>2022-12-18T11:55:14Z</time>
      </trkpt>
      <trkpt lat="2.01551" lon="-76.719489">
        <ele>3579.945</ele>
        <time>2022-12-18T11:55:16Z</time>
      </trkpt>
      <trkpt lat="2.015495" lon="-76.719539">
        <ele>3576.847</ele>
        <time>2022-12-18T11:55:19Z</time>
      </trkpt>
      <trkpt lat="2.015504" lon="-76.71959">
        <ele>3576.611</ele>
        <time>2022-12-18T11:55:23Z</time>
      </trkpt>
      <trkpt lat="2.015518" lon="-76.71964">
        <ele>3576.609</ele>
        <time>2022-12-18T11:55:27Z</time>
      </trkpt>
      <trkpt lat="2.015531" lon="-76.719686">
        <ele>3576.875</ele>
        <time>2022-12-18T11:55:32Z</time>
      </trkpt>
      <trkpt lat="2.015506" lon="-76.719734">
        <ele>3576.426</ele>
        <time>2022-12-18T11:55:50Z</time>
      </trkpt>
      <trkpt lat="2.015495" lon="-76.719778">
        <ele>3575.975</ele>
        <time>2022-12-18T11:55:53Z</time>
      </trkpt>
      <trkpt lat="2.015492" lon="-76.719828">
        <ele>3574.779</ele>
        <time>2022-12-18T11:55:57Z</time>
      </trkpt>
      <trkpt lat="2.01551" lon="-76.719875">
        <ele>3573.667</ele>
        <time>2022-12-18T11:56:05Z</time>
      </trkpt>
      <trkpt lat="2.015521" lon="-76.719923">
        <ele>3573.538</ele>
        <time>2022-12-18T11:56:09Z</time>
      </trkpt>
      <trkpt lat="2.015515" lon="-76.719973">
        <ele>3573.544</ele>
        <time>2022-12-18T11:56:12Z</time>
      </trkpt>
      <trkpt lat="2.015518" lon="-76.720025">
        <ele>3573.721</ele>
        <time>2022-12-18T11:56:16Z</time>
      </trkpt>
      <trkpt lat="2.015516" lon="-76.720088">
        <ele>3574.376</ele>
        <time>2022-12-18T11:56:20Z</time>
      </trkpt>
      <trkpt lat="2.015541" lon="-76.720148">
        <ele>3575.121</ele>
        <time>2022-12-18T11:56:23Z</time>
      </trkpt>
      <trkpt lat="2.015564" lon="-76.720225">
        <ele>3575.441</ele>
        <time>2022-12-18T11:56:29Z</time>
      </trkpt>
      <trkpt lat="2.015581" lon="-76.720271">
        <ele>3575.505</ele>
        <time>2022-12-18T11:56:38Z</time>
      </trkpt>
      <trkpt lat="2.015547" lon="-76.720302">
        <ele>3575.209</ele>
        <time>2022-12-18T11:56:48Z</time>
      </trkpt>
      <trkpt lat="2.015583" lon="-76.720272">
        <ele>3573.993</ele>
        <time>2022-12-18T11:57:09Z</time>
      </trkpt>
      <trkpt lat="2.015567" lon="-76.720318">
        <ele>3573.644</ele>
        <time>2022-12-18T11:57:22Z</time>
      </trkpt>
      <trkpt lat="2.015589" lon="-76.72036">
        <ele>3573.313</ele>
        <time>2022-12-18T11:57:26Z</time>
      </trkpt>
      <trkpt lat="2.015626" lon="-76.720391">
        <ele>3573.017</ele>
        <time>2022-12-18T11:57:32Z</time>
      </trkpt>
      <trkpt lat="2.015653" lon="-76.72043">
        <ele>3572.785</ele>
        <time>2022-12-18T11:57:40Z</time>
      </trkpt>
      <trkpt lat="2.015705" lon="-76.720418">
        <ele>3572.656</ele>
        <time>2022-12-18T11:57:44Z</time>
      </trkpt>
      <trkpt lat="2.015756" lon="-76.720431">
        <ele>3570.732</ele>
        <time>2022-12-18T11:57:55Z</time>
      </trkpt>
      <trkpt lat="2.015809" lon="-76.720433">
        <ele>3569.739</ele>
        <time>2022-12-18T11:58:02Z</time>
      </trkpt>
      <trkpt lat="2.01578" lon="-76.720469">
        <ele>3568.984</ele>
        <time>2022-12-18T11:58:12Z</time>
      </trkpt>
      <trkpt lat="2.015734" lon="-76.72049">
        <ele>3566.868</ele>
        <time>2022-12-18T11:58:19Z</time>
      </trkpt>
      <trkpt lat="2.015768" lon="-76.720532">
        <ele>3562.942</ele>
        <time>2022-12-18T11:58:30Z</time>
      </trkpt>
      <trkpt lat="2.015799" lon="-76.720578">
        <ele>3561.926</ele>
        <time>2022-12-18T11:58:34Z</time>
      </trkpt>
      <trkpt lat="2.015849" lon="-76.720601">
        <ele>3560.509</ele>
        <time>2022-12-18T11:58:37Z</time>
      </trkpt>
      <trkpt lat="2.015893" lon="-76.720624">
        <ele>3559.717</ele>
        <time>2022-12-18T11:58:39Z</time>
      </trkpt>
      <trkpt lat="2.015937" lon="-76.720661">
        <ele>3558.688</ele>
        <time>2022-12-18T11:58:42Z</time>
      </trkpt>
      <trkpt lat="2.015967" lon="-76.720698">
        <ele>3557.827</ele>
        <time>2022-12-18T11:58:45Z</time>
      </trkpt>
      <trkpt lat="2.016008" lon="-76.720738">
        <ele>3557.711</ele>
        <time>2022-12-18T11:58:48Z</time>
      </trkpt>
      <trkpt lat="2.016048" lon="-76.720771">
        <ele>3557.549</ele>
        <time>2022-12-18T11:58:50Z</time>
      </trkpt>
      <trkpt lat="2.01608" lon="-76.720808">
        <ele>3557.410</ele>
        <time>2022-12-18T11:58:53Z</time>
      </trkpt>
      <trkpt lat="2.016105" lon="-76.720849">
        <ele>3554.286</ele>
        <time>2022-12-18T11:58:56Z</time>
      </trkpt>
      <trkpt lat="2.016134" lon="-76.720888">
        <ele>3552.513</ele>
        <time>2022-12-18T11:59:02Z</time>
      </trkpt>
      <trkpt lat="2.016173" lon="-76.720914">
        <ele>3551.518</ele>
        <time>2022-12-18T11:59:18Z</time>
      </trkpt>
      <trkpt lat="2.016214" lon="-76.720969">
        <ele>3551.239</ele>
        <time>2022-12-18T11:59:23Z</time>
      </trkpt>
      <trkpt lat="2.016266" lon="-76.721008">
        <ele>3550.901</ele>
        <time>2022-12-18T11:59:25Z</time>
      </trkpt>
      <trkpt lat="2.01632" lon="-76.721047">
        <ele>3550.821</ele>
        <time>2022-12-18T11:59:27Z</time>
      </trkpt>
      <trkpt lat="2.01636" lon="-76.721086">
        <ele>3550.009</ele>
        <time>2022-12-18T11:59:29Z</time>
      </trkpt>
      <trkpt lat="2.016396" lon="-76.72113">
        <ele>3549.654</ele>
        <time>2022-12-18T11:59:31Z</time>
      </trkpt>
      <trkpt lat="2.016443" lon="-76.721166">
        <ele>3549.995</ele>
        <time>2022-12-18T11:59:35Z</time>
      </trkpt>
      <trkpt lat="2.016473" lon="-76.721207">
        <ele>3549.934</ele>
        <time>2022-12-18T11:59:37Z</time>
      </trkpt>
      <trkpt lat="2.016495" lon="-76.721247">
        <ele>3550.168</ele>
        <time>2022-12-18T11:59:39Z</time>
      </trkpt>
      <trkpt lat="2.016523" lon="-76.721298">
        <ele>3550.016</ele>
        <time>2022-12-18T11:59:42Z</time>
      </trkpt>
      <trkpt lat="2.016554" lon="-76.721356">
        <ele>3549.837</ele>
        <time>2022-12-18T11:59:45Z</time>
      </trkpt>
      <trkpt lat="2.01658" lon="-76.721395">
        <ele>3546.993</ele>
        <time>2022-12-18T11:59:49Z</time>
      </trkpt>
      <trkpt lat="2.016611" lon="-76.721429">
        <ele>3546.350</ele>
        <time>2022-12-18T11:59:53Z</time>
      </trkpt>
      <trkpt lat="2.01666" lon="-76.721463">
        <ele>3546.175</ele>
        <time>2022-12-18T11:59:57Z</time>
      </trkpt>
      <trkpt lat="2.016695" lon="-76.721502">
        <ele>3545.778</ele>
        <time>2022-12-18T12:00:02Z</time>
      </trkpt>
      <trkpt lat="2.016687" lon="-76.721549">
        <ele>3545.233</ele>
        <time>2022-12-18T12:00:09Z</time>
      </trkpt>
      <trkpt lat="2.01665" lon="-76.721578">
        <ele>3543.426</ele>
        <time>2022-12-18T12:00:12Z</time>
      </trkpt>
      <trkpt lat="2.016617" lon="-76.721618">
        <ele>3541.309</ele>
        <time>2022-12-18T12:00:15Z</time>
      </trkpt>
      <trkpt lat="2.016594" lon="-76.721663">
        <ele>3539.068</ele>
        <time>2022-12-18T12:00:18Z</time>
      </trkpt>
      <trkpt lat="2.016605" lon="-76.721741">
        <ele>3538.189</ele>
        <time>2022-12-18T12:00:26Z</time>
      </trkpt>
      <trkpt lat="2.016619" lon="-76.72183">
        <ele>3536.398</ele>
        <time>2022-12-18T12:00:28Z</time>
      </trkpt>
      <trkpt lat="2.016629" lon="-76.721881">
        <ele>3536.072</ele>
        <time>2022-12-18T12:00:30Z</time>
      </trkpt>
      <trkpt lat="2.016649" lon="-76.721937">
        <ele>3536.050</ele>
        <time>2022-12-18T12:00:33Z</time>
      </trkpt>
      <trkpt lat="2.016671" lon="-76.721977">
        <ele>3535.891</ele>
        <time>2022-12-18T12:00:35Z</time>
      </trkpt>
      <trkpt lat="2.016692" lon="-76.722025">
        <ele>3534.167</ele>
        <time>2022-12-18T12:00:37Z</time>
      </trkpt>
      <trkpt lat="2.016685" lon="-76.722077">
        <ele>3530.394</ele>
        <time>2022-12-18T12:00:41Z</time>
      </trkpt>
      <trkpt lat="2.016703" lon="-76.722121">
        <ele>3528.439</ele>
        <time>2022-12-18T12:00:47Z</time>
      </trkpt>
      <trkpt lat="2.016703" lon="-76.72217">
        <ele>3528.089</ele>
        <time>2022-12-18T12:00:52Z</time>
      </trkpt>
      <trkpt lat="2.016743" lon="-76.722193">
        <ele>3528.406</ele>
        <time>2022-12-18T12:01:04Z</time>
      </trkpt>
      <trkpt lat="2.016741" lon="-76.722241">
        <ele>3522.626</ele>
        <time>2022-12-18T12:02:21Z</time>
      </trkpt>
      <trkpt lat="2.016692" lon="-76.72223">
        <ele>3521.609</ele>
        <time>2022-12-18T12:02:33Z</time>
      </trkpt>
      <trkpt lat="2.01668" lon="-76.722278">
        <ele>3521.279</ele>
        <time>2022-12-18T12:02:39Z</time>
      </trkpt>
      <trkpt lat="2.016719" lon="-76.722321">
        <ele>3518.420</ele>
        <time>2022-12-18T12:07:21Z</time>
      </trkpt>
      <trkpt lat="2.016758" lon="-76.72235">
        <ele>3518.079</ele>
        <time>2022-12-18T12:07:23Z</time>
      </trkpt>
      <trkpt lat="2.016834" lon="-76.722381">
        <ele>3517.983</ele>
        <time>2022-12-18T12:07:25Z</time>
      </trkpt>
      <trkpt lat="2.01689" lon="-76.722394">
        <ele>3517.871</ele>
        <time>2022-12-18T12:07:27Z</time>
      </trkpt>
      <trkpt lat="2.016926" lon="-76.722426">
        <ele>3517.862</ele>
        <time>2022-12-18T12:07:30Z</time>
      </trkpt>
      <trkpt lat="2.016881" lon="-76.722435">
        <ele>3502.528</ele>
        <time>2022-12-18T12:07:45Z</time>
      </trkpt>
      <trkpt lat="2.016844" lon="-76.722403">
        <ele>3502.245</ele>
        <time>2022-12-18T12:07:53Z</time>
      </trkpt>
      <trkpt lat="2.016805" lon="-76.722376">
        <ele>3505.870</ele>
        <time>2022-12-18T12:08:11Z</time>
      </trkpt>
      <trkpt lat="2.016759" lon="-76.722376">
        <ele>3509.445</ele>
        <time>2022-12-18T12:08:21Z</time>
      </trkpt>
      <trkpt lat="2.016713" lon="-76.722368">
        <ele>3513.447</ele>
        <time>2022-12-18T12:08:30Z</time>
      </trkpt>
      <trkpt lat="2.016695" lon="-76.722325">
        <ele>3519.611</ele>
        <time>2022-12-18T12:09:04Z</time>
      </trkpt>
      <trkpt lat="2.016727" lon="-76.722281">
        <ele>3520.509</ele>
        <time>2022-12-18T12:09:30Z</time>
      </trkpt>
      <trkpt lat="2.016753" lon="-76.722243">
        <ele>3520.895</ele>
        <time>2022-12-18T12:09:35Z</time>
      </trkpt>
      <trkpt lat="2.016751" lon="-76.722198">
        <ele>3521.386</ele>
        <time>2022-12-18T12:09:45Z</time>
      </trkpt>
      <trkpt lat="2.01675" lon="-76.722152">
        <ele>3521.775</ele>
        <time>2022-12-18T12:09:55Z</time>
      </trkpt>
      <trkpt lat="2.01672" lon="-76.722116">
        <ele>3523.149</ele>
        <time>2022-12-18T12:10:09Z</time>
      </trkpt>
      <trkpt lat="2.016741" lon="-76.722073">
        <ele>3526.757</ele>
        <time>2022-12-18T12:10:25Z</time>
      </trkpt>
      <trkpt lat="2.016734" lon="-76.722027">
        <ele>3526.958</ele>
        <time>2022-12-18T12:10:30Z</time>
      </trkpt>
      <trkpt lat="2.016713" lon="-76.721987">
        <ele>3527.644</ele>
        <time>2022-12-18T12:10:35Z</time>
      </trkpt>
      <trkpt lat="2.016684" lon="-76.721945">
        <ele>3532.561</ele>
        <time>2022-12-18T12:11:27Z</time>
      </trkpt>
      <trkpt lat="2.016639" lon="-76.721936">
        <ele>3532.956</ele>
        <time>2022-12-18T12:13:47Z</time>
      </trkpt>
      <trkpt lat="2.016686" lon="-76.721936">
        <ele>3532.579</ele>
        <time>2022-12-18T12:18:30Z</time>
      </trkpt>
      <trkpt lat="2.016682" lon="-76.721985">
        <ele>3532.305</ele>
        <time>2022-12-18T12:18:44Z</time>
      </trkpt>
      <trkpt lat="2.016698" lon="-76.722028">
        <ele>3531.725</ele>
        <time>2022-12-18T12:18:48Z</time>
      </trkpt>
      <trkpt lat="2.01668" lon="-76.722071">
        <ele>3532.509</ele>
        <time>2022-12-18T12:19:06Z</time>
      </trkpt>
      <trkpt lat="2.016706" lon="-76.722115">
        <ele>3531.128</ele>
        <time>2022-12-18T12:19:13Z</time>
      </trkpt>
      <trkpt lat="2.016725" lon="-76.722158">
        <ele>3528.329</ele>
        <time>2022-12-18T12:19:35Z</time>
      </trkpt>
      <trkpt lat="2.016751" lon="-76.7222">
        <ele>3526.948</ele>
        <time>2022-12-18T12:19:40Z</time>
      </trkpt>
      <trkpt lat="2.016714" lon="-76.722234">
        <ele>3525.052</ele>
        <time>2022-12-18T12:19:52Z</time>
      </trkpt>
      <trkpt lat="2.016667" lon="-76.722235">
        <ele>3524.260</ele>
        <time>2022-12-18T12:19:55Z</time>
      </trkpt>
      <trkpt lat="2.016617" lon="-76.72222">
        <ele>3520.261</ele>
        <time>2022-12-18T12:19:59Z</time>
      </trkpt>
      <trkpt lat="2.016636" lon="-76.722268">
        <ele>3518.117</ele>
        <time>2022-12-18T12:20:04Z</time>
      </trkpt>
      <trkpt lat="2.016675" lon="-76.722319">
        <ele>3517.274</ele>
        <time>2022-12-18T12:20:07Z</time>
      </trkpt>
      <trkpt lat="2.016714" lon="-76.722341">
        <ele>3517.239</ele>
        <time>2022-12-18T12:20:11Z</time>
      </trkpt>
      <trkpt lat="2.016766" lon="-76.722343">
        <ele>3516.373</ele>
        <time>2022-12-18T12:20:41Z</time>
      </trkpt>
      <trkpt lat="2.016783" lon="-76.722395">
        <ele>3515.985</ele>
        <time>2022-12-18T12:20:44Z</time>
      </trkpt>
      <trkpt lat="2.016826" lon="-76.722414">
        <ele>3515.313</ele>
        <time>2022-12-18T12:20:48Z</time>
      </trkpt>
      <trkpt lat="2.01688" lon="-76.722438">
        <ele>3514.809</ele>
        <time>2022-12-18T12:20:52Z</time>
      </trkpt>
      <trkpt lat="2.016918" lon="-76.722471">
        <ele>3513.768</ele>
        <time>2022-12-18T12:20:55Z</time>
      </trkpt>
      <trkpt lat="2.01696" lon="-76.722488">
        <ele>3508.319</ele>
        <time>2022-12-18T12:21:13Z</time>
      </trkpt>
      <trkpt lat="2.017014" lon="-76.722515">
        <ele>3508.118</ele>
        <time>2022-12-18T12:21:26Z</time>
      </trkpt>
      <trkpt lat="2.017083" lon="-76.722508">
        <ele>3508.172</ele>
        <time>2022-12-18T12:21:31Z</time>
      </trkpt>
      <trkpt lat="2.01714" lon="-76.722525">
        <ele>3508.030</ele>
        <time>2022-12-18T12:21:33Z</time>
      </trkpt>
      <trkpt lat="2.017159" lon="-76.722576">
        <ele>3507.751</ele>
        <time>2022-12-18T12:21:42Z</time>
      </trkpt>
      <trkpt lat="2.017168" lon="-76.722627">
        <ele>3507.627</ele>
        <time>2022-12-18T12:21:47Z</time>
      </trkpt>
      <trkpt lat="2.017144" lon="-76.72267">
        <ele>3505.254</ele>
        <time>2022-12-18T12:21:54Z</time>
      </trkpt>
      <trkpt lat="2.017145" lon="-76.722719">
        <ele>3503.699</ele>
        <time>2022-12-18T12:22:01Z</time>
      </trkpt>
      <trkpt lat="2.017139" lon="-76.722765">
        <ele>3502.479</ele>
        <time>2022-12-18T12:22:08Z</time>
      </trkpt>
      <trkpt lat="2.017159" lon="-76.722817">
        <ele>3500.005</ele>
        <time>2022-12-18T12:22:17Z</time>
      </trkpt>
      <trkpt lat="2.017155" lon="-76.722865">
        <ele>3499.525</ele>
        <time>2022-12-18T12:22:20Z</time>
      </trkpt>
      <trkpt lat="2.017145" lon="-76.72292">
        <ele>3499.009</ele>
        <time>2022-12-18T12:22:23Z</time>
      </trkpt>
      <trkpt lat="2.017143" lon="-76.72297">
        <ele>3498.538</ele>
        <time>2022-12-18T12:22:25Z</time>
      </trkpt>
      <trkpt lat="2.017144" lon="-76.72304">
        <ele>3497.089</ele>
        <time>2022-12-18T12:22:27Z</time>
      </trkpt>
      <trkpt lat="2.017127" lon="-76.723113">
        <ele>3495.018</ele>
        <time>2022-12-18T12:22:29Z</time>
      </trkpt>
      <trkpt lat="2.017112" lon="-76.723156">
        <ele>3495.452</ele>
        <time>2022-12-18T12:22:31Z</time>
      </trkpt>
      <trkpt lat="2.017104" lon="-76.72321">
        <ele>3496.510</ele>
        <time>2022-12-18T12:22:35Z</time>
      </trkpt>
      <trkpt lat="2.017107" lon="-76.723256">
        <ele>3496.861</ele>
        <time>2022-12-18T12:22:37Z</time>
      </trkpt>
      <trkpt lat="2.017119" lon="-76.723319">
        <ele>3497.177</ele>
        <time>2022-12-18T12:22:40Z</time>
      </trkpt>
      <trkpt lat="2.017121" lon="-76.723377">
        <ele>3496.814</ele>
        <time>2022-12-18T12:22:43Z</time>
      </trkpt>
      <trkpt lat="2.017129" lon="-76.723424">
        <ele>3496.419</ele>
        <time>2022-12-18T12:22:45Z</time>
      </trkpt>
      <trkpt lat="2.017158" lon="-76.723507">
        <ele>3495.798</ele>
        <time>2022-12-18T12:22:50Z</time>
      </trkpt>
      <trkpt lat="2.017131" lon="-76.723558">
        <ele>3495.315</ele>
        <time>2022-12-18T12:22:52Z</time>
      </trkpt>
      <trkpt lat="2.017127" lon="-76.723618">
        <ele>3496.226</ele>
        <time>2022-12-18T12:23:04Z</time>
      </trkpt>
      <trkpt lat="2.017077" lon="-76.723658">
        <ele>3496.209</ele>
        <time>2022-12-18T12:23:06Z</time>
      </trkpt>
      <trkpt lat="2.017056" lon="-76.723703">
        <ele>3496.190</ele>
        <time>2022-12-18T12:23:09Z</time>
      </trkpt>
      <trkpt lat="2.017056" lon="-76.723757">
        <ele>3496.181</ele>
        <time>2022-12-18T12:23:14Z</time>
      </trkpt>
      <trkpt lat="2.017059" lon="-76.723819">
        <ele>3496.190</ele>
        <time>2022-12-18T12:23:20Z</time>
      </trkpt>
      <trkpt lat="2.017038" lon="-76.723862">
        <ele>3501.414</ele>
        <time>2022-12-18T12:23:24Z</time>
      </trkpt>
      <trkpt lat="2.017081" lon="-76.72388">
        <ele>3502.692</ele>
        <time>2022-12-18T12:23:33Z</time>
      </trkpt>
      <trkpt lat="2.017131" lon="-76.723901">
        <ele>3503.383</ele>
        <time>2022-12-18T12:23:39Z</time>
      </trkpt>
      <trkpt lat="2.017168" lon="-76.723936">
        <ele>3504.359</ele>
        <time>2022-12-18T12:23:45Z</time>
      </trkpt>
      <trkpt lat="2.017209" lon="-76.723958">
        <ele>3505.766</ele>
        <time>2022-12-18T12:23:55Z</time>
      </trkpt>
      <trkpt lat="2.017257" lon="-76.723972">
        <ele>3507.591</ele>
        <time>2022-12-18T12:24:03Z</time>
      </trkpt>
      <trkpt lat="2.017278" lon="-76.724014">
        <ele>3508.662</ele>
        <time>2022-12-18T12:24:09Z</time>
      </trkpt>
      <trkpt lat="2.017284" lon="-76.724064">
        <ele>3509.483</ele>
        <time>2022-12-18T12:24:19Z</time>
      </trkpt>
      <trkpt lat="2.017268" lon="-76.724108">
        <ele>3509.911</ele>
        <time>2022-12-18T12:24:25Z</time>
      </trkpt>
      <trkpt lat="2.017292" lon="-76.724147">
        <ele>3511.909</ele>
        <time>2022-12-18T12:24:30Z</time>
      </trkpt>
      <trkpt lat="2.017322" lon="-76.724181">
        <ele>3512.187</ele>
        <time>2022-12-18T12:24:35Z</time>
      </trkpt>
      <trkpt lat="2.017369" lon="-76.724195">
        <ele>3513.558</ele>
        <time>2022-12-18T12:24:47Z</time>
      </trkpt>
      <trkpt lat="2.017414" lon="-76.72422">
        <ele>3514.077</ele>
        <time>2022-12-18T12:24:52Z</time>
      </trkpt>
      <trkpt lat="2.017453" lon="-76.724243">
        <ele>3514.261</ele>
        <time>2022-12-18T12:24:57Z</time>
      </trkpt>
      <trkpt lat="2.017466" lon="-76.724294">
        <ele>3516.149</ele>
        <time>2022-12-18T12:25:20Z</time>
      </trkpt>
      <trkpt lat="2.017464" lon="-76.724339">
        <ele>3516.240</ele>
        <time>2022-12-18T12:25:23Z</time>
      </trkpt>
      <trkpt lat="2.017475" lon="-76.724386">
        <ele>3516.216</ele>
        <time>2022-12-18T12:25:29Z</time>
      </trkpt>
      <trkpt lat="2.017477" lon="-76.724445">
        <ele>3516.053</ele>
        <time>2022-12-18T12:25:39Z</time>
      </trkpt>
      <trkpt lat="2.017475" lon="-76.724492">
        <ele>3515.538</ele>
        <time>2022-12-18T12:25:43Z</time>
      </trkpt>
      <trkpt lat="2.017477" lon="-76.724546">
        <ele>3514.466</ele>
        <time>2022-12-18T12:25:48Z</time>
      </trkpt>
      <trkpt lat="2.017496" lon="-76.724591">
        <ele>3513.729</ele>
        <time>2022-12-18T12:26:05Z</time>
      </trkpt>
      <trkpt lat="2.017506" lon="-76.724638">
        <ele>3513.221</ele>
        <time>2022-12-18T12:26:08Z</time>
      </trkpt>
      <trkpt lat="2.017512" lon="-76.724692">
        <ele>3510.609</ele>
        <time>2022-12-18T12:26:13Z</time>
      </trkpt>
      <trkpt lat="2.017514" lon="-76.724743">
        <ele>3509.717</ele>
        <time>2022-12-18T12:26:23Z</time>
      </trkpt>
      <trkpt lat="2.017519" lon="-76.724795">
        <ele>3508.878</ele>
        <time>2022-12-18T12:26:30Z</time>
      </trkpt>
      <trkpt lat="2.017515" lon="-76.72484">
        <ele>3508.067</ele>
        <time>2022-12-18T12:26:35Z</time>
      </trkpt>
      <trkpt lat="2.017511" lon="-76.724889">
        <ele>3507.821</ele>
        <time>2022-12-18T12:26:41Z</time>
      </trkpt>
      <trkpt lat="2.017504" lon="-76.724934">
        <ele>3508.069</ele>
        <time>2022-12-18T12:26:47Z</time>
      </trkpt>
      <trkpt lat="2.017486" lon="-76.724977">
        <ele>3508.030</ele>
        <time>2022-12-18T12:26:52Z</time>
      </trkpt>
      <trkpt lat="2.017505" lon="-76.725025">
        <ele>3515.436</ele>
        <time>2022-12-18T12:27:05Z</time>
      </trkpt>
      <trkpt lat="2.017491" lon="-76.725088">
        <ele>3520.523</ele>
        <time>2022-12-18T12:27:17Z</time>
      </trkpt>
      <trkpt lat="2.017508" lon="-76.725131">
        <ele>3523.058</ele>
        <time>2022-12-18T12:27:21Z</time>
      </trkpt>
      <trkpt lat="2.017525" lon="-76.725174">
        <ele>3522.077</ele>
        <time>2022-12-18T12:27:25Z</time>
      </trkpt>
      <trkpt lat="2.017538" lon="-76.725218">
        <ele>3525.661</ele>
        <time>2022-12-18T12:27:30Z</time>
      </trkpt>
      <trkpt lat="2.017523" lon="-76.725264">
        <ele>3528.627</ele>
        <time>2022-12-18T12:27:35Z</time>
      </trkpt>
      <trkpt lat="2.017525" lon="-76.72531">
        <ele>3528.809</ele>
        <time>2022-12-18T12:27:38Z</time>
      </trkpt>
      <trkpt lat="2.017543" lon="-76.725367">
        <ele>3528.698</ele>
        <time>2022-12-18T12:27:42Z</time>
      </trkpt>
      <trkpt lat="2.017551" lon="-76.725424">
        <ele>3529.089</ele>
        <time>2022-12-18T12:27:46Z</time>
      </trkpt>
      <trkpt lat="2.01755" lon="-76.725493">
        <ele>3529.238</ele>
        <time>2022-12-18T12:27:54Z</time>
      </trkpt>
      <trkpt lat="2.017545" lon="-76.725572">
        <ele>3529.792</ele>
        <time>2022-12-18T12:27:56Z</time>
      </trkpt>
      <trkpt lat="2.017553" lon="-76.725618">
        <ele>3530.890</ele>
        <time>2022-12-18T12:27:58Z</time>
      </trkpt>
      <trkpt lat="2.017573" lon="-76.725673">
        <ele>3535.921</ele>
        <time>2022-12-18T12:28:01Z</time>
      </trkpt>
      <trkpt lat="2.017579" lon="-76.725718">
        <ele>3535.967</ele>
        <time>2022-12-18T12:28:04Z</time>
      </trkpt>
      <trkpt lat="2.017586" lon="-76.725767">
        <ele>3535.934</ele>
        <time>2022-12-18T12:28:07Z</time>
      </trkpt>
      <trkpt lat="2.017597" lon="-76.725818">
        <ele>3535.569</ele>
        <time>2022-12-18T12:28:10Z</time>
      </trkpt>
      <trkpt lat="2.017613" lon="-76.725863">
        <ele>3535.546</ele>
        <time>2022-12-18T12:28:12Z</time>
      </trkpt>
      <trkpt lat="2.017632" lon="-76.725904">
        <ele>3534.988</ele>
        <time>2022-12-18T12:28:14Z</time>
      </trkpt>
      <trkpt lat="2.017652" lon="-76.725948">
        <ele>3534.716</ele>
        <time>2022-12-18T12:28:16Z</time>
      </trkpt>
      <trkpt lat="2.017672" lon="-76.725993">
        <ele>3534.409</ele>
        <time>2022-12-18T12:28:18Z</time>
      </trkpt>
      <trkpt lat="2.017695" lon="-76.726032">
        <ele>3534.235</ele>
        <time>2022-12-18T12:28:20Z</time>
      </trkpt>
      <trkpt lat="2.017734" lon="-76.726087">
        <ele>3534.526</ele>
        <time>2022-12-18T12:28:23Z</time>
      </trkpt>
      <trkpt lat="2.017763" lon="-76.726122">
        <ele>3534.525</ele>
        <time>2022-12-18T12:28:25Z</time>
      </trkpt>
      <trkpt lat="2.017796" lon="-76.726155">
        <ele>3534.699</ele>
        <time>2022-12-18T12:28:28Z</time>
      </trkpt>
      <trkpt lat="2.017829" lon="-76.726193">
        <ele>3536.187</ele>
        <time>2022-12-18T12:28:31Z</time>
      </trkpt>
      <trkpt lat="2.017855" lon="-76.726232">
        <ele>3537.628</ele>
        <time>2022-12-18T12:28:37Z</time>
      </trkpt>
      <trkpt lat="2.017855" lon="-76.726232">
        <ele>3537.664</ele>
        <time>2022-12-18T12:28:37Z</time>
      </trkpt>
      <trkpt lat="2.0179" lon="-76.72626">
        <ele>3538.341</ele>
        <time>2022-12-18T12:28:39Z</time>
      </trkpt>
      <trkpt lat="2.017954" lon="-76.726279">
        <ele>3538.726</ele>
        <time>2022-12-18T12:28:43Z</time>
      </trkpt>
      <trkpt lat="2.017998" lon="-76.726296">
        <ele>3538.717</ele>
        <time>2022-12-18T12:28:46Z</time>
      </trkpt>
      <trkpt lat="2.018038" lon="-76.726319">
        <ele>3539.687</ele>
        <time>2022-12-18T12:28:49Z</time>
      </trkpt>
      <trkpt lat="2.018075" lon="-76.726381">
        <ele>3539.815</ele>
        <time>2022-12-18T12:28:52Z</time>
      </trkpt>
      <trkpt lat="2.018101" lon="-76.726428">
        <ele>3540.209</ele>
        <time>2022-12-18T12:28:54Z</time>
      </trkpt>
      <trkpt lat="2.018135" lon="-76.726469">
        <ele>3541.522</ele>
        <time>2022-12-18T12:28:56Z</time>
      </trkpt>
      <trkpt lat="2.018182" lon="-76.72648">
        <ele>3540.033</ele>
        <time>2022-12-18T12:29:01Z</time>
      </trkpt>
      <trkpt lat="2.018215" lon="-76.726513">
        <ele>3539.112</ele>
        <time>2022-12-18T12:29:08Z</time>
      </trkpt>
      <trkpt lat="2.018257" lon="-76.726536">
        <ele>3539.536</ele>
        <time>2022-12-18T12:29:17Z</time>
      </trkpt>
      <trkpt lat="2.018292" lon="-76.726566">
        <ele>3539.664</ele>
        <time>2022-12-18T12:29:24Z</time>
      </trkpt>
      <trkpt lat="2.018333" lon="-76.726599">
        <ele>3539.675</ele>
        <time>2022-12-18T12:29:28Z</time>
      </trkpt>
      <trkpt lat="2.018365" lon="-76.726635">
        <ele>3539.771</ele>
        <time>2022-12-18T12:29:33Z</time>
      </trkpt>
      <trkpt lat="2.018405" lon="-76.726671">
        <ele>3540.668</ele>
        <time>2022-12-18T12:29:37Z</time>
      </trkpt>
      <trkpt lat="2.018435" lon="-76.726708">
        <ele>3540.683</ele>
        <time>2022-12-18T12:29:40Z</time>
      </trkpt>
      <trkpt lat="2.018477" lon="-76.726748">
        <ele>3541.281</ele>
        <time>2022-12-18T12:29:45Z</time>
      </trkpt>
      <trkpt lat="2.018512" lon="-76.726777">
        <ele>3541.661</ele>
        <time>2022-12-18T12:29:49Z</time>
      </trkpt>
      <trkpt lat="2.018547" lon="-76.726813">
        <ele>3541.617</ele>
        <time>2022-12-18T12:29:52Z</time>
      </trkpt>
      <trkpt lat="2.018572" lon="-76.726861">
        <ele>3542.409</ele>
        <time>2022-12-18T12:29:55Z</time>
      </trkpt>
      <trkpt lat="2.018605" lon="-76.726904">
        <ele>3542.969</ele>
        <time>2022-12-18T12:29:59Z</time>
      </trkpt>
      <trkpt lat="2.018657" lon="-76.726915">
        <ele>3543.470</ele>
        <time>2022-12-18T12:30:03Z</time>
      </trkpt>
      <trkpt lat="2.018693" lon="-76.726949">
        <ele>3544.439</ele>
        <time>2022-12-18T12:30:07Z</time>
      </trkpt>
      <trkpt lat="2.018712" lon="-76.726999">
        <ele>3545.293</ele>
        <time>2022-12-18T12:30:12Z</time>
      </trkpt>
      <trkpt lat="2.018732" lon="-76.727046">
        <ele>3545.951</ele>
        <time>2022-12-18T12:30:16Z</time>
      </trkpt>
      <trkpt lat="2.01875" lon="-76.727093">
        <ele>3547.172</ele>
        <time>2022-12-18T12:30:20Z</time>
      </trkpt>
      <trkpt lat="2.018777" lon="-76.727131">
        <ele>3547.958</ele>
        <time>2022-12-18T12:30:24Z</time>
      </trkpt>
      <trkpt lat="2.018802" lon="-76.727181">
        <ele>3548.465</ele>
        <time>2022-12-18T12:30:27Z</time>
      </trkpt>
      <trkpt lat="2.018826" lon="-76.727232">
        <ele>3549.120</ele>
        <time>2022-12-18T12:30:30Z</time>
      </trkpt>
      <trkpt lat="2.018836" lon="-76.727277">
        <ele>3550.436</ele>
        <time>2022-12-18T12:30:33Z</time>
      </trkpt>
      <trkpt lat="2.018846" lon="-76.727323">
        <ele>3550.217</ele>
        <time>2022-12-18T12:30:36Z</time>
      </trkpt>
      <trkpt lat="2.018852" lon="-76.727381">
        <ele>3550.418</ele>
        <time>2022-12-18T12:30:39Z</time>
      </trkpt>
      <trkpt lat="2.018856" lon="-76.727442">
        <ele>3550.809</ele>
        <time>2022-12-18T12:30:42Z</time>
      </trkpt>
      <trkpt lat="2.018865" lon="-76.727495">
        <ele>3550.994</ele>
        <time>2022-12-18T12:30:45Z</time>
      </trkpt>
      <trkpt lat="2.018882" lon="-76.727548">
        <ele>3552.465</ele>
        <time>2022-12-18T12:30:48Z</time>
      </trkpt>
      <trkpt lat="2.018896" lon="-76.727599">
        <ele>3552.994</ele>
        <time>2022-12-18T12:30:51Z</time>
      </trkpt>
      <trkpt lat="2.018917" lon="-76.727648">
        <ele>3554.388</ele>
        <time>2022-12-18T12:30:54Z</time>
      </trkpt>
      <trkpt lat="2.018951" lon="-76.727695">
        <ele>3554.346</ele>
        <time>2022-12-18T12:30:57Z</time>
      </trkpt>
      <trkpt lat="2.018984" lon="-76.727734">
        <ele>3554.287</ele>
        <time>2022-12-18T12:31:00Z</time>
      </trkpt>
      <trkpt lat="2.019023" lon="-76.727762">
        <ele>3554.373</ele>
        <time>2022-12-18T12:31:03Z</time>
      </trkpt>
      <trkpt lat="2.019069" lon="-76.727797">
        <ele>3553.960</ele>
        <time>2022-12-18T12:31:06Z</time>
      </trkpt>
      <trkpt lat="2.019107" lon="-76.72783">
        <ele>3553.295</ele>
        <time>2022-12-18T12:31:09Z</time>
      </trkpt>
      <trkpt lat="2.019145" lon="-76.727866">
        <ele>3553.446</ele>
        <time>2022-12-18T12:31:12Z</time>
      </trkpt>
      <trkpt lat="2.019177" lon="-76.727904">
        <ele>3552.688</ele>
        <time>2022-12-18T12:31:15Z</time>
      </trkpt>
      <trkpt lat="2.019197" lon="-76.727951">
        <ele>3552.016</ele>
        <time>2022-12-18T12:31:18Z</time>
      </trkpt>
      <trkpt lat="2.019217" lon="-76.728001">
        <ele>3551.709</ele>
        <time>2022-12-18T12:31:21Z</time>
      </trkpt>
      <trkpt lat="2.019238" lon="-76.728045">
        <ele>3551.795</ele>
        <time>2022-12-18T12:31:24Z</time>
      </trkpt>
      <trkpt lat="2.019258" lon="-76.728097">
        <ele>3552.066</ele>
        <time>2022-12-18T12:31:28Z</time>
      </trkpt>
      <trkpt lat="2.019278" lon="-76.728139">
        <ele>3552.015</ele>
        <time>2022-12-18T12:31:31Z</time>
      </trkpt>
      <trkpt lat="2.019304" lon="-76.728187">
        <ele>3552.139</ele>
        <time>2022-12-18T12:31:34Z</time>
      </trkpt>
      <trkpt lat="2.01933" lon="-76.728228">
        <ele>3551.927</ele>
        <time>2022-12-18T12:31:38Z</time>
      </trkpt>
      <trkpt lat="2.019353" lon="-76.728271">
        <ele>3552.158</ele>
        <time>2022-12-18T12:31:42Z</time>
      </trkpt>
      <trkpt lat="2.019395" lon="-76.728307">
        <ele>3550.614</ele>
        <time>2022-12-18T12:36:02Z</time>
      </trkpt>
      <trkpt lat="2.019362" lon="-76.728275">
        <ele>3550.211</ele>
        <time>2022-12-18T12:37:56Z</time>
      </trkpt>
      <trkpt lat="2.019402" lon="-76.728297">
        <ele>3549.866</ele>
        <time>2022-12-18T12:39:16Z</time>
      </trkpt>
      <trkpt lat="2.019418" lon="-76.728345">
        <ele>3549.832</ele>
        <time>2022-12-18T12:40:08Z</time>
      </trkpt>
      <trkpt lat="2.01945" lon="-76.728382">
        <ele>3552.392</ele>
        <time>2022-12-18T12:40:11Z</time>
      </trkpt>
      <trkpt lat="2.019478" lon="-76.728421">
        <ele>3552.411</ele>
        <time>2022-12-18T12:40:14Z</time>
      </trkpt>
      <trkpt lat="2.019507" lon="-76.728464">
        <ele>3551.909</ele>
        <time>2022-12-18T12:40:17Z</time>
      </trkpt>
      <trkpt lat="2.019542" lon="-76.728502">
        <ele>3551.594</ele>
        <time>2022-12-18T12:40:20Z</time>
      </trkpt>
      <trkpt lat="2.01958" lon="-76.728544">
        <ele>3549.225</ele>
        <time>2022-12-18T12:40:23Z</time>
      </trkpt>
      <trkpt lat="2.019622" lon="-76.728601">
        <ele>3549.094</ele>
        <time>2022-12-18T12:40:26Z</time>
      </trkpt>
      <trkpt lat="2.019698" lon="-76.728681">
        <ele>3548.738</ele>
        <time>2022-12-18T12:40:28Z</time>
      </trkpt>
      <trkpt lat="2.019738" lon="-76.728714">
        <ele>3549.666</ele>
        <time>2022-12-18T12:40:29Z</time>
      </trkpt>
      <trkpt lat="2.019774" lon="-76.728745">
        <ele>3550.537</ele>
        <time>2022-12-18T12:40:30Z</time>
      </trkpt>
      <trkpt lat="2.019872" lon="-76.728847">
        <ele>3550.283</ele>
        <time>2022-12-18T12:40:32Z</time>
      </trkpt>
      <trkpt lat="2.019965" lon="-76.728951">
        <ele>3546.830</ele>
        <time>2022-12-18T12:40:34Z</time>
      </trkpt>
      <trkpt lat="2.020013" lon="-76.728981">
        <ele>3545.035</ele>
        <time>2022-12-18T12:40:36Z</time>
      </trkpt>
      <trkpt lat="2.020069" lon="-76.729043">
        <ele>3545.033</ele>
        <time>2022-12-18T12:40:38Z</time>
      </trkpt>
      <trkpt lat="2.020095" lon="-76.729089">
        <ele>3545.023</ele>
        <time>2022-12-18T12:40:40Z</time>
      </trkpt>
      <trkpt lat="2.02014" lon="-76.729155">
        <ele>3552.115</ele>
        <time>2022-12-18T12:40:42Z</time>
      </trkpt>
      <trkpt lat="2.020157" lon="-76.729197">
        <ele>3552.109</ele>
        <time>2022-12-18T12:40:43Z</time>
      </trkpt>
      <trkpt lat="2.020194" lon="-76.729273">
        <ele>3552.124</ele>
        <time>2022-12-18T12:40:45Z</time>
      </trkpt>
      <trkpt lat="2.020225" lon="-76.729342">
        <ele>3551.415</ele>
        <time>2022-12-18T12:40:47Z</time>
      </trkpt>
      <trkpt lat="2.020245" lon="-76.729386">
        <ele>3549.144</ele>
        <time>2022-12-18T12:40:58Z</time>
      </trkpt>
      <trkpt lat="2.02029" lon="-76.729407">
        <ele>3549.828</ele>
        <time>2022-12-18T12:41:02Z</time>
      </trkpt>
      <trkpt lat="2.020332" lon="-76.729428">
        <ele>3549.186</ele>
        <time>2022-12-18T12:41:19Z</time>
      </trkpt>
      <trkpt lat="2.020377" lon="-76.72944">
        <ele>3547.117</ele>
        <time>2022-12-18T12:41:45Z</time>
      </trkpt>
      <trkpt lat="2.020422" lon="-76.729452">
        <ele>3541.613</ele>
        <time>2022-12-18T12:44:32Z</time>
      </trkpt>
      <trkpt lat="2.020447" lon="-76.729499">
        <ele>3541.860</ele>
        <time>2022-12-18T12:44:43Z</time>
      </trkpt>
      <trkpt lat="2.020464" lon="-76.729541">
        <ele>3541.815</ele>
        <time>2022-12-18T12:44:47Z</time>
      </trkpt>
      <trkpt lat="2.020501" lon="-76.729577">
        <ele>3541.884</ele>
        <time>2022-12-18T12:44:50Z</time>
      </trkpt>
      <trkpt lat="2.020543" lon="-76.729614">
        <ele>3542.207</ele>
        <time>2022-12-18T12:44:54Z</time>
      </trkpt>
      <trkpt lat="2.020565" lon="-76.729655">
        <ele>3542.417</ele>
        <time>2022-12-18T12:44:58Z</time>
      </trkpt>
      <trkpt lat="2.020588" lon="-76.729699">
        <ele>3542.609</ele>
        <time>2022-12-18T12:45:06Z</time>
      </trkpt>
      <trkpt lat="2.020632" lon="-76.729716">
        <ele>3542.079</ele>
        <time>2022-12-18T12:45:19Z</time>
      </trkpt>
      <trkpt lat="2.020671" lon="-76.729749">
        <ele>3541.850</ele>
        <time>2022-12-18T12:45:27Z</time>
      </trkpt>
      <trkpt lat="2.020697" lon="-76.72979">
        <ele>3541.549</ele>
        <time>2022-12-18T12:45:31Z</time>
      </trkpt>
      <trkpt lat="2.020719" lon="-76.729832">
        <ele>3541.493</ele>
        <time>2022-12-18T12:45:36Z</time>
      </trkpt>
      <trkpt lat="2.020747" lon="-76.729868">
        <ele>3541.331</ele>
        <time>2022-12-18T12:45:41Z</time>
      </trkpt>
      <trkpt lat="2.020788" lon="-76.729888">
        <ele>3541.192</ele>
        <time>2022-12-18T12:45:46Z</time>
      </trkpt>
      <trkpt lat="2.020835" lon="-76.729908">
        <ele>3541.098</ele>
        <time>2022-12-18T12:45:53Z</time>
      </trkpt>
      <trkpt lat="2.020886" lon="-76.729952">
        <ele>3541.135</ele>
        <time>2022-12-18T12:45:56Z</time>
      </trkpt>
      <trkpt lat="2.020928" lon="-76.72998">
        <ele>3541.160</ele>
        <time>2022-12-18T12:45:58Z</time>
      </trkpt>
      <trkpt lat="2.02097" lon="-76.729997">
        <ele>3541.134</ele>
        <time>2022-12-18T12:46:00Z</time>
      </trkpt>
      <trkpt lat="2.020997" lon="-76.730043">
        <ele>3540.955</ele>
        <time>2022-12-18T12:46:03Z</time>
      </trkpt>
      <trkpt lat="2.021018" lon="-76.730089">
        <ele>3540.510</ele>
        <time>2022-12-18T12:46:10Z</time>
      </trkpt>
      <trkpt lat="2.021058" lon="-76.730117">
        <ele>3539.809</ele>
        <time>2022-12-18T12:46:13Z</time>
      </trkpt>
      <trkpt lat="2.021102" lon="-76.730127">
        <ele>3537.264</ele>
        <time>2022-12-18T12:46:29Z</time>
      </trkpt>
      <trkpt lat="2.021067" lon="-76.730097">
        <ele>3537.175</ele>
        <time>2022-12-18T12:46:57Z</time>
      </trkpt>
      <trkpt lat="2.021024" lon="-76.730047">
        <ele>3537.234</ele>
        <time>2022-12-18T12:47:01Z</time>
      </trkpt>
      <trkpt lat="2.021076" lon="-76.73006">
        <ele>3537.478</ele>
        <time>2022-12-18T12:47:11Z</time>
      </trkpt>
      <trkpt lat="2.021127" lon="-76.730069">
        <ele>3538.526</ele>
        <time>2022-12-18T12:47:14Z</time>
      </trkpt>
      <trkpt lat="2.021184" lon="-76.73007">
        <ele>3538.537</ele>
        <time>2022-12-18T12:47:18Z</time>
      </trkpt>
      <trkpt lat="2.02123" lon="-76.730074">
        <ele>3539.953</ele>
        <time>2022-12-18T12:47:25Z</time>
      </trkpt>
      <trkpt lat="2.021276" lon="-76.730084">
        <ele>3540.230</ele>
        <time>2022-12-18T12:47:29Z</time>
      </trkpt>
      <trkpt lat="2.021322" lon="-76.730067">
        <ele>3540.985</ele>
        <time>2022-12-18T12:47:34Z</time>
      </trkpt>
      <trkpt lat="2.021363" lon="-76.730044">
        <ele>3541.958</ele>
        <time>2022-12-18T12:47:40Z</time>
      </trkpt>
      <trkpt lat="2.021406" lon="-76.730056">
        <ele>3542.152</ele>
        <time>2022-12-18T12:47:46Z</time>
      </trkpt>
      <trkpt lat="2.021451" lon="-76.730079">
        <ele>3542.517</ele>
        <time>2022-12-18T12:47:51Z</time>
      </trkpt>
      <trkpt lat="2.021497" lon="-76.730073">
        <ele>3542.909</ele>
        <time>2022-12-18T12:47:59Z</time>
      </trkpt>
      <trkpt lat="2.021542" lon="-76.73009">
        <ele>3543.746</ele>
        <time>2022-12-18T12:48:04Z</time>
      </trkpt>
      <trkpt lat="2.021583" lon="-76.73011">
        <ele>3544.497</ele>
        <time>2022-12-18T12:48:08Z</time>
      </trkpt>
      <trkpt lat="2.021625" lon="-76.730127">
        <ele>3547.156</ele>
        <time>2022-12-18T12:48:17Z</time>
      </trkpt>
      <trkpt lat="2.021669" lon="-76.73014">
        <ele>3547.550</ele>
        <time>2022-12-18T12:48:22Z</time>
      </trkpt>
      <trkpt lat="2.021709" lon="-76.730177">
        <ele>3547.628</ele>
        <time>2022-12-18T12:48:26Z</time>
      </trkpt>
      <trkpt lat="2.021746" lon="-76.730214">
        <ele>3547.219</ele>
        <time>2022-12-18T12:48:31Z</time>
      </trkpt>
      <trkpt lat="2.02179" lon="-76.730244">
        <ele>3547.075</ele>
        <time>2022-12-18T12:48:35Z</time>
      </trkpt>
      <trkpt lat="2.021833" lon="-76.730276">
        <ele>3547.242</ele>
        <time>2022-12-18T12:48:38Z</time>
      </trkpt>
      <trkpt lat="2.02188" lon="-76.730301">
        <ele>3547.577</ele>
        <time>2022-12-18T12:48:42Z</time>
      </trkpt>
      <trkpt lat="2.021907" lon="-76.73034">
        <ele>3547.555</ele>
        <time>2022-12-18T12:48:46Z</time>
      </trkpt>
      <trkpt lat="2.021954" lon="-76.730352">
        <ele>3550.407</ele>
        <time>2022-12-18T12:48:50Z</time>
      </trkpt>
      <trkpt lat="2.021999" lon="-76.730357">
        <ele>3550.417</ele>
        <time>2022-12-18T12:48:57Z</time>
      </trkpt>
      <trkpt lat="2.022052" lon="-76.730373">
        <ele>3550.409</ele>
        <time>2022-12-18T12:49:01Z</time>
      </trkpt>
      <trkpt lat="2.022103" lon="-76.730377">
        <ele>3550.266</ele>
        <time>2022-12-18T12:49:05Z</time>
      </trkpt>
      <trkpt lat="2.022158" lon="-76.730395">
        <ele>3550.057</ele>
        <time>2022-12-18T12:49:12Z</time>
      </trkpt>
      <trkpt lat="2.022216" lon="-76.730394">
        <ele>3549.726</ele>
        <time>2022-12-18T12:49:15Z</time>
      </trkpt>
      <trkpt lat="2.022264" lon="-76.730392">
        <ele>3548.890</ele>
        <time>2022-12-18T12:49:24Z</time>
      </trkpt>
      <trkpt lat="2.022313" lon="-76.73041">
        <ele>3546.968</ele>
        <time>2022-12-18T12:49:28Z</time>
      </trkpt>
      <trkpt lat="2.022366" lon="-76.730405">
        <ele>3546.689</ele>
        <time>2022-12-18T12:49:32Z</time>
      </trkpt>
      <trkpt lat="2.022407" lon="-76.730383">
        <ele>3546.665</ele>
        <time>2022-12-18T12:49:36Z</time>
      </trkpt>
      <trkpt lat="2.022455" lon="-76.730372">
        <ele>3546.712</ele>
        <time>2022-12-18T12:49:41Z</time>
      </trkpt>
      <trkpt lat="2.022507" lon="-76.730365">
        <ele>3546.847</ele>
        <time>2022-12-18T12:49:43Z</time>
      </trkpt>
      <trkpt lat="2.022556" lon="-76.730393">
        <ele>3548.239</ele>
        <time>2022-12-18T12:50:04Z</time>
      </trkpt>
      <trkpt lat="2.022612" lon="-76.730418">
        <ele>3548.201</ele>
        <time>2022-12-18T12:50:07Z</time>
      </trkpt>
      <trkpt lat="2.022665" lon="-76.730425">
        <ele>3548.621</ele>
        <time>2022-12-18T12:50:09Z</time>
      </trkpt>
      <trkpt lat="2.022716" lon="-76.730414">
        <ele>3548.609</ele>
        <time>2022-12-18T12:50:11Z</time>
      </trkpt>
      <trkpt lat="2.022866" lon="-76.730397">
        <ele>3548.644</ele>
        <time>2022-12-18T12:50:16Z</time>
      </trkpt>
      <trkpt lat="2.02292" lon="-76.730411">
        <ele>3546.665</ele>
        <time>2022-12-18T12:50:21Z</time>
      </trkpt>
      <trkpt lat="2.022972" lon="-76.730423">
        <ele>3546.814</ele>
        <time>2022-12-18T12:50:24Z</time>
      </trkpt>
      <trkpt lat="2.023022" lon="-76.730433">
        <ele>3547.238</ele>
        <time>2022-12-18T12:50:27Z</time>
      </trkpt>
      <trkpt lat="2.023066" lon="-76.730446">
        <ele>3547.376</ele>
        <time>2022-12-18T12:50:32Z</time>
      </trkpt>
      <trkpt lat="2.023015" lon="-76.730441">
        <ele>3547.057</ele>
        <time>2022-12-18T12:50:41Z</time>
      </trkpt>
      <trkpt lat="2.022963" lon="-76.730417">
        <ele>3547.093</ele>
        <time>2022-12-18T12:50:44Z</time>
      </trkpt>
      <trkpt lat="2.022909" lon="-76.730394">
        <ele>3546.870</ele>
        <time>2022-12-18T12:50:47Z</time>
      </trkpt>
      <trkpt lat="2.022855" lon="-76.730371">
        <ele>3546.375</ele>
        <time>2022-12-18T12:50:50Z</time>
      </trkpt>
      <trkpt lat="2.022802" lon="-76.730349">
        <ele>3546.427</ele>
        <time>2022-12-18T12:50:54Z</time>
      </trkpt>
      <trkpt lat="2.022747" lon="-76.730336">
        <ele>3544.568</ele>
        <time>2022-12-18T12:50:58Z</time>
      </trkpt>
      <trkpt lat="2.022698" lon="-76.730342">
        <ele>3543.614</ele>
        <time>2022-12-18T12:51:03Z</time>
      </trkpt>
      <trkpt lat="2.022648" lon="-76.730341">
        <ele>3543.409</ele>
        <time>2022-12-18T12:51:07Z</time>
      </trkpt>
      <trkpt lat="2.022599" lon="-76.730366">
        <ele>3543.343</ele>
        <time>2022-12-18T12:51:12Z</time>
      </trkpt>
      <trkpt lat="2.022548" lon="-76.730368">
        <ele>3543.254</ele>
        <time>2022-12-18T12:51:17Z</time>
      </trkpt>
      <trkpt lat="2.022528" lon="-76.730326">
        <ele>3543.483</ele>
        <time>2022-12-18T12:51:22Z</time>
      </trkpt>
      <trkpt lat="2.022478" lon="-76.730322">
        <ele>3543.447</ele>
        <time>2022-12-18T12:51:41Z</time>
      </trkpt>
      <trkpt lat="2.022431" lon="-76.730325">
        <ele>3543.385</ele>
        <time>2022-12-18T12:51:44Z</time>
      </trkpt>
      <trkpt lat="2.022384" lon="-76.730337">
        <ele>3543.586</ele>
        <time>2022-12-18T12:51:47Z</time>
      </trkpt>
      <trkpt lat="2.022341" lon="-76.730351">
        <ele>3542.932</ele>
        <time>2022-12-18T12:51:50Z</time>
      </trkpt>
      <trkpt lat="2.022291" lon="-76.730367">
        <ele>3542.739</ele>
        <time>2022-12-18T12:51:53Z</time>
      </trkpt>
      <trkpt lat="2.022246" lon="-76.730375">
        <ele>3542.074</ele>
        <time>2022-12-18T12:51:56Z</time>
      </trkpt>
      <trkpt lat="2.022197" lon="-76.730386">
        <ele>3541.448</ele>
        <time>2022-12-18T12:52:00Z</time>
      </trkpt>
      <trkpt lat="2.022152" lon="-76.730389">
        <ele>3540.961</ele>
        <time>2022-12-18T12:52:05Z</time>
      </trkpt>
      <trkpt lat="2.02216" lon="-76.730433">
        <ele>3540.917</ele>
        <time>2022-12-18T12:52:11Z</time>
      </trkpt>
      <trkpt lat="2.022138" lon="-76.73039">
        <ele>3542.009</ele>
        <time>2022-12-18T12:52:28Z</time>
      </trkpt>
      <trkpt lat="2.022091" lon="-76.730376">
        <ele>3542.585</ele>
        <time>2022-12-18T12:52:40Z</time>
      </trkpt>
      <trkpt lat="2.022049" lon="-76.730359">
        <ele>3542.766</ele>
        <time>2022-12-18T12:52:43Z</time>
      </trkpt>
      <trkpt lat="2.022006" lon="-76.730345">
        <ele>3543.345</ele>
        <time>2022-12-18T12:52:47Z</time>
      </trkpt>
      <trkpt lat="2.021956" lon="-76.730328">
        <ele>3544.839</ele>
        <time>2022-12-18T12:52:51Z</time>
      </trkpt>
      <trkpt lat="2.021871" lon="-76.730288">
        <ele>3545.017</ele>
        <time>2022-12-18T12:52:57Z</time>
      </trkpt>
      <trkpt lat="2.021821" lon="-76.730262">
        <ele>3545.818</ele>
        <time>2022-12-18T12:52:59Z</time>
      </trkpt>
      <trkpt lat="2.021771" lon="-76.730229">
        <ele>3545.374</ele>
        <time>2022-12-18T12:53:01Z</time>
      </trkpt>
      <trkpt lat="2.021716" lon="-76.730204">
        <ele>3544.581</ele>
        <time>2022-12-18T12:53:04Z</time>
      </trkpt>
      <trkpt lat="2.021678" lon="-76.730174">
        <ele>3544.166</ele>
        <time>2022-12-18T12:53:15Z</time>
      </trkpt>
      <trkpt lat="2.021633" lon="-76.730155">
        <ele>3544.088</ele>
        <time>2022-12-18T12:53:20Z</time>
      </trkpt>
      <trkpt lat="2.021594" lon="-76.730129">
        <ele>3543.824</ele>
        <time>2022-12-18T12:53:27Z</time>
      </trkpt>
      <trkpt lat="2.021549" lon="-76.730102">
        <ele>3543.326</ele>
        <time>2022-12-18T12:53:35Z</time>
      </trkpt>
      <trkpt lat="2.021509" lon="-76.730074">
        <ele>3543.109</ele>
        <time>2022-12-18T12:53:42Z</time>
      </trkpt>
      <trkpt lat="2.021468" lon="-76.730051">
        <ele>3540.769</ele>
        <time>2022-12-18T12:53:44Z</time>
      </trkpt>
      <trkpt lat="2.02142" lon="-76.730047">
        <ele>3539.670</ele>
        <time>2022-12-18T12:53:47Z</time>
      </trkpt>
      <trkpt lat="2.021359" lon="-76.730058">
        <ele>3539.479</ele>
        <time>2022-12-18T12:53:50Z</time>
      </trkpt>
      <trkpt lat="2.021302" lon="-76.730063">
        <ele>3537.473</ele>
        <time>2022-12-18T12:53:53Z</time>
      </trkpt>
      <trkpt lat="2.021249" lon="-76.730064">
        <ele>3536.331</ele>
        <time>2022-12-18T12:53:58Z</time>
      </trkpt>
      <trkpt lat="2.0212" lon="-76.730069">
        <ele>3535.592</ele>
        <time>2022-12-18T12:54:03Z</time>
      </trkpt>
      <trkpt lat="2.021144" lon="-76.730063">
        <ele>3534.978</ele>
        <time>2022-12-18T12:54:06Z</time>
      </trkpt>
      <trkpt lat="2.021099" lon="-76.730051">
        <ele>3534.795</ele>
        <time>2022-12-18T12:54:08Z</time>
      </trkpt>
      <trkpt lat="2.021038" lon="-76.730038">
        <ele>3534.760</ele>
        <time>2022-12-18T12:54:11Z</time>
      </trkpt>
      <trkpt lat="2.020993" lon="-76.730011">
        <ele>3534.566</ele>
        <time>2022-12-18T12:54:14Z</time>
      </trkpt>
      <trkpt lat="2.021003" lon="-76.730057">
        <ele>3534.829</ele>
        <time>2022-12-18T12:54:20Z</time>
      </trkpt>
      <trkpt lat="2.021046" lon="-76.730101">
        <ele>3535.021</ele>
        <time>2022-12-18T12:54:22Z</time>
      </trkpt>
      <trkpt lat="2.021088" lon="-76.730132">
        <ele>3536.009</ele>
        <time>2022-12-18T12:54:24Z</time>
      </trkpt>
      <trkpt lat="2.021121" lon="-76.730171">
        <ele>3536.477</ele>
        <time>2022-12-18T12:54:26Z</time>
      </trkpt>
      <trkpt lat="2.021179" lon="-76.730223">
        <ele>3538.698</ele>
        <time>2022-12-18T12:54:28Z</time>
      </trkpt>
      <trkpt lat="2.021218" lon="-76.730266">
        <ele>3540.877</ele>
        <time>2022-12-18T12:54:30Z</time>
      </trkpt>
      <trkpt lat="2.021269" lon="-76.730294">
        <ele>3540.931</ele>
        <time>2022-12-18T12:54:33Z</time>
      </trkpt>
      <trkpt lat="2.021315" lon="-76.730337">
        <ele>3544.249</ele>
        <time>2022-12-18T12:54:43Z</time>
      </trkpt>
      <trkpt lat="2.021351" lon="-76.730367">
        <ele>3544.120</ele>
        <time>2022-12-18T12:54:48Z</time>
      </trkpt>
      <trkpt lat="2.021385" lon="-76.730406">
        <ele>3544.176</ele>
        <time>2022-12-18T12:54:52Z</time>
      </trkpt>
      <trkpt lat="2.021413" lon="-76.730442">
        <ele>3544.373</ele>
        <time>2022-12-18T12:54:56Z</time>
      </trkpt>
      <trkpt lat="2.021446" lon="-76.730475">
        <ele>3543.748</ele>
        <time>2022-12-18T12:55:11Z</time>
      </trkpt>
      <trkpt lat="2.021496" lon="-76.730507">
        <ele>3544.159</ele>
        <time>2022-12-18T12:55:26Z</time>
      </trkpt>
      <trkpt lat="2.021557" lon="-76.730525">
        <ele>3544.203</ele>
        <time>2022-12-18T12:55:29Z</time>
      </trkpt>
      <trkpt lat="2.021597" lon="-76.730559">
        <ele>3544.523</ele>
        <time>2022-12-18T12:55:32Z</time>
      </trkpt>
      <trkpt lat="2.021649" lon="-76.730589">
        <ele>3544.309</ele>
        <time>2022-12-18T12:55:35Z</time>
      </trkpt>
      <trkpt lat="2.021694" lon="-76.730587">
        <ele>3546.736</ele>
        <time>2022-12-18T12:55:49Z</time>
      </trkpt>
      <trkpt lat="2.021737" lon="-76.730603">
        <ele>3547.197</ele>
        <time>2022-12-18T12:55:51Z</time>
      </trkpt>
      <trkpt lat="2.021784" lon="-76.730609">
        <ele>3547.286</ele>
        <time>2022-12-18T12:55:55Z</time>
      </trkpt>
      <trkpt lat="2.021825" lon="-76.730629">
        <ele>3547.450</ele>
        <time>2022-12-18T12:56:00Z</time>
      </trkpt>
      <trkpt lat="2.02186" lon="-76.730666">
        <ele>3547.588</ele>
        <time>2022-12-18T12:56:11Z</time>
      </trkpt>
      <trkpt lat="2.021913" lon="-76.730691">
        <ele>3547.819</ele>
        <time>2022-12-18T12:56:15Z</time>
      </trkpt>
      <trkpt lat="2.021943" lon="-76.73073">
        <ele>3547.835</ele>
        <time>2022-12-18T12:56:19Z</time>
      </trkpt>
      <trkpt lat="2.021979" lon="-76.730765">
        <ele>3547.822</ele>
        <time>2022-12-18T12:56:23Z</time>
      </trkpt>
      <trkpt lat="2.022011" lon="-76.730804">
        <ele>3548.477</ele>
        <time>2022-12-18T12:56:33Z</time>
      </trkpt>
      <trkpt lat="2.022033" lon="-76.730848">
        <ele>3549.149</ele>
        <time>2022-12-18T12:56:40Z</time>
      </trkpt>
      <trkpt lat="2.022073" lon="-76.73088">
        <ele>3550.502</ele>
        <time>2022-12-18T12:56:45Z</time>
      </trkpt>
      <trkpt lat="2.022103" lon="-76.730918">
        <ele>3550.922</ele>
        <time>2022-12-18T12:56:50Z</time>
      </trkpt>
      <trkpt lat="2.022134" lon="-76.730951">
        <ele>3551.609</ele>
        <time>2022-12-18T12:56:56Z</time>
      </trkpt>
      <trkpt lat="2.022179" lon="-76.730975">
        <ele>3551.725</ele>
        <time>2022-12-18T12:57:02Z</time>
      </trkpt>
      <trkpt lat="2.02222" lon="-76.731007">
        <ele>3550.926</ele>
        <time>2022-12-18T12:57:10Z</time>
      </trkpt>
      <trkpt lat="2.022217" lon="-76.731053">
        <ele>3549.795</ele>
        <time>2022-12-18T12:57:33Z</time>
      </trkpt>
      <trkpt lat="2.022263" lon="-76.731101">
        <ele>3548.969</ele>
        <time>2022-12-18T12:57:36Z</time>
      </trkpt>
      <trkpt lat="2.02231" lon="-76.731123">
        <ele>3548.777</ele>
        <time>2022-12-18T12:57:39Z</time>
      </trkpt>
      <trkpt lat="2.022344" lon="-76.731154">
        <ele>3548.548</ele>
        <time>2022-12-18T12:57:41Z</time>
      </trkpt>
      <trkpt lat="2.022367" lon="-76.731207">
        <ele>3548.534</ele>
        <time>2022-12-18T12:57:44Z</time>
      </trkpt>
      <trkpt lat="2.022378" lon="-76.731253">
        <ele>3548.721</ele>
        <time>2022-12-18T12:57:46Z</time>
      </trkpt>
      <trkpt lat="2.022385" lon="-76.731312">
        <ele>3548.826</ele>
        <time>2022-12-18T12:57:48Z</time>
      </trkpt>
      <trkpt lat="2.022387" lon="-76.731367">
        <ele>3549.556</ele>
        <time>2022-12-18T12:57:51Z</time>
      </trkpt>
      <trkpt lat="2.022381" lon="-76.731428">
        <ele>3549.659</ele>
        <time>2022-12-18T12:58:20Z</time>
      </trkpt>
      <trkpt lat="2.022381" lon="-76.731428">
        <ele>3549.614</ele>
        <time>2022-12-18T12:58:20Z</time>
      </trkpt>
      <trkpt lat="2.022315" lon="-76.731639">
        <ele>3550.109</ele>
        <time>2022-12-18T12:58:22Z</time>
      </trkpt>
      <trkpt lat="2.022297" lon="-76.731689">
        <ele>3552.326</ele>
        <time>2022-12-18T12:58:23Z</time>
      </trkpt>
      <trkpt lat="2.022275" lon="-76.73174">
        <ele>3555.977</ele>
        <time>2022-12-18T12:58:26Z</time>
      </trkpt>
      <trkpt lat="2.022252" lon="-76.731779">
        <ele>3555.756</ele>
        <time>2022-12-18T12:58:32Z</time>
      </trkpt>
      <trkpt lat="2.022229" lon="-76.731818">
        <ele>3555.730</ele>
        <time>2022-12-18T12:58:38Z</time>
      </trkpt>
      <trkpt lat="2.022196" lon="-76.731854">
        <ele>3555.858</ele>
        <time>2022-12-18T12:58:44Z</time>
      </trkpt>
      <trkpt lat="2.022173" lon="-76.731893">
        <ele>3555.939</ele>
        <time>2022-12-18T12:58:50Z</time>
      </trkpt>
      <trkpt lat="2.022143" lon="-76.73193">
        <ele>3556.275</ele>
        <time>2022-12-18T12:58:57Z</time>
      </trkpt>
      <trkpt lat="2.022116" lon="-76.731974">
        <ele>3556.162</ele>
        <time>2022-12-18T12:59:03Z</time>
      </trkpt>
      <trkpt lat="2.022084" lon="-76.732014">
        <ele>3556.347</ele>
        <time>2022-12-18T12:59:09Z</time>
      </trkpt>
      <trkpt lat="2.022066" lon="-76.732062">
        <ele>3556.593</ele>
        <time>2022-12-18T12:59:29Z</time>
      </trkpt>
      <trkpt lat="2.022068" lon="-76.732107">
        <ele>3556.565</ele>
        <time>2022-12-18T12:59:34Z</time>
      </trkpt>
      <trkpt lat="2.022042" lon="-76.732146">
        <ele>3556.721</ele>
        <time>2022-12-18T12:59:43Z</time>
      </trkpt>
      <trkpt lat="2.022017" lon="-76.732184">
        <ele>3556.309</ele>
        <time>2022-12-18T13:00:06Z</time>
      </trkpt>
      <trkpt lat="2.021992" lon="-76.732225">
        <ele>3556.490</ele>
        <time>2022-12-18T13:00:12Z</time>
      </trkpt>
      <trkpt lat="2.021962" lon="-76.732262">
        <ele>3556.731</ele>
        <time>2022-12-18T13:00:18Z</time>
      </trkpt>
      <trkpt lat="2.021931" lon="-76.7323">
        <ele>3556.770</ele>
        <time>2022-12-18T13:00:24Z</time>
      </trkpt>
      <trkpt lat="2.02191" lon="-76.73234">
        <ele>3555.934</ele>
        <time>2022-12-18T13:00:29Z</time>
      </trkpt>
      <trkpt lat="2.021886" lon="-76.732385">
        <ele>3554.942</ele>
        <time>2022-12-18T13:00:37Z</time>
      </trkpt>
      <trkpt lat="2.021914" lon="-76.732431">
        <ele>3554.483</ele>
        <time>2022-12-18T13:01:00Z</time>
      </trkpt>
      <trkpt lat="2.021955" lon="-76.732462">
        <ele>3554.469</ele>
        <time>2022-12-18T13:01:12Z</time>
      </trkpt>
      <trkpt lat="2.021914" lon="-76.732491">
        <ele>3555.386</ele>
        <time>2022-12-18T13:01:27Z</time>
      </trkpt>
      <trkpt lat="2.021961" lon="-76.732484">
        <ele>3556.391</ele>
        <time>2022-12-18T13:01:31Z</time>
      </trkpt>
      <trkpt lat="2.021994" lon="-76.732519">
        <ele>3557.642</ele>
        <time>2022-12-18T13:01:47Z</time>
      </trkpt>
      <trkpt lat="2.022047" lon="-76.732511">
        <ele>3558.622</ele>
        <time>2022-12-18T13:01:53Z</time>
      </trkpt>
      <trkpt lat="2.022083" lon="-76.73254">
        <ele>3559.314</ele>
        <time>2022-12-18T13:02:05Z</time>
      </trkpt>
      <trkpt lat="2.022101" lon="-76.732584">
        <ele>3560.909</ele>
        <time>2022-12-18T13:02:35Z</time>
      </trkpt>
      <trkpt lat="2.022141" lon="-76.732611">
        <ele>3562.735</ele>
        <time>2022-12-18T13:02:59Z</time>
      </trkpt>
      <trkpt lat="2.022186" lon="-76.732629">
        <ele>3564.196</ele>
        <time>2022-12-18T13:03:06Z</time>
      </trkpt>
      <trkpt lat="2.022232" lon="-76.732614">
        <ele>3566.235</ele>
        <time>2022-12-18T13:03:16Z</time>
      </trkpt>
      <trkpt lat="2.022279" lon="-76.732605">
        <ele>3567.749</ele>
        <time>2022-12-18T13:03:25Z</time>
      </trkpt>
      <trkpt lat="2.022262" lon="-76.73265">
        <ele>3574.327</ele>
        <time>2022-12-18T13:04:04Z</time>
      </trkpt>
      <trkpt lat="2.022304" lon="-76.732669">
        <ele>3574.668</ele>
        <time>2022-12-18T13:04:10Z</time>
      </trkpt>
      <trkpt lat="2.022331" lon="-76.732705">
        <ele>3574.834</ele>
        <time>2022-12-18T13:04:16Z</time>
      </trkpt>
      <trkpt lat="2.022375" lon="-76.732689">
        <ele>3575.071</ele>
        <time>2022-12-18T13:04:25Z</time>
      </trkpt>
      <trkpt lat="2.022421" lon="-76.7327">
        <ele>3583.066</ele>
        <time>2022-12-18T13:05:17Z</time>
      </trkpt>
      <trkpt lat="2.022468" lon="-76.732708">
        <ele>3583.266</ele>
        <time>2022-12-18T13:05:26Z</time>
      </trkpt>
      <trkpt lat="2.022514" lon="-76.732708">
        <ele>3583.429</ele>
        <time>2022-12-18T13:05:35Z</time>
      </trkpt>
      <trkpt lat="2.022545" lon="-76.732751">
        <ele>3583.621</ele>
        <time>2022-12-18T13:05:41Z</time>
      </trkpt>
      <trkpt lat="2.022594" lon="-76.732757">
        <ele>3589.809</ele>
        <time>2022-12-18T13:06:04Z</time>
      </trkpt>
      <trkpt lat="2.022619" lon="-76.732797">
        <ele>3590.787</ele>
        <time>2022-12-18T13:06:15Z</time>
      </trkpt>
      <trkpt lat="2.022588" lon="-76.732835">
        <ele>3592.518</ele>
        <time>2022-12-18T13:06:34Z</time>
      </trkpt>
      <trkpt lat="2.022635" lon="-76.732814">
        <ele>3593.747</ele>
        <time>2022-12-18T13:06:50Z</time>
      </trkpt>
      <trkpt lat="2.022661" lon="-76.73285">
        <ele>3593.921</ele>
        <time>2022-12-18T13:07:00Z</time>
      </trkpt>
      <trkpt lat="2.022707" lon="-76.732847">
        <ele>3595.349</ele>
        <time>2022-12-18T13:07:08Z</time>
      </trkpt>
      <trkpt lat="2.022753" lon="-76.732854">
        <ele>3602.380</ele>
        <time>2022-12-18T13:08:02Z</time>
      </trkpt>
      <trkpt lat="2.022789" lon="-76.732885">
        <ele>3602.696</ele>
        <time>2022-12-18T13:08:10Z</time>
      </trkpt>
      <trkpt lat="2.022832" lon="-76.732899">
        <ele>3603.583</ele>
        <time>2022-12-18T13:08:23Z</time>
      </trkpt>
      <trkpt lat="2.022864" lon="-76.732932">
        <ele>3611.918</ele>
        <time>2022-12-18T13:09:08Z</time>
      </trkpt>
      <trkpt lat="2.022899" lon="-76.732963">
        <ele>3613.784</ele>
        <time>2022-12-18T13:09:17Z</time>
      </trkpt>
      <trkpt lat="2.022947" lon="-76.732963">
        <ele>3615.307</ele>
        <time>2022-12-18T13:09:30Z</time>
      </trkpt>
      <trkpt lat="2.022992" lon="-76.732955">
        <ele>3617.117</ele>
        <time>2022-12-18T13:09:52Z</time>
      </trkpt>
      <trkpt lat="2.023026" lon="-76.73292">
        <ele>3617.309</ele>
        <time>2022-12-18T13:10:00Z</time>
      </trkpt>
      <trkpt lat="2.023066" lon="-76.732888">
        <ele>3619.069</ele>
        <time>2022-12-18T13:10:16Z</time>
      </trkpt>
      <trkpt lat="2.023116" lon="-76.732885">
        <ele>3619.680</ele>
        <time>2022-12-18T13:10:23Z</time>
      </trkpt>
      <trkpt lat="2.023114" lon="-76.732935">
        <ele>3622.329</ele>
        <time>2022-12-18T13:10:38Z</time>
      </trkpt>
      <trkpt lat="2.02311" lon="-76.732983">
        <ele>3623.963</ele>
        <time>2022-12-18T13:10:46Z</time>
      </trkpt>
      <trkpt lat="2.023153" lon="-76.733001">
        <ele>3627.271</ele>
        <time>2022-12-18T13:10:55Z</time>
      </trkpt>
      <trkpt lat="2.0232" lon="-76.732985">
        <ele>3629.982</ele>
        <time>2022-12-18T13:11:03Z</time>
      </trkpt>
      <trkpt lat="2.023246" lon="-76.733002">
        <ele>3631.758</ele>
        <time>2022-12-18T13:11:09Z</time>
      </trkpt>
      <trkpt lat="2.023235" lon="-76.733048">
        <ele>3633.075</ele>
        <time>2022-12-18T13:11:14Z</time>
      </trkpt>
      <trkpt lat="2.023259" lon="-76.73309">
        <ele>3633.960</ele>
        <time>2022-12-18T13:11:39Z</time>
      </trkpt>
      <trkpt lat="2.023278" lon="-76.733046">
        <ele>3634.283</ele>
        <time>2022-12-18T13:11:46Z</time>
      </trkpt>
      <trkpt lat="2.023321" lon="-76.733065">
        <ele>3634.325</ele>
        <time>2022-12-18T13:11:54Z</time>
      </trkpt>
      <trkpt lat="2.023366" lon="-76.733051">
        <ele>3637.417</ele>
        <time>2022-12-18T13:12:04Z</time>
      </trkpt>
      <trkpt lat="2.023412" lon="-76.733065">
        <ele>3638.909</ele>
        <time>2022-12-18T13:12:14Z</time>
      </trkpt>
      <trkpt lat="2.023406" lon="-76.733113">
        <ele>3640.489</ele>
        <time>2022-12-18T13:12:33Z</time>
      </trkpt>
      <trkpt lat="2.02344" lon="-76.733145">
        <ele>3640.840</ele>
        <time>2022-12-18T13:12:40Z</time>
      </trkpt>
      <trkpt lat="2.023485" lon="-76.733127">
        <ele>3642.679</ele>
        <time>2022-12-18T13:12:49Z</time>
      </trkpt>
      <trkpt lat="2.023529" lon="-76.733117">
        <ele>3644.763</ele>
        <time>2022-12-18T13:12:57Z</time>
      </trkpt>
      <trkpt lat="2.023576" lon="-76.733107">
        <ele>3646.741</ele>
        <time>2022-12-18T13:13:05Z</time>
      </trkpt>
      <trkpt lat="2.023623" lon="-76.733104">
        <ele>3648.242</ele>
        <time>2022-12-18T13:13:11Z</time>
      </trkpt>
      <trkpt lat="2.023669" lon="-76.733124">
        <ele>3651.838</ele>
        <time>2022-12-18T13:13:18Z</time>
      </trkpt>
      <trkpt lat="2.0237" lon="-76.73316">
        <ele>3654.825</ele>
        <time>2022-12-18T13:13:25Z</time>
      </trkpt>
      <trkpt lat="2.023732" lon="-76.733198">
        <ele>3655.530</ele>
        <time>2022-12-18T13:13:33Z</time>
      </trkpt>
      <trkpt lat="2.023688" lon="-76.73317">
        <ele>3654.562</ele>
        <time>2022-12-18T13:13:41Z</time>
      </trkpt>
      <trkpt lat="2.023637" lon="-76.733158">
        <ele>3655.583</ele>
        <time>2022-12-18T13:13:54Z</time>
      </trkpt>
      <trkpt lat="2.023588" lon="-76.733153">
        <ele>3657.011</ele>
        <time>2022-12-18T13:13:59Z</time>
      </trkpt>
      <trkpt lat="2.023587" lon="-76.733105">
        <ele>3662.109</ele>
        <time>2022-12-18T13:16:19Z</time>
      </trkpt>
      <trkpt lat="2.023608" lon="-76.733148">
        <ele>3662.167</ele>
        <time>2022-12-18T13:16:35Z</time>
      </trkpt>
      <trkpt lat="2.02363" lon="-76.733192">
        <ele>3662.148</ele>
        <time>2022-12-18T13:16:40Z</time>
      </trkpt>
      <trkpt lat="2.023657" lon="-76.733248">
        <ele>3662.567</ele>
        <time>2022-12-18T13:16:44Z</time>
      </trkpt>
      <trkpt lat="2.023707" lon="-76.733239">
        <ele>3662.371</ele>
        <time>2022-12-18T13:16:55Z</time>
      </trkpt>
      <trkpt lat="2.023676" lon="-76.733206">
        <ele>3661.739</ele>
        <time>2022-12-18T13:18:10Z</time>
      </trkpt>
      <trkpt lat="2.023635" lon="-76.733173">
        <ele>3661.720</ele>
        <time>2022-12-18T13:18:15Z</time>
      </trkpt>
      <trkpt lat="2.023628" lon="-76.733125">
        <ele>3661.886</ele>
        <time>2022-12-18T13:18:24Z</time>
      </trkpt>
      <trkpt lat="2.023584" lon="-76.733104">
        <ele>3661.713</ele>
        <time>2022-12-18T13:18:40Z</time>
      </trkpt>
      <trkpt lat="2.023543" lon="-76.733136">
        <ele>3658.648</ele>
        <time>2022-12-18T13:19:32Z</time>
      </trkpt>
      <trkpt lat="2.023494" lon="-76.733124">
        <ele>3658.299</ele>
        <time>2022-12-18T13:19:38Z</time>
      </trkpt>
      <trkpt lat="2.023533" lon="-76.733098">
        <ele>3656.207</ele>
        <time>2022-12-18T13:20:23Z</time>
      </trkpt>
      <trkpt lat="2.023573" lon="-76.733124">
        <ele>3658.827</ele>
        <time>2022-12-18T13:23:10Z</time>
      </trkpt>
      <trkpt lat="2.023622" lon="-76.733121">
        <ele>3658.809</ele>
        <time>2022-12-18T13:23:17Z</time>
      </trkpt>
      <trkpt lat="2.023671" lon="-76.733126">
        <ele>3658.920</ele>
        <time>2022-12-18T13:23:26Z</time>
      </trkpt>
      <trkpt lat="2.023718" lon="-76.733123">
        <ele>3659.041</ele>
        <time>2022-12-18T13:23:36Z</time>
      </trkpt>
      <trkpt lat="2.023767" lon="-76.733123">
        <ele>3658.990</ele>
        <time>2022-12-18T13:23:45Z</time>
      </trkpt>
      <trkpt lat="2.023812" lon="-76.733098">
        <ele>3656.484</ele>
        <time>2022-12-18T13:23:52Z</time>
      </trkpt>
      <trkpt lat="2.023858" lon="-76.733075">
        <ele>3660.122</ele>
        <time>2022-12-18T13:23:59Z</time>
      </trkpt>
      <trkpt lat="2.023814" lon="-76.733087">
        <ele>3664.513</ele>
        <time>2022-12-18T13:26:11Z</time>
      </trkpt>
      <trkpt lat="2.02382" lon="-76.733036">
        <ele>3664.239</ele>
        <time>2022-12-18T13:29:27Z</time>
      </trkpt>
      <trkpt lat="2.0238" lon="-76.733079">
        <ele>3664.576</ele>
        <time>2022-12-18T13:30:57Z</time>
      </trkpt>
      <trkpt lat="2.023795" lon="-76.73313">
        <ele>3663.631</ele>
        <time>2022-12-18T13:32:27Z</time>
      </trkpt>
      <trkpt lat="2.023751" lon="-76.733147">
        <ele>3662.074</ele>
        <time>2022-12-18T13:32:59Z</time>
      </trkpt>
      <trkpt lat="2.023702" lon="-76.733158">
        <ele>3661.756</ele>
        <time>2022-12-18T13:33:07Z</time>
      </trkpt>
      <trkpt lat="2.023653" lon="-76.733179">
        <ele>3660.821</ele>
        <time>2022-12-18T13:33:14Z</time>
      </trkpt>
      <trkpt lat="2.023607" lon="-76.733191">
        <ele>3659.109</ele>
        <time>2022-12-18T13:33:22Z</time>
      </trkpt>
      <trkpt lat="2.023569" lon="-76.733217">
        <ele>3658.888</ele>
        <time>2022-12-18T13:33:30Z</time>
      </trkpt>
      <trkpt lat="2.02352" lon="-76.733198">
        <ele>3656.929</ele>
        <time>2022-12-18T13:33:40Z</time>
      </trkpt>
      <trkpt lat="2.023474" lon="-76.733209">
        <ele>3656.778</ele>
        <time>2022-12-18T13:33:47Z</time>
      </trkpt>
      <trkpt lat="2.023431" lon="-76.733226">
        <ele>3651.362</ele>
        <time>2022-12-18T13:33:55Z</time>
      </trkpt>
      <trkpt lat="2.023416" lon="-76.733272">
        <ele>3649.480</ele>
        <time>2022-12-18T13:34:03Z</time>
      </trkpt>
      <trkpt lat="2.023388" lon="-76.733228">
        <ele>3649.351</ele>
        <time>2022-12-18T13:34:15Z</time>
      </trkpt>
      <trkpt lat="2.023375" lon="-76.733183">
        <ele>3649.117</ele>
        <time>2022-12-18T13:34:23Z</time>
      </trkpt>
      <trkpt lat="2.023339" lon="-76.733153">
        <ele>3649.354</ele>
        <time>2022-12-18T13:34:32Z</time>
      </trkpt>
      <trkpt lat="2.023336" lon="-76.733107">
        <ele>3649.029</ele>
        <time>2022-12-18T13:34:46Z</time>
      </trkpt>
      <trkpt lat="2.023299" lon="-76.733076">
        <ele>3648.499</ele>
        <time>2022-12-18T13:34:58Z</time>
      </trkpt>
      <trkpt lat="2.023282" lon="-76.733027">
        <ele>3648.307</ele>
        <time>2022-12-18T13:35:03Z</time>
      </trkpt>
      <trkpt lat="2.023242" lon="-76.733001">
        <ele>3646.227</ele>
        <time>2022-12-18T13:35:29Z</time>
      </trkpt>
      <trkpt lat="2.023201" lon="-76.732973">
        <ele>3642.609</ele>
        <time>2022-12-18T13:35:46Z</time>
      </trkpt>
      <trkpt lat="2.023171" lon="-76.732939">
        <ele>3641.210</ele>
        <time>2022-12-18T13:35:57Z</time>
      </trkpt>
      <trkpt lat="2.023147" lon="-76.7329">
        <ele>3639.871</ele>
        <time>2022-12-18T13:36:09Z</time>
      </trkpt>
      <trkpt lat="2.023104" lon="-76.732878">
        <ele>3637.170</ele>
        <time>2022-12-18T13:36:19Z</time>
      </trkpt>
      <trkpt lat="2.023077" lon="-76.732839">
        <ele>3635.434</ele>
        <time>2022-12-18T13:36:32Z</time>
      </trkpt>
      <trkpt lat="2.023068" lon="-76.732793">
        <ele>3631.932</ele>
        <time>2022-12-18T13:36:49Z</time>
      </trkpt>
      <trkpt lat="2.023047" lon="-76.732749">
        <ele>3628.343</ele>
        <time>2022-12-18T13:37:07Z</time>
      </trkpt>
      <trkpt lat="2.022998" lon="-76.732761">
        <ele>3624.679</ele>
        <time>2022-12-18T13:37:36Z</time>
      </trkpt>
      <trkpt lat="2.022952" lon="-76.73276">
        <ele>3623.616</ele>
        <time>2022-12-18T13:38:11Z</time>
      </trkpt>
      <trkpt lat="2.022916" lon="-76.73273">
        <ele>3618.451</ele>
        <time>2022-12-18T13:39:45Z</time>
      </trkpt>
      <trkpt lat="2.022871" lon="-76.732718">
        <ele>3618.275</ele>
        <time>2022-12-18T13:40:06Z</time>
      </trkpt>
      <trkpt lat="2.022825" lon="-76.732714">
        <ele>3618.128</ele>
        <time>2022-12-18T13:40:14Z</time>
      </trkpt>
      <trkpt lat="2.022775" lon="-76.732711">
        <ele>3618.020</ele>
        <time>2022-12-18T13:40:26Z</time>
      </trkpt>
      <trkpt lat="2.02273" lon="-76.732693">
        <ele>3617.809</ele>
        <time>2022-12-18T13:40:34Z</time>
      </trkpt>
      <trkpt lat="2.022693" lon="-76.732666">
        <ele>3602.578</ele>
        <time>2022-12-18T13:40:52Z</time>
      </trkpt>
      <trkpt lat="2.022643" lon="-76.732675">
        <ele>3598.589</ele>
        <time>2022-12-18T13:40:59Z</time>
      </trkpt>
      <trkpt lat="2.02261" lon="-76.732642">
        <ele>3597.348</ele>
        <time>2022-12-18T13:41:16Z</time>
      </trkpt>
      <trkpt lat="2.022565" lon="-76.732658">
        <ele>3596.482</ele>
        <time>2022-12-18T13:41:22Z</time>
      </trkpt>
      <trkpt lat="2.022523" lon="-76.732636">
        <ele>3595.180</ele>
        <time>2022-12-18T13:41:30Z</time>
      </trkpt>
      <trkpt lat="2.0225" lon="-76.732596">
        <ele>3592.261</ele>
        <time>2022-12-18T13:41:43Z</time>
      </trkpt>
      <trkpt lat="2.022472" lon="-76.73256">
        <ele>3591.497</ele>
        <time>2022-12-18T13:41:54Z</time>
      </trkpt>
      <trkpt lat="2.022424" lon="-76.732569">
        <ele>3589.234</ele>
        <time>2022-12-18T13:42:11Z</time>
      </trkpt>
      <trkpt lat="2.022391" lon="-76.732536">
        <ele>3587.819</ele>
        <time>2022-12-18T13:42:16Z</time>
      </trkpt>
      <trkpt lat="2.022354" lon="-76.732509">
        <ele>3584.243</ele>
        <time>2022-12-18T13:42:33Z</time>
      </trkpt>
      <trkpt lat="2.022304" lon="-76.732488">
        <ele>3580.264</ele>
        <time>2022-12-18T13:42:58Z</time>
      </trkpt>
      <trkpt lat="2.022258" lon="-76.73247">
        <ele>3577.610</ele>
        <time>2022-12-18T13:43:07Z</time>
      </trkpt>
      <trkpt lat="2.022216" lon="-76.732452">
        <ele>3575.009</ele>
        <time>2022-12-18T13:43:21Z</time>
      </trkpt>
      <trkpt lat="2.022192" lon="-76.732411">
        <ele>3569.345</ele>
        <time>2022-12-18T13:43:35Z</time>
      </trkpt>
      <trkpt lat="2.022213" lon="-76.732451">
        <ele>3564.676</ele>
        <time>2022-12-18T13:43:51Z</time>
      </trkpt>
      <trkpt lat="2.022182" lon="-76.732413">
        <ele>3562.535</ele>
        <time>2022-12-18T13:43:59Z</time>
      </trkpt>
      <trkpt lat="2.022142" lon="-76.732377">
        <ele>3561.849</ele>
        <time>2022-12-18T13:44:03Z</time>
      </trkpt>
      <trkpt lat="2.022109" lon="-76.732338">
        <ele>3561.497</ele>
        <time>2022-12-18T13:44:08Z</time>
      </trkpt>
      <trkpt lat="2.022066" lon="-76.732322">
        <ele>3560.638</ele>
        <time>2022-12-18T13:44:17Z</time>
      </trkpt>
      <trkpt lat="2.022024" lon="-76.732342">
        <ele>3558.124</ele>
        <time>2022-12-18T13:44:25Z</time>
      </trkpt>
      <trkpt lat="2.021984" lon="-76.732311">
        <ele>3554.351</ele>
        <time>2022-12-18T13:44:33Z</time>
      </trkpt>
      <trkpt lat="2.021949" lon="-76.732349">
        <ele>3549.576</ele>
        <time>2022-12-18T13:44:41Z</time>
      </trkpt>
      <trkpt lat="2.021954" lon="-76.732299">
        <ele>3548.668</ele>
        <time>2022-12-18T13:44:47Z</time>
      </trkpt>
      <trkpt lat="2.021978" lon="-76.732258">
        <ele>3548.442</ele>
        <time>2022-12-18T13:44:50Z</time>
      </trkpt>
      <trkpt lat="2.022022" lon="-76.732228">
        <ele>3548.326</ele>
        <time>2022-12-18T13:44:58Z</time>
      </trkpt>
      <trkpt lat="2.022044" lon="-76.732182">
        <ele>3548.909</ele>
        <time>2022-12-18T13:45:03Z</time>
      </trkpt>
      <trkpt lat="2.022037" lon="-76.732231">
        <ele>3550.357</ele>
        <time>2022-12-18T13:53:14Z</time>
      </trkpt>
      <trkpt lat="2.022008" lon="-76.73227">
        <ele>3549.238</ele>
        <time>2022-12-18T13:53:19Z</time>
      </trkpt>
      <trkpt lat="2.021982" lon="-76.732315">
        <ele>3548.987</ele>
        <time>2022-12-18T13:53:25Z</time>
      </trkpt>
      <trkpt lat="2.021958" lon="-76.732357">
        <ele>3550.291</ele>
        <time>2022-12-18T13:53:37Z</time>
      </trkpt>
      <trkpt lat="2.021927" lon="-76.732393">
        <ele>3550.539</ele>
        <time>2022-12-18T13:53:43Z</time>
      </trkpt>
      <trkpt lat="2.021899" lon="-76.732428">
        <ele>3550.380</ele>
        <time>2022-12-18T13:53:50Z</time>
      </trkpt>
      <trkpt lat="2.021867" lon="-76.732466">
        <ele>3550.136</ele>
        <time>2022-12-18T13:53:57Z</time>
      </trkpt>
      <trkpt lat="2.021838" lon="-76.7325">
        <ele>3550.343</ele>
        <time>2022-12-18T13:54:06Z</time>
      </trkpt>
      <trkpt lat="2.021818" lon="-76.732551">
        <ele>3550.348</ele>
        <time>2022-12-18T13:54:13Z</time>
      </trkpt>
      <trkpt lat="2.021796" lon="-76.732594">
        <ele>3550.014</ele>
        <time>2022-12-18T13:54:23Z</time>
      </trkpt>
      <trkpt lat="2.021782" lon="-76.732638">
        <ele>3549.854</ele>
        <time>2022-12-18T13:54:29Z</time>
      </trkpt>
      <trkpt lat="2.021776" lon="-76.732686">
        <ele>3548.709</ele>
        <time>2022-12-18T13:54:33Z</time>
      </trkpt>
      <trkpt lat="2.021772" lon="-76.732734">
        <ele>3548.509</ele>
        <time>2022-12-18T13:54:40Z</time>
      </trkpt>
      <trkpt lat="2.021771" lon="-76.732795">
        <ele>3548.482</ele>
        <time>2022-12-18T13:54:44Z</time>
      </trkpt>
      <trkpt lat="2.021788" lon="-76.732841">
        <ele>3548.573</ele>
        <time>2022-12-18T13:54:48Z</time>
      </trkpt>
      <trkpt lat="2.021804" lon="-76.732883">
        <ele>3549.812</ele>
        <time>2022-12-18T13:54:56Z</time>
      </trkpt>
      <trkpt lat="2.021846" lon="-76.732923">
        <ele>3550.616</ele>
        <time>2022-12-18T13:55:06Z</time>
      </trkpt>
      <trkpt lat="2.021883" lon="-76.732971">
        <ele>3550.724</ele>
        <time>2022-12-18T13:55:09Z</time>
      </trkpt>
      <trkpt lat="2.021906" lon="-76.733022">
        <ele>3551.055</ele>
        <time>2022-12-18T13:55:13Z</time>
      </trkpt>
      <trkpt lat="2.021904" lon="-76.733068">
        <ele>3551.261</ele>
        <time>2022-12-18T13:55:17Z</time>
      </trkpt>
      <trkpt lat="2.021903" lon="-76.73312">
        <ele>3551.888</ele>
        <time>2022-12-18T13:55:22Z</time>
      </trkpt>
      <trkpt lat="2.021896" lon="-76.733168">
        <ele>3553.313</ele>
        <time>2022-12-18T13:55:28Z</time>
      </trkpt>
      <trkpt lat="2.021879" lon="-76.733212">
        <ele>3553.416</ele>
        <time>2022-12-18T13:55:36Z</time>
      </trkpt>
      <trkpt lat="2.021903" lon="-76.733257">
        <ele>3553.376</ele>
        <time>2022-12-18T13:55:43Z</time>
      </trkpt>
      <trkpt lat="2.021927" lon="-76.733299">
        <ele>3553.213</ele>
        <time>2022-12-18T13:55:48Z</time>
      </trkpt>
      <trkpt lat="2.021922" lon="-76.733353">
        <ele>3552.709</ele>
        <time>2022-12-18T13:55:54Z</time>
      </trkpt>
      <trkpt lat="2.021933" lon="-76.733399">
        <ele>3551.932</ele>
        <time>2022-12-18T13:55:58Z</time>
      </trkpt>
      <trkpt lat="2.021887" lon="-76.73342">
        <ele>3550.693</ele>
        <time>2022-12-18T13:56:06Z</time>
      </trkpt>
      <trkpt lat="2.021842" lon="-76.733412">
        <ele>3550.762</ele>
        <time>2022-12-18T13:56:11Z</time>
      </trkpt>
      <trkpt lat="2.021799" lon="-76.733396">
        <ele>3552.036</ele>
        <time>2022-12-18T13:56:22Z</time>
      </trkpt>
      <trkpt lat="2.02175" lon="-76.73339">
        <ele>3551.814</ele>
        <time>2022-12-18T13:56:30Z</time>
      </trkpt>
      <trkpt lat="2.02172" lon="-76.733439">
        <ele>3552.045</ele>
        <time>2022-12-18T13:56:35Z</time>
      </trkpt>
      <trkpt lat="2.021695" lon="-76.733481">
        <ele>3552.771</ele>
        <time>2022-12-18T13:56:39Z</time>
      </trkpt>
      <trkpt lat="2.021675" lon="-76.733522">
        <ele>3552.718</ele>
        <time>2022-12-18T13:56:43Z</time>
      </trkpt>
      <trkpt lat="2.021653" lon="-76.733565">
        <ele>3552.783</ele>
        <time>2022-12-18T13:56:48Z</time>
      </trkpt>
      <trkpt lat="2.021623" lon="-76.733607">
        <ele>3552.348</ele>
        <time>2022-12-18T13:56:53Z</time>
      </trkpt>
      <trkpt lat="2.021596" lon="-76.733649">
        <ele>3552.261</ele>
        <time>2022-12-18T13:56:58Z</time>
      </trkpt>
      <trkpt lat="2.021618" lon="-76.73369">
        <ele>3552.117</ele>
        <time>2022-12-18T13:57:03Z</time>
      </trkpt>
      <trkpt lat="2.021615" lon="-76.733745">
        <ele>3551.609</ele>
        <time>2022-12-18T13:57:07Z</time>
      </trkpt>
      <trkpt lat="2.021609" lon="-76.733806">
        <ele>3551.495</ele>
        <time>2022-12-18T13:57:10Z</time>
      </trkpt>
      <trkpt lat="2.021617" lon="-76.733852">
        <ele>3551.276</ele>
        <time>2022-12-18T13:57:13Z</time>
      </trkpt>
      <trkpt lat="2.021657" lon="-76.733882">
        <ele>3551.435</ele>
        <time>2022-12-18T13:57:22Z</time>
      </trkpt>
      <trkpt lat="2.021664" lon="-76.733936">
        <ele>3551.439</ele>
        <time>2022-12-18T13:57:26Z</time>
      </trkpt>
      <trkpt lat="2.021665" lon="-76.73399">
        <ele>3551.447</ele>
        <time>2022-12-18T13:57:29Z</time>
      </trkpt>
      <trkpt lat="2.021669" lon="-76.734039">
        <ele>3551.448</ele>
        <time>2022-12-18T13:57:31Z</time>
      </trkpt>
      <trkpt lat="2.021682" lon="-76.734085">
        <ele>3551.384</ele>
        <time>2022-12-18T13:57:33Z</time>
      </trkpt>
      <trkpt lat="2.021712" lon="-76.734123">
        <ele>3550.681</ele>
        <time>2022-12-18T13:57:36Z</time>
      </trkpt>
      <trkpt lat="2.021736" lon="-76.734163">
        <ele>3550.146</ele>
        <time>2022-12-18T13:57:53Z</time>
      </trkpt>
      <trkpt lat="2.021749" lon="-76.734208">
        <ele>3550.071</ele>
        <time>2022-12-18T13:57:59Z</time>
      </trkpt>
      <trkpt lat="2.021785" lon="-76.734243">
        <ele>3549.941</ele>
        <time>2022-12-18T13:58:03Z</time>
      </trkpt>
      <trkpt lat="2.021832" lon="-76.734258">
        <ele>3549.915</ele>
        <time>2022-12-18T13:58:07Z</time>
      </trkpt>
      <trkpt lat="2.021874" lon="-76.734297">
        <ele>3549.909</ele>
        <time>2022-12-18T13:58:11Z</time>
      </trkpt>
      <trkpt lat="2.021894" lon="-76.734342">
        <ele>3549.318</ele>
        <time>2022-12-18T13:58:15Z</time>
      </trkpt>
      <trkpt lat="2.021899" lon="-76.734398">
        <ele>3549.049</ele>
        <time>2022-12-18T13:58:18Z</time>
      </trkpt>
      <trkpt lat="2.02191" lon="-76.734455">
        <ele>3548.068</ele>
        <time>2022-12-18T13:58:21Z</time>
      </trkpt>
      <trkpt lat="2.021905" lon="-76.734502">
        <ele>3547.452</ele>
        <time>2022-12-18T13:58:32Z</time>
      </trkpt>
      <trkpt lat="2.021925" lon="-76.734545">
        <ele>3547.340</ele>
        <time>2022-12-18T13:58:37Z</time>
      </trkpt>
      <trkpt lat="2.021956" lon="-76.734579">
        <ele>3547.031</ele>
        <time>2022-12-18T13:58:40Z</time>
      </trkpt>
      <trkpt lat="2.021991" lon="-76.734616">
        <ele>3546.697</ele>
        <time>2022-12-18T13:58:50Z</time>
      </trkpt>
      <trkpt lat="2.022012" lon="-76.734661">
        <ele>3545.824</ele>
        <time>2022-12-18T13:58:53Z</time>
      </trkpt>
      <trkpt lat="2.022013" lon="-76.734715">
        <ele>3544.189</ele>
        <time>2022-12-18T13:58:58Z</time>
      </trkpt>
      <trkpt lat="2.022006" lon="-76.734763">
        <ele>3543.511</ele>
        <time>2022-12-18T13:59:05Z</time>
      </trkpt>
      <trkpt lat="2.021998" lon="-76.734814">
        <ele>3543.321</ele>
        <time>2022-12-18T13:59:11Z</time>
      </trkpt>
      <trkpt lat="2.021988" lon="-76.734861">
        <ele>3543.003</ele>
        <time>2022-12-18T13:59:17Z</time>
      </trkpt>
      <trkpt lat="2.021987" lon="-76.734909">
        <ele>3542.609</ele>
        <time>2022-12-18T13:59:25Z</time>
      </trkpt>
      <trkpt lat="2.022005" lon="-76.734961">
        <ele>3542.852</ele>
        <time>2022-12-18T13:59:30Z</time>
      </trkpt>
      <trkpt lat="2.02201" lon="-76.735013">
        <ele>3542.883</ele>
        <time>2022-12-18T13:59:33Z</time>
      </trkpt>
      <trkpt lat="2.022025" lon="-76.735058">
        <ele>3542.792</ele>
        <time>2022-12-18T13:59:36Z</time>
      </trkpt>
      <trkpt lat="2.022012" lon="-76.735108">
        <ele>3542.826</ele>
        <time>2022-12-18T13:59:46Z</time>
      </trkpt>
      <trkpt lat="2.021996" lon="-76.735165">
        <ele>3542.984</ele>
        <time>2022-12-18T13:59:57Z</time>
      </trkpt>
      <trkpt lat="2.021988" lon="-76.73521">
        <ele>3542.835</ele>
        <time>2022-12-18T13:59:59Z</time>
      </trkpt>
      <trkpt lat="2.021987" lon="-76.735261">
        <ele>3542.651</ele>
        <time>2022-12-18T14:00:04Z</time>
      </trkpt>
      <trkpt lat="2.021989" lon="-76.735308">
        <ele>3542.748</ele>
        <time>2022-12-18T14:00:11Z</time>
      </trkpt>
      <trkpt lat="2.021999" lon="-76.735353">
        <ele>3542.693</ele>
        <time>2022-12-18T14:00:17Z</time>
      </trkpt>
      <trkpt lat="2.022006" lon="-76.735398">
        <ele>3542.818</ele>
        <time>2022-12-18T14:00:26Z</time>
      </trkpt>
      <trkpt lat="2.022037" lon="-76.735434">
        <ele>3543.898</ele>
        <time>2022-12-18T14:00:42Z</time>
      </trkpt>
      <trkpt lat="2.022052" lon="-76.735487">
        <ele>3544.017</ele>
        <time>2022-12-18T14:00:48Z</time>
      </trkpt>
      <trkpt lat="2.02208" lon="-76.73553">
        <ele>3544.009</ele>
        <time>2022-12-18T14:00:57Z</time>
      </trkpt>
      <trkpt lat="2.022113" lon="-76.735572">
        <ele>3544.022</ele>
        <time>2022-12-18T14:01:03Z</time>
      </trkpt>
      <trkpt lat="2.022147" lon="-76.73561">
        <ele>3544.063</ele>
        <time>2022-12-18T14:01:08Z</time>
      </trkpt>
      <trkpt lat="2.022167" lon="-76.735656">
        <ele>3543.442</ele>
        <time>2022-12-18T14:01:16Z</time>
      </trkpt>
      <trkpt lat="2.022153" lon="-76.735702">
        <ele>3543.546</ele>
        <time>2022-12-18T14:01:24Z</time>
      </trkpt>
      <trkpt lat="2.022153" lon="-76.735749">
        <ele>3543.674</ele>
        <time>2022-12-18T14:01:36Z</time>
      </trkpt>
      <trkpt lat="2.022158" lon="-76.735799">
        <ele>3543.765</ele>
        <time>2022-12-18T14:01:41Z</time>
      </trkpt>
      <trkpt lat="2.022178" lon="-76.735842">
        <ele>3543.731</ele>
        <time>2022-12-18T14:01:49Z</time>
      </trkpt>
      <trkpt lat="2.022176" lon="-76.735895">
        <ele>3543.868</ele>
        <time>2022-12-18T14:01:58Z</time>
      </trkpt>
      <trkpt lat="2.022214" lon="-76.735926">
        <ele>3543.843</ele>
        <time>2022-12-18T14:02:03Z</time>
      </trkpt>
      <trkpt lat="2.02225" lon="-76.73597">
        <ele>3543.656</ele>
        <time>2022-12-18T14:02:11Z</time>
      </trkpt>
      <trkpt lat="2.022266" lon="-76.736014">
        <ele>3542.759</ele>
        <time>2022-12-18T14:02:22Z</time>
      </trkpt>
      <trkpt lat="2.0223" lon="-76.736056">
        <ele>3542.414</ele>
        <time>2022-12-18T14:02:29Z</time>
      </trkpt>
      <trkpt lat="2.022295" lon="-76.736101">
        <ele>3542.309</ele>
        <time>2022-12-18T14:02:40Z</time>
      </trkpt>
      <trkpt lat="2.022304" lon="-76.736148">
        <ele>3542.386</ele>
        <time>2022-12-18T14:02:47Z</time>
      </trkpt>
      <trkpt lat="2.022319" lon="-76.736191">
        <ele>3542.347</ele>
        <time>2022-12-18T14:02:52Z</time>
      </trkpt>
      <trkpt lat="2.022332" lon="-76.736236">
        <ele>3541.926</ele>
        <time>2022-12-18T14:02:59Z</time>
      </trkpt>
      <trkpt lat="2.022356" lon="-76.736275">
        <ele>3540.950</ele>
        <time>2022-12-18T14:03:11Z</time>
      </trkpt>
      <trkpt lat="2.022372" lon="-76.736319">
        <ele>3540.398</ele>
        <time>2022-12-18T14:03:18Z</time>
      </trkpt>
      <trkpt lat="2.0224" lon="-76.736362">
        <ele>3539.869</ele>
        <time>2022-12-18T14:03:26Z</time>
      </trkpt>
      <trkpt lat="2.022414" lon="-76.736407">
        <ele>3538.725</ele>
        <time>2022-12-18T14:03:35Z</time>
      </trkpt>
      <trkpt lat="2.022418" lon="-76.736452">
        <ele>3538.832</ele>
        <time>2022-12-18T14:03:43Z</time>
      </trkpt>
      <trkpt lat="2.022417" lon="-76.736501">
        <ele>3537.957</ele>
        <time>2022-12-18T14:03:50Z</time>
      </trkpt>
      <trkpt lat="2.022431" lon="-76.736549">
        <ele>3537.247</ele>
        <time>2022-12-18T14:03:57Z</time>
      </trkpt>
      <trkpt lat="2.022415" lon="-76.736595">
        <ele>3536.229</ele>
        <time>2022-12-18T14:04:04Z</time>
      </trkpt>
      <trkpt lat="2.022424" lon="-76.736642">
        <ele>3535.221</ele>
        <time>2022-12-18T14:04:11Z</time>
      </trkpt>
      <trkpt lat="2.022427" lon="-76.736689">
        <ele>3533.709</ele>
        <time>2022-12-18T14:04:15Z</time>
      </trkpt>
      <trkpt lat="2.022447" lon="-76.736734">
        <ele>3532.815</ele>
        <time>2022-12-18T14:04:19Z</time>
      </trkpt>
      <trkpt lat="2.02247" lon="-76.736774">
        <ele>3531.076</ele>
        <time>2022-12-18T14:04:24Z</time>
      </trkpt>
      <trkpt lat="2.022496" lon="-76.736823">
        <ele>3530.115</ele>
        <time>2022-12-18T14:04:28Z</time>
      </trkpt>
      <trkpt lat="2.022525" lon="-76.73686">
        <ele>3529.839</ele>
        <time>2022-12-18T14:04:31Z</time>
      </trkpt>
      <trkpt lat="2.022549" lon="-76.736899">
        <ele>3529.627</ele>
        <time>2022-12-18T14:04:39Z</time>
      </trkpt>
      <trkpt lat="2.022582" lon="-76.736938">
        <ele>3529.088</ele>
        <time>2022-12-18T14:04:53Z</time>
      </trkpt>
      <trkpt lat="2.022606" lon="-76.736977">
        <ele>3528.414</ele>
        <time>2022-12-18T14:05:01Z</time>
      </trkpt>
      <trkpt lat="2.022579" lon="-76.73702">
        <ele>3528.181</ele>
        <time>2022-12-18T14:05:08Z</time>
      </trkpt>
      <trkpt lat="2.022536" lon="-76.737033">
        <ele>3528.176</ele>
        <time>2022-12-18T14:05:16Z</time>
      </trkpt>
      <trkpt lat="2.02249" lon="-76.737045">
        <ele>3528.076</ele>
        <time>2022-12-18T14:05:32Z</time>
      </trkpt>
      <trkpt lat="2.022452" lon="-76.73707">
        <ele>3526.790</ele>
        <time>2022-12-18T14:05:51Z</time>
      </trkpt>
      <trkpt lat="2.022401" lon="-76.737084">
        <ele>3526.219</ele>
        <time>2022-12-18T14:05:56Z</time>
      </trkpt>
      <trkpt lat="2.022339" lon="-76.737078">
        <ele>3526.209</ele>
        <time>2022-12-18T14:06:00Z</time>
      </trkpt>
      <trkpt lat="2.022291" lon="-76.737066">
        <ele>3525.718</ele>
        <time>2022-12-18T14:06:02Z</time>
      </trkpt>
      <trkpt lat="2.02223" lon="-76.737062">
        <ele>3524.379</ele>
        <time>2022-12-18T14:06:04Z</time>
      </trkpt>
      <trkpt lat="2.022177" lon="-76.737062">
        <ele>3520.188</ele>
        <time>2022-12-18T14:06:07Z</time>
      </trkpt>
      <trkpt lat="2.02213" lon="-76.737073">
        <ele>3519.212</ele>
        <time>2022-12-18T14:06:10Z</time>
      </trkpt>
      <trkpt lat="2.022082" lon="-76.737079">
        <ele>3515.250</ele>
        <time>2022-12-18T14:06:13Z</time>
      </trkpt>
      <trkpt lat="2.022027" lon="-76.737078">
        <ele>3514.361</ele>
        <time>2022-12-18T14:06:16Z</time>
      </trkpt>
      <trkpt lat="2.021963" lon="-76.737077">
        <ele>3511.997</ele>
        <time>2022-12-18T14:06:19Z</time>
      </trkpt>
      <trkpt lat="2.021908" lon="-76.737087">
        <ele>3510.884</ele>
        <time>2022-12-18T14:06:21Z</time>
      </trkpt>
      <trkpt lat="2.021861" lon="-76.737098">
        <ele>3509.439</ele>
        <time>2022-12-18T14:06:23Z</time>
      </trkpt>
      <trkpt lat="2.021815" lon="-76.737098">
        <ele>3508.067</ele>
        <time>2022-12-18T14:06:27Z</time>
      </trkpt>
      <trkpt lat="2.021766" lon="-76.7371">
        <ele>3506.881</ele>
        <time>2022-12-18T14:06:44Z</time>
      </trkpt>
      <trkpt lat="2.021714" lon="-76.737098">
        <ele>3506.419</ele>
        <time>2022-12-18T14:06:49Z</time>
      </trkpt>
      <trkpt lat="2.021667" lon="-76.737097">
        <ele>3506.009</ele>
        <time>2022-12-18T14:06:54Z</time>
      </trkpt>
      <trkpt lat="2.021621" lon="-76.737101">
        <ele>3505.477</ele>
        <time>2022-12-18T14:07:00Z</time>
      </trkpt>
      <trkpt lat="2.021559" lon="-76.737071">
        <ele>3505.298</ele>
        <time>2022-12-18T14:07:05Z</time>
      </trkpt>
      <trkpt lat="2.021491" lon="-76.737059">
        <ele>3504.237</ele>
        <time>2022-12-18T14:07:08Z</time>
      </trkpt>
      <trkpt lat="2.021444" lon="-76.737061">
        <ele>3503.721</ele>
        <time>2022-12-18T14:07:10Z</time>
      </trkpt>
      <trkpt lat="2.021383" lon="-76.737067">
        <ele>3502.489</ele>
        <time>2022-12-18T14:07:14Z</time>
      </trkpt>
      <trkpt lat="2.021329" lon="-76.737067">
        <ele>3501.580</ele>
        <time>2022-12-18T14:07:17Z</time>
      </trkpt>
      <trkpt lat="2.021272" lon="-76.737075">
        <ele>3501.236</ele>
        <time>2022-12-18T14:07:20Z</time>
      </trkpt>
      <trkpt lat="2.021229" lon="-76.73706">
        <ele>3497.863</ele>
        <time>2022-12-18T14:07:36Z</time>
      </trkpt>
      <trkpt lat="2.021185" lon="-76.73708">
        <ele>3497.618</ele>
        <time>2022-12-18T14:07:42Z</time>
      </trkpt>
      <trkpt lat="2.021139" lon="-76.737088">
        <ele>3497.527</ele>
        <time>2022-12-18T14:07:50Z</time>
      </trkpt>
      <trkpt lat="2.021095" lon="-76.737073">
        <ele>3497.468</ele>
        <time>2022-12-18T14:07:56Z</time>
      </trkpt>
      <trkpt lat="2.021059" lon="-76.737114">
        <ele>3496.914</ele>
        <time>2022-12-18T14:08:13Z</time>
      </trkpt>
      <trkpt lat="2.021028" lon="-76.73715">
        <ele>3496.409</ele>
        <time>2022-12-18T14:08:16Z</time>
      </trkpt>
      <trkpt lat="2.021002" lon="-76.737188">
        <ele>3495.563</ele>
        <time>2022-12-18T14:08:41Z</time>
      </trkpt>
      <trkpt lat="2.020967" lon="-76.737226">
        <ele>3495.094</ele>
        <time>2022-12-18T14:08:55Z</time>
      </trkpt>
      <trkpt lat="2.020923" lon="-76.737244">
        <ele>3494.433</ele>
        <time>2022-12-18T14:09:05Z</time>
      </trkpt>
      <trkpt lat="2.020888" lon="-76.737215">
        <ele>3494.027</ele>
        <time>2022-12-18T14:09:12Z</time>
      </trkpt>
      <trkpt lat="2.02086" lon="-76.737168">
        <ele>3492.695</ele>
        <time>2022-12-18T14:09:18Z</time>
      </trkpt>
      <trkpt lat="2.020816" lon="-76.737145">
        <ele>3489.226</ele>
        <time>2022-12-18T14:09:25Z</time>
      </trkpt>
      <trkpt lat="2.020788" lon="-76.737183">
        <ele>3488.962</ele>
        <time>2022-12-18T14:09:31Z</time>
      </trkpt>
      <trkpt lat="2.020763" lon="-76.737221">
        <ele>3487.559</ele>
        <time>2022-12-18T14:09:36Z</time>
      </trkpt>
      <trkpt lat="2.02073" lon="-76.737271">
        <ele>3486.064</ele>
        <time>2022-12-18T14:09:42Z</time>
      </trkpt>
      <trkpt lat="2.020701" lon="-76.737312">
        <ele>3485.611</ele>
        <time>2022-12-18T14:09:46Z</time>
      </trkpt>
      <trkpt lat="2.02067" lon="-76.737348">
        <ele>3482.421</ele>
        <time>2022-12-18T14:09:59Z</time>
      </trkpt>
      <trkpt lat="2.020642" lon="-76.737387">
        <ele>3481.603</ele>
        <time>2022-12-18T14:10:13Z</time>
      </trkpt>
      <trkpt lat="2.020593" lon="-76.737394">
        <ele>3481.009</ele>
        <time>2022-12-18T14:10:24Z</time>
      </trkpt>
      <trkpt lat="2.020544" lon="-76.737409">
        <ele>3480.712</ele>
        <time>2022-12-18T14:10:29Z</time>
      </trkpt>
      <trkpt lat="2.020513" lon="-76.737446">
        <ele>3480.153</ele>
        <time>2022-12-18T14:10:37Z</time>
      </trkpt>
      <trkpt lat="2.020471" lon="-76.737468">
        <ele>3478.572</ele>
        <time>2022-12-18T14:10:45Z</time>
      </trkpt>
      <trkpt lat="2.020431" lon="-76.737495">
        <ele>3476.126</ele>
        <time>2022-12-18T14:10:54Z</time>
      </trkpt>
      <trkpt lat="2.020381" lon="-76.737499">
        <ele>3474.344</ele>
        <time>2022-12-18T14:10:59Z</time>
      </trkpt>
      <trkpt lat="2.020347" lon="-76.737536">
        <ele>3472.525</ele>
        <time>2022-12-18T14:11:04Z</time>
      </trkpt>
      <trkpt lat="2.020299" lon="-76.737559">
        <ele>3471.541</ele>
        <time>2022-12-18T14:11:15Z</time>
      </trkpt>
      <trkpt lat="2.020253" lon="-76.737571">
        <ele>3469.368</ele>
        <time>2022-12-18T14:11:27Z</time>
      </trkpt>
      <trkpt lat="2.020207" lon="-76.737586">
        <ele>3468.843</ele>
        <time>2022-12-18T14:11:34Z</time>
      </trkpt>
      <trkpt lat="2.020156" lon="-76.737586">
        <ele>3468.744</ele>
        <time>2022-12-18T14:11:42Z</time>
      </trkpt>
      <trkpt lat="2.020114" lon="-76.73756">
        <ele>3468.905</ele>
        <time>2022-12-18T14:11:49Z</time>
      </trkpt>
      <trkpt lat="2.020066" lon="-76.737549">
        <ele>3468.415</ele>
        <time>2022-12-18T14:11:57Z</time>
      </trkpt>
      <trkpt lat="2.020019" lon="-76.737554">
        <ele>3467.809</ele>
        <time>2022-12-18T14:12:02Z</time>
      </trkpt>
      <trkpt lat="2.019968" lon="-76.737546">
        <ele>3467.835</ele>
        <time>2022-12-18T14:12:12Z</time>
      </trkpt>
      <trkpt lat="2.01993" lon="-76.737571">
        <ele>3464.676</ele>
        <time>2022-12-18T14:12:37Z</time>
      </trkpt>
      <trkpt lat="2.019885" lon="-76.737558">
        <ele>3463.435</ele>
        <time>2022-12-18T14:12:45Z</time>
      </trkpt>
      <trkpt lat="2.019839" lon="-76.737575">
        <ele>3459.479</ele>
        <time>2022-12-18T14:13:17Z</time>
      </trkpt>
      <trkpt lat="2.019796" lon="-76.737555">
        <ele>3456.837</ele>
        <time>2022-12-18T14:13:37Z</time>
      </trkpt>
      <trkpt lat="2.019758" lon="-76.737531">
        <ele>3456.668</ele>
        <time>2022-12-18T14:13:45Z</time>
      </trkpt>
      <trkpt lat="2.019728" lon="-76.737489">
        <ele>3456.334</ele>
        <time>2022-12-18T14:13:57Z</time>
      </trkpt>
      <trkpt lat="2.019694" lon="-76.737456">
        <ele>3455.491</ele>
        <time>2022-12-18T14:14:03Z</time>
      </trkpt>
      <trkpt lat="2.019703" lon="-76.737411">
        <ele>3455.256</ele>
        <time>2022-12-18T14:14:13Z</time>
      </trkpt>
      <trkpt lat="2.019648" lon="-76.737405">
        <ele>3454.874</ele>
        <time>2022-12-18T14:14:18Z</time>
      </trkpt>
      <trkpt lat="2.019592" lon="-76.737399">
        <ele>3453.856</ele>
        <time>2022-12-18T14:14:23Z</time>
      </trkpt>
      <trkpt lat="2.019543" lon="-76.737412">
        <ele>3452.021</ele>
        <time>2022-12-18T14:14:28Z</time>
      </trkpt>
      <trkpt lat="2.019511" lon="-76.737451">
        <ele>3451.909</ele>
        <time>2022-12-18T14:14:32Z</time>
      </trkpt>
      <trkpt lat="2.019516" lon="-76.737506">
        <ele>3450.788</ele>
        <time>2022-12-18T14:16:42Z</time>
      </trkpt>
      <trkpt lat="2.019534" lon="-76.73755">
        <ele>3450.779</ele>
        <time>2022-12-18T14:16:46Z</time>
      </trkpt>
      <trkpt lat="2.019565" lon="-76.737584">
        <ele>3450.718</ele>
        <time>2022-12-18T14:16:52Z</time>
      </trkpt>
      <trkpt lat="2.019568" lon="-76.737636">
        <ele>3450.532</ele>
        <time>2022-12-18T14:16:59Z</time>
      </trkpt>
      <trkpt lat="2.019554" lon="-76.737684">
        <ele>3450.260</ele>
        <time>2022-12-18T14:17:14Z</time>
      </trkpt>
      <trkpt lat="2.019549" lon="-76.737739">
        <ele>3446.841</ele>
        <time>2022-12-18T14:17:24Z</time>
      </trkpt>
      <trkpt lat="2.019575" lon="-76.73779">
        <ele>3446.697</ele>
        <time>2022-12-18T14:17:26Z</time>
      </trkpt>
      <trkpt lat="2.019619" lon="-76.737822">
        <ele>3446.414</ele>
        <time>2022-12-18T14:17:32Z</time>
      </trkpt>
      <trkpt lat="2.01966" lon="-76.737861">
        <ele>3446.189</ele>
        <time>2022-12-18T14:17:36Z</time>
      </trkpt>
      <trkpt lat="2.019673" lon="-76.737924">
        <ele>3445.369</ele>
        <time>2022-12-18T14:17:45Z</time>
      </trkpt>
      <trkpt lat="2.019704" lon="-76.737971">
        <ele>3444.604</ele>
        <time>2022-12-18T14:17:48Z</time>
      </trkpt>
      <trkpt lat="2.019725" lon="-76.738016">
        <ele>3445.224</ele>
        <time>2022-12-18T14:17:51Z</time>
      </trkpt>
      <trkpt lat="2.019757" lon="-76.73805">
        <ele>3444.209</ele>
        <time>2022-12-18T14:17:56Z</time>
      </trkpt>
      <trkpt lat="2.019775" lon="-76.7381">
        <ele>3443.937</ele>
        <time>2022-12-18T14:18:01Z</time>
      </trkpt>
      <trkpt lat="2.019773" lon="-76.73816">
        <ele>3443.318</ele>
        <time>2022-12-18T14:18:04Z</time>
      </trkpt>
      <trkpt lat="2.019795" lon="-76.738212">
        <ele>3441.387</ele>
        <time>2022-12-18T14:18:07Z</time>
      </trkpt>
      <trkpt lat="2.019798" lon="-76.738263">
        <ele>3439.751</ele>
        <time>2022-12-18T14:18:12Z</time>
      </trkpt>
      <trkpt lat="2.019808" lon="-76.738311">
        <ele>3438.669</ele>
        <time>2022-12-18T14:18:17Z</time>
      </trkpt>
      <trkpt lat="2.019793" lon="-76.738357">
        <ele>3438.340</ele>
        <time>2022-12-18T14:18:25Z</time>
      </trkpt>
      <trkpt lat="2.01981" lon="-76.738405">
        <ele>3438.126</ele>
        <time>2022-12-18T14:18:48Z</time>
      </trkpt>
      <trkpt lat="2.019833" lon="-76.738455">
        <ele>3438.143</ele>
        <time>2022-12-18T14:18:52Z</time>
      </trkpt>
      <trkpt lat="2.019853" lon="-76.738501">
        <ele>3438.188</ele>
        <time>2022-12-18T14:18:57Z</time>
      </trkpt>
      <trkpt lat="2.019854" lon="-76.738553">
        <ele>3438.048</ele>
        <time>2022-12-18T14:19:06Z</time>
      </trkpt>
      <trkpt lat="2.019821" lon="-76.738591">
        <ele>3435.461</ele>
        <time>2022-12-18T14:19:25Z</time>
      </trkpt>
      <trkpt lat="2.019775" lon="-76.738623">
        <ele>3435.117</ele>
        <time>2022-12-18T14:19:39Z</time>
      </trkpt>
      <trkpt lat="2.019736" lon="-76.738666">
        <ele>3434.909</ele>
        <time>2022-12-18T14:19:46Z</time>
      </trkpt>
      <trkpt lat="2.01971" lon="-76.738719">
        <ele>3434.965</ele>
        <time>2022-12-18T14:19:48Z</time>
      </trkpt>
      <trkpt lat="2.0197" lon="-76.738778">
        <ele>3434.376</ele>
        <time>2022-12-18T14:19:52Z</time>
      </trkpt>
      <trkpt lat="2.019663" lon="-76.73881">
        <ele>3431.575</ele>
        <time>2022-12-18T14:19:58Z</time>
      </trkpt>
      <trkpt lat="2.019616" lon="-76.738816">
        <ele>3425.559</ele>
        <time>2022-12-18T14:20:06Z</time>
      </trkpt>
      <trkpt lat="2.019616" lon="-76.738816">
        <ele>3425.517</ele>
        <time>2022-12-18T14:20:06Z</time>
      </trkpt>
      <trkpt lat="2.019616" lon="-76.738816">
        <ele>3425.588</ele>
        <time>2022-12-18T14:20:06Z</time>
      </trkpt>
      <trkpt lat="2.019572" lon="-76.738802">
        <ele>3421.344</ele>
        <time>2022-12-18T14:20:09Z</time>
      </trkpt>
      <trkpt lat="2.01953" lon="-76.738773">
        <ele>3419.041</ele>
        <time>2022-12-18T14:20:15Z</time>
      </trkpt>
      <trkpt lat="2.019485" lon="-76.738749">
        <ele>3418.236</ele>
        <time>2022-12-18T14:20:19Z</time>
      </trkpt>
      <trkpt lat="2.019444" lon="-76.738781">
        <ele>3417.778</ele>
        <time>2022-12-18T14:20:27Z</time>
      </trkpt>
      <trkpt lat="2.019421" lon="-76.73883">
        <ele>3417.533</ele>
        <time>2022-12-18T14:20:30Z</time>
      </trkpt>
      <trkpt lat="2.019375" lon="-76.738851">
        <ele>3417.526</ele>
        <time>2022-12-18T14:20:34Z</time>
      </trkpt>
      <trkpt lat="2.019329" lon="-76.738828">
        <ele>3417.509</ele>
        <time>2022-12-18T14:20:37Z</time>
      </trkpt>
      <trkpt lat="2.019307" lon="-76.73878">
        <ele>3417.528</ele>
        <time>2022-12-18T14:20:40Z</time>
      </trkpt>
      <trkpt lat="2.019264" lon="-76.738751">
        <ele>3417.319</ele>
        <time>2022-12-18T14:20:44Z</time>
      </trkpt>
      <trkpt lat="2.019215" lon="-76.738792">
        <ele>3417.548</ele>
        <time>2022-12-18T14:20:47Z</time>
      </trkpt>
      <trkpt lat="2.019199" lon="-76.738839">
        <ele>3417.572</ele>
        <time>2022-12-18T14:20:49Z</time>
      </trkpt>
      <trkpt lat="2.019199" lon="-76.738896">
        <ele>3417.240</ele>
        <time>2022-12-18T14:20:52Z</time>
      </trkpt>
      <trkpt lat="2.019235" lon="-76.738926">
        <ele>3416.621</ele>
        <time>2022-12-18T14:20:57Z</time>
      </trkpt>
      <trkpt lat="2.019275" lon="-76.738986">
        <ele>3417.247</ele>
        <time>2022-12-18T14:21:01Z</time>
      </trkpt>
      <trkpt lat="2.019311" lon="-76.739037">
        <ele>3416.634</ele>
        <time>2022-12-18T14:21:04Z</time>
      </trkpt>
      <trkpt lat="2.019339" lon="-76.739081">
        <ele>3415.089</ele>
        <time>2022-12-18T14:21:09Z</time>
      </trkpt>
      <trkpt lat="2.019339" lon="-76.739081">
        <ele>3415.057</ele>
        <time>2022-12-18T14:21:09Z</time>
      </trkpt>
      <trkpt lat="2.019339" lon="-76.739081">
        <ele>3415.000</ele>
        <time>2022-12-18T14:21:09Z</time>
      </trkpt>
      <trkpt lat="2.019313" lon="-76.739124">
        <ele>3414.020</ele>
        <time>2022-12-18T14:21:14Z</time>
      </trkpt>
      <trkpt lat="2.019268" lon="-76.739122">
        <ele>3411.709</ele>
        <time>2022-12-18T14:21:16Z</time>
      </trkpt>
      <trkpt lat="2.019212" lon="-76.739119">
        <ele>3409.916</ele>
        <time>2022-12-18T14:21:19Z</time>
      </trkpt>
      <trkpt lat="2.019151" lon="-76.73911">
        <ele>3409.777</ele>
        <time>2022-12-18T14:21:22Z</time>
      </trkpt>
      <trkpt lat="2.01909" lon="-76.7391">
        <ele>3409.526</ele>
        <time>2022-12-18T14:21:24Z</time>
      </trkpt>
      <trkpt lat="2.01904" lon="-76.739084">
        <ele>3409.120</ele>
        <time>2022-12-18T14:21:27Z</time>
      </trkpt>
      <trkpt lat="2.018984" lon="-76.73906">
        <ele>3408.428</ele>
        <time>2022-12-18T14:21:30Z</time>
      </trkpt>
      <trkpt lat="2.018927" lon="-76.739036">
        <ele>3406.889</ele>
        <time>2022-12-18T14:21:33Z</time>
      </trkpt>
      <trkpt lat="2.01887" lon="-76.739043">
        <ele>3403.985</ele>
        <time>2022-12-18T14:21:46Z</time>
      </trkpt>
      <trkpt lat="2.018873" lon="-76.739108">
        <ele>3402.782</ele>
        <time>2022-12-18T14:21:49Z</time>
      </trkpt>
      <trkpt lat="2.018893" lon="-76.73916">
        <ele>3401.067</ele>
        <time>2022-12-18T14:21:52Z</time>
      </trkpt>
      <trkpt lat="2.018915" lon="-76.739201">
        <ele>3400.341</ele>
        <time>2022-12-18T14:21:54Z</time>
      </trkpt>
      <trkpt lat="2.01894" lon="-76.739246">
        <ele>3398.681</ele>
        <time>2022-12-18T14:21:57Z</time>
      </trkpt>
      <trkpt lat="2.01895" lon="-76.739291">
        <ele>3397.909</ele>
        <time>2022-12-18T14:22:02Z</time>
      </trkpt>
      <trkpt lat="2.018957" lon="-76.739338">
        <ele>3397.709</ele>
        <time>2022-12-18T14:22:08Z</time>
      </trkpt>
      <trkpt lat="2.018953" lon="-76.739387">
        <ele>3397.465</ele>
        <time>2022-12-18T14:22:14Z</time>
      </trkpt>
      <trkpt lat="2.018975" lon="-76.739438">
        <ele>3396.966</ele>
        <time>2022-12-18T14:22:19Z</time>
      </trkpt>
      <trkpt lat="2.019002" lon="-76.739476">
        <ele>3396.195</ele>
        <time>2022-12-18T14:22:21Z</time>
      </trkpt>
      <trkpt lat="2.01903" lon="-76.739531">
        <ele>3395.159</ele>
        <time>2022-12-18T14:22:24Z</time>
      </trkpt>
      <trkpt lat="2.019072" lon="-76.73955">
        <ele>3394.657</ele>
        <time>2022-12-18T14:22:30Z</time>
      </trkpt>
      <trkpt lat="2.019097" lon="-76.739601">
        <ele>3394.448</ele>
        <time>2022-12-18T14:22:37Z</time>
      </trkpt>
      <trkpt lat="2.019062" lon="-76.739654">
        <ele>3394.044</ele>
        <time>2022-12-18T14:22:41Z</time>
      </trkpt>
      <trkpt lat="2.01902" lon="-76.739671">
        <ele>3393.711</ele>
        <time>2022-12-18T14:22:43Z</time>
      </trkpt>
      <trkpt lat="2.018971" lon="-76.739689">
        <ele>3393.546</ele>
        <time>2022-12-18T14:22:45Z</time>
      </trkpt>
      <trkpt lat="2.018896" lon="-76.739711">
        <ele>3392.414</ele>
        <time>2022-12-18T14:22:47Z</time>
      </trkpt>
      <trkpt lat="2.018822" lon="-76.739725">
        <ele>3390.854</ele>
        <time>2022-12-18T14:22:49Z</time>
      </trkpt>
      <trkpt lat="2.018747" lon="-76.739732">
        <ele>3387.709</ele>
        <time>2022-12-18T14:22:51Z</time>
      </trkpt>
      <trkpt lat="2.018679" lon="-76.73975">
        <ele>3386.609</ele>
        <time>2022-12-18T14:22:53Z</time>
      </trkpt>
      <trkpt lat="2.018642" lon="-76.739794">
        <ele>3386.082</ele>
        <time>2022-12-18T14:22:55Z</time>
      </trkpt>
      <trkpt lat="2.018621" lon="-76.739838">
        <ele>3386.023</ele>
        <time>2022-12-18T14:22:57Z</time>
      </trkpt>
      <trkpt lat="2.018613" lon="-76.7399">
        <ele>3387.072</ele>
        <time>2022-12-18T14:23:00Z</time>
      </trkpt>
      <trkpt lat="2.018621" lon="-76.739944">
        <ele>3389.266</ele>
        <time>2022-12-18T14:23:03Z</time>
      </trkpt>
      <trkpt lat="2.018649" lon="-76.739998">
        <ele>3388.894</ele>
        <time>2022-12-18T14:23:07Z</time>
      </trkpt>
      <trkpt lat="2.018648" lon="-76.740067">
        <ele>3388.585</ele>
        <time>2022-12-18T14:23:13Z</time>
      </trkpt>
      <trkpt lat="2.018645" lon="-76.740128">
        <ele>3388.561</ele>
        <time>2022-12-18T14:23:16Z</time>
      </trkpt>
      <trkpt lat="2.018623" lon="-76.74017">
        <ele>3388.498</ele>
        <time>2022-12-18T14:23:20Z</time>
      </trkpt>
      <trkpt lat="2.018588" lon="-76.740203">
        <ele>3387.763</ele>
        <time>2022-12-18T14:23:24Z</time>
      </trkpt>
      <trkpt lat="2.01857" lon="-76.740258">
        <ele>3386.435</ele>
        <time>2022-12-18T14:23:31Z</time>
      </trkpt>
      <trkpt lat="2.018556" lon="-76.74031">
        <ele>3385.186</ele>
        <time>2022-12-18T14:23:34Z</time>
      </trkpt>
      <trkpt lat="2.018534" lon="-76.740367">
        <ele>3382.914</ele>
        <time>2022-12-18T14:23:40Z</time>
      </trkpt>
      <trkpt lat="2.018532" lon="-76.740421">
        <ele>3380.309</ele>
        <time>2022-12-18T14:23:43Z</time>
      </trkpt>
      <trkpt lat="2.018551" lon="-76.740463">
        <ele>3378.894</ele>
        <time>2022-12-18T14:23:47Z</time>
      </trkpt>
      <trkpt lat="2.018582" lon="-76.740498">
        <ele>3377.845</ele>
        <time>2022-12-18T14:23:51Z</time>
      </trkpt>
      <trkpt lat="2.018597" lon="-76.740543">
        <ele>3376.314</ele>
        <time>2022-12-18T14:23:57Z</time>
      </trkpt>
      <trkpt lat="2.018567" lon="-76.740578">
        <ele>3375.378</ele>
        <time>2022-12-18T14:24:05Z</time>
      </trkpt>
      <trkpt lat="2.018524" lon="-76.740602">
        <ele>3374.926</ele>
        <time>2022-12-18T14:24:21Z</time>
      </trkpt>
      <trkpt lat="2.018497" lon="-76.740651">
        <ele>3374.667</ele>
        <time>2022-12-18T14:24:25Z</time>
      </trkpt>
      <trkpt lat="2.018495" lon="-76.740712">
        <ele>3374.553</ele>
        <time>2022-12-18T14:24:29Z</time>
      </trkpt>
      <trkpt lat="2.018506" lon="-76.740765">
        <ele>3374.310</ele>
        <time>2022-12-18T14:24:33Z</time>
      </trkpt>
      <trkpt lat="2.018491" lon="-76.740812">
        <ele>3372.565</ele>
        <time>2022-12-18T14:24:41Z</time>
      </trkpt>
      <trkpt lat="2.018458" lon="-76.740861">
        <ele>3371.717</ele>
        <time>2022-12-18T14:24:47Z</time>
      </trkpt>
      <trkpt lat="2.01846" lon="-76.740917">
        <ele>3372.587</ele>
        <time>2022-12-18T14:24:54Z</time>
      </trkpt>
      <trkpt lat="2.018493" lon="-76.740952">
        <ele>3372.715</ele>
        <time>2022-12-18T14:24:56Z</time>
      </trkpt>
      <trkpt lat="2.01852" lon="-76.740992">
        <ele>3372.709</ele>
        <time>2022-12-18T14:25:00Z</time>
      </trkpt>
      <trkpt lat="2.018524" lon="-76.741038">
        <ele>3371.362</ele>
        <time>2022-12-18T14:25:18Z</time>
      </trkpt>
      <trkpt lat="2.018458" lon="-76.741084">
        <ele>3370.953</ele>
        <time>2022-12-18T14:25:20Z</time>
      </trkpt>
      <trkpt lat="2.018407" lon="-76.741117">
        <ele>3370.722</ele>
        <time>2022-12-18T14:25:22Z</time>
      </trkpt>
      <trkpt lat="2.018352" lon="-76.741151">
        <ele>3370.486</ele>
        <time>2022-12-18T14:25:25Z</time>
      </trkpt>
      <trkpt lat="2.018305" lon="-76.741182">
        <ele>3366.284</ele>
        <time>2022-12-18T14:25:29Z</time>
      </trkpt>
      <trkpt lat="2.018298" lon="-76.741227">
        <ele>3361.865</ele>
        <time>2022-12-18T14:25:34Z</time>
      </trkpt>
      <trkpt lat="2.018311" lon="-76.741275">
        <ele>3361.591</ele>
        <time>2022-12-18T14:25:45Z</time>
      </trkpt>
      <trkpt lat="2.01826" lon="-76.741266">
        <ele>3361.838</ele>
        <time>2022-12-18T14:25:52Z</time>
      </trkpt>
      <trkpt lat="2.018218" lon="-76.741303">
        <ele>3361.863</ele>
        <time>2022-12-18T14:25:55Z</time>
      </trkpt>
      <trkpt lat="2.018171" lon="-76.741329">
        <ele>3377.884</ele>
        <time>2022-12-18T14:25:58Z</time>
      </trkpt>
      <trkpt lat="2.018125" lon="-76.741339">
        <ele>3379.907</ele>
        <time>2022-12-18T14:26:01Z</time>
      </trkpt>
      <trkpt lat="2.018065" lon="-76.741316">
        <ele>3380.817</ele>
        <time>2022-12-18T14:26:04Z</time>
      </trkpt>
      <trkpt lat="2.018026" lon="-76.741292">
        <ele>3370.709</ele>
        <time>2022-12-18T14:26:09Z</time>
      </trkpt>
      <trkpt lat="2.017978" lon="-76.741315">
        <ele>3366.219</ele>
        <time>2022-12-18T14:26:15Z</time>
      </trkpt>
      <trkpt lat="2.017925" lon="-76.741312">
        <ele>3363.230</ele>
        <time>2022-12-18T14:26:18Z</time>
      </trkpt>
      <trkpt lat="2.017882" lon="-76.741289">
        <ele>3358.619</ele>
        <time>2022-12-18T14:26:20Z</time>
      </trkpt>
      <trkpt lat="2.017831" lon="-76.74126">
        <ele>3353.873</ele>
        <time>2022-12-18T14:26:23Z</time>
      </trkpt>
      <trkpt lat="2.017789" lon="-76.741232">
        <ele>3344.851</ele>
        <time>2022-12-18T14:26:29Z</time>
      </trkpt>
      <trkpt lat="2.017752" lon="-76.741264">
        <ele>3344.632</ele>
        <time>2022-12-18T14:26:31Z</time>
      </trkpt>
      <trkpt lat="2.01773" lon="-76.741307">
        <ele>3343.458</ele>
        <time>2022-12-18T14:26:34Z</time>
      </trkpt>
      <trkpt lat="2.017725" lon="-76.741365">
        <ele>3342.575</ele>
        <time>2022-12-18T14:26:38Z</time>
      </trkpt>
      <trkpt lat="2.017709" lon="-76.741409">
        <ele>3340.130</ele>
        <time>2022-12-18T14:26:46Z</time>
      </trkpt>
      <trkpt lat="2.01765" lon="-76.741399">
        <ele>3340.148</ele>
        <time>2022-12-18T14:26:49Z</time>
      </trkpt>
      <trkpt lat="2.01756" lon="-76.741385">
        <ele>3339.761</ele>
        <time>2022-12-18T14:26:57Z</time>
      </trkpt>
      <trkpt lat="2.017551" lon="-76.741334">
        <ele>3339.117</ele>
        <time>2022-12-18T14:27:02Z</time>
      </trkpt>
      <trkpt lat="2.017558" lon="-76.741289">
        <ele>3340.109</ele>
        <time>2022-12-18T14:27:09Z</time>
      </trkpt>
      <trkpt lat="2.017525" lon="-76.741331">
        <ele>3340.145</ele>
        <time>2022-12-18T14:27:20Z</time>
      </trkpt>
      <trkpt lat="2.017497" lon="-76.741367">
        <ele>3339.246</ele>
        <time>2022-12-18T14:27:23Z</time>
      </trkpt>
      <trkpt lat="2.017493" lon="-76.741414">
        <ele>3339.175</ele>
        <time>2022-12-18T14:27:30Z</time>
      </trkpt>
      <trkpt lat="2.017514" lon="-76.741465">
        <ele>3337.479</ele>
        <time>2022-12-18T14:27:36Z</time>
      </trkpt>
      <trkpt lat="2.017532" lon="-76.741509">
        <ele>3334.477</ele>
        <time>2022-12-18T14:27:41Z</time>
      </trkpt>
      <trkpt lat="2.017532" lon="-76.741557">
        <ele>3328.638</ele>
        <time>2022-12-18T14:27:52Z</time>
      </trkpt>
      <trkpt lat="2.017483" lon="-76.741562">
        <ele>3325.054</ele>
        <time>2022-12-18T14:27:56Z</time>
      </trkpt>
      <trkpt lat="2.017441" lon="-76.741587">
        <ele>3323.751</ele>
        <time>2022-12-18T14:28:00Z</time>
      </trkpt>
      <trkpt lat="2.017397" lon="-76.741573">
        <ele>3321.926</ele>
        <time>2022-12-18T14:28:12Z</time>
      </trkpt>
      <trkpt lat="2.017378" lon="-76.741531">
        <ele>3321.729</ele>
        <time>2022-12-18T14:28:16Z</time>
      </trkpt>
      <trkpt lat="2.017333" lon="-76.741527">
        <ele>3317.500</ele>
        <time>2022-12-18T14:28:21Z</time>
      </trkpt>
      <trkpt lat="2.017295" lon="-76.741559">
        <ele>3317.020</ele>
        <time>2022-12-18T14:28:25Z</time>
      </trkpt>
      <trkpt lat="2.017259" lon="-76.741599">
        <ele>3314.709</ele>
        <time>2022-12-18T14:28:28Z</time>
      </trkpt>
      <trkpt lat="2.017221" lon="-76.741637">
        <ele>3313.293</ele>
        <time>2022-12-18T14:28:32Z</time>
      </trkpt>
      <trkpt lat="2.017205" lon="-76.741683">
        <ele>3313.184</ele>
        <time>2022-12-18T14:28:36Z</time>
      </trkpt>
      <trkpt lat="2.017221" lon="-76.741736">
        <ele>3313.183</ele>
        <time>2022-12-18T14:28:40Z</time>
      </trkpt>
      <trkpt lat="2.017265" lon="-76.74175">
        <ele>3312.897</ele>
        <time>2022-12-18T14:28:46Z</time>
      </trkpt>
      <trkpt lat="2.017304" lon="-76.741776">
        <ele>3313.225</ele>
        <time>2022-12-18T14:28:54Z</time>
      </trkpt>
      <trkpt lat="2.017337" lon="-76.741819">
        <ele>3313.686</ele>
        <time>2022-12-18T14:28:57Z</time>
      </trkpt>
      <trkpt lat="2.017373" lon="-76.741857">
        <ele>3313.762</ele>
        <time>2022-12-18T14:29:01Z</time>
      </trkpt>
      <trkpt lat="2.017325" lon="-76.741855">
        <ele>3308.689</ele>
        <time>2022-12-18T14:29:20Z</time>
      </trkpt>
      <trkpt lat="2.017272" lon="-76.741867">
        <ele>3303.984</ele>
        <time>2022-12-18T14:29:24Z</time>
      </trkpt>
      <trkpt lat="2.017283" lon="-76.741921">
        <ele>3297.117</ele>
        <time>2022-12-18T14:29:55Z</time>
      </trkpt>
      <trkpt lat="2.017287" lon="-76.741969">
        <ele>3296.387</ele>
        <time>2022-12-18T14:30:00Z</time>
      </trkpt>
      <trkpt lat="2.017285" lon="-76.742016">
        <ele>3295.515</ele>
        <time>2022-12-18T14:30:08Z</time>
      </trkpt>
      <trkpt lat="2.017246" lon="-76.742048">
        <ele>3294.709</ele>
        <time>2022-12-18T14:30:13Z</time>
      </trkpt>
      <trkpt lat="2.017217" lon="-76.742088">
        <ele>3293.422</ele>
        <time>2022-12-18T14:30:23Z</time>
      </trkpt>
      <trkpt lat="2.017172" lon="-76.742092">
        <ele>3293.243</ele>
        <time>2022-12-18T14:30:35Z</time>
      </trkpt>
      <trkpt lat="2.017134" lon="-76.742134">
        <ele>3291.962</ele>
        <time>2022-12-18T14:31:27Z</time>
      </trkpt>
      <trkpt lat="2.017109" lon="-76.742178">
        <ele>3291.766</ele>
        <time>2022-12-18T14:31:30Z</time>
      </trkpt>
      <trkpt lat="2.017101" lon="-76.742223">
        <ele>3292.494</ele>
        <time>2022-12-18T14:31:33Z</time>
      </trkpt>
      <trkpt lat="2.017128" lon="-76.742281">
        <ele>3291.945</ele>
        <time>2022-12-18T14:31:40Z</time>
      </trkpt>
      <trkpt lat="2.017183" lon="-76.742285">
        <ele>3278.021</ele>
        <time>2022-12-18T14:31:44Z</time>
      </trkpt>
      <trkpt lat="2.017222" lon="-76.742312">
        <ele>3269.638</ele>
        <time>2022-12-18T14:32:00Z</time>
      </trkpt>
      <trkpt lat="2.017267" lon="-76.742302">
        <ele>3267.573</ele>
        <time>2022-12-18T14:32:06Z</time>
      </trkpt>
      <trkpt lat="2.017245" lon="-76.742342">
        <ele>3265.467</ele>
        <time>2022-12-18T14:32:17Z</time>
      </trkpt>
      <trkpt lat="2.017245" lon="-76.742342">
        <ele>3265.481</ele>
        <time>2022-12-18T14:32:17Z</time>
      </trkpt>
      <trkpt lat="2.017245" lon="-76.742342">
        <ele>3265.419</ele>
        <time>2022-12-18T14:32:17Z</time>
      </trkpt>
      <trkpt lat="2.017229" lon="-76.742395">
        <ele>3264.209</ele>
        <time>2022-12-18T14:32:19Z</time>
      </trkpt>
      <trkpt lat="2.017198" lon="-76.742442">
        <ele>3259.727</ele>
        <time>2022-12-18T14:32:22Z</time>
      </trkpt>
      <trkpt lat="2.017145" lon="-76.742473">
        <ele>3259.358</ele>
        <time>2022-12-18T14:32:25Z</time>
      </trkpt>
      <trkpt lat="2.017084" lon="-76.742492">
        <ele>3259.477</ele>
        <time>2022-12-18T14:32:28Z</time>
      </trkpt>
      <trkpt lat="2.017039" lon="-76.742492">
        <ele>3258.541</ele>
        <time>2022-12-18T14:32:31Z</time>
      </trkpt>
      <trkpt lat="2.016984" lon="-76.742501">
        <ele>3257.329</ele>
        <time>2022-12-18T14:32:37Z</time>
      </trkpt>
      <trkpt lat="2.016934" lon="-76.742512">
        <ele>3257.150</ele>
        <time>2022-12-18T14:32:42Z</time>
      </trkpt>
      <trkpt lat="2.016881" lon="-76.7425">
        <ele>3256.176</ele>
        <time>2022-12-18T14:32:48Z</time>
      </trkpt>
      <trkpt lat="2.01683" lon="-76.742486">
        <ele>3255.113</ele>
        <time>2022-12-18T14:32:52Z</time>
      </trkpt>
      <trkpt lat="2.016817" lon="-76.74253">
        <ele>3254.368</ele>
        <time>2022-12-18T14:32:59Z</time>
      </trkpt>
      <trkpt lat="2.01683" lon="-76.74258">
        <ele>3254.239</ele>
        <time>2022-12-18T14:33:01Z</time>
      </trkpt>
      <trkpt lat="2.016858" lon="-76.742616">
        <ele>3255.301</ele>
        <time>2022-12-18T14:33:04Z</time>
      </trkpt>
      <trkpt lat="2.016907" lon="-76.74265">
        <ele>3255.321</ele>
        <time>2022-12-18T14:33:09Z</time>
      </trkpt>
      <trkpt lat="2.016928" lon="-76.742692">
        <ele>3253.509</ele>
        <time>2022-12-18T14:33:12Z</time>
      </trkpt>
      <trkpt lat="2.016956" lon="-76.742727">
        <ele>3252.794</ele>
        <time>2022-12-18T14:33:15Z</time>
      </trkpt>
      <trkpt lat="2.017003" lon="-76.742707">
        <ele>3251.575</ele>
        <time>2022-12-18T14:33:19Z</time>
      </trkpt>
      <trkpt lat="2.017027" lon="-76.742748">
        <ele>3248.134</ele>
        <time>2022-12-18T14:33:30Z</time>
      </trkpt>
      <trkpt lat="2.017002" lon="-76.742791">
        <ele>3248.198</ele>
        <time>2022-12-18T14:33:35Z</time>
      </trkpt>
      <trkpt lat="2.016956" lon="-76.742809">
        <ele>3248.396</ele>
        <time>2022-12-18T14:33:40Z</time>
      </trkpt>
      <trkpt lat="2.016915" lon="-76.742841">
        <ele>3248.547</ele>
        <time>2022-12-18T14:33:42Z</time>
      </trkpt>
      <trkpt lat="2.016876" lon="-76.742872">
        <ele>3261.633</ele>
        <time>2022-12-18T14:33:44Z</time>
      </trkpt>
      <trkpt lat="2.016823" lon="-76.742908">
        <ele>3265.510</ele>
        <time>2022-12-18T14:33:46Z</time>
      </trkpt>
      <trkpt lat="2.016765" lon="-76.742942">
        <ele>3261.625</ele>
        <time>2022-12-18T14:33:48Z</time>
      </trkpt>
      <trkpt lat="2.016723" lon="-76.742965">
        <ele>3257.665</ele>
        <time>2022-12-18T14:33:50Z</time>
      </trkpt>
      <trkpt lat="2.016688" lon="-76.743007">
        <ele>3243.168</ele>
        <time>2022-12-18T14:33:53Z</time>
      </trkpt>
      <trkpt lat="2.016644" lon="-76.743041">
        <ele>3240.614</ele>
        <time>2022-12-18T14:34:03Z</time>
      </trkpt>
      <trkpt lat="2.016597" lon="-76.743033">
        <ele>3244.809</ele>
        <time>2022-12-18T14:34:16Z</time>
      </trkpt>
      <trkpt lat="2.01654" lon="-76.743034">
        <ele>3246.357</ele>
        <time>2022-12-18T14:34:20Z</time>
      </trkpt>
      <trkpt lat="2.016507" lon="-76.743067">
        <ele>3251.548</ele>
        <time>2022-12-18T14:34:24Z</time>
      </trkpt>
      <trkpt lat="2.016538" lon="-76.743102">
        <ele>3247.087</ele>
        <time>2022-12-18T14:34:35Z</time>
      </trkpt>
      <trkpt lat="2.016571" lon="-76.743136">
        <ele>3245.721</ele>
        <time>2022-12-18T14:34:41Z</time>
      </trkpt>
      <trkpt lat="2.016555" lon="-76.743187">
        <ele>3242.699</ele>
        <time>2022-12-18T14:34:45Z</time>
      </trkpt>
      <trkpt lat="2.016518" lon="-76.743222">
        <ele>3239.910</ele>
        <time>2022-12-18T14:34:49Z</time>
      </trkpt>
      <trkpt lat="2.01646" lon="-76.743242">
        <ele>3239.916</ele>
        <time>2022-12-18T14:34:53Z</time>
      </trkpt>
      <trkpt lat="2.016413" lon="-76.743263">
        <ele>3239.563</ele>
        <time>2022-12-18T14:34:55Z</time>
      </trkpt>
      <trkpt lat="2.016373" lon="-76.743307">
        <ele>3254.878</ele>
        <time>2022-12-18T14:34:57Z</time>
      </trkpt>
      <trkpt lat="2.016347" lon="-76.743357">
        <ele>3273.842</ele>
        <time>2022-12-18T14:34:59Z</time>
      </trkpt>
      <trkpt lat="2.016313" lon="-76.743395">
        <ele>3277.922</ele>
        <time>2022-12-18T14:35:02Z</time>
      </trkpt>
      <trkpt lat="2.016276" lon="-76.743435">
        <ele>3259.714</ele>
        <time>2022-12-18T14:35:06Z</time>
      </trkpt>
      <trkpt lat="2.016248" lon="-76.743485">
        <ele>3249.309</ele>
        <time>2022-12-18T14:35:10Z</time>
      </trkpt>
      <trkpt lat="2.016243" lon="-76.743542">
        <ele>3245.615</ele>
        <time>2022-12-18T14:35:13Z</time>
      </trkpt>
      <trkpt lat="2.016222" lon="-76.743586">
        <ele>3241.926</ele>
        <time>2022-12-18T14:35:18Z</time>
      </trkpt>
      <trkpt lat="2.016177" lon="-76.74355">
        <ele>3227.555</ele>
        <time>2022-12-18T14:35:32Z</time>
      </trkpt>
      <trkpt lat="2.016136" lon="-76.743571">
        <ele>3224.069</ele>
        <time>2022-12-18T14:35:36Z</time>
      </trkpt>
      <trkpt lat="2.01614" lon="-76.743627">
        <ele>3223.137</ele>
        <time>2022-12-18T14:35:40Z</time>
      </trkpt>
      <trkpt lat="2.016147" lon="-76.743687">
        <ele>3222.648</ele>
        <time>2022-12-18T14:35:43Z</time>
      </trkpt>
      <trkpt lat="2.01617" lon="-76.743734">
        <ele>3221.424</ele>
        <time>2022-12-18T14:35:46Z</time>
      </trkpt>
      <trkpt lat="2.016182" lon="-76.743778">
        <ele>3221.171</ele>
        <time>2022-12-18T14:35:49Z</time>
      </trkpt>
      <trkpt lat="2.016137" lon="-76.743782">
        <ele>3221.126</ele>
        <time>2022-12-18T14:35:54Z</time>
      </trkpt>
      <trkpt lat="2.016093" lon="-76.743747">
        <ele>3238.879</ele>
        <time>2022-12-18T14:35:57Z</time>
      </trkpt>
      <trkpt lat="2.016053" lon="-76.743714">
        <ele>3240.805</ele>
        <time>2022-12-18T14:35:59Z</time>
      </trkpt>
      <trkpt lat="2.016005" lon="-76.7437">
        <ele>3240.825</ele>
        <time>2022-12-18T14:36:02Z</time>
      </trkpt>
      <trkpt lat="2.015988" lon="-76.743748">
        <ele>3231.609</ele>
        <time>2022-12-18T14:36:09Z</time>
      </trkpt>
      <trkpt lat="2.016002" lon="-76.743807">
        <ele>3222.228</ele>
        <time>2022-12-18T14:36:13Z</time>
      </trkpt>
      <trkpt lat="2.016013" lon="-76.743852">
        <ele>3217.929</ele>
        <time>2022-12-18T14:36:17Z</time>
      </trkpt>
      <trkpt lat="2.016004" lon="-76.743911">
        <ele>3215.478</ele>
        <time>2022-12-18T14:36:20Z</time>
      </trkpt>
      <trkpt lat="2.015992" lon="-76.743967">
        <ele>3214.212</ele>
        <time>2022-12-18T14:36:23Z</time>
      </trkpt>
      <trkpt lat="2.015968" lon="-76.744015">
        <ele>3213.850</ele>
        <time>2022-12-18T14:36:27Z</time>
      </trkpt>
      <trkpt lat="2.015943" lon="-76.744063">
        <ele>3212.841</ele>
        <time>2022-12-18T14:36:32Z</time>
      </trkpt>
      <trkpt lat="2.015912" lon="-76.744106">
        <ele>3212.737</ele>
        <time>2022-12-18T14:36:35Z</time>
      </trkpt>
      <trkpt lat="2.015895" lon="-76.744152">
        <ele>3212.294</ele>
        <time>2022-12-18T14:36:38Z</time>
      </trkpt>
      <trkpt lat="2.015887" lon="-76.744204">
        <ele>3210.799</ele>
        <time>2022-12-18T14:36:42Z</time>
      </trkpt>
      <trkpt lat="2.015906" lon="-76.744249">
        <ele>3209.988</ele>
        <time>2022-12-18T14:36:45Z</time>
      </trkpt>
      <trkpt lat="2.015936" lon="-76.744288">
        <ele>3208.824</ele>
        <time>2022-12-18T14:36:48Z</time>
      </trkpt>
      <trkpt lat="2.015944" lon="-76.744338">
        <ele>3207.126</ele>
        <time>2022-12-18T14:36:53Z</time>
      </trkpt>
      <trkpt lat="2.015924" lon="-76.744381">
        <ele>3205.709</ele>
        <time>2022-12-18T14:36:57Z</time>
      </trkpt>
      <trkpt lat="2.01587" lon="-76.744391">
        <ele>3203.949</ele>
        <time>2022-12-18T14:37:02Z</time>
      </trkpt>
      <trkpt lat="2.015867" lon="-76.744441">
        <ele>3200.940</ele>
        <time>2022-12-18T14:37:06Z</time>
      </trkpt>
      <trkpt lat="2.015884" lon="-76.744485">
        <ele>3199.919</ele>
        <time>2022-12-18T14:37:09Z</time>
      </trkpt>
      <trkpt lat="2.015915" lon="-76.744531">
        <ele>3200.413</ele>
        <time>2022-12-18T14:37:14Z</time>
      </trkpt>
      <trkpt lat="2.015963" lon="-76.744554">
        <ele>3198.661</ele>
        <time>2022-12-18T14:37:18Z</time>
      </trkpt>
      <trkpt lat="2.016009" lon="-76.744568">
        <ele>3197.352</ele>
        <time>2022-12-18T14:37:22Z</time>
      </trkpt>
      <trkpt lat="2.016057" lon="-76.744575">
        <ele>3197.268</ele>
        <time>2022-12-18T14:37:27Z</time>
      </trkpt>
      <trkpt lat="2.016102" lon="-76.744602">
        <ele>3197.385</ele>
        <time>2022-12-18T14:37:33Z</time>
      </trkpt>
      <trkpt lat="2.016115" lon="-76.744649">
        <ele>3197.390</ele>
        <time>2022-12-18T14:37:38Z</time>
      </trkpt>
      <trkpt lat="2.016079" lon="-76.74469">
        <ele>3197.295</ele>
        <time>2022-12-18T14:37:42Z</time>
      </trkpt>
      <trkpt lat="2.016046" lon="-76.744724">
        <ele>3195.449</ele>
        <time>2022-12-18T14:37:46Z</time>
      </trkpt>
      <trkpt lat="2.015994" lon="-76.744736">
        <ele>3194.323</ele>
        <time>2022-12-18T14:37:50Z</time>
      </trkpt>
      <trkpt lat="2.015937" lon="-76.744742">
        <ele>3192.009</ele>
        <time>2022-12-18T14:37:56Z</time>
      </trkpt>
      <trkpt lat="2.015932" lon="-76.744788">
        <ele>3188.750</ele>
        <time>2022-12-18T14:38:02Z</time>
      </trkpt>
      <trkpt lat="2.015972" lon="-76.744815">
        <ele>3187.431</ele>
        <time>2022-12-18T14:38:06Z</time>
      </trkpt>
      <trkpt lat="2.015931" lon="-76.744842">
        <ele>3182.780</ele>
        <time>2022-12-18T14:38:13Z</time>
      </trkpt>
      <trkpt lat="2.015871" lon="-76.744846">
        <ele>3182.094</ele>
        <time>2022-12-18T14:38:18Z</time>
      </trkpt>
      <trkpt lat="2.015815" lon="-76.744835">
        <ele>3181.362</ele>
        <time>2022-12-18T14:38:21Z</time>
      </trkpt>
      <trkpt lat="2.015771" lon="-76.744823">
        <ele>3180.943</ele>
        <time>2022-12-18T14:38:23Z</time>
      </trkpt>
      <trkpt lat="2.015725" lon="-76.744806">
        <ele>3180.829</ele>
        <time>2022-12-18T14:38:25Z</time>
      </trkpt>
      <trkpt lat="2.015689" lon="-76.744778">
        <ele>3178.716</ele>
        <time>2022-12-18T14:38:28Z</time>
      </trkpt>
      <trkpt lat="2.015637" lon="-76.744743">
        <ele>3177.131</ele>
        <time>2022-12-18T14:38:32Z</time>
      </trkpt>
      <trkpt lat="2.015587" lon="-76.744732">
        <ele>3176.538</ele>
        <time>2022-12-18T14:38:34Z</time>
      </trkpt>
      <trkpt lat="2.015539" lon="-76.744733">
        <ele>3175.370</ele>
        <time>2022-12-18T14:38:37Z</time>
      </trkpt>
      <trkpt lat="2.015562" lon="-76.744777">
        <ele>3174.517</ele>
        <time>2022-12-18T14:39:06Z</time>
      </trkpt>
      <trkpt lat="2.015572" lon="-76.744835">
        <ele>3173.309</ele>
        <time>2022-12-18T14:39:11Z</time>
      </trkpt>
      <trkpt lat="2.015573" lon="-76.744899">
        <ele>3172.394</ele>
        <time>2022-12-18T14:39:14Z</time>
      </trkpt>
      <trkpt lat="2.015594" lon="-76.744946">
        <ele>3172.075</ele>
        <time>2022-12-18T14:39:16Z</time>
      </trkpt>
      <trkpt lat="2.015617" lon="-76.744985">
        <ele>3172.114</ele>
        <time>2022-12-18T14:39:19Z</time>
      </trkpt>
      <trkpt lat="2.01565" lon="-76.745028">
        <ele>3169.668</ele>
        <time>2022-12-18T14:39:21Z</time>
      </trkpt>
      <trkpt lat="2.015694" lon="-76.745075">
        <ele>3168.926</ele>
        <time>2022-12-18T14:39:23Z</time>
      </trkpt>
      <trkpt lat="2.015727" lon="-76.745119">
        <ele>3187.427</ele>
        <time>2022-12-18T14:39:25Z</time>
      </trkpt>
      <trkpt lat="2.015757" lon="-76.745163">
        <ele>3205.113</ele>
        <time>2022-12-18T14:39:29Z</time>
      </trkpt>
      <trkpt lat="2.015809" lon="-76.74518">
        <ele>3186.770</ele>
        <time>2022-12-18T14:39:33Z</time>
      </trkpt>
      <trkpt lat="2.015811" lon="-76.745232">
        <ele>3169.445</ele>
        <time>2022-12-18T14:39:41Z</time>
      </trkpt>
      <trkpt lat="2.015788" lon="-76.74528">
        <ele>3158.855</ele>
        <time>2022-12-18T14:39:48Z</time>
      </trkpt>
      <trkpt lat="2.015739" lon="-76.745294">
        <ele>3158.607</ele>
        <time>2022-12-18T14:39:55Z</time>
      </trkpt>
      <trkpt lat="2.015674" lon="-76.74531">
        <ele>3157.617</ele>
        <time>2022-12-18T14:39:58Z</time>
      </trkpt>
      <trkpt lat="2.015623" lon="-76.745296">
        <ele>3158.509</ele>
        <time>2022-12-18T14:40:01Z</time>
      </trkpt>
      <trkpt lat="2.015584" lon="-76.745258">
        <ele>3156.796</ele>
        <time>2022-12-18T14:40:04Z</time>
      </trkpt>
      <trkpt lat="2.015516" lon="-76.745196">
        <ele>3150.927</ele>
        <time>2022-12-18T14:40:06Z</time>
      </trkpt>
      <trkpt lat="2.015473" lon="-76.74516">
        <ele>3148.146</ele>
        <time>2022-12-18T14:40:07Z</time>
      </trkpt>
      <trkpt lat="2.015437" lon="-76.745123">
        <ele>3145.940</ele>
        <time>2022-12-18T14:40:09Z</time>
      </trkpt>
      <trkpt lat="2.015391" lon="-76.745089">
        <ele>3145.468</ele>
        <time>2022-12-18T14:40:11Z</time>
      </trkpt>
      <trkpt lat="2.015343" lon="-76.745057">
        <ele>3143.129</ele>
        <time>2022-12-18T14:40:14Z</time>
      </trkpt>
      <trkpt lat="2.015315" lon="-76.745022">
        <ele>3137.215</ele>
        <time>2022-12-18T14:40:16Z</time>
      </trkpt>
      <trkpt lat="2.015292" lon="-76.744981">
        <ele>3132.562</ele>
        <time>2022-12-18T14:40:20Z</time>
      </trkpt>
      <trkpt lat="2.015295" lon="-76.745026">
        <ele>3129.037</ele>
        <time>2022-12-18T14:40:25Z</time>
      </trkpt>
      <trkpt lat="2.015314" lon="-76.745088">
        <ele>3131.154</ele>
        <time>2022-12-18T14:40:29Z</time>
      </trkpt>
      <trkpt lat="2.015326" lon="-76.745134">
        <ele>3131.156</ele>
        <time>2022-12-18T14:40:31Z</time>
      </trkpt>
      <trkpt lat="2.015356" lon="-76.745179">
        <ele>3131.411</ele>
        <time>2022-12-18T14:40:33Z</time>
      </trkpt>
      <trkpt lat="2.015378" lon="-76.74522">
        <ele>3131.509</ele>
        <time>2022-12-18T14:40:35Z</time>
      </trkpt>
      <trkpt lat="2.015396" lon="-76.745268">
        <ele>3131.686</ele>
        <time>2022-12-18T14:40:38Z</time>
      </trkpt>
      <trkpt lat="2.01543" lon="-76.745315">
        <ele>3131.977</ele>
        <time>2022-12-18T14:40:41Z</time>
      </trkpt>
      <trkpt lat="2.015459" lon="-76.745355">
        <ele>3131.866</ele>
        <time>2022-12-18T14:40:44Z</time>
      </trkpt>
      <trkpt lat="2.015464" lon="-76.745403">
        <ele>3130.460</ele>
        <time>2022-12-18T14:41:26Z</time>
      </trkpt>
      <trkpt lat="2.015484" lon="-76.745448">
        <ele>3130.488</ele>
        <time>2022-12-18T14:41:31Z</time>
      </trkpt>
      <trkpt lat="2.015495" lon="-76.745495">
        <ele>3132.319</ele>
        <time>2022-12-18T14:41:37Z</time>
      </trkpt>
      <trkpt lat="2.015484" lon="-76.74554">
        <ele>3134.495</ele>
        <time>2022-12-18T14:41:46Z</time>
      </trkpt>
      <trkpt lat="2.015476" lon="-76.745588">
        <ele>3135.512</ele>
        <time>2022-12-18T14:41:51Z</time>
      </trkpt>
      <trkpt lat="2.015483" lon="-76.745648">
        <ele>3134.497</ele>
        <time>2022-12-18T14:41:56Z</time>
      </trkpt>
      <trkpt lat="2.015528" lon="-76.745664">
        <ele>3128.564</ele>
        <time>2022-12-18T14:42:56Z</time>
      </trkpt>
      <trkpt lat="2.015526" lon="-76.745712">
        <ele>3128.506</ele>
        <time>2022-12-18T14:43:00Z</time>
      </trkpt>
      <trkpt lat="2.015518" lon="-76.745761">
        <ele>3128.516</ele>
        <time>2022-12-18T14:43:05Z</time>
      </trkpt>
      <trkpt lat="2.015527" lon="-76.745814">
        <ele>3128.609</ele>
        <time>2022-12-18T14:43:13Z</time>
      </trkpt>
      <trkpt lat="2.015557" lon="-76.745854">
        <ele>3128.567</ele>
        <time>2022-12-18T14:43:17Z</time>
      </trkpt>
      <trkpt lat="2.015592" lon="-76.74589">
        <ele>3131.038</ele>
        <time>2022-12-18T14:43:23Z</time>
      </trkpt>
      <trkpt lat="2.01556" lon="-76.745922">
        <ele>3126.957</ele>
        <time>2022-12-18T14:43:29Z</time>
      </trkpt>
      <trkpt lat="2.015515" lon="-76.745936">
        <ele>3126.721</ele>
        <time>2022-12-18T14:43:33Z</time>
      </trkpt>
      <trkpt lat="2.0155" lon="-76.74598">
        <ele>3126.519</ele>
        <time>2022-12-18T14:43:41Z</time>
      </trkpt>
      <trkpt lat="2.015512" lon="-76.746025">
        <ele>3125.960</ele>
        <time>2022-12-18T14:43:48Z</time>
      </trkpt>
      <trkpt lat="2.015566" lon="-76.746037">
        <ele>3126.656</ele>
        <time>2022-12-18T14:43:53Z</time>
      </trkpt>
      <trkpt lat="2.015518" lon="-76.746043">
        <ele>3118.333</ele>
        <time>2022-12-18T14:45:19Z</time>
      </trkpt>
      <trkpt lat="2.015471" lon="-76.74604">
        <ele>3118.318</ele>
        <time>2022-12-18T14:45:34Z</time>
      </trkpt>
      <trkpt lat="2.015516" lon="-76.746036">
        <ele>3117.226</ele>
        <time>2022-12-18T14:46:30Z</time>
      </trkpt>
      <trkpt lat="2.015465" lon="-76.746035">
        <ele>3114.747</ele>
        <time>2022-12-18T14:47:10Z</time>
      </trkpt>
      <trkpt lat="2.015422" lon="-76.746015">
        <ele>3114.811</ele>
        <time>2022-12-18T14:47:17Z</time>
      </trkpt>
      <trkpt lat="2.015439" lon="-76.746057">
        <ele>3114.809</ele>
        <time>2022-12-18T14:47:25Z</time>
      </trkpt>
      <trkpt lat="2.015437" lon="-76.746105">
        <ele>3119.093</ele>
        <time>2022-12-18T14:47:28Z</time>
      </trkpt>
      <trkpt lat="2.015454" lon="-76.746153">
        <ele>3136.054</ele>
        <time>2022-12-18T14:47:32Z</time>
      </trkpt>
      <trkpt lat="2.015473" lon="-76.746198">
        <ele>3144.713</ele>
        <time>2022-12-18T14:47:37Z</time>
      </trkpt>
      <trkpt lat="2.015513" lon="-76.746227">
        <ele>3141.487</ele>
        <time>2022-12-18T14:47:39Z</time>
      </trkpt>
      <trkpt lat="2.01555" lon="-76.746254">
        <ele>3126.255</ele>
        <time>2022-12-18T14:47:44Z</time>
      </trkpt>
      <trkpt lat="2.015593" lon="-76.746238">
        <ele>3113.246</ele>
        <time>2022-12-18T14:47:48Z</time>
      </trkpt>
      <trkpt lat="2.015638" lon="-76.746291">
        <ele>3109.432</ele>
        <time>2022-12-18T14:47:55Z</time>
      </trkpt>
      <trkpt lat="2.015654" lon="-76.746336">
        <ele>3104.959</ele>
        <time>2022-12-18T14:47:57Z</time>
      </trkpt>
      <trkpt lat="2.015638" lon="-76.746393">
        <ele>3106.654</ele>
        <time>2022-12-18T14:48:02Z</time>
      </trkpt>
      <trkpt lat="2.015586" lon="-76.746428">
        <ele>3127.259</ele>
        <time>2022-12-18T14:48:06Z</time>
      </trkpt>
      <trkpt lat="2.015555" lon="-76.746462">
        <ele>3140.303</ele>
        <time>2022-12-18T14:48:09Z</time>
      </trkpt>
      <trkpt lat="2.015515" lon="-76.746487">
        <ele>3127.223</ele>
        <time>2022-12-18T14:48:15Z</time>
      </trkpt>
      <trkpt lat="2.015497" lon="-76.746532">
        <ele>3116.209</ele>
        <time>2022-12-18T14:48:20Z</time>
      </trkpt>
      <trkpt lat="2.015449" lon="-76.746508">
        <ele>3109.796</ele>
        <time>2022-12-18T14:48:24Z</time>
      </trkpt>
      <trkpt lat="2.015405" lon="-76.74649">
        <ele>3105.247</ele>
        <time>2022-12-18T14:48:27Z</time>
      </trkpt>
      <trkpt lat="2.015355" lon="-76.746477">
        <ele>3099.156</ele>
        <time>2022-12-18T14:48:32Z</time>
      </trkpt>
      <trkpt lat="2.015324" lon="-76.746514">
        <ele>3090.810</ele>
        <time>2022-12-18T14:48:38Z</time>
      </trkpt>
      <trkpt lat="2.015346" lon="-76.746557">
        <ele>3085.568</ele>
        <time>2022-12-18T14:48:51Z</time>
      </trkpt>
      <trkpt lat="2.015313" lon="-76.746589">
        <ele>3085.729</ele>
        <time>2022-12-18T14:48:59Z</time>
      </trkpt>
      <trkpt lat="2.015276" lon="-76.746619">
        <ele>3085.855</ele>
        <time>2022-12-18T14:49:10Z</time>
      </trkpt>
      <trkpt lat="2.015233" lon="-76.746638">
        <ele>3085.412</ele>
        <time>2022-12-18T14:49:13Z</time>
      </trkpt>
      <trkpt lat="2.015191" lon="-76.746658">
        <ele>3085.467</ele>
        <time>2022-12-18T14:49:20Z</time>
      </trkpt>
      <trkpt lat="2.015146" lon="-76.746681">
        <ele>3085.735</ele>
        <time>2022-12-18T14:49:24Z</time>
      </trkpt>
      <trkpt lat="2.015112" lon="-76.746715">
        <ele>3085.086</ele>
        <time>2022-12-18T14:49:27Z</time>
      </trkpt>
      <trkpt lat="2.015074" lon="-76.746678">
        <ele>3077.414</ele>
        <time>2022-12-18T14:49:37Z</time>
      </trkpt>
      <trkpt lat="2.015027" lon="-76.746648">
        <ele>3076.909</ele>
        <time>2022-12-18T14:49:40Z</time>
      </trkpt>
      <trkpt lat="2.014983" lon="-76.746668">
        <ele>3075.874</ele>
        <time>2022-12-18T14:49:43Z</time>
      </trkpt>
      <trkpt lat="2.014959" lon="-76.746724">
        <ele>3075.485</ele>
        <time>2022-12-18T14:49:47Z</time>
      </trkpt>
      <trkpt lat="2.01494" lon="-76.746766">
        <ele>3073.744</ele>
        <time>2022-12-18T14:49:50Z</time>
      </trkpt>
      <trkpt lat="2.014928" lon="-76.746817">
        <ele>3070.848</ele>
        <time>2022-12-18T14:49:55Z</time>
      </trkpt>
      <trkpt lat="2.014902" lon="-76.746854">
        <ele>3069.136</ele>
        <time>2022-12-18T14:50:00Z</time>
      </trkpt>
      <trkpt lat="2.014856" lon="-76.746869">
        <ele>3067.087</ele>
        <time>2022-12-18T14:50:10Z</time>
      </trkpt>
      <trkpt lat="2.014828" lon="-76.746905">
        <ele>3065.943</ele>
        <time>2022-12-18T14:50:16Z</time>
      </trkpt>
      <trkpt lat="2.014817" lon="-76.746949">
        <ele>3065.620</ele>
        <time>2022-12-18T14:50:20Z</time>
      </trkpt>
      <trkpt lat="2.014847" lon="-76.746984">
        <ele>3065.615</ele>
        <time>2022-12-18T14:50:29Z</time>
      </trkpt>
      <trkpt lat="2.014826" lon="-76.747029">
        <ele>3065.785</ele>
        <time>2022-12-18T14:50:39Z</time>
      </trkpt>
      <trkpt lat="2.01484" lon="-76.747076">
        <ele>3065.389</ele>
        <time>2022-12-18T14:50:49Z</time>
      </trkpt>
      <trkpt lat="2.014878" lon="-76.747104">
        <ele>3066.117</ele>
        <time>2022-12-18T14:50:54Z</time>
      </trkpt>
      <trkpt lat="2.014861" lon="-76.747152">
        <ele>3062.509</ele>
        <time>2022-12-18T14:51:06Z</time>
      </trkpt>
      <trkpt lat="2.014815" lon="-76.74714">
        <ele>3061.599</ele>
        <time>2022-12-18T14:51:16Z</time>
      </trkpt>
      <trkpt lat="2.014777" lon="-76.747184">
        <ele>3059.030</ele>
        <time>2022-12-18T14:51:29Z</time>
      </trkpt>
      <trkpt lat="2.014805" lon="-76.747232">
        <ele>3058.259</ele>
        <time>2022-12-18T14:51:34Z</time>
      </trkpt>
      <trkpt lat="2.014835" lon="-76.747274">
        <ele>3055.683</ele>
        <time>2022-12-18T14:51:38Z</time>
      </trkpt>
      <trkpt lat="2.014842" lon="-76.747322">
        <ele>3049.351</ele>
        <time>2022-12-18T14:51:43Z</time>
      </trkpt>
      <trkpt lat="2.01483" lon="-76.74737">
        <ele>3048.122</ele>
        <time>2022-12-18T14:51:48Z</time>
      </trkpt>
      <trkpt lat="2.014822" lon="-76.747422">
        <ele>3047.118</ele>
        <time>2022-12-18T14:51:52Z</time>
      </trkpt>
      <trkpt lat="2.014806" lon="-76.747469">
        <ele>3046.745</ele>
        <time>2022-12-18T14:51:55Z</time>
      </trkpt>
      <trkpt lat="2.014766" lon="-76.747514">
        <ele>3045.590</ele>
        <time>2022-12-18T14:51:59Z</time>
      </trkpt>
      <trkpt lat="2.014745" lon="-76.747562">
        <ele>3044.472</ele>
        <time>2022-12-18T14:52:03Z</time>
      </trkpt>
      <trkpt lat="2.014746" lon="-76.747618">
        <ele>3044.113</ele>
        <time>2022-12-18T14:52:06Z</time>
      </trkpt>
      <trkpt lat="2.014735" lon="-76.747667">
        <ele>3043.114</ele>
        <time>2022-12-18T14:52:09Z</time>
      </trkpt>
      <trkpt lat="2.014752" lon="-76.747721">
        <ele>3041.209</ele>
        <time>2022-12-18T14:52:12Z</time>
      </trkpt>
      <trkpt lat="2.014753" lon="-76.747766">
        <ele>3037.898</ele>
        <time>2022-12-18T14:52:16Z</time>
      </trkpt>
      <trkpt lat="2.014701" lon="-76.747804">
        <ele>3036.799</ele>
        <time>2022-12-18T14:52:20Z</time>
      </trkpt>
      <trkpt lat="2.014696" lon="-76.74785">
        <ele>3031.798</ele>
        <time>2022-12-18T14:52:26Z</time>
      </trkpt>
      <trkpt lat="2.014745" lon="-76.747873">
        <ele>3027.162</ele>
        <time>2022-12-18T14:52:32Z</time>
      </trkpt>
      <trkpt lat="2.014758" lon="-76.747921">
        <ele>3023.930</ele>
        <time>2022-12-18T14:52:41Z</time>
      </trkpt>
      <trkpt lat="2.014733" lon="-76.747969">
        <ele>3020.931</ele>
        <time>2022-12-18T14:52:50Z</time>
      </trkpt>
      <trkpt lat="2.014698" lon="-76.747998">
        <ele>3021.697</ele>
        <time>2022-12-18T14:53:34Z</time>
      </trkpt>
      <trkpt lat="2.014696" lon="-76.748045">
        <ele>3023.094</ele>
        <time>2022-12-18T14:53:51Z</time>
      </trkpt>
      <trkpt lat="2.014704" lon="-76.748093">
        <ele>3024.969</ele>
        <time>2022-12-18T14:53:56Z</time>
      </trkpt>
      <trkpt lat="2.014673" lon="-76.748129">
        <ele>3031.263</ele>
        <time>2022-12-18T14:54:02Z</time>
      </trkpt>
      <trkpt lat="2.014629" lon="-76.748139">
        <ele>3033.944</ele>
        <time>2022-12-18T14:54:06Z</time>
      </trkpt>
      <trkpt lat="2.014624" lon="-76.748186">
        <ele>3024.018</ele>
        <time>2022-12-18T14:54:15Z</time>
      </trkpt>
      <trkpt lat="2.014667" lon="-76.748204">
        <ele>3024.309</ele>
        <time>2022-12-18T14:54:20Z</time>
      </trkpt>
      <trkpt lat="2.014676" lon="-76.74825">
        <ele>3013.817</ele>
        <time>2022-12-18T14:54:31Z</time>
      </trkpt>
      <trkpt lat="2.01464" lon="-76.748284">
        <ele>3010.648</ele>
        <time>2022-12-18T14:54:38Z</time>
      </trkpt>
      <trkpt lat="2.014656" lon="-76.748361">
        <ele>3008.077</ele>
        <time>2022-12-18T14:54:48Z</time>
      </trkpt>
      <trkpt lat="2.014647" lon="-76.748408">
        <ele>3007.261</ele>
        <time>2022-12-18T14:54:54Z</time>
      </trkpt>
      <trkpt lat="2.014604" lon="-76.748389">
        <ele>3004.959</ele>
        <time>2022-12-18T14:55:01Z</time>
      </trkpt>
      <trkpt lat="2.01457" lon="-76.748353">
        <ele>3004.390</ele>
        <time>2022-12-18T14:55:05Z</time>
      </trkpt>
      <trkpt lat="2.014523" lon="-76.748329">
        <ele>3004.286</ele>
        <time>2022-12-18T14:55:08Z</time>
      </trkpt>
      <trkpt lat="2.014471" lon="-76.748324">
        <ele>3004.243</ele>
        <time>2022-12-18T14:55:12Z</time>
      </trkpt>
      <trkpt lat="2.014494" lon="-76.748363">
        <ele>3004.068</ele>
        <time>2022-12-18T14:55:18Z</time>
      </trkpt>
      <trkpt lat="2.014522" lon="-76.748408">
        <ele>3003.411</ele>
        <time>2022-12-18T14:55:23Z</time>
      </trkpt>
      <trkpt lat="2.014527" lon="-76.748466">
        <ele>3001.921</ele>
        <time>2022-12-18T14:55:26Z</time>
      </trkpt>
      <trkpt lat="2.014529" lon="-76.748523">
        <ele>3001.803</ele>
        <time>2022-12-18T14:55:30Z</time>
      </trkpt>
      <trkpt lat="2.014526" lon="-76.748571">
        <ele>3001.809</ele>
        <time>2022-12-18T14:55:33Z</time>
      </trkpt>
      <trkpt lat="2.014537" lon="-76.748626">
        <ele>3001.832</ele>
        <time>2022-12-18T14:55:38Z</time>
      </trkpt>
      <trkpt lat="2.014545" lon="-76.748671">
        <ele>3001.573</ele>
        <time>2022-12-18T14:55:43Z</time>
      </trkpt>
      <trkpt lat="2.014559" lon="-76.748715">
        <ele>3001.282</ele>
        <time>2022-12-18T14:55:49Z</time>
      </trkpt>
      <trkpt lat="2.014593" lon="-76.748751">
        <ele>2999.926</ele>
        <time>2022-12-18T14:55:56Z</time>
      </trkpt>
      <trkpt lat="2.014632" lon="-76.748783">
        <ele>2998.344</ele>
        <time>2022-12-18T14:56:02Z</time>
      </trkpt>
      <trkpt lat="2.014683" lon="-76.748792">
        <ele>2995.735</ele>
        <time>2022-12-18T14:56:08Z</time>
      </trkpt>
      <trkpt lat="2.014753" lon="-76.748823">
        <ele>2995.071</ele>
        <time>2022-12-18T14:56:17Z</time>
      </trkpt>
      <trkpt lat="2.014782" lon="-76.748862">
        <ele>2992.798</ele>
        <time>2022-12-18T14:56:23Z</time>
      </trkpt>
      <trkpt lat="2.014826" lon="-76.748878">
        <ele>2992.183</ele>
        <time>2022-12-18T14:56:27Z</time>
      </trkpt>
      <trkpt lat="2.014866" lon="-76.748901">
        <ele>2990.875</ele>
        <time>2022-12-18T14:56:31Z</time>
      </trkpt>
      <trkpt lat="2.01491" lon="-76.748942">
        <ele>2987.728</ele>
        <time>2022-12-18T14:56:35Z</time>
      </trkpt>
      <trkpt lat="2.014933" lon="-76.748982">
        <ele>2987.120</ele>
        <time>2022-12-18T14:56:41Z</time>
      </trkpt>
      <trkpt lat="2.014895" lon="-76.749008">
        <ele>2987.009</ele>
        <time>2022-12-18T14:56:49Z</time>
      </trkpt>
      <trkpt lat="2.01485" lon="-76.749019">
        <ele>2986.768</ele>
        <time>2022-12-18T14:56:52Z</time>
      </trkpt>
      <trkpt lat="2.014804" lon="-76.749019">
        <ele>2986.649</ele>
        <time>2022-12-18T14:56:58Z</time>
      </trkpt>
      <trkpt lat="2.014756" lon="-76.749031">
        <ele>2986.368</ele>
        <time>2022-12-18T14:57:02Z</time>
      </trkpt>
      <trkpt lat="2.014714" lon="-76.749055">
        <ele>2984.622</ele>
        <time>2022-12-18T14:57:06Z</time>
      </trkpt>
      <trkpt lat="2.014661" lon="-76.749094">
        <ele>2979.460</ele>
        <time>2022-12-18T14:57:09Z</time>
      </trkpt>
      <trkpt lat="2.014617" lon="-76.749128">
        <ele>2975.671</ele>
        <time>2022-12-18T14:57:15Z</time>
      </trkpt>
      <trkpt lat="2.014576" lon="-76.749109">
        <ele>2970.697</ele>
        <time>2022-12-18T14:57:19Z</time>
      </trkpt>
      <trkpt lat="2.01453" lon="-76.7491">
        <ele>2965.274</ele>
        <time>2022-12-18T14:57:24Z</time>
      </trkpt>
      <trkpt lat="2.014498" lon="-76.749141">
        <ele>2962.569</ele>
        <time>2022-12-18T14:57:28Z</time>
      </trkpt>
      <trkpt lat="2.014458" lon="-76.749166">
        <ele>2960.926</ele>
        <time>2022-12-18T14:57:36Z</time>
      </trkpt>
      <trkpt lat="2.014454" lon="-76.749218">
        <ele>2960.047</ele>
        <time>2022-12-18T14:57:38Z</time>
      </trkpt>
      <trkpt lat="2.014432" lon="-76.749263">
        <ele>2955.811</ele>
        <time>2022-12-18T14:57:41Z</time>
      </trkpt>
      <trkpt lat="2.014396" lon="-76.749298">
        <ele>2953.209</ele>
        <time>2022-12-18T14:57:45Z</time>
      </trkpt>
      <trkpt lat="2.014402" lon="-76.749347">
        <ele>2951.823</ele>
        <time>2022-12-18T14:57:51Z</time>
      </trkpt>
      <trkpt lat="2.014371" lon="-76.749396">
        <ele>2951.274</ele>
        <time>2022-12-18T14:57:53Z</time>
      </trkpt>
      <trkpt lat="2.014336" lon="-76.749445">
        <ele>2949.023</ele>
        <time>2022-12-18T14:57:57Z</time>
      </trkpt>
      <trkpt lat="2.014284" lon="-76.749446">
        <ele>2947.137</ele>
        <time>2022-12-18T14:58:02Z</time>
      </trkpt>
      <trkpt lat="2.014244" lon="-76.749414">
        <ele>2945.855</ele>
        <time>2022-12-18T14:58:07Z</time>
      </trkpt>
      <trkpt lat="2.014206" lon="-76.749385">
        <ele>2943.386</ele>
        <time>2022-12-18T14:58:12Z</time>
      </trkpt>
      <trkpt lat="2.01416" lon="-76.749413">
        <ele>2943.332</ele>
        <time>2022-12-18T14:58:16Z</time>
      </trkpt>
      <trkpt lat="2.014142" lon="-76.749456">
        <ele>2942.969</ele>
        <time>2022-12-18T14:58:19Z</time>
      </trkpt>
      <trkpt lat="2.014122" lon="-76.749501">
        <ele>2942.614</ele>
        <time>2022-12-18T14:58:22Z</time>
      </trkpt>
      <trkpt lat="2.014113" lon="-76.749553">
        <ele>2942.347</ele>
        <time>2022-12-18T14:58:26Z</time>
      </trkpt>
      <trkpt lat="2.014128" lon="-76.749609">
        <ele>2941.929</ele>
        <time>2022-12-18T14:58:29Z</time>
      </trkpt>
      <trkpt lat="2.014139" lon="-76.749658">
        <ele>2939.421</ele>
        <time>2022-12-18T14:58:34Z</time>
      </trkpt>
      <trkpt lat="2.014154" lon="-76.749702">
        <ele>2939.009</ele>
        <time>2022-12-18T14:58:40Z</time>
      </trkpt>
      <trkpt lat="2.014163" lon="-76.74975">
        <ele>2938.735</ele>
        <time>2022-12-18T14:58:45Z</time>
      </trkpt>
      <trkpt lat="2.014201" lon="-76.749784">
        <ele>2938.496</ele>
        <time>2022-12-18T14:58:49Z</time>
      </trkpt>
      <trkpt lat="2.014247" lon="-76.749795">
        <ele>2936.095</ele>
        <time>2022-12-18T14:58:53Z</time>
      </trkpt>
      <trkpt lat="2.014294" lon="-76.749814">
        <ele>2929.189</ele>
        <time>2022-12-18T14:59:03Z</time>
      </trkpt>
      <trkpt lat="2.014304" lon="-76.749865">
        <ele>2926.677</ele>
        <time>2022-12-18T14:59:08Z</time>
      </trkpt>
      <trkpt lat="2.014278" lon="-76.749904">
        <ele>2924.018</ele>
        <time>2022-12-18T14:59:17Z</time>
      </trkpt>
      <trkpt lat="2.014233" lon="-76.749949">
        <ele>2923.224</ele>
        <time>2022-12-18T14:59:21Z</time>
      </trkpt>
      <trkpt lat="2.014191" lon="-76.74997">
        <ele>2921.751</ele>
        <time>2022-12-18T14:59:24Z</time>
      </trkpt>
      <trkpt lat="2.014144" lon="-76.749995">
        <ele>2920.246</ele>
        <time>2022-12-18T14:59:26Z</time>
      </trkpt>
      <trkpt lat="2.014099" lon="-76.750018">
        <ele>2919.016</ele>
        <time>2022-12-18T14:59:28Z</time>
      </trkpt>
      <trkpt lat="2.014053" lon="-76.750029">
        <ele>2918.176</ele>
        <time>2022-12-18T14:59:32Z</time>
      </trkpt>
      <trkpt lat="2.014016" lon="-76.750056">
        <ele>2916.513</ele>
        <time>2022-12-18T14:59:41Z</time>
      </trkpt>
      <trkpt lat="2.01397" lon="-76.750083">
        <ele>2915.509</ele>
        <time>2022-12-18T14:59:47Z</time>
      </trkpt>
      <trkpt lat="2.013943" lon="-76.750126">
        <ele>2913.612</ele>
        <time>2022-12-18T14:59:52Z</time>
      </trkpt>
      <trkpt lat="2.013912" lon="-76.750165">
        <ele>2911.153</ele>
        <time>2022-12-18T15:00:07Z</time>
      </trkpt>
      <trkpt lat="2.013888" lon="-76.750206">
        <ele>2906.512</ele>
        <time>2022-12-18T15:00:12Z</time>
      </trkpt>
      <trkpt lat="2.013836" lon="-76.750229">
        <ele>2904.426</ele>
        <time>2022-12-18T15:00:19Z</time>
      </trkpt>
      <trkpt lat="2.013849" lon="-76.750275">
        <ele>2899.924</ele>
        <time>2022-12-18T15:00:22Z</time>
      </trkpt>
      <trkpt lat="2.013839" lon="-76.750327">
        <ele>2899.135</ele>
        <time>2022-12-18T15:00:27Z</time>
      </trkpt>
      <trkpt lat="2.013799" lon="-76.750356">
        <ele>2898.941</ele>
        <time>2022-12-18T15:00:32Z</time>
      </trkpt>
      <trkpt lat="2.013749" lon="-76.750366">
        <ele>2898.348</ele>
        <time>2022-12-18T15:00:36Z</time>
      </trkpt>
      <trkpt lat="2.013698" lon="-76.750387">
        <ele>2897.743</ele>
        <time>2022-12-18T15:00:38Z</time>
      </trkpt>
      <trkpt lat="2.013654" lon="-76.750397">
        <ele>2897.712</ele>
        <time>2022-12-18T15:00:40Z</time>
      </trkpt>
      <trkpt lat="2.013601" lon="-76.750439">
        <ele>2897.032</ele>
        <time>2022-12-18T15:00:43Z</time>
      </trkpt>
      <trkpt lat="2.013588" lon="-76.750489">
        <ele>2896.505</ele>
        <time>2022-12-18T15:00:45Z</time>
      </trkpt>
      <trkpt lat="2.013587" lon="-76.750535">
        <ele>2896.009</ele>
        <time>2022-12-18T15:00:47Z</time>
      </trkpt>
      <trkpt lat="2.013537" lon="-76.750543">
        <ele>2891.252</ele>
        <time>2022-12-18T15:00:53Z</time>
      </trkpt>
      <trkpt lat="2.013561" lon="-76.750582">
        <ele>2890.693</ele>
        <time>2022-12-18T15:00:57Z</time>
      </trkpt>
      <trkpt lat="2.013561" lon="-76.750631">
        <ele>2889.592</ele>
        <time>2022-12-18T15:01:01Z</time>
      </trkpt>
      <trkpt lat="2.013519" lon="-76.75065">
        <ele>2886.016</ele>
        <time>2022-12-18T15:01:05Z</time>
      </trkpt>
      <trkpt lat="2.013474" lon="-76.750655">
        <ele>2885.564</ele>
        <time>2022-12-18T15:01:11Z</time>
      </trkpt>
      <trkpt lat="2.013423" lon="-76.750655">
        <ele>2882.845</ele>
        <time>2022-12-18T15:01:17Z</time>
      </trkpt>
      <trkpt lat="2.013371" lon="-76.750667">
        <ele>2877.931</ele>
        <time>2022-12-18T15:01:20Z</time>
      </trkpt>
      <trkpt lat="2.013345" lon="-76.750707">
        <ele>2875.068</ele>
        <time>2022-12-18T15:01:23Z</time>
      </trkpt>
      <trkpt lat="2.013315" lon="-76.750758">
        <ele>2874.673</ele>
        <time>2022-12-18T15:01:27Z</time>
      </trkpt>
      <trkpt lat="2.013299" lon="-76.750805">
        <ele>2873.893</ele>
        <time>2022-12-18T15:01:30Z</time>
      </trkpt>
      <trkpt lat="2.013264" lon="-76.75085">
        <ele>2873.465</ele>
        <time>2022-12-18T15:01:34Z</time>
      </trkpt>
      <trkpt lat="2.013204" lon="-76.750849">
        <ele>2872.721</ele>
        <time>2022-12-18T15:01:38Z</time>
      </trkpt>
      <trkpt lat="2.013163" lon="-76.750882">
        <ele>2872.709</ele>
        <time>2022-12-18T15:01:41Z</time>
      </trkpt>
      <trkpt lat="2.013116" lon="-76.750917">
        <ele>2872.860</ele>
        <time>2022-12-18T15:01:43Z</time>
      </trkpt>
      <trkpt lat="2.013063" lon="-76.750959">
        <ele>2871.911</ele>
        <time>2022-12-18T15:01:45Z</time>
      </trkpt>
      <trkpt lat="2.013032" lon="-76.750999">
        <ele>2870.460</ele>
        <time>2022-12-18T15:01:47Z</time>
      </trkpt>
      <trkpt lat="2.013001" lon="-76.751042">
        <ele>2866.874</ele>
        <time>2022-12-18T15:01:50Z</time>
      </trkpt>
      <trkpt lat="2.012959" lon="-76.751069">
        <ele>2865.252</ele>
        <time>2022-12-18T15:01:53Z</time>
      </trkpt>
      <trkpt lat="2.012912" lon="-76.751088">
        <ele>2861.993</ele>
        <time>2022-12-18T15:02:01Z</time>
      </trkpt>
      <trkpt lat="2.012852" lon="-76.751132">
        <ele>2859.899</ele>
        <time>2022-12-18T15:02:05Z</time>
      </trkpt>
      <trkpt lat="2.012802" lon="-76.751165">
        <ele>2859.636</ele>
        <time>2022-12-18T15:02:06Z</time>
      </trkpt>
      <trkpt lat="2.012739" lon="-76.751205">
        <ele>2858.391</ele>
        <time>2022-12-18T15:02:07Z</time>
      </trkpt>
      <trkpt lat="2.012699" lon="-76.751237">
        <ele>2855.836</ele>
        <time>2022-12-18T15:02:09Z</time>
      </trkpt>
      <trkpt lat="2.012665" lon="-76.751269">
        <ele>2852.917</ele>
        <time>2022-12-18T15:02:12Z</time>
      </trkpt>
      <trkpt lat="2.012622" lon="-76.751292">
        <ele>2850.318</ele>
        <time>2022-12-18T15:02:20Z</time>
      </trkpt>
      <trkpt lat="2.012664" lon="-76.751272">
        <ele>2846.409</ele>
        <time>2022-12-18T15:02:50Z</time>
      </trkpt>
      <trkpt lat="2.012611" lon="-76.751296">
        <ele>2843.084</ele>
        <time>2022-12-18T15:03:12Z</time>
      </trkpt>
      <trkpt lat="2.012567" lon="-76.751323">
        <ele>2842.415</ele>
        <time>2022-12-18T15:03:18Z</time>
      </trkpt>
      <trkpt lat="2.012534" lon="-76.751356">
        <ele>2841.724</ele>
        <time>2022-12-18T15:03:23Z</time>
      </trkpt>
      <trkpt lat="2.012496" lon="-76.751393">
        <ele>2841.928</ele>
        <time>2022-12-18T15:03:26Z</time>
      </trkpt>
      <trkpt lat="2.012459" lon="-76.751441">
        <ele>2841.966</ele>
        <time>2022-12-18T15:03:28Z</time>
      </trkpt>
      <trkpt lat="2.012426" lon="-76.75149">
        <ele>2842.417</ele>
        <time>2022-12-18T15:03:30Z</time>
      </trkpt>
      <trkpt lat="2.012397" lon="-76.751525">
        <ele>2842.083</ele>
        <time>2022-12-18T15:03:31Z</time>
      </trkpt>
      <trkpt lat="2.012346" lon="-76.751585">
        <ele>2839.470</ele>
        <time>2022-12-18T15:03:33Z</time>
      </trkpt>
      <trkpt lat="2.012304" lon="-76.751648">
        <ele>2836.295</ele>
        <time>2022-12-18T15:03:35Z</time>
      </trkpt>
      <trkpt lat="2.012258" lon="-76.751703">
        <ele>2836.243</ele>
        <time>2022-12-18T15:03:37Z</time>
      </trkpt>
      <trkpt lat="2.012219" lon="-76.751751">
        <ele>2835.164</ele>
        <time>2022-12-18T15:03:39Z</time>
      </trkpt>
      <trkpt lat="2.012178" lon="-76.751799">
        <ele>2832.710</ele>
        <time>2022-12-18T15:03:41Z</time>
      </trkpt>
      <trkpt lat="2.012133" lon="-76.751836">
        <ele>2832.409</ele>
        <time>2022-12-18T15:03:43Z</time>
      </trkpt>
      <trkpt lat="2.012076" lon="-76.751854">
        <ele>2832.495</ele>
        <time>2022-12-18T15:03:45Z</time>
      </trkpt>
      <trkpt lat="2.012015" lon="-76.75186">
        <ele>2832.416</ele>
        <time>2022-12-18T15:03:47Z</time>
      </trkpt>
      <trkpt lat="2.011912" lon="-76.751861">
        <ele>2832.015</ele>
        <time>2022-12-18T15:04:18Z</time>
      </trkpt>
      <trkpt lat="2.011251" lon="-76.751785">
        <ele>2830.459</ele>
        <time>2022-12-18T15:04:19Z</time>
      </trkpt>
      <trkpt lat="2.011165" lon="-76.751783">
        <ele>2805.697</ele>
        <time>2022-12-18T15:04:20Z</time>
      </trkpt>
      <trkpt lat="2.01109" lon="-76.75179">
        <ele>2805.098</ele>
        <time>2022-12-18T15:04:22Z</time>
      </trkpt>
      <trkpt lat="2.011059" lon="-76.751756">
        <ele>2802.164</ele>
        <time>2022-12-18T15:04:28Z</time>
      </trkpt>
      <trkpt lat="2.011082" lon="-76.751715">
        <ele>2801.941</ele>
        <time>2022-12-18T15:04:30Z</time>
      </trkpt>
      <trkpt lat="2.011103" lon="-76.751674">
        <ele>2801.716</ele>
        <time>2022-12-18T15:04:32Z</time>
      </trkpt>
      <trkpt lat="2.011058" lon="-76.751661">
        <ele>2801.339</ele>
        <time>2022-12-18T15:04:37Z</time>
      </trkpt>
      <trkpt lat="2.011022" lon="-76.751717">
        <ele>2801.201</ele>
        <time>2022-12-18T15:04:40Z</time>
      </trkpt>
      <trkpt lat="2.010988" lon="-76.75175">
        <ele>2800.621</ele>
        <time>2022-12-18T15:04:42Z</time>
      </trkpt>
      <trkpt lat="2.010926" lon="-76.751721">
        <ele>2800.409</ele>
        <time>2022-12-18T15:04:45Z</time>
      </trkpt>
      <trkpt lat="2.010864" lon="-76.751677">
        <ele>2800.234</ele>
        <time>2022-12-18T15:04:47Z</time>
      </trkpt>
      <trkpt lat="2.010815" lon="-76.751653">
        <ele>2801.365</ele>
        <time>2022-12-18T15:04:48Z</time>
      </trkpt>
      <trkpt lat="2.010687" lon="-76.751611">
        <ele>2802.284</ele>
        <time>2022-12-18T15:04:50Z</time>
      </trkpt>
      <trkpt lat="2.010581" lon="-76.751581">
        <ele>2802.128</ele>
        <time>2022-12-18T15:04:52Z</time>
      </trkpt>
      <trkpt lat="2.010538" lon="-76.75156">
        <ele>2802.296</ele>
        <time>2022-12-18T15:04:53Z</time>
      </trkpt>
      <trkpt lat="2.010478" lon="-76.751528">
        <ele>2801.377</ele>
        <time>2022-12-18T15:04:55Z</time>
      </trkpt>
      <trkpt lat="2.010401" lon="-76.751527">
        <ele>2800.943</ele>
        <time>2022-12-18T15:04:57Z</time>
      </trkpt>
      <trkpt lat="2.010346" lon="-76.751557">
        <ele>2800.310</ele>
        <time>2022-12-18T15:04:59Z</time>
      </trkpt>
      <trkpt lat="2.010295" lon="-76.751572">
        <ele>2799.085</ele>
        <time>2022-12-18T15:05:01Z</time>
      </trkpt>
      <trkpt lat="2.010233" lon="-76.75159">
        <ele>2797.831</ele>
        <time>2022-12-18T15:05:03Z</time>
      </trkpt>
      <trkpt lat="2.010184" lon="-76.751562">
        <ele>2797.261</ele>
        <time>2022-12-18T15:05:06Z</time>
      </trkpt>
      <trkpt lat="2.010137" lon="-76.751568">
        <ele>2795.407</ele>
        <time>2022-12-18T15:05:12Z</time>
      </trkpt>
      <trkpt lat="2.010097" lon="-76.751596">
        <ele>2791.909</ele>
        <time>2022-12-18T15:05:17Z</time>
      </trkpt>
      <trkpt lat="2.010051" lon="-76.751589">
        <ele>2789.224</ele>
        <time>2022-12-18T15:05:26Z</time>
      </trkpt>
      <trkpt lat="2.010008" lon="-76.751566">
        <ele>2788.995</ele>
        <time>2022-12-18T15:05:31Z</time>
      </trkpt>
      <trkpt lat="2.009959" lon="-76.751539">
        <ele>2788.884</ele>
        <time>2022-12-18T15:05:36Z</time>
      </trkpt>
      <trkpt lat="2.00992" lon="-76.75151">
        <ele>2788.768</ele>
        <time>2022-12-18T15:05:38Z</time>
      </trkpt>
      <trkpt lat="2.009859" lon="-76.751481">
        <ele>2788.766</ele>
        <time>2022-12-18T15:05:40Z</time>
      </trkpt>
      <trkpt lat="2.009804" lon="-76.751477">
        <ele>2788.577</ele>
        <time>2022-12-18T15:05:42Z</time>
      </trkpt>
      <trkpt lat="2.009747" lon="-76.751483">
        <ele>2788.773</ele>
        <time>2022-12-18T15:05:43Z</time>
      </trkpt>
      <trkpt lat="2.009679" lon="-76.751501">
        <ele>2789.010</ele>
        <time>2022-12-18T15:05:45Z</time>
      </trkpt>
      <trkpt lat="2.009575" lon="-76.751501">
        <ele>2789.035</ele>
        <time>2022-12-18T15:05:47Z</time>
      </trkpt>
      <trkpt lat="2.009468" lon="-76.751488">
        <ele>2786.093</ele>
        <time>2022-12-18T15:05:49Z</time>
      </trkpt>
      <trkpt lat="2.009417" lon="-76.751469">
        <ele>2783.065</ele>
        <time>2022-12-18T15:05:52Z</time>
      </trkpt>
      <trkpt lat="2.009362" lon="-76.751468">
        <ele>2782.221</ele>
        <time>2022-12-18T15:05:55Z</time>
      </trkpt>
      <trkpt lat="2.009302" lon="-76.751475">
        <ele>2779.109</ele>
        <time>2022-12-18T15:05:58Z</time>
      </trkpt>
      <trkpt lat="2.009253" lon="-76.751484">
        <ele>2778.730</ele>
        <time>2022-12-18T15:06:01Z</time>
      </trkpt>
      <trkpt lat="2.009205" lon="-76.751493">
        <ele>2778.461</ele>
        <time>2022-12-18T15:06:04Z</time>
      </trkpt>
      <trkpt lat="2.009158" lon="-76.751487">
        <ele>2776.990</ele>
        <time>2022-12-18T15:06:07Z</time>
      </trkpt>
      <trkpt lat="2.009119" lon="-76.751526">
        <ele>2773.534</ele>
        <time>2022-12-18T15:06:13Z</time>
      </trkpt>
      <trkpt lat="2.009074" lon="-76.751515">
        <ele>2772.122</ele>
        <time>2022-12-18T15:06:16Z</time>
      </trkpt>
      <trkpt lat="2.009028" lon="-76.751504">
        <ele>2768.243</ele>
        <time>2022-12-18T15:06:19Z</time>
      </trkpt>
      <trkpt lat="2.008973" lon="-76.751486">
        <ele>2767.839</ele>
        <time>2022-12-18T15:06:21Z</time>
      </trkpt>
      <trkpt lat="2.008901" lon="-76.751459">
        <ele>2767.646</ele>
        <time>2022-12-18T15:06:23Z</time>
      </trkpt>
      <trkpt lat="2.008849" lon="-76.751435">
        <ele>2765.951</ele>
        <time>2022-12-18T15:06:25Z</time>
      </trkpt>
      <trkpt lat="2.008785" lon="-76.751405">
        <ele>2762.391</ele>
        <time>2022-12-18T15:06:27Z</time>
      </trkpt>
      <trkpt lat="2.00873" lon="-76.751368">
        <ele>2761.581</ele>
        <time>2022-12-18T15:06:29Z</time>
      </trkpt>
      <trkpt lat="2.008687" lon="-76.751346">
        <ele>2760.419</ele>
        <time>2022-12-18T15:06:31Z</time>
      </trkpt>
      <trkpt lat="2.008629" lon="-76.751324">
        <ele>2759.409</ele>
        <time>2022-12-18T15:06:34Z</time>
      </trkpt>
      <trkpt lat="2.008563" lon="-76.751309">
        <ele>2759.070</ele>
        <time>2022-12-18T15:06:37Z</time>
      </trkpt>
      <trkpt lat="2.008497" lon="-76.751313">
        <ele>2758.431</ele>
        <time>2022-12-18T15:06:39Z</time>
      </trkpt>
      <trkpt lat="2.00843" lon="-76.751321">
        <ele>2758.460</ele>
        <time>2022-12-18T15:06:41Z</time>
      </trkpt>
      <trkpt lat="2.00837" lon="-76.751343">
        <ele>2758.084</ele>
        <time>2022-12-18T15:06:43Z</time>
      </trkpt>
      <trkpt lat="2.008319" lon="-76.751369">
        <ele>2756.182</ele>
        <time>2022-12-18T15:06:45Z</time>
      </trkpt>
      <trkpt lat="2.008277" lon="-76.751393">
        <ele>2752.893</ele>
        <time>2022-12-18T15:06:47Z</time>
      </trkpt>
      <trkpt lat="2.008226" lon="-76.751395">
        <ele>2750.039</ele>
        <time>2022-12-18T15:06:52Z</time>
      </trkpt>
      <trkpt lat="2.008182" lon="-76.751384">
        <ele>2748.026</ele>
        <time>2022-12-18T15:06:57Z</time>
      </trkpt>
      <trkpt lat="2.008127" lon="-76.751379">
        <ele>2746.761</ele>
        <time>2022-12-18T15:07:01Z</time>
      </trkpt>
      <trkpt lat="2.008077" lon="-76.751369">
        <ele>2745.626</ele>
        <time>2022-12-18T15:07:05Z</time>
      </trkpt>
      <trkpt lat="2.008054" lon="-76.751316">
        <ele>2745.147</ele>
        <time>2022-12-18T15:07:08Z</time>
      </trkpt>
      <trkpt lat="2.008042" lon="-76.751272">
        <ele>2741.911</ele>
        <time>2022-12-18T15:07:11Z</time>
      </trkpt>
      <trkpt lat="2.007996" lon="-76.751247">
        <ele>2737.809</ele>
        <time>2022-12-18T15:07:17Z</time>
      </trkpt>
      <trkpt lat="2.007943" lon="-76.751227">
        <ele>2737.123</ele>
        <time>2022-12-18T15:07:21Z</time>
      </trkpt>
      <trkpt lat="2.007948" lon="-76.75118">
        <ele>2736.594</ele>
        <time>2022-12-18T15:07:27Z</time>
      </trkpt>
      <trkpt lat="2.007932" lon="-76.751128">
        <ele>2735.583</ele>
        <time>2022-12-18T15:07:31Z</time>
      </trkpt>
      <trkpt lat="2.00788" lon="-76.751123">
        <ele>2735.327</ele>
        <time>2022-12-18T15:07:33Z</time>
      </trkpt>
      <trkpt lat="2.007873" lon="-76.751168">
        <ele>2733.915</ele>
        <time>2022-12-18T15:07:51Z</time>
      </trkpt>
      <trkpt lat="2.007867" lon="-76.751121">
        <ele>2729.186</ele>
        <time>2022-12-18T15:12:28Z</time>
      </trkpt>
      <trkpt lat="2.007826" lon="-76.751099">
        <ele>2729.132</ele>
        <time>2022-12-18T15:12:36Z</time>
      </trkpt>
      <trkpt lat="2.007788" lon="-76.751132">
        <ele>2729.129</ele>
        <time>2022-12-18T15:12:42Z</time>
      </trkpt>
      <trkpt lat="2.00777" lon="-76.751178">
        <ele>2723.594</ele>
        <time>2022-12-18T15:12:44Z</time>
      </trkpt>
      <trkpt lat="2.007751" lon="-76.751225">
        <ele>2720.437</ele>
        <time>2022-12-18T15:12:46Z</time>
      </trkpt>
      <trkpt lat="2.007741" lon="-76.751286">
        <ele>2720.349</ele>
        <time>2022-12-18T15:12:49Z</time>
      </trkpt>
      <trkpt lat="2.007761" lon="-76.751336">
        <ele>2719.813</ele>
        <time>2022-12-18T15:12:51Z</time>
      </trkpt>
      <trkpt lat="2.007795" lon="-76.751374">
        <ele>2718.409</ele>
        <time>2022-12-18T15:12:55Z</time>
      </trkpt>
      <trkpt lat="2.007837" lon="-76.751421">
        <ele>2716.664</ele>
        <time>2022-12-18T15:12:59Z</time>
      </trkpt>
      <trkpt lat="2.007866" lon="-76.751463">
        <ele>2715.615</ele>
        <time>2022-12-18T15:13:01Z</time>
      </trkpt>
      <trkpt lat="2.007886" lon="-76.751507">
        <ele>2715.274</ele>
        <time>2022-12-18T15:13:03Z</time>
      </trkpt>
      <trkpt lat="2.007893" lon="-76.751552">
        <ele>2714.958</ele>
        <time>2022-12-18T15:13:05Z</time>
      </trkpt>
      <trkpt lat="2.007956" lon="-76.751594">
        <ele>2714.776</ele>
        <time>2022-12-18T15:13:08Z</time>
      </trkpt>
      <trkpt lat="2.008008" lon="-76.751647">
        <ele>2714.037</ele>
        <time>2022-12-18T15:13:10Z</time>
      </trkpt>
      <trkpt lat="2.008054" lon="-76.75168">
        <ele>2713.573</ele>
        <time>2022-12-18T15:13:12Z</time>
      </trkpt>
      <trkpt lat="2.008094" lon="-76.75171">
        <ele>2712.580</ele>
        <time>2022-12-18T15:13:14Z</time>
      </trkpt>
      <trkpt lat="2.008135" lon="-76.751748">
        <ele>2711.525</ele>
        <time>2022-12-18T15:13:16Z</time>
      </trkpt>
      <trkpt lat="2.008186" lon="-76.751808">
        <ele>2710.452</ele>
        <time>2022-12-18T15:13:18Z</time>
      </trkpt>
      <trkpt lat="2.008233" lon="-76.751863">
        <ele>2710.453</ele>
        <time>2022-12-18T15:13:20Z</time>
      </trkpt>
      <trkpt lat="2.008285" lon="-76.751916">
        <ele>2709.808</ele>
        <time>2022-12-18T15:13:22Z</time>
      </trkpt>
      <trkpt lat="2.008319" lon="-76.751957">
        <ele>2708.409</ele>
        <time>2022-12-18T15:13:24Z</time>
      </trkpt>
      <trkpt lat="2.008319" lon="-76.752003">
        <ele>2707.946</ele>
        <time>2022-12-18T15:13:26Z</time>
      </trkpt>
      <trkpt lat="2.008312" lon="-76.752051">
        <ele>2707.817</ele>
        <time>2022-12-18T15:13:28Z</time>
      </trkpt>
      <trkpt lat="2.008293" lon="-76.752093">
        <ele>2707.776</ele>
        <time>2022-12-18T15:13:30Z</time>
      </trkpt>
      <trkpt lat="2.008251" lon="-76.75212">
        <ele>2707.310</ele>
        <time>2022-12-18T15:13:33Z</time>
      </trkpt>
      <trkpt lat="2.008204" lon="-76.752136">
        <ele>2706.788</ele>
        <time>2022-12-18T15:13:37Z</time>
      </trkpt>
      <trkpt lat="2.008159" lon="-76.752156">
        <ele>2706.759</ele>
        <time>2022-12-18T15:13:43Z</time>
      </trkpt>
      <trkpt lat="2.008138" lon="-76.752201">
        <ele>2706.455</ele>
        <time>2022-12-18T15:13:49Z</time>
      </trkpt>
      <trkpt lat="2.008089" lon="-76.752234">
        <ele>2706.192</ele>
        <time>2022-12-18T15:13:58Z</time>
      </trkpt>
      <trkpt lat="2.008045" lon="-76.752292">
        <ele>2705.697</ele>
        <time>2022-12-18T15:14:01Z</time>
      </trkpt>
      <trkpt lat="2.00802" lon="-76.752333">
        <ele>2705.493</ele>
        <time>2022-12-18T15:14:02Z</time>
      </trkpt>
      <trkpt lat="2.007976" lon="-76.752379">
        <ele>2703.865</ele>
        <time>2022-12-18T15:14:05Z</time>
      </trkpt>
      <trkpt lat="2.007929" lon="-76.752376">
        <ele>2698.521</ele>
        <time>2022-12-18T15:14:09Z</time>
      </trkpt>
      <trkpt lat="2.007893" lon="-76.752419">
        <ele>2698.409</ele>
        <time>2022-12-18T15:14:15Z</time>
      </trkpt>
      <trkpt lat="2.007863" lon="-76.75246">
        <ele>2698.020</ele>
        <time>2022-12-18T15:14:18Z</time>
      </trkpt>
      <trkpt lat="2.007849" lon="-76.752508">
        <ele>2697.391</ele>
        <time>2022-12-18T15:14:22Z</time>
      </trkpt>
      <trkpt lat="2.007849" lon="-76.752557">
        <ele>2695.480</ele>
        <time>2022-12-18T15:14:27Z</time>
      </trkpt>
      <trkpt lat="2.007868" lon="-76.752598">
        <ele>2690.964</ele>
        <time>2022-12-18T15:14:38Z</time>
      </trkpt>
      <trkpt lat="2.007819" lon="-76.752581">
        <ele>2689.222</ele>
        <time>2022-12-18T15:14:49Z</time>
      </trkpt>
      <trkpt lat="2.007759" lon="-76.752557">
        <ele>2688.313</ele>
        <time>2022-12-18T15:15:05Z</time>
      </trkpt>
      <trkpt lat="2.007712" lon="-76.75253">
        <ele>2687.929</ele>
        <time>2022-12-18T15:15:08Z</time>
      </trkpt>
      <trkpt lat="2.007663" lon="-76.752521">
        <ele>2685.796</ele>
        <time>2022-12-18T15:15:15Z</time>
      </trkpt>
      <trkpt lat="2.007658" lon="-76.752471">
        <ele>2683.921</ele>
        <time>2022-12-18T15:15:20Z</time>
      </trkpt>
      <trkpt lat="2.007612" lon="-76.752477">
        <ele>2681.316</ele>
        <time>2022-12-18T15:15:27Z</time>
      </trkpt>
      <trkpt lat="2.007561" lon="-76.752492">
        <ele>2680.976</ele>
        <time>2022-12-18T15:15:31Z</time>
      </trkpt>
      <trkpt lat="2.00756" lon="-76.752544">
        <ele>2678.613</ele>
        <time>2022-12-18T15:15:34Z</time>
      </trkpt>
      <trkpt lat="2.007548" lon="-76.752606">
        <ele>2677.409</ele>
        <time>2022-12-18T15:15:37Z</time>
      </trkpt>
      <trkpt lat="2.007527" lon="-76.752657">
        <ele>2675.682</ele>
        <time>2022-12-18T15:15:40Z</time>
      </trkpt>
      <trkpt lat="2.007503" lon="-76.752698">
        <ele>2674.623</ele>
        <time>2022-12-18T15:15:43Z</time>
      </trkpt>
      <trkpt lat="2.007487" lon="-76.752764">
        <ele>2674.592</ele>
        <time>2022-12-18T15:15:47Z</time>
      </trkpt>
      <trkpt lat="2.007488" lon="-76.752824">
        <ele>2674.456</ele>
        <time>2022-12-18T15:15:50Z</time>
      </trkpt>
      <trkpt lat="2.007489" lon="-76.752877">
        <ele>2673.714</ele>
        <time>2022-12-18T15:15:54Z</time>
      </trkpt>
      <trkpt lat="2.007466" lon="-76.752837">
        <ele>2669.865</ele>
        <time>2022-12-18T15:16:25Z</time>
      </trkpt>
      <trkpt lat="2.007442" lon="-76.752794">
        <ele>2669.141</ele>
        <time>2022-12-18T15:16:29Z</time>
      </trkpt>
      <trkpt lat="2.007438" lon="-76.752748">
        <ele>2665.658</ele>
        <time>2022-12-18T15:16:37Z</time>
      </trkpt>
      <trkpt lat="2.007428" lon="-76.752679">
        <ele>2665.683</ele>
        <time>2022-12-18T15:16:45Z</time>
      </trkpt>
      <trkpt lat="2.00742" lon="-76.752615">
        <ele>2664.037</ele>
        <time>2022-12-18T15:16:48Z</time>
      </trkpt>
      <trkpt lat="2.007385" lon="-76.752563">
        <ele>2663.849</ele>
        <time>2022-12-18T15:16:50Z</time>
      </trkpt>
      <trkpt lat="2.007342" lon="-76.752526">
        <ele>2682.613</ele>
        <time>2022-12-18T15:16:52Z</time>
      </trkpt>
      <trkpt lat="2.007307" lon="-76.752493">
        <ele>2698.709</ele>
        <time>2022-12-18T15:16:54Z</time>
      </trkpt>
      <trkpt lat="2.007273" lon="-76.752455">
        <ele>2715.734</ele>
        <time>2022-12-18T15:17:00Z</time>
      </trkpt>
      <trkpt lat="2.007277" lon="-76.7524">
        <ele>2697.355</ele>
        <time>2022-12-18T15:17:56Z</time>
      </trkpt>
      <trkpt lat="2.007275" lon="-76.752349">
        <ele>2680.354</ele>
        <time>2022-12-18T15:18:00Z</time>
      </trkpt>
      <trkpt lat="2.007265" lon="-76.7523">
        <ele>2664.988</ele>
        <time>2022-12-18T15:18:06Z</time>
      </trkpt>
      <trkpt lat="2.007287" lon="-76.752257">
        <ele>2664.116</ele>
        <time>2022-12-18T15:18:14Z</time>
      </trkpt>
      <trkpt lat="2.007306" lon="-76.752215">
        <ele>2663.597</ele>
        <time>2022-12-18T15:18:21Z</time>
      </trkpt>
      <trkpt lat="2.007309" lon="-76.752165">
        <ele>2649.873</ele>
        <time>2022-12-18T15:18:28Z</time>
      </trkpt>
      <trkpt lat="2.007322" lon="-76.752121">
        <ele>2645.290</ele>
        <time>2022-12-18T15:18:33Z</time>
      </trkpt>
      <trkpt lat="2.007314" lon="-76.752075">
        <ele>2645.285</ele>
        <time>2022-12-18T15:18:41Z</time>
      </trkpt>
      <trkpt lat="2.007309" lon="-76.752029">
        <ele>2645.226</ele>
        <time>2022-12-18T15:18:48Z</time>
      </trkpt>
      <trkpt lat="2.007286" lon="-76.752069">
        <ele>2645.647</ele>
        <time>2022-12-18T15:18:55Z</time>
      </trkpt>
      <trkpt lat="2.00724" lon="-76.752081">
        <ele>2646.211</ele>
        <time>2022-12-18T15:19:08Z</time>
      </trkpt>
      <trkpt lat="2.007156" lon="-76.752093">
        <ele>2674.509</ele>
        <time>2022-12-18T15:19:14Z</time>
      </trkpt>
      <trkpt lat="2.007098" lon="-76.752095">
        <ele>2693.993</ele>
        <time>2022-12-18T15:19:16Z</time>
      </trkpt>
      <trkpt lat="2.007044" lon="-76.752096">
        <ele>2711.874</ele>
        <time>2022-12-18T15:19:19Z</time>
      </trkpt>
      <trkpt lat="2.006994" lon="-76.752096">
        <ele>2711.873</ele>
        <time>2022-12-18T15:19:21Z</time>
      </trkpt>
      <trkpt lat="2.006943" lon="-76.752082">
        <ele>2716.287</ele>
        <time>2022-12-18T15:19:25Z</time>
      </trkpt>
      <trkpt lat="2.006891" lon="-76.752051">
        <ele>2712.055</ele>
        <time>2022-12-18T15:19:28Z</time>
      </trkpt>
      <trkpt lat="2.006864" lon="-76.75201">
        <ele>2711.666</ele>
        <time>2022-12-18T15:19:31Z</time>
      </trkpt>
      <trkpt lat="2.006856" lon="-76.751964">
        <ele>2695.922</ele>
        <time>2022-12-18T15:19:34Z</time>
      </trkpt>
      <trkpt lat="2.006836" lon="-76.751904">
        <ele>2675.049</ele>
        <time>2022-12-18T15:19:36Z</time>
      </trkpt>
      <trkpt lat="2.006816" lon="-76.751846">
        <ele>2654.764</ele>
        <time>2022-12-18T15:19:38Z</time>
      </trkpt>
      <trkpt lat="2.006793" lon="-76.7518">
        <ele>2637.765</ele>
        <time>2022-12-18T15:19:41Z</time>
      </trkpt>
      <trkpt lat="2.006784" lon="-76.751756">
        <ele>2633.768</ele>
        <time>2022-12-18T15:19:46Z</time>
      </trkpt>
      <trkpt lat="2.006803" lon="-76.751713">
        <ele>2632.814</ele>
        <time>2022-12-18T15:19:51Z</time>
      </trkpt>
      <trkpt lat="2.00679" lon="-76.75167">
        <ele>2630.109</ele>
        <time>2022-12-18T15:19:55Z</time>
      </trkpt>
      <trkpt lat="2.006744" lon="-76.751657">
        <ele>2628.157</ele>
        <time>2022-12-18T15:20:01Z</time>
      </trkpt>
      <trkpt lat="2.006731" lon="-76.751705">
        <ele>2627.698</ele>
        <time>2022-12-18T15:20:06Z</time>
      </trkpt>
      <trkpt lat="2.006698" lon="-76.751671">
        <ele>2626.157</ele>
        <time>2022-12-18T15:20:21Z</time>
      </trkpt>
      <trkpt lat="2.006644" lon="-76.751675">
        <ele>2624.011</ele>
        <time>2022-12-18T15:20:24Z</time>
      </trkpt>
      <trkpt lat="2.006592" lon="-76.751676">
        <ele>2619.279</ele>
        <time>2022-12-18T15:20:26Z</time>
      </trkpt>
      <trkpt lat="2.006567" lon="-76.751719">
        <ele>2616.070</ele>
        <time>2022-12-18T15:20:35Z</time>
      </trkpt>
      <trkpt lat="2.006612" lon="-76.751722">
        <ele>2605.536</ele>
        <time>2022-12-18T15:20:42Z</time>
      </trkpt>
      <trkpt lat="2.006647" lon="-76.751689">
        <ele>2603.053</ele>
        <time>2022-12-18T15:20:50Z</time>
      </trkpt>
      <trkpt lat="2.006626" lon="-76.751646">
        <ele>2603.088</ele>
        <time>2022-12-18T15:20:55Z</time>
      </trkpt>
      <trkpt lat="2.006583" lon="-76.75162">
        <ele>2603.095</ele>
        <time>2022-12-18T15:20:59Z</time>
      </trkpt>
      <trkpt lat="2.006536" lon="-76.751616">
        <ele>2603.049</ele>
        <time>2022-12-18T15:21:03Z</time>
      </trkpt>
      <trkpt lat="2.00652" lon="-76.751662">
        <ele>2605.123</ele>
        <time>2022-12-18T15:21:12Z</time>
      </trkpt>
      <trkpt lat="2.006498" lon="-76.751701">
        <ele>2605.309</ele>
        <time>2022-12-18T15:21:15Z</time>
      </trkpt>
      <trkpt lat="2.00647" lon="-76.751753">
        <ele>2605.280</ele>
        <time>2022-12-18T15:21:18Z</time>
      </trkpt>
      <trkpt lat="2.006453" lon="-76.751801">
        <ele>2605.161</ele>
        <time>2022-12-18T15:21:22Z</time>
      </trkpt>
      <trkpt lat="2.006445" lon="-76.751858">
        <ele>2601.540</ele>
        <time>2022-12-18T15:21:27Z</time>
      </trkpt>
      <trkpt lat="2.006412" lon="-76.75189">
        <ele>2595.924</ele>
        <time>2022-12-18T15:21:35Z</time>
      </trkpt>
      <trkpt lat="2.006408" lon="-76.751842">
        <ele>2592.942</ele>
        <time>2022-12-18T15:21:42Z</time>
      </trkpt>
      <trkpt lat="2.006381" lon="-76.751796">
        <ele>2592.033</ele>
        <time>2022-12-18T15:21:46Z</time>
      </trkpt>
      <trkpt lat="2.006354" lon="-76.751753">
        <ele>2586.039</ele>
        <time>2022-12-18T15:21:56Z</time>
      </trkpt>
      <trkpt lat="2.006352" lon="-76.751706">
        <ele>2584.436</ele>
        <time>2022-12-18T15:22:06Z</time>
      </trkpt>
      <trkpt lat="2.006353" lon="-76.751652">
        <ele>2582.791</ele>
        <time>2022-12-18T15:22:12Z</time>
      </trkpt>
      <trkpt lat="2.006339" lon="-76.751604">
        <ele>2580.533</ele>
        <time>2022-12-18T15:22:16Z</time>
      </trkpt>
      <trkpt lat="2.006318" lon="-76.751557">
        <ele>2578.623</ele>
        <time>2022-12-18T15:22:21Z</time>
      </trkpt>
      <trkpt lat="2.00629" lon="-76.751504">
        <ele>2576.515</ele>
        <time>2022-12-18T15:22:26Z</time>
      </trkpt>
      <trkpt lat="2.006246" lon="-76.751481">
        <ele>2575.509</ele>
        <time>2022-12-18T15:22:30Z</time>
      </trkpt>
      <trkpt lat="2.006212" lon="-76.751448">
        <ele>2574.914</ele>
        <time>2022-12-18T15:22:35Z</time>
      </trkpt>
      <trkpt lat="2.006213" lon="-76.751402">
        <ele>2575.275</ele>
        <time>2022-12-18T15:22:38Z</time>
      </trkpt>
      <trkpt lat="2.006219" lon="-76.751354">
        <ele>2574.424</ele>
        <time>2022-12-18T15:22:41Z</time>
      </trkpt>
      <trkpt lat="2.006182" lon="-76.751325">
        <ele>2571.158</ele>
        <time>2022-12-18T15:24:02Z</time>
      </trkpt>
      <trkpt lat="2.006229" lon="-76.751338">
        <ele>2565.766</ele>
        <time>2022-12-18T15:28:13Z</time>
      </trkpt>
      <trkpt lat="2.0062" lon="-76.751303">
        <ele>2562.677</ele>
        <time>2022-12-18T15:32:03Z</time>
      </trkpt>
      <trkpt lat="2.006159" lon="-76.751325">
        <ele>2562.433</ele>
        <time>2022-12-18T15:32:10Z</time>
      </trkpt>
      <trkpt lat="2.006117" lon="-76.751368">
        <ele>2562.460</ele>
        <time>2022-12-18T15:32:15Z</time>
      </trkpt>
      <trkpt lat="2.006071" lon="-76.751401">
        <ele>2562.725</ele>
        <time>2022-12-18T15:32:19Z</time>
      </trkpt>
      <trkpt lat="2.006024" lon="-76.751411">
        <ele>2564.728</ele>
        <time>2022-12-18T15:32:23Z</time>
      </trkpt>
      <trkpt lat="2.005974" lon="-76.751438">
        <ele>2564.689</ele>
        <time>2022-12-18T15:32:27Z</time>
      </trkpt>
      <trkpt lat="2.005954" lon="-76.751479">
        <ele>2565.417</ele>
        <time>2022-12-18T15:32:34Z</time>
      </trkpt>
      <trkpt lat="2.005922" lon="-76.751533">
        <ele>2567.809</ele>
        <time>2022-12-18T15:32:39Z</time>
      </trkpt>
      <trkpt lat="2.005957" lon="-76.751505">
        <ele>2570.173</ele>
        <time>2022-12-18T15:32:51Z</time>
      </trkpt>
      <trkpt lat="2.005956" lon="-76.751554">
        <ele>2573.624</ele>
        <time>2022-12-18T15:33:02Z</time>
      </trkpt>
      <trkpt lat="2.005912" lon="-76.751576">
        <ele>2590.093</ele>
        <time>2022-12-18T15:33:06Z</time>
      </trkpt>
      <trkpt lat="2.005896" lon="-76.751618">
        <ele>2579.517</ele>
        <time>2022-12-18T15:33:14Z</time>
      </trkpt>
      <trkpt lat="2.0059" lon="-76.751666">
        <ele>2579.535</ele>
        <time>2022-12-18T15:33:20Z</time>
      </trkpt>
      <trkpt lat="2.005914" lon="-76.751713">
        <ele>2579.516</ele>
        <time>2022-12-18T15:33:27Z</time>
      </trkpt>
      <trkpt lat="2.005915" lon="-76.75176">
        <ele>2577.522</ele>
        <time>2022-12-18T15:33:33Z</time>
      </trkpt>
      <trkpt lat="2.005897" lon="-76.751802">
        <ele>2577.419</ele>
        <time>2022-12-18T15:33:38Z</time>
      </trkpt>
      <trkpt lat="2.005887" lon="-76.751849">
        <ele>2578.224</ele>
        <time>2022-12-18T15:33:44Z</time>
      </trkpt>
      <trkpt lat="2.005871" lon="-76.751892">
        <ele>2579.373</ele>
        <time>2022-12-18T15:33:49Z</time>
      </trkpt>
      <trkpt lat="2.005847" lon="-76.751934">
        <ele>2581.185</ele>
        <time>2022-12-18T15:33:56Z</time>
      </trkpt>
      <trkpt lat="2.005863" lon="-76.751982">
        <ele>2589.913</ele>
        <time>2022-12-18T15:34:23Z</time>
      </trkpt>
      <trkpt lat="2.00582" lon="-76.751999">
        <ele>2592.409</ele>
        <time>2022-12-18T15:34:27Z</time>
      </trkpt>
      <trkpt lat="2.005774" lon="-76.75202">
        <ele>2593.368</ele>
        <time>2022-12-18T15:34:32Z</time>
      </trkpt>
      <trkpt lat="2.005752" lon="-76.752063">
        <ele>2593.369</ele>
        <time>2022-12-18T15:34:36Z</time>
      </trkpt>
      <trkpt lat="2.00572" lon="-76.752096">
        <ele>2591.348</ele>
        <time>2022-12-18T15:34:41Z</time>
      </trkpt>
      <trkpt lat="2.005671" lon="-76.752122">
        <ele>2589.192</ele>
        <time>2022-12-18T15:34:46Z</time>
      </trkpt>
      <trkpt lat="2.005632" lon="-76.752154">
        <ele>2587.740</ele>
        <time>2022-12-18T15:34:49Z</time>
      </trkpt>
      <trkpt lat="2.005636" lon="-76.752202">
        <ele>2587.841</ele>
        <time>2022-12-18T15:34:56Z</time>
      </trkpt>
      <trkpt lat="2.00566" lon="-76.752243">
        <ele>2587.557</ele>
        <time>2022-12-18T15:35:05Z</time>
      </trkpt>
      <trkpt lat="2.005682" lon="-76.752285">
        <ele>2587.654</ele>
        <time>2022-12-18T15:35:13Z</time>
      </trkpt>
      <trkpt lat="2.005674" lon="-76.752332">
        <ele>2588.199</ele>
        <time>2022-12-18T15:35:21Z</time>
      </trkpt>
      <trkpt lat="2.005634" lon="-76.752357">
        <ele>2588.983</ele>
        <time>2022-12-18T15:35:34Z</time>
      </trkpt>
      <trkpt lat="2.005619" lon="-76.752405">
        <ele>2589.325</ele>
        <time>2022-12-18T15:35:42Z</time>
      </trkpt>
      <trkpt lat="2.005623" lon="-76.75245">
        <ele>2591.017</ele>
        <time>2022-12-18T15:35:46Z</time>
      </trkpt>
      <trkpt lat="2.005627" lon="-76.7525">
        <ele>2591.109</ele>
        <time>2022-12-18T15:35:49Z</time>
      </trkpt>
      <trkpt lat="2.005621" lon="-76.752546">
        <ele>2591.689</ele>
        <time>2022-12-18T15:35:54Z</time>
      </trkpt>
      <trkpt lat="2.005616" lon="-76.752595">
        <ele>2591.030</ele>
        <time>2022-12-18T15:36:01Z</time>
      </trkpt>
      <trkpt lat="2.005634" lon="-76.752637">
        <ele>2591.589</ele>
        <time>2022-12-18T15:36:14Z</time>
      </trkpt>
      <trkpt lat="2.005643" lon="-76.75269">
        <ele>2591.923</ele>
        <time>2022-12-18T15:36:27Z</time>
      </trkpt>
      <trkpt lat="2.00563" lon="-76.752737">
        <ele>2591.711</ele>
        <time>2022-12-18T15:36:31Z</time>
      </trkpt>
      <trkpt lat="2.00561" lon="-76.752781">
        <ele>2592.182</ele>
        <time>2022-12-18T15:36:36Z</time>
      </trkpt>
      <trkpt lat="2.005594" lon="-76.752825">
        <ele>2592.138</ele>
        <time>2022-12-18T15:36:40Z</time>
      </trkpt>
      <trkpt lat="2.005575" lon="-76.752874">
        <ele>2592.255</ele>
        <time>2022-12-18T15:36:47Z</time>
      </trkpt>
      <trkpt lat="2.005563" lon="-76.752922">
        <ele>2591.210</ele>
        <time>2022-12-18T15:36:52Z</time>
      </trkpt>
      <trkpt lat="2.005566" lon="-76.752968">
        <ele>2590.654</ele>
        <time>2022-12-18T15:36:58Z</time>
      </trkpt>
      <trkpt lat="2.00557" lon="-76.753021">
        <ele>2590.656</ele>
        <time>2022-12-18T15:37:12Z</time>
      </trkpt>
      <trkpt lat="2.005585" lon="-76.753066">
        <ele>2591.111</ele>
        <time>2022-12-18T15:37:17Z</time>
      </trkpt>
      <trkpt lat="2.005578" lon="-76.753121">
        <ele>2591.709</ele>
        <time>2022-12-18T15:37:21Z</time>
      </trkpt>
      <trkpt lat="2.005554" lon="-76.753166">
        <ele>2595.586</ele>
        <time>2022-12-18T15:37:26Z</time>
      </trkpt>
      <trkpt lat="2.005508" lon="-76.753193">
        <ele>2599.917</ele>
        <time>2022-12-18T15:37:31Z</time>
      </trkpt>
      <trkpt lat="2.005465" lon="-76.753207">
        <ele>2603.516</ele>
        <time>2022-12-18T15:37:34Z</time>
      </trkpt>
      <trkpt lat="2.00542" lon="-76.753221">
        <ele>2605.010</ele>
        <time>2022-12-18T15:37:37Z</time>
      </trkpt>
      <trkpt lat="2.005373" lon="-76.753248">
        <ele>2605.468</ele>
        <time>2022-12-18T15:37:41Z</time>
      </trkpt>
      <trkpt lat="2.005333" lon="-76.753283">
        <ele>2605.589</ele>
        <time>2022-12-18T15:37:45Z</time>
      </trkpt>
      <trkpt lat="2.005289" lon="-76.753301">
        <ele>2605.965</ele>
        <time>2022-12-18T15:37:50Z</time>
      </trkpt>
      <trkpt lat="2.005242" lon="-76.753309">
        <ele>2606.532</ele>
        <time>2022-12-18T15:37:53Z</time>
      </trkpt>
      <trkpt lat="2.005197" lon="-76.753311">
        <ele>2606.567</ele>
        <time>2022-12-18T15:37:57Z</time>
      </trkpt>
      <trkpt lat="2.005149" lon="-76.7533">
        <ele>2606.713</ele>
        <time>2022-12-18T15:38:00Z</time>
      </trkpt>
      <trkpt lat="2.005102" lon="-76.753281">
        <ele>2607.143</ele>
        <time>2022-12-18T15:38:05Z</time>
      </trkpt>
      <trkpt lat="2.005052" lon="-76.75328">
        <ele>2607.507</ele>
        <time>2022-12-18T15:38:09Z</time>
      </trkpt>
      <trkpt lat="2.004993" lon="-76.75327">
        <ele>2607.609</ele>
        <time>2022-12-18T15:38:13Z</time>
      </trkpt>
      <trkpt lat="2.004946" lon="-76.75329">
        <ele>2608.362</ele>
        <time>2022-12-18T15:38:20Z</time>
      </trkpt>
      <trkpt lat="2.00489" lon="-76.753307">
        <ele>2608.723</ele>
        <time>2022-12-18T15:38:24Z</time>
      </trkpt>
      <trkpt lat="2.004846" lon="-76.75332">
        <ele>2608.832</ele>
        <time>2022-12-18T15:38:26Z</time>
      </trkpt>
      <trkpt lat="2.004802" lon="-76.753348">
        <ele>2609.926</ele>
        <time>2022-12-18T15:38:28Z</time>
      </trkpt>
      <trkpt lat="2.00475" lon="-76.753369">
        <ele>2609.974</ele>
        <time>2022-12-18T15:38:32Z</time>
      </trkpt>
      <trkpt lat="2.00469" lon="-76.753378">
        <ele>2609.955</ele>
        <time>2022-12-18T15:38:35Z</time>
      </trkpt>
      <trkpt lat="2.004643" lon="-76.7534">
        <ele>2609.341</ele>
        <time>2022-12-18T15:38:38Z</time>
      </trkpt>
      <trkpt lat="2.004605" lon="-76.753439">
        <ele>2608.168</ele>
        <time>2022-12-18T15:38:42Z</time>
      </trkpt>
      <trkpt lat="2.004562" lon="-76.753473">
        <ele>2608.053</ele>
        <time>2022-12-18T15:38:45Z</time>
      </trkpt>
      <trkpt lat="2.004515" lon="-76.753482">
        <ele>2608.132</ele>
        <time>2022-12-18T15:38:49Z</time>
      </trkpt>
      <trkpt lat="2.00447" lon="-76.753487">
        <ele>2608.592</ele>
        <time>2022-12-18T15:39:37Z</time>
      </trkpt>
      <trkpt lat="2.004515" lon="-76.753481">
        <ele>2608.711</ele>
        <time>2022-12-18T15:40:11Z</time>
      </trkpt>
      <trkpt lat="2.004468" lon="-76.753506">
        <ele>2612.809</ele>
        <time>2022-12-18T15:41:53Z</time>
      </trkpt>
      <trkpt lat="2.004425" lon="-76.753517">
        <ele>2613.054</ele>
        <time>2022-12-18T15:41:56Z</time>
      </trkpt>
      <trkpt lat="2.004373" lon="-76.753538">
        <ele>2613.115</ele>
        <time>2022-12-18T15:41:59Z</time>
      </trkpt>
      <trkpt lat="2.004335" lon="-76.753564">
        <ele>2613.144</ele>
        <time>2022-12-18T15:42:01Z</time>
      </trkpt>
      <trkpt lat="2.004294" lon="-76.753586">
        <ele>2613.278</ele>
        <time>2022-12-18T15:42:03Z</time>
      </trkpt>
      <trkpt lat="2.00425" lon="-76.753602">
        <ele>2617.466</ele>
        <time>2022-12-18T15:42:06Z</time>
      </trkpt>
      <trkpt lat="2.0042" lon="-76.753627">
        <ele>2618.327</ele>
        <time>2022-12-18T15:42:10Z</time>
      </trkpt>
      <trkpt lat="2.004195" lon="-76.753674">
        <ele>2618.863</ele>
        <time>2022-12-18T15:42:18Z</time>
      </trkpt>
      <trkpt lat="2.004216" lon="-76.753716">
        <ele>2619.530</ele>
        <time>2022-12-18T15:42:29Z</time>
      </trkpt>
      <trkpt lat="2.00422" lon="-76.753775">
        <ele>2619.685</ele>
        <time>2022-12-18T15:42:31Z</time>
      </trkpt>
      <trkpt lat="2.00421" lon="-76.753832">
        <ele>2619.926</ele>
        <time>2022-12-18T15:42:33Z</time>
      </trkpt>
      <trkpt lat="2.004191" lon="-76.753896">
        <ele>2620.147</ele>
        <time>2022-12-18T15:42:35Z</time>
      </trkpt>
      <trkpt lat="2.00416" lon="-76.753938">
        <ele>2620.211</ele>
        <time>2022-12-18T15:42:37Z</time>
      </trkpt>
      <trkpt lat="2.004124" lon="-76.753997">
        <ele>2616.009</ele>
        <time>2022-12-18T15:42:40Z</time>
      </trkpt>
      <trkpt lat="2.004077" lon="-76.75404">
        <ele>2614.723</ele>
        <time>2022-12-18T15:42:42Z</time>
      </trkpt>
      <trkpt lat="2.004061" lon="-76.754097">
        <ele>2614.354</ele>
        <time>2022-12-18T15:42:44Z</time>
      </trkpt>
      <trkpt lat="2.00406" lon="-76.754149">
        <ele>2614.383</ele>
        <time>2022-12-18T15:42:46Z</time>
      </trkpt>
      <trkpt lat="2.004063" lon="-76.754206">
        <ele>2613.867</ele>
        <time>2022-12-18T15:42:48Z</time>
      </trkpt>
      <trkpt lat="2.004059" lon="-76.754257">
        <ele>2613.025</ele>
        <time>2022-12-18T15:42:51Z</time>
      </trkpt>
      <trkpt lat="2.00406" lon="-76.754305">
        <ele>2612.716</ele>
        <time>2022-12-18T15:42:53Z</time>
      </trkpt>
      <trkpt lat="2.004065" lon="-76.754352">
        <ele>2612.932</ele>
        <time>2022-12-18T15:42:55Z</time>
      </trkpt>
      <trkpt lat="2.00406" lon="-76.754398">
        <ele>2612.989</ele>
        <time>2022-12-18T15:42:57Z</time>
      </trkpt>
      <trkpt lat="2.004068" lon="-76.754465">
        <ele>2614.694</ele>
        <time>2022-12-18T15:43:00Z</time>
      </trkpt>
      <trkpt lat="2.004075" lon="-76.754549">
        <ele>2615.725</ele>
        <time>2022-12-18T15:43:02Z</time>
      </trkpt>
      <trkpt lat="2.004063" lon="-76.754624">
        <ele>2615.726</ele>
        <time>2022-12-18T15:43:04Z</time>
      </trkpt>
      <trkpt lat="2.004079" lon="-76.75468">
        <ele>2616.708</ele>
        <time>2022-12-18T15:43:06Z</time>
      </trkpt>
      <trkpt lat="2.004092" lon="-76.75474">
        <ele>2616.809</ele>
        <time>2022-12-18T15:43:09Z</time>
      </trkpt>
      <trkpt lat="2.004117" lon="-76.754777">
        <ele>2617.523</ele>
        <time>2022-12-18T15:43:11Z</time>
      </trkpt>
      <trkpt lat="2.004141" lon="-76.754843">
        <ele>2618.754</ele>
        <time>2022-12-18T15:43:14Z</time>
      </trkpt>
      <trkpt lat="2.004186" lon="-76.754879">
        <ele>2620.283</ele>
        <time>2022-12-18T15:43:16Z</time>
      </trkpt>
      <trkpt lat="2.00423" lon="-76.754894">
        <ele>2621.567</ele>
        <time>2022-12-18T15:43:20Z</time>
      </trkpt>
      <trkpt lat="2.004273" lon="-76.754921">
        <ele>2622.135</ele>
        <time>2022-12-18T15:43:24Z</time>
      </trkpt>
      <trkpt lat="2.004316" lon="-76.754938">
        <ele>2622.276</ele>
        <time>2022-12-18T15:43:26Z</time>
      </trkpt>
      <trkpt lat="2.004355" lon="-76.754973">
        <ele>2622.732</ele>
        <time>2022-12-18T15:43:28Z</time>
      </trkpt>
      <trkpt lat="2.004384" lon="-76.75502">
        <ele>2622.789</ele>
        <time>2022-12-18T15:43:31Z</time>
      </trkpt>
      <trkpt lat="2.004387" lon="-76.755089">
        <ele>2622.724</ele>
        <time>2022-12-18T15:43:34Z</time>
      </trkpt>
      <trkpt lat="2.00436" lon="-76.755156">
        <ele>2622.738</ele>
        <time>2022-12-18T15:43:36Z</time>
      </trkpt>
      <trkpt lat="2.004343" lon="-76.755202">
        <ele>2620.470</ele>
        <time>2022-12-18T15:43:37Z</time>
      </trkpt>
      <trkpt lat="2.004319" lon="-76.755277">
        <ele>2615.517</ele>
        <time>2022-12-18T15:43:39Z</time>
      </trkpt>
      <trkpt lat="2.004284" lon="-76.755321">
        <ele>2612.909</ele>
        <time>2022-12-18T15:43:40Z</time>
      </trkpt>
      <trkpt lat="2.00422" lon="-76.755388">
        <ele>2611.814</ele>
        <time>2022-12-18T15:43:42Z</time>
      </trkpt>
      <trkpt lat="2.004148" lon="-76.755437">
        <ele>2611.755</ele>
        <time>2022-12-18T15:43:44Z</time>
      </trkpt>
      <trkpt lat="2.004076" lon="-76.755488">
        <ele>2611.574</ele>
        <time>2022-12-18T15:43:46Z</time>
      </trkpt>
      <trkpt lat="2.00402" lon="-76.755511">
        <ele>2610.218</ele>
        <time>2022-12-18T15:43:48Z</time>
      </trkpt>
      <trkpt lat="2.003959" lon="-76.755531">
        <ele>2609.176</ele>
        <time>2022-12-18T15:43:49Z</time>
      </trkpt>
      <trkpt lat="2.003893" lon="-76.755571">
        <ele>2608.047</ele>
        <time>2022-12-18T15:43:51Z</time>
      </trkpt>
      <trkpt lat="2.003838" lon="-76.755611">
        <ele>2607.713</ele>
        <time>2022-12-18T15:43:53Z</time>
      </trkpt>
      <trkpt lat="2.00379" lon="-76.75564">
        <ele>2607.890</ele>
        <time>2022-12-18T15:43:55Z</time>
      </trkpt>
      <trkpt lat="2.003748" lon="-76.755674">
        <ele>2608.995</ele>
        <time>2022-12-18T15:43:57Z</time>
      </trkpt>
      <trkpt lat="2.003707" lon="-76.755712">
        <ele>2609.287</ele>
        <time>2022-12-18T15:43:59Z</time>
      </trkpt>
      <trkpt lat="2.00368" lon="-76.755754">
        <ele>2609.642</ele>
        <time>2022-12-18T15:44:01Z</time>
      </trkpt>
      <trkpt lat="2.003652" lon="-76.755801">
        <ele>2610.226</ele>
        <time>2022-12-18T15:44:03Z</time>
      </trkpt>
      <trkpt lat="2.003628" lon="-76.755848">
        <ele>2610.209</ele>
        <time>2022-12-18T15:44:05Z</time>
      </trkpt>
      <trkpt lat="2.003597" lon="-76.755889">
        <ele>2610.259</ele>
        <time>2022-12-18T15:44:07Z</time>
      </trkpt>
      <trkpt lat="2.003562" lon="-76.755924">
        <ele>2609.860</ele>
        <time>2022-12-18T15:44:09Z</time>
      </trkpt>
      <trkpt lat="2.003527" lon="-76.755976">
        <ele>2607.989</ele>
        <time>2022-12-18T15:44:11Z</time>
      </trkpt>
      <trkpt lat="2.003485" lon="-76.756024">
        <ele>2605.563</ele>
        <time>2022-12-18T15:44:13Z</time>
      </trkpt>
      <trkpt lat="2.003451" lon="-76.756058">
        <ele>2603.061</ele>
        <time>2022-12-18T15:44:15Z</time>
      </trkpt>
      <trkpt lat="2.00341" lon="-76.756082">
        <ele>2602.682</ele>
        <time>2022-12-18T15:44:17Z</time>
      </trkpt>
      <trkpt lat="2.003373" lon="-76.756113">
        <ele>2601.398</ele>
        <time>2022-12-18T15:44:19Z</time>
      </trkpt>
      <trkpt lat="2.003329" lon="-76.756148">
        <ele>2597.965</ele>
        <time>2022-12-18T15:44:21Z</time>
      </trkpt>
      <trkpt lat="2.00328" lon="-76.756186">
        <ele>2595.940</ele>
        <time>2022-12-18T15:44:24Z</time>
      </trkpt>
      <trkpt lat="2.003227" lon="-76.756199">
        <ele>2594.844</ele>
        <time>2022-12-18T15:44:27Z</time>
      </trkpt>
      <trkpt lat="2.003188" lon="-76.756224">
        <ele>2593.905</ele>
        <time>2022-12-18T15:44:32Z</time>
      </trkpt>
      <trkpt lat="2.003142" lon="-76.756226">
        <ele>2594.115</ele>
        <time>2022-12-18T15:44:35Z</time>
      </trkpt>
      <trkpt lat="2.003098" lon="-76.756204">
        <ele>2593.909</ele>
        <time>2022-12-18T15:44:37Z</time>
      </trkpt>
      <trkpt lat="2.003049" lon="-76.756192">
        <ele>2593.775</ele>
        <time>2022-12-18T15:44:39Z</time>
      </trkpt>
      <trkpt lat="2.00299" lon="-76.756193">
        <ele>2593.766</ele>
        <time>2022-12-18T15:44:40Z</time>
      </trkpt>
      <trkpt lat="2.002912" lon="-76.756195">
        <ele>2593.925</ele>
        <time>2022-12-18T15:44:42Z</time>
      </trkpt>
      <trkpt lat="2.002841" lon="-76.756208">
        <ele>2593.789</ele>
        <time>2022-12-18T15:44:44Z</time>
      </trkpt>
      <trkpt lat="2.002772" lon="-76.756217">
        <ele>2593.967</ele>
        <time>2022-12-18T15:44:46Z</time>
      </trkpt>
      <trkpt lat="2.002713" lon="-76.756207">
        <ele>2594.458</ele>
        <time>2022-12-18T15:44:48Z</time>
      </trkpt>
      <trkpt lat="2.002633" lon="-76.756194">
        <ele>2595.874</ele>
        <time>2022-12-18T15:44:50Z</time>
      </trkpt>
      <trkpt lat="2.002563" lon="-76.75619">
        <ele>2595.931</ele>
        <time>2022-12-18T15:44:51Z</time>
      </trkpt>
      <trkpt lat="2.002485" lon="-76.756185">
        <ele>2595.766</ele>
        <time>2022-12-18T15:44:53Z</time>
      </trkpt>
      <trkpt lat="2.002378" lon="-76.756251">
        <ele>2595.051</ele>
        <time>2022-12-18T15:44:55Z</time>
      </trkpt>
      <trkpt lat="2.002324" lon="-76.756236">
        <ele>2595.101</ele>
        <time>2022-12-18T15:44:59Z</time>
      </trkpt>
      <trkpt lat="2.002227" lon="-76.756246">
        <ele>2595.011</ele>
        <time>2022-12-18T15:45:01Z</time>
      </trkpt>
      <trkpt lat="2.002133" lon="-76.756237">
        <ele>2595.009</ele>
        <time>2022-12-18T15:45:03Z</time>
      </trkpt>
      <trkpt lat="2.002087" lon="-76.756235">
        <ele>2594.496</ele>
        <time>2022-12-18T15:45:05Z</time>
      </trkpt>
      <trkpt lat="2.002042" lon="-76.756241">
        <ele>2593.727</ele>
        <time>2022-12-18T15:45:08Z</time>
      </trkpt>
      <trkpt lat="2.002029" lon="-76.756286">
        <ele>2593.696</ele>
        <time>2022-12-18T15:45:13Z</time>
      </trkpt>
      <trkpt lat="2.001989" lon="-76.756308">
        <ele>2589.610</ele>
        <time>2022-12-18T15:45:24Z</time>
      </trkpt>
      <trkpt lat="2.001953" lon="-76.756336">
        <ele>2587.848</ele>
        <time>2022-12-18T15:45:33Z</time>
      </trkpt>
      <trkpt lat="2.00191" lon="-76.756358">
        <ele>2587.669</ele>
        <time>2022-12-18T15:45:35Z</time>
      </trkpt>
      <trkpt lat="2.001859" lon="-76.756406">
        <ele>2587.365</ele>
        <time>2022-12-18T15:45:37Z</time>
      </trkpt>
      <trkpt lat="2.001821" lon="-76.756467">
        <ele>2587.172</ele>
        <time>2022-12-18T15:45:39Z</time>
      </trkpt>
      <trkpt lat="2.001801" lon="-76.756511">
        <ele>2586.197</ele>
        <time>2022-12-18T15:45:41Z</time>
      </trkpt>
      <trkpt lat="2.001788" lon="-76.756572">
        <ele>2584.966</ele>
        <time>2022-12-18T15:45:44Z</time>
      </trkpt>
      <trkpt lat="2.001799" lon="-76.756621">
        <ele>2584.929</ele>
        <time>2022-12-18T15:45:46Z</time>
      </trkpt>
      <trkpt lat="2.001804" lon="-76.756672">
        <ele>2586.621</ele>
        <time>2022-12-18T15:45:48Z</time>
      </trkpt>
      <trkpt lat="2.001823" lon="-76.756723">
        <ele>2586.609</ele>
        <time>2022-12-18T15:45:51Z</time>
      </trkpt>
      <trkpt lat="2.001834" lon="-76.756789">
        <ele>2586.647</ele>
        <time>2022-12-18T15:45:54Z</time>
      </trkpt>
      <trkpt lat="2.001827" lon="-76.756835">
        <ele>2586.658</ele>
        <time>2022-12-18T15:45:56Z</time>
      </trkpt>
      <trkpt lat="2.001811" lon="-76.756883">
        <ele>2585.237</ele>
        <time>2022-12-18T15:45:59Z</time>
      </trkpt>
      <trkpt lat="2.001803" lon="-76.75693">
        <ele>2584.361</ele>
        <time>2022-12-18T15:46:05Z</time>
      </trkpt>
      <trkpt lat="2.001769" lon="-76.756986">
        <ele>2583.469</ele>
        <time>2022-12-18T15:46:09Z</time>
      </trkpt>
      <trkpt lat="2.001737" lon="-76.757031">
        <ele>2582.710</ele>
        <time>2022-12-18T15:46:12Z</time>
      </trkpt>
      <trkpt lat="2.001703" lon="-76.757068">
        <ele>2582.066</ele>
        <time>2022-12-18T15:46:14Z</time>
      </trkpt>
      <trkpt lat="2.001663" lon="-76.757119">
        <ele>2581.393</ele>
        <time>2022-12-18T15:46:16Z</time>
      </trkpt>
      <trkpt lat="2.001627" lon="-76.757159">
        <ele>2578.738</ele>
        <time>2022-12-18T15:46:18Z</time>
      </trkpt>
      <trkpt lat="2.001595" lon="-76.757193">
        <ele>2577.082</ele>
        <time>2022-12-18T15:46:21Z</time>
      </trkpt>
      <trkpt lat="2.001569" lon="-76.757237">
        <ele>2577.043</ele>
        <time>2022-12-18T15:46:24Z</time>
      </trkpt>
      <trkpt lat="2.001523" lon="-76.757281">
        <ele>2575.517</ele>
        <time>2022-12-18T15:46:27Z</time>
      </trkpt>
      <trkpt lat="2.001479" lon="-76.757317">
        <ele>2574.109</ele>
        <time>2022-12-18T15:46:29Z</time>
      </trkpt>
      <trkpt lat="2.001435" lon="-76.757362">
        <ele>2572.799</ele>
        <time>2022-12-18T15:46:32Z</time>
      </trkpt>
      <trkpt lat="2.001405" lon="-76.757416">
        <ele>2570.260</ele>
        <time>2022-12-18T15:46:35Z</time>
      </trkpt>
      <trkpt lat="2.001376" lon="-76.757451">
        <ele>2569.849</ele>
        <time>2022-12-18T15:46:37Z</time>
      </trkpt>
      <trkpt lat="2.001338" lon="-76.757494">
        <ele>2569.283</ele>
        <time>2022-12-18T15:46:40Z</time>
      </trkpt>
      <trkpt lat="2.001306" lon="-76.757537">
        <ele>2568.941</ele>
        <time>2022-12-18T15:46:43Z</time>
      </trkpt>
      <trkpt lat="2.001262" lon="-76.757582">
        <ele>2568.722</ele>
        <time>2022-12-18T15:46:46Z</time>
      </trkpt>
      <trkpt lat="2.001254" lon="-76.757629">
        <ele>2568.628</ele>
        <time>2022-12-18T15:46:48Z</time>
      </trkpt>
      <trkpt lat="2.001238" lon="-76.757683">
        <ele>2568.315</ele>
        <time>2022-12-18T15:46:51Z</time>
      </trkpt>
      <trkpt lat="2.001224" lon="-76.757741">
        <ele>2568.060</ele>
        <time>2022-12-18T15:46:54Z</time>
      </trkpt>
      <trkpt lat="2.001216" lon="-76.757802">
        <ele>2567.094</ele>
        <time>2022-12-18T15:46:57Z</time>
      </trkpt>
      <trkpt lat="2.001205" lon="-76.757861">
        <ele>2566.157</ele>
        <time>2022-12-18T15:47:00Z</time>
      </trkpt>
      <trkpt lat="2.001199" lon="-76.757906">
        <ele>2563.822</ele>
        <time>2022-12-18T15:47:03Z</time>
      </trkpt>
      <trkpt lat="2.0012" lon="-76.757961">
        <ele>2561.909</ele>
        <time>2022-12-18T15:47:07Z</time>
      </trkpt>
      <trkpt lat="2.001215" lon="-76.758015">
        <ele>2559.720</ele>
        <time>2022-12-18T15:47:11Z</time>
      </trkpt>
      <trkpt lat="2.001201" lon="-76.758058">
        <ele>2559.021</ele>
        <time>2022-12-18T15:47:17Z</time>
      </trkpt>
      <trkpt lat="2.001174" lon="-76.758094">
        <ele>2558.280</ele>
        <time>2022-12-18T15:47:24Z</time>
      </trkpt>
      <trkpt lat="2.001148" lon="-76.758132">
        <ele>2551.974</ele>
        <time>2022-12-18T15:47:58Z</time>
      </trkpt>
      <trkpt lat="2.00112" lon="-76.758171">
        <ele>2549.722</ele>
        <time>2022-12-18T15:48:24Z</time>
      </trkpt>
      <trkpt lat="2.001099" lon="-76.758213">
        <ele>2549.553</ele>
        <time>2022-12-18T15:48:28Z</time>
      </trkpt>
      <trkpt lat="2.001076" lon="-76.758253">
        <ele>2549.169</ele>
        <time>2022-12-18T15:48:32Z</time>
      </trkpt>
      <trkpt lat="2.001026" lon="-76.758311">
        <ele>2548.936</ele>
        <time>2022-12-18T15:48:35Z</time>
      </trkpt>
      <trkpt lat="2.000989" lon="-76.758341">
        <ele>2548.611</ele>
        <time>2022-12-18T15:48:37Z</time>
      </trkpt>
      <trkpt lat="2.000956" lon="-76.758406">
        <ele>2544.862</ele>
        <time>2022-12-18T15:48:39Z</time>
      </trkpt>
      <trkpt lat="2.000916" lon="-76.75846">
        <ele>2544.683</ele>
        <time>2022-12-18T15:48:41Z</time>
      </trkpt>
      <trkpt lat="2.000885" lon="-76.75852">
        <ele>2544.711</ele>
        <time>2022-12-18T15:48:43Z</time>
      </trkpt>
      <trkpt lat="2.00084" lon="-76.758565">
        <ele>2544.709</ele>
        <time>2022-12-18T15:48:45Z</time>
      </trkpt>
      <trkpt lat="2.000833" lon="-76.758617">
        <ele>2542.677</ele>
        <time>2022-12-18T15:48:48Z</time>
      </trkpt>
      <trkpt lat="2.000833" lon="-76.758662">
        <ele>2542.168</ele>
        <time>2022-12-18T15:48:51Z</time>
      </trkpt>
      <trkpt lat="2.000817" lon="-76.758711">
        <ele>2541.557</ele>
        <time>2022-12-18T15:48:56Z</time>
      </trkpt>
      <trkpt lat="2.000801" lon="-76.758766">
        <ele>2540.741</ele>
        <time>2022-12-18T15:48:59Z</time>
      </trkpt>
      <trkpt lat="2.000783" lon="-76.758814">
        <ele>2540.249</ele>
        <time>2022-12-18T15:49:02Z</time>
      </trkpt>
      <trkpt lat="2.000772" lon="-76.75886">
        <ele>2540.140</ele>
        <time>2022-12-18T15:49:05Z</time>
      </trkpt>
      <trkpt lat="2.00075" lon="-76.758905">
        <ele>2539.356</ele>
        <time>2022-12-18T15:49:08Z</time>
      </trkpt>
      <trkpt lat="2.00071" lon="-76.758948">
        <ele>2539.253</ele>
        <time>2022-12-18T15:49:11Z</time>
      </trkpt>
      <trkpt lat="2.000668" lon="-76.758988">
        <ele>2538.718</ele>
        <time>2022-12-18T15:49:14Z</time>
      </trkpt>
      <trkpt lat="2.00063" lon="-76.759025">
        <ele>2537.897</ele>
        <time>2022-12-18T15:49:16Z</time>
      </trkpt>
      <trkpt lat="2.000606" lon="-76.759085">
        <ele>2537.623</ele>
        <time>2022-12-18T15:49:19Z</time>
      </trkpt>
      <trkpt lat="2.000588" lon="-76.759135">
        <ele>2537.725</ele>
        <time>2022-12-18T15:49:21Z</time>
      </trkpt>
      <trkpt lat="2.000562" lon="-76.759173">
        <ele>2537.509</ele>
        <time>2022-12-18T15:49:23Z</time>
      </trkpt>
      <trkpt lat="2.00056" lon="-76.759228">
        <ele>2537.330</ele>
        <time>2022-12-18T15:49:27Z</time>
      </trkpt>
      <trkpt lat="2.000557" lon="-76.759278">
        <ele>2536.641</ele>
        <time>2022-12-18T15:49:30Z</time>
      </trkpt>
      <trkpt lat="2.000547" lon="-76.759325">
        <ele>2534.960</ele>
        <time>2022-12-18T15:49:32Z</time>
      </trkpt>
      <trkpt lat="2.000543" lon="-76.759378">
        <ele>2534.324</ele>
        <time>2022-12-18T15:49:35Z</time>
      </trkpt>
      <trkpt lat="2.000522" lon="-76.75942">
        <ele>2530.532</ele>
        <time>2022-12-18T15:49:41Z</time>
      </trkpt>
      <trkpt lat="2.000498" lon="-76.759462">
        <ele>2528.123</ele>
        <time>2022-12-18T15:49:45Z</time>
      </trkpt>
      <trkpt lat="2.000458" lon="-76.759485">
        <ele>2527.069</ele>
        <time>2022-12-18T15:49:48Z</time>
      </trkpt>
      <trkpt lat="2.000419" lon="-76.759512">
        <ele>2524.776</ele>
        <time>2022-12-18T15:49:49Z</time>
      </trkpt>
      <trkpt lat="2.000359" lon="-76.759556">
        <ele>2523.641</ele>
        <time>2022-12-18T15:49:51Z</time>
      </trkpt>
      <trkpt lat="2.000293" lon="-76.759605">
        <ele>2521.975</ele>
        <time>2022-12-18T15:49:53Z</time>
      </trkpt>
      <trkpt lat="2.000246" lon="-76.759646">
        <ele>2520.928</ele>
        <time>2022-12-18T15:49:55Z</time>
      </trkpt>
      <trkpt lat="2.00021" lon="-76.759697">
        <ele>2520.920</ele>
        <time>2022-12-18T15:49:58Z</time>
      </trkpt>
      <trkpt lat="2.000192" lon="-76.759741">
        <ele>2520.909</ele>
        <time>2022-12-18T15:50:00Z</time>
      </trkpt>
      <trkpt lat="2.000186" lon="-76.759801">
        <ele>2521.138</ele>
        <time>2022-12-18T15:50:02Z</time>
      </trkpt>
      <trkpt lat="2.000185" lon="-76.759865">
        <ele>2521.159</ele>
        <time>2022-12-18T15:50:04Z</time>
      </trkpt>
      <trkpt lat="2.000156" lon="-76.759932">
        <ele>2521.148</ele>
        <time>2022-12-18T15:50:06Z</time>
      </trkpt>
      <trkpt lat="2.000125" lon="-76.75998">
        <ele>2520.952</ele>
        <time>2022-12-18T15:50:08Z</time>
      </trkpt>
      <trkpt lat="2.000089" lon="-76.760014">
        <ele>2518.980</ele>
        <time>2022-12-18T15:50:14Z</time>
      </trkpt>
      <trkpt lat="2.000047" lon="-76.760056">
        <ele>2518.711</ele>
        <time>2022-12-18T15:50:17Z</time>
      </trkpt>
      <trkpt lat="2.000004" lon="-76.760096">
        <ele>2518.187</ele>
        <time>2022-12-18T15:50:20Z</time>
      </trkpt>
      <trkpt lat="1.999975" lon="-76.760136">
        <ele>2518.074</ele>
        <time>2022-12-18T15:50:23Z</time>
      </trkpt>
      <trkpt lat="1.999949" lon="-76.760179">
        <ele>2516.949</ele>
        <time>2022-12-18T15:50:26Z</time>
      </trkpt>
      <trkpt lat="1.999912" lon="-76.760213">
        <ele>2516.477</ele>
        <time>2022-12-18T15:50:30Z</time>
      </trkpt>
      <trkpt lat="1.99988" lon="-76.760245">
        <ele>2516.061</ele>
        <time>2022-12-18T15:50:33Z</time>
      </trkpt>
      <trkpt lat="1.999857" lon="-76.760284">
        <ele>2515.327</ele>
        <time>2022-12-18T15:50:40Z</time>
      </trkpt>
      <trkpt lat="1.999877" lon="-76.760327">
        <ele>2514.709</ele>
        <time>2022-12-18T15:50:43Z</time>
      </trkpt>
      <trkpt lat="1.999829" lon="-76.760345">
        <ele>2512.628</ele>
        <time>2022-12-18T15:51:24Z</time>
      </trkpt>
      <trkpt lat="1.999846" lon="-76.760394">
        <ele>2512.539</ele>
        <time>2022-12-18T15:51:48Z</time>
      </trkpt>
      <trkpt lat="1.999876" lon="-76.760428">
        <ele>2512.148</ele>
        <time>2022-12-18T15:51:55Z</time>
      </trkpt>
      <trkpt lat="1.999897" lon="-76.760485">
        <ele>2509.082</ele>
        <time>2022-12-18T15:52:00Z</time>
      </trkpt>
      <trkpt lat="1.999901" lon="-76.76053">
        <ele>2507.310</ele>
        <time>2022-12-18T15:52:06Z</time>
      </trkpt>
      <trkpt lat="1.999924" lon="-76.760571">
        <ele>2506.371</ele>
        <time>2022-12-18T15:52:14Z</time>
      </trkpt>
      <trkpt lat="1.999967" lon="-76.760591">
        <ele>2506.717</ele>
        <time>2022-12-18T15:52:24Z</time>
      </trkpt>
      <trkpt lat="2.000029" lon="-76.760611">
        <ele>2508.164</ele>
        <time>2022-12-18T15:52:27Z</time>
      </trkpt>
      <trkpt lat="2.000082" lon="-76.760646">
        <ele>2508.899</ele>
        <time>2022-12-18T15:52:30Z</time>
      </trkpt>
      <trkpt lat="2.000125" lon="-76.760678">
        <ele>2511.377</ele>
        <time>2022-12-18T15:52:33Z</time>
      </trkpt>
      <trkpt lat="2.000175" lon="-76.760688">
        <ele>2512.861</ele>
        <time>2022-12-18T15:52:37Z</time>
      </trkpt>
      <trkpt lat="2.000217" lon="-76.76071">
        <ele>2515.527</ele>
        <time>2022-12-18T15:52:39Z</time>
      </trkpt>
      <trkpt lat="2.000251" lon="-76.760748">
        <ele>2515.709</ele>
        <time>2022-12-18T15:52:41Z</time>
      </trkpt>
      <trkpt lat="2.000282" lon="-76.760789">
        <ele>2515.878</ele>
        <time>2022-12-18T15:52:42Z</time>
      </trkpt>
      <trkpt lat="2.000291" lon="-76.760846">
        <ele>2516.499</ele>
        <time>2022-12-18T15:52:44Z</time>
      </trkpt>
      <trkpt lat="2.000275" lon="-76.760916">
        <ele>2516.658</ele>
        <time>2022-12-18T15:52:46Z</time>
      </trkpt>
      <trkpt lat="2.000257" lon="-76.760958">
        <ele>2513.432</ele>
        <time>2022-12-18T15:52:47Z</time>
      </trkpt>
      <trkpt lat="2.000212" lon="-76.761052">
        <ele>2508.250</ele>
        <time>2022-12-18T15:52:49Z</time>
      </trkpt>
      <trkpt lat="2.000162" lon="-76.761147">
        <ele>2506.111</ele>
        <time>2022-12-18T15:52:51Z</time>
      </trkpt>
      <trkpt lat="2.000129" lon="-76.761218">
        <ele>2504.047</ele>
        <time>2022-12-18T15:52:53Z</time>
      </trkpt>
      <trkpt lat="2.000117" lon="-76.761285">
        <ele>2502.074</ele>
        <time>2022-12-18T15:52:55Z</time>
      </trkpt>
      <trkpt lat="2.000099" lon="-76.761333">
        <ele>2499.889</ele>
        <time>2022-12-18T15:52:57Z</time>
      </trkpt>
      <trkpt lat="2.000084" lon="-76.761398">
        <ele>2498.884</ele>
        <time>2022-12-18T15:52:59Z</time>
      </trkpt>
      <trkpt lat="2.00006" lon="-76.76144">
        <ele>2497.807</ele>
        <time>2022-12-18T15:53:00Z</time>
      </trkpt>
      <trkpt lat="2.000024" lon="-76.761547">
        <ele>2493.817</ele>
        <time>2022-12-18T15:53:02Z</time>
      </trkpt>
      <trkpt lat="1.999998" lon="-76.761628">
        <ele>2489.609</ele>
        <time>2022-12-18T15:53:04Z</time>
      </trkpt>
      <trkpt lat="1.999964" lon="-76.761683">
        <ele>2489.639</ele>
        <time>2022-12-18T15:53:06Z</time>
      </trkpt>
      <trkpt lat="1.99999" lon="-76.76174">
        <ele>2489.640</ele>
        <time>2022-12-18T15:53:08Z</time>
      </trkpt>
      <trkpt lat="2.000026" lon="-76.761794">
        <ele>2490.239</ele>
        <time>2022-12-18T15:53:10Z</time>
      </trkpt>
      <trkpt lat="2.000031" lon="-76.761845">
        <ele>2491.423</ele>
        <time>2022-12-18T15:53:12Z</time>
      </trkpt>
      <trkpt lat="2.000025" lon="-76.761897">
        <ele>2491.771</ele>
        <time>2022-12-18T15:53:15Z</time>
      </trkpt>
      <trkpt lat="2.000002" lon="-76.761941">
        <ele>2491.452</ele>
        <time>2022-12-18T15:53:19Z</time>
      </trkpt>
      <trkpt lat="1.999977" lon="-76.761993">
        <ele>2489.758</ele>
        <time>2022-12-18T15:53:21Z</time>
      </trkpt>
      <trkpt lat="1.999916" lon="-76.76203">
        <ele>2488.525</ele>
        <time>2022-12-18T15:53:22Z</time>
      </trkpt>
      <trkpt lat="1.99986" lon="-76.762064">
        <ele>2488.240</ele>
        <time>2022-12-18T15:53:23Z</time>
      </trkpt>
      <trkpt lat="1.999772" lon="-76.762141">
        <ele>2486.869</ele>
        <time>2022-12-18T15:53:25Z</time>
      </trkpt>
      <trkpt lat="1.999729" lon="-76.762187">
        <ele>2486.404</ele>
        <time>2022-12-18T15:53:26Z</time>
      </trkpt>
      <trkpt lat="1.999686" lon="-76.762235">
        <ele>2486.924</ele>
        <time>2022-12-18T15:53:27Z</time>
      </trkpt>
      <trkpt lat="1.999631" lon="-76.76232">
        <ele>2487.009</ele>
        <time>2022-12-18T15:53:29Z</time>
      </trkpt>
      <trkpt lat="1.999577" lon="-76.762357">
        <ele>2488.587</ele>
        <time>2022-12-18T15:53:32Z</time>
      </trkpt>
      <trkpt lat="1.999523" lon="-76.762407">
        <ele>2489.768</ele>
        <time>2022-12-18T15:53:34Z</time>
      </trkpt>
      <trkpt lat="1.999452" lon="-76.762458">
        <ele>2489.787</ele>
        <time>2022-12-18T15:53:36Z</time>
      </trkpt>
      <trkpt lat="1.999444" lon="-76.76252">
        <ele>2489.781</ele>
        <time>2022-12-18T15:53:38Z</time>
      </trkpt>
      <trkpt lat="1.999438" lon="-76.762585">
        <ele>2489.969</ele>
        <time>2022-12-18T15:53:40Z</time>
      </trkpt>
      <trkpt lat="1.999425" lon="-76.76266">
        <ele>2489.790</ele>
        <time>2022-12-18T15:53:42Z</time>
      </trkpt>
      <trkpt lat="1.999398" lon="-76.7627">
        <ele>2489.446</ele>
        <time>2022-12-18T15:53:44Z</time>
      </trkpt>
      <trkpt lat="1.999354" lon="-76.762745">
        <ele>2489.413</ele>
        <time>2022-12-18T15:53:45Z</time>
      </trkpt>
      <trkpt lat="1.999294" lon="-76.762798">
        <ele>2489.498</ele>
        <time>2022-12-18T15:53:47Z</time>
      </trkpt>
      <trkpt lat="1.999252" lon="-76.762853">
        <ele>2488.983</ele>
        <time>2022-12-18T15:53:48Z</time>
      </trkpt>
      <trkpt lat="1.999192" lon="-76.762922">
        <ele>2488.925</ele>
        <time>2022-12-18T15:53:50Z</time>
      </trkpt>
      <trkpt lat="1.999133" lon="-76.762973">
        <ele>2488.417</ele>
        <time>2022-12-18T15:54:16Z</time>
      </trkpt>
      <trkpt lat="1.998742" lon="-76.763408">
        <ele>2486.009</ele>
        <time>2022-12-18T15:54:17Z</time>
      </trkpt>
      <trkpt lat="1.998614" lon="-76.763567">
        <ele>2484.319</ele>
        <time>2022-12-18T15:54:18Z</time>
      </trkpt>
      <trkpt lat="1.998567" lon="-76.763645">
        <ele>2484.030</ele>
        <time>2022-12-18T15:54:19Z</time>
      </trkpt>
      <trkpt lat="1.998513" lon="-76.763774">
        <ele>2484.279</ele>
        <time>2022-12-18T15:54:21Z</time>
      </trkpt>
      <trkpt lat="1.998496" lon="-76.763895">
        <ele>2483.913</ele>
        <time>2022-12-18T15:54:23Z</time>
      </trkpt>
      <trkpt lat="1.998513" lon="-76.763985">
        <ele>2484.731</ele>
        <time>2022-12-18T15:54:27Z</time>
      </trkpt>
      <trkpt lat="1.99854" lon="-76.764132">
        <ele>2484.922</ele>
        <time>2022-12-18T15:54:29Z</time>
      </trkpt>
      <trkpt lat="1.998526" lon="-76.764207">
        <ele>2484.758</ele>
        <time>2022-12-18T15:54:31Z</time>
      </trkpt>
      <trkpt lat="1.998481" lon="-76.764281">
        <ele>2483.685</ele>
        <time>2022-12-18T15:54:33Z</time>
      </trkpt>
      <trkpt lat="1.998481" lon="-76.764333">
        <ele>2484.920</ele>
        <time>2022-12-18T15:54:36Z</time>
      </trkpt>
      <trkpt lat="1.998437" lon="-76.764392">
        <ele>2486.591</ele>
        <time>2022-12-18T15:54:38Z</time>
      </trkpt>
      <trkpt lat="1.998414" lon="-76.764442">
        <ele>2487.681</ele>
        <time>2022-12-18T15:54:40Z</time>
      </trkpt>
      <trkpt lat="1.99839" lon="-76.764495">
        <ele>2488.619</ele>
        <time>2022-12-18T15:54:43Z</time>
      </trkpt>
      <trkpt lat="1.998387" lon="-76.76455">
        <ele>2489.209</ele>
        <time>2022-12-18T15:54:44Z</time>
      </trkpt>
      <trkpt lat="1.998375" lon="-76.764601">
        <ele>2490.080</ele>
        <time>2022-12-18T15:54:47Z</time>
      </trkpt>
      <trkpt lat="1.998352" lon="-76.764657">
        <ele>2490.131</ele>
        <time>2022-12-18T15:54:49Z</time>
      </trkpt>
      <trkpt lat="1.998329" lon="-76.764704">
        <ele>2490.220</ele>
        <time>2022-12-18T15:54:50Z</time>
      </trkpt>
      <trkpt lat="1.998293" lon="-76.764769">
        <ele>2490.774</ele>
        <time>2022-12-18T15:54:52Z</time>
      </trkpt>
      <trkpt lat="1.998269" lon="-76.764817">
        <ele>2491.392</ele>
        <time>2022-12-18T15:54:54Z</time>
      </trkpt>
      <trkpt lat="1.998233" lon="-76.764903">
        <ele>2491.473</ele>
        <time>2022-12-18T15:54:56Z</time>
      </trkpt>
      <trkpt lat="1.998209" lon="-76.764964">
        <ele>2493.389</ele>
        <time>2022-12-18T15:54:58Z</time>
      </trkpt>
      <trkpt lat="1.998189" lon="-76.765016">
        <ele>2493.726</ele>
        <time>2022-12-18T15:55:00Z</time>
      </trkpt>
      <trkpt lat="1.998154" lon="-76.765101">
        <ele>2493.891</ele>
        <time>2022-12-18T15:55:01Z</time>
      </trkpt>
      <trkpt lat="1.998139" lon="-76.765154">
        <ele>2493.346</ele>
        <time>2022-12-18T15:55:02Z</time>
      </trkpt>
      <trkpt lat="1.998118" lon="-76.765209">
        <ele>2490.888</ele>
        <time>2022-12-18T15:55:03Z</time>
      </trkpt>
      <trkpt lat="1.998095" lon="-76.765332">
        <ele>2487.616</ele>
        <time>2022-12-18T15:55:05Z</time>
      </trkpt>
      <trkpt lat="1.998089" lon="-76.765388">
        <ele>2487.209</ele>
        <time>2022-12-18T15:55:06Z</time>
      </trkpt>
      <trkpt lat="1.998077" lon="-76.765438">
        <ele>2484.795</ele>
        <time>2022-12-18T15:55:08Z</time>
      </trkpt>
      <trkpt lat="1.998086" lon="-76.765381">
        <ele>2486.646</ele>
        <time>2022-12-18T15:55:11Z</time>
      </trkpt>
      <trkpt lat="1.998108" lon="-76.765494">
        <ele>2490.045</ele>
        <time>2022-12-18T15:55:14Z</time>
      </trkpt>
      <trkpt lat="1.9981" lon="-76.765586">
        <ele>2491.769</ele>
        <time>2022-12-18T15:55:15Z</time>
      </trkpt>
      <trkpt lat="1.998085" lon="-76.765664">
        <ele>2491.737</ele>
        <time>2022-12-18T15:55:16Z</time>
      </trkpt>
      <trkpt lat="1.998065" lon="-76.765812">
        <ele>2482.818</ele>
        <time>2022-12-18T15:55:18Z</time>
      </trkpt>
      <trkpt lat="1.99806" lon="-76.765896">
        <ele>2482.964</ele>
        <time>2022-12-18T15:55:19Z</time>
      </trkpt>
      <trkpt lat="1.998046" lon="-76.766006">
        <ele>2482.811</ele>
        <time>2022-12-18T15:55:21Z</time>
      </trkpt>
      <trkpt lat="1.998044" lon="-76.766053">
        <ele>2482.856</ele>
        <time>2022-12-18T15:55:22Z</time>
      </trkpt>
      <trkpt lat="1.998051" lon="-76.766126">
        <ele>2479.374</ele>
        <time>2022-12-18T15:55:24Z</time>
      </trkpt>
      <trkpt lat="1.998054" lon="-76.766182">
        <ele>2478.356</ele>
        <time>2022-12-18T15:55:25Z</time>
      </trkpt>
      <trkpt lat="1.998074" lon="-76.766263">
        <ele>2478.321</ele>
        <time>2022-12-18T15:55:26Z</time>
      </trkpt>
      <trkpt lat="1.998101" lon="-76.766336">
        <ele>2478.309</ele>
        <time>2022-12-18T15:55:28Z</time>
      </trkpt>
      <trkpt lat="1.998125" lon="-76.766375">
        <ele>2479.288</ele>
        <time>2022-12-18T15:55:30Z</time>
      </trkpt>
      <trkpt lat="1.998128" lon="-76.766429">
        <ele>2480.239</ele>
        <time>2022-12-18T15:55:32Z</time>
      </trkpt>
      <trkpt lat="1.998121" lon="-76.766474">
        <ele>2477.868</ele>
        <time>2022-12-18T15:55:37Z</time>
      </trkpt>
      <trkpt lat="1.998122" lon="-76.766523">
        <ele>2478.092</ele>
        <time>2022-12-18T15:55:39Z</time>
      </trkpt>
      <trkpt lat="1.998067" lon="-76.766631">
        <ele>2477.870</ele>
        <time>2022-12-18T15:55:41Z</time>
      </trkpt>
      <trkpt lat="1.998028" lon="-76.766684">
        <ele>2477.791</ele>
        <time>2022-12-18T15:55:42Z</time>
      </trkpt>
      <trkpt lat="1.997975" lon="-76.766758">
        <ele>2476.487</ele>
        <time>2022-12-18T15:55:44Z</time>
      </trkpt>
      <trkpt lat="1.997946" lon="-76.766794">
        <ele>2476.444</ele>
        <time>2022-12-18T15:55:47Z</time>
      </trkpt>
      <trkpt lat="1.997904" lon="-76.766813">
        <ele>2476.479</ele>
        <time>2022-12-18T15:55:51Z</time>
      </trkpt>
      <trkpt lat="1.99795" lon="-76.766799">
        <ele>2476.797</ele>
        <time>2022-12-18T15:55:58Z</time>
      </trkpt>
      <trkpt lat="1.997921" lon="-76.766764">
        <ele>2478.223</ele>
        <time>2022-12-18T15:57:13Z</time>
      </trkpt>
      <trkpt lat="1.997867" lon="-76.766766">
        <ele>2478.225</ele>
        <time>2022-12-18T15:57:15Z</time>
      </trkpt>
      <trkpt lat="1.997815" lon="-76.766757">
        <ele>2478.209</ele>
        <time>2022-12-18T15:57:17Z</time>
      </trkpt>
      <trkpt lat="1.997761" lon="-76.76673">
        <ele>2478.270</ele>
        <time>2022-12-18T15:57:19Z</time>
      </trkpt>
      <trkpt lat="1.9977" lon="-76.766685">
        <ele>2478.211</ele>
        <time>2022-12-18T15:57:21Z</time>
      </trkpt>
      <trkpt lat="1.997635" lon="-76.766634">
        <ele>2474.130</ele>
        <time>2022-12-18T15:57:23Z</time>
      </trkpt>
      <trkpt lat="1.997573" lon="-76.766594">
        <ele>2473.784</ele>
        <time>2022-12-18T15:57:25Z</time>
      </trkpt>
      <trkpt lat="1.997514" lon="-76.766553">
        <ele>2473.952</ele>
        <time>2022-12-18T15:57:27Z</time>
      </trkpt>
      <trkpt lat="1.997461" lon="-76.766506">
        <ele>2474.153</ele>
        <time>2022-12-18T15:57:29Z</time>
      </trkpt>
      <trkpt lat="1.997397" lon="-76.766462">
        <ele>2474.059</ele>
        <time>2022-12-18T15:57:31Z</time>
      </trkpt>
      <trkpt lat="1.997333" lon="-76.766405">
        <ele>2473.436</ele>
        <time>2022-12-18T15:57:33Z</time>
      </trkpt>
      <trkpt lat="1.997293" lon="-76.766337">
        <ele>2471.581</ele>
        <time>2022-12-18T15:57:35Z</time>
      </trkpt>
      <trkpt lat="1.997261" lon="-76.766264">
        <ele>2471.223</ele>
        <time>2022-12-18T15:57:37Z</time>
      </trkpt>
      <trkpt lat="1.99723" lon="-76.766196">
        <ele>2469.083</ele>
        <time>2022-12-18T15:57:39Z</time>
      </trkpt>
      <trkpt lat="1.997215" lon="-76.76612">
        <ele>2466.511</ele>
        <time>2022-12-18T15:57:41Z</time>
      </trkpt>
      <trkpt lat="1.997186" lon="-76.766048">
        <ele>2464.509</ele>
        <time>2022-12-18T15:57:43Z</time>
      </trkpt>
      <trkpt lat="1.997146" lon="-76.766012">
        <ele>2464.253</ele>
        <time>2022-12-18T15:57:45Z</time>
      </trkpt>
      <trkpt lat="1.997106" lon="-76.765961">
        <ele>2463.064</ele>
        <time>2022-12-18T15:57:48Z</time>
      </trkpt>
      <trkpt lat="1.997066" lon="-76.765923">
        <ele>2459.463</ele>
        <time>2022-12-18T15:57:50Z</time>
      </trkpt>
      <trkpt lat="1.997035" lon="-76.765883">
        <ele>2459.557</ele>
        <time>2022-12-18T15:57:52Z</time>
      </trkpt>
      <trkpt lat="1.997004" lon="-76.765838">
        <ele>2459.685</ele>
        <time>2022-12-18T15:57:56Z</time>
      </trkpt>
      <trkpt lat="1.996952" lon="-76.765842">
        <ele>2459.256</ele>
        <time>2022-12-18T15:58:01Z</time>
      </trkpt>
      <trkpt lat="1.996965" lon="-76.765899">
        <ele>2459.182</ele>
        <time>2022-12-18T15:58:04Z</time>
      </trkpt>
      <trkpt lat="1.996984" lon="-76.765974">
        <ele>2459.129</ele>
        <time>2022-12-18T15:58:07Z</time>
      </trkpt>
      <trkpt lat="1.996994" lon="-76.766033">
        <ele>2458.754</ele>
        <time>2022-12-18T15:58:09Z</time>
      </trkpt>
      <trkpt lat="1.996995" lon="-76.76608">
        <ele>2458.234</ele>
        <time>2022-12-18T15:58:11Z</time>
      </trkpt>
      <trkpt lat="1.99698" lon="-76.766129">
        <ele>2456.455</ele>
        <time>2022-12-18T15:58:13Z</time>
      </trkpt>
      <trkpt lat="1.996951" lon="-76.766173">
        <ele>2455.510</ele>
        <time>2022-12-18T15:58:15Z</time>
      </trkpt>
      <trkpt lat="1.996919" lon="-76.76621">
        <ele>2453.909</ele>
        <time>2022-12-18T15:58:17Z</time>
      </trkpt>
      <trkpt lat="1.996864" lon="-76.766249">
        <ele>2453.124</ele>
        <time>2022-12-18T15:58:20Z</time>
      </trkpt>
      <trkpt lat="1.996828" lon="-76.766287">
        <ele>2451.695</ele>
        <time>2022-12-18T15:58:22Z</time>
      </trkpt>
      <trkpt lat="1.996791" lon="-76.766338">
        <ele>2450.254</ele>
        <time>2022-12-18T15:58:25Z</time>
      </trkpt>
      <trkpt lat="1.996765" lon="-76.76638">
        <ele>2450.118</ele>
        <time>2022-12-18T15:58:27Z</time>
      </trkpt>
      <trkpt lat="1.996722" lon="-76.766418">
        <ele>2449.916</ele>
        <time>2022-12-18T15:58:29Z</time>
      </trkpt>
      <trkpt lat="1.99668" lon="-76.766456">
        <ele>2448.887</ele>
        <time>2022-12-18T15:58:31Z</time>
      </trkpt>
      <trkpt lat="1.996642" lon="-76.76649">
        <ele>2447.063</ele>
        <time>2022-12-18T15:58:33Z</time>
      </trkpt>
      <trkpt lat="1.9966" lon="-76.766512">
        <ele>2445.320</ele>
        <time>2022-12-18T15:58:36Z</time>
      </trkpt>
      <trkpt lat="1.996556" lon="-76.766499">
        <ele>2443.535</ele>
        <time>2022-12-18T15:58:41Z</time>
      </trkpt>
      <trkpt lat="1.99652" lon="-76.766535">
        <ele>2442.696</ele>
        <time>2022-12-18T15:58:57Z</time>
      </trkpt>
      <trkpt lat="1.996501" lon="-76.766576">
        <ele>2442.031</ele>
        <time>2022-12-18T15:59:04Z</time>
      </trkpt>
      <trkpt lat="1.996476" lon="-76.766618">
        <ele>2441.724</ele>
        <time>2022-12-18T15:59:07Z</time>
      </trkpt>
      <trkpt lat="1.996444" lon="-76.766672">
        <ele>2441.209</ele>
        <time>2022-12-18T15:59:09Z</time>
      </trkpt>
      <trkpt lat="1.996399" lon="-76.766717">
        <ele>2440.630</ele>
        <time>2022-12-18T15:59:11Z</time>
      </trkpt>
      <trkpt lat="1.996356" lon="-76.766742">
        <ele>2439.811</ele>
        <time>2022-12-18T15:59:12Z</time>
      </trkpt>
      <trkpt lat="1.996265" lon="-76.766806">
        <ele>2436.320</ele>
        <time>2022-12-18T15:59:13Z</time>
      </trkpt>
      <trkpt lat="1.996223" lon="-76.766834">
        <ele>2434.164</ele>
        <time>2022-12-18T15:59:14Z</time>
      </trkpt>
      <trkpt lat="1.996183" lon="-76.76686">
        <ele>2434.012</ele>
        <time>2022-12-18T15:59:15Z</time>
      </trkpt>
      <trkpt lat="1.99612" lon="-76.766897">
        <ele>2433.293</ele>
        <time>2022-12-18T15:59:17Z</time>
      </trkpt>
      <trkpt lat="1.996048" lon="-76.766919">
        <ele>2433.099</ele>
        <time>2022-12-18T15:59:19Z</time>
      </trkpt>
      <trkpt lat="1.996006" lon="-76.766966">
        <ele>2432.736</ele>
        <time>2022-12-18T15:59:21Z</time>
      </trkpt>
      <trkpt lat="1.99597" lon="-76.766999">
        <ele>2432.611</ele>
        <time>2022-12-18T15:59:22Z</time>
      </trkpt>
      <trkpt lat="1.995928" lon="-76.767063">
        <ele>2430.936</ele>
        <time>2022-12-18T15:59:24Z</time>
      </trkpt>
      <trkpt lat="1.99589" lon="-76.767139">
        <ele>2427.417</ele>
        <time>2022-12-18T15:59:26Z</time>
      </trkpt>
      <trkpt lat="1.995868" lon="-76.767186">
        <ele>2425.918</ele>
        <time>2022-12-18T15:59:27Z</time>
      </trkpt>
      <trkpt lat="1.995832" lon="-76.767267">
        <ele>2423.209</ele>
        <time>2022-12-18T15:59:28Z</time>
      </trkpt>
      <trkpt lat="1.995818" lon="-76.767324">
        <ele>2421.444</ele>
        <time>2022-12-18T15:59:29Z</time>
      </trkpt>
      <trkpt lat="1.995807" lon="-76.767376">
        <ele>2419.325</ele>
        <time>2022-12-18T15:59:30Z</time>
      </trkpt>
      <trkpt lat="1.995797" lon="-76.767425">
        <ele>2415.674</ele>
        <time>2022-12-18T15:59:31Z</time>
      </trkpt>
      <trkpt lat="1.995762" lon="-76.767513">
        <ele>2414.078</ele>
        <time>2022-12-18T15:59:34Z</time>
      </trkpt>
      <trkpt lat="1.995717" lon="-76.767611">
        <ele>2412.196</ele>
        <time>2022-12-18T15:59:36Z</time>
      </trkpt>
      <trkpt lat="1.995681" lon="-76.767674">
        <ele>2411.337</ele>
        <time>2022-12-18T15:59:38Z</time>
      </trkpt>
      <trkpt lat="1.995672" lon="-76.767721">
        <ele>2409.843</ele>
        <time>2022-12-18T15:59:40Z</time>
      </trkpt>
      <trkpt lat="1.995643" lon="-76.767771">
        <ele>2408.870</ele>
        <time>2022-12-18T15:59:43Z</time>
      </trkpt>
      <trkpt lat="1.99562" lon="-76.76781">
        <ele>2408.465</ele>
        <time>2022-12-18T15:59:47Z</time>
      </trkpt>
      <trkpt lat="1.995596" lon="-76.767848">
        <ele>2407.781</ele>
        <time>2022-12-18T15:59:50Z</time>
      </trkpt>
      <trkpt lat="1.995578" lon="-76.767909">
        <ele>2407.261</ele>
        <time>2022-12-18T15:59:52Z</time>
      </trkpt>
      <trkpt lat="1.99554" lon="-76.767956">
        <ele>2405.517</ele>
        <time>2022-12-18T15:59:54Z</time>
      </trkpt>
      <trkpt lat="1.995499" lon="-76.768008">
        <ele>2405.309</ele>
        <time>2022-12-18T15:59:56Z</time>
      </trkpt>
      <trkpt lat="1.99545" lon="-76.768063">
        <ele>2402.169</ele>
        <time>2022-12-18T15:59:58Z</time>
      </trkpt>
      <trkpt lat="1.99541" lon="-76.768111">
        <ele>2399.570</ele>
        <time>2022-12-18T16:00:00Z</time>
      </trkpt>
      <trkpt lat="1.995369" lon="-76.768162">
        <ele>2398.179</ele>
        <time>2022-12-18T16:00:02Z</time>
      </trkpt>
      <trkpt lat="1.995341" lon="-76.768235">
        <ele>2397.223</ele>
        <time>2022-12-18T16:00:04Z</time>
      </trkpt>
      <trkpt lat="1.995325" lon="-76.76831">
        <ele>2397.081</ele>
        <time>2022-12-18T16:00:06Z</time>
      </trkpt>
      <trkpt lat="1.995289" lon="-76.768374">
        <ele>2394.912</ele>
        <time>2022-12-18T16:00:08Z</time>
      </trkpt>
      <trkpt lat="1.99527" lon="-76.768435">
        <ele>2391.818</ele>
        <time>2022-12-18T16:00:10Z</time>
      </trkpt>
      <trkpt lat="1.995254" lon="-76.768499">
        <ele>2389.745</ele>
        <time>2022-12-18T16:00:12Z</time>
      </trkpt>
      <trkpt lat="1.995212" lon="-76.768567">
        <ele>2387.350</ele>
        <time>2022-12-18T16:00:14Z</time>
      </trkpt>
      <trkpt lat="1.995183" lon="-76.768643">
        <ele>2385.557</ele>
        <time>2022-12-18T16:00:16Z</time>
      </trkpt>
      <trkpt lat="1.995154" lon="-76.768702">
        <ele>2382.900</ele>
        <time>2022-12-18T16:00:18Z</time>
      </trkpt>
      <trkpt lat="1.995106" lon="-76.768768">
        <ele>2379.120</ele>
        <time>2022-12-18T16:00:20Z</time>
      </trkpt>
      <trkpt lat="1.995068" lon="-76.768834">
        <ele>2378.209</ele>
        <time>2022-12-18T16:00:22Z</time>
      </trkpt>
      <trkpt lat="1.99504" lon="-76.768899">
        <ele>2377.686</ele>
        <time>2022-12-18T16:00:24Z</time>
      </trkpt>
      <trkpt lat="1.995029" lon="-76.768972">
        <ele>2377.317</ele>
        <time>2022-12-18T16:00:26Z</time>
      </trkpt>
      <trkpt lat="1.995056" lon="-76.769051">
        <ele>2373.216</ele>
        <time>2022-12-18T16:00:28Z</time>
      </trkpt>
      <trkpt lat="1.995103" lon="-76.769104">
        <ele>2371.460</ele>
        <time>2022-12-18T16:00:30Z</time>
      </trkpt>
      <trkpt lat="1.995164" lon="-76.769147">
        <ele>2368.628</ele>
        <time>2022-12-18T16:00:32Z</time>
      </trkpt>
      <trkpt lat="1.995239" lon="-76.76919">
        <ele>2365.659</ele>
        <time>2022-12-18T16:00:34Z</time>
      </trkpt>
      <trkpt lat="1.995308" lon="-76.769232">
        <ele>2365.165</ele>
        <time>2022-12-18T16:00:36Z</time>
      </trkpt>
      <trkpt lat="1.995378" lon="-76.769274">
        <ele>2364.112</ele>
        <time>2022-12-18T16:00:38Z</time>
      </trkpt>
      <trkpt lat="1.995447" lon="-76.769333">
        <ele>2362.467</ele>
        <time>2022-12-18T16:00:40Z</time>
      </trkpt>
      <trkpt lat="1.995498" lon="-76.769377">
        <ele>2359.839</ele>
        <time>2022-12-18T16:00:41Z</time>
      </trkpt>
      <trkpt lat="1.995539" lon="-76.769416">
        <ele>2358.001</ele>
        <time>2022-12-18T16:00:42Z</time>
      </trkpt>
      <trkpt lat="1.995569" lon="-76.76946">
        <ele>2358.021</ele>
        <time>2022-12-18T16:00:43Z</time>
      </trkpt>
      <trkpt lat="1.995598" lon="-76.769505">
        <ele>2358.009</ele>
        <time>2022-12-18T16:00:44Z</time>
      </trkpt>
      <trkpt lat="1.995642" lon="-76.769579">
        <ele>2358.274</ele>
        <time>2022-12-18T16:00:46Z</time>
      </trkpt>
      <trkpt lat="1.995667" lon="-76.769621">
        <ele>2358.045</ele>
        <time>2022-12-18T16:00:47Z</time>
      </trkpt>
      <trkpt lat="1.995715" lon="-76.769687">
        <ele>2357.694</ele>
        <time>2022-12-18T16:00:49Z</time>
      </trkpt>
      <trkpt lat="1.995757" lon="-76.769757">
        <ele>2357.298</ele>
        <time>2022-12-18T16:00:51Z</time>
      </trkpt>
      <trkpt lat="1.995775" lon="-76.769828">
        <ele>2355.496</ele>
        <time>2022-12-18T16:00:53Z</time>
      </trkpt>
      <trkpt lat="1.995768" lon="-76.769885">
        <ele>2355.167</ele>
        <time>2022-12-18T16:00:55Z</time>
      </trkpt>
      <trkpt lat="1.995741" lon="-76.769934">
        <ele>2354.713</ele>
        <time>2022-12-18T16:00:57Z</time>
      </trkpt>
      <trkpt lat="1.995689" lon="-76.769968">
        <ele>2354.660</ele>
        <time>2022-12-18T16:00:59Z</time>
      </trkpt>
      <trkpt lat="1.995646" lon="-76.769993">
        <ele>2354.385</ele>
        <time>2022-12-18T16:01:02Z</time>
      </trkpt>
      <trkpt lat="1.995602" lon="-76.770015">
        <ele>2354.678</ele>
        <time>2022-12-18T16:01:04Z</time>
      </trkpt>
      <trkpt lat="1.995554" lon="-76.770027">
        <ele>2355.033</ele>
        <time>2022-12-18T16:01:06Z</time>
      </trkpt>
      <trkpt lat="1.9955" lon="-76.770043">
        <ele>2355.326</ele>
        <time>2022-12-18T16:01:08Z</time>
      </trkpt>
      <trkpt lat="1.995435" lon="-76.77007">
        <ele>2355.509</ele>
        <time>2022-12-18T16:01:10Z</time>
      </trkpt>
      <trkpt lat="1.995393" lon="-76.770104">
        <ele>2355.548</ele>
        <time>2022-12-18T16:01:12Z</time>
      </trkpt>
      <trkpt lat="1.995366" lon="-76.770153">
        <ele>2352.989</ele>
        <time>2022-12-18T16:01:14Z</time>
      </trkpt>
      <trkpt lat="1.995358" lon="-76.770212">
        <ele>2352.658</ele>
        <time>2022-12-18T16:01:16Z</time>
      </trkpt>
      <trkpt lat="1.995371" lon="-76.770264">
        <ele>2347.912</ele>
        <time>2022-12-18T16:01:18Z</time>
      </trkpt>
      <trkpt lat="1.995371" lon="-76.77033">
        <ele>2343.920</ele>
        <time>2022-12-18T16:01:21Z</time>
      </trkpt>
      <trkpt lat="1.995378" lon="-76.770394">
        <ele>2342.511</ele>
        <time>2022-12-18T16:01:23Z</time>
      </trkpt>
      <trkpt lat="1.995368" lon="-76.770446">
        <ele>2341.127</ele>
        <time>2022-12-18T16:01:25Z</time>
      </trkpt>
      <trkpt lat="1.995326" lon="-76.770509">
        <ele>2340.084</ele>
        <time>2022-12-18T16:01:28Z</time>
      </trkpt>
      <trkpt lat="1.99529" lon="-76.770559">
        <ele>2338.719</ele>
        <time>2022-12-18T16:01:30Z</time>
      </trkpt>
      <trkpt lat="1.995246" lon="-76.77061">
        <ele>2336.676</ele>
        <time>2022-12-18T16:01:32Z</time>
      </trkpt>
      <trkpt lat="1.995206" lon="-76.770664">
        <ele>2336.190</ele>
        <time>2022-12-18T16:01:34Z</time>
      </trkpt>
      <trkpt lat="1.995182" lon="-76.77072">
        <ele>2335.519</ele>
        <time>2022-12-18T16:01:36Z</time>
      </trkpt>
      <trkpt lat="1.995167" lon="-76.770787">
        <ele>2334.309</ele>
        <time>2022-12-18T16:01:38Z</time>
      </trkpt>
      <trkpt lat="1.995184" lon="-76.77085">
        <ele>2333.068</ele>
        <time>2022-12-18T16:01:40Z</time>
      </trkpt>
      <trkpt lat="1.995223" lon="-76.770898">
        <ele>2329.759</ele>
        <time>2022-12-18T16:01:42Z</time>
      </trkpt>
      <trkpt lat="1.995255" lon="-76.770949">
        <ele>2327.668</ele>
        <time>2022-12-18T16:01:44Z</time>
      </trkpt>
      <trkpt lat="1.995257" lon="-76.770997">
        <ele>2325.212</ele>
        <time>2022-12-18T16:01:46Z</time>
      </trkpt>
      <trkpt lat="1.995239" lon="-76.771039">
        <ele>2324.680</ele>
        <time>2022-12-18T16:01:48Z</time>
      </trkpt>
      <trkpt lat="1.995224" lon="-76.77111">
        <ele>2323.961</ele>
        <time>2022-12-18T16:01:50Z</time>
      </trkpt>
      <trkpt lat="1.995235" lon="-76.771167">
        <ele>2323.887</ele>
        <time>2022-12-18T16:01:52Z</time>
      </trkpt>
      <trkpt lat="1.995265" lon="-76.771218">
        <ele>2323.694</ele>
        <time>2022-12-18T16:01:54Z</time>
      </trkpt>
      <trkpt lat="1.995288" lon="-76.771276">
        <ele>2323.279</ele>
        <time>2022-12-18T16:01:56Z</time>
      </trkpt>
      <trkpt lat="1.995296" lon="-76.771345">
        <ele>2321.355</ele>
        <time>2022-12-18T16:01:58Z</time>
      </trkpt>
      <trkpt lat="1.995297" lon="-76.771431">
        <ele>2320.007</ele>
        <time>2022-12-18T16:02:00Z</time>
      </trkpt>
      <trkpt lat="1.995303" lon="-76.771509">
        <ele>2319.417</ele>
        <time>2022-12-18T16:02:02Z</time>
      </trkpt>
      <trkpt lat="1.995289" lon="-76.77156">
        <ele>2318.809</ele>
        <time>2022-12-18T16:02:04Z</time>
      </trkpt>
      <trkpt lat="1.995238" lon="-76.771549">
        <ele>2317.966</ele>
        <time>2022-12-18T16:02:07Z</time>
      </trkpt>
      <trkpt lat="1.99519" lon="-76.771562">
        <ele>2317.377</ele>
        <time>2022-12-18T16:02:10Z</time>
      </trkpt>
      <trkpt lat="1.995127" lon="-76.771584">
        <ele>2317.076</ele>
        <time>2022-12-18T16:02:12Z</time>
      </trkpt>
      <trkpt lat="1.995084" lon="-76.771622">
        <ele>2316.110</ele>
        <time>2022-12-18T16:02:14Z</time>
      </trkpt>
      <trkpt lat="1.995073" lon="-76.77167">
        <ele>2315.488</ele>
        <time>2022-12-18T16:02:16Z</time>
      </trkpt>
      <trkpt lat="1.995104" lon="-76.771708">
        <ele>2310.819</ele>
        <time>2022-12-18T16:02:19Z</time>
      </trkpt>
      <trkpt lat="1.995158" lon="-76.77175">
        <ele>2308.395</ele>
        <time>2022-12-18T16:02:21Z</time>
      </trkpt>
      <trkpt lat="1.995179" lon="-76.771808">
        <ele>2307.042</ele>
        <time>2022-12-18T16:02:23Z</time>
      </trkpt>
      <trkpt lat="1.995209" lon="-76.771873">
        <ele>2306.027</ele>
        <time>2022-12-18T16:02:25Z</time>
      </trkpt>
      <trkpt lat="1.995237" lon="-76.771921">
        <ele>2305.732</ele>
        <time>2022-12-18T16:02:27Z</time>
      </trkpt>
      <trkpt lat="1.995252" lon="-76.771965">
        <ele>2305.792</ele>
        <time>2022-12-18T16:02:29Z</time>
      </trkpt>
      <trkpt lat="1.995227" lon="-76.772012">
        <ele>2305.911</ele>
        <time>2022-12-18T16:02:32Z</time>
      </trkpt>
      <trkpt lat="1.995186" lon="-76.772052">
        <ele>2305.809</ele>
        <time>2022-12-18T16:02:35Z</time>
      </trkpt>
      <trkpt lat="1.995178" lon="-76.772099">
        <ele>2305.574</ele>
        <time>2022-12-18T16:02:37Z</time>
      </trkpt>
      <trkpt lat="1.995181" lon="-76.77215">
        <ele>2305.475</ele>
        <time>2022-12-18T16:02:39Z</time>
      </trkpt>
      <trkpt lat="1.995164" lon="-76.772213">
        <ele>2305.174</ele>
        <time>2022-12-18T16:02:41Z</time>
      </trkpt>
      <trkpt lat="1.995156" lon="-76.772296">
        <ele>2303.538</ele>
        <time>2022-12-18T16:02:43Z</time>
      </trkpt>
      <trkpt lat="1.995155" lon="-76.772382">
        <ele>2302.716</ele>
        <time>2022-12-18T16:02:45Z</time>
      </trkpt>
      <trkpt lat="1.995119" lon="-76.77246">
        <ele>2295.797</ele>
        <time>2022-12-18T16:02:47Z</time>
      </trkpt>
      <trkpt lat="1.995096" lon="-76.772521">
        <ele>2295.013</ele>
        <time>2022-12-18T16:02:49Z</time>
      </trkpt>
      <trkpt lat="1.995076" lon="-76.772567">
        <ele>2290.480</ele>
        <time>2022-12-18T16:02:50Z</time>
      </trkpt>
      <trkpt lat="1.995048" lon="-76.772628">
        <ele>2290.265</ele>
        <time>2022-12-18T16:02:53Z</time>
      </trkpt>
      <trkpt lat="1.995093" lon="-76.772632">
        <ele>2305.275</ele>
        <time>2022-12-18T16:03:06Z</time>
      </trkpt>
      <trkpt lat="1.995129" lon="-76.772661">
        <ele>2320.528</ele>
        <time>2022-12-18T16:03:19Z</time>
      </trkpt>
      <trkpt lat="1.995093" lon="-76.772693">
        <ele>2333.220</ele>
        <time>2022-12-18T16:03:26Z</time>
      </trkpt>
      <trkpt lat="1.995083" lon="-76.77275">
        <ele>2331.709</ele>
        <time>2022-12-18T16:03:29Z</time>
      </trkpt>
      <trkpt lat="1.995089" lon="-76.772808">
        <ele>2325.698</ele>
        <time>2022-12-18T16:03:31Z</time>
      </trkpt>
      <trkpt lat="1.995147" lon="-76.772853">
        <ele>2301.189</ele>
        <time>2022-12-18T16:03:33Z</time>
      </trkpt>
      <trkpt lat="1.995185" lon="-76.772918">
        <ele>2286.138</ele>
        <time>2022-12-18T16:03:35Z</time>
      </trkpt>
      <trkpt lat="1.995205" lon="-76.772967">
        <ele>2289.862</ele>
        <time>2022-12-18T16:03:37Z</time>
      </trkpt>
      <trkpt lat="1.99529" lon="-76.773067">
        <ele>2290.130</ele>
        <time>2022-12-18T16:03:39Z</time>
      </trkpt>
      <trkpt lat="1.995338" lon="-76.773134">
        <ele>2289.021</ele>
        <time>2022-12-18T16:03:40Z</time>
      </trkpt>
      <trkpt lat="1.995389" lon="-76.773189">
        <ele>2288.767</ele>
        <time>2022-12-18T16:03:41Z</time>
      </trkpt>
      <trkpt lat="1.995463" lon="-76.773286">
        <ele>2287.544</ele>
        <time>2022-12-18T16:03:43Z</time>
      </trkpt>
      <trkpt lat="1.995519" lon="-76.773401">
        <ele>2286.749</ele>
        <time>2022-12-18T16:03:45Z</time>
      </trkpt>
      <trkpt lat="1.995545" lon="-76.773473">
        <ele>2284.238</ele>
        <time>2022-12-18T16:03:46Z</time>
      </trkpt>
      <trkpt lat="1.995567" lon="-76.773541">
        <ele>2284.270</ele>
        <time>2022-12-18T16:03:47Z</time>
      </trkpt>
      <trkpt lat="1.995585" lon="-76.773602">
        <ele>2282.117</ele>
        <time>2022-12-18T16:03:48Z</time>
      </trkpt>
      <trkpt lat="1.995615" lon="-76.773722">
        <ele>2280.909</ele>
        <time>2022-12-18T16:03:50Z</time>
      </trkpt>
      <trkpt lat="1.995629" lon="-76.773865">
        <ele>2280.114</ele>
        <time>2022-12-18T16:03:52Z</time>
      </trkpt>
      <trkpt lat="1.995662" lon="-76.774014">
        <ele>2275.135</ele>
        <time>2022-12-18T16:03:54Z</time>
      </trkpt>
      <trkpt lat="1.995755" lon="-76.774134">
        <ele>2272.934</ele>
        <time>2022-12-18T16:03:56Z</time>
      </trkpt>
      <trkpt lat="1.995891" lon="-76.774225">
        <ele>2272.668</ele>
        <time>2022-12-18T16:03:58Z</time>
      </trkpt>
      <trkpt lat="1.995961" lon="-76.774276">
        <ele>2272.796</ele>
        <time>2022-12-18T16:03:59Z</time>
      </trkpt>
      <trkpt lat="1.996031" lon="-76.774324">
        <ele>2271.817</ele>
        <time>2022-12-18T16:04:00Z</time>
      </trkpt>
      <trkpt lat="1.996162" lon="-76.774439">
        <ele>2270.473</ele>
        <time>2022-12-18T16:04:02Z</time>
      </trkpt>
      <trkpt lat="1.996302" lon="-76.774555">
        <ele>2267.870</ele>
        <time>2022-12-18T16:04:04Z</time>
      </trkpt>
      <trkpt lat="1.996381" lon="-76.77461">
        <ele>2266.155</ele>
        <time>2022-12-18T16:04:05Z</time>
      </trkpt>
      <trkpt lat="1.99653" lon="-76.774741">
        <ele>2265.926</ele>
        <time>2022-12-18T16:04:07Z</time>
      </trkpt>
      <trkpt lat="1.996683" lon="-76.774898">
        <ele>2262.247</ele>
        <time>2022-12-18T16:04:09Z</time>
      </trkpt>
      <trkpt lat="1.996757" lon="-76.774969">
        <ele>2261.211</ele>
        <time>2022-12-18T16:04:10Z</time>
      </trkpt>
      <trkpt lat="1.996926" lon="-76.775086">
        <ele>2261.009</ele>
        <time>2022-12-18T16:04:12Z</time>
      </trkpt>
      <trkpt lat="1.997021" lon="-76.775135">
        <ele>2261.083</ele>
        <time>2022-12-18T16:04:13Z</time>
      </trkpt>
      <trkpt lat="1.997218" lon="-76.77522">
        <ele>2261.734</ele>
        <time>2022-12-18T16:04:15Z</time>
      </trkpt>
      <trkpt lat="1.997408" lon="-76.775298">
        <ele>2259.483</ele>
        <time>2022-12-18T16:04:17Z</time>
      </trkpt>
      <trkpt lat="1.997493" lon="-76.775338">
        <ele>2259.487</ele>
        <time>2022-12-18T16:04:18Z</time>
      </trkpt>
      <trkpt lat="1.997561" lon="-76.775372">
        <ele>2259.485</ele>
        <time>2022-12-18T16:04:19Z</time>
      </trkpt>
      <trkpt lat="1.997689" lon="-76.775444">
        <ele>2259.976</ele>
        <time>2022-12-18T16:04:21Z</time>
      </trkpt>
      <trkpt lat="1.997762" lon="-76.775482">
        <ele>2259.982</ele>
        <time>2022-12-18T16:04:22Z</time>
      </trkpt>
      <trkpt lat="1.997842" lon="-76.775513">
        <ele>2259.849</ele>
        <time>2022-12-18T16:04:23Z</time>
      </trkpt>
      <trkpt lat="1.997928" lon="-76.775546">
        <ele>2259.114</ele>
        <time>2022-12-18T16:04:24Z</time>
      </trkpt>
      <trkpt lat="1.998108" lon="-76.775581">
        <ele>2258.637</ele>
        <time>2022-12-18T16:04:26Z</time>
      </trkpt>
      <trkpt lat="1.998189" lon="-76.775581">
        <ele>2259.649</ele>
        <time>2022-12-18T16:04:27Z</time>
      </trkpt>
      <trkpt lat="1.998267" lon="-76.775578">
        <ele>2260.613</ele>
        <time>2022-12-18T16:04:28Z</time>
      </trkpt>
      <trkpt lat="1.998382" lon="-76.775562">
        <ele>2262.609</ele>
        <time>2022-12-18T16:04:30Z</time>
      </trkpt>
      <trkpt lat="1.99834" lon="-76.775543">
        <ele>2264.574</ele>
        <time>2022-12-18T16:04:37Z</time>
      </trkpt>
      <trkpt lat="1.998392" lon="-76.775535">
        <ele>2269.645</ele>
        <time>2022-12-18T16:05:13Z</time>
      </trkpt>
      <trkpt lat="1.998459" lon="-76.775548">
        <ele>2269.634</ele>
        <time>2022-12-18T16:05:15Z</time>
      </trkpt>
      <trkpt lat="1.998512" lon="-76.775556">
        <ele>2269.688</ele>
        <time>2022-12-18T16:05:17Z</time>
      </trkpt>
      <trkpt lat="1.99856" lon="-76.775567">
        <ele>2269.886</ele>
        <time>2022-12-18T16:05:18Z</time>
      </trkpt>
      <trkpt lat="1.998622" lon="-76.775588">
        <ele>2265.487</ele>
        <time>2022-12-18T16:05:20Z</time>
      </trkpt>
      <trkpt lat="1.998701" lon="-76.77562">
        <ele>2263.663</ele>
        <time>2022-12-18T16:05:22Z</time>
      </trkpt>
      <trkpt lat="1.998794" lon="-76.77565">
        <ele>2261.620</ele>
        <time>2022-12-18T16:05:23Z</time>
      </trkpt>
      <trkpt lat="1.998841" lon="-76.77568">
        <ele>2257.895</ele>
        <time>2022-12-18T16:05:24Z</time>
      </trkpt>
      <trkpt lat="1.998908" lon="-76.775723">
        <ele>2256.078</ele>
        <time>2022-12-18T16:05:26Z</time>
      </trkpt>
      <trkpt lat="1.998944" lon="-76.775767">
        <ele>2255.933</ele>
        <time>2022-12-18T16:05:28Z</time>
      </trkpt>
      <trkpt lat="1.999083" lon="-76.775834">
        <ele>2250.426</ele>
        <time>2022-12-18T16:05:30Z</time>
      </trkpt>
      <trkpt lat="1.999165" lon="-76.77588">
        <ele>2249.709</ele>
        <time>2022-12-18T16:05:32Z</time>
      </trkpt>
      <trkpt lat="1.999232" lon="-76.775925">
        <ele>2249.158</ele>
        <time>2022-12-18T16:05:34Z</time>
      </trkpt>
      <trkpt lat="1.999344" lon="-76.776002">
        <ele>2248.739</ele>
        <time>2022-12-18T16:05:36Z</time>
      </trkpt>
      <trkpt lat="1.999485" lon="-76.776121">
        <ele>2246.938</ele>
        <time>2022-12-18T16:05:38Z</time>
      </trkpt>
      <trkpt lat="1.999571" lon="-76.77619">
        <ele>2243.082</ele>
        <time>2022-12-18T16:05:39Z</time>
      </trkpt>
      <trkpt lat="1.99966" lon="-76.776266">
        <ele>2241.630</ele>
        <time>2022-12-18T16:05:40Z</time>
      </trkpt>
      <trkpt lat="1.99985" lon="-76.77643">
        <ele>2240.011</ele>
        <time>2022-12-18T16:05:42Z</time>
      </trkpt>
      <trkpt lat="1.999964" lon="-76.776503">
        <ele>2240.037</ele>
        <time>2022-12-18T16:05:43Z</time>
      </trkpt>
      <trkpt lat="2.000194" lon="-76.776665">
        <ele>2239.964</ele>
        <time>2022-12-18T16:05:45Z</time>
      </trkpt>
      <trkpt lat="2.000302" lon="-76.776768">
        <ele>2236.259</ele>
        <time>2022-12-18T16:05:46Z</time>
      </trkpt>
      <trkpt lat="2.000489" lon="-76.776992">
        <ele>2234.872</ele>
        <time>2022-12-18T16:05:48Z</time>
      </trkpt>
      <trkpt lat="2.000655" lon="-76.777179">
        <ele>2233.713</ele>
        <time>2022-12-18T16:05:50Z</time>
      </trkpt>
      <trkpt lat="2.000807" lon="-76.777339">
        <ele>2233.814</ele>
        <time>2022-12-18T16:05:52Z</time>
      </trkpt>
      <trkpt lat="2.000919" lon="-76.777472">
        <ele>2233.909</ele>
        <time>2022-12-18T16:05:54Z</time>
      </trkpt>
      <trkpt lat="2.000968" lon="-76.777533">
        <ele>2233.998</ele>
        <time>2022-12-18T16:05:55Z</time>
      </trkpt>
      <trkpt lat="2.001055" lon="-76.777652">
        <ele>2233.769</ele>
        <time>2022-12-18T16:05:57Z</time>
      </trkpt>
      <trkpt lat="2.001114" lon="-76.777732">
        <ele>2231.668</ele>
        <time>2022-12-18T16:05:59Z</time>
      </trkpt>
      <trkpt lat="2.001145" lon="-76.77779">
        <ele>2229.762</ele>
        <time>2022-12-18T16:06:02Z</time>
      </trkpt>
      <trkpt lat="2.001165" lon="-76.777838">
        <ele>2227.680</ele>
        <time>2022-12-18T16:06:06Z</time>
      </trkpt>
      <trkpt lat="2.001211" lon="-76.77787">
        <ele>2223.161</ele>
        <time>2022-12-18T16:06:16Z</time>
      </trkpt>
      <trkpt lat="2.001258" lon="-76.777895">
        <ele>2223.117</ele>
        <time>2022-12-18T16:06:18Z</time>
      </trkpt>
      <trkpt lat="2.001264" lon="-76.777965">
        <ele>2222.964</ele>
        <time>2022-12-18T16:06:20Z</time>
      </trkpt>
      <trkpt lat="2.001242" lon="-76.778006">
        <ele>2221.499</ele>
        <time>2022-12-18T16:06:21Z</time>
      </trkpt>
      <trkpt lat="2.001216" lon="-76.778045">
        <ele>2220.416</ele>
        <time>2022-12-18T16:06:22Z</time>
      </trkpt>
      <trkpt lat="2.001174" lon="-76.778113">
        <ele>2216.676</ele>
        <time>2022-12-18T16:06:24Z</time>
      </trkpt>
      <trkpt lat="2.001153" lon="-76.778173">
        <ele>2213.513</ele>
        <time>2022-12-18T16:06:26Z</time>
      </trkpt>
      <trkpt lat="2.001154" lon="-76.778227">
        <ele>2213.609</ele>
        <time>2022-12-18T16:06:28Z</time>
      </trkpt>
      <trkpt lat="2.001185" lon="-76.778263">
        <ele>2213.692</ele>
        <time>2022-12-18T16:06:31Z</time>
      </trkpt>
      <trkpt lat="2.001178" lon="-76.778216">
        <ele>2214.943</ele>
        <time>2022-12-18T16:06:36Z</time>
      </trkpt>
      <trkpt lat="2.001158" lon="-76.778175">
        <ele>2214.652</ele>
        <time>2022-12-18T16:06:38Z</time>
      </trkpt>
      <trkpt lat="2.001121" lon="-76.778149">
        <ele>2214.656</ele>
        <time>2022-12-18T16:06:40Z</time>
      </trkpt>
      <trkpt lat="2.001078" lon="-76.778134">
        <ele>2214.324</ele>
        <time>2022-12-18T16:06:42Z</time>
      </trkpt>
      <trkpt lat="2.001035" lon="-76.778146">
        <ele>2213.925</ele>
        <time>2022-12-18T16:06:44Z</time>
      </trkpt>
      <trkpt lat="2.000989" lon="-76.778183">
        <ele>2213.081</ele>
        <time>2022-12-18T16:06:47Z</time>
      </trkpt>
      <trkpt lat="2.001039" lon="-76.778174">
        <ele>2212.038</ele>
        <time>2022-12-18T16:06:57Z</time>
      </trkpt>
      <trkpt lat="2.001071" lon="-76.77821">
        <ele>2213.013</ele>
        <time>2022-12-18T16:07:06Z</time>
      </trkpt>
      <trkpt lat="2.001101" lon="-76.778163">
        <ele>2217.665</ele>
        <time>2022-12-18T16:07:17Z</time>
      </trkpt>
      <trkpt lat="2.001061" lon="-76.778187">
        <ele>2217.868</ele>
        <time>2022-12-18T16:07:21Z</time>
      </trkpt>
      <trkpt lat="2.001038" lon="-76.778146">
        <ele>2219.214</ele>
        <time>2022-12-18T16:07:29Z</time>
      </trkpt>
      <trkpt lat="2.001052" lon="-76.778189">
        <ele>2217.909</ele>
        <time>2022-12-18T16:07:35Z</time>
      </trkpt>
      <trkpt lat="2.001083" lon="-76.778228">
        <ele>2217.927</ele>
        <time>2022-12-18T16:07:45Z</time>
      </trkpt>
      <trkpt lat="2.00109" lon="-76.778174">
        <ele>2217.658</ele>
        <time>2022-12-18T16:07:52Z</time>
      </trkpt>
      <trkpt lat="2.001075" lon="-76.778217">
        <ele>2216.787</ele>
        <time>2022-12-18T16:08:01Z</time>
      </trkpt>
      <trkpt lat="2.001029" lon="-76.778216">
        <ele>2213.281</ele>
        <time>2022-12-18T16:08:25Z</time>
      </trkpt>
      <trkpt lat="2.001046" lon="-76.778173">
        <ele>2212.659</ele>
        <time>2022-12-18T16:08:36Z</time>
      </trkpt>
      <trkpt lat="2.001055" lon="-76.77823">
        <ele>2211.620</ele>
        <time>2022-12-18T16:08:57Z</time>
      </trkpt>
      <trkpt lat="2.001011" lon="-76.778209">
        <ele>2207.166</ele>
        <time>2022-12-18T16:09:58Z</time>
      </trkpt>
      <trkpt lat="2.000961" lon="-76.778217">
        <ele>2206.453</ele>
        <time>2022-12-18T16:10:03Z</time>
      </trkpt>
      <trkpt lat="2.000969" lon="-76.778262">
        <ele>2206.378</ele>
        <time>2022-12-18T16:10:06Z</time>
      </trkpt>
      <trkpt lat="2.000998" lon="-76.778301">
        <ele>2206.384</ele>
        <time>2022-12-18T16:10:08Z</time>
      </trkpt>
      <trkpt lat="2.001039" lon="-76.77836">
        <ele>2204.607</ele>
        <time>2022-12-18T16:10:11Z</time>
      </trkpt>
      <trkpt lat="2.001083" lon="-76.778381">
        <ele>2207.017</ele>
        <time>2022-12-18T16:10:14Z</time>
      </trkpt>
      <trkpt lat="2.001155" lon="-76.778367">
        <ele>2208.109</ele>
        <time>2022-12-18T16:10:21Z</time>
      </trkpt>
      <trkpt lat="2.001224" lon="-76.778345">
        <ele>2208.649</ele>
        <time>2022-12-18T16:10:23Z</time>
      </trkpt>
      <trkpt lat="2.001272" lon="-76.778336">
        <ele>2208.550</ele>
        <time>2022-12-18T16:10:24Z</time>
      </trkpt>
      <trkpt lat="2.001328" lon="-76.778334">
        <ele>2209.099</ele>
        <time>2022-12-18T16:10:26Z</time>
      </trkpt>
      <trkpt lat="2.001389" lon="-76.77836">
        <ele>2211.173</ele>
        <time>2022-12-18T16:10:28Z</time>
      </trkpt>
      <trkpt lat="2.001421" lon="-76.778411">
        <ele>2211.561</ele>
        <time>2022-12-18T16:10:30Z</time>
      </trkpt>
      <trkpt lat="2.001452" lon="-76.778466">
        <ele>2213.422</ele>
        <time>2022-12-18T16:10:32Z</time>
      </trkpt>
      <trkpt lat="2.001478" lon="-76.778526">
        <ele>2213.798</ele>
        <time>2022-12-18T16:10:34Z</time>
      </trkpt>
      <trkpt lat="2.001502" lon="-76.778598">
        <ele>2217.335</ele>
        <time>2022-12-18T16:10:36Z</time>
      </trkpt>
      <trkpt lat="2.001523" lon="-76.778674">
        <ele>2217.390</ele>
        <time>2022-12-18T16:10:38Z</time>
      </trkpt>
      <trkpt lat="2.001539" lon="-76.778728">
        <ele>2216.237</ele>
        <time>2022-12-18T16:10:40Z</time>
      </trkpt>
      <trkpt lat="2.001547" lon="-76.778783">
        <ele>2216.249</ele>
        <time>2022-12-18T16:10:42Z</time>
      </trkpt>
      <trkpt lat="2.001546" lon="-76.778831">
        <ele>2216.313</ele>
        <time>2022-12-18T16:10:44Z</time>
      </trkpt>
      <trkpt lat="2.001551" lon="-76.778879">
        <ele>2216.109</ele>
        <time>2022-12-18T16:10:46Z</time>
      </trkpt>
      <trkpt lat="2.001581" lon="-76.778915">
        <ele>2205.164</ele>
        <time>2022-12-18T16:11:25Z</time>
      </trkpt>
      <trkpt lat="2.001478" lon="-76.778918">
        <ele>2180.348</ele>
        <time>2022-12-18T06:06:09Z</time>
      </trkpt>
      <trkpt lat="2.001525" lon="-76.778867">
        <ele>2180.361</ele>
        <time>2022-12-18T06:06:13Z</time>
      </trkpt>
      <trkpt lat="2.001576" lon="-76.778821">
        <ele>2180.317</ele>
        <time>2022-12-18T06:06:15Z</time>
      </trkpt>
      <trkpt lat="2.00151" lon="-76.778795">
        <ele>2180.309</ele>
        <time>2022-12-18T06:06:17Z</time>
      </trkpt>
      <trkpt lat="2.001456" lon="-76.7788">
        <ele>2180.385</ele>
        <time>2022-12-18T06:06:19Z</time>
      </trkpt>
      <trkpt lat="2.001525" lon="-76.778824">
        <ele>2180.376</ele>
        <time>2022-12-18T06:06:21Z</time>
      </trkpt>
      <trkpt lat="2.001554" lon="-76.778773">
        <ele>2180.365</ele>
        <time>2022-12-18T06:06:44Z</time>
      </trkpt>
      <trkpt lat="2.001561" lon="-76.778725">
        <ele>2180.379</ele>
        <time>2022-12-18T06:07:20Z</time>
      </trkpt>
      <trkpt lat="2.001561" lon="-76.778666">
        <ele>2180.366</ele>
        <time>2022-12-18T06:07:26Z</time>
      </trkpt>
      <trkpt lat="2.001544" lon="-76.778618">
        <ele>2180.334</ele>
        <time>2022-12-18T06:07:28Z</time>
      </trkpt>
      <trkpt lat="2.001529" lon="-76.778563">
        <ele>2180.369</ele>
        <time>2022-12-18T06:07:30Z</time>
      </trkpt>
      <trkpt lat="2.001513" lon="-76.778507">
        <ele>2180.360</ele>
        <time>2022-12-18T06:07:32Z</time>
      </trkpt>
      <trkpt lat="2.001502" lon="-76.778456">
        <ele>2180.397</ele>
        <time>2022-12-18T06:07:34Z</time>
      </trkpt>
      <trkpt lat="2.001486" lon="-76.778409">
        <ele>2180.347</ele>
        <time>2022-12-18T06:07:36Z</time>
      </trkpt>
      <trkpt lat="2.001469" lon="-76.778363">
        <ele>2180.329</ele>
        <time>2022-12-18T06:07:38Z</time>
      </trkpt>
      <trkpt lat="2.001448" lon="-76.778317">
        <ele>2180.321</ele>
        <time>2022-12-18T06:07:40Z</time>
      </trkpt>
      <trkpt lat="2.001418" lon="-76.778271">
        <ele>2180.309</ele>
        <time>2022-12-18T06:07:42Z</time>
      </trkpt>
      <trkpt lat="2.001391" lon="-76.778233">
        <ele>2180.365</ele>
        <time>2022-12-18T06:07:44Z</time>
      </trkpt>
      <trkpt lat="2.001355" lon="-76.778198">
        <ele>2180.376</ele>
        <time>2022-12-18T06:07:46Z</time>
      </trkpt>
      <trkpt lat="2.001322" lon="-76.778157">
        <ele>2180.375</ele>
        <time>2022-12-18T06:07:48Z</time>
      </trkpt>
      <trkpt lat="2.001294" lon="-76.778117">
        <ele>2180.359</ele>
        <time>2022-12-18T06:07:50Z</time>
      </trkpt>
      <trkpt lat="2.001267" lon="-76.778079">
        <ele>2180.356</ele>
        <time>2022-12-18T06:07:52Z</time>
      </trkpt>
      <trkpt lat="2.001246" lon="-76.778037">
        <ele>2180.334</ele>
        <time>2022-12-18T06:07:54Z</time>
      </trkpt>
      <trkpt lat="2.001223" lon="-76.777996">
        <ele>2180.349</ele>
        <time>2022-12-18T06:07:56Z</time>
      </trkpt>
      <trkpt lat="2.001193" lon="-76.777958">
        <ele>2180.340</ele>
        <time>2022-12-18T06:07:58Z</time>
      </trkpt>
      <trkpt lat="2.001166" lon="-76.777918">
        <ele>2180.337</ele>
        <time>2022-12-18T06:08:00Z</time>
      </trkpt>
      <trkpt lat="2.001126" lon="-76.777863">
        <ele>2180.387</ele>
        <time>2022-12-18T06:08:03Z</time>
      </trkpt>
      <trkpt lat="2.001099" lon="-76.777824">
        <ele>2180.342</ele>
        <time>2022-12-18T06:08:05Z</time>
      </trkpt>
      <trkpt lat="2.001069" lon="-76.777785">
        <ele>2180.326</ele>
        <time>2022-12-18T06:08:07Z</time>
      </trkpt>
      <trkpt lat="2.001027" lon="-76.777731">
        <ele>2180.309</ele>
        <time>2022-12-18T06:08:10Z</time>
      </trkpt>
      <trkpt lat="2.000994" lon="-76.777694">
        <ele>2180.349</ele>
        <time>2022-12-18T06:08:12Z</time>
      </trkpt>
      <trkpt lat="2.000953" lon="-76.777669">
        <ele>2180.320</ele>
        <time>2022-12-18T06:08:14Z</time>
      </trkpt>
      <trkpt lat="2.000918" lon="-76.777629">
        <ele>2180.349</ele>
        <time>2022-12-18T06:08:16Z</time>
      </trkpt>
      <trkpt lat="2.000886" lon="-76.777587">
        <ele>2180.313</ele>
        <time>2022-12-18T06:08:18Z</time>
      </trkpt>
      <trkpt lat="2.000853" lon="-76.777549">
        <ele>2180.390</ele>
        <time>2022-12-18T06:08:20Z</time>
      </trkpt>
      <trkpt lat="2.000821" lon="-76.777503">
        <ele>2180.338</ele>
        <time>2022-12-18T06:08:22Z</time>
      </trkpt>
      <trkpt lat="2.000791" lon="-76.77746">
        <ele>2197.883</ele>
        <time>2022-12-18T06:08:24Z</time>
      </trkpt>
      <trkpt lat="2.000752" lon="-76.777419">
        <ele>2216.894</ele>
        <time>2022-12-18T06:08:26Z</time>
      </trkpt>
      <trkpt lat="2.000717" lon="-76.777374">
        <ele>2235.841</ele>
        <time>2022-12-18T06:08:28Z</time>
      </trkpt>
      <trkpt lat="2.000679" lon="-76.77733">
        <ele>2255.257</ele>
        <time>2022-12-18T06:08:30Z</time>
      </trkpt>
      <trkpt lat="2.000646" lon="-76.777285">
        <ele>2273.900</ele>
        <time>2022-12-18T06:08:32Z</time>
      </trkpt>
      <trkpt lat="2.000611" lon="-76.777243">
        <ele>2292.120</ele>
        <time>2022-12-18T06:08:34Z</time>
      </trkpt>
      <trkpt lat="2.000582" lon="-76.777195">
        <ele>2310.909</ele>
        <time>2022-12-18T06:08:36Z</time>
      </trkpt>
      <trkpt lat="2.000543" lon="-76.777151">
        <ele>2330.596</ele>
        <time>2022-12-18T06:08:38Z</time>
      </trkpt>
      <trkpt lat="2.000508" lon="-76.777105">
        <ele>2349.957</ele>
        <time>2022-12-18T06:08:40Z</time>
      </trkpt>
      <trkpt lat="2.000471" lon="-76.777065">
        <ele>2368.236</ele>
        <time>2022-12-18T06:08:42Z</time>
      </trkpt>
      <trkpt lat="2.000436" lon="-76.777022">
        <ele>2386.860</ele>
        <time>2022-12-18T06:08:44Z</time>
      </trkpt>
      <trkpt lat="2.000408" lon="-76.776981">
        <ele>2403.397</ele>
        <time>2022-12-18T06:08:46Z</time>
      </trkpt>
      <trkpt lat="2.000378" lon="-76.776945">
        <ele>2418.955</ele>
        <time>2022-12-18T06:08:48Z</time>
      </trkpt>
      <trkpt lat="2.000342" lon="-76.776916">
        <ele>2434.370</ele>
        <time>2022-12-18T06:08:50Z</time>
      </trkpt>
      <trkpt lat="2.000306" lon="-76.77686">
        <ele>2456.541</ele>
        <time>2022-12-18T06:08:53Z</time>
      </trkpt>
      <trkpt lat="2.000268" lon="-76.776807">
        <ele>2478.458</ele>
        <time>2022-12-18T06:08:56Z</time>
      </trkpt>
      <trkpt lat="2.000222" lon="-76.776762">
        <ele>2499.849</ele>
        <time>2022-12-18T06:08:59Z</time>
      </trkpt>
      <trkpt lat="2.000177" lon="-76.776723">
        <ele>2519.902</ele>
        <time>2022-12-18T06:09:02Z</time>
      </trkpt>
      <trkpt lat="2.000134" lon="-76.776684">
        <ele>2539.222</ele>
        <time>2022-12-18T06:09:05Z</time>
      </trkpt>
      <trkpt lat="2.0001" lon="-76.776641">
        <ele>2557.609</ele>
        <time>2022-12-18T06:09:08Z</time>
      </trkpt>
      <trkpt lat="2.000052" lon="-76.776607">
        <ele>2577.245</ele>
        <time>2022-12-18T06:09:11Z</time>
      </trkpt>
      <trkpt lat="2.000022" lon="-76.776558">
        <ele>2596.326</ele>
        <time>2022-12-18T06:09:14Z</time>
      </trkpt>
      <trkpt lat="1.999977" lon="-76.776527">
        <ele>2614.585</ele>
        <time>2022-12-18T06:09:17Z</time>
      </trkpt>
      <trkpt lat="1.999922" lon="-76.776501">
        <ele>2634.859</ele>
        <time>2022-12-18T06:09:20Z</time>
      </trkpt>
      <trkpt lat="1.999881" lon="-76.776453">
        <ele>2655.876</ele>
        <time>2022-12-18T06:09:23Z</time>
      </trkpt>
      <trkpt lat="1.999836" lon="-76.776424">
        <ele>2673.854</ele>
        <time>2022-12-18T06:09:26Z</time>
      </trkpt>
      <trkpt lat="1.999791" lon="-76.776398">
        <ele>2691.099</ele>
        <time>2022-12-18T06:09:29Z</time>
      </trkpt>
      <trkpt lat="1.999753" lon="-76.776364">
        <ele>2707.970</ele>
        <time>2022-12-18T06:09:32Z</time>
      </trkpt>
      <trkpt lat="1.999717" lon="-76.776333">
        <ele>2723.757</ele>
        <time>2022-12-18T06:09:35Z</time>
      </trkpt>
      <trkpt lat="1.999675" lon="-76.776307">
        <ele>2740.389</ele>
        <time>2022-12-18T06:09:38Z</time>
      </trkpt>
      <trkpt lat="1.999637" lon="-76.776269">
        <ele>2758.306</ele>
        <time>2022-12-18T06:09:42Z</time>
      </trkpt>
      <trkpt lat="1.999601" lon="-76.776235">
        <ele>2774.826</ele>
        <time>2022-12-18T06:09:45Z</time>
      </trkpt>
      <trkpt lat="1.99958" lon="-76.77619">
        <ele>2791.209</ele>
        <time>2022-12-18T06:09:48Z</time>
      </trkpt>
      <trkpt lat="1.999539" lon="-76.776163">
        <ele>2807.579</ele>
        <time>2022-12-18T06:09:51Z</time>
      </trkpt>
      <trkpt lat="1.999494" lon="-76.776138">
        <ele>2824.540</ele>
        <time>2022-12-18T06:09:54Z</time>
      </trkpt>
      <trkpt lat="1.999457" lon="-76.776103">
        <ele>2841.629</ele>
        <time>2022-12-18T06:09:57Z</time>
      </trkpt>
      <trkpt lat="1.999407" lon="-76.776071">
        <ele>2861.343</ele>
        <time>2022-12-18T06:10:01Z</time>
      </trkpt>
      <trkpt lat="1.999375" lon="-76.776037">
        <ele>2876.770</ele>
        <time>2022-12-18T06:10:04Z</time>
      </trkpt>
      <trkpt lat="1.999339" lon="-76.775989">
        <ele>2896.838</ele>
        <time>2022-12-18T06:10:08Z</time>
      </trkpt>
      <trkpt lat="1.9993" lon="-76.77596">
        <ele>2913.113</ele>
        <time>2022-12-18T06:10:11Z</time>
      </trkpt>
      <trkpt lat="1.99925" lon="-76.77593">
        <ele>2932.714</ele>
        <time>2022-12-18T06:10:15Z</time>
      </trkpt>
      <trkpt lat="1.999222" lon="-76.775894">
        <ele>2947.961</ele>
        <time>2022-12-18T06:10:18Z</time>
      </trkpt>
      <trkpt lat="1.999181" lon="-76.775867">
        <ele>2964.382</ele>
        <time>2022-12-18T06:10:21Z</time>
      </trkpt>
      <trkpt lat="1.999144" lon="-76.77584">
        <ele>2979.643</ele>
        <time>2022-12-18T06:10:24Z</time>
      </trkpt>
      <trkpt lat="1.999099" lon="-76.775801">
        <ele>2999.617</ele>
        <time>2022-12-18T06:10:28Z</time>
      </trkpt>
      <trkpt lat="1.999056" lon="-76.775778">
        <ele>3015.909</ele>
        <time>2022-12-18T06:10:31Z</time>
      </trkpt>
      <trkpt lat="1.999006" lon="-76.775749">
        <ele>3035.299</ele>
        <time>2022-12-18T06:10:35Z</time>
      </trkpt>
      <trkpt lat="1.998966" lon="-76.775704">
        <ele>3055.250</ele>
        <time>2022-12-18T06:10:39Z</time>
      </trkpt>
      <trkpt lat="1.998928" lon="-76.775678">
        <ele>3070.639</ele>
        <time>2022-12-18T06:10:42Z</time>
      </trkpt>
      <trkpt lat="1.998887" lon="-76.775651">
        <ele>3086.893</ele>
        <time>2022-12-18T06:10:45Z</time>
      </trkpt>
      <trkpt lat="1.99884" lon="-76.77562">
        <ele>3105.570</ele>
        <time>2022-12-18T06:10:48Z</time>
      </trkpt>
      <trkpt lat="1.998791" lon="-76.775588">
        <ele>3125.098</ele>
        <time>2022-12-18T06:10:51Z</time>
      </trkpt>
      <trkpt lat="1.998741" lon="-76.775564">
        <ele>3143.413</ele>
        <time>2022-12-18T06:10:54Z</time>
      </trkpt>
      <trkpt lat="1.998679" lon="-76.775561">
        <ele>3164.114</ele>
        <time>2022-12-18T06:10:57Z</time>
      </trkpt>
      <trkpt lat="1.998632" lon="-76.77555">
        <ele>3180.311</ele>
        <time>2022-12-18T06:10:59Z</time>
      </trkpt>
      <trkpt lat="1.998573" lon="-76.775528">
        <ele>3201.372</ele>
        <time>2022-12-18T06:11:02Z</time>
      </trkpt>
      <trkpt lat="1.998524" lon="-76.775514">
        <ele>3218.313</ele>
        <time>2022-12-18T06:11:05Z</time>
      </trkpt>
      <trkpt lat="1.998475" lon="-76.775502">
        <ele>3235.114</ele>
        <time>2022-12-18T06:11:08Z</time>
      </trkpt>
      <trkpt lat="1.998426" lon="-76.775509">
        <ele>3251.809</ele>
        <time>2022-12-18T06:11:12Z</time>
      </trkpt>
      <trkpt lat="1.998375" lon="-76.775532">
        <ele>3270.398</ele>
        <time>2022-12-18T06:11:17Z</time>
      </trkpt>
      <trkpt lat="1.998345" lon="-76.775567">
        <ele>3285.699</ele>
        <time>2022-12-18T06:11:22Z</time>
      </trkpt>
      <trkpt lat="1.998292" lon="-76.77558">
        <ele>3303.998</ele>
        <time>2022-12-18T06:11:27Z</time>
      </trkpt>
      <trkpt lat="1.998247" lon="-76.775586">
        <ele>3319.012</ele>
        <time>2022-12-18T06:11:30Z</time>
      </trkpt>
      <trkpt lat="1.998204" lon="-76.775598">
        <ele>3334.089</ele>
        <time>2022-12-18T06:11:33Z</time>
      </trkpt>
      <trkpt lat="1.998149" lon="-76.775619">
        <ele>3337.677</ele>
        <time>2022-12-18T06:11:37Z</time>
      </trkpt>
      <trkpt lat="1.998098" lon="-76.775638">
        <ele>3338.062</ele>
        <time>2022-12-18T06:11:40Z</time>
      </trkpt>
      <trkpt lat="1.998054" lon="-76.775652">
        <ele>3338.743</ele>
        <time>2022-12-18T06:11:43Z</time>
      </trkpt>
      <trkpt lat="1.998001" lon="-76.775666">
        <ele>3339.440</ele>
        <time>2022-12-18T06:11:47Z</time>
      </trkpt>
      <trkpt lat="1.997943" lon="-76.775682">
        <ele>3340.258</ele>
        <time>2022-12-18T06:11:51Z</time>
      </trkpt>
      <trkpt lat="1.997894" lon="-76.775691">
        <ele>3341.252</ele>
        <time>2022-12-18T06:11:54Z</time>
      </trkpt>
      <trkpt lat="1.997845" lon="-76.775692">
        <ele>3342.217</ele>
        <time>2022-12-18T06:11:57Z</time>
      </trkpt>
      <trkpt lat="1.997795" lon="-76.775693">
        <ele>3342.509</ele>
        <time>2022-12-18T06:12:00Z</time>
      </trkpt>
      <trkpt lat="1.99775" lon="-76.775684">
        <ele>3342.966</ele>
        <time>2022-12-18T06:12:03Z</time>
      </trkpt>
      <trkpt lat="1.997704" lon="-76.775681">
        <ele>3343.247</ele>
        <time>2022-12-18T06:12:06Z</time>
      </trkpt>
      <trkpt lat="1.997657" lon="-76.775678">
        <ele>3344.456</ele>
        <time>2022-12-18T06:12:09Z</time>
      </trkpt>
      <trkpt lat="1.997606" lon="-76.775671">
        <ele>3345.730</ele>
        <time>2022-12-18T06:12:12Z</time>
      </trkpt>
      <trkpt lat="1.997558" lon="-76.775657">
        <ele>3346.367</ele>
        <time>2022-12-18T06:12:15Z</time>
      </trkpt>
      <trkpt lat="1.997508" lon="-76.775655">
        <ele>3347.095</ele>
        <time>2022-12-18T06:12:18Z</time>
      </trkpt>
      <trkpt lat="1.997464" lon="-76.775641">
        <ele>3347.550</ele>
        <time>2022-12-18T06:12:21Z</time>
      </trkpt>
      <trkpt lat="1.997421" lon="-76.775624">
        <ele>3348.011</ele>
        <time>2022-12-18T06:12:24Z</time>
      </trkpt>
      <trkpt lat="1.997365" lon="-76.775613">
        <ele>3349.488</ele>
        <time>2022-12-18T06:12:28Z</time>
      </trkpt>
      <trkpt lat="1.997311" lon="-76.775601">
        <ele>3349.954</ele>
        <time>2022-12-18T06:12:32Z</time>
      </trkpt>
      <trkpt lat="1.997254" lon="-76.775584">
        <ele>3351.756</ele>
        <time>2022-12-18T06:12:36Z</time>
      </trkpt>
      <trkpt lat="1.997197" lon="-76.775579">
        <ele>3353.011</ele>
        <time>2022-12-18T06:12:40Z</time>
      </trkpt>
      <trkpt lat="1.997143" lon="-76.775577">
        <ele>3353.009</ele>
        <time>2022-12-18T06:12:43Z</time>
      </trkpt>
      <trkpt lat="1.997087" lon="-76.775576">
        <ele>3353.316</ele>
        <time>2022-12-18T06:12:45Z</time>
      </trkpt>
      <trkpt lat="1.997031" lon="-76.775587">
        <ele>3353.857</ele>
        <time>2022-12-18T06:12:49Z</time>
      </trkpt>
      <trkpt lat="1.996981" lon="-76.775606">
        <ele>3353.926</ele>
        <time>2022-12-18T06:12:52Z</time>
      </trkpt>
      <trkpt lat="1.996926" lon="-76.775614">
        <ele>3353.990</ele>
        <time>2022-12-18T06:12:55Z</time>
      </trkpt>
      <trkpt lat="1.996878" lon="-76.775628">
        <ele>3354.537</ele>
        <time>2022-12-18T06:12:58Z</time>
      </trkpt>
      <trkpt lat="1.996833" lon="-76.775642">
        <ele>3354.655</ele>
        <time>2022-12-18T06:13:01Z</time>
      </trkpt>
      <trkpt lat="1.996789" lon="-76.775671">
        <ele>3355.250</ele>
        <time>2022-12-18T06:13:04Z</time>
      </trkpt>
      <trkpt lat="1.996757" lon="-76.775708">
        <ele>3355.771</ele>
        <time>2022-12-18T06:13:07Z</time>
      </trkpt>
      <trkpt lat="1.996717" lon="-76.775737">
        <ele>3357.318</ele>
        <time>2022-12-18T06:13:10Z</time>
      </trkpt>
      <trkpt lat="1.99666" lon="-76.775749">
        <ele>3358.055</ele>
        <time>2022-12-18T06:13:13Z</time>
      </trkpt>
      <trkpt lat="1.9966" lon="-76.77577">
        <ele>3358.007</ele>
        <time>2022-12-18T06:13:16Z</time>
      </trkpt>
      <trkpt lat="1.996511" lon="-76.775785">
        <ele>3358.117</ele>
        <time>2022-12-18T06:13:18Z</time>
      </trkpt>
      <trkpt lat="1.996461" lon="-76.775794">
        <ele>3357.609</ele>
        <time>2022-12-18T06:13:19Z</time>
      </trkpt>
      <trkpt lat="1.996414" lon="-76.775801">
        <ele>3357.296</ele>
        <time>2022-12-18T06:13:20Z</time>
      </trkpt>
      <trkpt lat="1.996334" lon="-76.775818">
        <ele>3352.827</ele>
        <time>2022-12-18T06:13:22Z</time>
      </trkpt>
      <trkpt lat="1.996286" lon="-76.775818">
        <ele>3349.276</ele>
        <time>2022-12-18T06:13:26Z</time>
      </trkpt>
      <trkpt lat="1.996242" lon="-76.775794">
        <ele>3348.810</ele>
        <time>2022-12-18T06:13:30Z</time>
      </trkpt>
      <trkpt lat="1.996218" lon="-76.775755">
        <ele>3349.027</ele>
        <time>2022-12-18T06:13:33Z</time>
      </trkpt>
      <trkpt lat="1.996182" lon="-76.775727">
        <ele>3349.295</ele>
        <time>2022-12-18T06:13:36Z</time>
      </trkpt>
      <trkpt lat="1.99615" lon="-76.775687">
        <ele>3349.850</ele>
        <time>2022-12-18T06:13:41Z</time>
      </trkpt>
      <trkpt lat="1.996126" lon="-76.775636">
        <ele>3350.441</ele>
        <time>2022-12-18T06:13:45Z</time>
      </trkpt>
      <trkpt lat="1.996104" lon="-76.775591">
        <ele>3350.718</ele>
        <time>2022-12-18T06:13:49Z</time>
      </trkpt>
      <trkpt lat="1.996076" lon="-76.775551">
        <ele>3351.115</ele>
        <time>2022-12-18T06:13:53Z</time>
      </trkpt>
      <trkpt lat="1.996062" lon="-76.775498">
        <ele>3353.265</ele>
        <time>2022-12-18T06:13:59Z</time>
      </trkpt>
      <trkpt lat="1.996049" lon="-76.775452">
        <ele>3355.611</ele>
        <time>2022-12-18T06:14:02Z</time>
      </trkpt>
      <trkpt lat="1.996025" lon="-76.775396">
        <ele>3355.909</ele>
        <time>2022-12-18T06:14:06Z</time>
      </trkpt>
      <trkpt lat="1.995995" lon="-76.775357">
        <ele>3355.992</ele>
        <time>2022-12-18T06:14:08Z</time>
      </trkpt>
      <trkpt lat="1.995944" lon="-76.775287">
        <ele>3355.933</ele>
        <time>2022-12-18T06:14:10Z</time>
      </trkpt>
      <trkpt lat="1.995908" lon="-76.77526">
        <ele>3355.922</ele>
        <time>2022-12-18T06:14:11Z</time>
      </trkpt>
      <trkpt lat="1.995841" lon="-76.775224">
        <ele>3355.496</ele>
        <time>2022-12-18T06:14:13Z</time>
      </trkpt>
      <trkpt lat="1.99578" lon="-76.775195">
        <ele>3352.933</ele>
        <time>2022-12-18T06:14:15Z</time>
      </trkpt>
      <trkpt lat="1.995735" lon="-76.775157">
        <ele>3349.481</ele>
        <time>2022-12-18T06:14:17Z</time>
      </trkpt>
      <trkpt lat="1.995689" lon="-76.775125">
        <ele>3348.166</ele>
        <time>2022-12-18T06:14:19Z</time>
      </trkpt>
      <trkpt lat="1.995648" lon="-76.775086">
        <ele>3347.757</ele>
        <time>2022-12-18T06:14:21Z</time>
      </trkpt>
      <trkpt lat="1.995605" lon="-76.775044">
        <ele>3347.684</ele>
        <time>2022-12-18T06:14:23Z</time>
      </trkpt>
      <trkpt lat="1.995568" lon="-76.774969">
        <ele>3344.932</ele>
        <time>2022-12-18T06:14:25Z</time>
      </trkpt>
      <trkpt lat="1.995558" lon="-76.774894">
        <ele>3343.592</ele>
        <time>2022-12-18T06:14:27Z</time>
      </trkpt>
      <trkpt lat="1.995576" lon="-76.77482">
        <ele>3342.411</ele>
        <time>2022-12-18T06:14:29Z</time>
      </trkpt>
      <trkpt lat="1.995578" lon="-76.77476">
        <ele>3340.609</ele>
        <time>2022-12-18T06:14:31Z</time>
      </trkpt>
      <trkpt lat="1.995589" lon="-76.774702">
        <ele>3339.054</ele>
        <time>2022-12-18T06:14:33Z</time>
      </trkpt>
      <trkpt lat="1.995591" lon="-76.774638">
        <ele>3338.625</ele>
        <time>2022-12-18T06:14:35Z</time>
      </trkpt>
      <trkpt lat="1.99559" lon="-76.774589">
        <ele>3338.034</ele>
        <time>2022-12-18T06:14:36Z</time>
      </trkpt>
      <trkpt lat="1.995584" lon="-76.774524">
        <ele>3337.458</ele>
        <time>2022-12-18T06:14:39Z</time>
      </trkpt>
      <trkpt lat="1.995574" lon="-76.774467">
        <ele>3337.165</ele>
        <time>2022-12-18T06:14:41Z</time>
      </trkpt>
      <trkpt lat="1.995538" lon="-76.77444">
        <ele>3337.273</ele>
        <time>2022-12-18T06:14:45Z</time>
      </trkpt>
      <trkpt lat="1.995492" lon="-76.774429">
        <ele>3337.958</ele>
        <time>2022-12-18T06:14:51Z</time>
      </trkpt>
      <trkpt lat="1.995446" lon="-76.77441">
        <ele>3340.929</ele>
        <time>2022-12-18T06:14:56Z</time>
      </trkpt>
      <trkpt lat="1.995397" lon="-76.774395">
        <ele>3342.646</ele>
        <time>2022-12-18T06:15:00Z</time>
      </trkpt>
      <trkpt lat="1.995353" lon="-76.774376">
        <ele>3343.274</ele>
        <time>2022-12-18T06:15:04Z</time>
      </trkpt>
      <trkpt lat="1.99531" lon="-76.774362">
        <ele>3344.156</ele>
        <time>2022-12-18T06:15:07Z</time>
      </trkpt>
      <trkpt lat="1.995259" lon="-76.774347">
        <ele>3346.121</ele>
        <time>2022-12-18T06:15:12Z</time>
      </trkpt>
      <trkpt lat="1.995214" lon="-76.774322">
        <ele>3348.609</ele>
        <time>2022-12-18T06:15:17Z</time>
      </trkpt>
      <trkpt lat="1.995176" lon="-76.774293">
        <ele>3350.348</ele>
        <time>2022-12-18T06:15:23Z</time>
      </trkpt>
      <trkpt lat="1.99513" lon="-76.774284">
        <ele>3353.119</ele>
        <time>2022-12-18T06:15:28Z</time>
      </trkpt>
      <trkpt lat="1.995081" lon="-76.774282">
        <ele>3355.788</ele>
        <time>2022-12-18T06:15:31Z</time>
      </trkpt>
      <trkpt lat="1.995023" lon="-76.774281">
        <ele>3359.412</ele>
        <time>2022-12-18T06:15:34Z</time>
      </trkpt>
      <trkpt lat="1.994974" lon="-76.774295">
        <ele>3361.549</ele>
        <time>2022-12-18T06:15:36Z</time>
      </trkpt>
      <trkpt lat="1.994924" lon="-76.774315">
        <ele>3362.737</ele>
        <time>2022-12-18T06:15:39Z</time>
      </trkpt>
      <trkpt lat="1.994879" lon="-76.774335">
        <ele>3364.162</ele>
        <time>2022-12-18T06:15:42Z</time>
      </trkpt>
      <trkpt lat="1.994832" lon="-76.774352">
        <ele>3365.023</ele>
        <time>2022-12-18T06:15:45Z</time>
      </trkpt>
      <trkpt lat="1.994785" lon="-76.774381">
        <ele>3365.840</ele>
        <time>2022-12-18T06:15:49Z</time>
      </trkpt>
      <trkpt lat="1.99473" lon="-76.774394">
        <ele>3366.839</ele>
        <time>2022-12-18T06:15:53Z</time>
      </trkpt>
      <trkpt lat="1.994678" lon="-76.774409">
        <ele>3368.401</ele>
        <time>2022-12-18T06:15:57Z</time>
      </trkpt>
      <trkpt lat="1.99462" lon="-76.77442">
        <ele>3370.121</ele>
        <time>2022-12-18T06:16:01Z</time>
      </trkpt>
      <trkpt lat="1.994572" lon="-76.774436">
        <ele>3370.409</ele>
        <time>2022-12-18T06:16:05Z</time>
      </trkpt>
      <trkpt lat="1.994522" lon="-76.774442">
        <ele>3371.594</ele>
        <time>2022-12-18T06:16:08Z</time>
      </trkpt>
      <trkpt lat="1.994469" lon="-76.774449">
        <ele>3372.415</ele>
        <time>2022-12-18T06:16:12Z</time>
      </trkpt>
      <trkpt lat="1.994425" lon="-76.774463">
        <ele>3373.354</ele>
        <time>2022-12-18T06:16:15Z</time>
      </trkpt>
      <trkpt lat="1.994368" lon="-76.77448">
        <ele>3374.618</ele>
        <time>2022-12-18T06:16:19Z</time>
      </trkpt>
      <trkpt lat="1.99432" lon="-76.774496">
        <ele>3375.735</ele>
        <time>2022-12-18T06:16:22Z</time>
      </trkpt>
      <trkpt lat="1.994274" lon="-76.774515">
        <ele>3376.883</ele>
        <time>2022-12-18T06:16:25Z</time>
      </trkpt>
      <trkpt lat="1.994238" lon="-76.774548">
        <ele>3377.098</ele>
        <time>2022-12-18T06:16:28Z</time>
      </trkpt>
      <trkpt lat="1.994201" lon="-76.774589">
        <ele>3377.479</ele>
        <time>2022-12-18T06:16:31Z</time>
      </trkpt>
      <trkpt lat="1.994148" lon="-76.774618">
        <ele>3378.176</ele>
        <time>2022-12-18T06:16:35Z</time>
      </trkpt>
      <trkpt lat="1.994103" lon="-76.774634">
        <ele>3379.238</ele>
        <time>2022-12-18T06:16:38Z</time>
      </trkpt>
      <trkpt lat="1.994062" lon="-76.774656">
        <ele>3379.970</ele>
        <time>2022-12-18T06:16:41Z</time>
      </trkpt>
      <trkpt lat="1.994012" lon="-76.774691">
        <ele>3380.117</ele>
        <time>2022-12-18T06:16:45Z</time>
      </trkpt>
      <trkpt lat="1.993973" lon="-76.774719">
        <ele>3380.109</ele>
        <time>2022-12-18T06:16:48Z</time>
      </trkpt>
      <trkpt lat="1.993924" lon="-76.774728">
        <ele>3380.554</ele>
        <time>2022-12-18T06:16:52Z</time>
      </trkpt>
      <trkpt lat="1.993875" lon="-76.774745">
        <ele>3381.635</ele>
        <time>2022-12-18T06:16:56Z</time>
      </trkpt>
      <trkpt lat="1.993829" lon="-76.774767">
        <ele>3382.384</ele>
        <time>2022-12-18T06:17:01Z</time>
      </trkpt>
      <trkpt lat="1.993776" lon="-76.774792">
        <ele>3384.358</ele>
        <time>2022-12-18T06:17:06Z</time>
      </trkpt>
      <trkpt lat="1.993735" lon="-76.774826">
        <ele>3387.485</ele>
        <time>2022-12-18T06:17:10Z</time>
      </trkpt>
      <trkpt lat="1.993703" lon="-76.774858">
        <ele>3390.323</ele>
        <time>2022-12-18T06:17:13Z</time>
      </trkpt>
      <trkpt lat="1.993666" lon="-76.774886">
        <ele>3391.418</ele>
        <time>2022-12-18T06:17:16Z</time>
      </trkpt>
      <trkpt lat="1.99362" lon="-76.774927">
        <ele>3393.199</ele>
        <time>2022-12-18T06:17:20Z</time>
      </trkpt>
      <trkpt lat="1.993567" lon="-76.774956">
        <ele>3394.566</ele>
        <time>2022-12-18T06:17:24Z</time>
      </trkpt>
      <trkpt lat="1.993527" lon="-76.774984">
        <ele>3394.816</ele>
        <time>2022-12-18T06:17:27Z</time>
      </trkpt>
      <trkpt lat="1.993486" lon="-76.775007">
        <ele>3395.376</ele>
        <time>2022-12-18T06:17:30Z</time>
      </trkpt>
      <trkpt lat="1.993437" lon="-76.775034">
        <ele>3396.013</ele>
        <time>2022-12-18T06:17:34Z</time>
      </trkpt>
      <trkpt lat="1.993405" lon="-76.775074">
        <ele>3396.209</ele>
        <time>2022-12-18T06:17:38Z</time>
      </trkpt>
      <trkpt lat="1.993362" lon="-76.775108">
        <ele>3397.522</ele>
        <time>2022-12-18T06:17:42Z</time>
      </trkpt>
      <trkpt lat="1.993317" lon="-76.775137">
        <ele>3399.253</ele>
        <time>2022-12-18T06:17:45Z</time>
      </trkpt>
      <trkpt lat="1.993266" lon="-76.775164">
        <ele>3400.682</ele>
        <time>2022-12-18T06:17:49Z</time>
      </trkpt>
      <trkpt lat="1.993212" lon="-76.775188">
        <ele>3401.076</ele>
        <time>2022-12-18T06:17:53Z</time>
      </trkpt>
      <trkpt lat="1.993159" lon="-76.775221">
        <ele>3401.413</ele>
        <time>2022-12-18T06:17:57Z</time>
      </trkpt>
      <trkpt lat="1.993113" lon="-76.775252">
        <ele>3402.081</ele>
        <time>2022-12-18T06:18:00Z</time>
      </trkpt>
      <trkpt lat="1.993066" lon="-76.775276">
        <ele>3402.416</ele>
        <time>2022-12-18T06:18:03Z</time>
      </trkpt>
      <trkpt lat="1.993022" lon="-76.775298">
        <ele>3402.967</ele>
        <time>2022-12-18T06:18:06Z</time>
      </trkpt>
      <trkpt lat="1.992978" lon="-76.775317">
        <ele>3403.444</ele>
        <time>2022-12-18T06:18:09Z</time>
      </trkpt>
      <trkpt lat="1.99293" lon="-76.775326">
        <ele>3403.848</ele>
        <time>2022-12-18T06:18:12Z</time>
      </trkpt>
      <trkpt lat="1.992883" lon="-76.775351">
        <ele>3405.361</ele>
        <time>2022-12-18T06:18:15Z</time>
      </trkpt>
      <trkpt lat="1.992844" lon="-76.775376">
        <ele>3405.617</ele>
        <time>2022-12-18T06:18:18Z</time>
      </trkpt>
      <trkpt lat="1.992803" lon="-76.77541">
        <ele>3405.709</ele>
        <time>2022-12-18T06:18:21Z</time>
      </trkpt>
      <trkpt lat="1.992772" lon="-76.775444">
        <ele>3406.135</ele>
        <time>2022-12-18T06:18:24Z</time>
      </trkpt>
      <trkpt lat="1.992749" lon="-76.77549">
        <ele>3406.256</ele>
        <time>2022-12-18T06:18:28Z</time>
      </trkpt>
      <trkpt lat="1.99272" lon="-76.775527">
        <ele>3406.865</ele>
        <time>2022-12-18T06:18:33Z</time>
      </trkpt>
      <trkpt lat="1.992691" lon="-76.775563">
        <ele>3408.469</ele>
        <time>2022-12-18T06:18:36Z</time>
      </trkpt>
      <trkpt lat="1.992659" lon="-76.775608">
        <ele>3409.546</ele>
        <time>2022-12-18T06:18:39Z</time>
      </trkpt>
      <trkpt lat="1.992621" lon="-76.775651">
        <ele>3410.274</ele>
        <time>2022-12-18T06:18:42Z</time>
      </trkpt>
      <trkpt lat="1.992577" lon="-76.775681">
        <ele>3410.439</ele>
        <time>2022-12-18T06:18:46Z</time>
      </trkpt>
      <trkpt lat="1.992533" lon="-76.775694">
        <ele>3410.840</ele>
        <time>2022-12-18T06:18:50Z</time>
      </trkpt>
      <trkpt lat="1.992489" lon="-76.775677">
        <ele>3411.667</ele>
        <time>2022-12-18T06:18:54Z</time>
      </trkpt>
      <trkpt lat="1.992444" lon="-76.775663">
        <ele>3412.772</ele>
        <time>2022-12-18T06:18:58Z</time>
      </trkpt>
      <trkpt lat="1.992397" lon="-76.775647">
        <ele>3414.013</ele>
        <time>2022-12-18T06:19:01Z</time>
      </trkpt>
      <trkpt lat="1.992341" lon="-76.775635">
        <ele>3414.214</ele>
        <time>2022-12-18T06:19:05Z</time>
      </trkpt>
      <trkpt lat="1.992292" lon="-76.775637">
        <ele>3415.609</ele>
        <time>2022-12-18T06:19:07Z</time>
      </trkpt>
      <trkpt lat="1.992236" lon="-76.775641">
        <ele>3415.918</ele>
        <time>2022-12-18T06:19:10Z</time>
      </trkpt>
      <trkpt lat="1.992179" lon="-76.77566">
        <ele>3416.079</ele>
        <time>2022-12-18T06:19:13Z</time>
      </trkpt>
      <trkpt lat="1.992137" lon="-76.775678">
        <ele>3415.968</ele>
        <time>2022-12-18T06:19:16Z</time>
      </trkpt>
      <trkpt lat="1.992091" lon="-76.775671">
        <ele>3416.072</ele>
        <time>2022-12-18T06:19:19Z</time>
      </trkpt>
      <trkpt lat="1.992032" lon="-76.775661">
        <ele>3416.299</ele>
        <time>2022-12-18T06:19:22Z</time>
      </trkpt>
      <trkpt lat="1.991986" lon="-76.775661">
        <ele>3416.377</ele>
        <time>2022-12-18T06:19:24Z</time>
      </trkpt>
      <trkpt lat="1.991933" lon="-76.775666">
        <ele>3416.322</ele>
        <time>2022-12-18T06:19:26Z</time>
      </trkpt>
      <trkpt lat="1.991886" lon="-76.775684">
        <ele>3416.353</ele>
        <time>2022-12-18T06:19:28Z</time>
      </trkpt>
      <trkpt lat="1.991825" lon="-76.775707">
        <ele>3414.530</ele>
        <time>2022-12-18T06:19:31Z</time>
      </trkpt>
      <trkpt lat="1.991769" lon="-76.775725">
        <ele>3413.166</ele>
        <time>2022-12-18T06:19:34Z</time>
      </trkpt>
      <trkpt lat="1.99173" lon="-76.775751">
        <ele>3412.229</ele>
        <time>2022-12-18T06:19:37Z</time>
      </trkpt>
      <trkpt lat="1.991677" lon="-76.775776">
        <ele>3411.521</ele>
        <time>2022-12-18T06:19:40Z</time>
      </trkpt>
      <trkpt lat="1.991632" lon="-76.775794">
        <ele>3411.409</ele>
        <time>2022-12-18T06:19:42Z</time>
      </trkpt>
      <trkpt lat="1.991572" lon="-76.775813">
        <ele>3411.217</ele>
        <time>2022-12-18T06:19:45Z</time>
      </trkpt>
      <trkpt lat="1.991529" lon="-76.775838">
        <ele>3409.638</ele>
        <time>2022-12-18T06:19:49Z</time>
      </trkpt>
      <trkpt lat="1.991483" lon="-76.775864">
        <ele>3409.137</ele>
        <time>2022-12-18T06:19:53Z</time>
      </trkpt>
      <trkpt lat="1.99145" lon="-76.775903">
        <ele>3408.921</ele>
        <time>2022-12-18T06:19:56Z</time>
      </trkpt>
      <trkpt lat="1.991425" lon="-76.775957">
        <ele>3408.728</ele>
        <time>2022-12-18T06:20:00Z</time>
      </trkpt>
      <trkpt lat="1.991425" lon="-76.776011">
        <ele>3408.956</ele>
        <time>2022-12-18T06:20:03Z</time>
      </trkpt>
      <trkpt lat="1.991421" lon="-76.776059">
        <ele>3409.191</ele>
        <time>2022-12-18T06:20:06Z</time>
      </trkpt>
      <trkpt lat="1.991393" lon="-76.776106">
        <ele>3411.722</ele>
        <time>2022-12-18T06:20:11Z</time>
      </trkpt>
      <trkpt lat="1.99135" lon="-76.776126">
        <ele>3413.889</ele>
        <time>2022-12-18T06:20:15Z</time>
      </trkpt>
      <trkpt lat="1.991297" lon="-76.77614">
        <ele>3416.697</ele>
        <time>2022-12-18T06:20:20Z</time>
      </trkpt>
      <trkpt lat="1.991245" lon="-76.77615">
        <ele>3418.123</ele>
        <time>2022-12-18T06:20:25Z</time>
      </trkpt>
      <trkpt lat="1.991189" lon="-76.776156">
        <ele>3419.725</ele>
        <time>2022-12-18T06:20:29Z</time>
      </trkpt>
      <trkpt lat="1.991143" lon="-76.776155">
        <ele>3420.709</ele>
        <time>2022-12-18T06:20:32Z</time>
      </trkpt>
      <trkpt lat="1.991095" lon="-76.776141">
        <ele>3421.410</ele>
        <time>2022-12-18T06:20:35Z</time>
      </trkpt>
      <trkpt lat="1.99105" lon="-76.776125">
        <ele>3422.141</ele>
        <time>2022-12-18T06:20:38Z</time>
      </trkpt>
      <trkpt lat="1.991003" lon="-76.776121">
        <ele>3422.130</ele>
        <time>2022-12-18T06:20:40Z</time>
      </trkpt>
      <trkpt lat="1.990958" lon="-76.776124">
        <ele>3422.144</ele>
        <time>2022-12-18T06:20:42Z</time>
      </trkpt>
      <trkpt lat="1.990904" lon="-76.776122">
        <ele>3422.131</ele>
        <time>2022-12-18T06:20:45Z</time>
      </trkpt>
      <trkpt lat="1.990851" lon="-76.776126">
        <ele>3421.799</ele>
        <time>2022-12-18T06:20:48Z</time>
      </trkpt>
      <trkpt lat="1.990805" lon="-76.776131">
        <ele>3421.324</ele>
        <time>2022-12-18T06:20:51Z</time>
      </trkpt>
      <trkpt lat="1.990751" lon="-76.776137">
        <ele>3421.395</ele>
        <time>2022-12-18T06:20:55Z</time>
      </trkpt>
      <trkpt lat="1.990694" lon="-76.776144">
        <ele>3421.682</ele>
        <time>2022-12-18T06:20:59Z</time>
      </trkpt>
      <trkpt lat="1.990647" lon="-76.776155">
        <ele>3421.784</ele>
        <time>2022-12-18T06:21:02Z</time>
      </trkpt>
      <trkpt lat="1.990596" lon="-76.776157">
        <ele>3421.907</ele>
        <time>2022-12-18T06:21:05Z</time>
      </trkpt>
      <trkpt lat="1.990549" lon="-76.776148">
        <ele>3422.417</ele>
        <time>2022-12-18T06:21:08Z</time>
      </trkpt>
      <trkpt lat="1.990496" lon="-76.776134">
        <ele>3423.209</ele>
        <time>2022-12-18T06:21:11Z</time>
      </trkpt>
      <trkpt lat="1.990444" lon="-76.776125">
        <ele>3423.369</ele>
        <time>2022-12-18T06:21:14Z</time>
      </trkpt>
      <trkpt lat="1.990394" lon="-76.776129">
        <ele>3423.760</ele>
        <time>2022-12-18T06:21:17Z</time>
      </trkpt>
      <trkpt lat="1.990342" lon="-76.776127">
        <ele>3423.839</ele>
        <time>2022-12-18T06:21:20Z</time>
      </trkpt>
      <trkpt lat="1.990293" lon="-76.776132">
        <ele>3424.963</ele>
        <time>2022-12-18T06:21:23Z</time>
      </trkpt>
      <trkpt lat="1.990248" lon="-76.776141">
        <ele>3425.340</ele>
        <time>2022-12-18T06:21:26Z</time>
      </trkpt>
      <trkpt lat="1.990191" lon="-76.776136">
        <ele>3426.038</ele>
        <time>2022-12-18T06:21:30Z</time>
      </trkpt>
      <trkpt lat="1.990135" lon="-76.776127">
        <ele>3426.993</ele>
        <time>2022-12-18T06:21:34Z</time>
      </trkpt>
      <trkpt lat="1.990077" lon="-76.776121">
        <ele>3427.854</ele>
        <time>2022-12-18T06:21:38Z</time>
      </trkpt>
      <trkpt lat="1.990031" lon="-76.776108">
        <ele>3429.381</ele>
        <time>2022-12-18T06:21:41Z</time>
      </trkpt>
      <trkpt lat="1.989984" lon="-76.7761">
        <ele>3430.131</ele>
        <time>2022-12-18T06:21:44Z</time>
      </trkpt>
      <trkpt lat="1.989933" lon="-76.776084">
        <ele>3430.461</ele>
        <time>2022-12-18T06:21:47Z</time>
      </trkpt>
      <trkpt lat="1.989885" lon="-76.776067">
        <ele>3430.707</ele>
        <time>2022-12-18T06:21:50Z</time>
      </trkpt>
      <trkpt lat="1.989836" lon="-76.77605">
        <ele>3431.209</ele>
        <time>2022-12-18T06:21:53Z</time>
      </trkpt>
      <trkpt lat="1.989798" lon="-76.776025">
        <ele>3431.764</ele>
        <time>2022-12-18T06:21:56Z</time>
      </trkpt>
      <trkpt lat="1.989751" lon="-76.775988">
        <ele>3433.675</ele>
        <time>2022-12-18T06:22:09Z</time>
      </trkpt>
      <trkpt lat="1.989695" lon="-76.775973">
        <ele>3433.684</ele>
        <time>2022-12-18T06:22:10Z</time>
      </trkpt>
      <trkpt lat="1.989623" lon="-76.775955">
        <ele>3434.218</ele>
        <time>2022-12-18T06:22:12Z</time>
      </trkpt>
      <trkpt lat="1.989557" lon="-76.775941">
        <ele>3434.665</ele>
        <time>2022-12-18T06:22:14Z</time>
      </trkpt>
      <trkpt lat="1.989489" lon="-76.775952">
        <ele>3434.223</ele>
        <time>2022-12-18T06:22:17Z</time>
      </trkpt>
      <trkpt lat="1.989438" lon="-76.775949">
        <ele>3434.128</ele>
        <time>2022-12-18T06:22:19Z</time>
      </trkpt>
      <trkpt lat="1.989391" lon="-76.775951">
        <ele>3434.019</ele>
        <time>2022-12-18T06:22:21Z</time>
      </trkpt>
      <trkpt lat="1.989345" lon="-76.775958">
        <ele>3434.016</ele>
        <time>2022-12-18T06:22:24Z</time>
      </trkpt>
      <trkpt lat="1.989295" lon="-76.775969">
        <ele>3434.159</ele>
        <time>2022-12-18T06:22:27Z</time>
      </trkpt>
      <trkpt lat="1.989247" lon="-76.775986">
        <ele>3434.703</ele>
        <time>2022-12-18T06:22:30Z</time>
      </trkpt>
      <trkpt lat="1.989207" lon="-76.776008">
        <ele>3435.523</ele>
        <time>2022-12-18T06:22:33Z</time>
      </trkpt>
      <trkpt lat="1.989168" lon="-76.776042">
        <ele>3435.709</ele>
        <time>2022-12-18T06:22:36Z</time>
      </trkpt>
      <trkpt lat="1.989132" lon="-76.776077">
        <ele>3437.136</ele>
        <time>2022-12-18T06:22:39Z</time>
      </trkpt>
      <trkpt lat="1.989096" lon="-76.776112">
        <ele>3437.627</ele>
        <time>2022-12-18T06:22:42Z</time>
      </trkpt>
      <trkpt lat="1.989061" lon="-76.776152">
        <ele>3438.056</ele>
        <time>2022-12-18T06:22:45Z</time>
      </trkpt>
      <trkpt lat="1.989028" lon="-76.776193">
        <ele>3438.160</ele>
        <time>2022-12-18T06:22:48Z</time>
      </trkpt>
      <trkpt lat="1.989011" lon="-76.776236">
        <ele>3438.347</ele>
        <time>2022-12-18T06:22:51Z</time>
      </trkpt>
      <trkpt lat="1.989" lon="-76.776282">
        <ele>3438.415</ele>
        <time>2022-12-18T06:22:54Z</time>
      </trkpt>
      <trkpt lat="1.988986" lon="-76.776327">
        <ele>3439.380</ele>
        <time>2022-12-18T06:22:57Z</time>
      </trkpt>
      <trkpt lat="1.988968" lon="-76.776378">
        <ele>3441.621</ele>
        <time>2022-12-18T06:23:01Z</time>
      </trkpt>
      <trkpt lat="1.988947" lon="-76.776422">
        <ele>3442.318</ele>
        <time>2022-12-18T06:23:05Z</time>
      </trkpt>
      <trkpt lat="1.988941" lon="-76.776473">
        <ele>3444.292</ele>
        <time>2022-12-18T06:23:08Z</time>
      </trkpt>
      <trkpt lat="1.98891" lon="-76.77652">
        <ele>3446.073</ele>
        <time>2022-12-18T06:23:13Z</time>
      </trkpt>
      <trkpt lat="1.9889" lon="-76.77657">
        <ele>3446.820</ele>
        <time>2022-12-18T06:23:17Z</time>
      </trkpt>
      <trkpt lat="1.988868" lon="-76.776619">
        <ele>3448.109</ele>
        <time>2022-12-18T06:23:22Z</time>
      </trkpt>
      <trkpt lat="1.988836" lon="-76.776658">
        <ele>3449.250</ele>
        <time>2022-12-18T06:23:26Z</time>
      </trkpt>
      <trkpt lat="1.988809" lon="-76.776694">
        <ele>3449.821</ele>
        <time>2022-12-18T06:23:30Z</time>
      </trkpt>
      <trkpt lat="1.988775" lon="-76.776729">
        <ele>3452.880</ele>
        <time>2022-12-18T06:23:36Z</time>
      </trkpt>
      <trkpt lat="1.98875" lon="-76.776771">
        <ele>3452.544</ele>
        <time>2022-12-18T06:23:40Z</time>
      </trkpt>
      <trkpt lat="1.988731" lon="-76.776825">
        <ele>3452.511</ele>
        <time>2022-12-18T06:23:45Z</time>
      </trkpt>
      <trkpt lat="1.988712" lon="-76.776886">
        <ele>3452.539</ele>
        <time>2022-12-18T06:23:48Z</time>
      </trkpt>
      <trkpt lat="1.988697" lon="-76.776936">
        <ele>3451.534</ele>
        <time>2022-12-18T06:23:50Z</time>
      </trkpt>
      <trkpt lat="1.988675" lon="-76.776982">
        <ele>3450.565</ele>
        <time>2022-12-18T06:23:53Z</time>
      </trkpt>
      <trkpt lat="1.98865" lon="-76.77702">
        <ele>3450.522</ele>
        <time>2022-12-18T06:23:57Z</time>
      </trkpt>
      <trkpt lat="1.988608" lon="-76.777051">
        <ele>3451.969</ele>
        <time>2022-12-18T06:24:03Z</time>
      </trkpt>
      <trkpt lat="1.988577" lon="-76.777089">
        <ele>3452.304</ele>
        <time>2022-12-18T06:24:07Z</time>
      </trkpt>
      <trkpt lat="1.988543" lon="-76.777146">
        <ele>3452.324</ele>
        <time>2022-12-18T06:24:11Z</time>
      </trkpt>
      <trkpt lat="1.988521" lon="-76.777192">
        <ele>3452.709</ele>
        <time>2022-12-18T06:24:13Z</time>
      </trkpt>
      <trkpt lat="1.988483" lon="-76.777228">
        <ele>3452.687</ele>
        <time>2022-12-18T06:24:17Z</time>
      </trkpt>
      <trkpt lat="1.988432" lon="-76.777255">
        <ele>3452.448</ele>
        <time>2022-12-18T06:24:20Z</time>
      </trkpt>
      <trkpt lat="1.988385" lon="-76.777301">
        <ele>3451.977</ele>
        <time>2022-12-18T06:24:23Z</time>
      </trkpt>
      <trkpt lat="1.988348" lon="-76.777338">
        <ele>3452.021</ele>
        <time>2022-12-18T06:24:25Z</time>
      </trkpt>
      <trkpt lat="1.988309" lon="-76.777383">
        <ele>3452.178</ele>
        <time>2022-12-18T06:24:28Z</time>
      </trkpt>
      <trkpt lat="1.988274" lon="-76.77743">
        <ele>3452.276</ele>
        <time>2022-12-18T06:24:31Z</time>
      </trkpt>
      <trkpt lat="1.988245" lon="-76.777478">
        <ele>3452.491</ele>
        <time>2022-12-18T06:24:34Z</time>
      </trkpt>
      <trkpt lat="1.988216" lon="-76.777515">
        <ele>3452.882</ele>
        <time>2022-12-18T06:24:36Z</time>
      </trkpt>
      <trkpt lat="1.988181" lon="-76.777557">
        <ele>3453.459</ele>
        <time>2022-12-18T06:24:39Z</time>
      </trkpt>
      <trkpt lat="1.988149" lon="-76.777598">
        <ele>3454.331</ele>
        <time>2022-12-18T06:24:41Z</time>
      </trkpt>
      <trkpt lat="1.988117" lon="-76.777641">
        <ele>3454.661</ele>
        <time>2022-12-18T06:24:45Z</time>
      </trkpt>
      <trkpt lat="1.988088" lon="-76.777681">
        <ele>3455.007</ele>
        <time>2022-12-18T06:24:49Z</time>
      </trkpt>
      <trkpt lat="1.988056" lon="-76.777716">
        <ele>3455.609</ele>
        <time>2022-12-18T06:24:56Z</time>
      </trkpt>
      <trkpt lat="1.988018" lon="-76.777748">
        <ele>3456.714</ele>
        <time>2022-12-18T06:24:59Z</time>
      </trkpt>
      <trkpt lat="1.987982" lon="-76.777779">
        <ele>3457.425</ele>
        <time>2022-12-18T06:25:01Z</time>
      </trkpt>
      <trkpt lat="1.987941" lon="-76.777815">
        <ele>3457.424</ele>
        <time>2022-12-18T06:25:03Z</time>
      </trkpt>
      <trkpt lat="1.987898" lon="-76.777849">
        <ele>3457.438</ele>
        <time>2022-12-18T06:25:06Z</time>
      </trkpt>
      <trkpt lat="1.987859" lon="-76.777882">
        <ele>3457.155</ele>
        <time>2022-12-18T06:25:07Z</time>
      </trkpt>
      <trkpt lat="1.987822" lon="-76.777909">
        <ele>3457.113</ele>
        <time>2022-12-18T06:25:09Z</time>
      </trkpt>
      <trkpt lat="1.987754" lon="-76.777953">
        <ele>3457.018</ele>
        <time>2022-12-18T06:25:11Z</time>
      </trkpt>
      <trkpt lat="1.987704" lon="-76.77797">
        <ele>3457.029</ele>
        <time>2022-12-18T06:25:12Z</time>
      </trkpt>
      <trkpt lat="1.987637" lon="-76.777991">
        <ele>3457.066</ele>
        <time>2022-12-18T06:25:15Z</time>
      </trkpt>
      <trkpt lat="1.987586" lon="-76.778007">
        <ele>3458.163</ele>
        <time>2022-12-18T06:25:17Z</time>
      </trkpt>
      <trkpt lat="1.987538" lon="-76.778019">
        <ele>3459.444</ele>
        <time>2022-12-18T06:25:19Z</time>
      </trkpt>
      <trkpt lat="1.987489" lon="-76.778024">
        <ele>3460.218</ele>
        <time>2022-12-18T06:25:21Z</time>
      </trkpt>
      <trkpt lat="1.987444" lon="-76.778015">
        <ele>3460.309</ele>
        <time>2022-12-18T06:25:23Z</time>
      </trkpt>
      <trkpt lat="1.987389" lon="-76.777984">
        <ele>3460.387</ele>
        <time>2022-12-18T06:25:26Z</time>
      </trkpt>
      <trkpt lat="1.987322" lon="-76.77798">
        <ele>3460.328</ele>
        <time>2022-12-18T06:25:29Z</time>
      </trkpt>
      <trkpt lat="1.987277" lon="-76.777974">
        <ele>3460.337</ele>
        <time>2022-12-18T06:25:31Z</time>
      </trkpt>
      <trkpt lat="1.987218" lon="-76.777983">
        <ele>3460.391</ele>
        <time>2022-12-18T06:25:34Z</time>
      </trkpt>
      <trkpt lat="1.987159" lon="-76.778001">
        <ele>3460.598</ele>
        <time>2022-12-18T06:25:37Z</time>
      </trkpt>
      <trkpt lat="1.987104" lon="-76.77803">
        <ele>3463.376</ele>
        <time>2022-12-18T06:25:40Z</time>
      </trkpt>
      <trkpt lat="1.987056" lon="-76.778065">
        <ele>3463.641</ele>
        <time>2022-12-18T06:25:43Z</time>
      </trkpt>
      <trkpt lat="1.987012" lon="-76.778092">
        <ele>3464.382</ele>
        <time>2022-12-18T06:25:46Z</time>
      </trkpt>
      <trkpt lat="1.986978" lon="-76.778122">
        <ele>3464.799</ele>
        <time>2022-12-18T06:25:49Z</time>
      </trkpt>
      <trkpt lat="1.986955" lon="-76.778168">
        <ele>3465.347</ele>
        <time>2022-12-18T06:25:52Z</time>
      </trkpt>
      <trkpt lat="1.986927" lon="-76.778212">
        <ele>3465.529</ele>
        <time>2022-12-18T06:25:55Z</time>
      </trkpt>
      <trkpt lat="1.986896" lon="-76.778261">
        <ele>3466.021</ele>
        <time>2022-12-18T06:25:58Z</time>
      </trkpt>
      <trkpt lat="1.986865" lon="-76.778312">
        <ele>3466.209</ele>
        <time>2022-12-18T06:26:01Z</time>
      </trkpt>
      <trkpt lat="1.986841" lon="-76.778357">
        <ele>3466.435</ele>
        <time>2022-12-18T06:26:04Z</time>
      </trkpt>
      <trkpt lat="1.986817" lon="-76.778411">
        <ele>3467.296</ele>
        <time>2022-12-18T06:26:08Z</time>
      </trkpt>
      <trkpt lat="1.986797" lon="-76.778454">
        <ele>3467.525</ele>
        <time>2022-12-18T06:26:11Z</time>
      </trkpt>
      <trkpt lat="1.986763" lon="-76.7785">
        <ele>3468.589</ele>
        <time>2022-12-18T06:26:15Z</time>
      </trkpt>
      <trkpt lat="1.986732" lon="-76.778538">
        <ele>3469.746</ele>
        <time>2022-12-18T06:26:19Z</time>
      </trkpt>
      <trkpt lat="1.986691" lon="-76.778568">
        <ele>3471.584</ele>
        <time>2022-12-18T06:26:23Z</time>
      </trkpt>
      <trkpt lat="1.986647" lon="-76.778596">
        <ele>3473.739</ele>
        <time>2022-12-18T06:26:27Z</time>
      </trkpt>
      <trkpt lat="1.986613" lon="-76.778641">
        <ele>3474.450</ele>
        <time>2022-12-18T06:26:31Z</time>
      </trkpt>
      <trkpt lat="1.986577" lon="-76.778686">
        <ele>3474.697</ele>
        <time>2022-12-18T06:26:35Z</time>
      </trkpt>
      <trkpt lat="1.986548" lon="-76.778725">
        <ele>3476.459</ele>
        <time>2022-12-18T06:26:38Z</time>
      </trkpt>
      <trkpt lat="1.986503" lon="-76.778769">
        <ele>3476.703</ele>
        <time>2022-12-18T06:26:40Z</time>
      </trkpt>
      <trkpt lat="1.986457" lon="-76.778808">
        <ele>3476.823</ele>
        <time>2022-12-18T06:26:41Z</time>
      </trkpt>
      <trkpt lat="1.98642" lon="-76.778837">
        <ele>3477.209</ele>
        <time>2022-12-18T06:26:43Z</time>
      </trkpt>
      <trkpt lat="1.986365" lon="-76.778878">
        <ele>3475.376</ele>
        <time>2022-12-18T06:26:45Z</time>
      </trkpt>
      <trkpt lat="1.986306" lon="-76.778912">
        <ele>3473.297</ele>
        <time>2022-12-18T06:26:47Z</time>
      </trkpt>
      <trkpt lat="1.986246" lon="-76.778933">
        <ele>3472.826</ele>
        <time>2022-12-18T06:26:49Z</time>
      </trkpt>
      <trkpt lat="1.986194" lon="-76.778951">
        <ele>3471.180</ele>
        <time>2022-12-18T06:26:51Z</time>
      </trkpt>
      <trkpt lat="1.986142" lon="-76.778971">
        <ele>3470.897</ele>
        <time>2022-12-18T06:26:53Z</time>
      </trkpt>
      <trkpt lat="1.986085" lon="-76.779006">
        <ele>3470.525</ele>
        <time>2022-12-18T06:26:56Z</time>
      </trkpt>
      <trkpt lat="1.986048" lon="-76.779047">
        <ele>3470.510</ele>
        <time>2022-12-18T06:26:59Z</time>
      </trkpt>
      <trkpt lat="1.986004" lon="-76.779069">
        <ele>3470.441</ele>
        <time>2022-12-18T06:27:03Z</time>
      </trkpt>
      <trkpt lat="1.98599" lon="-76.77912">
        <ele>3473.788</ele>
        <time>2022-12-18T06:27:17Z</time>
      </trkpt>
      <trkpt lat="1.985948" lon="-76.779144">
        <ele>3475.089</ele>
        <time>2022-12-18T06:27:23Z</time>
      </trkpt>
      <trkpt lat="1.985906" lon="-76.779173">
        <ele>3475.406</ele>
        <time>2022-12-18T06:27:25Z</time>
      </trkpt>
      <trkpt lat="1.985867" lon="-76.779199">
        <ele>3475.726</ele>
        <time>2022-12-18T06:27:28Z</time>
      </trkpt>
      <trkpt lat="1.985824" lon="-76.779223">
        <ele>3476.409</ele>
        <time>2022-12-18T06:27:31Z</time>
      </trkpt>
      <trkpt lat="1.985787" lon="-76.779255">
        <ele>3477.149</ele>
        <time>2022-12-18T06:27:34Z</time>
      </trkpt>
      <trkpt lat="1.985754" lon="-76.779288">
        <ele>3477.480</ele>
        <time>2022-12-18T06:27:38Z</time>
      </trkpt>
      <trkpt lat="1.985725" lon="-76.779326">
        <ele>3477.699</ele>
        <time>2022-12-18T06:27:41Z</time>
      </trkpt>
      <trkpt lat="1.985681" lon="-76.779361">
        <ele>3478.073</ele>
        <time>2022-12-18T06:27:44Z</time>
      </trkpt>
      <trkpt lat="1.985657" lon="-76.779412">
        <ele>3479.280</ele>
        <time>2022-12-18T06:27:49Z</time>
      </trkpt>
      <trkpt lat="1.985621" lon="-76.779446">
        <ele>3479.768</ele>
        <time>2022-12-18T06:27:53Z</time>
      </trkpt>
      <trkpt lat="1.985584" lon="-76.77948">
        <ele>3481.223</ele>
        <time>2022-12-18T06:27:57Z</time>
      </trkpt>
      <trkpt lat="1.985544" lon="-76.779515">
        <ele>3483.424</ele>
        <time>2022-12-18T06:28:02Z</time>
      </trkpt>
      <trkpt lat="1.985504" lon="-76.779547">
        <ele>3484.361</ele>
        <time>2022-12-18T06:28:06Z</time>
      </trkpt>
      <trkpt lat="1.98547" lon="-76.779583">
        <ele>3485.631</ele>
        <time>2022-12-18T06:28:09Z</time>
      </trkpt>
      <trkpt lat="1.98544" lon="-76.779618">
        <ele>3486.461</ele>
        <time>2022-12-18T06:28:12Z</time>
      </trkpt>
      <trkpt lat="1.985414" lon="-76.779658">
        <ele>3487.207</ele>
        <time>2022-12-18T06:28:15Z</time>
      </trkpt>
      <trkpt lat="1.985385" lon="-76.779706">
        <ele>3487.409</ele>
        <time>2022-12-18T06:28:18Z</time>
      </trkpt>
      <trkpt lat="1.985356" lon="-76.779749">
        <ele>3487.744</ele>
        <time>2022-12-18T06:28:21Z</time>
      </trkpt>
      <trkpt lat="1.985325" lon="-76.779791">
        <ele>3487.985</ele>
        <time>2022-12-18T06:28:24Z</time>
      </trkpt>
      <trkpt lat="1.985293" lon="-76.779831">
        <ele>3488.114</ele>
        <time>2022-12-18T06:28:27Z</time>
      </trkpt>
      <trkpt lat="1.985253" lon="-76.779873">
        <ele>3488.578</ele>
        <time>2022-12-18T06:28:31Z</time>
      </trkpt>
      <trkpt lat="1.985223" lon="-76.779907">
        <ele>3489.175</ele>
        <time>2022-12-18T06:28:34Z</time>
      </trkpt>
      <trkpt lat="1.985196" lon="-76.779956">
        <ele>3489.443</ele>
        <time>2022-12-18T06:28:38Z</time>
      </trkpt>
      <trkpt lat="1.985166" lon="-76.779992">
        <ele>3489.998</ele>
        <time>2022-12-18T06:28:41Z</time>
      </trkpt>
      <trkpt lat="1.985133" lon="-76.780041">
        <ele>3490.269</ele>
        <time>2022-12-18T06:28:45Z</time>
      </trkpt>
      <trkpt lat="1.985104" lon="-76.780076">
        <ele>3490.456</ele>
        <time>2022-12-18T06:28:48Z</time>
      </trkpt>
      <trkpt lat="1.985069" lon="-76.780118">
        <ele>3490.943</ele>
        <time>2022-12-18T06:28:52Z</time>
      </trkpt>
      <trkpt lat="1.985032" lon="-76.780155">
        <ele>3493.864</ele>
        <time>2022-12-18T06:28:56Z</time>
      </trkpt>
      <trkpt lat="1.984989" lon="-76.780176">
        <ele>3495.110</ele>
        <time>2022-12-18T06:29:00Z</time>
      </trkpt>
      <trkpt lat="1.984962" lon="-76.780215">
        <ele>3495.709</ele>
        <time>2022-12-18T06:29:03Z</time>
      </trkpt>
      <trkpt lat="1.984926" lon="-76.780256">
        <ele>3497.375</ele>
        <time>2022-12-18T06:29:07Z</time>
      </trkpt>
      <trkpt lat="1.984891" lon="-76.780301">
        <ele>3497.876</ele>
        <time>2022-12-18T06:29:12Z</time>
      </trkpt>
      <trkpt lat="1.984857" lon="-76.780331">
        <ele>3499.375</ele>
        <time>2022-12-18T06:29:14Z</time>
      </trkpt>
      <trkpt lat="1.984823" lon="-76.780364">
        <ele>3500.759</ele>
        <time>2022-12-18T06:29:17Z</time>
      </trkpt>
      <trkpt lat="1.984785" lon="-76.780408">
        <ele>3500.716</ele>
        <time>2022-12-18T06:29:20Z</time>
      </trkpt>
      <trkpt lat="1.984749" lon="-76.780451">
        <ele>3500.884</ele>
        <time>2022-12-18T06:29:23Z</time>
      </trkpt>
      <trkpt lat="1.984712" lon="-76.780484">
        <ele>3501.019</ele>
        <time>2022-12-18T06:29:26Z</time>
      </trkpt>
      <trkpt lat="1.984681" lon="-76.780524">
        <ele>3500.650</ele>
        <time>2022-12-18T06:29:29Z</time>
      </trkpt>
      <trkpt lat="1.984641" lon="-76.780553">
        <ele>3500.467</ele>
        <time>2022-12-18T06:29:32Z</time>
      </trkpt>
      <trkpt lat="1.9846" lon="-76.780585">
        <ele>3500.149</ele>
        <time>2022-12-18T06:29:35Z</time>
      </trkpt>
      <trkpt lat="1.984551" lon="-76.780611">
        <ele>3499.502</ele>
        <time>2022-12-18T06:29:38Z</time>
      </trkpt>
      <trkpt lat="1.984502" lon="-76.780624">
        <ele>3499.522</ele>
        <time>2022-12-18T06:29:41Z</time>
      </trkpt>
      <trkpt lat="1.984454" lon="-76.780635">
        <ele>3499.209</ele>
        <time>2022-12-18T06:29:43Z</time>
      </trkpt>
      <trkpt lat="1.984398" lon="-76.780645">
        <ele>3499.245</ele>
        <time>2022-12-18T06:29:45Z</time>
      </trkpt>
      <trkpt lat="1.984352" lon="-76.780662">
        <ele>3499.246</ele>
        <time>2022-12-18T06:29:47Z</time>
      </trkpt>
      <trkpt lat="1.984307" lon="-76.780672">
        <ele>3498.655</ele>
        <time>2022-12-18T06:29:50Z</time>
      </trkpt>
      <trkpt lat="1.984257" lon="-76.780664">
        <ele>3499.079</ele>
        <time>2022-12-18T06:29:54Z</time>
      </trkpt>
      <trkpt lat="1.984208" lon="-76.780645">
        <ele>3499.016</ele>
        <time>2022-12-18T06:29:58Z</time>
      </trkpt>
      <trkpt lat="1.984156" lon="-76.780639">
        <ele>3499.334</ele>
        <time>2022-12-18T06:30:02Z</time>
      </trkpt>
      <trkpt lat="1.984104" lon="-76.780637">
        <ele>3500.239</ele>
        <time>2022-12-18T06:30:05Z</time>
      </trkpt>
      <trkpt lat="1.984024" lon="-76.780641">
        <ele>3501.270</ele>
        <time>2022-12-18T06:30:07Z</time>
      </trkpt>
      <trkpt lat="1.983963" lon="-76.780655">
        <ele>3501.817</ele>
        <time>2022-12-18T06:30:09Z</time>
      </trkpt>
      <trkpt lat="1.983913" lon="-76.780676">
        <ele>3501.815</ele>
        <time>2022-12-18T06:30:11Z</time>
      </trkpt>
      <trkpt lat="1.983863" lon="-76.780702">
        <ele>3499.965</ele>
        <time>2022-12-18T06:30:13Z</time>
      </trkpt>
      <trkpt lat="1.983821" lon="-76.780736">
        <ele>3498.211</ele>
        <time>2022-12-18T06:30:15Z</time>
      </trkpt>
      <trkpt lat="1.983785" lon="-76.780772">
        <ele>3496.509</ele>
        <time>2022-12-18T06:30:17Z</time>
      </trkpt>
      <trkpt lat="1.98374" lon="-76.780805">
        <ele>3495.312</ele>
        <time>2022-12-18T06:30:19Z</time>
      </trkpt>
      <trkpt lat="1.983697" lon="-76.780844">
        <ele>3492.913</ele>
        <time>2022-12-18T06:30:22Z</time>
      </trkpt>
      <trkpt lat="1.983663" lon="-76.780889">
        <ele>3492.252</ele>
        <time>2022-12-18T06:30:27Z</time>
      </trkpt>
      <trkpt lat="1.983636" lon="-76.780935">
        <ele>3492.546</ele>
        <time>2022-12-18T06:30:31Z</time>
      </trkpt>
      <trkpt lat="1.983605" lon="-76.780986">
        <ele>3494.363</ele>
        <time>2022-12-18T06:30:36Z</time>
      </trkpt>
      <trkpt lat="1.983569" lon="-76.781023">
        <ele>3496.641</ele>
        <time>2022-12-18T06:30:40Z</time>
      </trkpt>
      <trkpt lat="1.983534" lon="-76.781057">
        <ele>3498.086</ele>
        <time>2022-12-18T06:30:43Z</time>
      </trkpt>
      <trkpt lat="1.983491" lon="-76.781099">
        <ele>3500.017</ele>
        <time>2022-12-18T06:30:47Z</time>
      </trkpt>
      <trkpt lat="1.983452" lon="-76.781136">
        <ele>3500.154</ele>
        <time>2022-12-18T06:30:49Z</time>
      </trkpt>
      <trkpt lat="1.983422" lon="-76.781173">
        <ele>3500.529</ele>
        <time>2022-12-18T06:30:51Z</time>
      </trkpt>
      <trkpt lat="1.983388" lon="-76.781233">
        <ele>3500.300</ele>
        <time>2022-12-18T06:30:54Z</time>
      </trkpt>
      <trkpt lat="1.98338" lon="-76.781282">
        <ele>3500.120</ele>
        <time>2022-12-18T06:30:56Z</time>
      </trkpt>
      <trkpt lat="1.983378" lon="-76.781327">
        <ele>3499.609</ele>
        <time>2022-12-18T06:30:59Z</time>
      </trkpt>
      <trkpt lat="1.983365" lon="-76.781378">
        <ele>3499.723</ele>
        <time>2022-12-18T06:31:03Z</time>
      </trkpt>
      <trkpt lat="1.983344" lon="-76.781424">
        <ele>3500.564</ele>
        <time>2022-12-18T06:31:08Z</time>
      </trkpt>
      <trkpt lat="1.983319" lon="-76.781465">
        <ele>3503.443</ele>
        <time>2022-12-18T06:31:12Z</time>
      </trkpt>
      <trkpt lat="1.983295" lon="-76.781507">
        <ele>3504.487</ele>
        <time>2022-12-18T06:31:17Z</time>
      </trkpt>
      <trkpt lat="1.983252" lon="-76.781529">
        <ele>3507.854</ele>
        <time>2022-12-18T06:31:25Z</time>
      </trkpt>
      <trkpt lat="1.983216" lon="-76.781576">
        <ele>3511.412</ele>
        <time>2022-12-18T06:31:30Z</time>
      </trkpt>
      <trkpt lat="1.983179" lon="-76.781617">
        <ele>3513.667</ele>
        <time>2022-12-18T06:31:33Z</time>
      </trkpt>
      <trkpt lat="1.983143" lon="-76.781656">
        <ele>3514.388</ele>
        <time>2022-12-18T06:31:36Z</time>
      </trkpt>
      <trkpt lat="1.983111" lon="-76.781698">
        <ele>3516.845</ele>
        <time>2022-12-18T06:31:39Z</time>
      </trkpt>
      <trkpt lat="1.983067" lon="-76.781733">
        <ele>3517.668</ele>
        <time>2022-12-18T06:31:43Z</time>
      </trkpt>
      <trkpt lat="1.983028" lon="-76.781759">
        <ele>3518.042</ele>
        <time>2022-12-18T06:31:46Z</time>
      </trkpt>
      <trkpt lat="1.982986" lon="-76.781787">
        <ele>3518.226</ele>
        <time>2022-12-18T06:31:49Z</time>
      </trkpt>
      <trkpt lat="1.982938" lon="-76.781801">
        <ele>3518.309</ele>
        <time>2022-12-18T06:31:52Z</time>
      </trkpt>
      <trkpt lat="1.982895" lon="-76.781819">
        <ele>3518.677</ele>
        <time>2022-12-18T06:31:55Z</time>
      </trkpt>
      <trkpt lat="1.98284" lon="-76.781843">
        <ele>3520.168</ele>
        <time>2022-12-18T06:31:59Z</time>
      </trkpt>
      <trkpt lat="1.982796" lon="-76.781863">
        <ele>3521.557</ele>
        <time>2022-12-18T06:32:02Z</time>
      </trkpt>
      <trkpt lat="1.982755" lon="-76.781901">
        <ele>3522.391</ele>
        <time>2022-12-18T06:32:06Z</time>
      </trkpt>
      <trkpt lat="1.982721" lon="-76.781935">
        <ele>3522.918</ele>
        <time>2022-12-18T06:32:09Z</time>
      </trkpt>
      <trkpt lat="1.982692" lon="-76.781972">
        <ele>3523.616</ele>
        <time>2022-12-18T06:32:12Z</time>
      </trkpt>
      <trkpt lat="1.982669" lon="-76.782015">
        <ele>3523.961</ele>
        <time>2022-12-18T06:32:15Z</time>
      </trkpt>
      <trkpt lat="1.982645" lon="-76.782063">
        <ele>3524.292</ele>
        <time>2022-12-18T06:32:18Z</time>
      </trkpt>
      <trkpt lat="1.982575" lon="-76.782151">
        <ele>3524.339</ele>
        <time>2022-12-18T06:32:36Z</time>
      </trkpt>
      <trkpt lat="1.982489" lon="-76.782264">
        <ele>3524.881</ele>
        <time>2022-12-18T06:32:38Z</time>
      </trkpt>
      <trkpt lat="1.982443" lon="-76.782321">
        <ele>3527.461</ele>
        <time>2022-12-18T06:32:40Z</time>
      </trkpt>
      <trkpt lat="1.982401" lon="-76.78236">
        <ele>3527.217</ele>
        <time>2022-12-18T06:32:44Z</time>
      </trkpt>
      <trkpt lat="1.982326" lon="-76.782426">
        <ele>3526.809</ele>
        <time>2022-12-18T06:32:46Z</time>
      </trkpt>
      <trkpt lat="1.982285" lon="-76.782462">
        <ele>3525.639</ele>
        <time>2022-12-18T06:32:47Z</time>
      </trkpt>
      <trkpt lat="1.98223" lon="-76.782504">
        <ele>3523.240</ele>
        <time>2022-12-18T06:32:48Z</time>
      </trkpt>
      <trkpt lat="1.982181" lon="-76.782543">
        <ele>3523.019</ele>
        <time>2022-12-18T06:32:50Z</time>
      </trkpt>
      <trkpt lat="1.982124" lon="-76.782586">
        <ele>3522.623</ele>
        <time>2022-12-18T06:32:52Z</time>
      </trkpt>
      <trkpt lat="1.982079" lon="-76.782618">
        <ele>3522.210</ele>
        <time>2022-12-18T06:32:54Z</time>
      </trkpt>
      <trkpt lat="1.982035" lon="-76.782635">
        <ele>3522.228</ele>
        <time>2022-12-18T06:32:56Z</time>
      </trkpt>
      <trkpt lat="1.98199" lon="-76.782644">
        <ele>3525.943</ele>
        <time>2022-12-18T06:33:06Z</time>
      </trkpt>
      <trkpt lat="1.981949" lon="-76.782667">
        <ele>3526.724</ele>
        <time>2022-12-18T06:33:13Z</time>
      </trkpt>
      <trkpt lat="1.981903" lon="-76.78269">
        <ele>3528.011</ele>
        <time>2022-12-18T06:33:19Z</time>
      </trkpt>
      <trkpt lat="1.981862" lon="-76.78272">
        <ele>3528.377</ele>
        <time>2022-12-18T06:33:24Z</time>
      </trkpt>
      <trkpt lat="1.981822" lon="-76.782751">
        <ele>3529.961</ele>
        <time>2022-12-18T06:33:28Z</time>
      </trkpt>
      <trkpt lat="1.981781" lon="-76.782778">
        <ele>3530.027</ele>
        <time>2022-12-18T06:33:31Z</time>
      </trkpt>
      <trkpt lat="1.981738" lon="-76.78281">
        <ele>3533.009</ele>
        <time>2022-12-18T06:33:35Z</time>
      </trkpt>
      <trkpt lat="1.981699" lon="-76.782836">
        <ele>3536.668</ele>
        <time>2022-12-18T06:33:38Z</time>
      </trkpt>
      <trkpt lat="1.981663" lon="-76.782866">
        <ele>3539.299</ele>
        <time>2022-12-18T06:33:41Z</time>
      </trkpt>
      <trkpt lat="1.981599" lon="-76.782904">
        <ele>3539.778</ele>
        <time>2022-12-18T06:33:43Z</time>
      </trkpt>
      <trkpt lat="1.981552" lon="-76.782935">
        <ele>3540.342</ele>
        <time>2022-12-18T06:33:44Z</time>
      </trkpt>
      <trkpt lat="1.981514" lon="-76.782965">
        <ele>3540.489</ele>
        <time>2022-12-18T06:33:46Z</time>
      </trkpt>
      <trkpt lat="1.981462" lon="-76.783016">
        <ele>3532.847</ele>
        <time>2022-12-18T06:33:48Z</time>
      </trkpt>
      <trkpt lat="1.981424" lon="-76.783062">
        <ele>3531.222</ele>
        <time>2022-12-18T06:33:50Z</time>
      </trkpt>
      <trkpt lat="1.981385" lon="-76.783103">
        <ele>3530.493</ele>
        <time>2022-12-18T06:33:52Z</time>
      </trkpt>
      <trkpt lat="1.981345" lon="-76.78314">
        <ele>3528.550</ele>
        <time>2022-12-18T06:33:54Z</time>
      </trkpt>
      <trkpt lat="1.981304" lon="-76.783161">
        <ele>3527.657</ele>
        <time>2022-12-18T06:33:56Z</time>
      </trkpt>
      <trkpt lat="1.981263" lon="-76.783196">
        <ele>3527.500</ele>
        <time>2022-12-18T06:34:00Z</time>
      </trkpt>
      <trkpt lat="1.981236" lon="-76.78324">
        <ele>3529.220</ele>
        <time>2022-12-18T06:34:05Z</time>
      </trkpt>
      <trkpt lat="1.981209" lon="-76.783289">
        <ele>3530.709</ele>
        <time>2022-12-18T06:34:10Z</time>
      </trkpt>
      <trkpt lat="1.981189" lon="-76.783332">
        <ele>3532.326</ele>
        <time>2022-12-18T06:34:14Z</time>
      </trkpt>
      <trkpt lat="1.981154" lon="-76.783368">
        <ele>3533.417</ele>
        <time>2022-12-18T06:34:21Z</time>
      </trkpt>
      <trkpt lat="1.981123" lon="-76.783401">
        <ele>3534.376</ele>
        <time>2022-12-18T06:34:26Z</time>
      </trkpt>
      <trkpt lat="1.981087" lon="-76.783434">
        <ele>3535.420</ele>
        <time>2022-12-18T06:34:28Z</time>
      </trkpt>
      <trkpt lat="1.981059" lon="-76.783471">
        <ele>3536.647</ele>
        <time>2022-12-18T06:34:31Z</time>
      </trkpt>
      <trkpt lat="1.981023" lon="-76.783508">
        <ele>3537.015</ele>
        <time>2022-12-18T06:34:35Z</time>
      </trkpt>
      <trkpt lat="1.980984" lon="-76.783535">
        <ele>3537.620</ele>
        <time>2022-12-18T06:34:38Z</time>
      </trkpt>
      <trkpt lat="1.980943" lon="-76.783563">
        <ele>3539.061</ele>
        <time>2022-12-18T06:34:41Z</time>
      </trkpt>
      <trkpt lat="1.980904" lon="-76.7836">
        <ele>3539.898</ele>
        <time>2022-12-18T06:34:45Z</time>
      </trkpt>
      <trkpt lat="1.980865" lon="-76.783631">
        <ele>3540.012</ele>
        <time>2022-12-18T06:34:49Z</time>
      </trkpt>
      <trkpt lat="1.980826" lon="-76.783663">
        <ele>3544.032</ele>
        <time>2022-12-18T06:34:55Z</time>
      </trkpt>
      <trkpt lat="1.98079" lon="-76.783693">
        <ele>3545.905</ele>
        <time>2022-12-18T06:34:57Z</time>
      </trkpt>
      <trkpt lat="1.980745" lon="-76.783713">
        <ele>3547.709</ele>
        <time>2022-12-18T06:35:00Z</time>
      </trkpt>
      <trkpt lat="1.980697" lon="-76.783732">
        <ele>3548.452</ele>
        <time>2022-12-18T06:35:04Z</time>
      </trkpt>
      <trkpt lat="1.980658" lon="-76.783759">
        <ele>3549.043</ele>
        <time>2022-12-18T06:35:07Z</time>
      </trkpt>
      <trkpt lat="1.980622" lon="-76.783788">
        <ele>3549.082</ele>
        <time>2022-12-18T06:35:10Z</time>
      </trkpt>
      <trkpt lat="1.98058" lon="-76.783824">
        <ele>3549.496</ele>
        <time>2022-12-18T06:35:13Z</time>
      </trkpt>
      <trkpt lat="1.980543" lon="-76.783852">
        <ele>3549.473</ele>
        <time>2022-12-18T06:35:17Z</time>
      </trkpt>
      <trkpt lat="1.980512" lon="-76.783889">
        <ele>3549.711</ele>
        <time>2022-12-18T06:35:20Z</time>
      </trkpt>
      <trkpt lat="1.980469" lon="-76.783919">
        <ele>3551.896</ele>
        <time>2022-12-18T06:35:23Z</time>
      </trkpt>
      <trkpt lat="1.980426" lon="-76.783956">
        <ele>3552.197</ele>
        <time>2022-12-18T06:35:26Z</time>
      </trkpt>
      <trkpt lat="1.980379" lon="-76.784001">
        <ele>3552.494</ele>
        <time>2022-12-18T06:35:29Z</time>
      </trkpt>
      <trkpt lat="1.98035" lon="-76.78404">
        <ele>3553.551</ele>
        <time>2022-12-18T06:35:32Z</time>
      </trkpt>
      <trkpt lat="1.980309" lon="-76.784076">
        <ele>3554.501</ele>
        <time>2022-12-18T06:35:36Z</time>
      </trkpt>
      <trkpt lat="1.980272" lon="-76.784103">
        <ele>3554.611</ele>
        <time>2022-12-18T06:35:39Z</time>
      </trkpt>
      <trkpt lat="1.980229" lon="-76.784129">
        <ele>3555.209</ele>
        <time>2022-12-18T06:35:43Z</time>
      </trkpt>
      <trkpt lat="1.980185" lon="-76.784165">
        <ele>3555.576</ele>
        <time>2022-12-18T06:35:47Z</time>
      </trkpt>
      <trkpt lat="1.980131" lon="-76.784192">
        <ele>3555.677</ele>
        <time>2022-12-18T06:35:50Z</time>
      </trkpt>
      <trkpt lat="1.980081" lon="-76.784206">
        <ele>3557.446</ele>
        <time>2022-12-18T06:35:53Z</time>
      </trkpt>
      <trkpt lat="1.980022" lon="-76.784219">
        <ele>3558.260</ele>
        <time>2022-12-18T06:35:56Z</time>
      </trkpt>
      <trkpt lat="1.979966" lon="-76.784223">
        <ele>3558.997</ele>
        <time>2022-12-18T06:36:00Z</time>
      </trkpt>
      <trkpt lat="1.979922" lon="-76.784214">
        <ele>3559.845</ele>
        <time>2022-12-18T06:36:05Z</time>
      </trkpt>
      <trkpt lat="1.979871" lon="-76.784203">
        <ele>3563.460</ele>
        <time>2022-12-18T06:36:10Z</time>
      </trkpt>
      <trkpt lat="1.97982" lon="-76.784195">
        <ele>3564.531</ele>
        <time>2022-12-18T06:36:15Z</time>
      </trkpt>
      <trkpt lat="1.979768" lon="-76.784186">
        <ele>3566.268</ele>
        <time>2022-12-18T06:36:18Z</time>
      </trkpt>
      <trkpt lat="1.979708" lon="-76.784179">
        <ele>3567.584</ele>
        <time>2022-12-18T06:36:22Z</time>
      </trkpt>
      <trkpt lat="1.979661" lon="-76.784175">
        <ele>3570.507</ele>
        <time>2022-12-18T06:36:24Z</time>
      </trkpt>
      <trkpt lat="1.979616" lon="-76.784178">
        <ele>3570.817</ele>
        <time>2022-12-18T06:36:26Z</time>
      </trkpt>
      <trkpt lat="1.979558" lon="-76.784174">
        <ele>3571.009</ele>
        <time>2022-12-18T06:36:31Z</time>
      </trkpt>
      <trkpt lat="1.979504" lon="-76.784168">
        <ele>3571.259</ele>
        <time>2022-12-18T06:36:33Z</time>
      </trkpt>
      <trkpt lat="1.979454" lon="-76.784161">
        <ele>3571.370</ele>
        <time>2022-12-18T06:36:36Z</time>
      </trkpt>
      <trkpt lat="1.9794" lon="-76.784146">
        <ele>3572.079</ele>
        <time>2022-12-18T06:36:39Z</time>
      </trkpt>
      <trkpt lat="1.979352" lon="-76.784132">
        <ele>3572.793</ele>
        <time>2022-12-18T06:36:42Z</time>
      </trkpt>
      <trkpt lat="1.979301" lon="-76.784124">
        <ele>3573.730</ele>
        <time>2022-12-18T06:36:45Z</time>
      </trkpt>
      <trkpt lat="1.979248" lon="-76.784107">
        <ele>3574.188</ele>
        <time>2022-12-18T06:36:48Z</time>
      </trkpt>
      <trkpt lat="1.979197" lon="-76.784083">
        <ele>3574.963</ele>
        <time>2022-12-18T06:36:51Z</time>
      </trkpt>
      <trkpt lat="1.979149" lon="-76.78406">
        <ele>3575.634</ele>
        <time>2022-12-18T06:36:54Z</time>
      </trkpt>
      <trkpt lat="1.979101" lon="-76.784047">
        <ele>3575.731</ele>
        <time>2022-12-18T06:36:57Z</time>
      </trkpt>
      <trkpt lat="1.979051" lon="-76.784023">
        <ele>3575.717</ele>
        <time>2022-12-18T06:37:00Z</time>
      </trkpt>
      <trkpt lat="1.979003" lon="-76.783999">
        <ele>3576.087</ele>
        <time>2022-12-18T06:37:03Z</time>
      </trkpt>
      <trkpt lat="1.978968" lon="-76.78397">
        <ele>3575.915</ele>
        <time>2022-12-18T06:37:06Z</time>
      </trkpt>
      <trkpt lat="1.978948" lon="-76.783925">
        <ele>3576.209</ele>
        <time>2022-12-18T06:37:11Z</time>
      </trkpt>
      <trkpt lat="1.978898" lon="-76.7839">
        <ele>3579.592</ele>
        <time>2022-12-18T06:37:16Z</time>
      </trkpt>
      <trkpt lat="1.978847" lon="-76.783894">
        <ele>3582.513</ele>
        <time>2022-12-18T06:37:18Z</time>
      </trkpt>
      <trkpt lat="1.978804" lon="-76.783872">
        <ele>3582.372</ele>
        <time>2022-12-18T06:37:21Z</time>
      </trkpt>
      <trkpt lat="1.978757" lon="-76.783849">
        <ele>3582.316</ele>
        <time>2022-12-18T06:37:24Z</time>
      </trkpt>
      <trkpt lat="1.978706" lon="-76.783835">
        <ele>3583.013</ele>
        <time>2022-12-18T06:37:27Z</time>
      </trkpt>
      <trkpt lat="1.97865" lon="-76.78383">
        <ele>3582.131</ele>
        <time>2022-12-18T06:37:30Z</time>
      </trkpt>
      <trkpt lat="1.978604" lon="-76.783827">
        <ele>3581.786</ele>
        <time>2022-12-18T06:37:33Z</time>
      </trkpt>
      <trkpt lat="1.978553" lon="-76.783824">
        <ele>3581.097</ele>
        <time>2022-12-18T06:37:36Z</time>
      </trkpt>
      <trkpt lat="1.978499" lon="-76.783839">
        <ele>3576.334</ele>
        <time>2022-12-18T06:37:39Z</time>
      </trkpt>
      <trkpt lat="1.978444" lon="-76.783862">
        <ele>3576.388</ele>
        <time>2022-12-18T06:37:42Z</time>
      </trkpt>
      <trkpt lat="1.978387" lon="-76.783884">
        <ele>3576.124</ele>
        <time>2022-12-18T06:37:45Z</time>
      </trkpt>
      <trkpt lat="1.978328" lon="-76.783911">
        <ele>3576.326</ele>
        <time>2022-12-18T06:37:48Z</time>
      </trkpt>
      <trkpt lat="1.978268" lon="-76.783933">
        <ele>3576.309</ele>
        <time>2022-12-18T06:37:51Z</time>
      </trkpt>
      <trkpt lat="1.97821" lon="-76.783958">
        <ele>3575.189</ele>
        <time>2022-12-18T06:37:54Z</time>
      </trkpt>
      <trkpt lat="1.978156" lon="-76.783976">
        <ele>3575.020</ele>
        <time>2022-12-18T06:37:57Z</time>
      </trkpt>
      <trkpt lat="1.978099" lon="-76.783986">
        <ele>3575.339</ele>
        <time>2022-12-18T06:38:00Z</time>
      </trkpt>
      <trkpt lat="1.978045" lon="-76.783995">
        <ele>3576.483</ele>
        <time>2022-12-18T06:38:03Z</time>
      </trkpt>
      <trkpt lat="1.977972" lon="-76.783985">
        <ele>3577.350</ele>
        <time>2022-12-18T06:38:06Z</time>
      </trkpt>
      <trkpt lat="1.977912" lon="-76.783976">
        <ele>3578.568</ele>
        <time>2022-12-18T06:38:08Z</time>
      </trkpt>
      <trkpt lat="1.977862" lon="-76.783976">
        <ele>3578.573</ele>
        <time>2022-12-18T06:38:09Z</time>
      </trkpt>
      <trkpt lat="1.977793" lon="-76.783975">
        <ele>3578.564</ele>
        <time>2022-12-18T06:38:11Z</time>
      </trkpt>
      <trkpt lat="1.977724" lon="-76.783979">
        <ele>3578.071</ele>
        <time>2022-12-18T06:38:13Z</time>
      </trkpt>
      <trkpt lat="1.977668" lon="-76.783989">
        <ele>3577.836</ele>
        <time>2022-12-18T06:38:15Z</time>
      </trkpt>
      <trkpt lat="1.977618" lon="-76.783995">
        <ele>3578.017</ele>
        <time>2022-12-18T06:38:17Z</time>
      </trkpt>
      <trkpt lat="1.977573" lon="-76.784003">
        <ele>3578.318</ele>
        <time>2022-12-18T06:38:19Z</time>
      </trkpt>
      <trkpt lat="1.977515" lon="-76.783999">
        <ele>3578.609</ele>
        <time>2022-12-18T06:38:22Z</time>
      </trkpt>
      <trkpt lat="1.977464" lon="-76.784005">
        <ele>3578.624</ele>
        <time>2022-12-18T06:38:25Z</time>
      </trkpt>
      <trkpt lat="1.977407" lon="-76.78401">
        <ele>3578.685</ele>
        <time>2022-12-18T06:38:28Z</time>
      </trkpt>
      <trkpt lat="1.977348" lon="-76.784012">
        <ele>3578.854</ele>
        <time>2022-12-18T06:38:31Z</time>
      </trkpt>
      <trkpt lat="1.9773" lon="-76.784001">
        <ele>3579.098</ele>
        <time>2022-12-18T06:38:34Z</time>
      </trkpt>
      <trkpt lat="1.977245" lon="-76.78399">
        <ele>3579.575</ele>
        <time>2022-12-18T06:38:37Z</time>
      </trkpt>
      <trkpt lat="1.977191" lon="-76.783981">
        <ele>3582.333</ele>
        <time>2022-12-18T06:38:40Z</time>
      </trkpt>
      <trkpt lat="1.977138" lon="-76.783973">
        <ele>3582.478</ele>
        <time>2022-12-18T06:38:43Z</time>
      </trkpt>
      <trkpt lat="1.977085" lon="-76.783958">
        <ele>3582.549</ele>
        <time>2022-12-18T06:38:46Z</time>
      </trkpt>
      <trkpt lat="1.977035" lon="-76.783955">
        <ele>3582.436</ele>
        <time>2022-12-18T06:38:49Z</time>
      </trkpt>
      <trkpt lat="1.976983" lon="-76.783972">
        <ele>3582.347</ele>
        <time>2022-12-18T06:38:52Z</time>
      </trkpt>
      <trkpt lat="1.97693" lon="-76.783991">
        <ele>3580.729</ele>
        <time>2022-12-18T06:38:55Z</time>
      </trkpt>
      <trkpt lat="1.976879" lon="-76.784009">
        <ele>3580.421</ele>
        <time>2022-12-18T06:38:58Z</time>
      </trkpt>
      <trkpt lat="1.976829" lon="-76.784018">
        <ele>3580.409</ele>
        <time>2022-12-18T06:39:01Z</time>
      </trkpt>
      <trkpt lat="1.976775" lon="-76.784024">
        <ele>3580.435</ele>
        <time>2022-12-18T06:39:04Z</time>
      </trkpt>
      <trkpt lat="1.976729" lon="-76.78402">
        <ele>3580.596</ele>
        <time>2022-12-18T06:39:07Z</time>
      </trkpt>
      <trkpt lat="1.976682" lon="-76.784009">
        <ele>3580.995</ele>
        <time>2022-12-18T06:39:10Z</time>
      </trkpt>
      <trkpt lat="1.976636" lon="-76.784">
        <ele>3581.869</ele>
        <time>2022-12-18T06:39:13Z</time>
      </trkpt>
      <trkpt lat="1.976584" lon="-76.783994">
        <ele>3582.586</ele>
        <time>2022-12-18T06:39:16Z</time>
      </trkpt>
      <trkpt lat="1.976531" lon="-76.783993">
        <ele>3582.784</ele>
        <time>2022-12-18T06:39:19Z</time>
      </trkpt>
      <trkpt lat="1.976481" lon="-76.783989">
        <ele>3582.989</ele>
        <time>2022-12-18T06:39:22Z</time>
      </trkpt>
      <trkpt lat="1.976435" lon="-76.783988">
        <ele>3583.180</ele>
        <time>2022-12-18T06:39:24Z</time>
      </trkpt>
      <trkpt lat="1.976389" lon="-76.783986">
        <ele>3583.767</ele>
        <time>2022-12-18T06:39:26Z</time>
      </trkpt>
      <trkpt lat="1.976331" lon="-76.78398">
        <ele>3583.789</ele>
        <time>2022-12-18T06:39:29Z</time>
      </trkpt>
      <trkpt lat="1.97628" lon="-76.783973">
        <ele>3583.706</ele>
        <time>2022-12-18T06:39:32Z</time>
      </trkpt>
      <trkpt lat="1.976234" lon="-76.783959">
        <ele>3583.726</ele>
        <time>2022-12-18T06:39:35Z</time>
      </trkpt>
      <trkpt lat="1.976183" lon="-76.78394">
        <ele>3584.109</ele>
        <time>2022-12-18T06:39:38Z</time>
      </trkpt>
      <trkpt lat="1.976135" lon="-76.783925">
        <ele>3585.129</ele>
        <time>2022-12-18T06:39:41Z</time>
      </trkpt>
      <trkpt lat="1.976095" lon="-76.783902">
        <ele>3586.070</ele>
        <time>2022-12-18T06:39:45Z</time>
      </trkpt>
      <trkpt lat="1.976082" lon="-76.783851">
        <ele>3588.029</ele>
        <time>2022-12-18T06:39:53Z</time>
      </trkpt>
      <trkpt lat="1.976092" lon="-76.783806">
        <ele>3587.813</ele>
        <time>2022-12-18T06:47:33Z</time>
      </trkpt>
      <trkpt lat="1.976088" lon="-76.783758">
        <ele>3587.890</ele>
        <time>2022-12-18T06:47:38Z</time>
      </trkpt>
      <trkpt lat="1.976106" lon="-76.783712">
        <ele>3587.878</ele>
        <time>2022-12-18T06:47:42Z</time>
      </trkpt>
      <trkpt lat="1.976128" lon="-76.783671">
        <ele>3587.883</ele>
        <time>2022-12-18T06:47:45Z</time>
      </trkpt>
      <trkpt lat="1.97616" lon="-76.783633">
        <ele>3587.984</ele>
        <time>2022-12-18T06:47:48Z</time>
      </trkpt>
      <trkpt lat="1.976198" lon="-76.783607">
        <ele>3587.891</ele>
        <time>2022-12-18T06:47:51Z</time>
      </trkpt>
      <trkpt lat="1.976246" lon="-76.783583">
        <ele>3587.849</ele>
        <time>2022-12-18T06:47:54Z</time>
      </trkpt>
      <trkpt lat="1.97629" lon="-76.783566">
        <ele>3588.102</ele>
        <time>2022-12-18T06:47:57Z</time>
      </trkpt>
      <trkpt lat="1.976335" lon="-76.783556">
        <ele>3588.622</ele>
        <time>2022-12-18T06:48:00Z</time>
      </trkpt>
      <trkpt lat="1.97639" lon="-76.78355">
        <ele>3589.609</ele>
        <time>2022-12-18T06:48:04Z</time>
      </trkpt>
      <trkpt lat="1.97644" lon="-76.78354">
        <ele>3590.885</ele>
        <time>2022-12-18T06:48:08Z</time>
      </trkpt>
      <trkpt lat="1.976503" lon="-76.783525">
        <ele>3590.826</ele>
        <time>2022-12-18T06:48:15Z</time>
      </trkpt>
      <trkpt lat="1.976548" lon="-76.783525">
        <ele>3590.975</ele>
        <time>2022-12-18T06:48:19Z</time>
      </trkpt>
      <trkpt lat="1.976602" lon="-76.783527">
        <ele>3591.929</ele>
        <time>2022-12-18T06:48:24Z</time>
      </trkpt>
      <trkpt lat="1.976647" lon="-76.783519">
        <ele>3591.486</ele>
        <time>2022-12-18T06:48:25Z</time>
      </trkpt>
      <trkpt lat="1.976718" lon="-76.783503">
        <ele>3590.654</ele>
        <time>2022-12-18T06:48:26Z</time>
      </trkpt>
      <trkpt lat="1.976776" lon="-76.783496">
        <ele>3590.649</ele>
        <time>2022-12-18T06:48:29Z</time>
      </trkpt>
      <trkpt lat="1.976844" lon="-76.78349">
        <ele>3591.530</ele>
        <time>2022-12-18T06:48:32Z</time>
      </trkpt>
      <trkpt lat="1.976902" lon="-76.783467">
        <ele>3591.717</ele>
        <time>2022-12-18T06:48:35Z</time>
      </trkpt>
      <trkpt lat="1.976952" lon="-76.783439">
        <ele>3592.484</ele>
        <time>2022-12-18T06:48:38Z</time>
      </trkpt>
      <trkpt lat="1.977001" lon="-76.783414">
        <ele>3592.707</ele>
        <time>2022-12-18T06:48:41Z</time>
      </trkpt>
      <trkpt lat="1.977036" lon="-76.783385">
        <ele>3593.017</ele>
        <time>2022-12-18T06:48:43Z</time>
      </trkpt>
      <trkpt lat="1.977081" lon="-76.783339">
        <ele>3593.709</ele>
        <time>2022-12-18T06:48:47Z</time>
      </trkpt>
      <trkpt lat="1.977111" lon="-76.783298">
        <ele>3598.219</ele>
        <time>2022-12-18T06:48:49Z</time>
      </trkpt>
      <trkpt lat="1.977166" lon="-76.783273">
        <ele>3598.780</ele>
        <time>2022-12-18T06:48:52Z</time>
      </trkpt>
      <trkpt lat="1.977214" lon="-76.783244">
        <ele>3598.749</ele>
        <time>2022-12-18T06:48:55Z</time>
      </trkpt>
      <trkpt lat="1.977267" lon="-76.783215">
        <ele>3598.543</ele>
        <time>2022-12-18T06:48:58Z</time>
      </trkpt>
      <trkpt lat="1.977321" lon="-76.783198">
        <ele>3598.070</ele>
        <time>2022-12-18T06:49:01Z</time>
      </trkpt>
      <trkpt lat="1.977364" lon="-76.783176">
        <ele>3597.378</ele>
        <time>2022-12-18T06:49:04Z</time>
      </trkpt>
      <trkpt lat="1.977402" lon="-76.783149">
        <ele>3597.373</ele>
        <time>2022-12-18T06:49:07Z</time>
      </trkpt>
      <trkpt lat="1.977454" lon="-76.783121">
        <ele>3597.454</ele>
        <time>2022-12-18T06:49:11Z</time>
      </trkpt>
      <trkpt lat="1.97749" lon="-76.783091">
        <ele>3597.581</ele>
        <time>2022-12-18T06:49:14Z</time>
      </trkpt>
      <trkpt lat="1.977532" lon="-76.783062">
        <ele>3599.753</ele>
        <time>2022-12-18T06:49:18Z</time>
      </trkpt>
      <trkpt lat="1.977585" lon="-76.783025">
        <ele>3601.004</ele>
        <time>2022-12-18T06:49:22Z</time>
      </trkpt>
      <trkpt lat="1.977627" lon="-76.782996">
        <ele>3605.614</ele>
        <time>2022-12-18T06:49:25Z</time>
      </trkpt>
      <trkpt lat="1.977668" lon="-76.782964">
        <ele>3606.009</ele>
        <time>2022-12-18T06:49:28Z</time>
      </trkpt>
      <trkpt lat="1.97771" lon="-76.782924">
        <ele>3606.066</ele>
        <time>2022-12-18T06:49:31Z</time>
      </trkpt>
      <trkpt lat="1.977755" lon="-76.782904">
        <ele>3606.577</ele>
        <time>2022-12-18T06:49:34Z</time>
      </trkpt>
      <trkpt lat="1.977797" lon="-76.782886">
        <ele>3606.946</ele>
        <time>2022-12-18T06:49:37Z</time>
      </trkpt>
      <trkpt lat="1.977852" lon="-76.782865">
        <ele>3607.130</ele>
        <time>2022-12-18T06:49:40Z</time>
      </trkpt>
      <trkpt lat="1.977894" lon="-76.782842">
        <ele>3608.247</ele>
        <time>2022-12-18T06:49:44Z</time>
      </trkpt>
      <trkpt lat="1.977939" lon="-76.782811">
        <ele>3608.485</ele>
        <time>2022-12-18T06:49:47Z</time>
      </trkpt>
      <trkpt lat="1.977993" lon="-76.782812">
        <ele>3608.960</ele>
        <time>2022-12-18T06:49:51Z</time>
      </trkpt>
      <trkpt lat="1.978046" lon="-76.782827">
        <ele>3609.711</ele>
        <time>2022-12-18T06:49:54Z</time>
      </trkpt>
      <trkpt lat="1.978101" lon="-76.782834">
        <ele>3609.998</ele>
        <time>2022-12-18T06:49:57Z</time>
      </trkpt>
      <trkpt lat="1.978153" lon="-76.782847">
        <ele>3611.044</ele>
        <time>2022-12-18T06:50:00Z</time>
      </trkpt>
      <trkpt lat="1.978199" lon="-76.782862">
        <ele>3612.205</ele>
        <time>2022-12-18T06:50:03Z</time>
      </trkpt>
      <trkpt lat="1.978262" lon="-76.782868">
        <ele>3614.615</ele>
        <time>2022-12-18T06:50:07Z</time>
      </trkpt>
      <trkpt lat="1.978322" lon="-76.782869">
        <ele>3614.609</ele>
        <time>2022-12-18T06:50:10Z</time>
      </trkpt>
      <trkpt lat="1.978373" lon="-76.782862">
        <ele>3614.645</ele>
        <time>2022-12-18T06:50:13Z</time>
      </trkpt>
      <trkpt lat="1.978427" lon="-76.782856">
        <ele>3614.826</ele>
        <time>2022-12-18T06:50:16Z</time>
      </trkpt>
      <trkpt lat="1.978477" lon="-76.782859">
        <ele>3614.835</ele>
        <time>2022-12-18T06:50:19Z</time>
      </trkpt>
      <trkpt lat="1.978525" lon="-76.782855">
        <ele>3615.769</ele>
        <time>2022-12-18T06:50:21Z</time>
      </trkpt>
      <trkpt lat="1.978587" lon="-76.782844">
        <ele>3615.976</ele>
        <time>2022-12-18T06:50:24Z</time>
      </trkpt>
      <trkpt lat="1.978634" lon="-76.782839">
        <ele>3616.294</ele>
        <time>2022-12-18T06:50:26Z</time>
      </trkpt>
      <trkpt lat="1.978684" lon="-76.782837">
        <ele>3616.239</ele>
        <time>2022-12-18T06:50:28Z</time>
      </trkpt>
      <trkpt lat="1.978729" lon="-76.782837">
        <ele>3616.240</ele>
        <time>2022-12-18T06:50:30Z</time>
      </trkpt>
      <trkpt lat="1.978775" lon="-76.782836">
        <ele>3615.977</ele>
        <time>2022-12-18T06:50:32Z</time>
      </trkpt>
      <trkpt lat="1.978821" lon="-76.782846">
        <ele>3616.087</ele>
        <time>2022-12-18T06:50:34Z</time>
      </trkpt>
      <trkpt lat="1.978882" lon="-76.782864">
        <ele>3622.042</ele>
        <time>2022-12-18T06:50:37Z</time>
      </trkpt>
      <trkpt lat="1.978948" lon="-76.782874">
        <ele>3625.826</ele>
        <time>2022-12-18T06:50:40Z</time>
      </trkpt>
      <trkpt lat="1.97901" lon="-76.782883">
        <ele>3624.609</ele>
        <time>2022-12-18T06:50:43Z</time>
      </trkpt>
      <trkpt lat="1.979057" lon="-76.782894">
        <ele>3622.499</ele>
        <time>2022-12-18T06:50:46Z</time>
      </trkpt>
      <trkpt lat="1.979101" lon="-76.782906">
        <ele>3619.780</ele>
        <time>2022-12-18T06:50:48Z</time>
      </trkpt>
      <trkpt lat="1.979153" lon="-76.782919">
        <ele>3618.919</ele>
        <time>2022-12-18T06:50:51Z</time>
      </trkpt>
      <trkpt lat="1.979196" lon="-76.782936">
        <ele>3618.893</ele>
        <time>2022-12-18T06:50:53Z</time>
      </trkpt>
      <trkpt lat="1.97924" lon="-76.782953">
        <ele>3618.670</ele>
        <time>2022-12-18T06:50:55Z</time>
      </trkpt>
      <trkpt lat="1.979283" lon="-76.782977">
        <ele>3618.668</ele>
        <time>2022-12-18T06:50:57Z</time>
      </trkpt>
      <trkpt lat="1.979341" lon="-76.783009">
        <ele>3618.723</ele>
        <time>2022-12-18T06:51:00Z</time>
      </trkpt>
      <trkpt lat="1.979382" lon="-76.783032">
        <ele>3618.694</ele>
        <time>2022-12-18T06:51:02Z</time>
      </trkpt>
      <trkpt lat="1.979441" lon="-76.783061">
        <ele>3619.061</ele>
        <time>2022-12-18T06:51:05Z</time>
      </trkpt>
      <trkpt lat="1.979504" lon="-76.783078">
        <ele>3619.183</ele>
        <time>2022-12-18T06:51:08Z</time>
      </trkpt>
      <trkpt lat="1.979564" lon="-76.783075">
        <ele>3619.425</ele>
        <time>2022-12-18T06:51:11Z</time>
      </trkpt>
      <trkpt lat="1.979621" lon="-76.783058">
        <ele>3620.117</ele>
        <time>2022-12-18T06:51:14Z</time>
      </trkpt>
      <trkpt lat="1.979672" lon="-76.783023">
        <ele>3620.109</ele>
        <time>2022-12-18T06:51:17Z</time>
      </trkpt>
      <trkpt lat="1.979714" lon="-76.782975">
        <ele>3620.199</ele>
        <time>2022-12-18T06:51:20Z</time>
      </trkpt>
      <trkpt lat="1.979735" lon="-76.782933">
        <ele>3618.970</ele>
        <time>2022-12-18T06:51:22Z</time>
      </trkpt>
      <trkpt lat="1.979762" lon="-76.782877">
        <ele>3618.869</ele>
        <time>2022-12-18T06:51:25Z</time>
      </trkpt>
      <trkpt lat="1.979782" lon="-76.782817">
        <ele>3618.973</ele>
        <time>2022-12-18T06:51:28Z</time>
      </trkpt>
      <trkpt lat="1.979792" lon="-76.782752">
        <ele>3619.950</ele>
        <time>2022-12-18T06:51:31Z</time>
      </trkpt>
      <trkpt lat="1.979801" lon="-76.782707">
        <ele>3619.968</ele>
        <time>2022-12-18T06:51:33Z</time>
      </trkpt>
      <trkpt lat="1.979813" lon="-76.782658">
        <ele>3623.383</ele>
        <time>2022-12-18T06:51:35Z</time>
      </trkpt>
      <trkpt lat="1.97982" lon="-76.78261">
        <ele>3625.624</ele>
        <time>2022-12-18T06:51:37Z</time>
      </trkpt>
      <trkpt lat="1.979832" lon="-76.78255">
        <ele>3625.871</ele>
        <time>2022-12-18T06:51:40Z</time>
      </trkpt>
      <trkpt lat="1.979842" lon="-76.782503">
        <ele>3625.738</ele>
        <time>2022-12-18T06:51:42Z</time>
      </trkpt>
      <trkpt lat="1.97986" lon="-76.782456">
        <ele>3625.470</ele>
        <time>2022-12-18T06:51:44Z</time>
      </trkpt>
      <trkpt lat="1.979869" lon="-76.782409">
        <ele>3624.717</ele>
        <time>2022-12-18T06:51:46Z</time>
      </trkpt>
      <trkpt lat="1.979887" lon="-76.782366">
        <ele>3624.709</ele>
        <time>2022-12-18T06:51:48Z</time>
      </trkpt>
      <trkpt lat="1.97991" lon="-76.78232">
        <ele>3624.764</ele>
        <time>2022-12-18T06:51:51Z</time>
      </trkpt>
      <trkpt lat="1.979949" lon="-76.782281">
        <ele>3624.965</ele>
        <time>2022-12-18T06:51:54Z</time>
      </trkpt>
      <trkpt lat="1.979974" lon="-76.782235">
        <ele>3625.284</ele>
        <time>2022-12-18T06:51:57Z</time>
      </trkpt>
      <trkpt lat="1.979997" lon="-76.782192">
        <ele>3625.518</ele>
        <time>2022-12-18T06:52:00Z</time>
      </trkpt>
      <trkpt lat="1.980035" lon="-76.782154">
        <ele>3626.265</ele>
        <time>2022-12-18T06:52:03Z</time>
      </trkpt>
      <trkpt lat="1.980063" lon="-76.782112">
        <ele>3626.843</ele>
        <time>2022-12-18T06:52:06Z</time>
      </trkpt>
      <trkpt lat="1.980103" lon="-76.78208">
        <ele>3627.018</ele>
        <time>2022-12-18T06:52:09Z</time>
      </trkpt>
      <trkpt lat="1.980147" lon="-76.782035">
        <ele>3627.999</ele>
        <time>2022-12-18T06:52:12Z</time>
      </trkpt>
      <trkpt lat="1.980186" lon="-76.78199">
        <ele>3629.426</ele>
        <time>2022-12-18T06:52:15Z</time>
      </trkpt>
      <trkpt lat="1.980215" lon="-76.781943">
        <ele>3629.656</ele>
        <time>2022-12-18T06:52:18Z</time>
      </trkpt>
      <trkpt lat="1.980254" lon="-76.781904">
        <ele>3630.259</ele>
        <time>2022-12-18T06:52:21Z</time>
      </trkpt>
      <trkpt lat="1.980282" lon="-76.781853">
        <ele>3631.114</ele>
        <time>2022-12-18T06:52:24Z</time>
      </trkpt>
      <trkpt lat="1.980303" lon="-76.7818">
        <ele>3631.309</ele>
        <time>2022-12-18T06:52:27Z</time>
      </trkpt>
      <trkpt lat="1.980314" lon="-76.781746">
        <ele>3631.486</ele>
        <time>2022-12-18T06:52:30Z</time>
      </trkpt>
      <trkpt lat="1.980311" lon="-76.781695">
        <ele>3632.237</ele>
        <time>2022-12-18T06:52:33Z</time>
      </trkpt>
      <trkpt lat="1.980309" lon="-76.781634">
        <ele>3633.846</ele>
        <time>2022-12-18T06:52:36Z</time>
      </trkpt>
      <trkpt lat="1.980315" lon="-76.781581">
        <ele>3634.530</ele>
        <time>2022-12-18T06:52:39Z</time>
      </trkpt>
      <trkpt lat="1.980334" lon="-76.78153">
        <ele>3634.997</ele>
        <time>2022-12-18T06:52:42Z</time>
      </trkpt>
      <trkpt lat="1.980352" lon="-76.781471">
        <ele>3634.985</ele>
        <time>2022-12-18T06:52:45Z</time>
      </trkpt>
      <trkpt lat="1.980383" lon="-76.781413">
        <ele>3634.570</ele>
        <time>2022-12-18T06:52:48Z</time>
      </trkpt>
      <trkpt lat="1.980413" lon="-76.781378">
        <ele>3634.551</ele>
        <time>2022-12-18T06:52:50Z</time>
      </trkpt>
      <trkpt lat="1.980453" lon="-76.781327">
        <ele>3634.798</ele>
        <time>2022-12-18T06:52:53Z</time>
      </trkpt>
      <trkpt lat="1.980509" lon="-76.781294">
        <ele>3635.038</ele>
        <time>2022-12-18T06:52:56Z</time>
      </trkpt>
      <trkpt lat="1.980568" lon="-76.781262">
        <ele>3635.570</ele>
        <time>2022-12-18T06:52:59Z</time>
      </trkpt>
      <trkpt lat="1.980623" lon="-76.781231">
        <ele>3636.417</ele>
        <time>2022-12-18T06:53:02Z</time>
      </trkpt>
      <trkpt lat="1.980671" lon="-76.781191">
        <ele>3636.509</ele>
        <time>2022-12-18T06:53:05Z</time>
      </trkpt>
      <trkpt lat="1.980724" lon="-76.781144">
        <ele>3636.814</ele>
        <time>2022-12-18T06:53:08Z</time>
      </trkpt>
      <trkpt lat="1.98076" lon="-76.781108">
        <ele>3637.145</ele>
        <time>2022-12-18T06:53:10Z</time>
      </trkpt>
      <trkpt lat="1.980796" lon="-76.781052">
        <ele>3637.084</ele>
        <time>2022-12-18T06:53:13Z</time>
      </trkpt>
      <trkpt lat="1.980814" lon="-76.781007">
        <ele>3637.118</ele>
        <time>2022-12-18T06:53:15Z</time>
      </trkpt>
      <trkpt lat="1.980838" lon="-76.780966">
        <ele>3637.265</ele>
        <time>2022-12-18T06:53:17Z</time>
      </trkpt>
      <trkpt lat="1.980848" lon="-76.780921">
        <ele>3637.123</ele>
        <time>2022-12-18T06:53:19Z</time>
      </trkpt>
      <trkpt lat="1.980871" lon="-76.780876">
        <ele>3637.128</ele>
        <time>2022-12-18T06:53:21Z</time>
      </trkpt>
      <trkpt lat="1.980888" lon="-76.780827">
        <ele>3637.259</ele>
        <time>2022-12-18T06:53:23Z</time>
      </trkpt>
      <trkpt lat="1.980907" lon="-76.780778">
        <ele>3637.386</ele>
        <time>2022-12-18T06:53:25Z</time>
      </trkpt>
      <trkpt lat="1.980923" lon="-76.780734">
        <ele>3637.348</ele>
        <time>2022-12-18T06:53:27Z</time>
      </trkpt>
      <trkpt lat="1.980949" lon="-76.780695">
        <ele>3637.461</ele>
        <time>2022-12-18T06:53:29Z</time>
      </trkpt>
      <trkpt lat="1.980979" lon="-76.780638">
        <ele>3637.417</ele>
        <time>2022-12-18T06:53:32Z</time>
      </trkpt>
      <trkpt lat="1.980994" lon="-76.780595">
        <ele>3637.409</ele>
        <time>2022-12-18T06:53:34Z</time>
      </trkpt>
      <trkpt lat="1.981004" lon="-76.780548">
        <ele>3637.425</ele>
        <time>2022-12-18T06:53:36Z</time>
      </trkpt>
      <trkpt lat="1.981007" lon="-76.780502">
        <ele>3637.426</ele>
        <time>2022-12-18T06:53:38Z</time>
      </trkpt>
      <trkpt lat="1.981013" lon="-76.780454">
        <ele>3637.525</ele>
        <time>2022-12-18T06:53:40Z</time>
      </trkpt>
      <trkpt lat="1.981013" lon="-76.780407">
        <ele>3637.689</ele>
        <time>2022-12-18T06:53:42Z</time>
      </trkpt>
      <trkpt lat="1.981004" lon="-76.780361">
        <ele>3637.576</ele>
        <time>2022-12-18T06:53:44Z</time>
      </trkpt>
      <trkpt lat="1.980994" lon="-76.7803">
        <ele>3637.584</ele>
        <time>2022-12-18T06:53:47Z</time>
      </trkpt>
      <trkpt lat="1.981002" lon="-76.78024">
        <ele>3637.769</ele>
        <time>2022-12-18T06:53:50Z</time>
      </trkpt>
      <trkpt lat="1.981011" lon="-76.780192">
        <ele>3637.870</ele>
        <time>2022-12-18T06:53:52Z</time>
      </trkpt>
      <trkpt lat="1.981053" lon="-76.780142">
        <ele>3638.657</ele>
        <time>2022-12-18T06:53:55Z</time>
      </trkpt>
      <trkpt lat="1.981093" lon="-76.780121">
        <ele>3638.976</ele>
        <time>2022-12-18T06:53:57Z</time>
      </trkpt>
      <trkpt lat="1.981135" lon="-76.780104">
        <ele>3639.090</ele>
        <time>2022-12-18T06:53:59Z</time>
      </trkpt>
      <trkpt lat="1.981181" lon="-76.78009">
        <ele>3639.719</ele>
        <time>2022-12-18T06:54:01Z</time>
      </trkpt>
      <trkpt lat="1.981247" lon="-76.780072">
        <ele>3640.009</ele>
        <time>2022-12-18T06:54:04Z</time>
      </trkpt>
      <trkpt lat="1.981295" lon="-76.780059">
        <ele>3641.438</ele>
        <time>2022-12-18T06:54:06Z</time>
      </trkpt>
      <trkpt lat="1.981344" lon="-76.780044">
        <ele>3641.899</ele>
        <time>2022-12-18T06:54:08Z</time>
      </trkpt>
      <trkpt lat="1.981388" lon="-76.780023">
        <ele>3641.988</ele>
        <time>2022-12-18T06:54:10Z</time>
      </trkpt>
      <trkpt lat="1.981434" lon="-76.78001">
        <ele>3642.162</ele>
        <time>2022-12-18T06:54:12Z</time>
      </trkpt>
      <trkpt lat="1.981479" lon="-76.779999">
        <ele>3642.539</ele>
        <time>2022-12-18T06:54:14Z</time>
      </trkpt>
      <trkpt lat="1.981524" lon="-76.779981">
        <ele>3643.497</ele>
        <time>2022-12-18T06:54:16Z</time>
      </trkpt>
      <trkpt lat="1.981571" lon="-76.779974">
        <ele>3645.172</ele>
        <time>2022-12-18T06:54:18Z</time>
      </trkpt>
      <trkpt lat="1.981604" lon="-76.779933">
        <ele>3645.713</ele>
        <time>2022-12-18T06:54:20Z</time>
      </trkpt>
      <trkpt lat="1.981656" lon="-76.779889">
        <ele>3646.160</ele>
        <time>2022-12-18T06:54:23Z</time>
      </trkpt>
      <trkpt lat="1.981674" lon="-76.779844">
        <ele>3646.367</ele>
        <time>2022-12-18T06:54:25Z</time>
      </trkpt>
      <trkpt lat="1.981684" lon="-76.779795">
        <ele>3646.681</ele>
        <time>2022-12-18T06:54:27Z</time>
      </trkpt>
      <trkpt lat="1.981696" lon="-76.779749">
        <ele>3646.719</ele>
        <time>2022-12-18T06:54:29Z</time>
      </trkpt>
      <trkpt lat="1.981706" lon="-76.779684">
        <ele>3647.009</ele>
        <time>2022-12-18T06:54:32Z</time>
      </trkpt>
      <trkpt lat="1.981729" lon="-76.779627">
        <ele>3647.757</ele>
        <time>2022-12-18T06:54:35Z</time>
      </trkpt>
      <trkpt lat="1.981751" lon="-76.779572">
        <ele>3647.968</ele>
        <time>2022-12-18T06:54:38Z</time>
      </trkpt>
      <trkpt lat="1.981757" lon="-76.779527">
        <ele>3648.337</ele>
        <time>2022-12-18T06:54:40Z</time>
      </trkpt>
      <trkpt lat="1.981759" lon="-76.779461">
        <ele>3649.991</ele>
        <time>2022-12-18T06:54:43Z</time>
      </trkpt>
      <trkpt lat="1.981776" lon="-76.779401">
        <ele>3650.688</ele>
        <time>2022-12-18T06:54:46Z</time>
      </trkpt>
      <trkpt lat="1.981796" lon="-76.779347">
        <ele>3651.096</ele>
        <time>2022-12-18T06:54:48Z</time>
      </trkpt>
      <trkpt lat="1.981815" lon="-76.779299">
        <ele>3651.251</ele>
        <time>2022-12-18T06:54:51Z</time>
      </trkpt>
      <trkpt lat="1.981824" lon="-76.779245">
        <ele>3651.672</ele>
        <time>2022-12-18T06:54:54Z</time>
      </trkpt>
      <trkpt lat="1.981838" lon="-76.77918">
        <ele>3651.779</ele>
        <time>2022-12-18T06:54:57Z</time>
      </trkpt>
      <trkpt lat="1.981848" lon="-76.779136">
        <ele>3651.769</ele>
        <time>2022-12-18T06:54:59Z</time>
      </trkpt>
      <trkpt lat="1.981858" lon="-76.779073">
        <ele>3652.004</ele>
        <time>2022-12-18T06:55:02Z</time>
      </trkpt>
      <trkpt lat="1.981854" lon="-76.779027">
        <ele>3653.224</ele>
        <time>2022-12-18T06:55:04Z</time>
      </trkpt>
      <trkpt lat="1.981849" lon="-76.778981">
        <ele>3653.809</ele>
        <time>2022-12-18T06:55:06Z</time>
      </trkpt>
      <trkpt lat="1.981853" lon="-76.778924">
        <ele>3653.577</ele>
        <time>2022-12-18T06:55:09Z</time>
      </trkpt>
      <trkpt lat="1.981858" lon="-76.778862">
        <ele>3653.788</ele>
        <time>2022-12-18T06:55:12Z</time>
      </trkpt>
      <trkpt lat="1.981854" lon="-76.778805">
        <ele>3654.017</ele>
        <time>2022-12-18T06:55:15Z</time>
      </trkpt>
      <trkpt lat="1.981849" lon="-76.778744">
        <ele>3654.091</ele>
        <time>2022-12-18T06:55:18Z</time>
      </trkpt>
      <trkpt lat="1.981841" lon="-76.778681">
        <ele>3654.648</ele>
        <time>2022-12-18T06:55:21Z</time>
      </trkpt>
      <trkpt lat="1.981831" lon="-76.778635">
        <ele>3654.716</ele>
        <time>2022-12-18T06:55:23Z</time>
      </trkpt>
      <trkpt lat="1.981831" lon="-76.77859">
        <ele>3654.871</ele>
        <time>2022-12-18T06:55:25Z</time>
      </trkpt>
      <trkpt lat="1.981824" lon="-76.778531">
        <ele>3654.852</ele>
        <time>2022-12-18T06:55:28Z</time>
      </trkpt>
      <trkpt lat="1.981801" lon="-76.778471">
        <ele>3654.869</ele>
        <time>2022-12-18T06:55:31Z</time>
      </trkpt>
      <trkpt lat="1.981782" lon="-76.778428">
        <ele>3654.734</ele>
        <time>2022-12-18T06:55:33Z</time>
      </trkpt>
      <trkpt lat="1.981765" lon="-76.778363">
        <ele>3654.655</ele>
        <time>2022-12-18T06:55:36Z</time>
      </trkpt>
      <trkpt lat="1.981749" lon="-76.778305">
        <ele>3654.510</ele>
        <time>2022-12-18T06:55:39Z</time>
      </trkpt>
      <trkpt lat="1.981757" lon="-76.77826">
        <ele>3654.909</ele>
        <time>2022-12-18T06:55:43Z</time>
      </trkpt>
      <trkpt lat="1.98177" lon="-76.778205">
        <ele>3654.914</ele>
        <time>2022-12-18T06:55:46Z</time>
      </trkpt>
      <trkpt lat="1.981779" lon="-76.77814">
        <ele>3657.935</ele>
        <time>2022-12-18T06:55:49Z</time>
      </trkpt>
      <trkpt lat="1.981781" lon="-76.778077">
        <ele>3658.614</ele>
        <time>2022-12-18T06:55:52Z</time>
      </trkpt>
      <trkpt lat="1.981788" lon="-76.778011">
        <ele>3658.918</ele>
        <time>2022-12-18T06:55:55Z</time>
      </trkpt>
      <trkpt lat="1.981808" lon="-76.77795">
        <ele>3659.025</ele>
        <time>2022-12-18T06:55:58Z</time>
      </trkpt>
      <trkpt lat="1.981829" lon="-76.777886">
        <ele>3659.083</ele>
        <time>2022-12-18T06:56:01Z</time>
      </trkpt>
      <trkpt lat="1.981859" lon="-76.777829">
        <ele>3659.488</ele>
        <time>2022-12-18T06:56:04Z</time>
      </trkpt>
      <trkpt lat="1.981892" lon="-76.777797">
        <ele>3659.439</ele>
        <time>2022-12-18T06:56:06Z</time>
      </trkpt>
      <trkpt lat="1.981935" lon="-76.777778">
        <ele>3659.576</ele>
        <time>2022-12-18T06:56:08Z</time>
      </trkpt>
      <trkpt lat="1.981977" lon="-76.777758">
        <ele>3659.419</ele>
        <time>2022-12-18T06:56:10Z</time>
      </trkpt>
      <trkpt lat="1.982034" lon="-76.777748">
        <ele>3659.009</ele>
        <time>2022-12-18T06:56:13Z</time>
      </trkpt>
      <trkpt lat="1.98208" lon="-76.77774">
        <ele>3659.419</ele>
        <time>2022-12-18T06:56:16Z</time>
      </trkpt>
      <trkpt lat="1.982133" lon="-76.77776">
        <ele>3659.809</ele>
        <time>2022-12-18T06:56:19Z</time>
      </trkpt>
      <trkpt lat="1.982184" lon="-76.77778">
        <ele>3659.522</ele>
        <time>2022-12-18T06:56:22Z</time>
      </trkpt>
      <trkpt lat="1.982245" lon="-76.777765">
        <ele>3659.343</ele>
        <time>2022-12-18T06:56:25Z</time>
      </trkpt>
      <trkpt lat="1.982306" lon="-76.777758">
        <ele>3659.032</ele>
        <time>2022-12-18T06:56:28Z</time>
      </trkpt>
      <trkpt lat="1.982345" lon="-76.777729">
        <ele>3658.476</ele>
        <time>2022-12-18T06:56:30Z</time>
      </trkpt>
      <trkpt lat="1.982377" lon="-76.777692">
        <ele>3658.183</ele>
        <time>2022-12-18T06:56:32Z</time>
      </trkpt>
      <trkpt lat="1.982408" lon="-76.777648">
        <ele>3657.911</ele>
        <time>2022-12-18T06:56:34Z</time>
      </trkpt>
      <trkpt lat="1.982428" lon="-76.777603">
        <ele>3657.826</ele>
        <time>2022-12-18T06:56:36Z</time>
      </trkpt>
      <trkpt lat="1.982435" lon="-76.777557">
        <ele>3657.357</ele>
        <time>2022-12-18T06:56:38Z</time>
      </trkpt>
      <trkpt lat="1.982426" lon="-76.777511">
        <ele>3657.374</ele>
        <time>2022-12-18T06:56:40Z</time>
      </trkpt>
      <trkpt lat="1.982416" lon="-76.777464">
        <ele>3657.346</ele>
        <time>2022-12-18T06:56:42Z</time>
      </trkpt>
      <trkpt lat="1.982389" lon="-76.777408">
        <ele>3659.088</ele>
        <time>2022-12-18T06:56:45Z</time>
      </trkpt>
      <trkpt lat="1.982353" lon="-76.777375">
        <ele>3660.516</ele>
        <time>2022-12-18T06:56:47Z</time>
      </trkpt>
      <trkpt lat="1.982306" lon="-76.777352">
        <ele>3660.909</ele>
        <time>2022-12-18T06:56:49Z</time>
      </trkpt>
      <trkpt lat="1.982261" lon="-76.777325">
        <ele>3661.735</ele>
        <time>2022-12-18T06:56:52Z</time>
      </trkpt>
      <trkpt lat="1.982204" lon="-76.777296">
        <ele>3663.896</ele>
        <time>2022-12-18T06:56:56Z</time>
      </trkpt>
      <trkpt lat="1.982156" lon="-76.777272">
        <ele>3664.075</ele>
        <time>2022-12-18T06:56:59Z</time>
      </trkpt>
      <trkpt lat="1.982114" lon="-76.777249">
        <ele>3664.149</ele>
        <time>2022-12-18T06:57:01Z</time>
      </trkpt>
      <trkpt lat="1.982059" lon="-76.777221">
        <ele>3664.356</ele>
        <time>2022-12-18T06:57:04Z</time>
      </trkpt>
      <trkpt lat="1.981998" lon="-76.7772">
        <ele>3664.524</ele>
        <time>2022-12-18T06:57:07Z</time>
      </trkpt>
      <trkpt lat="1.981946" lon="-76.777162">
        <ele>3664.539</ele>
        <time>2022-12-18T06:57:10Z</time>
      </trkpt>
      <trkpt lat="1.981893" lon="-76.777132">
        <ele>3665.790</ele>
        <time>2022-12-18T06:57:13Z</time>
      </trkpt>
      <trkpt lat="1.981847" lon="-76.77709">
        <ele>3666.927</ele>
        <time>2022-12-18T06:57:16Z</time>
      </trkpt>
      <trkpt lat="1.981803" lon="-76.777045">
        <ele>3667.273</ele>
        <time>2022-12-18T06:57:19Z</time>
      </trkpt>
      <trkpt lat="1.981762" lon="-76.776999">
        <ele>3667.885</ele>
        <time>2022-12-18T06:57:22Z</time>
      </trkpt>
      <trkpt lat="1.981726" lon="-76.776947">
        <ele>3668.713</ele>
        <time>2022-12-18T06:57:25Z</time>
      </trkpt>
      <trkpt lat="1.981711" lon="-76.776894">
        <ele>3669.209</ele>
        <time>2022-12-18T06:57:28Z</time>
      </trkpt>
      <trkpt lat="1.981707" lon="-76.776847">
        <ele>3670.048</ele>
        <time>2022-12-18T06:57:30Z</time>
      </trkpt>
      <trkpt lat="1.981714" lon="-76.776787">
        <ele>3671.899</ele>
        <time>2022-12-18T06:57:33Z</time>
      </trkpt>
      <trkpt lat="1.981734" lon="-76.776728">
        <ele>3671.938</ele>
        <time>2022-12-18T06:57:36Z</time>
      </trkpt>
      <trkpt lat="1.981773" lon="-76.776674">
        <ele>3672.292</ele>
        <time>2022-12-18T06:57:39Z</time>
      </trkpt>
      <trkpt lat="1.981815" lon="-76.776624">
        <ele>3672.939</ele>
        <time>2022-12-18T06:57:42Z</time>
      </trkpt>
      <trkpt lat="1.981872" lon="-76.776588">
        <ele>3673.937</ele>
        <time>2022-12-18T06:57:45Z</time>
      </trkpt>
      <trkpt lat="1.981904" lon="-76.776553">
        <ele>3674.892</ele>
        <time>2022-12-18T06:57:47Z</time>
      </trkpt>
      <trkpt lat="1.981942" lon="-76.776512">
        <ele>3675.523</ele>
        <time>2022-12-18T06:57:49Z</time>
      </trkpt>
      <trkpt lat="1.98199" lon="-76.776469">
        <ele>3675.830</ele>
        <time>2022-12-18T06:57:53Z</time>
      </trkpt>
      <trkpt lat="1.982022" lon="-76.776436">
        <ele>3676.453</ele>
        <time>2022-12-18T06:57:55Z</time>
      </trkpt>
      <trkpt lat="1.982052" lon="-76.776402">
        <ele>3677.504</ele>
        <time>2022-12-18T06:57:57Z</time>
      </trkpt>
      <trkpt lat="1.982097" lon="-76.776377">
        <ele>3678.014</ele>
        <time>2022-12-18T06:57:59Z</time>
      </trkpt>
      <trkpt lat="1.982135" lon="-76.776347">
        <ele>3679.409</ele>
        <time>2022-12-18T06:58:01Z</time>
      </trkpt>
      <trkpt lat="1.982175" lon="-76.776325">
        <ele>3680.296</ele>
        <time>2022-12-18T06:58:03Z</time>
      </trkpt>
      <trkpt lat="1.982217" lon="-76.776293">
        <ele>3680.567</ele>
        <time>2022-12-18T06:58:05Z</time>
      </trkpt>
      <trkpt lat="1.98226" lon="-76.776268">
        <ele>3681.086</ele>
        <time>2022-12-18T06:58:07Z</time>
      </trkpt>
      <trkpt lat="1.982311" lon="-76.776253">
        <ele>3681.540</ele>
        <time>2022-12-18T06:58:09Z</time>
      </trkpt>
      <trkpt lat="1.982363" lon="-76.776233">
        <ele>3681.957</ele>
        <time>2022-12-18T06:58:12Z</time>
      </trkpt>
      <trkpt lat="1.982421" lon="-76.776203">
        <ele>3682.275</ele>
        <time>2022-12-18T06:58:14Z</time>
      </trkpt>
      <trkpt lat="1.982458" lon="-76.776177">
        <ele>3682.440</ele>
        <time>2022-12-18T06:58:15Z</time>
      </trkpt>
      <trkpt lat="1.982522" lon="-76.77613">
        <ele>3682.881</ele>
        <time>2022-12-18T06:58:17Z</time>
      </trkpt>
      <trkpt lat="1.98257" lon="-76.776087">
        <ele>3683.538</ele>
        <time>2022-12-18T06:58:19Z</time>
      </trkpt>
      <trkpt lat="1.982606" lon="-76.776029">
        <ele>3683.653</ele>
        <time>2022-12-18T06:58:22Z</time>
      </trkpt>
      <trkpt lat="1.982638" lon="-76.775988">
        <ele>3683.604</ele>
        <time>2022-12-18T06:58:24Z</time>
      </trkpt>
      <trkpt lat="1.982671" lon="-76.775955">
        <ele>3683.714</ele>
        <time>2022-12-18T06:58:26Z</time>
      </trkpt>
      <trkpt lat="1.982714" lon="-76.77592">
        <ele>3683.809</ele>
        <time>2022-12-18T06:58:29Z</time>
      </trkpt>
      <trkpt lat="1.982758" lon="-76.775888">
        <ele>3683.876</ele>
        <time>2022-12-18T06:58:32Z</time>
      </trkpt>
      <trkpt lat="1.982818" lon="-76.775855">
        <ele>3683.877</ele>
        <time>2022-12-18T06:58:36Z</time>
      </trkpt>
      <trkpt lat="1.982876" lon="-76.775832">
        <ele>3683.866</ele>
        <time>2022-12-18T06:58:39Z</time>
      </trkpt>
      <trkpt lat="1.982921" lon="-76.775813">
        <ele>3683.880</ele>
        <time>2022-12-18T06:58:41Z</time>
      </trkpt>
      <trkpt lat="1.982976" lon="-76.77578">
        <ele>3683.947</ele>
        <time>2022-12-18T06:58:44Z</time>
      </trkpt>
      <trkpt lat="1.983024" lon="-76.775748">
        <ele>3684.165</ele>
        <time>2022-12-18T06:58:47Z</time>
      </trkpt>
      <trkpt lat="1.98307" lon="-76.775715">
        <ele>3685.210</ele>
        <time>2022-12-18T06:58:50Z</time>
      </trkpt>
      <trkpt lat="1.983116" lon="-76.775672">
        <ele>3687.061</ele>
        <time>2022-12-18T06:58:53Z</time>
      </trkpt>
      <trkpt lat="1.983169" lon="-76.775647">
        <ele>3687.478</ele>
        <time>2022-12-18T06:58:56Z</time>
      </trkpt>
      <trkpt lat="1.98322" lon="-76.775615">
        <ele>3688.045</ele>
        <time>2022-12-18T06:58:59Z</time>
      </trkpt>
      <trkpt lat="1.983272" lon="-76.775587">
        <ele>3690.047</ele>
        <time>2022-12-18T06:59:02Z</time>
      </trkpt>
      <trkpt lat="1.983311" lon="-76.775555">
        <ele>3690.411</ele>
        <time>2022-12-18T06:59:05Z</time>
      </trkpt>
      <trkpt lat="1.983348" lon="-76.775514">
        <ele>3690.809</ele>
        <time>2022-12-18T06:59:08Z</time>
      </trkpt>
      <trkpt lat="1.983376" lon="-76.775476">
        <ele>3691.095</ele>
        <time>2022-12-18T06:59:10Z</time>
      </trkpt>
      <trkpt lat="1.983418" lon="-76.775424">
        <ele>3691.586</ele>
        <time>2022-12-18T06:59:13Z</time>
      </trkpt>
      <trkpt lat="1.983451" lon="-76.77539">
        <ele>3691.825</ele>
        <time>2022-12-18T06:59:15Z</time>
      </trkpt>
      <trkpt lat="1.983501" lon="-76.775345">
        <ele>3691.589</ele>
        <time>2022-12-18T06:59:18Z</time>
      </trkpt>
      <trkpt lat="1.983549" lon="-76.775303">
        <ele>3691.086</ele>
        <time>2022-12-18T06:59:21Z</time>
      </trkpt>
      <trkpt lat="1.983609" lon="-76.775267">
        <ele>3690.754</ele>
        <time>2022-12-18T06:59:24Z</time>
      </trkpt>
      <trkpt lat="1.98367" lon="-76.775248">
        <ele>3690.359</ele>
        <time>2022-12-18T06:59:27Z</time>
      </trkpt>
      <trkpt lat="1.983712" lon="-76.775233">
        <ele>3690.350</ele>
        <time>2022-12-18T06:59:29Z</time>
      </trkpt>
      <trkpt lat="1.983762" lon="-76.775216">
        <ele>3690.567</ele>
        <time>2022-12-18T06:59:31Z</time>
      </trkpt>
      <trkpt lat="1.983816" lon="-76.775205">
        <ele>3690.338</ele>
        <time>2022-12-18T06:59:33Z</time>
      </trkpt>
      <trkpt lat="1.983874" lon="-76.775183">
        <ele>3690.370</ele>
        <time>2022-12-18T06:59:35Z</time>
      </trkpt>
      <trkpt lat="1.983928" lon="-76.775164">
        <ele>3690.317</ele>
        <time>2022-12-18T06:59:37Z</time>
      </trkpt>
      <trkpt lat="1.983976" lon="-76.775153">
        <ele>3688.409</ele>
        <time>2022-12-18T06:59:39Z</time>
      </trkpt>
      <trkpt lat="1.984033" lon="-76.775136">
        <ele>3688.174</ele>
        <time>2022-12-18T06:59:41Z</time>
      </trkpt>
      <trkpt lat="1.984085" lon="-76.775125">
        <ele>3688.285</ele>
        <time>2022-12-18T06:59:43Z</time>
      </trkpt>
      <trkpt lat="1.984139" lon="-76.775114">
        <ele>3688.644</ele>
        <time>2022-12-18T06:59:45Z</time>
      </trkpt>
      <trkpt lat="1.984204" lon="-76.775087">
        <ele>3689.438</ele>
        <time>2022-12-18T06:59:47Z</time>
      </trkpt>
      <trkpt lat="1.984273" lon="-76.775042">
        <ele>3690.225</ele>
        <time>2022-12-18T06:59:49Z</time>
      </trkpt>
      <trkpt lat="1.984314" lon="-76.775016">
        <ele>3688.333</ele>
        <time>2022-12-18T06:59:50Z</time>
      </trkpt>
      <trkpt lat="1.984353" lon="-76.774991">
        <ele>3686.628</ele>
        <time>2022-12-18T06:59:51Z</time>
      </trkpt>
      <trkpt lat="1.984416" lon="-76.774944">
        <ele>3686.469</ele>
        <time>2022-12-18T06:59:53Z</time>
      </trkpt>
      <trkpt lat="1.984472" lon="-76.774894">
        <ele>3686.476</ele>
        <time>2022-12-18T06:59:55Z</time>
      </trkpt>
      <trkpt lat="1.98451" lon="-76.774834">
        <ele>3686.442</ele>
        <time>2022-12-18T06:59:57Z</time>
      </trkpt>
      <trkpt lat="1.984544" lon="-76.774774">
        <ele>3686.422</ele>
        <time>2022-12-18T06:59:59Z</time>
      </trkpt>
      <trkpt lat="1.984593" lon="-76.774711">
        <ele>3686.414</ele>
        <time>2022-12-18T07:00:01Z</time>
      </trkpt>
      <trkpt lat="1.984609" lon="-76.774646">
        <ele>3685.609</ele>
        <time>2022-12-18T07:00:03Z</time>
      </trkpt>
      <trkpt lat="1.98465" lon="-76.774592">
        <ele>3685.615</ele>
        <time>2022-12-18T07:00:05Z</time>
      </trkpt>
      <trkpt lat="1.984682" lon="-76.774536">
        <ele>3684.236</ele>
        <time>2022-12-18T07:00:07Z</time>
      </trkpt>
      <trkpt lat="1.984718" lon="-76.77448">
        <ele>3683.755</ele>
        <time>2022-12-18T07:00:09Z</time>
      </trkpt>
      <trkpt lat="1.984751" lon="-76.774428">
        <ele>3683.799</ele>
        <time>2022-12-18T07:00:11Z</time>
      </trkpt>
      <trkpt lat="1.98479" lon="-76.774377">
        <ele>3683.636</ele>
        <time>2022-12-18T07:00:13Z</time>
      </trkpt>
      <trkpt lat="1.984831" lon="-76.774336">
        <ele>3683.664</ele>
        <time>2022-12-18T07:00:15Z</time>
      </trkpt>
      <trkpt lat="1.984878" lon="-76.774301">
        <ele>3683.619</ele>
        <time>2022-12-18T07:00:17Z</time>
      </trkpt>
      <trkpt lat="1.984922" lon="-76.774276">
        <ele>3683.880</ele>
        <time>2022-12-18T07:00:19Z</time>
      </trkpt>
      <trkpt lat="1.984984" lon="-76.77425">
        <ele>3683.957</ele>
        <time>2022-12-18T07:00:21Z</time>
      </trkpt>
      <trkpt lat="1.985037" lon="-76.774228">
        <ele>3683.854</ele>
        <time>2022-12-18T07:00:24Z</time>
      </trkpt>
      <trkpt lat="1.985081" lon="-76.774214">
        <ele>3683.856</ele>
        <time>2022-12-18T07:00:26Z</time>
      </trkpt>
      <trkpt lat="1.985127" lon="-76.774207">
        <ele>3683.911</ele>
        <time>2022-12-18T07:00:28Z</time>
      </trkpt>
      <trkpt lat="1.985175" lon="-76.774183">
        <ele>3684.209</ele>
        <time>2022-12-18T07:00:30Z</time>
      </trkpt>
      <trkpt lat="1.985237" lon="-76.77417">
        <ele>3685.156</ele>
        <time>2022-12-18T07:00:33Z</time>
      </trkpt>
      <trkpt lat="1.985302" lon="-76.774149">
        <ele>3685.567</ele>
        <time>2022-12-18T07:00:36Z</time>
      </trkpt>
      <trkpt lat="1.985343" lon="-76.774121">
        <ele>3685.576</ele>
        <time>2022-12-18T07:00:38Z</time>
      </trkpt>
      <trkpt lat="1.985377" lon="-76.774086">
        <ele>3685.610</ele>
        <time>2022-12-18T07:00:40Z</time>
      </trkpt>
      <trkpt lat="1.985424" lon="-76.774043">
        <ele>3686.047</ele>
        <time>2022-12-18T07:00:43Z</time>
      </trkpt>
      <trkpt lat="1.985452" lon="-76.77398">
        <ele>3686.715</ele>
        <time>2022-12-18T07:00:46Z</time>
      </trkpt>
      <trkpt lat="1.985468" lon="-76.773931">
        <ele>3687.030</ele>
        <time>2022-12-18T07:00:48Z</time>
      </trkpt>
      <trkpt lat="1.985471" lon="-76.773873">
        <ele>3688.231</ele>
        <time>2022-12-18T07:00:50Z</time>
      </trkpt>
      <trkpt lat="1.985465" lon="-76.773824">
        <ele>3689.168</ele>
        <time>2022-12-18T07:00:53Z</time>
      </trkpt>
      <trkpt lat="1.985461" lon="-76.773758">
        <ele>3690.631</ele>
        <time>2022-12-18T07:00:56Z</time>
      </trkpt>
      <trkpt lat="1.985449" lon="-76.773698">
        <ele>3691.061</ele>
        <time>2022-12-18T07:00:59Z</time>
      </trkpt>
      <trkpt lat="1.985448" lon="-76.773635">
        <ele>3691.507</ele>
        <time>2022-12-18T07:01:02Z</time>
      </trkpt>
      <trkpt lat="1.985462" lon="-76.773591">
        <ele>3692.009</ele>
        <time>2022-12-18T07:01:04Z</time>
      </trkpt>
      <trkpt lat="1.985494" lon="-76.773539">
        <ele>3692.654</ele>
        <time>2022-12-18T07:01:07Z</time>
      </trkpt>
      <trkpt lat="1.985536" lon="-76.773491">
        <ele>3693.395</ele>
        <time>2022-12-18T07:01:10Z</time>
      </trkpt>
      <trkpt lat="1.985568" lon="-76.77344">
        <ele>3694.474</ele>
        <time>2022-12-18T07:01:13Z</time>
      </trkpt>
      <trkpt lat="1.985608" lon="-76.773388">
        <ele>3694.588</ele>
        <time>2022-12-18T07:01:16Z</time>
      </trkpt>
      <trkpt lat="1.98566" lon="-76.773358">
        <ele>3694.735</ele>
        <time>2022-12-18T07:01:19Z</time>
      </trkpt>
      <trkpt lat="1.985699" lon="-76.773309">
        <ele>3694.783</ele>
        <time>2022-12-18T07:01:22Z</time>
      </trkpt>
      <trkpt lat="1.985727" lon="-76.773271">
        <ele>3694.728</ele>
        <time>2022-12-18T07:01:24Z</time>
      </trkpt>
      <trkpt lat="1.985758" lon="-76.773234">
        <ele>3694.749</ele>
        <time>2022-12-18T07:01:26Z</time>
      </trkpt>
      <trkpt lat="1.985793" lon="-76.773204">
        <ele>3694.776</ele>
        <time>2022-12-18T07:01:28Z</time>
      </trkpt>
      <trkpt lat="1.985824" lon="-76.77317">
        <ele>3694.713</ele>
        <time>2022-12-18T07:01:30Z</time>
      </trkpt>
      <trkpt lat="1.985867" lon="-76.773121">
        <ele>3694.843</ele>
        <time>2022-12-18T07:01:33Z</time>
      </trkpt>
      <trkpt lat="1.985911" lon="-76.773081">
        <ele>3695.107</ele>
        <time>2022-12-18T07:01:36Z</time>
      </trkpt>
      <trkpt lat="1.985942" lon="-76.773045">
        <ele>3696.009</ele>
        <time>2022-12-18T07:01:38Z</time>
      </trkpt>
      <trkpt lat="1.985989" lon="-76.772999">
        <ele>3698.022</ele>
        <time>2022-12-18T07:01:41Z</time>
      </trkpt>
      <trkpt lat="1.986018" lon="-76.772965">
        <ele>3698.433</ele>
        <time>2022-12-18T07:01:43Z</time>
      </trkpt>
      <trkpt lat="1.986058" lon="-76.772915">
        <ele>3698.892</ele>
        <time>2022-12-18T07:01:46Z</time>
      </trkpt>
      <trkpt lat="1.986093" lon="-76.772869">
        <ele>3699.556</ele>
        <time>2022-12-18T07:01:49Z</time>
      </trkpt>
      <trkpt lat="1.986129" lon="-76.772825">
        <ele>3701.023</ele>
        <time>2022-12-18T07:01:52Z</time>
      </trkpt>
      <trkpt lat="1.986161" lon="-76.77279">
        <ele>3702.391</ele>
        <time>2022-12-18T07:01:54Z</time>
      </trkpt>
      <trkpt lat="1.986211" lon="-76.772752">
        <ele>3704.476</ele>
        <time>2022-12-18T07:01:57Z</time>
      </trkpt>
      <trkpt lat="1.986254" lon="-76.77271">
        <ele>3704.637</ele>
        <time>2022-12-18T07:02:00Z</time>
      </trkpt>
      <trkpt lat="1.986302" lon="-76.772668">
        <ele>3704.644</ele>
        <time>2022-12-18T07:02:03Z</time>
      </trkpt>
      <trkpt lat="1.986351" lon="-76.772622">
        <ele>3705.241</ele>
        <time>2022-12-18T07:02:06Z</time>
      </trkpt>
      <trkpt lat="1.986394" lon="-76.772579">
        <ele>3705.781</ele>
        <time>2022-12-18T07:02:09Z</time>
      </trkpt>
      <trkpt lat="1.986443" lon="-76.772542">
        <ele>3705.709</ele>
        <time>2022-12-18T07:02:12Z</time>
      </trkpt>
      <trkpt lat="1.986487" lon="-76.772501">
        <ele>3706.709</ele>
        <time>2022-12-18T07:02:15Z</time>
      </trkpt>
      <trkpt lat="1.986521" lon="-76.77247">
        <ele>3709.255</ele>
        <time>2022-12-18T07:02:17Z</time>
      </trkpt>
      <trkpt lat="1.986564" lon="-76.772433">
        <ele>3711.316</ele>
        <time>2022-12-18T07:02:20Z</time>
      </trkpt>
      <trkpt lat="1.986612" lon="-76.772386">
        <ele>3713.095</ele>
        <time>2022-12-18T07:02:23Z</time>
      </trkpt>
      <trkpt lat="1.986653" lon="-76.772352">
        <ele>3713.119</ele>
        <time>2022-12-18T07:02:25Z</time>
      </trkpt>
      <trkpt lat="1.986694" lon="-76.772325">
        <ele>3713.266</ele>
        <time>2022-12-18T07:02:27Z</time>
      </trkpt>
      <trkpt lat="1.986737" lon="-76.772284">
        <ele>3712.384</ele>
        <time>2022-12-18T07:02:29Z</time>
      </trkpt>
      <trkpt lat="1.98677" lon="-76.772247">
        <ele>3712.079</ele>
        <time>2022-12-18T07:02:32Z</time>
      </trkpt>
      <trkpt lat="1.98682" lon="-76.77221">
        <ele>3711.830</ele>
        <time>2022-12-18T07:02:35Z</time>
      </trkpt>
      <trkpt lat="1.986856" lon="-76.772181">
        <ele>3711.727</ele>
        <time>2022-12-18T07:02:37Z</time>
      </trkpt>
      <trkpt lat="1.986895" lon="-76.772151">
        <ele>3711.944</ele>
        <time>2022-12-18T07:02:39Z</time>
      </trkpt>
      <trkpt lat="1.986935" lon="-76.772105">
        <ele>3712.105</ele>
        <time>2022-12-18T07:02:42Z</time>
      </trkpt>
      <trkpt lat="1.986973" lon="-76.772051">
        <ele>3712.115</ele>
        <time>2022-12-18T07:02:45Z</time>
      </trkpt>
      <trkpt lat="1.986999" lon="-76.772009">
        <ele>3711.909</ele>
        <time>2022-12-18T07:02:47Z</time>
      </trkpt>
      <trkpt lat="1.987013" lon="-76.771958">
        <ele>3711.815</ele>
        <time>2022-12-18T07:02:49Z</time>
      </trkpt>
      <trkpt lat="1.987028" lon="-76.771915">
        <ele>3711.136</ele>
        <time>2022-12-18T07:02:51Z</time>
      </trkpt>
      <trkpt lat="1.987035" lon="-76.771859">
        <ele>3710.915</ele>
        <time>2022-12-18T07:02:53Z</time>
      </trkpt>
      <trkpt lat="1.987033" lon="-76.771811">
        <ele>3710.849</ele>
        <time>2022-12-18T07:02:55Z</time>
      </trkpt>
      <trkpt lat="1.987026" lon="-76.771766">
        <ele>3710.876</ele>
        <time>2022-12-18T07:02:57Z</time>
      </trkpt>
      <trkpt lat="1.987005" lon="-76.771726">
        <ele>3711.194</ele>
        <time>2022-12-18T07:02:59Z</time>
      </trkpt>
      <trkpt lat="1.986972" lon="-76.771691">
        <ele>3711.239</ele>
        <time>2022-12-18T07:03:01Z</time>
      </trkpt>
      <trkpt lat="1.986936" lon="-76.771658">
        <ele>3711.590</ele>
        <time>2022-12-18T07:03:03Z</time>
      </trkpt>
      <trkpt lat="1.986897" lon="-76.771633">
        <ele>3711.637</ele>
        <time>2022-12-18T07:03:05Z</time>
      </trkpt>
      <trkpt lat="1.986854" lon="-76.771614">
        <ele>3711.716</ele>
        <time>2022-12-18T07:03:07Z</time>
      </trkpt>
      <trkpt lat="1.986789" lon="-76.771619">
        <ele>3712.276</ele>
        <time>2022-12-18T07:03:10Z</time>
      </trkpt>
      <trkpt lat="1.986744" lon="-76.771635">
        <ele>3712.213</ele>
        <time>2022-12-18T07:03:12Z</time>
      </trkpt>
      <trkpt lat="1.986698" lon="-76.771646">
        <ele>3712.409</ele>
        <time>2022-12-18T07:03:14Z</time>
      </trkpt>
      <trkpt lat="1.986653" lon="-76.771665">
        <ele>3712.752</ele>
        <time>2022-12-18T07:03:16Z</time>
      </trkpt>
      <trkpt lat="1.98659" lon="-76.77169">
        <ele>3712.943</ele>
        <time>2022-12-18T07:03:19Z</time>
      </trkpt>
      <trkpt lat="1.98654" lon="-76.771718">
        <ele>3713.372</ele>
        <time>2022-12-18T07:03:22Z</time>
      </trkpt>
      <trkpt lat="1.986496" lon="-76.771741">
        <ele>3713.586</ele>
        <time>2022-12-18T07:03:24Z</time>
      </trkpt>
      <trkpt lat="1.986451" lon="-76.771763">
        <ele>3713.573</ele>
        <time>2022-12-18T07:03:26Z</time>
      </trkpt>
      <trkpt lat="1.986412" lon="-76.771792">
        <ele>3713.541</ele>
        <time>2022-12-18T07:03:28Z</time>
      </trkpt>
      <trkpt lat="1.986364" lon="-76.77181">
        <ele>3713.546</ele>
        <time>2022-12-18T07:03:30Z</time>
      </trkpt>
      <trkpt lat="1.986323" lon="-76.771838">
        <ele>3713.577</ele>
        <time>2022-12-18T07:03:32Z</time>
      </trkpt>
      <trkpt lat="1.986284" lon="-76.771862">
        <ele>3713.564</ele>
        <time>2022-12-18T07:03:34Z</time>
      </trkpt>
      <trkpt lat="1.986236" lon="-76.771876">
        <ele>3713.518</ele>
        <time>2022-12-18T07:03:36Z</time>
      </trkpt>
      <trkpt lat="1.986187" lon="-76.771893">
        <ele>3713.598</ele>
        <time>2022-12-18T07:03:38Z</time>
      </trkpt>
      <trkpt lat="1.986143" lon="-76.771909">
        <ele>3713.817</ele>
        <time>2022-12-18T07:03:40Z</time>
      </trkpt>
      <trkpt lat="1.986108" lon="-76.771942">
        <ele>3714.009</ele>
        <time>2022-12-18T07:03:42Z</time>
      </trkpt>
      <trkpt lat="1.986062" lon="-76.77196">
        <ele>3714.082</ele>
        <time>2022-12-18T07:03:44Z</time>
      </trkpt>
      <trkpt lat="1.986017" lon="-76.771978">
        <ele>3714.793</ele>
        <time>2022-12-18T07:03:46Z</time>
      </trkpt>
      <trkpt lat="1.985969" lon="-76.77199">
        <ele>3715.472</ele>
        <time>2022-12-18T07:03:48Z</time>
      </trkpt>
      <trkpt lat="1.985919" lon="-76.772001">
        <ele>3715.626</ele>
        <time>2022-12-18T07:03:50Z</time>
      </trkpt>
      <trkpt lat="1.985873" lon="-76.772017">
        <ele>3715.973</ele>
        <time>2022-12-18T07:03:52Z</time>
      </trkpt>
      <trkpt lat="1.98583" lon="-76.772043">
        <ele>3716.951</ele>
        <time>2022-12-18T07:03:54Z</time>
      </trkpt>
      <trkpt lat="1.985787" lon="-76.772058">
        <ele>3717.686</ele>
        <time>2022-12-18T07:03:56Z</time>
      </trkpt>
      <trkpt lat="1.98574" lon="-76.772079">
        <ele>3718.297</ele>
        <time>2022-12-18T07:03:58Z</time>
      </trkpt>
      <trkpt lat="1.9857" lon="-76.772111">
        <ele>3718.384</ele>
        <time>2022-12-18T07:04:00Z</time>
      </trkpt>
      <trkpt lat="1.985656" lon="-76.772137">
        <ele>3718.568</ele>
        <time>2022-12-18T07:04:02Z</time>
      </trkpt>
      <trkpt lat="1.985611" lon="-76.772154">
        <ele>3718.742</ele>
        <time>2022-12-18T07:04:04Z</time>
      </trkpt>
      <trkpt lat="1.985565" lon="-76.772169">
        <ele>3719.326</ele>
        <time>2022-12-18T07:04:06Z</time>
      </trkpt>
      <trkpt lat="1.985521" lon="-76.772187">
        <ele>3719.509</ele>
        <time>2022-12-18T07:04:08Z</time>
      </trkpt>
      <trkpt lat="1.985478" lon="-76.772201">
        <ele>3719.717</ele>
        <time>2022-12-18T07:04:10Z</time>
      </trkpt>
      <trkpt lat="1.985428" lon="-76.772202">
        <ele>3720.028</ele>
        <time>2022-12-18T07:04:12Z</time>
      </trkpt>
      <trkpt lat="1.985363" lon="-76.772201">
        <ele>3720.237</ele>
        <time>2022-12-18T07:04:15Z</time>
      </trkpt>
      <trkpt lat="1.985302" lon="-76.772183">
        <ele>3720.491</ele>
        <time>2022-12-18T07:04:18Z</time>
      </trkpt>
      <trkpt lat="1.985251" lon="-76.772189">
        <ele>3720.778</ele>
        <time>2022-12-18T07:04:20Z</time>
      </trkpt>
      <trkpt lat="1.985206" lon="-76.772189">
        <ele>3720.956</ele>
        <time>2022-12-18T07:04:22Z</time>
      </trkpt>
      <trkpt lat="1.98516" lon="-76.772155">
        <ele>3721.191</ele>
        <time>2022-12-18T07:04:25Z</time>
      </trkpt>
      <trkpt lat="1.985106" lon="-76.77213">
        <ele>3721.722</ele>
        <time>2022-12-18T07:04:27Z</time>
      </trkpt>
      <trkpt lat="1.985059" lon="-76.772107">
        <ele>3721.929</ele>
        <time>2022-12-18T07:04:30Z</time>
      </trkpt>
      <trkpt lat="1.985009" lon="-76.772091">
        <ele>3722.332</ele>
        <time>2022-12-18T07:04:32Z</time>
      </trkpt>
      <trkpt lat="1.984962" lon="-76.772089">
        <ele>3722.692</ele>
        <time>2022-12-18T07:04:34Z</time>
      </trkpt>
      <trkpt lat="1.984912" lon="-76.77208">
        <ele>3723.211</ele>
        <time>2022-12-18T07:04:36Z</time>
      </trkpt>
      <trkpt lat="1.984844" lon="-76.772074">
        <ele>3723.309</ele>
        <time>2022-12-18T07:04:39Z</time>
      </trkpt>
      <trkpt lat="1.984797" lon="-76.772078">
        <ele>3723.654</ele>
        <time>2022-12-18T07:04:41Z</time>
      </trkpt>
      <trkpt lat="1.984751" lon="-76.772083">
        <ele>3723.655</ele>
        <time>2022-12-18T07:04:43Z</time>
      </trkpt>
      <trkpt lat="1.984706" lon="-76.772091">
        <ele>3723.654</ele>
        <time>2022-12-18T07:04:45Z</time>
      </trkpt>
      <trkpt lat="1.984646" lon="-76.772111">
        <ele>3724.688</ele>
        <time>2022-12-18T07:04:48Z</time>
      </trkpt>
      <trkpt lat="1.984597" lon="-76.772127">
        <ele>3725.575</ele>
        <time>2022-12-18T07:04:50Z</time>
      </trkpt>
      <trkpt lat="1.984551" lon="-76.772135">
        <ele>3726.063</ele>
        <time>2022-12-18T07:04:52Z</time>
      </trkpt>
      <trkpt lat="1.984491" lon="-76.772156">
        <ele>3726.628</ele>
        <time>2022-12-18T07:04:55Z</time>
      </trkpt>
      <trkpt lat="1.984448" lon="-76.772183">
        <ele>3727.729</ele>
        <time>2022-12-18T07:04:57Z</time>
      </trkpt>
      <trkpt lat="1.984397" lon="-76.7722">
        <ele>3728.886</ele>
        <time>2022-12-18T07:04:59Z</time>
      </trkpt>
      <trkpt lat="1.984031" lon="-76.772259">
        <ele>3729.167</ele>
        <time>2022-12-18T07:05:30Z</time>
      </trkpt>
      <trkpt lat="1.983786" lon="-76.772283">
        <ele>3733.081</ele>
        <time>2022-12-18T07:05:31Z</time>
      </trkpt>
      <trkpt lat="1.983671" lon="-76.772274">
        <ele>3732.819</ele>
        <time>2022-12-18T07:05:33Z</time>
      </trkpt>
      <trkpt lat="1.983616" lon="-76.772257">
        <ele>3732.709</ele>
        <time>2022-12-18T07:05:35Z</time>
      </trkpt>
      <trkpt lat="1.983575" lon="-76.772235">
        <ele>3732.717</ele>
        <time>2022-12-18T07:05:37Z</time>
      </trkpt>
      <trkpt lat="1.983532" lon="-76.772213">
        <ele>3732.998</ele>
        <time>2022-12-18T07:05:40Z</time>
      </trkpt>
      <trkpt lat="1.983477" lon="-76.77219">
        <ele>3732.987</ele>
        <time>2022-12-18T07:05:41Z</time>
      </trkpt>
      <trkpt lat="1.983435" lon="-76.772173">
        <ele>3733.061</ele>
        <time>2022-12-18T07:05:43Z</time>
      </trkpt>
      <trkpt lat="1.983381" lon="-76.772143">
        <ele>3733.418</ele>
        <time>2022-12-18T07:05:46Z</time>
      </trkpt>
      <trkpt lat="1.983327" lon="-76.772138">
        <ele>3733.676</ele>
        <time>2022-12-18T07:05:48Z</time>
      </trkpt>
      <trkpt lat="1.983264" lon="-76.772144">
        <ele>3734.191</ele>
        <time>2022-12-18T07:05:51Z</time>
      </trkpt>
      <trkpt lat="1.983222" lon="-76.772124">
        <ele>3734.222</ele>
        <time>2022-12-18T07:05:53Z</time>
      </trkpt>
      <trkpt lat="1.983163" lon="-76.772091">
        <ele>3734.959</ele>
        <time>2022-12-18T07:05:56Z</time>
      </trkpt>
      <trkpt lat="1.983111" lon="-76.772072">
        <ele>3735.694</ele>
        <time>2022-12-18T07:05:59Z</time>
      </trkpt>
      <trkpt lat="1.98306" lon="-76.772033">
        <ele>3736.257</ele>
        <time>2022-12-18T07:06:02Z</time>
      </trkpt>
      <trkpt lat="1.983016" lon="-76.772021">
        <ele>3736.422</ele>
        <time>2022-12-18T07:06:04Z</time>
      </trkpt>
      <trkpt lat="1.982967" lon="-76.772008">
        <ele>3737.209</ele>
        <time>2022-12-18T07:06:07Z</time>
      </trkpt>
      <trkpt lat="1.98291" lon="-76.77201">
        <ele>3738.680</ele>
        <time>2022-12-18T07:06:10Z</time>
      </trkpt>
      <trkpt lat="1.982867" lon="-76.771993">
        <ele>3738.771</ele>
        <time>2022-12-18T07:06:12Z</time>
      </trkpt>
      <trkpt lat="1.98282" lon="-76.771979">
        <ele>3739.660</ele>
        <time>2022-12-18T07:06:14Z</time>
      </trkpt>
      <trkpt lat="1.98276" lon="-76.771955">
        <ele>3740.494</ele>
        <time>2022-12-18T07:06:17Z</time>
      </trkpt>
      <trkpt lat="1.982701" lon="-76.771934">
        <ele>3740.761</ele>
        <time>2022-12-18T07:06:20Z</time>
      </trkpt>
      <trkpt lat="1.982643" lon="-76.771906">
        <ele>3740.969</ele>
        <time>2022-12-18T07:06:23Z</time>
      </trkpt>
      <trkpt lat="1.982585" lon="-76.771875">
        <ele>3741.014</ele>
        <time>2022-12-18T07:06:26Z</time>
      </trkpt>
      <trkpt lat="1.982535" lon="-76.771854">
        <ele>3741.085</ele>
        <time>2022-12-18T07:06:28Z</time>
      </trkpt>
      <trkpt lat="1.982488" lon="-76.771835">
        <ele>3740.952</ele>
        <time>2022-12-18T07:06:31Z</time>
      </trkpt>
      <trkpt lat="1.982441" lon="-76.771816">
        <ele>3740.862</ele>
        <time>2022-12-18T07:06:33Z</time>
      </trkpt>
      <trkpt lat="1.982391" lon="-76.771797">
        <ele>3740.783</ele>
        <time>2022-12-18T07:06:35Z</time>
      </trkpt>
      <trkpt lat="1.982345" lon="-76.771777">
        <ele>3740.711</ele>
        <time>2022-12-18T07:06:37Z</time>
      </trkpt>
      <trkpt lat="1.982301" lon="-76.771754">
        <ele>3740.709</ele>
        <time>2022-12-18T07:06:39Z</time>
      </trkpt>
      <trkpt lat="1.982254" lon="-76.771737">
        <ele>3740.757</ele>
        <time>2022-12-18T07:06:41Z</time>
      </trkpt>
      <trkpt lat="1.982208" lon="-76.771719">
        <ele>3740.738</ele>
        <time>2022-12-18T07:06:43Z</time>
      </trkpt>
      <trkpt lat="1.982149" lon="-76.771697">
        <ele>3740.817</ele>
        <time>2022-12-18T07:06:46Z</time>
      </trkpt>
      <trkpt lat="1.982107" lon="-76.77167">
        <ele>3740.931</ele>
        <time>2022-12-18T07:06:48Z</time>
      </trkpt>
      <trkpt lat="1.98206" lon="-76.771654">
        <ele>3741.088</ele>
        <time>2022-12-18T07:06:50Z</time>
      </trkpt>
      <trkpt lat="1.98202" lon="-76.771626">
        <ele>3741.326</ele>
        <time>2022-12-18T07:06:52Z</time>
      </trkpt>
      <trkpt lat="1.981982" lon="-76.771594">
        <ele>3741.581</ele>
        <time>2022-12-18T07:06:54Z</time>
      </trkpt>
      <trkpt lat="1.981953" lon="-76.77155">
        <ele>3741.762</ele>
        <time>2022-12-18T07:06:56Z</time>
      </trkpt>
      <trkpt lat="1.981923" lon="-76.771511">
        <ele>3742.039</ele>
        <time>2022-12-18T07:06:58Z</time>
      </trkpt>
      <trkpt lat="1.981886" lon="-76.771466">
        <ele>3742.368</ele>
        <time>2022-12-18T07:07:01Z</time>
      </trkpt>
      <trkpt lat="1.981852" lon="-76.771434">
        <ele>3742.542</ele>
        <time>2022-12-18T07:07:03Z</time>
      </trkpt>
      <trkpt lat="1.981824" lon="-76.771375">
        <ele>3742.826</ele>
        <time>2022-12-18T07:07:06Z</time>
      </trkpt>
      <trkpt lat="1.981781" lon="-76.77133">
        <ele>3743.009</ele>
        <time>2022-12-18T07:07:09Z</time>
      </trkpt>
      <trkpt lat="1.981731" lon="-76.771292">
        <ele>3743.817</ele>
        <time>2022-12-18T07:07:12Z</time>
      </trkpt>
      <trkpt lat="1.981701" lon="-76.771254">
        <ele>3743.988</ele>
        <time>2022-12-18T07:07:14Z</time>
      </trkpt>
      <trkpt lat="1.981659" lon="-76.771206">
        <ele>3744.637</ele>
        <time>2022-12-18T07:07:17Z</time>
      </trkpt>
      <trkpt lat="1.981625" lon="-76.771156">
        <ele>3744.851</ele>
        <time>2022-12-18T07:07:20Z</time>
      </trkpt>
      <trkpt lat="1.981577" lon="-76.771114">
        <ele>3745.498</ele>
        <time>2022-12-18T07:07:23Z</time>
      </trkpt>
      <trkpt lat="1.981536" lon="-76.771067">
        <ele>3746.616</ele>
        <time>2022-12-18T07:07:26Z</time>
      </trkpt>
      <trkpt lat="1.981518" lon="-76.771024">
        <ele>3747.361</ele>
        <time>2022-12-18T07:07:29Z</time>
      </trkpt>
      <trkpt lat="1.981492" lon="-76.770981">
        <ele>3747.712</ele>
        <time>2022-12-18T07:07:33Z</time>
      </trkpt>
      <trkpt lat="1.981441" lon="-76.77097">
        <ele>3747.759</ele>
        <time>2022-12-18T07:07:37Z</time>
      </trkpt>
      <trkpt lat="1.981396" lon="-76.770933">
        <ele>3747.687</ele>
        <time>2022-12-18T07:07:40Z</time>
      </trkpt>
      <trkpt lat="1.98135" lon="-76.770902">
        <ele>3747.042</ele>
        <time>2022-12-18T07:07:43Z</time>
      </trkpt>
      <trkpt lat="1.981299" lon="-76.770883">
        <ele>3746.926</ele>
        <time>2022-12-18T07:07:46Z</time>
      </trkpt>
      <trkpt lat="1.981249" lon="-76.770852">
        <ele>3746.809</ele>
        <time>2022-12-18T07:07:49Z</time>
      </trkpt>
      <trkpt lat="1.981199" lon="-76.770827">
        <ele>3746.889</ele>
        <time>2022-12-18T07:07:52Z</time>
      </trkpt>
      <trkpt lat="1.981139" lon="-76.770797">
        <ele>3746.550</ele>
        <time>2022-12-18T07:07:55Z</time>
      </trkpt>
      <trkpt lat="1.981075" lon="-76.770793">
        <ele>3746.389</ele>
        <time>2022-12-18T07:07:58Z</time>
      </trkpt>
      <trkpt lat="1.981008" lon="-76.770792">
        <ele>3746.213</ele>
        <time>2022-12-18T07:08:01Z</time>
      </trkpt>
      <trkpt lat="1.980957" lon="-76.77079">
        <ele>3746.240</ele>
        <time>2022-12-18T07:08:03Z</time>
      </trkpt>
      <trkpt lat="1.980908" lon="-76.770796">
        <ele>3746.088</ele>
        <time>2022-12-18T07:08:05Z</time>
      </trkpt>
      <trkpt lat="1.980855" lon="-76.770795">
        <ele>3745.143</ele>
        <time>2022-12-18T07:08:07Z</time>
      </trkpt>
      <trkpt lat="1.9808" lon="-76.770785">
        <ele>3744.734</ele>
        <time>2022-12-18T07:08:09Z</time>
      </trkpt>
      <trkpt lat="1.98074" lon="-76.770778">
        <ele>3744.351</ele>
        <time>2022-12-18T07:08:11Z</time>
      </trkpt>
      <trkpt lat="1.980677" lon="-76.770774">
        <ele>3744.112</ele>
        <time>2022-12-18T07:08:13Z</time>
      </trkpt>
      <trkpt lat="1.980619" lon="-76.770763">
        <ele>3744.132</ele>
        <time>2022-12-18T07:08:15Z</time>
      </trkpt>
      <trkpt lat="1.980565" lon="-76.770752">
        <ele>3744.005</ele>
        <time>2022-12-18T07:08:17Z</time>
      </trkpt>
      <trkpt lat="1.980516" lon="-76.770742">
        <ele>3743.609</ele>
        <time>2022-12-18T07:08:19Z</time>
      </trkpt>
      <trkpt lat="1.98045" lon="-76.770719">
        <ele>3743.622</ele>
        <time>2022-12-18T07:08:22Z</time>
      </trkpt>
      <trkpt lat="1.980399" lon="-76.770696">
        <ele>3743.673</ele>
        <time>2022-12-18T07:08:24Z</time>
      </trkpt>
      <trkpt lat="1.980347" lon="-76.770674">
        <ele>3743.612</ele>
        <time>2022-12-18T07:08:26Z</time>
      </trkpt>
      <trkpt lat="1.980293" lon="-76.770651">
        <ele>3743.646</ele>
        <time>2022-12-18T07:08:28Z</time>
      </trkpt>
      <trkpt lat="1.980244" lon="-76.770626">
        <ele>3743.543</ele>
        <time>2022-12-18T07:08:30Z</time>
      </trkpt>
      <trkpt lat="1.980201" lon="-76.770608">
        <ele>3743.451</ele>
        <time>2022-12-18T07:08:32Z</time>
      </trkpt>
      <trkpt lat="1.980151" lon="-76.770579">
        <ele>3743.436</ele>
        <time>2022-12-18T07:08:34Z</time>
      </trkpt>
      <trkpt lat="1.980098" lon="-76.770554">
        <ele>3743.127</ele>
        <time>2022-12-18T07:08:36Z</time>
      </trkpt>
      <trkpt lat="1.980052" lon="-76.770528">
        <ele>3742.814</ele>
        <time>2022-12-18T07:08:38Z</time>
      </trkpt>
      <trkpt lat="1.979999" lon="-76.770501">
        <ele>3742.629</ele>
        <time>2022-12-18T07:08:40Z</time>
      </trkpt>
      <trkpt lat="1.979945" lon="-76.77047">
        <ele>3742.600</ele>
        <time>2022-12-18T07:08:42Z</time>
      </trkpt>
      <trkpt lat="1.979884" lon="-76.770434">
        <ele>3742.520</ele>
        <time>2022-12-18T07:08:44Z</time>
      </trkpt>
      <trkpt lat="1.979835" lon="-76.770385">
        <ele>3742.509</ele>
        <time>2022-12-18T07:08:46Z</time>
      </trkpt>
      <trkpt lat="1.979778" lon="-76.770353">
        <ele>3741.763</ele>
        <time>2022-12-18T07:08:48Z</time>
      </trkpt>
      <trkpt lat="1.979726" lon="-76.770325">
        <ele>3741.784</ele>
        <time>2022-12-18T07:08:50Z</time>
      </trkpt>
      <trkpt lat="1.97967" lon="-76.77031">
        <ele>3741.793</ele>
        <time>2022-12-18T07:08:52Z</time>
      </trkpt>
      <trkpt lat="1.979606" lon="-76.770286">
        <ele>3742.087</ele>
        <time>2022-12-18T07:08:54Z</time>
      </trkpt>
      <trkpt lat="1.979536" lon="-76.77027">
        <ele>3742.054</ele>
        <time>2022-12-18T07:08:56Z</time>
      </trkpt>
      <trkpt lat="1.979472" lon="-76.770238">
        <ele>3742.282</ele>
        <time>2022-12-18T07:08:58Z</time>
      </trkpt>
      <trkpt lat="1.979419" lon="-76.770206">
        <ele>3742.287</ele>
        <time>2022-12-18T07:09:00Z</time>
      </trkpt>
      <trkpt lat="1.979377" lon="-76.77018">
        <ele>3742.738</ele>
        <time>2022-12-18T07:09:02Z</time>
      </trkpt>
      <trkpt lat="1.979334" lon="-76.770143">
        <ele>3743.665</ele>
        <time>2022-12-18T07:09:04Z</time>
      </trkpt>
      <trkpt lat="1.979296" lon="-76.770099">
        <ele>3744.247</ele>
        <time>2022-12-18T07:09:06Z</time>
      </trkpt>
      <trkpt lat="1.979249" lon="-76.770056">
        <ele>3745.129</ele>
        <time>2022-12-18T07:09:08Z</time>
      </trkpt>
      <trkpt lat="1.979201" lon="-76.770018">
        <ele>3745.121</ele>
        <time>2022-12-18T07:09:10Z</time>
      </trkpt>
      <trkpt lat="1.979158" lon="-76.769976">
        <ele>3745.109</ele>
        <time>2022-12-18T07:09:12Z</time>
      </trkpt>
      <trkpt lat="1.979111" lon="-76.769931">
        <ele>3745.285</ele>
        <time>2022-12-18T07:09:14Z</time>
      </trkpt>
      <trkpt lat="1.979059" lon="-76.769893">
        <ele>3745.376</ele>
        <time>2022-12-18T07:09:16Z</time>
      </trkpt>
      <trkpt lat="1.979003" lon="-76.769871">
        <ele>3745.455</ele>
        <time>2022-12-18T07:09:18Z</time>
      </trkpt>
      <trkpt lat="1.97895" lon="-76.769851">
        <ele>3745.929</ele>
        <time>2022-12-18T07:09:20Z</time>
      </trkpt>
      <trkpt lat="1.978898" lon="-76.769833">
        <ele>3746.096</ele>
        <time>2022-12-18T07:09:22Z</time>
      </trkpt>
      <trkpt lat="1.97884" lon="-76.769811">
        <ele>3746.214</ele>
        <time>2022-12-18T07:09:24Z</time>
      </trkpt>
      <trkpt lat="1.97878" lon="-76.76979">
        <ele>3747.419</ele>
        <time>2022-12-18T07:09:26Z</time>
      </trkpt>
      <trkpt lat="1.978712" lon="-76.769786">
        <ele>3747.780</ele>
        <time>2022-12-18T07:09:28Z</time>
      </trkpt>
      <trkpt lat="1.978651" lon="-76.769796">
        <ele>3747.777</ele>
        <time>2022-12-18T07:09:30Z</time>
      </trkpt>
      <trkpt lat="1.97858" lon="-76.769801">
        <ele>3747.068</ele>
        <time>2022-12-18T07:09:32Z</time>
      </trkpt>
      <trkpt lat="1.978508" lon="-76.769812">
        <ele>3746.342</ele>
        <time>2022-12-18T07:09:34Z</time>
      </trkpt>
      <trkpt lat="1.978434" lon="-76.769827">
        <ele>3745.626</ele>
        <time>2022-12-18T07:09:36Z</time>
      </trkpt>
      <trkpt lat="1.978361" lon="-76.769844">
        <ele>3744.609</ele>
        <time>2022-12-18T07:09:38Z</time>
      </trkpt>
      <trkpt lat="1.978283" lon="-76.769851">
        <ele>3743.347</ele>
        <time>2022-12-18T07:09:40Z</time>
      </trkpt>
      <trkpt lat="1.978211" lon="-76.769858">
        <ele>3742.888</ele>
        <time>2022-12-18T07:09:42Z</time>
      </trkpt>
      <trkpt lat="1.978146" lon="-76.769864">
        <ele>3741.667</ele>
        <time>2022-12-18T07:09:44Z</time>
      </trkpt>
      <trkpt lat="1.978083" lon="-76.769868">
        <ele>3740.791</ele>
        <time>2022-12-18T07:09:46Z</time>
      </trkpt>
      <trkpt lat="1.978016" lon="-76.769878">
        <ele>3740.198</ele>
        <time>2022-12-18T07:09:48Z</time>
      </trkpt>
      <trkpt lat="1.977953" lon="-76.76989">
        <ele>3739.966</ele>
        <time>2022-12-18T07:09:50Z</time>
      </trkpt>
      <trkpt lat="1.977886" lon="-76.769895">
        <ele>3739.981</ele>
        <time>2022-12-18T07:09:52Z</time>
      </trkpt>
      <trkpt lat="1.977819" lon="-76.769905">
        <ele>3739.982</ele>
        <time>2022-12-18T07:09:54Z</time>
      </trkpt>
      <trkpt lat="1.977753" lon="-76.769917">
        <ele>3740.139</ele>
        <time>2022-12-18T07:09:56Z</time>
      </trkpt>
      <trkpt lat="1.977689" lon="-76.769925">
        <ele>3740.359</ele>
        <time>2022-12-18T07:09:58Z</time>
      </trkpt>
      <trkpt lat="1.97764" lon="-76.769934">
        <ele>3740.403</ele>
        <time>2022-12-18T07:09:59Z</time>
      </trkpt>
      <trkpt lat="1.977593" lon="-76.769939">
        <ele>3741.323</ele>
        <time>2022-12-18T07:10:01Z</time>
      </trkpt>
      <trkpt lat="1.977525" lon="-76.769943">
        <ele>3741.609</ele>
        <time>2022-12-18T07:10:04Z</time>
      </trkpt>
      <trkpt lat="1.977467" lon="-76.769944">
        <ele>3742.356</ele>
        <time>2022-12-18T07:10:06Z</time>
      </trkpt>
      <trkpt lat="1.977415" lon="-76.769936">
        <ele>3742.327</ele>
        <time>2022-12-18T07:10:08Z</time>
      </trkpt>
      <trkpt lat="1.977348" lon="-76.769915">
        <ele>3742.496</ele>
        <time>2022-12-18T07:10:10Z</time>
      </trkpt>
      <trkpt lat="1.977283" lon="-76.769889">
        <ele>3742.830</ele>
        <time>2022-12-18T07:10:12Z</time>
      </trkpt>
      <trkpt lat="1.977222" lon="-76.769845">
        <ele>3743.097</ele>
        <time>2022-12-18T07:10:14Z</time>
      </trkpt>
      <trkpt lat="1.977171" lon="-76.769815">
        <ele>3743.015</ele>
        <time>2022-12-18T07:10:16Z</time>
      </trkpt>
      <trkpt lat="1.977119" lon="-76.769777">
        <ele>3743.370</ele>
        <time>2022-12-18T07:10:18Z</time>
      </trkpt>
      <trkpt lat="1.977071" lon="-76.769737">
        <ele>3743.471</ele>
        <time>2022-12-18T07:10:20Z</time>
      </trkpt>
      <trkpt lat="1.977022" lon="-76.769699">
        <ele>3743.858</ele>
        <time>2022-12-18T07:10:22Z</time>
      </trkpt>
      <trkpt lat="1.976972" lon="-76.769667">
        <ele>3744.355</ele>
        <time>2022-12-18T07:10:24Z</time>
      </trkpt>
      <trkpt lat="1.976925" lon="-76.769628">
        <ele>3744.907</ele>
        <time>2022-12-18T07:10:26Z</time>
      </trkpt>
      <trkpt lat="1.976882" lon="-76.769593">
        <ele>3745.117</ele>
        <time>2022-12-18T07:10:28Z</time>
      </trkpt>
      <trkpt lat="1.976833" lon="-76.769553">
        <ele>3746.209</ele>
        <time>2022-12-18T07:10:30Z</time>
      </trkpt>
      <trkpt lat="1.976782" lon="-76.769518">
        <ele>3746.716</ele>
        <time>2022-12-18T07:10:32Z</time>
      </trkpt>
      <trkpt lat="1.976717" lon="-76.769479">
        <ele>3747.377</ele>
        <time>2022-12-18T07:10:35Z</time>
      </trkpt>
      <trkpt lat="1.976668" lon="-76.769458">
        <ele>3747.446</ele>
        <time>2022-12-18T07:10:37Z</time>
      </trkpt>
      <trkpt lat="1.976609" lon="-76.769431">
        <ele>3747.420</ele>
        <time>2022-12-18T07:10:40Z</time>
      </trkpt>
      <trkpt lat="1.976549" lon="-76.769415">
        <ele>3748.437</ele>
        <time>2022-12-18T07:10:43Z</time>
      </trkpt>
      <trkpt lat="1.976502" lon="-76.769402">
        <ele>3748.615</ele>
        <time>2022-12-18T07:10:45Z</time>
      </trkpt>
      <trkpt lat="1.976443" lon="-76.769386">
        <ele>3749.530</ele>
        <time>2022-12-18T07:10:47Z</time>
      </trkpt>
      <trkpt lat="1.976396" lon="-76.769379">
        <ele>3749.511</ele>
        <time>2022-12-18T07:10:49Z</time>
      </trkpt>
      <trkpt lat="1.976341" lon="-76.769378">
        <ele>3749.988</ele>
        <time>2022-12-18T07:10:51Z</time>
      </trkpt>
      <trkpt lat="1.976255" lon="-76.769371">
        <ele>3750.958</ele>
        <time>2022-12-18T07:10:53Z</time>
      </trkpt>
      <trkpt lat="1.976177" lon="-76.769353">
        <ele>3751.552</ele>
        <time>2022-12-18T07:10:55Z</time>
      </trkpt>
      <trkpt lat="1.976056" lon="-76.769335">
        <ele>3751.817</ele>
        <time>2022-12-18T07:10:57Z</time>
      </trkpt>
      <trkpt lat="1.975936" lon="-76.769311">
        <ele>3746.209</ele>
        <time>2022-12-18T07:10:59Z</time>
      </trkpt>
      <trkpt lat="1.975873" lon="-76.769264">
        <ele>3745.926</ele>
        <time>2022-12-18T07:11:01Z</time>
      </trkpt>
      <trkpt lat="1.975825" lon="-76.769224">
        <ele>3745.017</ele>
        <time>2022-12-18T07:11:03Z</time>
      </trkpt>
      <trkpt lat="1.975772" lon="-76.769184">
        <ele>3745.066</ele>
        <time>2022-12-18T07:11:05Z</time>
      </trkpt>
      <trkpt lat="1.975714" lon="-76.769141">
        <ele>3745.050</ele>
        <time>2022-12-18T07:11:07Z</time>
      </trkpt>
      <trkpt lat="1.975669" lon="-76.769092">
        <ele>3745.097</ele>
        <time>2022-12-18T07:11:09Z</time>
      </trkpt>
      <trkpt lat="1.975622" lon="-76.769047">
        <ele>3745.195</ele>
        <time>2022-12-18T07:11:11Z</time>
      </trkpt>
      <trkpt lat="1.975576" lon="-76.769002">
        <ele>3745.320</ele>
        <time>2022-12-18T07:11:13Z</time>
      </trkpt>
      <trkpt lat="1.975523" lon="-76.768959">
        <ele>3745.551</ele>
        <time>2022-12-18T07:11:15Z</time>
      </trkpt>
      <trkpt lat="1.975475" lon="-76.76891">
        <ele>3746.418</ele>
        <time>2022-12-18T07:11:17Z</time>
      </trkpt>
      <trkpt lat="1.975426" lon="-76.768864">
        <ele>3746.482</ele>
        <time>2022-12-18T07:11:19Z</time>
      </trkpt>
      <trkpt lat="1.975375" lon="-76.768816">
        <ele>3746.443</ele>
        <time>2022-12-18T07:11:21Z</time>
      </trkpt>
      <trkpt lat="1.975326" lon="-76.768772">
        <ele>3746.417</ele>
        <time>2022-12-18T07:11:23Z</time>
      </trkpt>
      <trkpt lat="1.975284" lon="-76.768728">
        <ele>3746.409</ele>
        <time>2022-12-18T07:11:25Z</time>
      </trkpt>
      <trkpt lat="1.97524" lon="-76.768684">
        <ele>3746.869</ele>
        <time>2022-12-18T07:11:27Z</time>
      </trkpt>
      <trkpt lat="1.975203" lon="-76.768628">
        <ele>3747.050</ele>
        <time>2022-12-18T07:11:29Z</time>
      </trkpt>
      <trkpt lat="1.975164" lon="-76.768573">
        <ele>3747.089</ele>
        <time>2022-12-18T07:11:31Z</time>
      </trkpt>
      <trkpt lat="1.97514" lon="-76.768528">
        <ele>3748.173</ele>
        <time>2022-12-18T07:11:32Z</time>
      </trkpt>
      <trkpt lat="1.975124" lon="-76.768478">
        <ele>3749.290</ele>
        <time>2022-12-18T07:11:34Z</time>
      </trkpt>
      <trkpt lat="1.975102" lon="-76.768426">
        <ele>3749.668</ele>
        <time>2022-12-18T07:11:36Z</time>
      </trkpt>
      <trkpt lat="1.975093" lon="-76.768369">
        <ele>3750.033</ele>
        <time>2022-12-18T07:11:39Z</time>
      </trkpt>
      <trkpt lat="1.975073" lon="-76.768313">
        <ele>3751.024</ele>
        <time>2022-12-18T07:11:42Z</time>
      </trkpt>
      <trkpt lat="1.975047" lon="-76.768269">
        <ele>3752.791</ele>
        <time>2022-12-18T07:11:44Z</time>
      </trkpt>
      <trkpt lat="1.975007" lon="-76.76823">
        <ele>3754.264</ele>
        <time>2022-12-18T07:11:46Z</time>
      </trkpt>
      <trkpt lat="1.974948" lon="-76.768192">
        <ele>3754.806</ele>
        <time>2022-12-18T07:11:48Z</time>
      </trkpt>
      <trkpt lat="1.974887" lon="-76.768158">
        <ele>3755.016</ele>
        <time>2022-12-18T07:11:50Z</time>
      </trkpt>
      <trkpt lat="1.974814" lon="-76.768133">
        <ele>3754.409</ele>
        <time>2022-12-18T07:11:52Z</time>
      </trkpt>
      <trkpt lat="1.974752" lon="-76.768114">
        <ele>3753.827</ele>
        <time>2022-12-18T07:11:54Z</time>
      </trkpt>
      <trkpt lat="1.974682" lon="-76.768086">
        <ele>3753.688</ele>
        <time>2022-12-18T07:11:56Z</time>
      </trkpt>
      <trkpt lat="1.97462" lon="-76.768068">
        <ele>3753.827</ele>
        <time>2022-12-18T07:11:58Z</time>
      </trkpt>
      <trkpt lat="1.974565" lon="-76.768051">
        <ele>3754.241</ele>
        <time>2022-12-18T07:12:00Z</time>
      </trkpt>
      <trkpt lat="1.974509" lon="-76.76804">
        <ele>3754.438</ele>
        <time>2022-12-18T07:12:02Z</time>
      </trkpt>
      <trkpt lat="1.974439" lon="-76.768029">
        <ele>3754.966</ele>
        <time>2022-12-18T07:12:03Z</time>
      </trkpt>
      <trkpt lat="1.974346" lon="-76.768019">
        <ele>3754.911</ele>
        <time>2022-12-18T07:12:05Z</time>
      </trkpt>
      <trkpt lat="1.974296" lon="-76.768014">
        <ele>3752.142</ele>
        <time>2022-12-18T07:12:06Z</time>
      </trkpt>
      <trkpt lat="1.974213" lon="-76.768016">
        <ele>3748.879</ele>
        <time>2022-12-18T07:12:08Z</time>
      </trkpt>
      <trkpt lat="1.974144" lon="-76.768022">
        <ele>3748.853</ele>
        <time>2022-12-18T07:12:10Z</time>
      </trkpt>
      <trkpt lat="1.97408" lon="-76.768035">
        <ele>3748.904</ele>
        <time>2022-12-18T07:12:12Z</time>
      </trkpt>
      <trkpt lat="1.974018" lon="-76.768051">
        <ele>3749.014</ele>
        <time>2022-12-18T07:12:14Z</time>
      </trkpt>
      <trkpt lat="1.973958" lon="-76.768078">
        <ele>3749.609</ele>
        <time>2022-12-18T07:12:16Z</time>
      </trkpt>
      <trkpt lat="1.973902" lon="-76.76811">
        <ele>3749.896</ele>
        <time>2022-12-18T07:12:18Z</time>
      </trkpt>
      <trkpt lat="1.973844" lon="-76.768141">
        <ele>3750.167</ele>
        <time>2022-12-18T07:12:20Z</time>
      </trkpt>
      <trkpt lat="1.973787" lon="-76.768172">
        <ele>3750.376</ele>
        <time>2022-12-18T07:12:22Z</time>
      </trkpt>
      <trkpt lat="1.973734" lon="-76.768199">
        <ele>3750.990</ele>
        <time>2022-12-18T07:12:24Z</time>
      </trkpt>
      <trkpt lat="1.973668" lon="-76.768213">
        <ele>3750.657</ele>
        <time>2022-12-18T07:12:26Z</time>
      </trkpt>
      <trkpt lat="1.973618" lon="-76.768239">
        <ele>3750.925</ele>
        <time>2022-12-18T07:12:28Z</time>
      </trkpt>
      <trkpt lat="1.973575" lon="-76.768278">
        <ele>3751.140</ele>
        <time>2022-12-18T07:12:30Z</time>
      </trkpt>
      <trkpt lat="1.973536" lon="-76.768327">
        <ele>3751.681</ele>
        <time>2022-12-18T07:12:32Z</time>
      </trkpt>
      <trkpt lat="1.97351" lon="-76.768379">
        <ele>3752.028</ele>
        <time>2022-12-18T07:12:34Z</time>
      </trkpt>
      <trkpt lat="1.973481" lon="-76.768435">
        <ele>3752.181</ele>
        <time>2022-12-18T07:12:36Z</time>
      </trkpt>
      <trkpt lat="1.97346" lon="-76.768492">
        <ele>3752.361</ele>
        <time>2022-12-18T07:12:38Z</time>
      </trkpt>
      <trkpt lat="1.973436" lon="-76.768545">
        <ele>3752.417</ele>
        <time>2022-12-18T07:12:40Z</time>
      </trkpt>
      <trkpt lat="1.973405" lon="-76.768591">
        <ele>3752.609</ele>
        <time>2022-12-18T07:12:42Z</time>
      </trkpt>
      <trkpt lat="1.973376" lon="-76.768642">
        <ele>3753.139</ele>
        <time>2022-12-18T07:12:44Z</time>
      </trkpt>
      <trkpt lat="1.97334" lon="-76.768701">
        <ele>3753.280</ele>
        <time>2022-12-18T07:12:47Z</time>
      </trkpt>
      <trkpt lat="1.973308" lon="-76.768742">
        <ele>3753.579</ele>
        <time>2022-12-18T07:12:49Z</time>
      </trkpt>
      <trkpt lat="1.973266" lon="-76.768772">
        <ele>3753.633</ele>
        <time>2022-12-18T07:12:51Z</time>
      </trkpt>
      <trkpt lat="1.97322" lon="-76.768797">
        <ele>3753.410</ele>
        <time>2022-12-18T07:12:53Z</time>
      </trkpt>
      <trkpt lat="1.973176" lon="-76.768817">
        <ele>3753.318</ele>
        <time>2022-12-18T07:12:55Z</time>
      </trkpt>
      <trkpt lat="1.973137" lon="-76.76884">
        <ele>3751.323</ele>
        <time>2022-12-18T07:12:57Z</time>
      </trkpt>
      <trkpt lat="1.973093" lon="-76.768865">
        <ele>3751.714</ele>
        <time>2022-12-18T07:12:59Z</time>
      </trkpt>
      <trkpt lat="1.97305" lon="-76.76889">
        <ele>3751.461</ele>
        <time>2022-12-18T07:13:01Z</time>
      </trkpt>
      <trkpt lat="1.973" lon="-76.768897">
        <ele>3751.778</ele>
        <time>2022-12-18T07:13:03Z</time>
      </trkpt>
      <trkpt lat="1.972955" lon="-76.768901">
        <ele>3751.733</ele>
        <time>2022-12-18T07:13:05Z</time>
      </trkpt>
      <trkpt lat="1.972898" lon="-76.768905">
        <ele>3751.726</ele>
        <time>2022-12-18T07:13:07Z</time>
      </trkpt>
      <trkpt lat="1.972842" lon="-76.768917">
        <ele>3751.709</ele>
        <time>2022-12-18T07:13:09Z</time>
      </trkpt>
      <trkpt lat="1.972789" lon="-76.768936">
        <ele>3751.918</ele>
        <time>2022-12-18T07:13:11Z</time>
      </trkpt>
      <trkpt lat="1.972733" lon="-76.768951">
        <ele>3752.119</ele>
        <time>2022-12-18T07:13:13Z</time>
      </trkpt>
      <trkpt lat="1.972684" lon="-76.768965">
        <ele>3752.518</ele>
        <time>2022-12-18T07:13:15Z</time>
      </trkpt>
      <trkpt lat="1.972632" lon="-76.768979">
        <ele>3753.342</ele>
        <time>2022-12-18T07:13:17Z</time>
      </trkpt>
      <trkpt lat="1.972587" lon="-76.768994">
        <ele>3753.879</ele>
        <time>2022-12-18T07:13:19Z</time>
      </trkpt>
      <trkpt lat="1.972525" lon="-76.769004">
        <ele>3754.377</ele>
        <time>2022-12-18T07:13:22Z</time>
      </trkpt>
      <trkpt lat="1.972479" lon="-76.769014">
        <ele>3754.512</ele>
        <time>2022-12-18T07:13:24Z</time>
      </trkpt>
      <trkpt lat="1.97244" lon="-76.769041">
        <ele>3754.783</ele>
        <time>2022-12-18T07:13:26Z</time>
      </trkpt>
      <trkpt lat="1.972375" lon="-76.769045">
        <ele>3754.990</ele>
        <time>2022-12-18T07:13:29Z</time>
      </trkpt>
      <trkpt lat="1.972307" lon="-76.769038">
        <ele>3755.744</ele>
        <time>2022-12-18T07:13:32Z</time>
      </trkpt>
      <trkpt lat="1.97224" lon="-76.769033">
        <ele>3757.605</ele>
        <time>2022-12-18T07:13:35Z</time>
      </trkpt>
      <trkpt lat="1.972188" lon="-76.769036">
        <ele>3758.315</ele>
        <time>2022-12-18T07:13:37Z</time>
      </trkpt>
      <trkpt lat="1.972139" lon="-76.769042">
        <ele>3759.409</ele>
        <time>2022-12-18T07:13:39Z</time>
      </trkpt>
      <trkpt lat="1.97209" lon="-76.769048">
        <ele>3759.625</ele>
        <time>2022-12-18T07:13:41Z</time>
      </trkpt>
      <trkpt lat="1.972025" lon="-76.769058">
        <ele>3760.156</ele>
        <time>2022-12-18T07:13:44Z</time>
      </trkpt>
      <trkpt lat="1.971969" lon="-76.769065">
        <ele>3760.995</ele>
        <time>2022-12-18T07:13:47Z</time>
      </trkpt>
      <trkpt lat="1.971906" lon="-76.769072">
        <ele>3761.349</ele>
        <time>2022-12-18T07:13:50Z</time>
      </trkpt>
      <trkpt lat="1.971861" lon="-76.769069">
        <ele>3762.086</ele>
        <time>2022-12-18T07:13:52Z</time>
      </trkpt>
      <trkpt lat="1.971813" lon="-76.769051">
        <ele>3762.544</ele>
        <time>2022-12-18T07:13:54Z</time>
      </trkpt>
      <trkpt lat="1.971769" lon="-76.769028">
        <ele>3762.969</ele>
        <time>2022-12-18T07:13:56Z</time>
      </trkpt>
      <trkpt lat="1.971733" lon="-76.768998">
        <ele>3763.350</ele>
        <time>2022-12-18T07:13:58Z</time>
      </trkpt>
      <trkpt lat="1.971707" lon="-76.768959">
        <ele>3764.177</ele>
        <time>2022-12-18T07:14:00Z</time>
      </trkpt>
      <trkpt lat="1.971694" lon="-76.768898">
        <ele>3765.534</ele>
        <time>2022-12-18T07:14:03Z</time>
      </trkpt>
      <trkpt lat="1.971692" lon="-76.768837">
        <ele>3765.555</ele>
        <time>2022-12-18T07:14:06Z</time>
      </trkpt>
      <trkpt lat="1.971707" lon="-76.768788">
        <ele>3765.710</ele>
        <time>2022-12-18T07:14:09Z</time>
      </trkpt>
      <trkpt lat="1.971757" lon="-76.768749">
        <ele>3765.109</ele>
        <time>2022-12-18T07:14:12Z</time>
      </trkpt>
      <trkpt lat="1.971826" lon="-76.768659">
        <ele>3765.024</ele>
        <time>2022-12-18T07:14:17Z</time>
      </trkpt>
      <trkpt lat="1.971834" lon="-76.768603">
        <ele>3760.125</ele>
        <time>2022-12-18T07:14:20Z</time>
      </trkpt>
      <trkpt lat="1.971859" lon="-76.768556">
        <ele>3762.984</ele>
        <time>2022-12-18T07:14:21Z</time>
      </trkpt>
      <trkpt lat="1.971879" lon="-76.768508">
        <ele>3762.978</ele>
        <time>2022-12-18T07:14:23Z</time>
      </trkpt>
      <trkpt lat="1.971893" lon="-76.768452">
        <ele>3763.675</ele>
        <time>2022-12-18T07:14:25Z</time>
      </trkpt>
      <trkpt lat="1.971897" lon="-76.768394">
        <ele>3763.613</ele>
        <time>2022-12-18T07:14:27Z</time>
      </trkpt>
      <trkpt lat="1.971892" lon="-76.768344">
        <ele>3763.658</ele>
        <time>2022-12-18T07:14:29Z</time>
      </trkpt>
      <trkpt lat="1.971884" lon="-76.768293">
        <ele>3763.619</ele>
        <time>2022-12-18T07:14:31Z</time>
      </trkpt>
      <trkpt lat="1.971877" lon="-76.768243">
        <ele>3764.646</ele>
        <time>2022-12-18T07:14:33Z</time>
      </trkpt>
      <trkpt lat="1.971864" lon="-76.768199">
        <ele>3765.031</ele>
        <time>2022-12-18T07:14:35Z</time>
      </trkpt>
      <trkpt lat="1.971849" lon="-76.768141">
        <ele>3765.461</ele>
        <time>2022-12-18T07:14:37Z</time>
      </trkpt>
      <trkpt lat="1.971737" lon="-76.768024">
        <ele>3766.507</ele>
        <time>2022-12-18T07:14:59Z</time>
      </trkpt>
      <trkpt lat="1.971535" lon="-76.767876">
        <ele>3768.909</ele>
        <time>2022-12-18T07:15:01Z</time>
      </trkpt>
      <trkpt lat="1.971469" lon="-76.767844">
        <ele>3771.034</ele>
        <time>2022-12-18T07:15:03Z</time>
      </trkpt>
      <trkpt lat="1.971427" lon="-76.767827">
        <ele>3772.195</ele>
        <time>2022-12-18T07:15:05Z</time>
      </trkpt>
      <trkpt lat="1.971386" lon="-76.767806">
        <ele>3772.474</ele>
        <time>2022-12-18T07:15:07Z</time>
      </trkpt>
      <trkpt lat="1.971343" lon="-76.767783">
        <ele>3772.958</ele>
        <time>2022-12-18T07:15:09Z</time>
      </trkpt>
      <trkpt lat="1.971293" lon="-76.767758">
        <ele>3772.975</ele>
        <time>2022-12-18T07:15:12Z</time>
      </trkpt>
      <trkpt lat="1.971237" lon="-76.767732">
        <ele>3773.213</ele>
        <time>2022-12-18T07:15:15Z</time>
      </trkpt>
      <trkpt lat="1.97119" lon="-76.76771">
        <ele>3773.978</ele>
        <time>2022-12-18T07:15:18Z</time>
      </trkpt>
      <trkpt lat="1.97114" lon="-76.767672">
        <ele>3774.279</ele>
        <time>2022-12-18T07:15:21Z</time>
      </trkpt>
      <trkpt lat="1.971116" lon="-76.767618">
        <ele>3774.946</ele>
        <time>2022-12-18T07:15:24Z</time>
      </trkpt>
      <trkpt lat="1.971132" lon="-76.767572">
        <ele>3775.284</ele>
        <time>2022-12-18T07:15:26Z</time>
      </trkpt>
      <trkpt lat="1.971141" lon="-76.76752">
        <ele>3775.907</ele>
        <time>2022-12-18T07:15:28Z</time>
      </trkpt>
      <trkpt lat="1.971156" lon="-76.767455">
        <ele>3777.717</ele>
        <time>2022-12-18T07:15:31Z</time>
      </trkpt>
      <trkpt lat="1.971166" lon="-76.767399">
        <ele>3777.809</ele>
        <time>2022-12-18T07:15:33Z</time>
      </trkpt>
      <trkpt lat="1.971172" lon="-76.767343">
        <ele>3778.269</ele>
        <time>2022-12-18T07:15:36Z</time>
      </trkpt>
      <trkpt lat="1.971174" lon="-76.767278">
        <ele>3778.490</ele>
        <time>2022-12-18T07:15:39Z</time>
      </trkpt>
      <trkpt lat="1.971164" lon="-76.76723">
        <ele>3778.749</ele>
        <time>2022-12-18T07:15:41Z</time>
      </trkpt>
      <trkpt lat="1.971135" lon="-76.76718">
        <ele>3779.363</ele>
        <time>2022-12-18T07:15:44Z</time>
      </trkpt>
      <trkpt lat="1.971111" lon="-76.767136">
        <ele>3779.440</ele>
        <time>2022-12-18T07:15:46Z</time>
      </trkpt>
      <trkpt lat="1.97107" lon="-76.767086">
        <ele>3780.018</ele>
        <time>2022-12-18T07:15:49Z</time>
      </trkpt>
      <trkpt lat="1.971034" lon="-76.767058">
        <ele>3780.483</ele>
        <time>2022-12-18T07:15:51Z</time>
      </trkpt>
      <trkpt lat="1.970993" lon="-76.767034">
        <ele>3780.794</ele>
        <time>2022-12-18T07:15:53Z</time>
      </trkpt>
      <trkpt lat="1.970948" lon="-76.767017">
        <ele>3780.661</ele>
        <time>2022-12-18T07:15:55Z</time>
      </trkpt>
      <trkpt lat="1.970902" lon="-76.767004">
        <ele>3780.747</ele>
        <time>2022-12-18T07:15:57Z</time>
      </trkpt>
      <trkpt lat="1.970851" lon="-76.766998">
        <ele>3780.829</ele>
        <time>2022-12-18T07:15:59Z</time>
      </trkpt>
      <trkpt lat="1.97078" lon="-76.766999">
        <ele>3780.621</ele>
        <time>2022-12-18T07:16:02Z</time>
      </trkpt>
      <trkpt lat="1.970727" lon="-76.767009">
        <ele>3780.209</ele>
        <time>2022-12-18T07:16:04Z</time>
      </trkpt>
      <trkpt lat="1.97066" lon="-76.767034">
        <ele>3780.275</ele>
        <time>2022-12-18T07:16:10Z</time>
      </trkpt>
      <trkpt lat="1.970568" lon="-76.767037">
        <ele>3780.126</ele>
        <time>2022-12-18T07:16:12Z</time>
      </trkpt>
      <trkpt lat="1.970509" lon="-76.767033">
        <ele>3780.265</ele>
        <time>2022-12-18T07:16:14Z</time>
      </trkpt>
      <trkpt lat="1.970458" lon="-76.767028">
        <ele>3780.599</ele>
        <time>2022-12-18T07:16:16Z</time>
      </trkpt>
      <trkpt lat="1.970412" lon="-76.767018">
        <ele>3780.826</ele>
        <time>2022-12-18T07:16:18Z</time>
      </trkpt>
      <trkpt lat="1.970352" lon="-76.767001">
        <ele>3780.924</ele>
        <time>2022-12-18T07:16:21Z</time>
      </trkpt>
      <trkpt lat="1.970292" lon="-76.766977">
        <ele>3781.159</ele>
        <time>2022-12-18T07:16:24Z</time>
      </trkpt>
      <trkpt lat="1.970227" lon="-76.766962">
        <ele>3781.510</ele>
        <time>2022-12-18T07:16:27Z</time>
      </trkpt>
      <trkpt lat="1.970179" lon="-76.766954">
        <ele>3782.087</ele>
        <time>2022-12-18T07:16:29Z</time>
      </trkpt>
      <trkpt lat="1.970118" lon="-76.766943">
        <ele>3782.278</ele>
        <time>2022-12-18T07:16:32Z</time>
      </trkpt>
      <trkpt lat="1.970071" lon="-76.766932">
        <ele>3782.233</ele>
        <time>2022-12-18T07:16:34Z</time>
      </trkpt>
      <trkpt lat="1.970012" lon="-76.766929">
        <ele>3782.226</ele>
        <time>2022-12-18T07:16:37Z</time>
      </trkpt>
      <trkpt lat="1.969955" lon="-76.766909">
        <ele>3782.209</ele>
        <time>2022-12-18T07:16:40Z</time>
      </trkpt>
      <trkpt lat="1.969906" lon="-76.766888">
        <ele>3782.518</ele>
        <time>2022-12-18T07:16:43Z</time>
      </trkpt>
      <trkpt lat="1.969863" lon="-76.766863">
        <ele>3783.329</ele>
        <time>2022-12-18T07:16:46Z</time>
      </trkpt>
      <trkpt lat="1.96981" lon="-76.766837">
        <ele>3784.698</ele>
        <time>2022-12-18T07:16:49Z</time>
      </trkpt>
      <trkpt lat="1.969772" lon="-76.766804">
        <ele>3785.852</ele>
        <time>2022-12-18T07:16:52Z</time>
      </trkpt>
      <trkpt lat="1.969702" lon="-76.766753">
        <ele>3787.259</ele>
        <time>2022-12-18T07:16:59Z</time>
      </trkpt>
      <trkpt lat="1.969652" lon="-76.766719">
        <ele>3789.427</ele>
        <time>2022-12-18T07:17:01Z</time>
      </trkpt>
      <trkpt lat="1.969599" lon="-76.766688">
        <ele>3789.862</ele>
        <time>2022-12-18T07:17:03Z</time>
      </trkpt>
      <trkpt lat="1.969556" lon="-76.766666">
        <ele>3790.163</ele>
        <time>2022-12-18T07:17:05Z</time>
      </trkpt>
      <trkpt lat="1.969511" lon="-76.766647">
        <ele>3790.050</ele>
        <time>2022-12-18T07:17:07Z</time>
      </trkpt>
      <trkpt lat="1.969467" lon="-76.76663">
        <ele>3790.031</ele>
        <time>2022-12-18T07:17:09Z</time>
      </trkpt>
      <trkpt lat="1.969423" lon="-76.766605">
        <ele>3790.061</ele>
        <time>2022-12-18T07:17:11Z</time>
      </trkpt>
      <trkpt lat="1.969381" lon="-76.766575">
        <ele>3789.707</ele>
        <time>2022-12-18T07:17:13Z</time>
      </trkpt>
      <trkpt lat="1.96933" lon="-76.766541">
        <ele>3789.709</ele>
        <time>2022-12-18T07:17:16Z</time>
      </trkpt>
      <trkpt lat="1.969293" lon="-76.766514">
        <ele>3789.714</ele>
        <time>2022-12-18T07:17:18Z</time>
      </trkpt>
      <trkpt lat="1.969258" lon="-76.766469">
        <ele>3790.035</ele>
        <time>2022-12-18T07:17:21Z</time>
      </trkpt>
      <trkpt lat="1.969219" lon="-76.766417">
        <ele>3790.644</ele>
        <time>2022-12-18T07:17:24Z</time>
      </trkpt>
      <trkpt lat="1.969181" lon="-76.766373">
        <ele>3791.068</ele>
        <time>2022-12-18T07:17:27Z</time>
      </trkpt>
      <trkpt lat="1.969135" lon="-76.766331">
        <ele>3791.485</ele>
        <time>2022-12-18T07:17:30Z</time>
      </trkpt>
      <trkpt lat="1.969102" lon="-76.766288">
        <ele>3791.973</ele>
        <time>2022-12-18T07:17:33Z</time>
      </trkpt>
      <trkpt lat="1.969048" lon="-76.766272">
        <ele>3792.898</ele>
        <time>2022-12-18T07:17:36Z</time>
      </trkpt>
      <trkpt lat="1.968989" lon="-76.766233">
        <ele>3793.089</ele>
        <time>2022-12-18T07:17:42Z</time>
      </trkpt>
      <trkpt lat="1.968936" lon="-76.766194">
        <ele>3793.546</ele>
        <time>2022-12-18T07:17:44Z</time>
      </trkpt>
      <trkpt lat="1.968899" lon="-76.766162">
        <ele>3793.988</ele>
        <time>2022-12-18T07:17:46Z</time>
      </trkpt>
      <trkpt lat="1.968854" lon="-76.76612">
        <ele>3794.424</ele>
        <time>2022-12-18T07:17:49Z</time>
      </trkpt>
      <trkpt lat="1.968832" lon="-76.766075">
        <ele>3795.726</ele>
        <time>2022-12-18T07:17:52Z</time>
      </trkpt>
      <trkpt lat="1.968803" lon="-76.766025">
        <ele>3796.009</ele>
        <time>2022-12-18T07:17:55Z</time>
      </trkpt>
      <trkpt lat="1.968765" lon="-76.765984">
        <ele>3797.239</ele>
        <time>2022-12-18T07:17:58Z</time>
      </trkpt>
      <trkpt lat="1.968727" lon="-76.765936">
        <ele>3797.810</ele>
        <time>2022-12-18T07:18:01Z</time>
      </trkpt>
      <trkpt lat="1.968695" lon="-76.765889">
        <ele>3798.619</ele>
        <time>2022-12-18T07:18:04Z</time>
      </trkpt>
      <trkpt lat="1.968655" lon="-76.76584">
        <ele>3799.173</ele>
        <time>2022-12-18T07:18:07Z</time>
      </trkpt>
      <trkpt lat="1.968622" lon="-76.765795">
        <ele>3799.440</ele>
        <time>2022-12-18T07:18:10Z</time>
      </trkpt>
      <trkpt lat="1.968589" lon="-76.765763">
        <ele>3799.758</ele>
        <time>2022-12-18T07:18:12Z</time>
      </trkpt>
      <trkpt lat="1.968538" lon="-76.765725">
        <ele>3799.883</ele>
        <time>2022-12-18T07:18:15Z</time>
      </trkpt>
      <trkpt lat="1.968479" lon="-76.765685">
        <ele>3799.944</ele>
        <time>2022-12-18T07:18:18Z</time>
      </trkpt>
      <trkpt lat="1.968444" lon="-76.765654">
        <ele>3799.981</ele>
        <time>2022-12-18T07:18:20Z</time>
      </trkpt>
      <trkpt lat="1.968405" lon="-76.76561">
        <ele>3799.135</ele>
        <time>2022-12-18T07:18:23Z</time>
      </trkpt>
      <trkpt lat="1.968348" lon="-76.765577">
        <ele>3798.886</ele>
        <time>2022-12-18T07:18:26Z</time>
      </trkpt>
      <trkpt lat="1.9683" lon="-76.765549">
        <ele>3798.614</ele>
        <time>2022-12-18T07:18:29Z</time>
      </trkpt>
      <trkpt lat="1.968253" lon="-76.765524">
        <ele>3798.509</ele>
        <time>2022-12-18T07:18:32Z</time>
      </trkpt>
      <trkpt lat="1.968195" lon="-76.76552">
        <ele>3798.244</ele>
        <time>2022-12-18T07:18:35Z</time>
      </trkpt>
      <trkpt lat="1.968151" lon="-76.765508">
        <ele>3797.585</ele>
        <time>2022-12-18T07:18:38Z</time>
      </trkpt>
      <trkpt lat="1.968107" lon="-76.765491">
        <ele>3797.484</ele>
        <time>2022-12-18T07:18:41Z</time>
      </trkpt>
      <trkpt lat="1.968061" lon="-76.765474">
        <ele>3797.498</ele>
        <time>2022-12-18T07:18:44Z</time>
      </trkpt>
      <trkpt lat="1.968003" lon="-76.765454">
        <ele>3797.435</ele>
        <time>2022-12-18T07:18:50Z</time>
      </trkpt>
      <trkpt lat="1.967933" lon="-76.765436">
        <ele>3797.493</ele>
        <time>2022-12-18T07:18:52Z</time>
      </trkpt>
      <trkpt lat="1.967884" lon="-76.765427">
        <ele>3797.558</ele>
        <time>2022-12-18T07:18:54Z</time>
      </trkpt>
      <trkpt lat="1.967832" lon="-76.765415">
        <ele>3797.599</ele>
        <time>2022-12-18T07:18:56Z</time>
      </trkpt>
      <trkpt lat="1.967781" lon="-76.765405">
        <ele>3797.026</ele>
        <time>2022-12-18T07:18:58Z</time>
      </trkpt>
      <trkpt lat="1.967734" lon="-76.765397">
        <ele>3796.262</ele>
        <time>2022-12-18T07:19:00Z</time>
      </trkpt>
      <trkpt lat="1.967683" lon="-76.765388">
        <ele>3796.083</ele>
        <time>2022-12-18T07:19:02Z</time>
      </trkpt>
      <trkpt lat="1.967621" lon="-76.765378">
        <ele>3796.011</ele>
        <time>2022-12-18T07:19:05Z</time>
      </trkpt>
      <trkpt lat="1.967556" lon="-76.765368">
        <ele>3796.409</ele>
        <time>2022-12-18T07:19:08Z</time>
      </trkpt>
      <trkpt lat="1.967512" lon="-76.765359">
        <ele>3796.557</ele>
        <time>2022-12-18T07:19:10Z</time>
      </trkpt>
      <trkpt lat="1.967467" lon="-76.765349">
        <ele>3796.528</ele>
        <time>2022-12-18T07:19:12Z</time>
      </trkpt>
      <trkpt lat="1.967416" lon="-76.765332">
        <ele>3796.417</ele>
        <time>2022-12-18T07:19:14Z</time>
      </trkpt>
      <trkpt lat="1.967367" lon="-76.765312">
        <ele>3795.581</ele>
        <time>2022-12-18T07:19:16Z</time>
      </trkpt>
      <trkpt lat="1.967322" lon="-76.765295">
        <ele>3794.228</ele>
        <time>2022-12-18T07:19:18Z</time>
      </trkpt>
      <trkpt lat="1.967274" lon="-76.765283">
        <ele>3793.896</ele>
        <time>2022-12-18T07:19:20Z</time>
      </trkpt>
      <trkpt lat="1.967225" lon="-76.765274">
        <ele>3793.791</ele>
        <time>2022-12-18T07:19:22Z</time>
      </trkpt>
      <trkpt lat="1.967164" lon="-76.765263">
        <ele>3793.772</ele>
        <time>2022-12-18T07:19:25Z</time>
      </trkpt>
      <trkpt lat="1.967113" lon="-76.765254">
        <ele>3793.989</ele>
        <time>2022-12-18T07:19:27Z</time>
      </trkpt>
      <trkpt lat="1.96705" lon="-76.76524">
        <ele>3794.011</ele>
        <time>2022-12-18T07:19:30Z</time>
      </trkpt>
      <trkpt lat="1.966997" lon="-76.765229">
        <ele>3794.121</ele>
        <time>2022-12-18T07:19:32Z</time>
      </trkpt>
      <trkpt lat="1.966942" lon="-76.765217">
        <ele>3794.003</ele>
        <time>2022-12-18T07:19:34Z</time>
      </trkpt>
      <trkpt lat="1.966895" lon="-76.76521">
        <ele>3794.009</ele>
        <time>2022-12-18T07:19:36Z</time>
      </trkpt>
      <trkpt lat="1.96684" lon="-76.765201">
        <ele>3794.272</ele>
        <time>2022-12-18T07:19:38Z</time>
      </trkpt>
      <trkpt lat="1.966734" lon="-76.765183">
        <ele>3794.373</ele>
        <time>2022-12-18T07:19:44Z</time>
      </trkpt>
      <trkpt lat="1.966675" lon="-76.765179">
        <ele>3794.792</ele>
        <time>2022-12-18T07:19:46Z</time>
      </trkpt>
      <trkpt lat="1.966622" lon="-76.765176">
        <ele>3795.836</ele>
        <time>2022-12-18T07:19:48Z</time>
      </trkpt>
      <trkpt lat="1.966572" lon="-76.76517">
        <ele>3796.413</ele>
        <time>2022-12-18T07:19:50Z</time>
      </trkpt>
      <trkpt lat="1.966527" lon="-76.765144">
        <ele>3796.421</ele>
        <time>2022-12-18T07:19:52Z</time>
      </trkpt>
      <trkpt lat="1.966495" lon="-76.765107">
        <ele>3796.416</ele>
        <time>2022-12-18T07:19:54Z</time>
      </trkpt>
      <trkpt lat="1.966477" lon="-76.765053">
        <ele>3796.587</ele>
        <time>2022-12-18T07:19:56Z</time>
      </trkpt>
      <trkpt lat="1.966488" lon="-76.764997">
        <ele>3796.624</ele>
        <time>2022-12-18T07:19:58Z</time>
      </trkpt>
      <trkpt lat="1.966521" lon="-76.764955">
        <ele>3798.264</ele>
        <time>2022-12-18T07:20:00Z</time>
      </trkpt>
      <trkpt lat="1.966572" lon="-76.764918">
        <ele>3798.806</ele>
        <time>2022-12-18T07:20:02Z</time>
      </trkpt>
      <trkpt lat="1.966631" lon="-76.764884">
        <ele>3799.316</ele>
        <time>2022-12-18T07:20:04Z</time>
      </trkpt>
      <trkpt lat="1.966683" lon="-76.764858">
        <ele>3799.309</ele>
        <time>2022-12-18T07:20:06Z</time>
      </trkpt>
      <trkpt lat="1.966729" lon="-76.764837">
        <ele>3799.267</ele>
        <time>2022-12-18T07:20:08Z</time>
      </trkpt>
      <trkpt lat="1.96678" lon="-76.764812">
        <ele>3799.148</ele>
        <time>2022-12-18T07:20:10Z</time>
      </trkpt>
      <trkpt lat="1.966829" lon="-76.76479">
        <ele>3798.837</ele>
        <time>2022-12-18T07:20:12Z</time>
      </trkpt>
      <trkpt lat="1.966874" lon="-76.764772">
        <ele>3798.851</ele>
        <time>2022-12-18T07:20:14Z</time>
      </trkpt>
      <trkpt lat="1.966918" lon="-76.764754">
        <ele>3798.948</ele>
        <time>2022-12-18T07:20:16Z</time>
      </trkpt>
      <trkpt lat="1.96696" lon="-76.764728">
        <ele>3799.676</ele>
        <time>2022-12-18T07:20:18Z</time>
      </trkpt>
      <trkpt lat="1.967002" lon="-76.764692">
        <ele>3800.131</ele>
        <time>2022-12-18T07:20:20Z</time>
      </trkpt>
      <trkpt lat="1.967036" lon="-76.76466">
        <ele>3800.572</ele>
        <time>2022-12-18T07:20:22Z</time>
      </trkpt>
      <trkpt lat="1.967074" lon="-76.764632">
        <ele>3800.899</ele>
        <time>2022-12-18T07:20:24Z</time>
      </trkpt>
      <trkpt lat="1.967116" lon="-76.764606">
        <ele>3800.882</ele>
        <time>2022-12-18T07:20:26Z</time>
      </trkpt>
      <trkpt lat="1.967147" lon="-76.764571">
        <ele>3800.843</ele>
        <time>2022-12-18T07:20:28Z</time>
      </trkpt>
      <trkpt lat="1.967197" lon="-76.764536">
        <ele>3800.917</ele>
        <time>2022-12-18T07:20:31Z</time>
      </trkpt>
      <trkpt lat="1.967257" lon="-76.764528">
        <ele>3801.809</ele>
        <time>2022-12-18T07:20:34Z</time>
      </trkpt>
      <trkpt lat="1.96731" lon="-76.764539">
        <ele>3802.739</ele>
        <time>2022-12-18T07:20:38Z</time>
      </trkpt>
      <trkpt lat="1.967365" lon="-76.76453">
        <ele>3803.270</ele>
        <time>2022-12-18T07:20:45Z</time>
      </trkpt>
      <trkpt lat="1.967432" lon="-76.764542">
        <ele>3803.359</ele>
        <time>2022-12-18T07:20:47Z</time>
      </trkpt>
      <trkpt lat="1.967487" lon="-76.764537">
        <ele>3803.463</ele>
        <time>2022-12-18T07:20:49Z</time>
      </trkpt>
      <trkpt lat="1.967542" lon="-76.764544">
        <ele>3803.760</ele>
        <time>2022-12-18T07:20:52Z</time>
      </trkpt>
      <trkpt lat="1.967595" lon="-76.764545">
        <ele>3803.848</ele>
        <time>2022-12-18T07:20:55Z</time>
      </trkpt>
      <trkpt lat="1.967655" lon="-76.764539">
        <ele>3804.343</ele>
        <time>2022-12-18T07:20:58Z</time>
      </trkpt>
      <trkpt lat="1.967715" lon="-76.764537">
        <ele>3804.364</ele>
        <time>2022-12-18T07:21:01Z</time>
      </trkpt>
      <trkpt lat="1.96776" lon="-76.764534">
        <ele>3804.321</ele>
        <time>2022-12-18T07:21:03Z</time>
      </trkpt>
      <trkpt lat="1.967805" lon="-76.764529">
        <ele>3803.944</ele>
        <time>2022-12-18T07:21:05Z</time>
      </trkpt>
      <trkpt lat="1.967867" lon="-76.764514">
        <ele>3803.905</ele>
        <time>2022-12-18T07:21:08Z</time>
      </trkpt>
      <trkpt lat="1.967915" lon="-76.764505">
        <ele>3803.915</ele>
        <time>2022-12-18T07:21:10Z</time>
      </trkpt>
      <trkpt lat="1.96798" lon="-76.764502">
        <ele>3803.909</ele>
        <time>2022-12-18T07:21:13Z</time>
      </trkpt>
      <trkpt lat="1.968048" lon="-76.764496">
        <ele>3803.975</ele>
        <time>2022-12-18T07:21:16Z</time>
      </trkpt>
      <trkpt lat="1.968093" lon="-76.76449">
        <ele>3803.966</ele>
        <time>2022-12-18T07:21:18Z</time>
      </trkpt>
      <trkpt lat="1.968139" lon="-76.764489">
        <ele>3803.935</ele>
        <time>2022-12-18T07:21:20Z</time>
      </trkpt>
      <trkpt lat="1.968187" lon="-76.76449">
        <ele>3803.669</ele>
        <time>2022-12-18T07:21:22Z</time>
      </trkpt>
      <trkpt lat="1.968245" lon="-76.764501">
        <ele>3803.836</ele>
        <time>2022-12-18T07:21:25Z</time>
      </trkpt>
      <trkpt lat="1.968303" lon="-76.764515">
        <ele>3804.154</ele>
        <time>2022-12-18T07:21:28Z</time>
      </trkpt>
      <trkpt lat="1.968374" lon="-76.764515">
        <ele>3807.049</ele>
        <time>2022-12-18T07:21:31Z</time>
      </trkpt>
      <trkpt lat="1.968439" lon="-76.764507">
        <ele>3807.640</ele>
        <time>2022-12-18T07:21:34Z</time>
      </trkpt>
      <trkpt lat="1.968512" lon="-76.76449">
        <ele>3808.017</ele>
        <time>2022-12-18T07:21:40Z</time>
      </trkpt>
      <trkpt lat="1.968606" lon="-76.764482">
        <ele>3808.163</ele>
        <time>2022-12-18T07:21:42Z</time>
      </trkpt>
      <trkpt lat="1.968666" lon="-76.764473">
        <ele>3808.144</ele>
        <time>2022-12-18T07:21:44Z</time>
      </trkpt>
      <trkpt lat="1.968714" lon="-76.764466">
        <ele>3808.118</ele>
        <time>2022-12-18T07:21:46Z</time>
      </trkpt>
      <trkpt lat="1.968774" lon="-76.764473">
        <ele>3808.109</ele>
        <time>2022-12-18T07:21:49Z</time>
      </trkpt>
      <trkpt lat="1.968836" lon="-76.764475">
        <ele>3808.387</ele>
        <time>2022-12-18T07:21:52Z</time>
      </trkpt>
      <trkpt lat="1.968899" lon="-76.764481">
        <ele>3808.518</ele>
        <time>2022-12-18T07:21:55Z</time>
      </trkpt>
      <trkpt lat="1.968951" lon="-76.764465">
        <ele>3808.637</ele>
        <time>2022-12-18T07:21:57Z</time>
      </trkpt>
      <trkpt lat="1.969004" lon="-76.76444">
        <ele>3808.921</ele>
        <time>2022-12-18T07:21:59Z</time>
      </trkpt>
      <trkpt lat="1.969048" lon="-76.764421">
        <ele>3809.198</ele>
        <time>2022-12-18T07:22:01Z</time>
      </trkpt>
      <trkpt lat="1.96909" lon="-76.764403">
        <ele>3809.336</ele>
        <time>2022-12-18T07:22:03Z</time>
      </trkpt>
      <trkpt lat="1.969138" lon="-76.764378">
        <ele>3809.631</ele>
        <time>2022-12-18T07:22:05Z</time>
      </trkpt>
      <trkpt lat="1.969177" lon="-76.764355">
        <ele>3809.952</ele>
        <time>2022-12-18T07:22:07Z</time>
      </trkpt>
      <trkpt lat="1.969237" lon="-76.764329">
        <ele>3810.079</ele>
        <time>2022-12-18T07:22:10Z</time>
      </trkpt>
      <trkpt lat="1.969293" lon="-76.764302">
        <ele>3810.124</ele>
        <time>2022-12-18T07:22:13Z</time>
      </trkpt>
      <trkpt lat="1.969351" lon="-76.764277">
        <ele>3810.204</ele>
        <time>2022-12-18T07:22:16Z</time>
      </trkpt>
      <trkpt lat="1.969413" lon="-76.764256">
        <ele>3810.814</ele>
        <time>2022-12-18T07:22:19Z</time>
      </trkpt>
      <trkpt lat="1.969457" lon="-76.76424">
        <ele>3811.109</ele>
        <time>2022-12-18T07:22:21Z</time>
      </trkpt>
      <trkpt lat="1.969516" lon="-76.764221">
        <ele>3811.323</ele>
        <time>2022-12-18T07:22:24Z</time>
      </trkpt>
      <trkpt lat="1.969558" lon="-76.764199">
        <ele>3811.834</ele>
        <time>2022-12-18T07:22:26Z</time>
      </trkpt>
      <trkpt lat="1.9696" lon="-76.764175">
        <ele>3812.053</ele>
        <time>2022-12-18T07:22:28Z</time>
      </trkpt>
      <trkpt lat="1.969638" lon="-76.764145">
        <ele>3812.017</ele>
        <time>2022-12-18T07:22:30Z</time>
      </trkpt>
      <trkpt lat="1.969685" lon="-76.764099">
        <ele>3811.844</ele>
        <time>2022-12-18T07:22:33Z</time>
      </trkpt>
      <trkpt lat="1.969714" lon="-76.764062">
        <ele>3811.792</ele>
        <time>2022-12-18T07:22:35Z</time>
      </trkpt>
      <trkpt lat="1.969762" lon="-76.764003">
        <ele>3811.757</ele>
        <time>2022-12-18T07:22:41Z</time>
      </trkpt>
      <trkpt lat="1.969769" lon="-76.763911">
        <ele>3812.178</ele>
        <time>2022-12-18T07:22:43Z</time>
      </trkpt>
      <trkpt lat="1.969767" lon="-76.763849">
        <ele>3812.675</ele>
        <time>2022-12-18T07:22:45Z</time>
      </trkpt>
      <trkpt lat="1.969762" lon="-76.763801">
        <ele>3815.321</ele>
        <time>2022-12-18T07:22:47Z</time>
      </trkpt>
      <trkpt lat="1.969747" lon="-76.763751">
        <ele>3815.741</ele>
        <time>2022-12-18T07:22:49Z</time>
      </trkpt>
      <trkpt lat="1.969733" lon="-76.763707">
        <ele>3815.705</ele>
        <time>2022-12-18T07:22:51Z</time>
      </trkpt>
      <trkpt lat="1.969713" lon="-76.763644">
        <ele>3815.809</ele>
        <time>2022-12-18T07:22:54Z</time>
      </trkpt>
      <trkpt lat="1.969688" lon="-76.763583">
        <ele>3815.923</ele>
        <time>2022-12-18T07:22:57Z</time>
      </trkpt>
      <trkpt lat="1.969669" lon="-76.763525">
        <ele>3816.274</ele>
        <time>2022-12-18T07:23:00Z</time>
      </trkpt>
      <trkpt lat="1.969665" lon="-76.76347">
        <ele>3817.513</ele>
        <time>2022-12-18T07:23:03Z</time>
      </trkpt>
      <trkpt lat="1.969654" lon="-76.763405">
        <ele>3818.087</ele>
        <time>2022-12-18T07:23:06Z</time>
      </trkpt>
      <trkpt lat="1.969666" lon="-76.763345">
        <ele>3819.374</ele>
        <time>2022-12-18T07:23:09Z</time>
      </trkpt>
      <trkpt lat="1.96969" lon="-76.763304">
        <ele>3819.832</ele>
        <time>2022-12-18T07:23:11Z</time>
      </trkpt>
      <trkpt lat="1.969722" lon="-76.763267">
        <ele>3821.067</ele>
        <time>2022-12-18T07:23:13Z</time>
      </trkpt>
      <trkpt lat="1.969769" lon="-76.763228">
        <ele>3821.818</ele>
        <time>2022-12-18T07:23:16Z</time>
      </trkpt>
      <trkpt lat="1.969809" lon="-76.763202">
        <ele>3821.925</ele>
        <time>2022-12-18T07:23:18Z</time>
      </trkpt>
      <trkpt lat="1.969859" lon="-76.763169">
        <ele>3822.449</ele>
        <time>2022-12-18T07:23:21Z</time>
      </trkpt>
      <trkpt lat="1.969914" lon="-76.763139">
        <ele>3822.702</ele>
        <time>2022-12-18T07:23:24Z</time>
      </trkpt>
      <trkpt lat="1.969966" lon="-76.763121">
        <ele>3823.322</ele>
        <time>2022-12-18T07:23:27Z</time>
      </trkpt>
      <trkpt lat="1.970018" lon="-76.763095">
        <ele>3823.809</ele>
        <time>2022-12-18T07:23:30Z</time>
      </trkpt>
      <trkpt lat="1.970072" lon="-76.763078">
        <ele>3824.325</ele>
        <time>2022-12-18T07:23:36Z</time>
      </trkpt>
      <trkpt lat="1.970131" lon="-76.763062">
        <ele>3824.556</ele>
        <time>2022-12-18T07:23:38Z</time>
      </trkpt>
      <trkpt lat="1.970187" lon="-76.763062">
        <ele>3824.645</ele>
        <time>2022-12-18T07:23:41Z</time>
      </trkpt>
      <trkpt lat="1.970252" lon="-76.763076">
        <ele>3825.329</ele>
        <time>2022-12-18T07:23:44Z</time>
      </trkpt>
      <trkpt lat="1.9703" lon="-76.763085">
        <ele>3825.666</ele>
        <time>2022-12-18T07:23:46Z</time>
      </trkpt>
      <trkpt lat="1.970363" lon="-76.763099">
        <ele>3825.914</ele>
        <time>2022-12-18T07:23:48Z</time>
      </trkpt>
      <trkpt lat="1.970417" lon="-76.763114">
        <ele>3825.919</ele>
        <time>2022-12-18T07:23:50Z</time>
      </trkpt>
      <trkpt lat="1.970471" lon="-76.763126">
        <ele>3826.390</ele>
        <time>2022-12-18T07:23:52Z</time>
      </trkpt>
      <trkpt lat="1.970524" lon="-76.763146">
        <ele>3826.577</ele>
        <time>2022-12-18T07:23:54Z</time>
      </trkpt>
      <trkpt lat="1.970569" lon="-76.763164">
        <ele>3826.169</ele>
        <time>2022-12-18T07:23:56Z</time>
      </trkpt>
      <trkpt lat="1.970609" lon="-76.763189">
        <ele>3817.004</ele>
        <time>2022-12-18T07:23:58Z</time>
      </trkpt>
      <trkpt lat="1.970648" lon="-76.763221">
        <ele>3812.324</ele>
        <time>2022-12-18T07:24:00Z</time>
      </trkpt>
      <trkpt lat="1.970686" lon="-76.763259">
        <ele>3812.309</ele>
        <time>2022-12-18T07:24:02Z</time>
      </trkpt>
      <trkpt lat="1.970727" lon="-76.763301">
        <ele>3814.177</ele>
        <time>2022-12-18T07:24:05Z</time>
      </trkpt>
      <trkpt lat="1.970763" lon="-76.763333">
        <ele>3819.228</ele>
        <time>2022-12-18T07:24:07Z</time>
      </trkpt>
      <trkpt lat="1.970804" lon="-76.76337">
        <ele>3821.397</ele>
        <time>2022-12-18T07:24:09Z</time>
      </trkpt>
      <trkpt lat="1.970846" lon="-76.763398">
        <ele>3822.381</ele>
        <time>2022-12-18T07:24:11Z</time>
      </trkpt>
      <trkpt lat="1.970896" lon="-76.763425">
        <ele>3824.268</ele>
        <time>2022-12-18T07:24:13Z</time>
      </trkpt>
      <trkpt lat="1.970937" lon="-76.763444">
        <ele>3824.446</ele>
        <time>2022-12-18T07:24:14Z</time>
      </trkpt>
      <trkpt lat="1.970998" lon="-76.763459">
        <ele>3824.691</ele>
        <time>2022-12-18T07:24:17Z</time>
      </trkpt>
      <trkpt lat="1.971077" lon="-76.763459">
        <ele>3824.952</ele>
        <time>2022-12-18T07:24:20Z</time>
      </trkpt>
      <trkpt lat="1.971143" lon="-76.763442">
        <ele>3825.289</ele>
        <time>2022-12-18T07:24:23Z</time>
      </trkpt>
      <trkpt lat="1.971196" lon="-76.763415">
        <ele>3825.248</ele>
        <time>2022-12-18T07:24:25Z</time>
      </trkpt>
      <trkpt lat="1.971255" lon="-76.763382">
        <ele>3825.961</ele>
        <time>2022-12-18T07:24:27Z</time>
      </trkpt>
      <trkpt lat="1.971301" lon="-76.763359">
        <ele>3825.917</ele>
        <time>2022-12-18T07:24:29Z</time>
      </trkpt>
      <trkpt lat="1.971366" lon="-76.763325">
        <ele>3825.909</ele>
        <time>2022-12-18T07:24:31Z</time>
      </trkpt>
      <trkpt lat="1.971456" lon="-76.763279">
        <ele>3825.235</ele>
        <time>2022-12-18T07:24:37Z</time>
      </trkpt>
      <trkpt lat="1.971582" lon="-76.763212">
        <ele>3817.666</ele>
        <time>2022-12-18T07:24:39Z</time>
      </trkpt>
      <trkpt lat="1.971645" lon="-76.763178">
        <ele>3822.695</ele>
        <time>2022-12-18T07:24:41Z</time>
      </trkpt>
      <trkpt lat="1.971698" lon="-76.763145">
        <ele>3823.969</ele>
        <time>2022-12-18T07:24:43Z</time>
      </trkpt>
      <trkpt lat="1.971754" lon="-76.763109">
        <ele>3824.416</ele>
        <time>2022-12-18T07:24:45Z</time>
      </trkpt>
      <trkpt lat="1.971804" lon="-76.763078">
        <ele>3824.724</ele>
        <time>2022-12-18T07:24:47Z</time>
      </trkpt>
      <trkpt lat="1.971861" lon="-76.763043">
        <ele>3824.819</ele>
        <time>2022-12-18T07:24:49Z</time>
      </trkpt>
      <trkpt lat="1.971915" lon="-76.763006">
        <ele>3825.870</ele>
        <time>2022-12-18T07:24:51Z</time>
      </trkpt>
      <trkpt lat="1.971969" lon="-76.762977">
        <ele>3826.357</ele>
        <time>2022-12-18T07:24:53Z</time>
      </trkpt>
      <trkpt lat="1.97204" lon="-76.762948">
        <ele>3826.398</ele>
        <time>2022-12-18T07:24:55Z</time>
      </trkpt>
      <trkpt lat="1.972103" lon="-76.762917">
        <ele>3826.315</ele>
        <time>2022-12-18T07:24:57Z</time>
      </trkpt>
      <trkpt lat="1.972163" lon="-76.762882">
        <ele>3826.226</ele>
        <time>2022-12-18T07:24:59Z</time>
      </trkpt>
      <trkpt lat="1.972242" lon="-76.762839">
        <ele>3825.909</ele>
        <time>2022-12-18T07:25:01Z</time>
      </trkpt>
      <trkpt lat="1.972301" lon="-76.762807">
        <ele>3826.020</ele>
        <time>2022-12-18T07:25:03Z</time>
      </trkpt>
      <trkpt lat="1.972351" lon="-76.762777">
        <ele>3825.821</ele>
        <time>2022-12-18T07:25:05Z</time>
      </trkpt>
      <trkpt lat="1.972403" lon="-76.762746">
        <ele>3825.780</ele>
        <time>2022-12-18T07:25:07Z</time>
      </trkpt>
      <trkpt lat="1.972462" lon="-76.762706">
        <ele>3825.614</ele>
        <time>2022-12-18T07:25:09Z</time>
      </trkpt>
      <trkpt lat="1.972514" lon="-76.762667">
        <ele>3825.831</ele>
        <time>2022-12-18T07:25:11Z</time>
      </trkpt>
      <trkpt lat="1.972566" lon="-76.762635">
        <ele>3825.849</ele>
        <time>2022-12-18T07:25:13Z</time>
      </trkpt>
      <trkpt lat="1.972616" lon="-76.762609">
        <ele>3826.594</ele>
        <time>2022-12-18T07:25:15Z</time>
      </trkpt>
      <trkpt lat="1.972668" lon="-76.762579">
        <ele>3826.595</ele>
        <time>2022-12-18T07:25:17Z</time>
      </trkpt>
      <trkpt lat="1.972731" lon="-76.76255">
        <ele>3826.772</ele>
        <time>2022-12-18T07:25:19Z</time>
      </trkpt>
      <trkpt lat="1.972786" lon="-76.762527">
        <ele>3826.369</ele>
        <time>2022-12-18T07:25:21Z</time>
      </trkpt>
      <trkpt lat="1.972844" lon="-76.762514">
        <ele>3826.104</ele>
        <time>2022-12-18T07:25:23Z</time>
      </trkpt>
      <trkpt lat="1.972909" lon="-76.76251">
        <ele>3826.124</ele>
        <time>2022-12-18T07:25:25Z</time>
      </trkpt>
      <trkpt lat="1.97299" lon="-76.762515">
        <ele>3826.109</ele>
        <time>2022-12-18T07:25:27Z</time>
      </trkpt>
      <trkpt lat="1.973058" lon="-76.762523">
        <ele>3826.597</ele>
        <time>2022-12-18T07:25:29Z</time>
      </trkpt>
      <trkpt lat="1.973127" lon="-76.762532">
        <ele>3827.138</ele>
        <time>2022-12-18T07:25:31Z</time>
      </trkpt>
      <trkpt lat="1.973189" lon="-76.762538">
        <ele>3827.337</ele>
        <time>2022-12-18T07:25:33Z</time>
      </trkpt>
      <trkpt lat="1.973253" lon="-76.762542">
        <ele>3827.271</ele>
        <time>2022-12-18T07:25:35Z</time>
      </trkpt>
      <trkpt lat="1.973323" lon="-76.762542">
        <ele>3827.258</ele>
        <time>2022-12-18T07:25:37Z</time>
      </trkpt>
      <trkpt lat="1.973385" lon="-76.762538">
        <ele>3827.726</ele>
        <time>2022-12-18T07:25:39Z</time>
      </trkpt>
      <trkpt lat="1.973446" lon="-76.76254">
        <ele>3827.791</ele>
        <time>2022-12-18T07:25:41Z</time>
      </trkpt>
      <trkpt lat="1.97351" lon="-76.76254">
        <ele>3828.022</ele>
        <time>2022-12-18T07:25:43Z</time>
      </trkpt>
      <trkpt lat="1.973581" lon="-76.762536">
        <ele>3828.279</ele>
        <time>2022-12-18T07:25:45Z</time>
      </trkpt>
      <trkpt lat="1.973659" lon="-76.762535">
        <ele>3828.592</ele>
        <time>2022-12-18T07:25:50Z</time>
      </trkpt>
      <trkpt lat="1.973806" lon="-76.762525">
        <ele>3829.373</ele>
        <time>2022-12-18T07:25:52Z</time>
      </trkpt>
      <trkpt lat="1.973888" lon="-76.762521">
        <ele>3830.520</ele>
        <time>2022-12-18T07:25:54Z</time>
      </trkpt>
      <trkpt lat="1.97396" lon="-76.762524">
        <ele>3830.809</ele>
        <time>2022-12-18T07:25:56Z</time>
      </trkpt>
      <trkpt lat="1.974026" lon="-76.762526">
        <ele>3831.040</ele>
        <time>2022-12-18T07:25:58Z</time>
      </trkpt>
      <trkpt lat="1.974081" lon="-76.762526">
        <ele>3831.221</ele>
        <time>2022-12-18T07:26:00Z</time>
      </trkpt>
      <trkpt lat="1.974143" lon="-76.762526">
        <ele>3831.490</ele>
        <time>2022-12-18T07:26:02Z</time>
      </trkpt>
      <trkpt lat="1.974232" lon="-76.762526">
        <ele>3830.914</ele>
        <time>2022-12-18T07:26:04Z</time>
      </trkpt>
      <trkpt lat="1.974306" lon="-76.762527">
        <ele>3829.741</ele>
        <time>2022-12-18T07:26:06Z</time>
      </trkpt>
      <trkpt lat="1.974372" lon="-76.762523">
        <ele>3828.459</ele>
        <time>2022-12-18T07:26:08Z</time>
      </trkpt>
      <trkpt lat="1.974449" lon="-76.762512">
        <ele>3827.744</ele>
        <time>2022-12-18T07:26:10Z</time>
      </trkpt>
      <trkpt lat="1.974521" lon="-76.762493">
        <ele>3826.745</ele>
        <time>2022-12-18T07:26:12Z</time>
      </trkpt>
      <trkpt lat="1.974608" lon="-76.762466">
        <ele>3826.082</ele>
        <time>2022-12-18T07:26:14Z</time>
      </trkpt>
      <trkpt lat="1.974687" lon="-76.762442">
        <ele>3825.731</ele>
        <time>2022-12-18T07:26:16Z</time>
      </trkpt>
      <trkpt lat="1.974761" lon="-76.762417">
        <ele>3825.561</ele>
        <time>2022-12-18T07:26:18Z</time>
      </trkpt>
      <trkpt lat="1.974842" lon="-76.762387">
        <ele>3825.507</ele>
        <time>2022-12-18T07:26:20Z</time>
      </trkpt>
      <trkpt lat="1.974922" lon="-76.762355">
        <ele>3826.409</ele>
        <time>2022-12-18T07:26:22Z</time>
      </trkpt>
      <trkpt lat="1.974988" lon="-76.762326">
        <ele>3827.114</ele>
        <time>2022-12-18T07:26:24Z</time>
      </trkpt>
      <trkpt lat="1.975062" lon="-76.762294">
        <ele>3827.495</ele>
        <time>2022-12-18T07:26:26Z</time>
      </trkpt>
      <trkpt lat="1.975145" lon="-76.762259">
        <ele>3827.844</ele>
        <time>2022-12-18T07:26:28Z</time>
      </trkpt>
      <trkpt lat="1.975219" lon="-76.762224">
        <ele>3827.818</ele>
        <time>2022-12-18T07:26:30Z</time>
      </trkpt>
      <trkpt lat="1.975287" lon="-76.762195">
        <ele>3827.815</ele>
        <time>2022-12-18T07:26:32Z</time>
      </trkpt>
      <trkpt lat="1.975353" lon="-76.762177">
        <ele>3829.153</ele>
        <time>2022-12-18T07:26:34Z</time>
      </trkpt>
      <trkpt lat="1.975418" lon="-76.762163">
        <ele>3829.128</ele>
        <time>2022-12-18T07:26:36Z</time>
      </trkpt>
      <trkpt lat="1.975497" lon="-76.762141">
        <ele>3829.179</ele>
        <time>2022-12-18T07:26:38Z</time>
      </trkpt>
      <trkpt lat="1.975567" lon="-76.762115">
        <ele>3828.336</ele>
        <time>2022-12-18T07:26:40Z</time>
      </trkpt>
      <trkpt lat="1.975652" lon="-76.762081">
        <ele>3827.675</ele>
        <time>2022-12-18T07:26:42Z</time>
      </trkpt>
      <trkpt lat="1.975733" lon="-76.762048">
        <ele>3826.728</ele>
        <time>2022-12-18T07:26:44Z</time>
      </trkpt>
      <trkpt lat="1.975808" lon="-76.762027">
        <ele>3826.720</ele>
        <time>2022-12-18T07:26:46Z</time>
      </trkpt>
      <trkpt lat="1.975874" lon="-76.76201">
        <ele>3827.209</ele>
        <time>2022-12-18T07:26:48Z</time>
      </trkpt>
      <trkpt lat="1.975931" lon="-76.761993">
        <ele>3827.718</ele>
        <time>2022-12-18T07:26:50Z</time>
      </trkpt>
      <trkpt lat="1.975998" lon="-76.761968">
        <ele>3827.969</ele>
        <time>2022-12-18T07:26:52Z</time>
      </trkpt>
      <trkpt lat="1.976048" lon="-76.761948">
        <ele>3828.068</ele>
        <time>2022-12-18T07:26:57Z</time>
      </trkpt>
      <trkpt lat="1.976188" lon="-76.761868">
        <ele>3828.052</ele>
        <time>2022-12-18T07:26:59Z</time>
      </trkpt>
      <trkpt lat="1.976287" lon="-76.76179">
        <ele>3826.179</ele>
        <time>2022-12-18T07:27:01Z</time>
      </trkpt>
      <trkpt lat="1.976365" lon="-76.761732">
        <ele>3824.727</ele>
        <time>2022-12-18T07:27:03Z</time>
      </trkpt>
      <trkpt lat="1.976449" lon="-76.76168">
        <ele>3825.472</ele>
        <time>2022-12-18T07:27:05Z</time>
      </trkpt>
      <trkpt lat="1.976525" lon="-76.761648">
        <ele>3824.713</ele>
        <time>2022-12-18T07:27:07Z</time>
      </trkpt>
      <trkpt lat="1.976606" lon="-76.761627">
        <ele>3824.620</ele>
        <time>2022-12-18T07:27:09Z</time>
      </trkpt>
      <trkpt lat="1.976689" lon="-76.761614">
        <ele>3824.677</ele>
        <time>2022-12-18T07:27:11Z</time>
      </trkpt>
      <trkpt lat="1.976778" lon="-76.76162">
        <ele>3825.261</ele>
        <time>2022-12-18T07:27:13Z</time>
      </trkpt>
      <trkpt lat="1.976838" lon="-76.761623">
        <ele>3825.427</ele>
        <time>2022-12-18T07:27:15Z</time>
      </trkpt>
      <trkpt lat="1.976932" lon="-76.761634">
        <ele>3826.709</ele>
        <time>2022-12-18T07:27:17Z</time>
      </trkpt>
      <trkpt lat="1.977025" lon="-76.761631">
        <ele>3826.618</ele>
        <time>2022-12-18T07:27:19Z</time>
      </trkpt>
      <trkpt lat="1.977095" lon="-76.76164">
        <ele>3826.989</ele>
        <time>2022-12-18T07:27:20Z</time>
      </trkpt>
      <trkpt lat="1.977167" lon="-76.761644">
        <ele>3826.688</ele>
        <time>2022-12-18T07:27:22Z</time>
      </trkpt>
      <trkpt lat="1.977251" lon="-76.761645">
        <ele>3826.692</ele>
        <time>2022-12-18T07:27:24Z</time>
      </trkpt>
      <trkpt lat="1.977331" lon="-76.761639">
        <ele>3827.139</ele>
        <time>2022-12-18T07:27:26Z</time>
      </trkpt>
      <trkpt lat="1.977407" lon="-76.76162">
        <ele>3828.077</ele>
        <time>2022-12-18T07:27:28Z</time>
      </trkpt>
      <trkpt lat="1.977477" lon="-76.761585">
        <ele>3828.222</ele>
        <time>2022-12-18T07:27:30Z</time>
      </trkpt>
      <trkpt lat="1.977528" lon="-76.761562">
        <ele>3829.193</ele>
        <time>2022-12-18T07:27:32Z</time>
      </trkpt>
      <trkpt lat="1.977583" lon="-76.761529">
        <ele>3829.660</ele>
        <time>2022-12-18T07:27:34Z</time>
      </trkpt>
      <trkpt lat="1.977654" lon="-76.761471">
        <ele>3830.935</ele>
        <time>2022-12-18T07:27:36Z</time>
      </trkpt>
      <trkpt lat="1.977689" lon="-76.761442">
        <ele>3831.186</ele>
        <time>2022-12-18T07:27:37Z</time>
      </trkpt>
      <trkpt lat="1.977757" lon="-76.761397">
        <ele>3831.514</ele>
        <time>2022-12-18T07:27:39Z</time>
      </trkpt>
      <trkpt lat="1.977829" lon="-76.761373">
        <ele>3832.009</ele>
        <time>2022-12-18T07:27:41Z</time>
      </trkpt>
      <trkpt lat="1.977903" lon="-76.761355">
        <ele>3832.184</ele>
        <time>2022-12-18T07:27:43Z</time>
      </trkpt>
      <trkpt lat="1.977969" lon="-76.761332">
        <ele>3832.195</ele>
        <time>2022-12-18T07:27:45Z</time>
      </trkpt>
      <trkpt lat="1.978016" lon="-76.761326">
        <ele>3831.414</ele>
        <time>2022-12-18T07:27:46Z</time>
      </trkpt>
      <trkpt lat="1.978079" lon="-76.761331">
        <ele>3831.768</ele>
        <time>2022-12-18T07:27:48Z</time>
      </trkpt>
      <trkpt lat="1.978145" lon="-76.761356">
        <ele>3831.995</ele>
        <time>2022-12-18T07:27:51Z</time>
      </trkpt>
      <trkpt lat="1.978219" lon="-76.761371">
        <ele>3831.913</ele>
        <time>2022-12-18T07:27:53Z</time>
      </trkpt>
      <trkpt lat="1.978276" lon="-76.761389">
        <ele>3832.778</ele>
        <time>2022-12-18T07:27:55Z</time>
      </trkpt>
      <trkpt lat="1.978355" lon="-76.761406">
        <ele>3833.929</ele>
        <time>2022-12-18T07:27:57Z</time>
      </trkpt>
      <trkpt lat="1.978425" lon="-76.761421">
        <ele>3834.436</ele>
        <time>2022-12-18T07:27:59Z</time>
      </trkpt>
      <trkpt lat="1.978492" lon="-76.76144">
        <ele>3834.731</ele>
        <time>2022-12-18T07:28:01Z</time>
      </trkpt>
      <trkpt lat="1.978568" lon="-76.761451">
        <ele>3835.961</ele>
        <time>2022-12-18T07:28:03Z</time>
      </trkpt>
      <trkpt lat="1.978644" lon="-76.761463">
        <ele>3839.007</ele>
        <time>2022-12-18T07:28:05Z</time>
      </trkpt>
      <trkpt lat="1.978723" lon="-76.761459">
        <ele>3839.909</ele>
        <time>2022-12-18T07:28:07Z</time>
      </trkpt>
      <trkpt lat="1.978784" lon="-76.761447">
        <ele>3840.624</ele>
        <time>2022-12-18T07:28:09Z</time>
      </trkpt>
      <trkpt lat="1.978839" lon="-76.761439">
        <ele>3841.345</ele>
        <time>2022-12-18T07:28:11Z</time>
      </trkpt>
      <trkpt lat="1.97892" lon="-76.761426">
        <ele>3841.674</ele>
        <time>2022-12-18T07:28:13Z</time>
      </trkpt>
      <trkpt lat="1.978966" lon="-76.761415">
        <ele>3841.618</ele>
        <time>2022-12-18T07:28:14Z</time>
      </trkpt>
      <trkpt lat="1.979022" lon="-76.76139">
        <ele>3841.615</ele>
        <time>2022-12-18T07:28:16Z</time>
      </trkpt>
      <trkpt lat="1.979066" lon="-76.761356">
        <ele>3840.663</ele>
        <time>2022-12-18T07:28:18Z</time>
      </trkpt>
      <trkpt lat="1.979131" lon="-76.761313">
        <ele>3836.918</ele>
        <time>2022-12-18T07:28:20Z</time>
      </trkpt>
      <trkpt lat="1.979198" lon="-76.761258">
        <ele>3833.459</ele>
        <time>2022-12-18T07:28:22Z</time>
      </trkpt>
      <trkpt lat="1.979257" lon="-76.761185">
        <ele>3833.476</ele>
        <time>2022-12-18T07:28:24Z</time>
      </trkpt>
      <trkpt lat="1.979302" lon="-76.761127">
        <ele>3832.475</ele>
        <time>2022-12-18T07:28:26Z</time>
      </trkpt>
      <trkpt lat="1.979352" lon="-76.761076">
        <ele>3832.428</ele>
        <time>2022-12-18T07:28:28Z</time>
      </trkpt>
      <trkpt lat="1.979399" lon="-76.761024">
        <ele>3832.420</ele>
        <time>2022-12-18T07:28:30Z</time>
      </trkpt>
      <trkpt lat="1.979444" lon="-76.760976">
        <ele>3832.409</ele>
        <time>2022-12-18T07:28:32Z</time>
      </trkpt>
      <trkpt lat="1.979482" lon="-76.760934">
        <ele>3832.538</ele>
        <time>2022-12-18T07:28:34Z</time>
      </trkpt>
      <trkpt lat="1.97953" lon="-76.760889">
        <ele>3832.569</ele>
        <time>2022-12-18T07:28:36Z</time>
      </trkpt>
      <trkpt lat="1.97957" lon="-76.760847">
        <ele>3832.568</ele>
        <time>2022-12-18T07:28:38Z</time>
      </trkpt>
      <trkpt lat="1.979603" lon="-76.760805">
        <ele>3832.762</ele>
        <time>2022-12-18T07:28:40Z</time>
      </trkpt>
      <trkpt lat="1.979636" lon="-76.760762">
        <ele>3832.839</ele>
        <time>2022-12-18T07:28:43Z</time>
      </trkpt>
      <trkpt lat="1.979674" lon="-76.760718">
        <ele>3833.047</ele>
        <time>2022-12-18T07:28:46Z</time>
      </trkpt>
      <trkpt lat="1.979709" lon="-76.760682">
        <ele>3833.192</ele>
        <time>2022-12-18T07:28:49Z</time>
      </trkpt>
      <trkpt lat="1.979746" lon="-76.760652">
        <ele>3834.753</ele>
        <time>2022-12-18T07:29:09Z</time>
      </trkpt>
      <trkpt lat="1.979765" lon="-76.760611">
        <ele>3836.080</ele>
        <time>2022-12-18T07:29:14Z</time>
      </trkpt>
      <trkpt lat="1.979805" lon="-76.760589">
        <ele>3837.742</ele>
        <time>2022-12-18T07:31:25Z</time>
      </trkpt>
      <trkpt lat="1.979796" lon="-76.760529">
        <ele>3837.722</ele>
        <time>2022-12-18T07:31:45Z</time>
      </trkpt>
      <trkpt lat="1.979801" lon="-76.76048">
        <ele>3837.714</ele>
        <time>2022-12-18T07:31:48Z</time>
      </trkpt>
      <trkpt lat="1.979811" lon="-76.760431">
        <ele>3837.709</ele>
        <time>2022-12-18T07:31:51Z</time>
      </trkpt>
      <trkpt lat="1.979815" lon="-76.760376">
        <ele>3837.755</ele>
        <time>2022-12-18T07:31:55Z</time>
      </trkpt>
      <trkpt lat="1.979835" lon="-76.760326">
        <ele>3837.716</ele>
        <time>2022-12-18T07:31:58Z</time>
      </trkpt>
      <trkpt lat="1.979864" lon="-76.760287">
        <ele>3840.835</ele>
        <time>2022-12-18T07:32:01Z</time>
      </trkpt>
      <trkpt lat="1.979913" lon="-76.760285">
        <ele>3840.679</ele>
        <time>2022-12-18T07:32:05Z</time>
      </trkpt>
      <trkpt lat="1.979959" lon="-76.760278">
        <ele>3835.886</ele>
        <time>2022-12-18T07:32:10Z</time>
      </trkpt>
      <trkpt lat="1.979965" lon="-76.760232">
        <ele>3835.974</ele>
        <time>2022-12-18T07:32:13Z</time>
      </trkpt>
      <trkpt lat="1.97992" lon="-76.76022">
        <ele>3837.019</ele>
        <time>2022-12-18T07:32:59Z</time>
      </trkpt>
      <trkpt lat="1.979872" lon="-76.760227">
        <ele>3837.460</ele>
        <time>2022-12-18T07:35:06Z</time>
      </trkpt>
      <trkpt lat="1.979823" lon="-76.760229">
        <ele>3837.627</ele>
        <time>2022-12-18T07:35:10Z</time>
      </trkpt>
      <trkpt lat="1.979793" lon="-76.760264">
        <ele>3838.219</ele>
        <time>2022-12-18T07:35:21Z</time>
      </trkpt>
      <trkpt lat="1.97976" lon="-76.760217">
        <ele>3838.809</ele>
        <time>2022-12-18T07:35:26Z</time>
      </trkpt>
      <trkpt lat="1.979745" lon="-76.760174">
        <ele>3839.719</ele>
        <time>2022-12-18T07:35:27Z</time>
      </trkpt>
      <trkpt lat="1.979729" lon="-76.760128">
        <ele>3840.709</ele>
        <time>2022-12-18T07:35:29Z</time>
      </trkpt>
      <trkpt lat="1.979728" lon="-76.760072">
        <ele>3841.212</ele>
        <time>2022-12-18T07:35:32Z</time>
      </trkpt>
      <trkpt lat="1.979751" lon="-76.760013">
        <ele>3841.573</ele>
        <time>2022-12-18T07:35:35Z</time>
      </trkpt>
      <trkpt lat="1.979776" lon="-76.759973">
        <ele>3842.752</ele>
        <time>2022-12-18T07:35:37Z</time>
      </trkpt>
      <trkpt lat="1.979774" lon="-76.759917">
        <ele>3843.326</ele>
        <time>2022-12-18T07:35:41Z</time>
      </trkpt>
      <trkpt lat="1.979772" lon="-76.759863">
        <ele>3844.273</ele>
        <time>2022-12-18T07:35:44Z</time>
      </trkpt>
      <trkpt lat="1.97977" lon="-76.759808">
        <ele>3844.661</ele>
        <time>2022-12-18T07:35:47Z</time>
      </trkpt>
      <trkpt lat="1.979771" lon="-76.759745">
        <ele>3845.076</ele>
        <time>2022-12-18T07:35:50Z</time>
      </trkpt>
      <trkpt lat="1.979765" lon="-76.759693">
        <ele>3845.467</ele>
        <time>2022-12-18T07:35:53Z</time>
      </trkpt>
      <trkpt lat="1.979751" lon="-76.759642">
        <ele>3845.574</ele>
        <time>2022-12-18T07:35:56Z</time>
      </trkpt>
      <trkpt lat="1.979749" lon="-76.759587">
        <ele>3845.491</ele>
        <time>2022-12-18T07:35:59Z</time>
      </trkpt>
      <trkpt lat="1.979735" lon="-76.759543">
        <ele>3845.181</ele>
        <time>2022-12-18T07:36:02Z</time>
      </trkpt>
      <trkpt lat="1.979695" lon="-76.759493">
        <ele>3844.719</ele>
        <time>2022-12-18T07:36:05Z</time>
      </trkpt>
      <trkpt lat="1.979653" lon="-76.759459">
        <ele>3844.709</ele>
        <time>2022-12-18T07:36:08Z</time>
      </trkpt>
      <trkpt lat="1.979609" lon="-76.759428">
        <ele>3845.110</ele>
        <time>2022-12-18T07:36:11Z</time>
      </trkpt>
      <trkpt lat="1.979564" lon="-76.759393">
        <ele>3845.231</ele>
        <time>2022-12-18T07:36:14Z</time>
      </trkpt>
      <trkpt lat="1.979519" lon="-76.759362">
        <ele>3846.830</ele>
        <time>2022-12-18T07:36:17Z</time>
      </trkpt>
      <trkpt lat="1.979477" lon="-76.759329">
        <ele>3847.494</ele>
        <time>2022-12-18T07:36:20Z</time>
      </trkpt>
      <trkpt lat="1.979419" lon="-76.759303">
        <ele>3847.661</ele>
        <time>2022-12-18T07:36:23Z</time>
      </trkpt>
      <trkpt lat="1.979374" lon="-76.75928">
        <ele>3848.589</ele>
        <time>2022-12-18T07:36:25Z</time>
      </trkpt>
      <trkpt lat="1.979316" lon="-76.759236">
        <ele>3849.124</ele>
        <time>2022-12-18T07:36:27Z</time>
      </trkpt>
      <trkpt lat="1.979223" lon="-76.75915">
        <ele>3849.465</ele>
        <time>2022-12-18T07:36:29Z</time>
      </trkpt>
      <trkpt lat="1.979191" lon="-76.759107">
        <ele>3849.952</ele>
        <time>2022-12-18T07:36:30Z</time>
      </trkpt>
      <trkpt lat="1.979165" lon="-76.759054">
        <ele>3843.127</ele>
        <time>2022-12-18T07:36:31Z</time>
      </trkpt>
      <trkpt lat="1.979143" lon="-76.758996">
        <ele>3842.968</ele>
        <time>2022-12-18T07:36:33Z</time>
      </trkpt>
      <trkpt lat="1.979129" lon="-76.758946">
        <ele>3843.114</ele>
        <time>2022-12-18T07:36:35Z</time>
      </trkpt>
      <trkpt lat="1.979108" lon="-76.758876">
        <ele>3843.109</ele>
        <time>2022-12-18T07:36:37Z</time>
      </trkpt>
      <trkpt lat="1.979083" lon="-76.758812">
        <ele>3842.953</ele>
        <time>2022-12-18T07:36:39Z</time>
      </trkpt>
      <trkpt lat="1.979044" lon="-76.758744">
        <ele>3842.864</ele>
        <time>2022-12-18T07:36:41Z</time>
      </trkpt>
      <trkpt lat="1.978991" lon="-76.758691">
        <ele>3842.593</ele>
        <time>2022-12-18T07:36:43Z</time>
      </trkpt>
      <trkpt lat="1.978925" lon="-76.758642">
        <ele>3841.797</ele>
        <time>2022-12-18T07:36:45Z</time>
      </trkpt>
      <trkpt lat="1.978857" lon="-76.758605">
        <ele>3840.864</ele>
        <time>2022-12-18T07:36:47Z</time>
      </trkpt>
      <trkpt lat="1.978806" lon="-76.758564">
        <ele>3841.422</ele>
        <time>2022-12-18T07:36:49Z</time>
      </trkpt>
      <trkpt lat="1.978766" lon="-76.758529">
        <ele>3841.737</ele>
        <time>2022-12-18T07:36:50Z</time>
      </trkpt>
      <trkpt lat="1.978731" lon="-76.758494">
        <ele>3842.238</ele>
        <time>2022-12-18T07:36:52Z</time>
      </trkpt>
      <trkpt lat="1.97868" lon="-76.758447">
        <ele>3842.285</ele>
        <time>2022-12-18T07:36:54Z</time>
      </trkpt>
      <trkpt lat="1.978632" lon="-76.758409">
        <ele>3842.747</ele>
        <time>2022-12-18T07:36:56Z</time>
      </trkpt>
      <trkpt lat="1.978589" lon="-76.758366">
        <ele>3842.729</ele>
        <time>2022-12-18T07:36:58Z</time>
      </trkpt>
      <trkpt lat="1.978546" lon="-76.758324">
        <ele>3843.421</ele>
        <time>2022-12-18T07:37:00Z</time>
      </trkpt>
      <trkpt lat="1.978499" lon="-76.75829">
        <ele>3844.709</ele>
        <time>2022-12-18T07:37:02Z</time>
      </trkpt>
      <trkpt lat="1.978446" lon="-76.758243">
        <ele>3844.915</ele>
        <time>2022-12-18T07:37:04Z</time>
      </trkpt>
      <trkpt lat="1.978402" lon="-76.758206">
        <ele>3845.556</ele>
        <time>2022-12-18T07:37:06Z</time>
      </trkpt>
      <trkpt lat="1.978362" lon="-76.758173">
        <ele>3845.455</ele>
        <time>2022-12-18T07:37:08Z</time>
      </trkpt>
      <trkpt lat="1.978327" lon="-76.758138">
        <ele>3845.519</ele>
        <time>2022-12-18T07:37:10Z</time>
      </trkpt>
      <trkpt lat="1.978285" lon="-76.758101">
        <ele>3845.726</ele>
        <time>2022-12-18T07:37:12Z</time>
      </trkpt>
      <trkpt lat="1.978245" lon="-76.758063">
        <ele>3846.354</ele>
        <time>2022-12-18T07:37:14Z</time>
      </trkpt>
      <trkpt lat="1.978199" lon="-76.758024">
        <ele>3846.589</ele>
        <time>2022-12-18T07:37:16Z</time>
      </trkpt>
      <trkpt lat="1.978152" lon="-76.757987">
        <ele>3848.230</ele>
        <time>2022-12-18T07:37:18Z</time>
      </trkpt>
      <trkpt lat="1.978108" lon="-76.757952">
        <ele>3848.527</ele>
        <time>2022-12-18T07:37:20Z</time>
      </trkpt>
      <trkpt lat="1.978062" lon="-76.757917">
        <ele>3848.592</ele>
        <time>2022-12-18T07:37:22Z</time>
      </trkpt>
      <trkpt lat="1.978016" lon="-76.75788">
        <ele>3848.573</ele>
        <time>2022-12-18T07:37:24Z</time>
      </trkpt>
      <trkpt lat="1.977967" lon="-76.757846">
        <ele>3848.720</ele>
        <time>2022-12-18T07:37:26Z</time>
      </trkpt>
      <trkpt lat="1.97792" lon="-76.757814">
        <ele>3849.709</ele>
        <time>2022-12-18T07:37:28Z</time>
      </trkpt>
      <trkpt lat="1.977871" lon="-76.757779">
        <ele>3851.290</ele>
        <time>2022-12-18T07:37:30Z</time>
      </trkpt>
      <trkpt lat="1.977822" lon="-76.757747">
        <ele>3852.031</ele>
        <time>2022-12-18T07:37:32Z</time>
      </trkpt>
      <trkpt lat="1.977777" lon="-76.757717">
        <ele>3852.630</ele>
        <time>2022-12-18T07:37:34Z</time>
      </trkpt>
      <trkpt lat="1.977726" lon="-76.757686">
        <ele>3853.424</ele>
        <time>2022-12-18T07:37:36Z</time>
      </trkpt>
      <trkpt lat="1.977671" lon="-76.757667">
        <ele>3853.121</ele>
        <time>2022-12-18T07:37:38Z</time>
      </trkpt>
      <trkpt lat="1.977612" lon="-76.757646">
        <ele>3853.689</ele>
        <time>2022-12-18T07:37:40Z</time>
      </trkpt>
      <trkpt lat="1.977564" lon="-76.757632">
        <ele>3853.674</ele>
        <time>2022-12-18T07:37:42Z</time>
      </trkpt>
      <trkpt lat="1.977507" lon="-76.757616">
        <ele>3854.125</ele>
        <time>2022-12-18T07:37:44Z</time>
      </trkpt>
      <trkpt lat="1.97745" lon="-76.757591">
        <ele>3854.012</ele>
        <time>2022-12-18T07:37:46Z</time>
      </trkpt>
      <trkpt lat="1.977391" lon="-76.757576">
        <ele>3855.047</ele>
        <time>2022-12-18T07:37:48Z</time>
      </trkpt>
      <trkpt lat="1.977326" lon="-76.757565">
        <ele>3855.729</ele>
        <time>2022-12-18T07:37:50Z</time>
      </trkpt>
      <trkpt lat="1.97726" lon="-76.757561">
        <ele>3856.121</ele>
        <time>2022-12-18T07:37:52Z</time>
      </trkpt>
      <trkpt lat="1.977198" lon="-76.757565">
        <ele>3856.609</ele>
        <time>2022-12-18T07:37:54Z</time>
      </trkpt>
      <trkpt lat="1.977133" lon="-76.757583">
        <ele>3856.695</ele>
        <time>2022-12-18T07:37:56Z</time>
      </trkpt>
      <trkpt lat="1.977067" lon="-76.757606">
        <ele>3839.156</ele>
        <time>2022-12-18T07:37:58Z</time>
      </trkpt>
      <trkpt lat="1.976997" lon="-76.757625">
        <ele>3839.145</ele>
        <time>2022-12-18T07:38:00Z</time>
      </trkpt>
      <trkpt lat="1.976928" lon="-76.757642">
        <ele>3840.069</ele>
        <time>2022-12-18T07:38:02Z</time>
      </trkpt>
      <trkpt lat="1.976861" lon="-76.757655">
        <ele>3843.226</ele>
        <time>2022-12-18T07:38:04Z</time>
      </trkpt>
      <trkpt lat="1.976789" lon="-76.757657">
        <ele>3846.764</ele>
        <time>2022-12-18T07:38:06Z</time>
      </trkpt>
      <trkpt lat="1.976709" lon="-76.757642">
        <ele>3846.789</ele>
        <time>2022-12-18T07:38:08Z</time>
      </trkpt>
      <trkpt lat="1.976634" lon="-76.757623">
        <ele>3847.220</ele>
        <time>2022-12-18T07:38:10Z</time>
      </trkpt>
      <trkpt lat="1.976563" lon="-76.757599">
        <ele>3847.887</ele>
        <time>2022-12-18T07:38:12Z</time>
      </trkpt>
      <trkpt lat="1.976502" lon="-76.757565">
        <ele>3848.041</ele>
        <time>2022-12-18T07:38:14Z</time>
      </trkpt>
      <trkpt lat="1.976442" lon="-76.757527">
        <ele>3847.681</ele>
        <time>2022-12-18T07:38:16Z</time>
      </trkpt>
      <trkpt lat="1.976395" lon="-76.757489">
        <ele>3848.309</ele>
        <time>2022-12-18T07:38:18Z</time>
      </trkpt>
      <trkpt lat="1.976361" lon="-76.757453">
        <ele>3848.709</ele>
        <time>2022-12-18T07:38:20Z</time>
      </trkpt>
      <trkpt lat="1.976329" lon="-76.757416">
        <ele>3850.855</ele>
        <time>2022-12-18T07:38:22Z</time>
      </trkpt>
      <trkpt lat="1.976288" lon="-76.757382">
        <ele>3853.976</ele>
        <time>2022-12-18T07:38:24Z</time>
      </trkpt>
      <trkpt lat="1.976231" lon="-76.757354">
        <ele>3855.285</ele>
        <time>2022-12-18T07:38:26Z</time>
      </trkpt>
      <trkpt lat="1.976176" lon="-76.757336">
        <ele>3857.579</ele>
        <time>2022-12-18T07:38:28Z</time>
      </trkpt>
      <trkpt lat="1.97612" lon="-76.757314">
        <ele>3858.926</ele>
        <time>2022-12-18T07:38:30Z</time>
      </trkpt>
      <trkpt lat="1.976057" lon="-76.757313">
        <ele>3861.444</ele>
        <time>2022-12-18T07:38:32Z</time>
      </trkpt>
      <trkpt lat="1.976001" lon="-76.757314">
        <ele>3862.089</ele>
        <time>2022-12-18T07:38:33Z</time>
      </trkpt>
      <trkpt lat="1.975944" lon="-76.757316">
        <ele>3862.030</ele>
        <time>2022-12-18T07:38:35Z</time>
      </trkpt>
      <trkpt lat="1.975872" lon="-76.757317">
        <ele>3860.657</ele>
        <time>2022-12-18T07:38:37Z</time>
      </trkpt>
      <trkpt lat="1.975803" lon="-76.75732">
        <ele>3859.435</ele>
        <time>2022-12-18T07:38:39Z</time>
      </trkpt>
      <trkpt lat="1.975736" lon="-76.75733">
        <ele>3858.986</ele>
        <time>2022-12-18T07:38:41Z</time>
      </trkpt>
      <trkpt lat="1.975674" lon="-76.757351">
        <ele>3858.414</ele>
        <time>2022-12-18T07:38:43Z</time>
      </trkpt>
      <trkpt lat="1.975618" lon="-76.757373">
        <ele>3857.909</ele>
        <time>2022-12-18T07:38:45Z</time>
      </trkpt>
      <trkpt lat="1.975557" lon="-76.757393">
        <ele>3857.934</ele>
        <time>2022-12-18T07:38:47Z</time>
      </trkpt>
      <trkpt lat="1.975496" lon="-76.757411">
        <ele>3857.915</ele>
        <time>2022-12-18T07:38:49Z</time>
      </trkpt>
      <trkpt lat="1.975437" lon="-76.757422">
        <ele>3858.584</ele>
        <time>2022-12-18T07:38:51Z</time>
      </trkpt>
      <trkpt lat="1.97538" lon="-76.757421">
        <ele>3859.328</ele>
        <time>2022-12-18T07:38:53Z</time>
      </trkpt>
      <trkpt lat="1.975325" lon="-76.757404">
        <ele>3860.085</ele>
        <time>2022-12-18T07:38:55Z</time>
      </trkpt>
      <trkpt lat="1.975271" lon="-76.757382">
        <ele>3860.133</ele>
        <time>2022-12-18T07:38:57Z</time>
      </trkpt>
      <trkpt lat="1.975221" lon="-76.757346">
        <ele>3860.298</ele>
        <time>2022-12-18T07:38:59Z</time>
      </trkpt>
      <trkpt lat="1.975177" lon="-76.757304">
        <ele>3860.219</ele>
        <time>2022-12-18T07:39:01Z</time>
      </trkpt>
      <trkpt lat="1.975136" lon="-76.757261">
        <ele>3860.056</ele>
        <time>2022-12-18T07:39:03Z</time>
      </trkpt>
      <trkpt lat="1.975099" lon="-76.757198">
        <ele>3861.261</ele>
        <time>2022-12-18T07:39:06Z</time>
      </trkpt>
      <trkpt lat="1.975064" lon="-76.757147">
        <ele>3861.521</ele>
        <time>2022-12-18T07:39:08Z</time>
      </trkpt>
      <trkpt lat="1.975016" lon="-76.75711">
        <ele>3861.513</ele>
        <time>2022-12-18T07:39:10Z</time>
      </trkpt>
      <trkpt lat="1.974966" lon="-76.757077">
        <ele>3861.509</ele>
        <time>2022-12-18T07:39:12Z</time>
      </trkpt>
      <trkpt lat="1.974911" lon="-76.757054">
        <ele>3860.637</ele>
        <time>2022-12-18T07:39:14Z</time>
      </trkpt>
      <trkpt lat="1.974859" lon="-76.757043">
        <ele>3860.228</ele>
        <time>2022-12-18T07:39:16Z</time>
      </trkpt>
      <trkpt lat="1.974809" lon="-76.757043">
        <ele>3860.277</ele>
        <time>2022-12-18T07:39:18Z</time>
      </trkpt>
      <trkpt lat="1.974763" lon="-76.75705">
        <ele>3860.481</ele>
        <time>2022-12-18T07:39:20Z</time>
      </trkpt>
      <trkpt lat="1.974706" lon="-76.757065">
        <ele>3862.668</ele>
        <time>2022-12-18T07:39:23Z</time>
      </trkpt>
      <trkpt lat="1.974651" lon="-76.757083">
        <ele>3862.686</ele>
        <time>2022-12-18T07:39:26Z</time>
      </trkpt>
      <trkpt lat="1.974592" lon="-76.757111">
        <ele>3862.791</ele>
        <time>2022-12-18T07:39:29Z</time>
      </trkpt>
      <trkpt lat="1.974545" lon="-76.757117">
        <ele>3862.642</ele>
        <time>2022-12-18T07:39:31Z</time>
      </trkpt>
      <trkpt lat="1.974484" lon="-76.757127">
        <ele>3862.689</ele>
        <time>2022-12-18T07:39:33Z</time>
      </trkpt>
      <trkpt lat="1.974428" lon="-76.757134">
        <ele>3861.846</ele>
        <time>2022-12-18T07:39:36Z</time>
      </trkpt>
      <trkpt lat="1.974373" lon="-76.757138">
        <ele>3861.588</ele>
        <time>2022-12-18T07:39:38Z</time>
      </trkpt>
      <trkpt lat="1.974303" lon="-76.757138">
        <ele>3861.316</ele>
        <time>2022-12-18T07:39:41Z</time>
      </trkpt>
      <trkpt lat="1.974252" lon="-76.75713">
        <ele>3860.909</ele>
        <time>2022-12-18T07:39:43Z</time>
      </trkpt>
      <trkpt lat="1.974207" lon="-76.757114">
        <ele>3861.115</ele>
        <time>2022-12-18T07:39:45Z</time>
      </trkpt>
      <trkpt lat="1.974164" lon="-76.7571">
        <ele>3860.856</ele>
        <time>2022-12-18T07:39:47Z</time>
      </trkpt>
      <trkpt lat="1.974122" lon="-76.757082">
        <ele>3860.755</ele>
        <time>2022-12-18T07:39:49Z</time>
      </trkpt>
      <trkpt lat="1.974076" lon="-76.757072">
        <ele>3860.799</ele>
        <time>2022-12-18T07:39:51Z</time>
      </trkpt>
      <trkpt lat="1.974018" lon="-76.757044">
        <ele>3861.036</ele>
        <time>2022-12-18T07:39:54Z</time>
      </trkpt>
      <trkpt lat="1.973973" lon="-76.757026">
        <ele>3861.064</ele>
        <time>2022-12-18T07:39:56Z</time>
      </trkpt>
      <trkpt lat="1.973926" lon="-76.75702">
        <ele>3861.139</ele>
        <time>2022-12-18T07:39:58Z</time>
      </trkpt>
      <trkpt lat="1.973885" lon="-76.757002">
        <ele>3861.630</ele>
        <time>2022-12-18T07:40:00Z</time>
      </trkpt>
      <trkpt lat="1.973841" lon="-76.756989">
        <ele>3862.237</ele>
        <time>2022-12-18T07:40:02Z</time>
      </trkpt>
      <trkpt lat="1.973796" lon="-76.756975">
        <ele>3863.191</ele>
        <time>2022-12-18T07:40:04Z</time>
      </trkpt>
      <trkpt lat="1.973752" lon="-76.756956">
        <ele>3864.381</ele>
        <time>2022-12-18T07:40:06Z</time>
      </trkpt>
      <trkpt lat="1.973693" lon="-76.756935">
        <ele>3864.519</ele>
        <time>2022-12-18T07:40:09Z</time>
      </trkpt>
      <trkpt lat="1.973632" lon="-76.756907">
        <ele>3865.409</ele>
        <time>2022-12-18T07:40:12Z</time>
      </trkpt>
      <trkpt lat="1.973572" lon="-76.75688">
        <ele>3866.450</ele>
        <time>2022-12-18T07:40:15Z</time>
      </trkpt>
      <trkpt lat="1.973528" lon="-76.756855">
        <ele>3866.861</ele>
        <time>2022-12-18T07:40:17Z</time>
      </trkpt>
      <trkpt lat="1.973492" lon="-76.756823">
        <ele>3867.460</ele>
        <time>2022-12-18T07:40:19Z</time>
      </trkpt>
      <trkpt lat="1.973449" lon="-76.756788">
        <ele>3867.614</ele>
        <time>2022-12-18T07:40:21Z</time>
      </trkpt>
      <trkpt lat="1.97341" lon="-76.75675">
        <ele>3868.761</ele>
        <time>2022-12-18T07:40:23Z</time>
      </trkpt>
      <trkpt lat="1.973378" lon="-76.756714">
        <ele>3869.129</ele>
        <time>2022-12-18T07:40:25Z</time>
      </trkpt>
      <trkpt lat="1.973334" lon="-76.756687">
        <ele>3869.124</ele>
        <time>2022-12-18T07:40:27Z</time>
      </trkpt>
      <trkpt lat="1.973277" lon="-76.756664">
        <ele>3869.265</ele>
        <time>2022-12-18T07:40:30Z</time>
      </trkpt>
      <trkpt lat="1.973232" lon="-76.75665">
        <ele>3871.342</ele>
        <time>2022-12-18T07:40:32Z</time>
      </trkpt>
      <trkpt lat="1.973181" lon="-76.756645">
        <ele>3871.062</ele>
        <time>2022-12-18T07:40:34Z</time>
      </trkpt>
      <trkpt lat="1.973134" lon="-76.756651">
        <ele>3871.083</ele>
        <time>2022-12-18T07:40:35Z</time>
      </trkpt>
      <trkpt lat="1.973073" lon="-76.756656">
        <ele>3871.011</ele>
        <time>2022-12-18T07:40:38Z</time>
      </trkpt>
      <trkpt lat="1.973021" lon="-76.756659">
        <ele>3870.509</ele>
        <time>2022-12-18T07:40:40Z</time>
      </trkpt>
      <trkpt lat="1.97297" lon="-76.756662">
        <ele>3870.597</ele>
        <time>2022-12-18T07:40:42Z</time>
      </trkpt>
      <trkpt lat="1.972919" lon="-76.756664">
        <ele>3870.578</ele>
        <time>2022-12-18T07:40:44Z</time>
      </trkpt>
      <trkpt lat="1.972872" lon="-76.756666">
        <ele>3871.997</ele>
        <time>2022-12-18T07:40:46Z</time>
      </trkpt>
      <trkpt lat="1.972813" lon="-76.756652">
        <ele>3872.061</ele>
        <time>2022-12-18T07:40:49Z</time>
      </trkpt>
      <trkpt lat="1.972764" lon="-76.756633">
        <ele>3872.158</ele>
        <time>2022-12-18T07:40:51Z</time>
      </trkpt>
      <trkpt lat="1.97272" lon="-76.756597">
        <ele>3872.246</ele>
        <time>2022-12-18T07:40:55Z</time>
      </trkpt>
      <trkpt lat="1.972688" lon="-76.756555">
        <ele>3872.421</ele>
        <time>2022-12-18T07:40:58Z</time>
      </trkpt>
      <trkpt lat="1.972651" lon="-76.756511">
        <ele>3872.352</ele>
        <time>2022-12-18T07:41:01Z</time>
      </trkpt>
      <trkpt lat="1.972623" lon="-76.756471">
        <ele>3872.729</ele>
        <time>2022-12-18T07:41:04Z</time>
      </trkpt>
      <trkpt lat="1.972594" lon="-76.756428">
        <ele>3872.998</ele>
        <time>2022-12-18T07:41:07Z</time>
      </trkpt>
      <trkpt lat="1.972563" lon="-76.75638">
        <ele>3873.715</ele>
        <time>2022-12-18T07:41:10Z</time>
      </trkpt>
      <trkpt lat="1.972538" lon="-76.756328">
        <ele>3874.426</ele>
        <time>2022-12-18T07:41:13Z</time>
      </trkpt>
      <trkpt lat="1.972519" lon="-76.756273">
        <ele>3875.209</ele>
        <time>2022-12-18T07:41:16Z</time>
      </trkpt>
      <trkpt lat="1.97251" lon="-76.756224">
        <ele>3876.170</ele>
        <time>2022-12-18T07:41:19Z</time>
      </trkpt>
      <trkpt lat="1.972517" lon="-76.756172">
        <ele>3876.361</ele>
        <time>2022-12-18T07:41:22Z</time>
      </trkpt>
      <trkpt lat="1.9725" lon="-76.756125">
        <ele>3878.140</ele>
        <time>2022-12-18T07:41:25Z</time>
      </trkpt>
      <trkpt lat="1.972472" lon="-76.756086">
        <ele>3879.094</ele>
        <time>2022-12-18T07:41:28Z</time>
      </trkpt>
      <trkpt lat="1.97243" lon="-76.75606">
        <ele>3880.461</ele>
        <time>2022-12-18T07:41:34Z</time>
      </trkpt>
      <trkpt lat="1.972388" lon="-76.756044">
        <ele>3882.759</ele>
        <time>2022-12-18T07:41:38Z</time>
      </trkpt>
      <trkpt lat="1.972341" lon="-76.756033">
        <ele>3884.854</ele>
        <time>2022-12-18T07:41:41Z</time>
      </trkpt>
      <trkpt lat="1.972292" lon="-76.756023">
        <ele>3885.415</ele>
        <time>2022-12-18T07:41:44Z</time>
      </trkpt>
      <trkpt lat="1.972245" lon="-76.756021">
        <ele>3885.532</ele>
        <time>2022-12-18T07:41:46Z</time>
      </trkpt>
      <trkpt lat="1.972197" lon="-76.756014">
        <ele>3885.587</ele>
        <time>2022-12-18T07:41:48Z</time>
      </trkpt>
      <trkpt lat="1.972141" lon="-76.755997">
        <ele>3886.142</ele>
        <time>2022-12-18T07:41:50Z</time>
      </trkpt>
      <trkpt lat="1.972085" lon="-76.755978">
        <ele>3886.826</ele>
        <time>2022-12-18T07:41:54Z</time>
      </trkpt>
      <trkpt lat="1.972038" lon="-76.755956">
        <ele>3887.509</ele>
        <time>2022-12-18T07:41:57Z</time>
      </trkpt>
      <trkpt lat="1.971988" lon="-76.755934">
        <ele>3888.099</ele>
        <time>2022-12-18T07:42:00Z</time>
      </trkpt>
      <trkpt lat="1.971942" lon="-76.755914">
        <ele>3888.320</ele>
        <time>2022-12-18T07:42:02Z</time>
      </trkpt>
      <trkpt lat="1.971895" lon="-76.755888">
        <ele>3888.469</ele>
        <time>2022-12-18T07:42:06Z</time>
      </trkpt>
      <trkpt lat="1.971844" lon="-76.755865">
        <ele>3888.543</ele>
        <time>2022-12-18T07:42:09Z</time>
      </trkpt>
      <trkpt lat="1.9718" lon="-76.755838">
        <ele>3888.680</ele>
        <time>2022-12-18T07:42:12Z</time>
      </trkpt>
      <trkpt lat="1.971751" lon="-76.755809">
        <ele>3888.668</ele>
        <time>2022-12-18T07:42:15Z</time>
      </trkpt>
      <trkpt lat="1.97171" lon="-76.755788">
        <ele>3888.763</ele>
        <time>2022-12-18T07:42:17Z</time>
      </trkpt>
      <trkpt lat="1.971666" lon="-76.755772">
        <ele>3888.664</ele>
        <time>2022-12-18T07:42:19Z</time>
      </trkpt>
      <trkpt lat="1.971607" lon="-76.755749">
        <ele>3888.631</ele>
        <time>2022-12-18T07:42:22Z</time>
      </trkpt>
      <trkpt lat="1.971548" lon="-76.755727">
        <ele>3888.632</ele>
        <time>2022-12-18T07:42:25Z</time>
      </trkpt>
      <trkpt lat="1.971497" lon="-76.75571">
        <ele>3888.892</ele>
        <time>2022-12-18T07:42:28Z</time>
      </trkpt>
      <trkpt lat="1.97145" lon="-76.755692">
        <ele>3889.211</ele>
        <time>2022-12-18T07:42:31Z</time>
      </trkpt>
      <trkpt lat="1.971408" lon="-76.755674">
        <ele>3889.509</ele>
        <time>2022-12-18T07:42:34Z</time>
      </trkpt>
      <trkpt lat="1.971364" lon="-76.755656">
        <ele>3891.274</ele>
        <time>2022-12-18T07:42:37Z</time>
      </trkpt>
      <trkpt lat="1.97132" lon="-76.755632">
        <ele>3892.025</ele>
        <time>2022-12-18T07:42:40Z</time>
      </trkpt>
      <trkpt lat="1.971278" lon="-76.755608">
        <ele>3892.774</ele>
        <time>2022-12-18T07:42:43Z</time>
      </trkpt>
      <trkpt lat="1.97123" lon="-76.755583">
        <ele>3893.778</ele>
        <time>2022-12-18T07:42:46Z</time>
      </trkpt>
      <trkpt lat="1.971173" lon="-76.755562">
        <ele>3894.265</ele>
        <time>2022-12-18T07:42:49Z</time>
      </trkpt>
      <trkpt lat="1.971122" lon="-76.755537">
        <ele>3895.173</ele>
        <time>2022-12-18T07:42:52Z</time>
      </trkpt>
      <trkpt lat="1.971076" lon="-76.755516">
        <ele>3895.538</ele>
        <time>2022-12-18T07:42:55Z</time>
      </trkpt>
      <trkpt lat="1.971029" lon="-76.755504">
        <ele>3895.999</ele>
        <time>2022-12-18T07:42:58Z</time>
      </trkpt>
      <trkpt lat="1.970985" lon="-76.755481">
        <ele>3896.126</ele>
        <time>2022-12-18T07:43:01Z</time>
      </trkpt>
      <trkpt lat="1.970942" lon="-76.755461">
        <ele>3896.592</ele>
        <time>2022-12-18T07:43:04Z</time>
      </trkpt>
      <trkpt lat="1.970898" lon="-76.755449">
        <ele>3897.073</ele>
        <time>2022-12-18T07:43:08Z</time>
      </trkpt>
      <trkpt lat="1.970858" lon="-76.755428">
        <ele>3898.720</ele>
        <time>2022-12-18T07:43:11Z</time>
      </trkpt>
      <trkpt lat="1.970808" lon="-76.755405">
        <ele>3898.909</ele>
        <time>2022-12-18T07:43:15Z</time>
      </trkpt>
      <trkpt lat="1.970769" lon="-76.755381">
        <ele>3899.310</ele>
        <time>2022-12-18T07:43:18Z</time>
      </trkpt>
      <trkpt lat="1.970723" lon="-76.755358">
        <ele>3899.551</ele>
        <time>2022-12-18T07:43:21Z</time>
      </trkpt>
      <trkpt lat="1.970674" lon="-76.755332">
        <ele>3900.260</ele>
        <time>2022-12-18T07:43:37Z</time>
      </trkpt>
      <trkpt lat="1.970565" lon="-76.755228">
        <ele>3901.144</ele>
        <time>2022-12-18T07:43:39Z</time>
      </trkpt>
      <trkpt lat="1.970528" lon="-76.755182">
        <ele>3902.591</ele>
        <time>2022-12-18T07:43:41Z</time>
      </trkpt>
      <trkpt lat="1.970494" lon="-76.755151">
        <ele>3907.719</ele>
        <time>2022-12-18T07:43:44Z</time>
      </trkpt>
      <trkpt lat="1.970454" lon="-76.755126">
        <ele>3908.164</ele>
        <time>2022-12-18T07:43:47Z</time>
      </trkpt>
      <trkpt lat="1.970407" lon="-76.755096">
        <ele>3908.085</ele>
        <time>2022-12-18T07:43:50Z</time>
      </trkpt>
      <trkpt lat="1.970368" lon="-76.755072">
        <ele>3907.922</ele>
        <time>2022-12-18T07:43:52Z</time>
      </trkpt>
      <trkpt lat="1.970311" lon="-76.755034">
        <ele>3907.967</ele>
        <time>2022-12-18T07:43:55Z</time>
      </trkpt>
      <trkpt lat="1.970265" lon="-76.755014">
        <ele>3907.981</ele>
        <time>2022-12-18T07:43:57Z</time>
      </trkpt>
      <trkpt lat="1.970206" lon="-76.754999">
        <ele>3907.719</ele>
        <time>2022-12-18T07:43:59Z</time>
      </trkpt>
      <trkpt lat="1.970153" lon="-76.754985">
        <ele>3907.709</ele>
        <time>2022-12-18T07:44:01Z</time>
      </trkpt>
      <trkpt lat="1.970102" lon="-76.75498">
        <ele>3907.597</ele>
        <time>2022-12-18T07:44:03Z</time>
      </trkpt>
      <trkpt lat="1.970048" lon="-76.754981">
        <ele>3907.948</ele>
        <time>2022-12-18T07:44:05Z</time>
      </trkpt>
      <trkpt lat="1.970001" lon="-76.754996">
        <ele>3907.937</ele>
        <time>2022-12-18T07:44:07Z</time>
      </trkpt>
      <trkpt lat="1.969943" lon="-76.754999">
        <ele>3908.721</ele>
        <time>2022-12-18T07:44:10Z</time>
      </trkpt>
      <trkpt lat="1.969887" lon="-76.754991">
        <ele>3908.518</ele>
        <time>2022-12-18T07:44:13Z</time>
      </trkpt>
      <trkpt lat="1.969832" lon="-76.754978">
        <ele>3908.926</ele>
        <time>2022-12-18T07:44:16Z</time>
      </trkpt>
      <trkpt lat="1.969788" lon="-76.754952">
        <ele>3908.491</ele>
        <time>2022-12-18T07:44:21Z</time>
      </trkpt>
      <trkpt lat="1.969748" lon="-76.75492">
        <ele>3908.612</ele>
        <time>2022-12-18T07:44:24Z</time>
      </trkpt>
      <trkpt lat="1.969718" lon="-76.754874">
        <ele>3908.439</ele>
        <time>2022-12-18T07:44:27Z</time>
      </trkpt>
      <trkpt lat="1.969672" lon="-76.75485">
        <ele>3908.795</ele>
        <time>2022-12-18T07:44:30Z</time>
      </trkpt>
      <trkpt lat="1.969629" lon="-76.75483">
        <ele>3908.749</ele>
        <time>2022-12-18T07:44:33Z</time>
      </trkpt>
      <trkpt lat="1.969578" lon="-76.754805">
        <ele>3909.523</ele>
        <time>2022-12-18T07:44:36Z</time>
      </trkpt>
      <trkpt lat="1.969537" lon="-76.754785">
        <ele>3909.709</ele>
        <time>2022-12-18T07:44:39Z</time>
      </trkpt>
      <trkpt lat="1.96948" lon="-76.754779">
        <ele>3909.840</ele>
        <time>2022-12-18T07:44:42Z</time>
      </trkpt>
      <trkpt lat="1.969424" lon="-76.754761">
        <ele>3909.891</ele>
        <time>2022-12-18T07:44:45Z</time>
      </trkpt>
      <trkpt lat="1.969364" lon="-76.754745">
        <ele>3909.730</ele>
        <time>2022-12-18T07:44:48Z</time>
      </trkpt>
      <trkpt lat="1.96931" lon="-76.754737">
        <ele>3909.994</ele>
        <time>2022-12-18T07:44:51Z</time>
      </trkpt>
      <trkpt lat="1.969255" lon="-76.754735">
        <ele>3910.391</ele>
        <time>2022-12-18T07:44:54Z</time>
      </trkpt>
      <trkpt lat="1.969203" lon="-76.75473">
        <ele>3912.149</ele>
        <time>2022-12-18T07:44:57Z</time>
      </trkpt>
      <trkpt lat="1.969149" lon="-76.754728">
        <ele>3912.984</ele>
        <time>2022-12-18T07:45:00Z</time>
      </trkpt>
      <trkpt lat="1.969096" lon="-76.754716">
        <ele>3913.095</ele>
        <time>2022-12-18T07:45:03Z</time>
      </trkpt>
      <trkpt lat="1.96905" lon="-76.754708">
        <ele>3913.192</ele>
        <time>2022-12-18T07:45:06Z</time>
      </trkpt>
      <trkpt lat="1.969003" lon="-76.754702">
        <ele>3913.583</ele>
        <time>2022-12-18T07:45:09Z</time>
      </trkpt>
      <trkpt lat="1.968951" lon="-76.754689">
        <ele>3913.825</ele>
        <time>2022-12-18T07:45:12Z</time>
      </trkpt>
      <trkpt lat="1.96891" lon="-76.754659">
        <ele>3913.917</ele>
        <time>2022-12-18T07:45:15Z</time>
      </trkpt>
      <trkpt lat="1.968877" lon="-76.754622">
        <ele>3914.009</ele>
        <time>2022-12-18T07:45:18Z</time>
      </trkpt>
      <trkpt lat="1.968837" lon="-76.754578">
        <ele>3914.229</ele>
        <time>2022-12-18T07:45:21Z</time>
      </trkpt>
      <trkpt lat="1.968795" lon="-76.754537">
        <ele>3915.350</ele>
        <time>2022-12-18T07:45:24Z</time>
      </trkpt>
      <trkpt lat="1.968756" lon="-76.754497">
        <ele>3915.829</ele>
        <time>2022-12-18T07:45:27Z</time>
      </trkpt>
      <trkpt lat="1.968728" lon="-76.754451">
        <ele>3916.193</ele>
        <time>2022-12-18T07:45:30Z</time>
      </trkpt>
      <trkpt lat="1.96872" lon="-76.7544">
        <ele>3916.080</ele>
        <time>2022-12-18T07:45:33Z</time>
      </trkpt>
      <trkpt lat="1.968729" lon="-76.754349">
        <ele>3915.898</ele>
        <time>2022-12-18T07:45:36Z</time>
      </trkpt>
      <trkpt lat="1.968754" lon="-76.754309">
        <ele>3916.063</ele>
        <time>2022-12-18T07:45:39Z</time>
      </trkpt>
      <trkpt lat="1.968778" lon="-76.754265">
        <ele>3916.334</ele>
        <time>2022-12-18T07:45:42Z</time>
      </trkpt>
      <trkpt lat="1.968794" lon="-76.75421">
        <ele>3916.211</ele>
        <time>2022-12-18T07:45:45Z</time>
      </trkpt>
      <trkpt lat="1.968796" lon="-76.754158">
        <ele>3916.554</ele>
        <time>2022-12-18T07:45:48Z</time>
      </trkpt>
      <trkpt lat="1.968784" lon="-76.754103">
        <ele>3916.656</ele>
        <time>2022-12-18T07:45:51Z</time>
      </trkpt>
      <trkpt lat="1.968771" lon="-76.754051">
        <ele>3917.411</ele>
        <time>2022-12-18T07:45:54Z</time>
      </trkpt>
      <trkpt lat="1.968759" lon="-76.753998">
        <ele>3917.609</ele>
        <time>2022-12-18T07:45:57Z</time>
      </trkpt>
      <trkpt lat="1.968748" lon="-76.753944">
        <ele>3918.836</ele>
        <time>2022-12-18T07:46:00Z</time>
      </trkpt>
      <trkpt lat="1.968726" lon="-76.753892">
        <ele>3920.077</ele>
        <time>2022-12-18T07:46:03Z</time>
      </trkpt>
      <trkpt lat="1.968707" lon="-76.753844">
        <ele>3920.536</ele>
        <time>2022-12-18T07:46:06Z</time>
      </trkpt>
      <trkpt lat="1.968675" lon="-76.753806">
        <ele>3921.490</ele>
        <time>2022-12-18T07:46:08Z</time>
      </trkpt>
      <trkpt lat="1.968635" lon="-76.753758">
        <ele>3922.297</ele>
        <time>2022-12-18T07:46:11Z</time>
      </trkpt>
      <trkpt lat="1.968605" lon="-76.753723">
        <ele>3922.385</ele>
        <time>2022-12-18T07:46:13Z</time>
      </trkpt>
      <trkpt lat="1.968568" lon="-76.753696">
        <ele>3922.340</ele>
        <time>2022-12-18T07:46:15Z</time>
      </trkpt>
      <trkpt lat="1.968525" lon="-76.753652">
        <ele>3921.991</ele>
        <time>2022-12-18T07:46:18Z</time>
      </trkpt>
      <trkpt lat="1.968489" lon="-76.753622">
        <ele>3920.978</ele>
        <time>2022-12-18T07:46:20Z</time>
      </trkpt>
      <trkpt lat="1.968442" lon="-76.753584">
        <ele>3920.834</ele>
        <time>2022-12-18T07:46:23Z</time>
      </trkpt>
      <trkpt lat="1.968388" lon="-76.753552">
        <ele>3921.055</ele>
        <time>2022-12-18T07:46:26Z</time>
      </trkpt>
      <trkpt lat="1.968328" lon="-76.753533">
        <ele>3923.010</ele>
        <time>2022-12-18T07:46:29Z</time>
      </trkpt>
      <trkpt lat="1.96827" lon="-76.753518">
        <ele>3923.309</ele>
        <time>2022-12-18T07:46:32Z</time>
      </trkpt>
      <trkpt lat="1.968224" lon="-76.753513">
        <ele>3924.044</ele>
        <time>2022-12-18T07:46:35Z</time>
      </trkpt>
      <trkpt lat="1.968168" lon="-76.753507">
        <ele>3924.955</ele>
        <time>2022-12-18T07:46:38Z</time>
      </trkpt>
      <trkpt lat="1.968119" lon="-76.753509">
        <ele>3924.724</ele>
        <time>2022-12-18T07:46:40Z</time>
      </trkpt>
      <trkpt lat="1.968057" lon="-76.753494">
        <ele>3924.728</ele>
        <time>2022-12-18T07:46:43Z</time>
      </trkpt>
      <trkpt lat="1.967995" lon="-76.753486">
        <ele>3924.385</ele>
        <time>2022-12-18T07:46:46Z</time>
      </trkpt>
      <trkpt lat="1.967938" lon="-76.753463">
        <ele>3924.363</ele>
        <time>2022-12-18T07:46:49Z</time>
      </trkpt>
      <trkpt lat="1.967883" lon="-76.753445">
        <ele>3924.358</ele>
        <time>2022-12-18T07:46:52Z</time>
      </trkpt>
      <trkpt lat="1.967831" lon="-76.753416">
        <ele>3925.099</ele>
        <time>2022-12-18T07:46:55Z</time>
      </trkpt>
      <trkpt lat="1.967779" lon="-76.753379">
        <ele>3925.886</ele>
        <time>2022-12-18T07:46:58Z</time>
      </trkpt>
      <trkpt lat="1.967741" lon="-76.753351">
        <ele>3925.834</ele>
        <time>2022-12-18T07:47:00Z</time>
      </trkpt>
      <trkpt lat="1.967706" lon="-76.75332">
        <ele>3925.855</ele>
        <time>2022-12-18T07:47:02Z</time>
      </trkpt>
      <trkpt lat="1.96765" lon="-76.753281">
        <ele>3926.010</ele>
        <time>2022-12-18T07:47:05Z</time>
      </trkpt>
      <trkpt lat="1.967612" lon="-76.753253">
        <ele>3926.109</ele>
        <time>2022-12-18T07:47:07Z</time>
      </trkpt>
      <trkpt lat="1.967572" lon="-76.753219">
        <ele>3926.934</ele>
        <time>2022-12-18T07:47:10Z</time>
      </trkpt>
      <trkpt lat="1.967524" lon="-76.753186">
        <ele>3928.695</ele>
        <time>2022-12-18T07:47:13Z</time>
      </trkpt>
      <trkpt lat="1.967463" lon="-76.753169">
        <ele>3928.614</ele>
        <time>2022-12-18T07:47:15Z</time>
      </trkpt>
      <trkpt lat="1.967395" lon="-76.753158">
        <ele>3928.758</ele>
        <time>2022-12-18T07:47:17Z</time>
      </trkpt>
      <trkpt lat="1.967331" lon="-76.753155">
        <ele>3928.535</ele>
        <time>2022-12-18T07:47:19Z</time>
      </trkpt>
      <trkpt lat="1.967273" lon="-76.75315">
        <ele>3928.063</ele>
        <time>2022-12-18T07:47:21Z</time>
      </trkpt>
      <trkpt lat="1.96721" lon="-76.75315">
        <ele>3927.328</ele>
        <time>2022-12-18T07:47:23Z</time>
      </trkpt>
      <trkpt lat="1.967148" lon="-76.753151">
        <ele>3927.089</ele>
        <time>2022-12-18T07:47:25Z</time>
      </trkpt>
      <trkpt lat="1.967087" lon="-76.753143">
        <ele>3926.966</ele>
        <time>2022-12-18T07:47:27Z</time>
      </trkpt>
      <trkpt lat="1.967032" lon="-76.75312">
        <ele>3926.898</ele>
        <time>2022-12-18T07:47:29Z</time>
      </trkpt>
      <trkpt lat="1.966991" lon="-76.753096">
        <ele>3926.915</ele>
        <time>2022-12-18T07:47:31Z</time>
      </trkpt>
      <trkpt lat="1.966956" lon="-76.753064">
        <ele>3927.026</ele>
        <time>2022-12-18T07:47:33Z</time>
      </trkpt>
      <trkpt lat="1.966922" lon="-76.75302">
        <ele>3928.309</ele>
        <time>2022-12-18T07:47:35Z</time>
      </trkpt>
      <trkpt lat="1.966887" lon="-76.752971">
        <ele>3928.180</ele>
        <time>2022-12-18T07:47:37Z</time>
      </trkpt>
      <trkpt lat="1.966861" lon="-76.752934">
        <ele>3928.461</ele>
        <time>2022-12-18T07:47:38Z</time>
      </trkpt>
      <trkpt lat="1.966826" lon="-76.752877">
        <ele>3929.070</ele>
        <time>2022-12-18T07:47:41Z</time>
      </trkpt>
      <trkpt lat="1.966783" lon="-76.752827">
        <ele>3929.044</ele>
        <time>2022-12-18T07:47:44Z</time>
      </trkpt>
      <trkpt lat="1.966747" lon="-76.752776">
        <ele>3931.021</ele>
        <time>2022-12-18T07:47:47Z</time>
      </trkpt>
      <trkpt lat="1.966713" lon="-76.752747">
        <ele>3933.459</ele>
        <time>2022-12-18T07:47:49Z</time>
      </trkpt>
      <trkpt lat="1.96668" lon="-76.752717">
        <ele>3935.254</ele>
        <time>2022-12-18T07:47:51Z</time>
      </trkpt>
      <trkpt lat="1.966637" lon="-76.752695">
        <ele>3935.815</ele>
        <time>2022-12-18T07:47:53Z</time>
      </trkpt>
      <trkpt lat="1.966592" lon="-76.752668">
        <ele>3936.112</ele>
        <time>2022-12-18T07:47:55Z</time>
      </trkpt>
      <trkpt lat="1.966543" lon="-76.752638">
        <ele>3936.367</ele>
        <time>2022-12-18T07:47:57Z</time>
      </trkpt>
      <trkpt lat="1.966497" lon="-76.752595">
        <ele>3936.181</ele>
        <time>2022-12-18T07:47:59Z</time>
      </trkpt>
      <trkpt lat="1.966442" lon="-76.752559">
        <ele>3934.719</ele>
        <time>2022-12-18T07:48:01Z</time>
      </trkpt>
      <trkpt lat="1.966385" lon="-76.752518">
        <ele>3933.109</ele>
        <time>2022-12-18T07:48:03Z</time>
      </trkpt>
      <trkpt lat="1.966322" lon="-76.752477">
        <ele>3932.457</ele>
        <time>2022-12-18T07:48:05Z</time>
      </trkpt>
      <trkpt lat="1.966254" lon="-76.75244">
        <ele>3932.248</ele>
        <time>2022-12-18T07:48:07Z</time>
      </trkpt>
      <trkpt lat="1.966199" lon="-76.752413">
        <ele>3931.747</ele>
        <time>2022-12-18T07:48:08Z</time>
      </trkpt>
      <trkpt lat="1.966153" lon="-76.752395">
        <ele>3931.581</ele>
        <time>2022-12-18T07:48:10Z</time>
      </trkpt>
      <trkpt lat="1.966089" lon="-76.752367">
        <ele>3931.788</ele>
        <time>2022-12-18T07:48:12Z</time>
      </trkpt>
      <trkpt lat="1.966025" lon="-76.752344">
        <ele>3932.096</ele>
        <time>2022-12-18T07:48:14Z</time>
      </trkpt>
      <trkpt lat="1.965962" lon="-76.752329">
        <ele>3932.071</ele>
        <time>2022-12-18T07:48:16Z</time>
      </trkpt>
      <trkpt lat="1.965894" lon="-76.752315">
        <ele>3932.012</ele>
        <time>2022-12-18T07:48:18Z</time>
      </trkpt>
      <trkpt lat="1.965829" lon="-76.752297">
        <ele>3931.849</ele>
        <time>2022-12-18T07:48:20Z</time>
      </trkpt>
      <trkpt lat="1.965762" lon="-76.752284">
        <ele>3931.027</ele>
        <time>2022-12-18T07:48:22Z</time>
      </trkpt>
      <trkpt lat="1.965699" lon="-76.752261">
        <ele>3930.968</ele>
        <time>2022-12-18T07:48:24Z</time>
      </trkpt>
      <trkpt lat="1.96564" lon="-76.752254">
        <ele>3930.914</ele>
        <time>2022-12-18T07:48:26Z</time>
      </trkpt>
      <trkpt lat="1.965577" lon="-76.752246">
        <ele>3930.909</ele>
        <time>2022-12-18T07:48:28Z</time>
      </trkpt>
      <trkpt lat="1.965522" lon="-76.75225">
        <ele>3930.973</ele>
        <time>2022-12-18T07:48:30Z</time>
      </trkpt>
      <trkpt lat="1.965469" lon="-76.752257">
        <ele>3931.634</ele>
        <time>2022-12-18T07:48:32Z</time>
      </trkpt>
      <trkpt lat="1.965424" lon="-76.752263">
        <ele>3932.043</ele>
        <time>2022-12-18T07:48:34Z</time>
      </trkpt>
      <trkpt lat="1.965379" lon="-76.752275">
        <ele>3933.777</ele>
        <time>2022-12-18T07:48:36Z</time>
      </trkpt>
      <trkpt lat="1.965333" lon="-76.752293">
        <ele>3933.664</ele>
        <time>2022-12-18T07:48:37Z</time>
      </trkpt>
      <trkpt lat="1.965274" lon="-76.752312">
        <ele>3932.182</ele>
        <time>2022-12-18T07:48:40Z</time>
      </trkpt>
      <trkpt lat="1.965159" lon="-76.75235">
        <ele>3907.067</ele>
        <time>2022-12-18T07:48:45Z</time>
      </trkpt>
      <trkpt lat="1.965122" lon="-76.752376">
        <ele>3907.098</ele>
        <time>2022-12-18T07:48:48Z</time>
      </trkpt>
      <trkpt lat="1.965072" lon="-76.7524">
        <ele>3921.235</ele>
        <time>2022-12-18T07:48:50Z</time>
      </trkpt>
      <trkpt lat="1.965032" lon="-76.75242">
        <ele>3924.357</ele>
        <time>2022-12-18T07:48:52Z</time>
      </trkpt>
      <trkpt lat="1.964989" lon="-76.752437">
        <ele>3926.700</ele>
        <time>2022-12-18T07:48:54Z</time>
      </trkpt>
      <trkpt lat="1.964928" lon="-76.752451">
        <ele>3928.120</ele>
        <time>2022-12-18T07:48:57Z</time>
      </trkpt>
      <trkpt lat="1.964874" lon="-76.752473">
        <ele>3929.209</ele>
        <time>2022-12-18T07:49:00Z</time>
      </trkpt>
      <trkpt lat="1.964819" lon="-76.752504">
        <ele>3932.566</ele>
        <time>2022-12-18T07:49:03Z</time>
      </trkpt>
      <trkpt lat="1.964763" lon="-76.752536">
        <ele>3937.017</ele>
        <time>2022-12-18T07:49:06Z</time>
      </trkpt>
      <trkpt lat="1.96471" lon="-76.752568">
        <ele>3937.436</ele>
        <time>2022-12-18T07:49:08Z</time>
      </trkpt>
      <trkpt lat="1.964619" lon="-76.752609">
        <ele>3937.430</ele>
        <time>2022-12-18T07:49:13Z</time>
      </trkpt>
      <trkpt lat="1.964561" lon="-76.752622">
        <ele>3917.737</ele>
        <time>2022-12-18T07:49:16Z</time>
      </trkpt>
      <trkpt lat="1.964509" lon="-76.75262">
        <ele>3902.375</ele>
        <time>2022-12-18T07:49:18Z</time>
      </trkpt>
      <trkpt lat="1.964461" lon="-76.752607">
        <ele>3908.320</ele>
        <time>2022-12-18T07:49:20Z</time>
      </trkpt>
      <trkpt lat="1.964416" lon="-76.752592">
        <ele>3911.831</ele>
        <time>2022-12-18T07:49:22Z</time>
      </trkpt>
      <trkpt lat="1.964359" lon="-76.752561">
        <ele>3912.048</ele>
        <time>2022-12-18T07:49:25Z</time>
      </trkpt>
      <trkpt lat="1.964315" lon="-76.75252">
        <ele>3921.069</ele>
        <time>2022-12-18T07:49:28Z</time>
      </trkpt>
      <trkpt lat="1.964267" lon="-76.752487">
        <ele>3931.604</ele>
        <time>2022-12-18T07:49:31Z</time>
      </trkpt>
      <trkpt lat="1.96423" lon="-76.752452">
        <ele>3933.224</ele>
        <time>2022-12-18T07:49:34Z</time>
      </trkpt>
      <trkpt lat="1.964179" lon="-76.752422">
        <ele>3935.009</ele>
        <time>2022-12-18T07:49:37Z</time>
      </trkpt>
      <trkpt lat="1.964128" lon="-76.752393">
        <ele>3937.137</ele>
        <time>2022-12-18T07:49:40Z</time>
      </trkpt>
      <trkpt lat="1.964071" lon="-76.75238">
        <ele>3939.878</ele>
        <time>2022-12-18T07:49:43Z</time>
      </trkpt>
      <trkpt lat="1.964021" lon="-76.752377">
        <ele>3940.817</ele>
        <time>2022-12-18T07:49:45Z</time>
      </trkpt>
      <trkpt lat="1.963953" lon="-76.752378">
        <ele>3941.251</ele>
        <time>2022-12-18T07:49:48Z</time>
      </trkpt>
      <trkpt lat="1.963908" lon="-76.752376">
        <ele>3941.698</ele>
        <time>2022-12-18T07:49:50Z</time>
      </trkpt>
      <trkpt lat="1.96386" lon="-76.752379">
        <ele>3941.986</ele>
        <time>2022-12-18T07:49:52Z</time>
      </trkpt>
      <trkpt lat="1.963814" lon="-76.752387">
        <ele>3941.771</ele>
        <time>2022-12-18T07:49:54Z</time>
      </trkpt>
      <trkpt lat="1.96377" lon="-76.752398">
        <ele>3941.542</ele>
        <time>2022-12-18T07:49:56Z</time>
      </trkpt>
      <trkpt lat="1.963728" lon="-76.752416">
        <ele>3941.439</ele>
        <time>2022-12-18T07:49:58Z</time>
      </trkpt>
      <trkpt lat="1.963682" lon="-76.75244">
        <ele>3941.387</ele>
        <time>2022-12-18T07:50:00Z</time>
      </trkpt>
      <trkpt lat="1.963639" lon="-76.752462">
        <ele>3941.542</ele>
        <time>2022-12-18T07:50:02Z</time>
      </trkpt>
      <trkpt lat="1.963597" lon="-76.752483">
        <ele>3941.626</ele>
        <time>2022-12-18T07:50:04Z</time>
      </trkpt>
      <trkpt lat="1.963542" lon="-76.752515">
        <ele>3942.209</ele>
        <time>2022-12-18T07:50:07Z</time>
      </trkpt>
      <trkpt lat="1.963499" lon="-76.752536">
        <ele>3943.329</ele>
        <time>2022-12-18T07:50:09Z</time>
      </trkpt>
      <trkpt lat="1.963446" lon="-76.752547">
        <ele>3943.360</ele>
        <time>2022-12-18T07:50:12Z</time>
      </trkpt>
      <trkpt lat="1.963388" lon="-76.752524">
        <ele>3943.349</ele>
        <time>2022-12-18T07:50:15Z</time>
      </trkpt>
      <trkpt lat="1.963348" lon="-76.75248">
        <ele>3942.983</ele>
        <time>2022-12-18T07:50:18Z</time>
      </trkpt>
      <trkpt lat="1.963304" lon="-76.752437">
        <ele>3942.230</ele>
        <time>2022-12-18T07:50:21Z</time>
      </trkpt>
      <trkpt lat="1.963255" lon="-76.752397">
        <ele>3941.638</ele>
        <time>2022-12-18T07:50:24Z</time>
      </trkpt>
      <trkpt lat="1.963201" lon="-76.752368">
        <ele>3941.463</ele>
        <time>2022-12-18T07:50:27Z</time>
      </trkpt>
      <trkpt lat="1.963148" lon="-76.752342">
        <ele>3941.364</ele>
        <time>2022-12-18T07:50:30Z</time>
      </trkpt>
      <trkpt lat="1.963093" lon="-76.75233">
        <ele>3941.341</ele>
        <time>2022-12-18T07:50:33Z</time>
      </trkpt>
      <trkpt lat="1.96303" lon="-76.752327">
        <ele>3941.356</ele>
        <time>2022-12-18T07:50:36Z</time>
      </trkpt>
      <trkpt lat="1.962968" lon="-76.752323">
        <ele>3941.759</ele>
        <time>2022-12-18T07:50:39Z</time>
      </trkpt>
      <trkpt lat="1.962903" lon="-76.752344">
        <ele>3942.714</ele>
        <time>2022-12-18T07:50:42Z</time>
      </trkpt>
      <trkpt lat="1.96284" lon="-76.75236">
        <ele>3943.109</ele>
        <time>2022-12-18T07:50:45Z</time>
      </trkpt>
      <trkpt lat="1.962784" lon="-76.752377">
        <ele>3944.096</ele>
        <time>2022-12-18T07:50:48Z</time>
      </trkpt>
      <trkpt lat="1.962714" lon="-76.75238">
        <ele>3944.527</ele>
        <time>2022-12-18T07:50:51Z</time>
      </trkpt>
      <trkpt lat="1.962649" lon="-76.752379">
        <ele>3945.436</ele>
        <time>2022-12-18T07:50:54Z</time>
      </trkpt>
      <trkpt lat="1.962584" lon="-76.752355">
        <ele>3947.520</ele>
        <time>2022-12-18T07:50:57Z</time>
      </trkpt>
      <trkpt lat="1.962537" lon="-76.752352">
        <ele>3948.287</ele>
        <time>2022-12-18T07:50:59Z</time>
      </trkpt>
      <trkpt lat="1.962476" lon="-76.752338">
        <ele>3948.985</ele>
        <time>2022-12-18T07:51:02Z</time>
      </trkpt>
      <trkpt lat="1.962432" lon="-76.752323">
        <ele>3950.180</ele>
        <time>2022-12-18T07:51:04Z</time>
      </trkpt>
      <trkpt lat="1.962381" lon="-76.752319">
        <ele>3950.191</ele>
        <time>2022-12-18T07:51:06Z</time>
      </trkpt>
      <trkpt lat="1.962331" lon="-76.752323">
        <ele>3950.088</ele>
        <time>2022-12-18T07:51:08Z</time>
      </trkpt>
      <trkpt lat="1.962285" lon="-76.752323">
        <ele>3950.095</ele>
        <time>2022-12-18T07:51:10Z</time>
      </trkpt>
      <trkpt lat="1.96223" lon="-76.752317">
        <ele>3949.149</ele>
        <time>2022-12-18T07:51:12Z</time>
      </trkpt>
      <trkpt lat="1.962176" lon="-76.752316">
        <ele>3949.023</ele>
        <time>2022-12-18T07:51:14Z</time>
      </trkpt>
      <trkpt lat="1.962121" lon="-76.752312">
        <ele>3948.909</ele>
        <time>2022-12-18T07:51:16Z</time>
      </trkpt>
      <trkpt lat="1.962069" lon="-76.752305">
        <ele>3948.690</ele>
        <time>2022-12-18T07:51:18Z</time>
      </trkpt>
      <trkpt lat="1.96202" lon="-76.752302">
        <ele>3948.631</ele>
        <time>2022-12-18T07:51:20Z</time>
      </trkpt>
      <trkpt lat="1.961969" lon="-76.752298">
        <ele>3948.570</ele>
        <time>2022-12-18T07:51:22Z</time>
      </trkpt>
      <trkpt lat="1.961921" lon="-76.752297">
        <ele>3948.514</ele>
        <time>2022-12-18T07:51:24Z</time>
      </trkpt>
      <trkpt lat="1.961876" lon="-76.752306">
        <ele>3948.571</ele>
        <time>2022-12-18T07:51:26Z</time>
      </trkpt>
      <trkpt lat="1.961826" lon="-76.752313">
        <ele>3949.029</ele>
        <time>2022-12-18T07:51:28Z</time>
      </trkpt>
      <trkpt lat="1.961776" lon="-76.752324">
        <ele>3949.524</ele>
        <time>2022-12-18T07:51:30Z</time>
      </trkpt>
      <trkpt lat="1.961728" lon="-76.752349">
        <ele>3949.825</ele>
        <time>2022-12-18T07:51:32Z</time>
      </trkpt>
      <trkpt lat="1.961674" lon="-76.752373">
        <ele>3949.892</ele>
        <time>2022-12-18T07:51:34Z</time>
      </trkpt>
      <trkpt lat="1.961626" lon="-76.752406">
        <ele>3949.789</ele>
        <time>2022-12-18T07:51:36Z</time>
      </trkpt>
      <trkpt lat="1.961582" lon="-76.752441">
        <ele>3949.406</ele>
        <time>2022-12-18T07:51:38Z</time>
      </trkpt>
      <trkpt lat="1.96153" lon="-76.752466">
        <ele>3948.826</ele>
        <time>2022-12-18T07:51:40Z</time>
      </trkpt>
      <trkpt lat="1.961478" lon="-76.752495">
        <ele>3948.309</ele>
        <time>2022-12-18T07:51:42Z</time>
      </trkpt>
      <trkpt lat="1.961427" lon="-76.752525">
        <ele>3948.169</ele>
        <time>2022-12-18T07:51:44Z</time>
      </trkpt>
      <trkpt lat="1.961378" lon="-76.752553">
        <ele>3948.090</ele>
        <time>2022-12-18T07:51:46Z</time>
      </trkpt>
      <trkpt lat="1.961331" lon="-76.752584">
        <ele>3947.669</ele>
        <time>2022-12-18T07:51:48Z</time>
      </trkpt>
      <trkpt lat="1.96129" lon="-76.752611">
        <ele>3947.323</ele>
        <time>2022-12-18T07:51:50Z</time>
      </trkpt>
      <trkpt lat="1.961241" lon="-76.75263">
        <ele>3948.210</ele>
        <time>2022-12-18T07:51:52Z</time>
      </trkpt>
      <trkpt lat="1.96118" lon="-76.752626">
        <ele>3948.378</ele>
        <time>2022-12-18T07:51:54Z</time>
      </trkpt>
      <trkpt lat="1.961129" lon="-76.752593">
        <ele>3947.843</ele>
        <time>2022-12-18T07:51:56Z</time>
      </trkpt>
      <trkpt lat="1.961081" lon="-76.752552">
        <ele>3947.364</ele>
        <time>2022-12-18T07:51:58Z</time>
      </trkpt>
      <trkpt lat="1.961037" lon="-76.752509">
        <ele>3947.011</ele>
        <time>2022-12-18T07:52:00Z</time>
      </trkpt>
      <trkpt lat="1.961004" lon="-76.752465">
        <ele>3946.669</ele>
        <time>2022-12-18T07:52:02Z</time>
      </trkpt>
      <trkpt lat="1.960976" lon="-76.752412">
        <ele>3945.104</ele>
        <time>2022-12-18T07:52:04Z</time>
      </trkpt>
      <trkpt lat="1.960974" lon="-76.752359">
        <ele>3944.524</ele>
        <time>2022-12-18T07:52:06Z</time>
      </trkpt>
      <trkpt lat="1.960971" lon="-76.752292">
        <ele>3944.209</ele>
        <time>2022-12-18T07:52:09Z</time>
      </trkpt>
      <trkpt lat="1.960964" lon="-76.752223">
        <ele>3944.037</ele>
        <time>2022-12-18T07:52:12Z</time>
      </trkpt>
      <trkpt lat="1.960963" lon="-76.752169">
        <ele>3944.178</ele>
        <time>2022-12-18T07:52:14Z</time>
      </trkpt>
      <trkpt lat="1.960955" lon="-76.752118">
        <ele>3944.197</ele>
        <time>2022-12-18T07:52:16Z</time>
      </trkpt>
      <trkpt lat="1.960943" lon="-76.752066">
        <ele>3944.891</ele>
        <time>2022-12-18T07:52:19Z</time>
      </trkpt>
      <trkpt lat="1.960957" lon="-76.75202">
        <ele>3947.828</ele>
        <time>2022-12-18T07:52:24Z</time>
      </trkpt>
      <trkpt lat="1.960963" lon="-76.751973">
        <ele>3953.236</ele>
        <time>2022-12-18T07:52:29Z</time>
      </trkpt>
      <trkpt lat="1.96097" lon="-76.751924">
        <ele>3957.541</ele>
        <time>2022-12-18T07:52:32Z</time>
      </trkpt>
      <trkpt lat="1.960964" lon="-76.75186">
        <ele>3958.182</ele>
        <time>2022-12-18T07:52:35Z</time>
      </trkpt>
      <trkpt lat="1.960955" lon="-76.751799">
        <ele>3961.659</ele>
        <time>2022-12-18T07:52:37Z</time>
      </trkpt>
      <trkpt lat="1.960942" lon="-76.751755">
        <ele>3963.649</ele>
        <time>2022-12-18T07:52:38Z</time>
      </trkpt>
      <trkpt lat="1.960928" lon="-76.75171">
        <ele>3964.102</ele>
        <time>2022-12-18T07:52:40Z</time>
      </trkpt>
      <trkpt lat="1.960911" lon="-76.751661">
        <ele>3964.022</ele>
        <time>2022-12-18T07:52:42Z</time>
      </trkpt>
      <trkpt lat="1.960884" lon="-76.751611">
        <ele>3963.609</ele>
        <time>2022-12-18T07:52:44Z</time>
      </trkpt>
      <trkpt lat="1.960833" lon="-76.751568">
        <ele>3963.675</ele>
        <time>2022-12-18T07:52:46Z</time>
      </trkpt>
      <trkpt lat="1.960777" lon="-76.751519">
        <ele>3963.316</ele>
        <time>2022-12-18T07:52:48Z</time>
      </trkpt>
      <trkpt lat="1.960713" lon="-76.751476">
        <ele>3958.895</ele>
        <time>2022-12-18T07:52:50Z</time>
      </trkpt>
      <trkpt lat="1.960655" lon="-76.751442">
        <ele>3955.699</ele>
        <time>2022-12-18T07:52:52Z</time>
      </trkpt>
      <trkpt lat="1.960593" lon="-76.751403">
        <ele>3953.196</ele>
        <time>2022-12-18T07:52:54Z</time>
      </trkpt>
      <trkpt lat="1.960533" lon="-76.751369">
        <ele>3952.414</ele>
        <time>2022-12-18T07:52:56Z</time>
      </trkpt>
      <trkpt lat="1.960472" lon="-76.751339">
        <ele>3952.219</ele>
        <time>2022-12-18T07:52:58Z</time>
      </trkpt>
      <trkpt lat="1.96041" lon="-76.751303">
        <ele>3951.830</ele>
        <time>2022-12-18T07:53:00Z</time>
      </trkpt>
      <trkpt lat="1.960353" lon="-76.751264">
        <ele>3951.197</ele>
        <time>2022-12-18T07:53:02Z</time>
      </trkpt>
      <trkpt lat="1.960301" lon="-76.751224">
        <ele>3951.111</ele>
        <time>2022-12-18T07:53:04Z</time>
      </trkpt>
      <trkpt lat="1.960246" lon="-76.751177">
        <ele>3951.021</ele>
        <time>2022-12-18T07:53:06Z</time>
      </trkpt>
      <trkpt lat="1.960194" lon="-76.751127">
        <ele>3951.003</ele>
        <time>2022-12-18T07:53:07Z</time>
      </trkpt>
      <trkpt lat="1.960154" lon="-76.75109">
        <ele>3951.409</ele>
        <time>2022-12-18T07:53:09Z</time>
      </trkpt>
      <trkpt lat="1.960115" lon="-76.751052">
        <ele>3951.682</ele>
        <time>2022-12-18T07:53:11Z</time>
      </trkpt>
      <trkpt lat="1.960073" lon="-76.751009">
        <ele>3951.973</ele>
        <time>2022-12-18T07:53:13Z</time>
      </trkpt>
      <trkpt lat="1.96003" lon="-76.750967">
        <ele>3951.942</ele>
        <time>2022-12-18T07:53:15Z</time>
      </trkpt>
      <trkpt lat="1.959992" lon="-76.750925">
        <ele>3951.936</ele>
        <time>2022-12-18T07:53:17Z</time>
      </trkpt>
      <trkpt lat="1.959953" lon="-76.750885">
        <ele>3951.923</ele>
        <time>2022-12-18T07:53:19Z</time>
      </trkpt>
      <trkpt lat="1.959921" lon="-76.750835">
        <ele>3951.131</ele>
        <time>2022-12-18T07:53:21Z</time>
      </trkpt>
      <trkpt lat="1.959894" lon="-76.750788">
        <ele>3950.416</ele>
        <time>2022-12-18T07:53:23Z</time>
      </trkpt>
      <trkpt lat="1.959863" lon="-76.750746">
        <ele>3950.477</ele>
        <time>2022-12-18T07:53:25Z</time>
      </trkpt>
      <trkpt lat="1.959839" lon="-76.750705">
        <ele>3950.644</ele>
        <time>2022-12-18T07:53:27Z</time>
      </trkpt>
      <trkpt lat="1.959809" lon="-76.75067">
        <ele>3950.423</ele>
        <time>2022-12-18T07:53:29Z</time>
      </trkpt>
      <trkpt lat="1.959779" lon="-76.750631">
        <ele>3950.483</ele>
        <time>2022-12-18T07:53:31Z</time>
      </trkpt>
      <trkpt lat="1.959739" lon="-76.750602">
        <ele>3950.211</ele>
        <time>2022-12-18T07:53:33Z</time>
      </trkpt>
      <trkpt lat="1.959689" lon="-76.750556">
        <ele>3950.109</ele>
        <time>2022-12-18T07:53:36Z</time>
      </trkpt>
      <trkpt lat="1.959653" lon="-76.750526">
        <ele>3950.173</ele>
        <time>2022-12-18T07:53:38Z</time>
      </trkpt>
      <trkpt lat="1.95961" lon="-76.750493">
        <ele>3950.494</ele>
        <time>2022-12-18T07:53:40Z</time>
      </trkpt>
      <trkpt lat="1.959569" lon="-76.750464">
        <ele>3950.483</ele>
        <time>2022-12-18T07:53:42Z</time>
      </trkpt>
      <trkpt lat="1.959522" lon="-76.750436">
        <ele>3950.517</ele>
        <time>2022-12-18T07:53:44Z</time>
      </trkpt>
      <trkpt lat="1.959471" lon="-76.750419">
        <ele>3951.054</ele>
        <time>2022-12-18T07:53:46Z</time>
      </trkpt>
      <trkpt lat="1.959414" lon="-76.750406">
        <ele>3951.472</ele>
        <time>2022-12-18T07:53:48Z</time>
      </trkpt>
      <trkpt lat="1.959357" lon="-76.750391">
        <ele>3951.767</ele>
        <time>2022-12-18T07:53:50Z</time>
      </trkpt>
      <trkpt lat="1.9593" lon="-76.750386">
        <ele>3951.998</ele>
        <time>2022-12-18T07:53:52Z</time>
      </trkpt>
      <trkpt lat="1.959238" lon="-76.750386">
        <ele>3952.255</ele>
        <time>2022-12-18T07:53:54Z</time>
      </trkpt>
      <trkpt lat="1.959183" lon="-76.750384">
        <ele>3952.364</ele>
        <time>2022-12-18T07:53:56Z</time>
      </trkpt>
      <trkpt lat="1.959134" lon="-76.750398">
        <ele>3952.606</ele>
        <time>2022-12-18T07:53:58Z</time>
      </trkpt>
      <trkpt lat="1.959082" lon="-76.75041">
        <ele>3954.116</ele>
        <time>2022-12-18T07:54:00Z</time>
      </trkpt>
      <trkpt lat="1.959032" lon="-76.750424">
        <ele>3954.209</ele>
        <time>2022-12-18T07:54:02Z</time>
      </trkpt>
      <trkpt lat="1.958984" lon="-76.750438">
        <ele>3954.227</ele>
        <time>2022-12-18T07:54:04Z</time>
      </trkpt>
      <trkpt lat="1.958925" lon="-76.750468">
        <ele>3953.468</ele>
        <time>2022-12-18T07:54:07Z</time>
      </trkpt>
      <trkpt lat="1.958861" lon="-76.750487">
        <ele>3952.627</ele>
        <time>2022-12-18T07:54:10Z</time>
      </trkpt>
      <trkpt lat="1.958804" lon="-76.7505">
        <ele>3951.891</ele>
        <time>2022-12-18T07:54:13Z</time>
      </trkpt>
      <trkpt lat="1.958759" lon="-76.75051">
        <ele>3951.738</ele>
        <time>2022-12-18T07:54:15Z</time>
      </trkpt>
      <trkpt lat="1.95871" lon="-76.750517">
        <ele>3951.766</ele>
        <time>2022-12-18T07:54:17Z</time>
      </trkpt>
      <trkpt lat="1.958655" lon="-76.750532">
        <ele>3952.211</ele>
        <time>2022-12-18T07:54:19Z</time>
      </trkpt>
      <trkpt lat="1.958593" lon="-76.750558">
        <ele>3953.882</ele>
        <time>2022-12-18T07:54:22Z</time>
      </trkpt>
      <trkpt lat="1.958547" lon="-76.750574">
        <ele>3954.819</ele>
        <time>2022-12-18T07:54:24Z</time>
      </trkpt>
      <trkpt lat="1.958492" lon="-76.750606">
        <ele>3955.972</ele>
        <time>2022-12-18T07:54:26Z</time>
      </trkpt>
      <trkpt lat="1.95844" lon="-76.750629">
        <ele>3957.013</ele>
        <time>2022-12-18T07:54:28Z</time>
      </trkpt>
      <trkpt lat="1.958395" lon="-76.750644">
        <ele>3957.814</ele>
        <time>2022-12-18T07:54:30Z</time>
      </trkpt>
      <trkpt lat="1.958347" lon="-76.750659">
        <ele>3959.009</ele>
        <time>2022-12-18T07:54:32Z</time>
      </trkpt>
      <trkpt lat="1.958297" lon="-76.750671">
        <ele>3959.348</ele>
        <time>2022-12-18T07:54:34Z</time>
      </trkpt>
      <trkpt lat="1.958248" lon="-76.750675">
        <ele>3960.699</ele>
        <time>2022-12-18T07:54:36Z</time>
      </trkpt>
      <trkpt lat="1.958198" lon="-76.750683">
        <ele>3961.258</ele>
        <time>2022-12-18T07:54:38Z</time>
      </trkpt>
      <trkpt lat="1.958148" lon="-76.750688">
        <ele>3961.432</ele>
        <time>2022-12-18T07:54:40Z</time>
      </trkpt>
      <trkpt lat="1.958101" lon="-76.750688">
        <ele>3961.499</ele>
        <time>2022-12-18T07:54:42Z</time>
      </trkpt>
      <trkpt lat="1.958053" lon="-76.750684">
        <ele>3961.717</ele>
        <time>2022-12-18T07:54:44Z</time>
      </trkpt>
      <trkpt lat="1.958008" lon="-76.750675">
        <ele>3962.292</ele>
        <time>2022-12-18T07:54:46Z</time>
      </trkpt>
      <trkpt lat="1.957959" lon="-76.750667">
        <ele>3962.643</ele>
        <time>2022-12-18T07:54:48Z</time>
      </trkpt>
      <trkpt lat="1.957913" lon="-76.750656">
        <ele>3963.330</ele>
        <time>2022-12-18T07:54:50Z</time>
      </trkpt>
      <trkpt lat="1.957866" lon="-76.750648">
        <ele>3964.815</ele>
        <time>2022-12-18T07:54:52Z</time>
      </trkpt>
      <trkpt lat="1.95782" lon="-76.750641">
        <ele>3965.265</ele>
        <time>2022-12-18T07:54:54Z</time>
      </trkpt>
      <trkpt lat="1.957775" lon="-76.750636">
        <ele>3965.511</ele>
        <time>2022-12-18T07:54:56Z</time>
      </trkpt>
      <trkpt lat="1.957727" lon="-76.750634">
        <ele>3966.009</ele>
        <time>2022-12-18T07:54:58Z</time>
      </trkpt>
      <trkpt lat="1.957661" lon="-76.750629">
        <ele>3966.372</ele>
        <time>2022-12-18T07:55:01Z</time>
      </trkpt>
      <trkpt lat="1.95761" lon="-76.750633">
        <ele>3967.153</ele>
        <time>2022-12-18T07:55:03Z</time>
      </trkpt>
      <trkpt lat="1.957552" lon="-76.750617">
        <ele>3969.142</ele>
        <time>2022-12-18T07:55:06Z</time>
      </trkpt>
      <trkpt lat="1.957492" lon="-76.750615">
        <ele>3969.746</ele>
        <time>2022-12-18T07:55:09Z</time>
      </trkpt>
      <trkpt lat="1.957442" lon="-76.750612">
        <ele>3971.193</ele>
        <time>2022-12-18T07:55:11Z</time>
      </trkpt>
      <trkpt lat="1.957396" lon="-76.750603">
        <ele>3971.391</ele>
        <time>2022-12-18T07:55:13Z</time>
      </trkpt>
      <trkpt lat="1.957351" lon="-76.750594">
        <ele>3972.086</ele>
        <time>2022-12-18T07:55:15Z</time>
      </trkpt>
      <trkpt lat="1.957306" lon="-76.750589">
        <ele>3972.497</ele>
        <time>2022-12-18T07:55:17Z</time>
      </trkpt>
      <trkpt lat="1.957251" lon="-76.750568">
        <ele>3972.564</ele>
        <time>2022-12-18T07:55:20Z</time>
      </trkpt>
      <trkpt lat="1.957194" lon="-76.750552">
        <ele>3972.492</ele>
        <time>2022-12-18T07:55:23Z</time>
      </trkpt>
      <trkpt lat="1.95713" lon="-76.750538">
        <ele>3972.473</ele>
        <time>2022-12-18T07:55:26Z</time>
      </trkpt>
      <trkpt lat="1.957087" lon="-76.750525">
        <ele>3972.820</ele>
        <time>2022-12-18T07:55:28Z</time>
      </trkpt>
      <trkpt lat="1.957026" lon="-76.750511">
        <ele>3974.109</ele>
        <time>2022-12-18T07:55:31Z</time>
      </trkpt>
      <trkpt lat="1.956963" lon="-76.750494">
        <ele>3976.210</ele>
        <time>2022-12-18T07:55:34Z</time>
      </trkpt>
      <trkpt lat="1.956918" lon="-76.750483">
        <ele>3977.351</ele>
        <time>2022-12-18T07:55:36Z</time>
      </trkpt>
      <trkpt lat="1.956869" lon="-76.750481">
        <ele>3977.420</ele>
        <time>2022-12-18T07:55:38Z</time>
      </trkpt>
      <trkpt lat="1.956794" lon="-76.750479">
        <ele>3977.384</ele>
        <time>2022-12-18T07:55:41Z</time>
      </trkpt>
      <trkpt lat="1.956734" lon="-76.750479">
        <ele>3975.061</ele>
        <time>2022-12-18T07:55:43Z</time>
      </trkpt>
      <trkpt lat="1.956684" lon="-76.750489">
        <ele>3974.789</ele>
        <time>2022-12-18T07:55:45Z</time>
      </trkpt>
      <trkpt lat="1.956633" lon="-76.750496">
        <ele>3974.724</ele>
        <time>2022-12-18T07:55:47Z</time>
      </trkpt>
      <trkpt lat="1.956585" lon="-76.750517">
        <ele>3974.735</ele>
        <time>2022-12-18T07:55:49Z</time>
      </trkpt>
      <trkpt lat="1.956538" lon="-76.750537">
        <ele>3974.832</ele>
        <time>2022-12-18T07:55:51Z</time>
      </trkpt>
      <trkpt lat="1.956495" lon="-76.750558">
        <ele>3975.188</ele>
        <time>2022-12-18T07:55:53Z</time>
      </trkpt>
      <trkpt lat="1.95646" lon="-76.750588">
        <ele>3975.224</ele>
        <time>2022-12-18T07:55:55Z</time>
      </trkpt>
      <trkpt lat="1.956432" lon="-76.750635">
        <ele>3975.426</ele>
        <time>2022-12-18T07:55:57Z</time>
      </trkpt>
      <trkpt lat="1.956403" lon="-76.750682">
        <ele>3975.409</ele>
        <time>2022-12-18T07:55:59Z</time>
      </trkpt>
      <trkpt lat="1.956378" lon="-76.750734">
        <ele>3975.639</ele>
        <time>2022-12-18T07:56:01Z</time>
      </trkpt>
      <trkpt lat="1.956345" lon="-76.750795">
        <ele>3975.690</ele>
        <time>2022-12-18T07:56:03Z</time>
      </trkpt>
      <trkpt lat="1.956313" lon="-76.75085">
        <ele>3975.699</ele>
        <time>2022-12-18T07:56:05Z</time>
      </trkpt>
      <trkpt lat="1.956271" lon="-76.750897">
        <ele>3974.933</ele>
        <time>2022-12-18T07:56:07Z</time>
      </trkpt>
      <trkpt lat="1.956223" lon="-76.750937">
        <ele>3974.840</ele>
        <time>2022-12-18T07:56:09Z</time>
      </trkpt>
      <trkpt lat="1.956163" lon="-76.750956">
        <ele>3974.828</ele>
        <time>2022-12-18T07:56:11Z</time>
      </trkpt>
      <trkpt lat="1.956104" lon="-76.750962">
        <ele>3974.863</ele>
        <time>2022-12-18T07:56:13Z</time>
      </trkpt>
      <trkpt lat="1.956046" lon="-76.750957">
        <ele>3974.954</ele>
        <time>2022-12-18T07:56:15Z</time>
      </trkpt>
      <trkpt lat="1.955993" lon="-76.750943">
        <ele>3975.681</ele>
        <time>2022-12-18T07:56:17Z</time>
      </trkpt>
      <trkpt lat="1.955944" lon="-76.750907">
        <ele>3975.878</ele>
        <time>2022-12-18T07:56:19Z</time>
      </trkpt>
      <trkpt lat="1.955906" lon="-76.750862">
        <ele>3977.633</ele>
        <time>2022-12-18T07:56:21Z</time>
      </trkpt>
      <trkpt lat="1.95587" lon="-76.750815">
        <ele>3978.826</ele>
        <time>2022-12-18T07:56:23Z</time>
      </trkpt>
      <trkpt lat="1.955834" lon="-76.750768">
        <ele>3979.209</ele>
        <time>2022-12-18T07:56:25Z</time>
      </trkpt>
      <trkpt lat="1.955796" lon="-76.750723">
        <ele>3979.288</ele>
        <time>2022-12-18T07:56:27Z</time>
      </trkpt>
      <trkpt lat="1.955758" lon="-76.750689">
        <ele>3979.129</ele>
        <time>2022-12-18T07:56:29Z</time>
      </trkpt>
      <trkpt lat="1.955707" lon="-76.75065">
        <ele>3978.988</ele>
        <time>2022-12-18T07:56:31Z</time>
      </trkpt>
      <trkpt lat="1.955659" lon="-76.750614">
        <ele>3978.152</ele>
        <time>2022-12-18T07:56:33Z</time>
      </trkpt>
      <trkpt lat="1.955609" lon="-76.750581">
        <ele>3977.299</ele>
        <time>2022-12-18T07:56:35Z</time>
      </trkpt>
      <trkpt lat="1.955556" lon="-76.75055">
        <ele>3977.087</ele>
        <time>2022-12-18T07:56:37Z</time>
      </trkpt>
      <trkpt lat="1.955506" lon="-76.750526">
        <ele>3976.312</ele>
        <time>2022-12-18T07:56:39Z</time>
      </trkpt>
      <trkpt lat="1.95546" lon="-76.750518">
        <ele>3973.163</ele>
        <time>2022-12-18T07:56:41Z</time>
      </trkpt>
      <trkpt lat="1.955402" lon="-76.750509">
        <ele>3973.060</ele>
        <time>2022-12-18T07:56:43Z</time>
      </trkpt>
      <trkpt lat="1.955352" lon="-76.750514">
        <ele>3973.041</ele>
        <time>2022-12-18T07:56:45Z</time>
      </trkpt>
      <trkpt lat="1.955302" lon="-76.750515">
        <ele>3972.781</ele>
        <time>2022-12-18T07:56:47Z</time>
      </trkpt>
      <trkpt lat="1.955248" lon="-76.750527">
        <ele>3972.509</ele>
        <time>2022-12-18T07:56:49Z</time>
      </trkpt>
      <trkpt lat="1.955197" lon="-76.750547">
        <ele>3971.909</ele>
        <time>2022-12-18T07:56:51Z</time>
      </trkpt>
      <trkpt lat="1.955147" lon="-76.750557">
        <ele>3972.445</ele>
        <time>2022-12-18T07:56:53Z</time>
      </trkpt>
      <trkpt lat="1.955099" lon="-76.750575">
        <ele>3972.496</ele>
        <time>2022-12-18T07:56:55Z</time>
      </trkpt>
      <trkpt lat="1.95504" lon="-76.750603">
        <ele>3971.815</ele>
        <time>2022-12-18T07:56:57Z</time>
      </trkpt>
      <trkpt lat="1.954985" lon="-76.75063">
        <ele>3971.929</ele>
        <time>2022-12-18T07:56:59Z</time>
      </trkpt>
      <trkpt lat="1.954943" lon="-76.750653">
        <ele>3972.346</ele>
        <time>2022-12-18T07:57:01Z</time>
      </trkpt>
      <trkpt lat="1.954887" lon="-76.75066">
        <ele>3971.934</ele>
        <time>2022-12-18T07:57:04Z</time>
      </trkpt>
      <trkpt lat="1.954831" lon="-76.750678">
        <ele>3970.619</ele>
        <time>2022-12-18T07:57:07Z</time>
      </trkpt>
      <trkpt lat="1.954773" lon="-76.750701">
        <ele>3972.050</ele>
        <time>2022-12-18T07:57:10Z</time>
      </trkpt>
      <trkpt lat="1.954701" lon="-76.750708">
        <ele>3972.837</ele>
        <time>2022-12-18T07:57:13Z</time>
      </trkpt>
      <trkpt lat="1.954651" lon="-76.750707">
        <ele>3973.122</ele>
        <time>2022-12-18T07:57:15Z</time>
      </trkpt>
      <trkpt lat="1.954585" lon="-76.750709">
        <ele>3977.062</ele>
        <time>2022-12-18T07:57:18Z</time>
      </trkpt>
      <trkpt lat="1.954524" lon="-76.750719">
        <ele>3980.408</ele>
        <time>2022-12-18T07:57:21Z</time>
      </trkpt>
      <trkpt lat="1.954471" lon="-76.750742">
        <ele>3982.809</ele>
        <time>2022-12-18T07:57:24Z</time>
      </trkpt>
      <trkpt lat="1.954417" lon="-76.750772">
        <ele>3984.293</ele>
        <time>2022-12-18T07:57:27Z</time>
      </trkpt>
      <trkpt lat="1.954363" lon="-76.75081">
        <ele>3984.434</ele>
        <time>2022-12-18T07:57:30Z</time>
      </trkpt>
      <trkpt lat="1.954327" lon="-76.750837">
        <ele>3984.413</ele>
        <time>2022-12-18T07:57:32Z</time>
      </trkpt>
      <trkpt lat="1.954288" lon="-76.750865">
        <ele>3984.397</ele>
        <time>2022-12-18T07:57:34Z</time>
      </trkpt>
      <trkpt lat="1.95425" lon="-76.75089">
        <ele>3984.284</ele>
        <time>2022-12-18T07:57:36Z</time>
      </trkpt>
      <trkpt lat="1.954194" lon="-76.750923">
        <ele>3984.972</ele>
        <time>2022-12-18T07:57:39Z</time>
      </trkpt>
      <trkpt lat="1.954144" lon="-76.750949">
        <ele>3984.947</ele>
        <time>2022-12-18T07:57:41Z</time>
      </trkpt>
      <trkpt lat="1.954102" lon="-76.750972">
        <ele>3985.658</ele>
        <time>2022-12-18T07:57:44Z</time>
      </trkpt>
      <trkpt lat="1.954061" lon="-76.750995">
        <ele>3986.395</ele>
        <time>2022-12-18T07:57:46Z</time>
      </trkpt>
      <trkpt lat="1.954003" lon="-76.751026">
        <ele>3986.781</ele>
        <time>2022-12-18T07:57:49Z</time>
      </trkpt>
      <trkpt lat="1.953947" lon="-76.75106">
        <ele>3986.761</ele>
        <time>2022-12-18T07:57:52Z</time>
      </trkpt>
      <trkpt lat="1.953893" lon="-76.751099">
        <ele>3986.317</ele>
        <time>2022-12-18T07:57:55Z</time>
      </trkpt>
      <trkpt lat="1.953858" lon="-76.751129">
        <ele>3986.309</ele>
        <time>2022-12-18T07:57:57Z</time>
      </trkpt>
      <trkpt lat="1.953824" lon="-76.751159">
        <ele>3985.799</ele>
        <time>2022-12-18T07:57:59Z</time>
      </trkpt>
      <trkpt lat="1.953785" lon="-76.751188">
        <ele>3985.760</ele>
        <time>2022-12-18T07:58:01Z</time>
      </trkpt>
      <trkpt lat="1.953746" lon="-76.751214">
        <ele>3986.079</ele>
        <time>2022-12-18T07:58:03Z</time>
      </trkpt>
      <trkpt lat="1.95371" lon="-76.751241">
        <ele>3986.283</ele>
        <time>2022-12-18T07:58:05Z</time>
      </trkpt>
      <trkpt lat="1.95367" lon="-76.751267">
        <ele>3986.350</ele>
        <time>2022-12-18T07:58:07Z</time>
      </trkpt>
      <trkpt lat="1.953629" lon="-76.751291">
        <ele>3986.348</ele>
        <time>2022-12-18T07:58:09Z</time>
      </trkpt>
      <trkpt lat="1.95359" lon="-76.751315">
        <ele>3986.513</ele>
        <time>2022-12-18T07:58:11Z</time>
      </trkpt>
      <trkpt lat="1.953545" lon="-76.751325">
        <ele>3986.864</ele>
        <time>2022-12-18T07:58:13Z</time>
      </trkpt>
      <trkpt lat="1.953498" lon="-76.751329">
        <ele>3986.861</ele>
        <time>2022-12-18T07:58:15Z</time>
      </trkpt>
      <trkpt lat="1.953436" lon="-76.751324">
        <ele>3987.235</ele>
        <time>2022-12-18T07:58:18Z</time>
      </trkpt>
      <trkpt lat="1.953374" lon="-76.751326">
        <ele>3987.686</ele>
        <time>2022-12-18T07:58:21Z</time>
      </trkpt>
      <trkpt lat="1.953317" lon="-76.751341">
        <ele>3988.914</ele>
        <time>2022-12-18T07:58:24Z</time>
      </trkpt>
      <trkpt lat="1.953275" lon="-76.751357">
        <ele>3989.409</ele>
        <time>2022-12-18T07:58:26Z</time>
      </trkpt>
      <trkpt lat="1.953234" lon="-76.751379">
        <ele>3989.414</ele>
        <time>2022-12-18T07:58:28Z</time>
      </trkpt>
      <trkpt lat="1.953193" lon="-76.751406">
        <ele>3989.475</ele>
        <time>2022-12-18T07:58:30Z</time>
      </trkpt>
      <trkpt lat="1.953154" lon="-76.75144">
        <ele>3988.384</ele>
        <time>2022-12-18T07:58:32Z</time>
      </trkpt>
      <trkpt lat="1.953115" lon="-76.751477">
        <ele>3986.778</ele>
        <time>2022-12-18T07:58:34Z</time>
      </trkpt>
      <trkpt lat="1.95307" lon="-76.751508">
        <ele>3986.755</ele>
        <time>2022-12-18T07:58:36Z</time>
      </trkpt>
      <trkpt lat="1.953035" lon="-76.751542">
        <ele>3986.793</ele>
        <time>2022-12-18T07:58:38Z</time>
      </trkpt>
      <trkpt lat="1.952993" lon="-76.751576">
        <ele>3987.078</ele>
        <time>2022-12-18T07:58:40Z</time>
      </trkpt>
      <trkpt lat="1.952943" lon="-76.751616">
        <ele>3988.259</ele>
        <time>2022-12-18T07:58:43Z</time>
      </trkpt>
      <trkpt lat="1.952889" lon="-76.751657">
        <ele>3988.346</ele>
        <time>2022-12-18T07:58:46Z</time>
      </trkpt>
      <trkpt lat="1.952835" lon="-76.751692">
        <ele>3989.383</ele>
        <time>2022-12-18T07:58:49Z</time>
      </trkpt>
      <trkpt lat="1.952784" lon="-76.751718">
        <ele>3989.625</ele>
        <time>2022-12-18T07:58:52Z</time>
      </trkpt>
      <trkpt lat="1.952723" lon="-76.751736">
        <ele>3990.217</ele>
        <time>2022-12-18T07:58:55Z</time>
      </trkpt>
      <trkpt lat="1.952664" lon="-76.751752">
        <ele>3992.509</ele>
        <time>2022-12-18T07:58:58Z</time>
      </trkpt>
      <trkpt lat="1.952601" lon="-76.751759">
        <ele>3994.119</ele>
        <time>2022-12-18T07:59:01Z</time>
      </trkpt>
      <trkpt lat="1.952546" lon="-76.751784">
        <ele>3995.670</ele>
        <time>2022-12-18T07:59:04Z</time>
      </trkpt>
      <trkpt lat="1.952487" lon="-76.751805">
        <ele>3996.669</ele>
        <time>2022-12-18T07:59:07Z</time>
      </trkpt>
      <trkpt lat="1.952431" lon="-76.751826">
        <ele>3997.563</ele>
        <time>2022-12-18T07:59:10Z</time>
      </trkpt>
      <trkpt lat="1.95236" lon="-76.751836">
        <ele>3999.990</ele>
        <time>2022-12-18T07:59:13Z</time>
      </trkpt>
      <trkpt lat="1.952316" lon="-76.751847">
        <ele>4000.328</ele>
        <time>2022-12-18T07:59:15Z</time>
      </trkpt>
      <trkpt lat="1.952255" lon="-76.751847">
        <ele>4001.073</ele>
        <time>2022-12-18T07:59:18Z</time>
      </trkpt>
      <trkpt lat="1.95221" lon="-76.751851">
        <ele>4001.074</ele>
        <time>2022-12-18T07:59:20Z</time>
      </trkpt>
      <trkpt lat="1.952165" lon="-76.751847">
        <ele>4000.731</ele>
        <time>2022-12-18T07:59:22Z</time>
      </trkpt>
      <trkpt lat="1.952106" lon="-76.751843">
        <ele>4000.237</ele>
        <time>2022-12-18T07:59:25Z</time>
      </trkpt>
      <trkpt lat="1.952055" lon="-76.751827">
        <ele>4000.249</ele>
        <time>2022-12-18T07:59:28Z</time>
      </trkpt>
      <trkpt lat="1.951992" lon="-76.751825">
        <ele>4000.613</ele>
        <time>2022-12-18T07:59:31Z</time>
      </trkpt>
      <trkpt lat="1.951936" lon="-76.751822">
        <ele>4002.309</ele>
        <time>2022-12-18T07:59:34Z</time>
      </trkpt>
      <trkpt lat="1.951875" lon="-76.751817">
        <ele>4002.764</ele>
        <time>2022-12-18T07:59:37Z</time>
      </trkpt>
      <trkpt lat="1.951817" lon="-76.751814">
        <ele>4002.775</ele>
        <time>2022-12-18T07:59:40Z</time>
      </trkpt>
      <trkpt lat="1.951759" lon="-76.751815">
        <ele>4001.914</ele>
        <time>2022-12-18T07:59:42Z</time>
      </trkpt>
      <trkpt lat="1.951705" lon="-76.75182">
        <ele>4001.728</ele>
        <time>2022-12-18T07:59:45Z</time>
      </trkpt>
      <trkpt lat="1.95165" lon="-76.751795">
        <ele>4001.735</ele>
        <time>2022-12-18T07:59:48Z</time>
      </trkpt>
      <trkpt lat="1.9516" lon="-76.751769">
        <ele>4001.733</ele>
        <time>2022-12-18T07:59:51Z</time>
      </trkpt>
      <trkpt lat="1.951549" lon="-76.751751">
        <ele>4001.768</ele>
        <time>2022-12-18T07:59:54Z</time>
      </trkpt>
      <trkpt lat="1.951498" lon="-76.751738">
        <ele>4002.049</ele>
        <time>2022-12-18T07:59:57Z</time>
      </trkpt>
      <trkpt lat="1.951438" lon="-76.751729">
        <ele>4003.656</ele>
        <time>2022-12-18T08:00:00Z</time>
      </trkpt>
      <trkpt lat="1.951382" lon="-76.751719">
        <ele>4003.941</ele>
        <time>2022-12-18T08:00:03Z</time>
      </trkpt>
      <trkpt lat="1.951317" lon="-76.751716">
        <ele>4004.981</ele>
        <time>2022-12-18T08:00:06Z</time>
      </trkpt>
      <trkpt lat="1.951264" lon="-76.751713">
        <ele>4005.109</ele>
        <time>2022-12-18T08:00:08Z</time>
      </trkpt>
      <trkpt lat="1.951219" lon="-76.75171">
        <ele>4005.309</ele>
        <time>2022-12-18T08:00:10Z</time>
      </trkpt>
      <trkpt lat="1.95117" lon="-76.75171">
        <ele>4005.445</ele>
        <time>2022-12-18T08:00:13Z</time>
      </trkpt>
      <trkpt lat="1.951114" lon="-76.751714">
        <ele>4005.436</ele>
        <time>2022-12-18T08:00:16Z</time>
      </trkpt>
      <trkpt lat="1.951057" lon="-76.751714">
        <ele>4005.485</ele>
        <time>2022-12-18T08:00:19Z</time>
      </trkpt>
      <trkpt lat="1.951011" lon="-76.751706">
        <ele>4005.769</ele>
        <time>2022-12-18T08:00:22Z</time>
      </trkpt>
      <trkpt lat="1.950948" lon="-76.75169">
        <ele>4006.166</ele>
        <time>2022-12-18T08:00:26Z</time>
      </trkpt>
      <trkpt lat="1.950892" lon="-76.751671">
        <ele>4007.574</ele>
        <time>2022-12-18T08:00:29Z</time>
      </trkpt>
      <trkpt lat="1.950846" lon="-76.751638">
        <ele>4009.219</ele>
        <time>2022-12-18T08:00:32Z</time>
      </trkpt>
      <trkpt lat="1.950832" lon="-76.751585">
        <ele>4009.840</ele>
        <time>2022-12-18T08:00:35Z</time>
      </trkpt>
      <trkpt lat="1.950847" lon="-76.75154">
        <ele>4010.657</ele>
        <time>2022-12-18T08:00:38Z</time>
      </trkpt>
      <trkpt lat="1.95089" lon="-76.751512">
        <ele>4012.868</ele>
        <time>2022-12-18T08:00:43Z</time>
      </trkpt>
      <trkpt lat="1.950947" lon="-76.75151">
        <ele>4014.542</ele>
        <time>2022-12-18T08:00:49Z</time>
      </trkpt>
      <trkpt lat="1.950994" lon="-76.751503">
        <ele>4015.326</ele>
        <time>2022-12-18T08:00:51Z</time>
      </trkpt>
      <trkpt lat="1.951038" lon="-76.751488">
        <ele>4015.409</ele>
        <time>2022-12-18T08:00:54Z</time>
      </trkpt>
      <trkpt lat="1.951086" lon="-76.751466">
        <ele>4015.457</ele>
        <time>2022-12-18T08:00:58Z</time>
      </trkpt>
      <trkpt lat="1.951127" lon="-76.751443">
        <ele>4015.238</ele>
        <time>2022-12-18T08:01:01Z</time>
      </trkpt>
      <trkpt lat="1.951178" lon="-76.751416">
        <ele>4014.557</ele>
        <time>2022-12-18T08:01:05Z</time>
      </trkpt>
      <trkpt lat="1.951221" lon="-76.751402">
        <ele>4014.441</ele>
        <time>2022-12-18T08:01:08Z</time>
      </trkpt>
      <trkpt lat="1.951279" lon="-76.751393">
        <ele>4014.448</ele>
        <time>2022-12-18T08:01:12Z</time>
      </trkpt>
      <trkpt lat="1.951331" lon="-76.751372">
        <ele>4014.576</ele>
        <time>2022-12-18T08:01:15Z</time>
      </trkpt>
      <trkpt lat="1.95138" lon="-76.751334">
        <ele>4014.551</ele>
        <time>2022-12-18T08:01:18Z</time>
      </trkpt>
      <trkpt lat="1.951424" lon="-76.751312">
        <ele>4014.632</ele>
        <time>2022-12-18T08:01:21Z</time>
      </trkpt>
      <trkpt lat="1.951481" lon="-76.751272">
        <ele>4014.279</ele>
        <time>2022-12-18T08:01:24Z</time>
      </trkpt>
      <trkpt lat="1.951517" lon="-76.751224">
        <ele>4013.533</ele>
        <time>2022-12-18T08:01:26Z</time>
      </trkpt>
      <trkpt lat="1.951546" lon="-76.751177">
        <ele>4012.723</ele>
        <time>2022-12-18T08:01:28Z</time>
      </trkpt>
      <trkpt lat="1.951576" lon="-76.751132">
        <ele>4010.415</ele>
        <time>2022-12-18T08:01:30Z</time>
      </trkpt>
      <trkpt lat="1.951622" lon="-76.751113">
        <ele>4008.409</ele>
        <time>2022-12-18T08:01:34Z</time>
      </trkpt>
      <trkpt lat="1.951675" lon="-76.751095">
        <ele>4008.074</ele>
        <time>2022-12-18T08:01:36Z</time>
      </trkpt>
      <trkpt lat="1.951721" lon="-76.751063">
        <ele>4007.885</ele>
        <time>2022-12-18T08:01:39Z</time>
      </trkpt>
      <trkpt lat="1.951767" lon="-76.751051">
        <ele>4008.054</ele>
        <time>2022-12-18T08:01:41Z</time>
      </trkpt>
      <trkpt lat="1.951814" lon="-76.751016">
        <ele>4007.898</ele>
        <time>2022-12-18T08:01:43Z</time>
      </trkpt>
      <trkpt lat="1.95185" lon="-76.750983">
        <ele>4007.025</ele>
        <time>2022-12-18T08:01:46Z</time>
      </trkpt>
      <trkpt lat="1.951903" lon="-76.750959">
        <ele>4006.453</ele>
        <time>2022-12-18T08:01:50Z</time>
      </trkpt>
      <trkpt lat="1.951957" lon="-76.750942">
        <ele>4006.888</ele>
        <time>2022-12-18T08:01:53Z</time>
      </trkpt>
      <trkpt lat="1.952011" lon="-76.75092">
        <ele>4007.229</ele>
        <time>2022-12-18T08:01:57Z</time>
      </trkpt>
      <trkpt lat="1.952048" lon="-76.750884">
        <ele>4008.096</ele>
        <time>2022-12-18T08:02:00Z</time>
      </trkpt>
      <trkpt lat="1.952086" lon="-76.75085">
        <ele>4008.663</ele>
        <time>2022-12-18T08:02:03Z</time>
      </trkpt>
      <trkpt lat="1.952114" lon="-76.750814">
        <ele>4009.044</ele>
        <time>2022-12-18T08:02:07Z</time>
      </trkpt>
      <trkpt lat="1.952134" lon="-76.750766">
        <ele>4011.418</ele>
        <time>2022-12-18T08:02:11Z</time>
      </trkpt>
      <trkpt lat="1.952147" lon="-76.750721">
        <ele>4012.309</ele>
        <time>2022-12-18T08:02:13Z</time>
      </trkpt>
      <trkpt lat="1.952172" lon="-76.750671">
        <ele>4012.987</ele>
        <time>2022-12-18T08:02:18Z</time>
      </trkpt>
      <trkpt lat="1.952193" lon="-76.750622">
        <ele>4013.268</ele>
        <time>2022-12-18T08:02:21Z</time>
      </trkpt>
      <trkpt lat="1.95221" lon="-76.750562">
        <ele>4013.387</ele>
        <time>2022-12-18T08:02:24Z</time>
      </trkpt>
      <trkpt lat="1.952226" lon="-76.750512">
        <ele>4013.461</ele>
        <time>2022-12-18T08:02:27Z</time>
      </trkpt>
      <trkpt lat="1.952244" lon="-76.750451">
        <ele>4013.768</ele>
        <time>2022-12-18T08:02:30Z</time>
      </trkpt>
      <trkpt lat="1.952256" lon="-76.750392">
        <ele>4013.486</ele>
        <time>2022-12-18T08:02:33Z</time>
      </trkpt>
      <trkpt lat="1.952283" lon="-76.750349">
        <ele>4013.771</ele>
        <time>2022-12-18T08:02:36Z</time>
      </trkpt>
      <trkpt lat="1.952308" lon="-76.750305">
        <ele>4013.832</ele>
        <time>2022-12-18T08:02:39Z</time>
      </trkpt>
      <trkpt lat="1.952331" lon="-76.75026">
        <ele>4014.249</ele>
        <time>2022-12-18T08:02:42Z</time>
      </trkpt>
      <trkpt lat="1.952358" lon="-76.75022">
        <ele>4015.143</ele>
        <time>2022-12-18T08:02:44Z</time>
      </trkpt>
      <trkpt lat="1.952378" lon="-76.750178">
        <ele>4015.564</ele>
        <time>2022-12-18T08:02:46Z</time>
      </trkpt>
      <trkpt lat="1.952407" lon="-76.750139">
        <ele>4015.510</ele>
        <time>2022-12-18T08:02:50Z</time>
      </trkpt>
      <trkpt lat="1.952436" lon="-76.750101">
        <ele>4015.809</ele>
        <time>2022-12-18T08:02:53Z</time>
      </trkpt>
      <trkpt lat="1.952477" lon="-76.750059">
        <ele>4017.165</ele>
        <time>2022-12-18T08:02:57Z</time>
      </trkpt>
      <trkpt lat="1.952503" lon="-76.750019">
        <ele>4017.576</ele>
        <time>2022-12-18T08:03:00Z</time>
      </trkpt>
      <trkpt lat="1.952528" lon="-76.749981">
        <ele>4018.435</ele>
        <time>2022-12-18T08:03:03Z</time>
      </trkpt>
      <trkpt lat="1.95257" lon="-76.749949">
        <ele>4020.989</ele>
        <time>2022-12-18T08:03:07Z</time>
      </trkpt>
      <trkpt lat="1.952594" lon="-76.749902">
        <ele>4022.876</ele>
        <time>2022-12-18T08:03:10Z</time>
      </trkpt>
      <trkpt lat="1.952627" lon="-76.749854">
        <ele>4025.634</ele>
        <time>2022-12-18T08:03:14Z</time>
      </trkpt>
      <trkpt lat="1.952665" lon="-76.749814">
        <ele>4026.559</ele>
        <time>2022-12-18T08:03:17Z</time>
      </trkpt>
      <trkpt lat="1.952696" lon="-76.749765">
        <ele>4027.870</ele>
        <time>2022-12-18T08:03:21Z</time>
      </trkpt>
      <trkpt lat="1.952723" lon="-76.749713">
        <ele>4028.937</ele>
        <time>2022-12-18T08:03:25Z</time>
      </trkpt>
      <trkpt lat="1.952743" lon="-76.749668">
        <ele>4029.211</ele>
        <time>2022-12-18T08:03:28Z</time>
      </trkpt>
      <trkpt lat="1.952766" lon="-76.749624">
        <ele>4029.421</ele>
        <time>2022-12-18T08:03:31Z</time>
      </trkpt>
      <trkpt lat="1.952795" lon="-76.749585">
        <ele>4029.603</ele>
        <time>2022-12-18T08:03:34Z</time>
      </trkpt>
      <trkpt lat="1.952823" lon="-76.749544">
        <ele>4030.209</ele>
        <time>2022-12-18T08:03:37Z</time>
      </trkpt>
      <trkpt lat="1.95286" lon="-76.7495">
        <ele>4031.772</ele>
        <time>2022-12-18T08:03:40Z</time>
      </trkpt>
      <trkpt lat="1.952895" lon="-76.749461">
        <ele>4031.893</ele>
        <time>2022-12-18T08:03:43Z</time>
      </trkpt>
      <trkpt lat="1.952928" lon="-76.749428">
        <ele>4031.882</ele>
        <time>2022-12-18T08:03:46Z</time>
      </trkpt>
      <trkpt lat="1.952963" lon="-76.749396">
        <ele>4031.896</ele>
        <time>2022-12-18T08:03:49Z</time>
      </trkpt>
      <trkpt lat="1.952997" lon="-76.749358">
        <ele>4031.613</ele>
        <time>2022-12-18T08:03:52Z</time>
      </trkpt>
      <trkpt lat="1.953021" lon="-76.749317">
        <ele>4030.991</ele>
        <time>2022-12-18T08:03:55Z</time>
      </trkpt>
      <trkpt lat="1.953039" lon="-76.74927">
        <ele>4030.886</ele>
        <time>2022-12-18T08:03:58Z</time>
      </trkpt>
      <trkpt lat="1.953055" lon="-76.749223">
        <ele>4030.897</ele>
        <time>2022-12-18T08:04:01Z</time>
      </trkpt>
      <trkpt lat="1.95307" lon="-76.74918">
        <ele>4030.914</ele>
        <time>2022-12-18T08:04:04Z</time>
      </trkpt>
      <trkpt lat="1.953106" lon="-76.749131">
        <ele>4031.063</ele>
        <time>2022-12-18T08:04:08Z</time>
      </trkpt>
      <trkpt lat="1.953128" lon="-76.749082">
        <ele>4031.844</ele>
        <time>2022-12-18T08:04:11Z</time>
      </trkpt>
      <trkpt lat="1.953158" lon="-76.749038">
        <ele>4032.418</ele>
        <time>2022-12-18T08:04:14Z</time>
      </trkpt>
      <trkpt lat="1.953192" lon="-76.748982">
        <ele>4032.509</ele>
        <time>2022-12-18T08:04:17Z</time>
      </trkpt>
      <trkpt lat="1.953228" lon="-76.748935">
        <ele>4032.787</ele>
        <time>2022-12-18T08:04:20Z</time>
      </trkpt>
      <trkpt lat="1.953266" lon="-76.748893">
        <ele>4033.158</ele>
        <time>2022-12-18T08:04:23Z</time>
      </trkpt>
      <trkpt lat="1.953311" lon="-76.748855">
        <ele>4033.857</ele>
        <time>2022-12-18T08:04:26Z</time>
      </trkpt>
      <trkpt lat="1.95335" lon="-76.748821">
        <ele>4036.331</ele>
        <time>2022-12-18T08:04:29Z</time>
      </trkpt>
      <trkpt lat="1.953387" lon="-76.748792">
        <ele>4036.628</ele>
        <time>2022-12-18T08:04:32Z</time>
      </trkpt>
      <trkpt lat="1.953432" lon="-76.748746">
        <ele>4037.056</ele>
        <time>2022-12-18T08:04:35Z</time>
      </trkpt>
      <trkpt lat="1.953477" lon="-76.748699">
        <ele>4037.051</ele>
        <time>2022-12-18T08:04:38Z</time>
      </trkpt>
      <trkpt lat="1.95351" lon="-76.748652">
        <ele>4037.172</ele>
        <time>2022-12-18T08:04:41Z</time>
      </trkpt>
      <trkpt lat="1.953544" lon="-76.748615">
        <ele>4037.529</ele>
        <time>2022-12-18T08:04:44Z</time>
      </trkpt>
      <trkpt lat="1.953611" lon="-76.74852">
        <ele>4038.369</ele>
        <time>2022-12-18T08:05:02Z</time>
      </trkpt>
      <trkpt lat="1.953655" lon="-76.748443">
        <ele>4038.804</ele>
        <time>2022-12-18T08:05:03Z</time>
      </trkpt>
      <trkpt lat="1.953681" lon="-76.748393">
        <ele>4039.024</ele>
        <time>2022-12-18T08:05:04Z</time>
      </trkpt>
      <trkpt lat="1.953711" lon="-76.748325">
        <ele>4045.709</ele>
        <time>2022-12-18T08:05:06Z</time>
      </trkpt>
      <trkpt lat="1.953728" lon="-76.748283">
        <ele>4046.057</ele>
        <time>2022-12-18T08:05:08Z</time>
      </trkpt>
      <trkpt lat="1.953752" lon="-76.748224">
        <ele>4045.668</ele>
        <time>2022-12-18T08:05:11Z</time>
      </trkpt>
      <trkpt lat="1.953756" lon="-76.748166">
        <ele>4045.417</ele>
        <time>2022-12-18T08:05:14Z</time>
      </trkpt>
      <trkpt lat="1.953761" lon="-76.748108">
        <ele>4044.621</ele>
        <time>2022-12-18T08:05:17Z</time>
      </trkpt>
      <trkpt lat="1.953766" lon="-76.748052">
        <ele>4044.128</ele>
        <time>2022-12-18T08:05:20Z</time>
      </trkpt>
      <trkpt lat="1.953769" lon="-76.747991">
        <ele>4043.676</ele>
        <time>2022-12-18T08:05:23Z</time>
      </trkpt>
      <trkpt lat="1.95378" lon="-76.747934">
        <ele>4043.331</ele>
        <time>2022-12-18T08:05:26Z</time>
      </trkpt>
      <trkpt lat="1.953796" lon="-76.747872">
        <ele>4043.272</ele>
        <time>2022-12-18T08:05:29Z</time>
      </trkpt>
      <trkpt lat="1.953811" lon="-76.747819">
        <ele>4043.149</ele>
        <time>2022-12-18T08:05:31Z</time>
      </trkpt>
      <trkpt lat="1.953832" lon="-76.747771">
        <ele>4043.469</ele>
        <time>2022-12-18T08:05:35Z</time>
      </trkpt>
      <trkpt lat="1.95386" lon="-76.747722">
        <ele>4043.804</ele>
        <time>2022-12-18T08:05:38Z</time>
      </trkpt>
      <trkpt lat="1.953885" lon="-76.747682">
        <ele>4045.824</ele>
        <time>2022-12-18T08:05:41Z</time>
      </trkpt>
      <trkpt lat="1.953924" lon="-76.747657">
        <ele>4046.709</ele>
        <time>2022-12-18T08:05:44Z</time>
      </trkpt>
      <trkpt lat="1.95397" lon="-76.747623">
        <ele>4047.457</ele>
        <time>2022-12-18T08:05:47Z</time>
      </trkpt>
      <trkpt lat="1.954008" lon="-76.747574">
        <ele>4049.738</ele>
        <time>2022-12-18T08:05:50Z</time>
      </trkpt>
      <trkpt lat="1.954055" lon="-76.747529">
        <ele>4050.187</ele>
        <time>2022-12-18T08:05:53Z</time>
      </trkpt>
      <trkpt lat="1.95409" lon="-76.747501">
        <ele>4050.881</ele>
        <time>2022-12-18T08:05:55Z</time>
      </trkpt>
      <trkpt lat="1.954144" lon="-76.747463">
        <ele>4052.078</ele>
        <time>2022-12-18T08:05:58Z</time>
      </trkpt>
      <trkpt lat="1.954183" lon="-76.747435">
        <ele>4052.186</ele>
        <time>2022-12-18T08:06:00Z</time>
      </trkpt>
      <trkpt lat="1.95423" lon="-76.74739">
        <ele>4053.321</ele>
        <time>2022-12-18T08:06:03Z</time>
      </trkpt>
      <trkpt lat="1.954269" lon="-76.747358">
        <ele>4054.782</ele>
        <time>2022-12-18T08:06:05Z</time>
      </trkpt>
      <trkpt lat="1.954307" lon="-76.74733">
        <ele>4055.499</ele>
        <time>2022-12-18T08:06:07Z</time>
      </trkpt>
      <trkpt lat="1.954346" lon="-76.747303">
        <ele>4055.939</ele>
        <time>2022-12-18T08:06:09Z</time>
      </trkpt>
      <trkpt lat="1.954387" lon="-76.747279">
        <ele>4056.201</ele>
        <time>2022-12-18T08:06:11Z</time>
      </trkpt>
      <trkpt lat="1.954436" lon="-76.747249">
        <ele>4056.221</ele>
        <time>2022-12-18T08:06:13Z</time>
      </trkpt>
      <trkpt lat="1.954489" lon="-76.747223">
        <ele>4056.009</ele>
        <time>2022-12-18T08:06:16Z</time>
      </trkpt>
      <trkpt lat="1.954529" lon="-76.747196">
        <ele>4054.224</ele>
        <time>2022-12-18T08:06:18Z</time>
      </trkpt>
      <trkpt lat="1.954588" lon="-76.747166">
        <ele>4054.055</ele>
        <time>2022-12-18T08:06:21Z</time>
      </trkpt>
      <trkpt lat="1.954646" lon="-76.747137">
        <ele>4053.984</ele>
        <time>2022-12-18T08:06:24Z</time>
      </trkpt>
      <trkpt lat="1.954703" lon="-76.747115">
        <ele>4053.988</ele>
        <time>2022-12-18T08:06:27Z</time>
      </trkpt>
      <trkpt lat="1.954745" lon="-76.747092">
        <ele>4054.095</ele>
        <time>2022-12-18T08:06:29Z</time>
      </trkpt>
      <trkpt lat="1.954788" lon="-76.747065">
        <ele>4054.093</ele>
        <time>2022-12-18T08:06:31Z</time>
      </trkpt>
      <trkpt lat="1.95483" lon="-76.747045">
        <ele>4055.058</ele>
        <time>2022-12-18T08:06:33Z</time>
      </trkpt>
      <trkpt lat="1.954872" lon="-76.747025">
        <ele>4055.139</ele>
        <time>2022-12-18T08:06:35Z</time>
      </trkpt>
      <trkpt lat="1.95492" lon="-76.747011">
        <ele>4055.036</ele>
        <time>2022-12-18T08:06:37Z</time>
      </trkpt>
      <trkpt lat="1.954979" lon="-76.747002">
        <ele>4054.749</ele>
        <time>2022-12-18T08:06:40Z</time>
      </trkpt>
      <trkpt lat="1.955032" lon="-76.746989">
        <ele>4054.802</ele>
        <time>2022-12-18T08:06:42Z</time>
      </trkpt>
      <trkpt lat="1.955093" lon="-76.746983">
        <ele>4055.022</ele>
        <time>2022-12-18T08:06:46Z</time>
      </trkpt>
      <trkpt lat="1.955146" lon="-76.746975">
        <ele>4055.109</ele>
        <time>2022-12-18T08:06:49Z</time>
      </trkpt>
      <trkpt lat="1.955192" lon="-76.746959">
        <ele>4055.595</ele>
        <time>2022-12-18T08:06:52Z</time>
      </trkpt>
      <trkpt lat="1.95524" lon="-76.746935">
        <ele>4055.936</ele>
        <time>2022-12-18T08:06:55Z</time>
      </trkpt>
      <trkpt lat="1.955288" lon="-76.746906">
        <ele>4056.265</ele>
        <time>2022-12-18T08:06:58Z</time>
      </trkpt>
      <trkpt lat="1.955337" lon="-76.746882">
        <ele>4057.049</ele>
        <time>2022-12-18T08:07:01Z</time>
      </trkpt>
      <trkpt lat="1.955388" lon="-76.746864">
        <ele>4057.976</ele>
        <time>2022-12-18T08:07:04Z</time>
      </trkpt>
      <trkpt lat="1.955441" lon="-76.746843">
        <ele>4058.184</ele>
        <time>2022-12-18T08:07:07Z</time>
      </trkpt>
      <trkpt lat="1.955497" lon="-76.746814">
        <ele>4058.729</ele>
        <time>2022-12-18T08:07:10Z</time>
      </trkpt>
      <trkpt lat="1.955541" lon="-76.74679">
        <ele>4058.730</ele>
        <time>2022-12-18T08:07:12Z</time>
      </trkpt>
      <trkpt lat="1.955593" lon="-76.74677">
        <ele>4058.817</ele>
        <time>2022-12-18T08:07:14Z</time>
      </trkpt>
      <trkpt lat="1.955648" lon="-76.746746">
        <ele>4059.169</ele>
        <time>2022-12-18T08:07:17Z</time>
      </trkpt>
      <trkpt lat="1.955695" lon="-76.746715">
        <ele>4059.604</ele>
        <time>2022-12-18T08:07:20Z</time>
      </trkpt>
      <trkpt lat="1.955744" lon="-76.746682">
        <ele>4059.824</ele>
        <time>2022-12-18T08:07:23Z</time>
      </trkpt>
      <trkpt lat="1.955791" lon="-76.74664">
        <ele>4059.809</ele>
        <time>2022-12-18T08:07:26Z</time>
      </trkpt>
      <trkpt lat="1.955825" lon="-76.746609">
        <ele>4059.677</ele>
        <time>2022-12-18T08:07:28Z</time>
      </trkpt>
      <trkpt lat="1.955853" lon="-76.746574">
        <ele>4059.168</ele>
        <time>2022-12-18T08:07:30Z</time>
      </trkpt>
      <trkpt lat="1.955875" lon="-76.746528">
        <ele>4059.127</ele>
        <time>2022-12-18T08:07:32Z</time>
      </trkpt>
      <trkpt lat="1.95589" lon="-76.746469">
        <ele>4059.171</ele>
        <time>2022-12-18T08:07:34Z</time>
      </trkpt>
      <trkpt lat="1.955906" lon="-76.74641">
        <ele>4059.058</ele>
        <time>2022-12-18T08:07:36Z</time>
      </trkpt>
      <trkpt lat="1.955924" lon="-76.746343">
        <ele>4059.096</ele>
        <time>2022-12-18T08:07:39Z</time>
      </trkpt>
      <trkpt lat="1.955936" lon="-76.746299">
        <ele>4059.061</ele>
        <time>2022-12-18T08:07:41Z</time>
      </trkpt>
      <trkpt lat="1.955942" lon="-76.746254">
        <ele>4059.022</ele>
        <time>2022-12-18T08:07:43Z</time>
      </trkpt>
      <trkpt lat="1.955941" lon="-76.746194">
        <ele>4058.899</ele>
        <time>2022-12-18T08:07:45Z</time>
      </trkpt>
      <trkpt lat="1.955941" lon="-76.746132">
        <ele>4059.153</ele>
        <time>2022-12-18T08:07:48Z</time>
      </trkpt>
      <trkpt lat="1.955945" lon="-76.746073">
        <ele>4059.604</ele>
        <time>2022-12-18T08:07:51Z</time>
      </trkpt>
      <trkpt lat="1.955937" lon="-76.746015">
        <ele>4060.714</ele>
        <time>2022-12-18T08:07:54Z</time>
      </trkpt>
      <trkpt lat="1.955943" lon="-76.745952">
        <ele>4060.909</ele>
        <time>2022-12-18T08:07:57Z</time>
      </trkpt>
      <trkpt lat="1.955946" lon="-76.745907">
        <ele>4061.466</ele>
        <time>2022-12-18T08:07:59Z</time>
      </trkpt>
      <trkpt lat="1.955943" lon="-76.745859">
        <ele>4061.697</ele>
        <time>2022-12-18T08:08:01Z</time>
      </trkpt>
      <trkpt lat="1.955939" lon="-76.7458">
        <ele>4062.246</ele>
        <time>2022-12-18T08:08:04Z</time>
      </trkpt>
      <trkpt lat="1.955934" lon="-76.745742">
        <ele>4062.910</ele>
        <time>2022-12-18T08:08:07Z</time>
      </trkpt>
      <trkpt lat="1.955932" lon="-76.745681">
        <ele>4062.927</ele>
        <time>2022-12-18T08:08:10Z</time>
      </trkpt>
      <trkpt lat="1.955931" lon="-76.745628">
        <ele>4063.045</ele>
        <time>2022-12-18T08:08:13Z</time>
      </trkpt>
      <trkpt lat="1.955929" lon="-76.745577">
        <ele>4063.340</ele>
        <time>2022-12-18T08:08:15Z</time>
      </trkpt>
      <trkpt lat="1.955926" lon="-76.745528">
        <ele>4063.791</ele>
        <time>2022-12-18T08:08:18Z</time>
      </trkpt>
      <trkpt lat="1.955925" lon="-76.745463">
        <ele>4064.928</ele>
        <time>2022-12-18T08:08:21Z</time>
      </trkpt>
      <trkpt lat="1.955919" lon="-76.745411">
        <ele>4065.912</ele>
        <time>2022-12-18T08:08:24Z</time>
      </trkpt>
      <trkpt lat="1.955915" lon="-76.745359">
        <ele>4066.132</ele>
        <time>2022-12-18T08:08:28Z</time>
      </trkpt>
      <trkpt lat="1.955905" lon="-76.745305">
        <ele>4066.305</ele>
        <time>2022-12-18T08:08:31Z</time>
      </trkpt>
      <trkpt lat="1.95591" lon="-76.745245">
        <ele>4066.809</ele>
        <time>2022-12-18T08:08:35Z</time>
      </trkpt>
      <trkpt lat="1.955903" lon="-76.745191">
        <ele>4067.242</ele>
        <time>2022-12-18T08:08:38Z</time>
      </trkpt>
      <trkpt lat="1.955895" lon="-76.745131">
        <ele>4067.373</ele>
        <time>2022-12-18T08:08:41Z</time>
      </trkpt>
      <trkpt lat="1.955884" lon="-76.74508">
        <ele>4067.662</ele>
        <time>2022-12-18T08:08:44Z</time>
      </trkpt>
      <trkpt lat="1.955857" lon="-76.745027">
        <ele>4067.986</ele>
        <time>2022-12-18T08:08:46Z</time>
      </trkpt>
      <trkpt lat="1.95582" lon="-76.744953">
        <ele>4068.263</ele>
        <time>2022-12-18T08:08:48Z</time>
      </trkpt>
      <trkpt lat="1.955782" lon="-76.744887">
        <ele>4068.281</ele>
        <time>2022-12-18T08:08:50Z</time>
      </trkpt>
      <trkpt lat="1.955749" lon="-76.744849">
        <ele>4068.336</ele>
        <time>2022-12-18T08:08:52Z</time>
      </trkpt>
      <trkpt lat="1.95569" lon="-76.744791">
        <ele>4068.397</ele>
        <time>2022-12-18T08:08:54Z</time>
      </trkpt>
      <trkpt lat="1.95564" lon="-76.744752">
        <ele>4067.914</ele>
        <time>2022-12-18T08:08:56Z</time>
      </trkpt>
      <trkpt lat="1.955576" lon="-76.744727">
        <ele>4067.532</ele>
        <time>2022-12-18T08:08:58Z</time>
      </trkpt>
      <trkpt lat="1.95553" lon="-76.744711">
        <ele>4066.292</ele>
        <time>2022-12-18T08:09:00Z</time>
      </trkpt>
      <trkpt lat="1.955476" lon="-76.744682">
        <ele>4065.211</ele>
        <time>2022-12-18T08:09:03Z</time>
      </trkpt>
      <trkpt lat="1.955431" lon="-76.744657">
        <ele>4063.909</ele>
        <time>2022-12-18T08:09:05Z</time>
      </trkpt>
      <trkpt lat="1.955384" lon="-76.744637">
        <ele>4062.124</ele>
        <time>2022-12-18T08:09:07Z</time>
      </trkpt>
      <trkpt lat="1.955337" lon="-76.744613">
        <ele>4061.215</ele>
        <time>2022-12-18T08:09:09Z</time>
      </trkpt>
      <trkpt lat="1.955293" lon="-76.744572">
        <ele>4060.714</ele>
        <time>2022-12-18T08:09:13Z</time>
      </trkpt>
      <trkpt lat="1.955245" lon="-76.744538">
        <ele>4059.578</ele>
        <time>2022-12-18T08:09:16Z</time>
      </trkpt>
      <trkpt lat="1.955206" lon="-76.744503">
        <ele>4058.635</ele>
        <time>2022-12-18T08:09:19Z</time>
      </trkpt>
      <trkpt lat="1.955175" lon="-76.74446">
        <ele>4058.443</ele>
        <time>2022-12-18T08:09:22Z</time>
      </trkpt>
      <trkpt lat="1.955138" lon="-76.744421">
        <ele>4058.058</ele>
        <time>2022-12-18T08:09:25Z</time>
      </trkpt>
      <trkpt lat="1.955089" lon="-76.744394">
        <ele>4057.549</ele>
        <time>2022-12-18T08:09:28Z</time>
      </trkpt>
      <trkpt lat="1.955044" lon="-76.744356">
        <ele>4056.876</ele>
        <time>2022-12-18T08:09:31Z</time>
      </trkpt>
      <trkpt lat="1.955009" lon="-76.74427">
        <ele>4055.829</ele>
        <time>2022-12-18T08:09:38Z</time>
      </trkpt>
      <trkpt lat="1.955053" lon="-76.744255">
        <ele>4040.400</ele>
        <time>2022-12-18T08:09:41Z</time>
      </trkpt>
      <trkpt lat="1.955092" lon="-76.744213">
        <ele>4028.720</ele>
        <time>2022-12-18T08:09:44Z</time>
      </trkpt>
      <trkpt lat="1.955104" lon="-76.744167">
        <ele>4030.609</ele>
        <time>2022-12-18T08:09:48Z</time>
      </trkpt>
      <trkpt lat="1.955053" lon="-76.744141">
        <ele>4043.913</ele>
        <time>2022-12-18T08:09:51Z</time>
      </trkpt>
      <trkpt lat="1.955009" lon="-76.744117">
        <ele>4056.224</ele>
        <time>2022-12-18T08:09:55Z</time>
      </trkpt>
      <trkpt lat="1.954948" lon="-76.74412">
        <ele>4065.583</ele>
        <time>2022-12-18T08:10:04Z</time>
      </trkpt>
      <trkpt lat="1.954898" lon="-76.744152">
        <ele>4067.517</ele>
        <time>2022-12-18T08:10:08Z</time>
      </trkpt>
      <trkpt lat="1.954816" lon="-76.744206">
        <ele>4069.554</ele>
        <time>2022-12-18T08:10:17Z</time>
      </trkpt>
      <trkpt lat="1.954763" lon="-76.744197">
        <ele>4074.752</ele>
        <time>2022-12-18T08:10:20Z</time>
      </trkpt>
      <trkpt lat="1.954713" lon="-76.744205">
        <ele>4077.457</ele>
        <time>2022-12-18T08:10:22Z</time>
      </trkpt>
      <trkpt lat="1.954666" lon="-76.744203">
        <ele>4079.938</ele>
        <time>2022-12-18T08:10:48Z</time>
      </trkpt>
      <trkpt lat="1.95429" lon="-76.744159">
        <ele>4080.745</ele>
        <time>2022-12-18T08:10:50Z</time>
      </trkpt>
      <trkpt lat="1.954218" lon="-76.744149">
        <ele>4083.874</ele>
        <time>2022-12-18T08:10:51Z</time>
      </trkpt>
      <trkpt lat="1.954132" lon="-76.744136">
        <ele>4083.756</ele>
        <time>2022-12-18T08:10:53Z</time>
      </trkpt>
      <trkpt lat="1.95407" lon="-76.74413">
        <ele>4083.721</ele>
        <time>2022-12-18T08:10:55Z</time>
      </trkpt>
      <trkpt lat="1.954024" lon="-76.744124">
        <ele>4083.609</ele>
        <time>2022-12-18T08:10:57Z</time>
      </trkpt>
      <trkpt lat="1.953966" lon="-76.744104">
        <ele>4084.778</ele>
        <time>2022-12-18T08:11:01Z</time>
      </trkpt>
      <trkpt lat="1.953923" lon="-76.744085">
        <ele>4085.039</ele>
        <time>2022-12-18T08:11:04Z</time>
      </trkpt>
      <trkpt lat="1.953879" lon="-76.744052">
        <ele>4085.178</ele>
        <time>2022-12-18T08:11:07Z</time>
      </trkpt>
      <trkpt lat="1.953841" lon="-76.744017">
        <ele>4085.512</ele>
        <time>2022-12-18T08:11:11Z</time>
      </trkpt>
      <trkpt lat="1.953805" lon="-76.743987">
        <ele>4085.639</ele>
        <time>2022-12-18T08:11:15Z</time>
      </trkpt>
      <trkpt lat="1.953759" lon="-76.743967">
        <ele>4086.167</ele>
        <time>2022-12-18T08:11:20Z</time>
      </trkpt>
      <trkpt lat="1.953706" lon="-76.743946">
        <ele>4086.442</ele>
        <time>2022-12-18T08:11:24Z</time>
      </trkpt>
      <trkpt lat="1.953667" lon="-76.743913">
        <ele>4086.563</ele>
        <time>2022-12-18T08:11:28Z</time>
      </trkpt>
      <trkpt lat="1.953622" lon="-76.743889">
        <ele>4086.820</ele>
        <time>2022-12-18T08:11:32Z</time>
      </trkpt>
      <trkpt lat="1.953589" lon="-76.743858">
        <ele>4087.011</ele>
        <time>2022-12-18T08:11:35Z</time>
      </trkpt>
      <trkpt lat="1.953537" lon="-76.743849">
        <ele>4087.921</ele>
        <time>2022-12-18T08:11:39Z</time>
      </trkpt>
      <trkpt lat="1.95349" lon="-76.743837">
        <ele>4088.203</ele>
        <time>2022-12-18T08:11:42Z</time>
      </trkpt>
      <trkpt lat="1.953441" lon="-76.743821">
        <ele>4089.409</ele>
        <time>2022-12-18T08:11:45Z</time>
      </trkpt>
      <trkpt lat="1.953391" lon="-76.743813">
        <ele>4089.882</ele>
        <time>2022-12-18T08:11:48Z</time>
      </trkpt>
      <trkpt lat="1.95332" lon="-76.74381">
        <ele>4090.093</ele>
        <time>2022-12-18T08:11:50Z</time>
      </trkpt>
      <trkpt lat="1.953236" lon="-76.743801">
        <ele>4090.082</ele>
        <time>2022-12-18T08:11:52Z</time>
      </trkpt>
      <trkpt lat="1.953165" lon="-76.743786">
        <ele>4089.426</ele>
        <time>2022-12-18T08:11:54Z</time>
      </trkpt>
      <trkpt lat="1.953102" lon="-76.743774">
        <ele>4086.443</ele>
        <time>2022-12-18T08:11:56Z</time>
      </trkpt>
      <trkpt lat="1.953059" lon="-76.743757">
        <ele>4085.361</ele>
        <time>2022-12-18T08:11:58Z</time>
      </trkpt>
      <trkpt lat="1.953004" lon="-76.74373">
        <ele>4083.346</ele>
        <time>2022-12-18T08:12:00Z</time>
      </trkpt>
      <trkpt lat="1.952953" lon="-76.743713">
        <ele>4082.457</ele>
        <time>2022-12-18T08:12:02Z</time>
      </trkpt>
      <trkpt lat="1.952899" lon="-76.743693">
        <ele>4082.324</ele>
        <time>2022-12-18T08:12:05Z</time>
      </trkpt>
      <trkpt lat="1.952864" lon="-76.743665">
        <ele>4080.897</ele>
        <time>2022-12-18T08:12:08Z</time>
      </trkpt>
      <trkpt lat="1.952814" lon="-76.74362">
        <ele>4080.723</ele>
        <time>2022-12-18T08:12:12Z</time>
      </trkpt>
      <trkpt lat="1.952775" lon="-76.743592">
        <ele>4080.025</ele>
        <time>2022-12-18T08:12:14Z</time>
      </trkpt>
      <trkpt lat="1.952737" lon="-76.743552">
        <ele>4078.109</ele>
        <time>2022-12-18T08:12:17Z</time>
      </trkpt>
      <trkpt lat="1.952708" lon="-76.743509">
        <ele>4074.290</ele>
        <time>2022-12-18T08:12:21Z</time>
      </trkpt>
      <trkpt lat="1.952698" lon="-76.743465">
        <ele>4074.361</ele>
        <time>2022-12-18T08:12:24Z</time>
      </trkpt>
      <trkpt lat="1.952672" lon="-76.743429">
        <ele>4074.320</ele>
        <time>2022-12-18T08:12:27Z</time>
      </trkpt>
      <trkpt lat="1.952624" lon="-76.743397">
        <ele>4076.044</ele>
        <time>2022-12-18T08:12:31Z</time>
      </trkpt>
      <trkpt lat="1.952576" lon="-76.74338">
        <ele>4076.691</ele>
        <time>2022-12-18T08:12:34Z</time>
      </trkpt>
      <trkpt lat="1.952523" lon="-76.743371">
        <ele>4077.989</ele>
        <time>2022-12-18T08:12:37Z</time>
      </trkpt>
      <trkpt lat="1.952475" lon="-76.743357">
        <ele>4078.414</ele>
        <time>2022-12-18T08:12:41Z</time>
      </trkpt>
      <trkpt lat="1.952441" lon="-76.743326">
        <ele>4079.445</ele>
        <time>2022-12-18T08:12:45Z</time>
      </trkpt>
      <trkpt lat="1.95241" lon="-76.743292">
        <ele>4084.362</ele>
        <time>2022-12-18T08:12:48Z</time>
      </trkpt>
      <trkpt lat="1.952373" lon="-76.743249">
        <ele>4089.334</ele>
        <time>2022-12-18T08:12:52Z</time>
      </trkpt>
      <trkpt lat="1.952351" lon="-76.743206">
        <ele>4089.755</ele>
        <time>2022-12-18T08:12:55Z</time>
      </trkpt>
      <trkpt lat="1.952333" lon="-76.743156">
        <ele>4089.810</ele>
        <time>2022-12-18T08:12:58Z</time>
      </trkpt>
      <trkpt lat="1.952323" lon="-76.743106">
        <ele>4090.309</ele>
        <time>2022-12-18T08:13:01Z</time>
      </trkpt>
      <trkpt lat="1.952318" lon="-76.743051">
        <ele>4090.594</ele>
        <time>2022-12-18T08:13:04Z</time>
      </trkpt>
      <trkpt lat="1.952317" lon="-76.742999">
        <ele>4090.785</ele>
        <time>2022-12-18T08:13:07Z</time>
      </trkpt>
      <trkpt lat="1.952331" lon="-76.742945">
        <ele>4090.974</ele>
        <time>2022-12-18T08:13:10Z</time>
      </trkpt>
      <trkpt lat="1.952319" lon="-76.742893">
        <ele>4091.728</ele>
        <time>2022-12-18T08:13:13Z</time>
      </trkpt>
      <trkpt lat="1.952304" lon="-76.74284">
        <ele>4092.595</ele>
        <time>2022-12-18T08:13:16Z</time>
      </trkpt>
      <trkpt lat="1.952297" lon="-76.742786">
        <ele>4093.523</ele>
        <time>2022-12-18T08:13:19Z</time>
      </trkpt>
      <trkpt lat="1.952307" lon="-76.742735">
        <ele>4094.438</ele>
        <time>2022-12-18T08:13:22Z</time>
      </trkpt>
      <trkpt lat="1.952308" lon="-76.74269">
        <ele>4095.379</ele>
        <time>2022-12-18T08:13:25Z</time>
      </trkpt>
      <trkpt lat="1.9523" lon="-76.742638">
        <ele>4095.926</ele>
        <time>2022-12-18T08:13:28Z</time>
      </trkpt>
      <trkpt lat="1.952276" lon="-76.74258">
        <ele>4097.277</ele>
        <time>2022-12-18T08:13:31Z</time>
      </trkpt>
      <trkpt lat="1.952255" lon="-76.742514">
        <ele>4097.761</ele>
        <time>2022-12-18T08:13:34Z</time>
      </trkpt>
      <trkpt lat="1.952241" lon="-76.742469">
        <ele>4098.027</ele>
        <time>2022-12-18T08:13:36Z</time>
      </trkpt>
      <trkpt lat="1.952226" lon="-76.74241">
        <ele>4098.809</ele>
        <time>2022-12-18T08:13:39Z</time>
      </trkpt>
      <trkpt lat="1.952215" lon="-76.742356">
        <ele>4099.238</ele>
        <time>2022-12-18T08:13:42Z</time>
      </trkpt>
      <trkpt lat="1.95219" lon="-76.742311">
        <ele>4100.519</ele>
        <time>2022-12-18T08:13:45Z</time>
      </trkpt>
      <trkpt lat="1.952163" lon="-76.742272">
        <ele>4102.828</ele>
        <time>2022-12-18T08:13:48Z</time>
      </trkpt>
      <trkpt lat="1.952129" lon="-76.742227">
        <ele>4105.842</ele>
        <time>2022-12-18T08:13:51Z</time>
      </trkpt>
      <trkpt lat="1.9521" lon="-76.742186">
        <ele>4106.739</ele>
        <time>2022-12-18T08:13:54Z</time>
      </trkpt>
      <trkpt lat="1.952057" lon="-76.742143">
        <ele>4107.047</ele>
        <time>2022-12-18T08:13:57Z</time>
      </trkpt>
      <trkpt lat="1.952021" lon="-76.742112">
        <ele>4107.012</ele>
        <time>2022-12-18T08:13:59Z</time>
      </trkpt>
      <trkpt lat="1.951987" lon="-76.742079">
        <ele>4107.123</ele>
        <time>2022-12-18T08:14:02Z</time>
      </trkpt>
      <trkpt lat="1.951945" lon="-76.742045">
        <ele>4107.640</ele>
        <time>2022-12-18T08:14:05Z</time>
      </trkpt>
      <trkpt lat="1.951896" lon="-76.742016">
        <ele>4107.512</ele>
        <time>2022-12-18T08:14:08Z</time>
      </trkpt>
      <trkpt lat="1.95184" lon="-76.741988">
        <ele>4107.232</ele>
        <time>2022-12-18T08:14:11Z</time>
      </trkpt>
      <trkpt lat="1.951766" lon="-76.741974">
        <ele>4107.505</ele>
        <time>2022-12-18T08:14:13Z</time>
      </trkpt>
      <trkpt lat="1.951705" lon="-76.741969">
        <ele>4108.609</ele>
        <time>2022-12-18T08:14:15Z</time>
      </trkpt>
      <trkpt lat="1.951658" lon="-76.741971">
        <ele>4109.792</ele>
        <time>2022-12-18T08:14:17Z</time>
      </trkpt>
      <trkpt lat="1.951597" lon="-76.741957">
        <ele>4110.953</ele>
        <time>2022-12-18T08:14:21Z</time>
      </trkpt>
      <trkpt lat="1.951541" lon="-76.741944">
        <ele>4111.752</ele>
        <time>2022-12-18T08:14:24Z</time>
      </trkpt>
      <trkpt lat="1.951498" lon="-76.741928">
        <ele>4111.286</ele>
        <time>2022-12-18T08:14:27Z</time>
      </trkpt>
      <trkpt lat="1.951452" lon="-76.741892">
        <ele>4111.273</ele>
        <time>2022-12-18T08:14:30Z</time>
      </trkpt>
      <trkpt lat="1.951417" lon="-76.74185">
        <ele>4111.431</ele>
        <time>2022-12-18T08:14:33Z</time>
      </trkpt>
      <trkpt lat="1.951358" lon="-76.741821">
        <ele>4111.246</ele>
        <time>2022-12-18T08:14:36Z</time>
      </trkpt>
      <trkpt lat="1.951309" lon="-76.741784">
        <ele>4111.297</ele>
        <time>2022-12-18T08:14:39Z</time>
      </trkpt>
      <trkpt lat="1.95127" lon="-76.741745">
        <ele>4112.094</ele>
        <time>2022-12-18T08:14:42Z</time>
      </trkpt>
      <trkpt lat="1.951229" lon="-76.7417">
        <ele>4113.399</ele>
        <time>2022-12-18T08:14:45Z</time>
      </trkpt>
      <trkpt lat="1.951195" lon="-76.741649">
        <ele>4114.107</ele>
        <time>2022-12-18T08:14:48Z</time>
      </trkpt>
      <trkpt lat="1.951187" lon="-76.741604">
        <ele>4114.027</ele>
        <time>2022-12-18T08:14:51Z</time>
      </trkpt>
      <trkpt lat="1.951145" lon="-76.741579">
        <ele>4113.809</ele>
        <time>2022-12-18T08:14:54Z</time>
      </trkpt>
      <trkpt lat="1.951103" lon="-76.74155">
        <ele>4113.320</ele>
        <time>2022-12-18T08:14:56Z</time>
      </trkpt>
      <trkpt lat="1.951056" lon="-76.741515">
        <ele>4113.131</ele>
        <time>2022-12-18T08:14:59Z</time>
      </trkpt>
      <trkpt lat="1.95101" lon="-76.741492">
        <ele>4113.070</ele>
        <time>2022-12-18T08:15:02Z</time>
      </trkpt>
      <trkpt lat="1.950974" lon="-76.74145">
        <ele>4112.944</ele>
        <time>2022-12-18T08:15:05Z</time>
      </trkpt>
      <trkpt lat="1.950955" lon="-76.741393">
        <ele>4112.891</ele>
        <time>2022-12-18T08:15:08Z</time>
      </trkpt>
      <trkpt lat="1.950937" lon="-76.74134">
        <ele>4112.549</ele>
        <time>2022-12-18T08:15:11Z</time>
      </trkpt>
      <trkpt lat="1.950897" lon="-76.74129">
        <ele>4112.374</ele>
        <time>2022-12-18T08:15:14Z</time>
      </trkpt>
      <trkpt lat="1.950869" lon="-76.741254">
        <ele>4112.325</ele>
        <time>2022-12-18T08:15:16Z</time>
      </trkpt>
      <trkpt lat="1.950824" lon="-76.741217">
        <ele>4112.362</ele>
        <time>2022-12-18T08:15:19Z</time>
      </trkpt>
      <trkpt lat="1.950789" lon="-76.741183">
        <ele>4110.658</ele>
        <time>2022-12-18T08:15:21Z</time>
      </trkpt>
      <trkpt lat="1.950737" lon="-76.741136">
        <ele>4109.452</ele>
        <time>2022-12-18T08:15:24Z</time>
      </trkpt>
      <trkpt lat="1.950695" lon="-76.7411">
        <ele>4108.817</ele>
        <time>2022-12-18T08:15:27Z</time>
      </trkpt>
      <trkpt lat="1.950667" lon="-76.741054">
        <ele>4108.509</ele>
        <time>2022-12-18T08:15:30Z</time>
      </trkpt>
      <trkpt lat="1.950625" lon="-76.741017">
        <ele>4108.596</ele>
        <time>2022-12-18T08:15:34Z</time>
      </trkpt>
      <trkpt lat="1.950566" lon="-76.741019">
        <ele>4108.627</ele>
        <time>2022-12-18T08:15:38Z</time>
      </trkpt>
      <trkpt lat="1.95052" lon="-76.74101">
        <ele>4109.546</ele>
        <time>2022-12-18T08:15:41Z</time>
      </trkpt>
      <trkpt lat="1.950471" lon="-76.740976">
        <ele>4109.810</ele>
        <time>2022-12-18T08:15:45Z</time>
      </trkpt>
      <trkpt lat="1.950432" lon="-76.740952">
        <ele>4111.587</ele>
        <time>2022-12-18T08:15:48Z</time>
      </trkpt>
      <trkpt lat="1.950385" lon="-76.740939">
        <ele>4113.235</ele>
        <time>2022-12-18T08:15:51Z</time>
      </trkpt>
      <trkpt lat="1.950341" lon="-76.740915">
        <ele>4115.290</ele>
        <time>2022-12-18T08:15:54Z</time>
      </trkpt>
      <trkpt lat="1.9503" lon="-76.740896">
        <ele>4115.771</ele>
        <time>2022-12-18T08:15:57Z</time>
      </trkpt>
      <trkpt lat="1.950253" lon="-76.740885">
        <ele>4116.568</ele>
        <time>2022-12-18T08:16:00Z</time>
      </trkpt>
      <trkpt lat="1.95021" lon="-76.740866">
        <ele>4117.021</ele>
        <time>2022-12-18T08:16:03Z</time>
      </trkpt>
      <trkpt lat="1.95015" lon="-76.740845">
        <ele>4120.141</ele>
        <time>2022-12-18T08:16:06Z</time>
      </trkpt>
      <trkpt lat="1.950106" lon="-76.740833">
        <ele>4120.305</ele>
        <time>2022-12-18T08:16:07Z</time>
      </trkpt>
      <trkpt lat="1.950047" lon="-76.740827">
        <ele>4120.409</ele>
        <time>2022-12-18T08:16:11Z</time>
      </trkpt>
      <trkpt lat="1.949999" lon="-76.740814">
        <ele>4119.863</ele>
        <time>2022-12-18T08:16:15Z</time>
      </trkpt>
      <trkpt lat="1.949978" lon="-76.740774">
        <ele>4119.294</ele>
        <time>2022-12-18T08:16:19Z</time>
      </trkpt>
      <trkpt lat="1.949977" lon="-76.740719">
        <ele>4117.763</ele>
        <time>2022-12-18T08:16:24Z</time>
      </trkpt>
      <trkpt lat="1.94999" lon="-76.740667">
        <ele>4116.447</ele>
        <time>2022-12-18T08:16:29Z</time>
      </trkpt>
      <trkpt lat="1.949999" lon="-76.740613">
        <ele>4116.274</ele>
        <time>2022-12-18T08:16:32Z</time>
      </trkpt>
      <trkpt lat="1.950022" lon="-76.740573">
        <ele>4116.572</ele>
        <time>2022-12-18T08:16:34Z</time>
      </trkpt>
      <trkpt lat="1.95007" lon="-76.740539">
        <ele>4116.017</ele>
        <time>2022-12-18T08:16:38Z</time>
      </trkpt>
      <trkpt lat="1.950127" lon="-76.740526">
        <ele>4118.688</ele>
        <time>2022-12-18T08:16:42Z</time>
      </trkpt>
      <trkpt lat="1.950173" lon="-76.740533">
        <ele>4118.945</ele>
        <time>2022-12-18T08:16:44Z</time>
      </trkpt>
      <trkpt lat="1.950226" lon="-76.740548">
        <ele>4119.384</ele>
        <time>2022-12-18T08:16:47Z</time>
      </trkpt>
      <trkpt lat="1.950271" lon="-76.740563">
        <ele>4121.507</ele>
        <time>2022-12-18T08:16:51Z</time>
      </trkpt>
      <trkpt lat="1.950321" lon="-76.740577">
        <ele>4122.417</ele>
        <time>2022-12-18T08:16:55Z</time>
      </trkpt>
      <trkpt lat="1.950368" lon="-76.740593">
        <ele>4123.009</ele>
        <time>2022-12-18T08:16:59Z</time>
      </trkpt>
      <trkpt lat="1.950417" lon="-76.740591">
        <ele>4123.199</ele>
        <time>2022-12-18T08:17:02Z</time>
      </trkpt>
      <trkpt lat="1.950475" lon="-76.740589">
        <ele>4123.190</ele>
        <time>2022-12-18T08:17:06Z</time>
      </trkpt>
      <trkpt lat="1.950535" lon="-76.740583">
        <ele>4123.639</ele>
        <time>2022-12-18T08:17:10Z</time>
      </trkpt>
      <trkpt lat="1.95058" lon="-76.74058">
        <ele>4124.213</ele>
        <time>2022-12-18T08:17:13Z</time>
      </trkpt>
      <trkpt lat="1.950641" lon="-76.740571">
        <ele>4124.690</ele>
        <time>2022-12-18T08:17:17Z</time>
      </trkpt>
      <trkpt lat="1.950686" lon="-76.740562">
        <ele>4125.898</ele>
        <time>2022-12-18T08:17:20Z</time>
      </trkpt>
      <trkpt lat="1.950737" lon="-76.740555">
        <ele>4127.993</ele>
        <time>2022-12-18T08:17:23Z</time>
      </trkpt>
      <trkpt lat="1.950788" lon="-76.740546">
        <ele>4128.554</ele>
        <time>2022-12-18T08:17:26Z</time>
      </trkpt>
      <trkpt lat="1.950838" lon="-76.740536">
        <ele>4128.861</ele>
        <time>2022-12-18T08:17:29Z</time>
      </trkpt>
      <trkpt lat="1.95089" lon="-76.740535">
        <ele>4129.966</ele>
        <time>2022-12-18T08:17:32Z</time>
      </trkpt>
      <trkpt lat="1.950942" lon="-76.74053">
        <ele>4130.129</ele>
        <time>2022-12-18T08:17:35Z</time>
      </trkpt>
      <trkpt lat="1.950991" lon="-76.74051">
        <ele>4130.621</ele>
        <time>2022-12-18T08:17:38Z</time>
      </trkpt>
      <trkpt lat="1.951036" lon="-76.740472">
        <ele>4135.309</ele>
        <time>2022-12-18T08:17:42Z</time>
      </trkpt>
      <trkpt lat="1.951069" lon="-76.740439">
        <ele>4135.687</ele>
        <time>2022-12-18T08:17:45Z</time>
      </trkpt>
      <trkpt lat="1.951113" lon="-76.74042">
        <ele>4136.188</ele>
        <time>2022-12-18T08:17:49Z</time>
      </trkpt>
      <trkpt lat="1.951152" lon="-76.740397">
        <ele>4138.087</ele>
        <time>2022-12-18T08:17:57Z</time>
      </trkpt>
      <trkpt lat="1.951189" lon="-76.740356">
        <ele>4138.511</ele>
        <time>2022-12-18T08:18:02Z</time>
      </trkpt>
      <trkpt lat="1.951233" lon="-76.74032">
        <ele>4138.888</ele>
        <time>2022-12-18T08:18:05Z</time>
      </trkpt>
      <trkpt lat="1.951276" lon="-76.740293">
        <ele>4139.416</ele>
        <time>2022-12-18T08:18:07Z</time>
      </trkpt>
      <trkpt lat="1.951326" lon="-76.740268">
        <ele>4139.731</ele>
        <time>2022-12-18T08:18:11Z</time>
      </trkpt>
      <trkpt lat="1.951368" lon="-76.740249">
        <ele>4141.142</ele>
        <time>2022-12-18T08:18:14Z</time>
      </trkpt>
      <trkpt lat="1.951415" lon="-76.740235">
        <ele>4142.559</ele>
        <time>2022-12-18T08:18:18Z</time>
      </trkpt>
      <trkpt lat="1.951467" lon="-76.740233">
        <ele>4142.553</ele>
        <time>2022-12-18T08:18:22Z</time>
      </trkpt>
      <trkpt lat="1.951521" lon="-76.740237">
        <ele>4143.204</ele>
        <time>2022-12-18T08:18:29Z</time>
      </trkpt>
      <trkpt lat="1.951577" lon="-76.740241">
        <ele>4144.114</ele>
        <time>2022-12-18T08:18:32Z</time>
      </trkpt>
      <trkpt lat="1.951621" lon="-76.740265">
        <ele>4144.809</ele>
        <time>2022-12-18T08:18:35Z</time>
      </trkpt>
      <trkpt lat="1.951668" lon="-76.740295">
        <ele>4145.536</ele>
        <time>2022-12-18T08:18:38Z</time>
      </trkpt>
      <trkpt lat="1.951717" lon="-76.740313">
        <ele>4145.787</ele>
        <time>2022-12-18T08:18:41Z</time>
      </trkpt>
      <trkpt lat="1.951763" lon="-76.740337">
        <ele>4148.296</ele>
        <time>2022-12-18T08:18:44Z</time>
      </trkpt>
      <trkpt lat="1.95181" lon="-76.740369">
        <ele>4149.410</ele>
        <time>2022-12-18T08:18:48Z</time>
      </trkpt>
      <trkpt lat="1.951855" lon="-76.740406">
        <ele>4150.237</ele>
        <time>2022-12-18T08:18:54Z</time>
      </trkpt>
      <trkpt lat="1.951904" lon="-76.740426">
        <ele>4150.835</ele>
        <time>2022-12-18T08:18:57Z</time>
      </trkpt>
      <trkpt lat="1.951953" lon="-76.740451">
        <ele>4150.870</ele>
        <time>2022-12-18T08:19:00Z</time>
      </trkpt>
      <trkpt lat="1.951991" lon="-76.740484">
        <ele>4151.241</ele>
        <time>2022-12-18T08:19:04Z</time>
      </trkpt>
      <trkpt lat="1.952016" lon="-76.740536">
        <ele>4151.428</ele>
        <time>2022-12-18T08:19:08Z</time>
      </trkpt>
      <trkpt lat="1.952071" lon="-76.740558">
        <ele>4151.293</ele>
        <time>2022-12-18T08:19:12Z</time>
      </trkpt>
      <trkpt lat="1.952133" lon="-76.740542">
        <ele>4150.865</ele>
        <time>2022-12-18T08:19:15Z</time>
      </trkpt>
      <trkpt lat="1.952196" lon="-76.740547">
        <ele>4150.321</ele>
        <time>2022-12-18T08:19:18Z</time>
      </trkpt>
      <trkpt lat="1.95239" lon="-76.740629">
        <ele>4148.809</ele>
        <time>2022-12-18T08:19:29Z</time>
      </trkpt>
      <trkpt lat="1.952429" lon="-76.740657">
        <ele>4150.830</ele>
        <time>2022-12-18T08:19:35Z</time>
      </trkpt>
      <trkpt lat="1.952478" lon="-76.740682">
        <ele>4150.871</ele>
        <time>2022-12-18T08:19:38Z</time>
      </trkpt>
      <trkpt lat="1.952513" lon="-76.740714">
        <ele>4150.890</ele>
        <time>2022-12-18T08:19:41Z</time>
      </trkpt>
      <trkpt lat="1.952558" lon="-76.74075">
        <ele>4150.814</ele>
        <time>2022-12-18T08:19:45Z</time>
      </trkpt>
      <trkpt lat="1.9526" lon="-76.74078">
        <ele>4150.911</ele>
        <time>2022-12-18T08:19:48Z</time>
      </trkpt>
      <trkpt lat="1.952643" lon="-76.740805">
        <ele>4151.089</ele>
        <time>2022-12-18T08:19:52Z</time>
      </trkpt>
      <trkpt lat="1.952698" lon="-76.740829">
        <ele>4151.344</ele>
        <time>2022-12-18T08:19:55Z</time>
      </trkpt>
      <trkpt lat="1.952752" lon="-76.740844">
        <ele>4151.775</ele>
        <time>2022-12-18T08:19:58Z</time>
      </trkpt>
      <trkpt lat="1.952801" lon="-76.740849">
        <ele>4152.192</ele>
        <time>2022-12-18T08:20:01Z</time>
      </trkpt>
      <trkpt lat="1.952855" lon="-76.740844">
        <ele>4152.238</ele>
        <time>2022-12-18T08:20:04Z</time>
      </trkpt>
      <trkpt lat="1.952905" lon="-76.740837">
        <ele>4152.270</ele>
        <time>2022-12-18T08:20:07Z</time>
      </trkpt>
      <trkpt lat="1.95296" lon="-76.740824">
        <ele>4152.417</ele>
        <time>2022-12-18T08:20:11Z</time>
      </trkpt>
      <trkpt lat="1.953009" lon="-76.740799">
        <ele>4153.009</ele>
        <time>2022-12-18T08:20:15Z</time>
      </trkpt>
      <trkpt lat="1.953057" lon="-76.740765">
        <ele>4154.154</ele>
        <time>2022-12-18T08:20:19Z</time>
      </trkpt>
      <trkpt lat="1.953088" lon="-76.740729">
        <ele>4154.185</ele>
        <time>2022-12-18T08:20:22Z</time>
      </trkpt>
      <trkpt lat="1.953118" lon="-76.740695">
        <ele>4154.194</ele>
        <time>2022-12-18T08:20:24Z</time>
      </trkpt>
      <trkpt lat="1.953163" lon="-76.740661">
        <ele>4145.978</ele>
        <time>2022-12-18T08:20:29Z</time>
      </trkpt>
      <trkpt lat="1.953184" lon="-76.740614">
        <ele>4145.995</ele>
        <time>2022-12-18T08:20:33Z</time>
      </trkpt>
      <trkpt lat="1.953224" lon="-76.740582">
        <ele>4148.653</ele>
        <time>2022-12-18T08:20:37Z</time>
      </trkpt>
      <trkpt lat="1.953246" lon="-76.740539">
        <ele>4148.868</ele>
        <time>2022-12-18T08:20:40Z</time>
      </trkpt>
      <trkpt lat="1.953266" lon="-76.740495">
        <ele>4150.859</ele>
        <time>2022-12-18T08:20:43Z</time>
      </trkpt>
      <trkpt lat="1.953295" lon="-76.74046">
        <ele>4151.936</ele>
        <time>2022-12-18T08:20:46Z</time>
      </trkpt>
      <trkpt lat="1.953324" lon="-76.740423">
        <ele>4153.187</ele>
        <time>2022-12-18T08:20:49Z</time>
      </trkpt>
      <trkpt lat="1.95335" lon="-76.740386">
        <ele>4153.942</ele>
        <time>2022-12-18T08:20:52Z</time>
      </trkpt>
      <trkpt lat="1.953385" lon="-76.740353">
        <ele>4154.026</ele>
        <time>2022-12-18T08:20:55Z</time>
      </trkpt>
      <trkpt lat="1.953434" lon="-76.74033">
        <ele>4154.509</ele>
        <time>2022-12-18T08:20:59Z</time>
      </trkpt>
      <trkpt lat="1.953469" lon="-76.740292">
        <ele>4154.869</ele>
        <time>2022-12-18T08:21:03Z</time>
      </trkpt>
      <trkpt lat="1.953492" lon="-76.740249">
        <ele>4154.810</ele>
        <time>2022-12-18T08:21:06Z</time>
      </trkpt>
      <trkpt lat="1.953526" lon="-76.74021">
        <ele>4145.259</ele>
        <time>2022-12-18T08:21:10Z</time>
      </trkpt>
      <trkpt lat="1.953565" lon="-76.74017">
        <ele>4145.293</ele>
        <time>2022-12-18T08:21:14Z</time>
      </trkpt>
      <trkpt lat="1.953603" lon="-76.740137">
        <ele>4145.260</ele>
        <time>2022-12-18T08:21:18Z</time>
      </trkpt>
      <trkpt lat="1.953639" lon="-76.740095">
        <ele>4151.398</ele>
        <time>2022-12-18T08:21:22Z</time>
      </trkpt>
      <trkpt lat="1.953673" lon="-76.740063">
        <ele>4154.453</ele>
        <time>2022-12-18T08:21:25Z</time>
      </trkpt>
      <trkpt lat="1.953703" lon="-76.740026">
        <ele>4156.314</ele>
        <time>2022-12-18T08:21:28Z</time>
      </trkpt>
      <trkpt lat="1.953733" lon="-76.739991">
        <ele>4157.961</ele>
        <time>2022-12-18T08:21:30Z</time>
      </trkpt>
      <trkpt lat="1.95377" lon="-76.739951">
        <ele>4159.059</ele>
        <time>2022-12-18T08:21:34Z</time>
      </trkpt>
      <trkpt lat="1.95381" lon="-76.739926">
        <ele>4159.103</ele>
        <time>2022-12-18T08:21:37Z</time>
      </trkpt>
      <trkpt lat="1.953851" lon="-76.739899">
        <ele>4159.923</ele>
        <time>2022-12-18T08:21:40Z</time>
      </trkpt>
      <trkpt lat="1.953898" lon="-76.739886">
        <ele>4161.809</ele>
        <time>2022-12-18T08:21:43Z</time>
      </trkpt>
      <trkpt lat="1.953949" lon="-76.739873">
        <ele>4163.356</ele>
        <time>2022-12-18T08:21:46Z</time>
      </trkpt>
      <trkpt lat="1.953994" lon="-76.739861">
        <ele>4165.177</ele>
        <time>2022-12-18T08:21:49Z</time>
      </trkpt>
      <trkpt lat="1.95404" lon="-76.739847">
        <ele>4165.156</ele>
        <time>2022-12-18T08:21:52Z</time>
      </trkpt>
      <trkpt lat="1.954163" lon="-76.739834">
        <ele>4165.110</ele>
        <time>2022-12-18T08:22:00Z</time>
      </trkpt>
      <trkpt lat="1.954215" lon="-76.739843">
        <ele>4159.127</ele>
        <time>2022-12-18T08:22:04Z</time>
      </trkpt>
      <trkpt lat="1.95428" lon="-76.739856">
        <ele>4159.995</ele>
        <time>2022-12-18T08:22:07Z</time>
      </trkpt>
      <trkpt lat="1.954393" lon="-76.739861">
        <ele>4162.540</ele>
        <time>2022-12-18T08:22:09Z</time>
      </trkpt>
      <trkpt lat="1.954453" lon="-76.739857">
        <ele>4162.661</ele>
        <time>2022-12-18T08:22:10Z</time>
      </trkpt>
      <trkpt lat="1.954509" lon="-76.739848">
        <ele>4162.828</ele>
        <time>2022-12-18T08:22:11Z</time>
      </trkpt>
      <trkpt lat="1.954613" lon="-76.739826">
        <ele>4162.823</ele>
        <time>2022-12-18T08:22:13Z</time>
      </trkpt>
      <trkpt lat="1.95471" lon="-76.739809">
        <ele>4159.983</ele>
        <time>2022-12-18T08:22:15Z</time>
      </trkpt>
      <trkpt lat="1.954795" lon="-76.739803">
        <ele>4159.111</ele>
        <time>2022-12-18T08:22:17Z</time>
      </trkpt>
      <trkpt lat="1.95485" lon="-76.739801">
        <ele>4158.009</ele>
        <time>2022-12-18T08:22:19Z</time>
      </trkpt>
      <trkpt lat="1.954921" lon="-76.739798">
        <ele>4154.533</ele>
        <time>2022-12-18T08:22:22Z</time>
      </trkpt>
      <trkpt lat="1.954969" lon="-76.739809">
        <ele>4149.494</ele>
        <time>2022-12-18T08:22:23Z</time>
      </trkpt>
      <trkpt lat="1.955084" lon="-76.739875">
        <ele>4145.113</ele>
        <time>2022-12-18T08:22:32Z</time>
      </trkpt>
      <trkpt lat="1.955016" lon="-76.739917">
        <ele>4118.327</ele>
        <time>2022-12-18T08:22:35Z</time>
      </trkpt>
      <trkpt lat="1.955011" lon="-76.739971">
        <ele>4136.434</ele>
        <time>2022-12-18T08:22:37Z</time>
      </trkpt>
      <trkpt lat="1.955011" lon="-76.74002">
        <ele>4148.822</ele>
        <time>2022-12-18T08:22:41Z</time>
      </trkpt>
      <trkpt lat="1.955022" lon="-76.740068">
        <ele>4151.667</ele>
        <time>2022-12-18T08:22:45Z</time>
      </trkpt>
      <trkpt lat="1.955048" lon="-76.740106">
        <ele>4152.898</ele>
        <time>2022-12-18T08:22:48Z</time>
      </trkpt>
      <trkpt lat="1.955086" lon="-76.740134">
        <ele>4155.985</ele>
        <time>2022-12-18T08:22:52Z</time>
      </trkpt>
      <trkpt lat="1.955128" lon="-76.740157">
        <ele>4156.512</ele>
        <time>2022-12-18T08:22:55Z</time>
      </trkpt>
      <trkpt lat="1.955175" lon="-76.740178">
        <ele>4156.832</ele>
        <time>2022-12-18T08:23:00Z</time>
      </trkpt>
      <trkpt lat="1.95523" lon="-76.740186">
        <ele>4156.805</ele>
        <time>2022-12-18T08:23:02Z</time>
      </trkpt>
      <trkpt lat="1.955292" lon="-76.740183">
        <ele>4157.709</ele>
        <time>2022-12-18T08:23:05Z</time>
      </trkpt>
      <trkpt lat="1.955332" lon="-76.740158">
        <ele>4152.142</ele>
        <time>2022-12-18T08:23:07Z</time>
      </trkpt>
      <trkpt lat="1.955387" lon="-76.740124">
        <ele>4150.613</ele>
        <time>2022-12-18T08:23:10Z</time>
      </trkpt>
      <trkpt lat="1.955432" lon="-76.740085">
        <ele>4155.782</ele>
        <time>2022-12-18T08:23:13Z</time>
      </trkpt>
      <trkpt lat="1.95547" lon="-76.740054">
        <ele>4159.476</ele>
        <time>2022-12-18T08:23:15Z</time>
      </trkpt>
      <trkpt lat="1.955497" lon="-76.740011">
        <ele>4162.073</ele>
        <time>2022-12-18T08:23:17Z</time>
      </trkpt>
      <trkpt lat="1.955505" lon="-76.739957">
        <ele>4162.591</ele>
        <time>2022-12-18T08:23:19Z</time>
      </trkpt>
      <trkpt lat="1.955496" lon="-76.739903">
        <ele>4163.186</ele>
        <time>2022-12-18T08:23:21Z</time>
      </trkpt>
      <trkpt lat="1.955509" lon="-76.739847">
        <ele>4162.827</ele>
        <time>2022-12-18T08:23:23Z</time>
      </trkpt>
      <trkpt lat="1.955542" lon="-76.739801">
        <ele>4162.724</ele>
        <time>2022-12-18T08:23:26Z</time>
      </trkpt>
      <trkpt lat="1.955568" lon="-76.739762">
        <ele>4164.444</ele>
        <time>2022-12-18T08:23:32Z</time>
      </trkpt>
      <trkpt lat="1.955554" lon="-76.739714">
        <ele>4168.005</ele>
        <time>2022-12-18T08:23:36Z</time>
      </trkpt>
      <trkpt lat="1.955534" lon="-76.739672">
        <ele>4169.615</ele>
        <time>2022-12-18T08:23:38Z</time>
      </trkpt>
      <trkpt lat="1.955516" lon="-76.739623">
        <ele>4169.809</ele>
        <time>2022-12-18T08:23:40Z</time>
      </trkpt>
      <trkpt lat="1.95549" lon="-76.73958">
        <ele>4170.995</ele>
        <time>2022-12-18T08:23:45Z</time>
      </trkpt>
      <trkpt lat="1.955445" lon="-76.739552">
        <ele>4171.086</ele>
        <time>2022-12-18T08:23:49Z</time>
      </trkpt>
      <trkpt lat="1.955386" lon="-76.739555">
        <ele>4173.985</ele>
        <time>2022-12-18T08:23:53Z</time>
      </trkpt>
      <trkpt lat="1.955342" lon="-76.739521">
        <ele>4174.559</ele>
        <time>2022-12-18T08:23:56Z</time>
      </trkpt>
      <trkpt lat="1.955302" lon="-76.739492">
        <ele>4177.146</ele>
        <time>2022-12-18T08:23:58Z</time>
      </trkpt>
      <trkpt lat="1.955247" lon="-76.739457">
        <ele>4178.674</ele>
        <time>2022-12-18T08:24:01Z</time>
      </trkpt>
      <trkpt lat="1.955199" lon="-76.73944">
        <ele>4179.039</ele>
        <time>2022-12-18T08:24:05Z</time>
      </trkpt>
      <trkpt lat="1.955155" lon="-76.739396">
        <ele>4179.190</ele>
        <time>2022-12-18T08:24:08Z</time>
      </trkpt>
      <trkpt lat="1.955113" lon="-76.739363">
        <ele>4178.877</ele>
        <time>2022-12-18T08:24:10Z</time>
      </trkpt>
      <trkpt lat="1.955094" lon="-76.739321">
        <ele>4179.035</ele>
        <time>2022-12-18T08:24:14Z</time>
      </trkpt>
      <trkpt lat="1.95509" lon="-76.73927">
        <ele>4179.386</ele>
        <time>2022-12-18T08:24:18Z</time>
      </trkpt>
      <trkpt lat="1.955115" lon="-76.739232">
        <ele>4179.914</ele>
        <time>2022-12-18T08:24:23Z</time>
      </trkpt>
      <trkpt lat="1.955143" lon="-76.739194">
        <ele>4180.509</ele>
        <time>2022-12-18T08:24:29Z</time>
      </trkpt>
      <trkpt lat="1.955162" lon="-76.739151">
        <ele>4181.164</ele>
        <time>2022-12-18T08:24:35Z</time>
      </trkpt>
      <trkpt lat="1.955167" lon="-76.739105">
        <ele>4181.375</ele>
        <time>2022-12-18T08:24:39Z</time>
      </trkpt>
      <trkpt lat="1.955167" lon="-76.739058">
        <ele>4181.164</ele>
        <time>2022-12-18T08:24:43Z</time>
      </trkpt>
      <trkpt lat="1.955176" lon="-76.739012">
        <ele>4180.878</ele>
        <time>2022-12-18T08:24:48Z</time>
      </trkpt>
      <trkpt lat="1.955182" lon="-76.738961">
        <ele>4176.415</ele>
        <time>2022-12-18T08:24:55Z</time>
      </trkpt>
      <trkpt lat="1.955208" lon="-76.738921">
        <ele>4176.653</ele>
        <time>2022-12-18T08:25:02Z</time>
      </trkpt>
      <trkpt lat="1.955236" lon="-76.738884">
        <ele>4176.818</ele>
        <time>2022-12-18T08:25:07Z</time>
      </trkpt>
      <trkpt lat="1.95525" lon="-76.738831">
        <ele>4179.149</ele>
        <time>2022-12-18T08:25:11Z</time>
      </trkpt>
      <trkpt lat="1.955261" lon="-76.738784">
        <ele>4182.496</ele>
        <time>2022-12-18T08:25:15Z</time>
      </trkpt>
      <trkpt lat="1.955267" lon="-76.738734">
        <ele>4184.898</ele>
        <time>2022-12-18T08:25:19Z</time>
      </trkpt>
      <trkpt lat="1.955263" lon="-76.738688">
        <ele>4185.215</ele>
        <time>2022-12-18T08:25:23Z</time>
      </trkpt>
      <trkpt lat="1.95527" lon="-76.738643">
        <ele>4185.426</ele>
        <time>2022-12-18T08:25:27Z</time>
      </trkpt>
      <trkpt lat="1.955285" lon="-76.738589">
        <ele>4185.609</ele>
        <time>2022-12-18T08:25:30Z</time>
      </trkpt>
      <trkpt lat="1.955294" lon="-76.738479">
        <ele>4185.420</ele>
        <time>2022-12-18T08:25:36Z</time>
      </trkpt>
      <trkpt lat="1.955313" lon="-76.738433">
        <ele>4184.451</ele>
        <time>2022-12-18T08:25:41Z</time>
      </trkpt>
      <trkpt lat="1.955318" lon="-76.738379">
        <ele>4188.240</ele>
        <time>2022-12-18T08:25:46Z</time>
      </trkpt>
      <trkpt lat="1.955304" lon="-76.738328">
        <ele>4189.094</ele>
        <time>2022-12-18T08:25:49Z</time>
      </trkpt>
      <trkpt lat="1.955271" lon="-76.738274">
        <ele>4189.061</ele>
        <time>2022-12-18T08:25:53Z</time>
      </trkpt>
      <trkpt lat="1.955247" lon="-76.738235">
        <ele>4189.229</ele>
        <time>2022-12-18T08:25:55Z</time>
      </trkpt>
      <trkpt lat="1.955216" lon="-76.738193">
        <ele>4189.594</ele>
        <time>2022-12-18T08:25:58Z</time>
      </trkpt>
      <trkpt lat="1.955168" lon="-76.738159">
        <ele>4191.145</ele>
        <time>2022-12-18T08:26:03Z</time>
      </trkpt>
      <trkpt lat="1.955133" lon="-76.738124">
        <ele>4191.642</ele>
        <time>2022-12-18T08:26:07Z</time>
      </trkpt>
      <trkpt lat="1.955104" lon="-76.738089">
        <ele>4192.372</ele>
        <time>2022-12-18T08:26:11Z</time>
      </trkpt>
      <trkpt lat="1.95508" lon="-76.738046">
        <ele>4193.313</ele>
        <time>2022-12-18T08:26:16Z</time>
      </trkpt>
      <trkpt lat="1.955062" lon="-76.738003">
        <ele>4193.714</ele>
        <time>2022-12-18T08:26:21Z</time>
      </trkpt>
      <trkpt lat="1.955059" lon="-76.737949">
        <ele>4194.009</ele>
        <time>2022-12-18T08:26:26Z</time>
      </trkpt>
      <trkpt lat="1.955073" lon="-76.737897">
        <ele>4194.058</ele>
        <time>2022-12-18T08:26:30Z</time>
      </trkpt>
      <trkpt lat="1.955102" lon="-76.737826">
        <ele>4193.969</ele>
        <time>2022-12-18T08:26:36Z</time>
      </trkpt>
      <trkpt lat="1.955152" lon="-76.737809">
        <ele>4194.028</ele>
        <time>2022-12-18T08:26:41Z</time>
      </trkpt>
      <trkpt lat="1.955205" lon="-76.737786">
        <ele>4194.862</ele>
        <time>2022-12-18T08:26:45Z</time>
      </trkpt>
      <trkpt lat="1.955256" lon="-76.737781">
        <ele>4195.679</ele>
        <time>2022-12-18T08:26:49Z</time>
      </trkpt>
      <trkpt lat="1.955333" lon="-76.737781">
        <ele>4196.367</ele>
        <time>2022-12-18T08:26:55Z</time>
      </trkpt>
      <trkpt lat="1.955393" lon="-76.737764">
        <ele>4197.132</ele>
        <time>2022-12-18T08:27:00Z</time>
      </trkpt>
      <trkpt lat="1.955431" lon="-76.737736">
        <ele>4197.133</ele>
        <time>2022-12-18T08:27:02Z</time>
      </trkpt>
      <trkpt lat="1.955474" lon="-76.737709">
        <ele>4197.160</ele>
        <time>2022-12-18T08:27:06Z</time>
      </trkpt>
      <trkpt lat="1.955512" lon="-76.737678">
        <ele>4194.753</ele>
        <time>2022-12-18T08:27:10Z</time>
      </trkpt>
      <trkpt lat="1.955548" lon="-76.737645">
        <ele>4194.604</ele>
        <time>2022-12-18T08:27:14Z</time>
      </trkpt>
      <trkpt lat="1.955587" lon="-76.73762">
        <ele>4194.714</ele>
        <time>2022-12-18T08:27:18Z</time>
      </trkpt>
      <trkpt lat="1.95565" lon="-76.737583">
        <ele>4195.009</ele>
        <time>2022-12-18T08:27:25Z</time>
      </trkpt>
      <trkpt lat="1.955678" lon="-76.737541">
        <ele>4196.166</ele>
        <time>2022-12-18T08:27:30Z</time>
      </trkpt>
      <trkpt lat="1.955696" lon="-76.737497">
        <ele>4196.897</ele>
        <time>2022-12-18T08:27:33Z</time>
      </trkpt>
      <trkpt lat="1.955704" lon="-76.737451">
        <ele>4200.156</ele>
        <time>2022-12-18T08:27:36Z</time>
      </trkpt>
      <trkpt lat="1.955705" lon="-76.737397">
        <ele>4201.080</ele>
        <time>2022-12-18T08:27:40Z</time>
      </trkpt>
      <trkpt lat="1.955682" lon="-76.737356">
        <ele>4202.467</ele>
        <time>2022-12-18T08:27:44Z</time>
      </trkpt>
      <trkpt lat="1.95566" lon="-76.737312">
        <ele>4203.615</ele>
        <time>2022-12-18T08:27:48Z</time>
      </trkpt>
      <trkpt lat="1.95562" lon="-76.737284">
        <ele>4205.250</ele>
        <time>2022-12-18T08:27:51Z</time>
      </trkpt>
      <trkpt lat="1.955583" lon="-76.737248">
        <ele>4206.551</ele>
        <time>2022-12-18T08:27:56Z</time>
      </trkpt>
      <trkpt lat="1.955545" lon="-76.737221">
        <ele>4206.658</ele>
        <time>2022-12-18T08:28:00Z</time>
      </trkpt>
      <trkpt lat="1.955514" lon="-76.737186">
        <ele>4207.134</ele>
        <time>2022-12-18T08:28:05Z</time>
      </trkpt>
      <trkpt lat="1.955473" lon="-76.737156">
        <ele>4208.055</ele>
        <time>2022-12-18T08:28:10Z</time>
      </trkpt>
      <trkpt lat="1.955428" lon="-76.737128">
        <ele>4208.810</ele>
        <time>2022-12-18T08:28:15Z</time>
      </trkpt>
      <trkpt lat="1.95538" lon="-76.737108">
        <ele>4209.709</ele>
        <time>2022-12-18T08:28:19Z</time>
      </trkpt>
      <trkpt lat="1.955308" lon="-76.737081">
        <ele>4209.894</ele>
        <time>2022-12-18T08:28:25Z</time>
      </trkpt>
      <trkpt lat="1.955262" lon="-76.737059">
        <ele>4210.255</ele>
        <time>2022-12-18T08:28:29Z</time>
      </trkpt>
      <trkpt lat="1.955206" lon="-76.737041">
        <ele>4210.274</ele>
        <time>2022-12-18T08:28:31Z</time>
      </trkpt>
      <trkpt lat="1.955158" lon="-76.737025">
        <ele>4210.058</ele>
        <time>2022-12-18T08:28:34Z</time>
      </trkpt>
      <trkpt lat="1.955108" lon="-76.737007">
        <ele>4210.085</ele>
        <time>2022-12-18T08:28:37Z</time>
      </trkpt>
      <trkpt lat="1.955061" lon="-76.736999">
        <ele>4210.543</ele>
        <time>2022-12-18T08:28:41Z</time>
      </trkpt>
      <trkpt lat="1.955011" lon="-76.736978">
        <ele>4210.558</ele>
        <time>2022-12-18T08:28:46Z</time>
      </trkpt>
      <trkpt lat="1.954972" lon="-76.73695">
        <ele>4211.459</ele>
        <time>2022-12-18T08:28:49Z</time>
      </trkpt>
      <trkpt lat="1.954923" lon="-76.736935">
        <ele>4211.426</ele>
        <time>2022-12-18T08:28:52Z</time>
      </trkpt>
      <trkpt lat="1.954878" lon="-76.736924">
        <ele>4211.475</ele>
        <time>2022-12-18T08:28:57Z</time>
      </trkpt>
      <trkpt lat="1.954827" lon="-76.73691">
        <ele>4211.428</ele>
        <time>2022-12-18T08:29:00Z</time>
      </trkpt>
      <trkpt lat="1.95478" lon="-76.736908">
        <ele>4210.720</ele>
        <time>2022-12-18T08:29:02Z</time>
      </trkpt>
      <trkpt lat="1.954721" lon="-76.736897">
        <ele>4210.209</ele>
        <time>2022-12-18T08:29:07Z</time>
      </trkpt>
      <trkpt lat="1.954671" lon="-76.736885">
        <ele>4210.228</ele>
        <time>2022-12-18T08:29:11Z</time>
      </trkpt>
      <trkpt lat="1.954621" lon="-76.736878">
        <ele>4210.289</ele>
        <time>2022-12-18T08:29:15Z</time>
      </trkpt>
      <trkpt lat="1.954571" lon="-76.736871">
        <ele>4210.738</ele>
        <time>2022-12-18T08:29:19Z</time>
      </trkpt>
      <trkpt lat="1.954524" lon="-76.736851">
        <ele>4211.512</ele>
        <time>2022-12-18T08:29:22Z</time>
      </trkpt>
      <trkpt lat="1.954481" lon="-76.736837">
        <ele>4213.759</ele>
        <time>2022-12-18T08:29:25Z</time>
      </trkpt>
      <trkpt lat="1.954423" lon="-76.736825">
        <ele>4215.227</ele>
        <time>2022-12-18T08:29:28Z</time>
      </trkpt>
      <trkpt lat="1.954372" lon="-76.73682">
        <ele>4215.832</ele>
        <time>2022-12-18T08:29:32Z</time>
      </trkpt>
      <trkpt lat="1.954322" lon="-76.736818">
        <ele>4216.253</ele>
        <time>2022-12-18T08:29:36Z</time>
      </trkpt>
      <trkpt lat="1.95428" lon="-76.736795">
        <ele>4216.560</ele>
        <time>2022-12-18T08:29:40Z</time>
      </trkpt>
      <trkpt lat="1.954247" lon="-76.736763">
        <ele>4216.739</ele>
        <time>2022-12-18T08:29:43Z</time>
      </trkpt>
      <trkpt lat="1.954205" lon="-76.736728">
        <ele>4217.001</ele>
        <time>2022-12-18T08:29:45Z</time>
      </trkpt>
      <trkpt lat="1.954166" lon="-76.736699">
        <ele>4217.321</ele>
        <time>2022-12-18T08:29:48Z</time>
      </trkpt>
      <trkpt lat="1.95412" lon="-76.736694">
        <ele>4217.509</ele>
        <time>2022-12-18T08:29:52Z</time>
      </trkpt>
      <trkpt lat="1.954083" lon="-76.736664">
        <ele>4218.534</ele>
        <time>2022-12-18T08:29:57Z</time>
      </trkpt>
      <trkpt lat="1.954037" lon="-76.736642">
        <ele>4218.975</ele>
        <time>2022-12-18T08:30:01Z</time>
      </trkpt>
      <trkpt lat="1.953987" lon="-76.736653">
        <ele>4219.664</ele>
        <time>2022-12-18T08:30:09Z</time>
      </trkpt>
      <trkpt lat="1.953939" lon="-76.736632">
        <ele>4222.018</ele>
        <time>2022-12-18T08:30:14Z</time>
      </trkpt>
      <trkpt lat="1.953896" lon="-76.736606">
        <ele>4222.365</ele>
        <time>2022-12-18T08:30:17Z</time>
      </trkpt>
      <trkpt lat="1.953844" lon="-76.736582">
        <ele>4223.793</ele>
        <time>2022-12-18T08:30:21Z</time>
      </trkpt>
      <trkpt lat="1.953796" lon="-76.73656">
        <ele>4224.048</ele>
        <time>2022-12-18T08:30:24Z</time>
      </trkpt>
      <trkpt lat="1.953751" lon="-76.736538">
        <ele>4223.419</ele>
        <time>2022-12-18T08:30:27Z</time>
      </trkpt>
      <trkpt lat="1.953703" lon="-76.73651">
        <ele>4224.926</ele>
        <time>2022-12-18T08:30:31Z</time>
      </trkpt>
      <trkpt lat="1.953671" lon="-76.736476">
        <ele>4225.581</ele>
        <time>2022-12-18T08:30:35Z</time>
      </trkpt>
      <trkpt lat="1.953668" lon="-76.736429">
        <ele>4230.061</ele>
        <time>2022-12-18T08:30:42Z</time>
      </trkpt>
      <trkpt lat="1.953679" lon="-76.736378">
        <ele>4230.917</ele>
        <time>2022-12-18T08:30:48Z</time>
      </trkpt>
      <trkpt lat="1.95372" lon="-76.73635">
        <ele>4231.409</ele>
        <time>2022-12-18T08:30:52Z</time>
      </trkpt>
      <trkpt lat="1.953758" lon="-76.73632">
        <ele>4231.519</ele>
        <time>2022-12-18T08:30:56Z</time>
      </trkpt>
      <trkpt lat="1.953807" lon="-76.73631">
        <ele>4231.440</ele>
        <time>2022-12-18T08:31:01Z</time>
      </trkpt>
      <trkpt lat="1.953857" lon="-76.7363">
        <ele>4231.379</ele>
        <time>2022-12-18T08:31:04Z</time>
      </trkpt>
      <trkpt lat="1.953902" lon="-76.736285">
        <ele>4231.853</ele>
        <time>2022-12-18T08:31:08Z</time>
      </trkpt>
      <trkpt lat="1.953948" lon="-76.736266">
        <ele>4232.090</ele>
        <time>2022-12-18T08:31:12Z</time>
      </trkpt>
      <trkpt lat="1.954001" lon="-76.736256">
        <ele>4232.548</ele>
        <time>2022-12-18T08:31:15Z</time>
      </trkpt>
      <trkpt lat="1.954046" lon="-76.736242">
        <ele>4232.683</ele>
        <time>2022-12-18T08:31:20Z</time>
      </trkpt>
      <trkpt lat="1.954085" lon="-76.736207">
        <ele>4233.024</ele>
        <time>2022-12-18T08:31:26Z</time>
      </trkpt>
      <trkpt lat="1.954129" lon="-76.736172">
        <ele>4233.071</ele>
        <time>2022-12-18T08:31:29Z</time>
      </trkpt>
      <trkpt lat="1.954169" lon="-76.736132">
        <ele>4232.878</ele>
        <time>2022-12-18T08:31:32Z</time>
      </trkpt>
      <trkpt lat="1.954196" lon="-76.736093">
        <ele>4232.833</ele>
        <time>2022-12-18T08:31:35Z</time>
      </trkpt>
      <trkpt lat="1.954229" lon="-76.73605">
        <ele>4232.826</ele>
        <time>2022-12-18T08:31:38Z</time>
      </trkpt>
      <trkpt lat="1.954266" lon="-76.736019">
        <ele>4232.809</ele>
        <time>2022-12-18T08:31:41Z</time>
      </trkpt>
      <trkpt lat="1.954307" lon="-76.735991">
        <ele>4233.538</ele>
        <time>2022-12-18T08:31:44Z</time>
      </trkpt>
      <trkpt lat="1.954346" lon="-76.735956">
        <ele>4234.189</ele>
        <time>2022-12-18T08:31:48Z</time>
      </trkpt>
      <trkpt lat="1.954385" lon="-76.735927">
        <ele>4234.448</ele>
        <time>2022-12-18T08:31:52Z</time>
      </trkpt>
      <trkpt lat="1.954427" lon="-76.735902">
        <ele>4234.852</ele>
        <time>2022-12-18T08:31:56Z</time>
      </trkpt>
      <trkpt lat="1.954472" lon="-76.735883">
        <ele>4235.779</ele>
        <time>2022-12-18T08:31:59Z</time>
      </trkpt>
      <trkpt lat="1.954517" lon="-76.735866">
        <ele>4236.347</ele>
        <time>2022-12-18T08:32:04Z</time>
      </trkpt>
      <trkpt lat="1.954562" lon="-76.735845">
        <ele>4237.112</ele>
        <time>2022-12-18T08:32:09Z</time>
      </trkpt>
      <trkpt lat="1.95461" lon="-76.735828">
        <ele>4237.773</ele>
        <time>2022-12-18T08:32:14Z</time>
      </trkpt>
      <trkpt lat="1.954651" lon="-76.735809">
        <ele>4237.870</ele>
        <time>2022-12-18T08:32:18Z</time>
      </trkpt>
      <trkpt lat="1.954692" lon="-76.735789">
        <ele>4238.166</ele>
        <time>2022-12-18T08:32:22Z</time>
      </trkpt>
      <trkpt lat="1.954745" lon="-76.735777">
        <ele>4238.429</ele>
        <time>2022-12-18T08:32:27Z</time>
      </trkpt>
      <trkpt lat="1.954789" lon="-76.735764">
        <ele>4238.521</ele>
        <time>2022-12-18T08:32:31Z</time>
      </trkpt>
      <trkpt lat="1.954843" lon="-76.735756">
        <ele>4238.709</ele>
        <time>2022-12-18T08:32:34Z</time>
      </trkpt>
      <trkpt lat="1.954899" lon="-76.735739">
        <ele>4239.097</ele>
        <time>2022-12-18T08:32:38Z</time>
      </trkpt>
      <trkpt lat="1.954947" lon="-76.735721">
        <ele>4239.128</ele>
        <time>2022-12-18T08:32:41Z</time>
      </trkpt>
      <trkpt lat="1.955007" lon="-76.735707">
        <ele>4240.837</ele>
        <time>2022-12-18T08:32:45Z</time>
      </trkpt>
      <trkpt lat="1.955047" lon="-76.735682">
        <ele>4242.891</ele>
        <time>2022-12-18T08:32:48Z</time>
      </trkpt>
      <trkpt lat="1.955092" lon="-76.735652">
        <ele>4243.498</ele>
        <time>2022-12-18T08:32:51Z</time>
      </trkpt>
      <trkpt lat="1.955132" lon="-76.735624">
        <ele>4243.916</ele>
        <time>2022-12-18T08:32:54Z</time>
      </trkpt>
      <trkpt lat="1.95517" lon="-76.735594">
        <ele>4244.421</ele>
        <time>2022-12-18T08:32:57Z</time>
      </trkpt>
      <trkpt lat="1.955216" lon="-76.735565">
        <ele>4244.452</ele>
        <time>2022-12-18T08:33:00Z</time>
      </trkpt>
      <trkpt lat="1.955254" lon="-76.735538">
        <ele>4244.599</ele>
        <time>2022-12-18T08:33:03Z</time>
      </trkpt>
      <trkpt lat="1.955291" lon="-76.735505">
        <ele>4244.578</ele>
        <time>2022-12-18T08:33:06Z</time>
      </trkpt>
      <trkpt lat="1.955329" lon="-76.735476">
        <ele>4244.533</ele>
        <time>2022-12-18T08:33:09Z</time>
      </trkpt>
      <trkpt lat="1.955366" lon="-76.735448">
        <ele>4244.726</ele>
        <time>2022-12-18T08:33:12Z</time>
      </trkpt>
      <trkpt lat="1.955408" lon="-76.735424">
        <ele>4246.409</ele>
        <time>2022-12-18T08:33:15Z</time>
      </trkpt>
      <trkpt lat="1.955469" lon="-76.735414">
        <ele>4247.148</ele>
        <time>2022-12-18T08:33:19Z</time>
      </trkpt>
      <trkpt lat="1.955519" lon="-76.735411">
        <ele>4249.279</ele>
        <time>2022-12-18T08:33:22Z</time>
      </trkpt>
      <trkpt lat="1.955578" lon="-76.735401">
        <ele>4250.978</ele>
        <time>2022-12-18T08:33:27Z</time>
      </trkpt>
      <trkpt lat="1.955615" lon="-76.735367">
        <ele>4250.942</ele>
        <time>2022-12-18T08:33:31Z</time>
      </trkpt>
      <trkpt lat="1.955648" lon="-76.73533">
        <ele>4250.729</ele>
        <time>2022-12-18T08:33:34Z</time>
      </trkpt>
      <trkpt lat="1.955691" lon="-76.735302">
        <ele>4247.817</ele>
        <time>2022-12-18T08:33:38Z</time>
      </trkpt>
      <trkpt lat="1.955735" lon="-76.735281">
        <ele>4247.632</ele>
        <time>2022-12-18T08:33:41Z</time>
      </trkpt>
      <trkpt lat="1.955781" lon="-76.735268">
        <ele>4247.223</ele>
        <time>2022-12-18T08:33:44Z</time>
      </trkpt>
      <trkpt lat="1.955834" lon="-76.735266">
        <ele>4244.830</ele>
        <time>2022-12-18T08:33:52Z</time>
      </trkpt>
      <trkpt lat="1.95588" lon="-76.735253">
        <ele>4244.482</ele>
        <time>2022-12-18T08:33:58Z</time>
      </trkpt>
      <trkpt lat="1.955931" lon="-76.735245">
        <ele>4244.343</ele>
        <time>2022-12-18T08:33:59Z</time>
      </trkpt>
      <trkpt lat="1.95598" lon="-76.735245">
        <ele>4244.317</ele>
        <time>2022-12-18T08:34:01Z</time>
      </trkpt>
      <trkpt lat="1.956034" lon="-76.735239">
        <ele>4244.309</ele>
        <time>2022-12-18T08:34:03Z</time>
      </trkpt>
      <trkpt lat="1.956083" lon="-76.735227">
        <ele>4243.979</ele>
        <time>2022-12-18T08:34:05Z</time>
      </trkpt>
      <trkpt lat="1.956134" lon="-76.735212">
        <ele>4239.080</ele>
        <time>2022-12-18T08:34:08Z</time>
      </trkpt>
      <trkpt lat="1.956182" lon="-76.735217">
        <ele>4238.359</ele>
        <time>2022-12-18T08:34:11Z</time>
      </trkpt>
      <trkpt lat="1.956229" lon="-76.735232">
        <ele>4238.373</ele>
        <time>2022-12-18T08:34:15Z</time>
      </trkpt>
      <trkpt lat="1.956274" lon="-76.735258">
        <ele>4238.370</ele>
        <time>2022-12-18T08:34:19Z</time>
      </trkpt>
      <trkpt lat="1.956327" lon="-76.735275">
        <ele>4241.228</ele>
        <time>2022-12-18T08:34:23Z</time>
      </trkpt>
      <trkpt lat="1.956378" lon="-76.735282">
        <ele>4243.693</ele>
        <time>2022-12-18T08:34:25Z</time>
      </trkpt>
      <trkpt lat="1.95643" lon="-76.735285">
        <ele>4246.714</ele>
        <time>2022-12-18T08:34:28Z</time>
      </trkpt>
      <trkpt lat="1.956476" lon="-76.735291">
        <ele>4248.991</ele>
        <time>2022-12-18T08:34:30Z</time>
      </trkpt>
      <trkpt lat="1.956529" lon="-76.735291">
        <ele>4250.419</ele>
        <time>2022-12-18T08:34:33Z</time>
      </trkpt>
      <trkpt lat="1.956578" lon="-76.735286">
        <ele>4252.009</ele>
        <time>2022-12-18T08:34:36Z</time>
      </trkpt>
      <trkpt lat="1.956632" lon="-76.735282">
        <ele>4255.319</ele>
        <time>2022-12-18T08:34:38Z</time>
      </trkpt>
      <trkpt lat="1.956688" lon="-76.735278">
        <ele>4256.509</ele>
        <time>2022-12-18T08:34:41Z</time>
      </trkpt>
      <trkpt lat="1.956736" lon="-76.735273">
        <ele>4256.952</ele>
        <time>2022-12-18T08:34:44Z</time>
      </trkpt>
      <trkpt lat="1.956783" lon="-76.735267">
        <ele>4257.343</ele>
        <time>2022-12-18T08:34:47Z</time>
      </trkpt>
      <trkpt lat="1.956831" lon="-76.735255">
        <ele>4257.542</ele>
        <time>2022-12-18T08:34:50Z</time>
      </trkpt>
      <trkpt lat="1.956879" lon="-76.735237">
        <ele>4257.546</ele>
        <time>2022-12-18T08:34:53Z</time>
      </trkpt>
      <trkpt lat="1.956923" lon="-76.735216">
        <ele>4257.883</ele>
        <time>2022-12-18T08:34:56Z</time>
      </trkpt>
      <trkpt lat="1.956967" lon="-76.735188">
        <ele>4257.861</ele>
        <time>2022-12-18T08:34:59Z</time>
      </trkpt>
      <trkpt lat="1.957001" lon="-76.735154">
        <ele>4257.926</ele>
        <time>2022-12-18T08:35:02Z</time>
      </trkpt>
      <trkpt lat="1.957039" lon="-76.735118">
        <ele>4257.927</ele>
        <time>2022-12-18T08:35:06Z</time>
      </trkpt>
      <trkpt lat="1.957068" lon="-76.73508">
        <ele>4258.034</ele>
        <time>2022-12-18T08:35:10Z</time>
      </trkpt>
      <trkpt lat="1.957073" lon="-76.735035">
        <ele>4258.664</ele>
        <time>2022-12-18T08:35:16Z</time>
      </trkpt>
      <trkpt lat="1.957107" lon="-76.735005">
        <ele>4258.906</ele>
        <time>2022-12-18T08:35:22Z</time>
      </trkpt>
      <trkpt lat="1.957118" lon="-76.734949">
        <ele>4259.216</ele>
        <time>2022-12-18T08:35:25Z</time>
      </trkpt>
      <trkpt lat="1.957152" lon="-76.734915">
        <ele>4259.709</ele>
        <time>2022-12-18T08:35:29Z</time>
      </trkpt>
      <trkpt lat="1.957193" lon="-76.734885">
        <ele>4259.987</ele>
        <time>2022-12-18T08:35:33Z</time>
      </trkpt>
      <trkpt lat="1.957191" lon="-76.734834">
        <ele>4260.458</ele>
        <time>2022-12-18T08:35:38Z</time>
      </trkpt>
      <trkpt lat="1.957222" lon="-76.7348">
        <ele>4261.397</ele>
        <time>2022-12-18T08:35:42Z</time>
      </trkpt>
      <trkpt lat="1.957269" lon="-76.734794">
        <ele>4262.211</ele>
        <time>2022-12-18T08:35:47Z</time>
      </trkpt>
      <trkpt lat="1.957266" lon="-76.734748">
        <ele>4262.268</ele>
        <time>2022-12-18T08:35:52Z</time>
      </trkpt>
      <trkpt lat="1.95731" lon="-76.734732">
        <ele>4262.386</ele>
        <time>2022-12-18T08:35:56Z</time>
      </trkpt>
      <trkpt lat="1.957346" lon="-76.734693">
        <ele>4262.591</ele>
        <time>2022-12-18T08:36:02Z</time>
      </trkpt>
      <trkpt lat="1.95738" lon="-76.734656">
        <ele>4263.152</ele>
        <time>2022-12-18T08:36:09Z</time>
      </trkpt>
      <trkpt lat="1.957396" lon="-76.734607">
        <ele>4263.139</ele>
        <time>2022-12-18T08:36:14Z</time>
      </trkpt>
      <trkpt lat="1.957428" lon="-76.734563">
        <ele>4263.289</ele>
        <time>2022-12-18T08:36:19Z</time>
      </trkpt>
      <trkpt lat="1.957463" lon="-76.734529">
        <ele>4263.806</ele>
        <time>2022-12-18T08:36:23Z</time>
      </trkpt>
      <trkpt lat="1.957489" lon="-76.734484">
        <ele>4263.226</ele>
        <time>2022-12-18T08:36:27Z</time>
      </trkpt>
      <trkpt lat="1.957504" lon="-76.734438">
        <ele>4263.209</ele>
        <time>2022-12-18T08:36:31Z</time>
      </trkpt>
      <trkpt lat="1.957523" lon="-76.734389">
        <ele>4263.299</ele>
        <time>2022-12-18T08:36:34Z</time>
      </trkpt>
      <trkpt lat="1.957522" lon="-76.734334">
        <ele>4264.050</ele>
        <time>2022-12-18T08:36:39Z</time>
      </trkpt>
      <trkpt lat="1.957524" lon="-76.734282">
        <ele>4264.029</ele>
        <time>2022-12-18T08:36:43Z</time>
      </trkpt>
      <trkpt lat="1.957499" lon="-76.734239">
        <ele>4264.723</ele>
        <time>2022-12-18T08:36:47Z</time>
      </trkpt>
      <trkpt lat="1.957461" lon="-76.734207">
        <ele>4265.560</ele>
        <time>2022-12-18T08:36:50Z</time>
      </trkpt>
      <trkpt lat="1.957429" lon="-76.734174">
        <ele>4266.198</ele>
        <time>2022-12-18T08:36:53Z</time>
      </trkpt>
      <trkpt lat="1.957417" lon="-76.734129">
        <ele>4266.783</ele>
        <time>2022-12-18T08:36:56Z</time>
      </trkpt>
      <trkpt lat="1.957416" lon="-76.734082">
        <ele>4266.784</ele>
        <time>2022-12-18T08:36:59Z</time>
      </trkpt>
      <trkpt lat="1.957384" lon="-76.734034">
        <ele>4266.631</ele>
        <time>2022-12-18T08:37:03Z</time>
      </trkpt>
      <trkpt lat="1.95733" lon="-76.734019">
        <ele>4266.166</ele>
        <time>2022-12-18T08:37:06Z</time>
      </trkpt>
      <trkpt lat="1.957278" lon="-76.734001">
        <ele>4265.929</ele>
        <time>2022-12-18T08:37:09Z</time>
      </trkpt>
      <trkpt lat="1.957263" lon="-76.733958">
        <ele>4265.721</ele>
        <time>2022-12-18T08:37:13Z</time>
      </trkpt>
      <trkpt lat="1.957217" lon="-76.733935">
        <ele>4265.309</ele>
        <time>2022-12-18T08:37:18Z</time>
      </trkpt>
      <trkpt lat="1.957178" lon="-76.733899">
        <ele>4265.657</ele>
        <time>2022-12-18T08:37:23Z</time>
      </trkpt>
      <trkpt lat="1.957155" lon="-76.733855">
        <ele>4266.138</ele>
        <time>2022-12-18T08:37:27Z</time>
      </trkpt>
      <trkpt lat="1.957133" lon="-76.733813">
        <ele>4266.327</ele>
        <time>2022-12-18T08:37:30Z</time>
      </trkpt>
      <trkpt lat="1.957105" lon="-76.733773">
        <ele>4266.741</ele>
        <time>2022-12-18T08:37:34Z</time>
      </trkpt>
      <trkpt lat="1.957077" lon="-76.733728">
        <ele>4267.028</ele>
        <time>2022-12-18T08:37:38Z</time>
      </trkpt>
      <trkpt lat="1.957048" lon="-76.733685">
        <ele>4269.036</ele>
        <time>2022-12-18T08:37:41Z</time>
      </trkpt>
      <trkpt lat="1.957022" lon="-76.733648">
        <ele>4269.921</ele>
        <time>2022-12-18T08:37:45Z</time>
      </trkpt>
      <trkpt lat="1.957" lon="-76.733606">
        <ele>4271.042</ele>
        <time>2022-12-18T08:37:47Z</time>
      </trkpt>
      <trkpt lat="1.956981" lon="-76.73355">
        <ele>4272.739</ele>
        <time>2022-12-18T08:37:51Z</time>
      </trkpt>
      <trkpt lat="1.956961" lon="-76.733499">
        <ele>4272.737</ele>
        <time>2022-12-18T08:37:55Z</time>
      </trkpt>
      <trkpt lat="1.95696" lon="-76.73344">
        <ele>4273.249</ele>
        <time>2022-12-18T08:37:59Z</time>
      </trkpt>
      <trkpt lat="1.956958" lon="-76.733373">
        <ele>4272.513</ele>
        <time>2022-12-18T08:38:05Z</time>
      </trkpt>
      <trkpt lat="1.956978" lon="-76.733319">
        <ele>4272.509</ele>
        <time>2022-12-18T08:38:08Z</time>
      </trkpt>
      <trkpt lat="1.957003" lon="-76.733279">
        <ele>4272.644</ele>
        <time>2022-12-18T08:38:11Z</time>
      </trkpt>
      <trkpt lat="1.957026" lon="-76.733223">
        <ele>4272.945</ele>
        <time>2022-12-18T08:38:15Z</time>
      </trkpt>
      <trkpt lat="1.957034" lon="-76.733178">
        <ele>4273.644</ele>
        <time>2022-12-18T08:38:18Z</time>
      </trkpt>
      <trkpt lat="1.957053" lon="-76.733134">
        <ele>4274.148</ele>
        <time>2022-12-18T08:38:21Z</time>
      </trkpt>
      <trkpt lat="1.957072" lon="-76.733081">
        <ele>4274.455</ele>
        <time>2022-12-18T08:38:25Z</time>
      </trkpt>
      <trkpt lat="1.957081" lon="-76.733032">
        <ele>4275.193</ele>
        <time>2022-12-18T08:38:28Z</time>
      </trkpt>
      <trkpt lat="1.957091" lon="-76.732985">
        <ele>4277.658</ele>
        <time>2022-12-18T08:38:31Z</time>
      </trkpt>
      <trkpt lat="1.957096" lon="-76.732928">
        <ele>4278.199</ele>
        <time>2022-12-18T08:38:35Z</time>
      </trkpt>
      <trkpt lat="1.957093" lon="-76.732872">
        <ele>4279.016</ele>
        <time>2022-12-18T08:38:39Z</time>
      </trkpt>
      <trkpt lat="1.957093" lon="-76.732813">
        <ele>4279.711</ele>
        <time>2022-12-18T08:38:43Z</time>
      </trkpt>
      <trkpt lat="1.957111" lon="-76.732766">
        <ele>4282.321</ele>
        <time>2022-12-18T08:38:47Z</time>
      </trkpt>
      <trkpt lat="1.957115" lon="-76.732654">
        <ele>4282.803</ele>
        <time>2022-12-18T08:39:13Z</time>
      </trkpt>
      <trkpt lat="1.957122" lon="-76.732516">
        <ele>4283.109</ele>
        <time>2022-12-18T08:39:15Z</time>
      </trkpt>
      <trkpt lat="1.95712" lon="-76.732471">
        <ele>4278.462</ele>
        <time>2022-12-18T08:39:19Z</time>
      </trkpt>
      <trkpt lat="1.957165" lon="-76.732481">
        <ele>4280.113</ele>
        <time>2022-12-18T08:48:18Z</time>
      </trkpt>
      <trkpt lat="1.957195" lon="-76.732439">
        <ele>4280.562</ele>
        <time>2022-12-18T08:48:27Z</time>
      </trkpt>
      <trkpt lat="1.957234" lon="-76.732413">
        <ele>4280.716</ele>
        <time>2022-12-18T08:48:55Z</time>
      </trkpt>
      <trkpt lat="1.95726" lon="-76.732368">
        <ele>4280.533</ele>
        <time>2022-12-18T08:49:02Z</time>
      </trkpt>
      <trkpt lat="1.957274" lon="-76.732319">
        <ele>4280.531</ele>
        <time>2022-12-18T08:49:07Z</time>
      </trkpt>
      <trkpt lat="1.957321" lon="-76.732289">
        <ele>4284.046</ele>
        <time>2022-12-18T08:49:11Z</time>
      </trkpt>
      <trkpt lat="1.95736" lon="-76.73225">
        <ele>4284.227</ele>
        <time>2022-12-18T08:49:14Z</time>
      </trkpt>
      <trkpt lat="1.957399" lon="-76.732222">
        <ele>4285.914</ele>
        <time>2022-12-18T08:49:17Z</time>
      </trkpt>
      <trkpt lat="1.957435" lon="-76.732193">
        <ele>4287.193</ele>
        <time>2022-12-18T08:49:22Z</time>
      </trkpt>
      <trkpt lat="1.957476" lon="-76.732169">
        <ele>4287.165</ele>
        <time>2022-12-18T08:49:25Z</time>
      </trkpt>
      <trkpt lat="1.957532" lon="-76.732147">
        <ele>4286.921</ele>
        <time>2022-12-18T08:49:29Z</time>
      </trkpt>
      <trkpt lat="1.95758" lon="-76.732127">
        <ele>4286.909</ele>
        <time>2022-12-18T08:49:32Z</time>
      </trkpt>
      <trkpt lat="1.95763" lon="-76.73211">
        <ele>4286.370</ele>
        <time>2022-12-18T08:49:35Z</time>
      </trkpt>
      <trkpt lat="1.957677" lon="-76.732091">
        <ele>4285.871</ele>
        <time>2022-12-18T08:49:38Z</time>
      </trkpt>
      <trkpt lat="1.957724" lon="-76.732072">
        <ele>4286.040</ele>
        <time>2022-12-18T08:49:41Z</time>
      </trkpt>
      <trkpt lat="1.957773" lon="-76.732053">
        <ele>4286.414</ele>
        <time>2022-12-18T08:49:44Z</time>
      </trkpt>
      <trkpt lat="1.957826" lon="-76.732046">
        <ele>4286.561</ele>
        <time>2022-12-18T08:49:47Z</time>
      </trkpt>
      <trkpt lat="1.957881" lon="-76.732029">
        <ele>4286.749</ele>
        <time>2022-12-18T08:49:50Z</time>
      </trkpt>
      <trkpt lat="1.957927" lon="-76.732">
        <ele>4287.014</ele>
        <time>2022-12-18T08:49:53Z</time>
      </trkpt>
      <trkpt lat="1.957974" lon="-76.731982">
        <ele>4287.525</ele>
        <time>2022-12-18T08:49:56Z</time>
      </trkpt>
      <trkpt lat="1.958024" lon="-76.73195">
        <ele>4288.462</ele>
        <time>2022-12-18T08:49:59Z</time>
      </trkpt>
      <trkpt lat="1.958065" lon="-76.731905">
        <ele>4289.978</ele>
        <time>2022-12-18T08:50:02Z</time>
      </trkpt>
      <trkpt lat="1.958093" lon="-76.731864">
        <ele>4290.133</ele>
        <time>2022-12-18T08:50:04Z</time>
      </trkpt>
      <trkpt lat="1.95812" lon="-76.731826">
        <ele>4291.026</ele>
        <time>2022-12-18T08:50:06Z</time>
      </trkpt>
      <trkpt lat="1.958161" lon="-76.731766">
        <ele>4291.509</ele>
        <time>2022-12-18T08:50:09Z</time>
      </trkpt>
      <trkpt lat="1.958189" lon="-76.731722">
        <ele>4291.718</ele>
        <time>2022-12-18T08:50:11Z</time>
      </trkpt>
      <trkpt lat="1.958215" lon="-76.731671">
        <ele>4291.639</ele>
        <time>2022-12-18T08:50:13Z</time>
      </trkpt>
      <trkpt lat="1.958234" lon="-76.731613">
        <ele>4291.468</ele>
        <time>2022-12-18T08:50:16Z</time>
      </trkpt>
      <trkpt lat="1.958253" lon="-76.73157">
        <ele>4291.332</ele>
        <time>2022-12-18T08:50:19Z</time>
      </trkpt>
      <trkpt lat="1.958279" lon="-76.73153">
        <ele>4291.749</ele>
        <time>2022-12-18T08:50:22Z</time>
      </trkpt>
      <trkpt lat="1.9583" lon="-76.731489">
        <ele>4292.267</ele>
        <time>2022-12-18T08:50:25Z</time>
      </trkpt>
      <trkpt lat="1.958332" lon="-76.731457">
        <ele>4292.612</ele>
        <time>2022-12-18T08:50:28Z</time>
      </trkpt>
      <trkpt lat="1.95837" lon="-76.73143">
        <ele>4292.743</ele>
        <time>2022-12-18T08:50:31Z</time>
      </trkpt>
      <trkpt lat="1.958412" lon="-76.731408">
        <ele>4293.070</ele>
        <time>2022-12-18T08:50:34Z</time>
      </trkpt>
      <trkpt lat="1.958455" lon="-76.731384">
        <ele>4293.189</ele>
        <time>2022-12-18T08:50:36Z</time>
      </trkpt>
      <trkpt lat="1.95851" lon="-76.731362">
        <ele>4293.006</ele>
        <time>2022-12-18T08:50:40Z</time>
      </trkpt>
      <trkpt lat="1.95857" lon="-76.731355">
        <ele>4291.926</ele>
        <time>2022-12-18T08:50:44Z</time>
      </trkpt>
      <trkpt lat="1.958627" lon="-76.731357">
        <ele>4291.809</ele>
        <time>2022-12-18T08:50:47Z</time>
      </trkpt>
      <trkpt lat="1.958681" lon="-76.731374">
        <ele>4291.739</ele>
        <time>2022-12-18T08:50:50Z</time>
      </trkpt>
      <trkpt lat="1.958729" lon="-76.731398">
        <ele>4291.720</ele>
        <time>2022-12-18T08:50:53Z</time>
      </trkpt>
      <trkpt lat="1.958771" lon="-76.731425">
        <ele>4291.819</ele>
        <time>2022-12-18T08:50:56Z</time>
      </trkpt>
      <trkpt lat="1.958802" lon="-76.731461">
        <ele>4291.953</ele>
        <time>2022-12-18T08:50:59Z</time>
      </trkpt>
      <trkpt lat="1.958842" lon="-76.731499">
        <ele>4292.790</ele>
        <time>2022-12-18T08:51:03Z</time>
      </trkpt>
      <trkpt lat="1.958881" lon="-76.731522">
        <ele>4293.158</ele>
        <time>2022-12-18T08:51:06Z</time>
      </trkpt>
      <trkpt lat="1.958919" lon="-76.731548">
        <ele>4294.073</ele>
        <time>2022-12-18T08:51:09Z</time>
      </trkpt>
      <trkpt lat="1.958966" lon="-76.731575">
        <ele>4294.474</ele>
        <time>2022-12-18T08:51:12Z</time>
      </trkpt>
      <trkpt lat="1.959011" lon="-76.731598">
        <ele>4294.971</ele>
        <time>2022-12-18T08:51:15Z</time>
      </trkpt>
      <trkpt lat="1.959066" lon="-76.731623">
        <ele>4295.668</ele>
        <time>2022-12-18T08:51:19Z</time>
      </trkpt>
      <trkpt lat="1.959112" lon="-76.731646">
        <ele>4296.042</ele>
        <time>2022-12-18T08:51:22Z</time>
      </trkpt>
      <trkpt lat="1.959156" lon="-76.731662">
        <ele>4296.226</ele>
        <time>2022-12-18T08:51:25Z</time>
      </trkpt>
      <trkpt lat="1.959209" lon="-76.73168">
        <ele>4296.409</ele>
        <time>2022-12-18T08:51:29Z</time>
      </trkpt>
      <trkpt lat="1.959262" lon="-76.731691">
        <ele>4296.737</ele>
        <time>2022-12-18T08:51:33Z</time>
      </trkpt>
      <trkpt lat="1.959307" lon="-76.731699">
        <ele>4297.188</ele>
        <time>2022-12-18T08:51:36Z</time>
      </trkpt>
      <trkpt lat="1.959356" lon="-76.731704">
        <ele>4297.847</ele>
        <time>2022-12-18T08:51:39Z</time>
      </trkpt>
      <trkpt lat="1.959409" lon="-76.731705">
        <ele>4298.321</ele>
        <time>2022-12-18T08:51:42Z</time>
      </trkpt>
      <trkpt lat="1.959465" lon="-76.731695">
        <ele>4298.458</ele>
        <time>2022-12-18T08:51:45Z</time>
      </trkpt>
      <trkpt lat="1.95952" lon="-76.73168">
        <ele>4298.426</ele>
        <time>2022-12-18T08:51:48Z</time>
      </trkpt>
      <trkpt lat="1.959567" lon="-76.731664">
        <ele>4298.431</ele>
        <time>2022-12-18T08:51:51Z</time>
      </trkpt>
      <trkpt lat="1.959619" lon="-76.731647">
        <ele>4297.982</ele>
        <time>2022-12-18T08:51:54Z</time>
      </trkpt>
      <trkpt lat="1.959672" lon="-76.731633">
        <ele>4297.659</ele>
        <time>2022-12-18T08:51:57Z</time>
      </trkpt>
      <trkpt lat="1.959731" lon="-76.731622">
        <ele>4296.774</ele>
        <time>2022-12-18T08:52:01Z</time>
      </trkpt>
      <trkpt lat="1.959783" lon="-76.731595">
        <ele>4296.056</ele>
        <time>2022-12-18T08:52:05Z</time>
      </trkpt>
      <trkpt lat="1.959824" lon="-76.731576">
        <ele>4296.021</ele>
        <time>2022-12-18T08:52:08Z</time>
      </trkpt>
      <trkpt lat="1.959869" lon="-76.731553">
        <ele>4296.209</ele>
        <time>2022-12-18T08:52:11Z</time>
      </trkpt>
      <trkpt lat="1.95992" lon="-76.731537">
        <ele>4296.688</ele>
        <time>2022-12-18T08:52:15Z</time>
      </trkpt>
      <trkpt lat="1.959966" lon="-76.731518">
        <ele>4296.659</ele>
        <time>2022-12-18T08:52:18Z</time>
      </trkpt>
      <trkpt lat="1.96001" lon="-76.731493">
        <ele>4296.948</ele>
        <time>2022-12-18T08:52:22Z</time>
      </trkpt>
      <trkpt lat="1.960067" lon="-76.731482">
        <ele>4297.852</ele>
        <time>2022-12-18T08:52:26Z</time>
      </trkpt>
      <trkpt lat="1.960122" lon="-76.731471">
        <ele>4298.239</ele>
        <time>2022-12-18T08:52:30Z</time>
      </trkpt>
      <trkpt lat="1.960168" lon="-76.731467">
        <ele>4298.687</ele>
        <time>2022-12-18T08:52:33Z</time>
      </trkpt>
      <trkpt lat="1.960215" lon="-76.731462">
        <ele>4298.772</ele>
        <time>2022-12-18T08:52:36Z</time>
      </trkpt>
      <trkpt lat="1.960265" lon="-76.73146">
        <ele>4299.213</ele>
        <time>2022-12-18T08:52:38Z</time>
      </trkpt>
      <trkpt lat="1.960311" lon="-76.731453">
        <ele>4300.520</ele>
        <time>2022-12-18T08:52:41Z</time>
      </trkpt>
      <trkpt lat="1.960361" lon="-76.731442">
        <ele>4301.243</ele>
        <time>2022-12-18T08:52:44Z</time>
      </trkpt>
      <trkpt lat="1.960417" lon="-76.731431">
        <ele>4302.064</ele>
        <time>2022-12-18T08:52:48Z</time>
      </trkpt>
      <trkpt lat="1.96048" lon="-76.731427">
        <ele>4302.210</ele>
        <time>2022-12-18T08:52:52Z</time>
      </trkpt>
      <trkpt lat="1.960523" lon="-76.73141">
        <ele>4302.509</ele>
        <time>2022-12-18T08:52:55Z</time>
      </trkpt>
      <trkpt lat="1.96058" lon="-76.731389">
        <ele>4302.695</ele>
        <time>2022-12-18T08:52:58Z</time>
      </trkpt>
      <trkpt lat="1.960637" lon="-76.731369">
        <ele>4303.296</ele>
        <time>2022-12-18T08:53:01Z</time>
      </trkpt>
      <trkpt lat="1.96069" lon="-76.731345">
        <ele>4303.825</ele>
        <time>2022-12-18T08:53:04Z</time>
      </trkpt>
      <trkpt lat="1.960729" lon="-76.731322">
        <ele>4303.899</ele>
        <time>2022-12-18T08:53:06Z</time>
      </trkpt>
      <trkpt lat="1.960774" lon="-76.731294">
        <ele>4304.496</ele>
        <time>2022-12-18T08:53:09Z</time>
      </trkpt>
      <trkpt lat="1.960816" lon="-76.731262">
        <ele>4305.034</ele>
        <time>2022-12-18T08:53:12Z</time>
      </trkpt>
      <trkpt lat="1.960841" lon="-76.731222">
        <ele>4305.339</ele>
        <time>2022-12-18T08:53:14Z</time>
      </trkpt>
      <trkpt lat="1.960859" lon="-76.731177">
        <ele>4305.750</ele>
        <time>2022-12-18T08:53:16Z</time>
      </trkpt>
      <trkpt lat="1.960886" lon="-76.731122">
        <ele>4306.897</ele>
        <time>2022-12-18T08:53:19Z</time>
      </trkpt>
      <trkpt lat="1.960924" lon="-76.731084">
        <ele>4307.785</ele>
        <time>2022-12-18T08:53:22Z</time>
      </trkpt>
      <trkpt lat="1.960956" lon="-76.731047">
        <ele>4308.089</ele>
        <time>2022-12-18T08:53:25Z</time>
      </trkpt>
      <trkpt lat="1.960985" lon="-76.731006">
        <ele>4308.117</ele>
        <time>2022-12-18T08:53:28Z</time>
      </trkpt>
      <trkpt lat="1.961024" lon="-76.730967">
        <ele>4308.409</ele>
        <time>2022-12-18T08:53:31Z</time>
      </trkpt>
      <trkpt lat="1.961049" lon="-76.730919">
        <ele>4308.899</ele>
        <time>2022-12-18T08:53:35Z</time>
      </trkpt>
      <trkpt lat="1.961077" lon="-76.730871">
        <ele>4309.290</ele>
        <time>2022-12-18T08:53:39Z</time>
      </trkpt>
      <trkpt lat="1.961104" lon="-76.730829">
        <ele>4309.629</ele>
        <time>2022-12-18T08:53:42Z</time>
      </trkpt>
      <trkpt lat="1.961135" lon="-76.730789">
        <ele>4310.483</ele>
        <time>2022-12-18T08:53:46Z</time>
      </trkpt>
      <trkpt lat="1.961157" lon="-76.730746">
        <ele>4310.540</ele>
        <time>2022-12-18T08:53:49Z</time>
      </trkpt>
      <trkpt lat="1.961181" lon="-76.730703">
        <ele>4310.718</ele>
        <time>2022-12-18T08:53:52Z</time>
      </trkpt>
      <trkpt lat="1.961214" lon="-76.730663">
        <ele>4310.763</ele>
        <time>2022-12-18T08:53:55Z</time>
      </trkpt>
      <trkpt lat="1.961245" lon="-76.730627">
        <ele>4310.994</ele>
        <time>2022-12-18T08:53:58Z</time>
      </trkpt>
      <trkpt lat="1.961284" lon="-76.730587">
        <ele>4310.951</ele>
        <time>2022-12-18T08:54:02Z</time>
      </trkpt>
      <trkpt lat="1.961321" lon="-76.730556">
        <ele>4311.473</ele>
        <time>2022-12-18T08:54:05Z</time>
      </trkpt>
      <trkpt lat="1.961356" lon="-76.730525">
        <ele>4311.985</ele>
        <time>2022-12-18T08:54:08Z</time>
      </trkpt>
      <trkpt lat="1.961394" lon="-76.730497">
        <ele>4312.013</ele>
        <time>2022-12-18T08:54:11Z</time>
      </trkpt>
      <trkpt lat="1.961442" lon="-76.730467">
        <ele>4313.309</ele>
        <time>2022-12-18T08:54:15Z</time>
      </trkpt>
      <trkpt lat="1.961484" lon="-76.730446">
        <ele>4314.118</ele>
        <time>2022-12-18T08:54:18Z</time>
      </trkpt>
      <trkpt lat="1.96153" lon="-76.730428">
        <ele>4314.159</ele>
        <time>2022-12-18T08:54:21Z</time>
      </trkpt>
      <trkpt lat="1.961578" lon="-76.730408">
        <ele>4314.388</ele>
        <time>2022-12-18T08:54:24Z</time>
      </trkpt>
      <trkpt lat="1.961631" lon="-76.730398">
        <ele>4314.422</ele>
        <time>2022-12-18T08:54:27Z</time>
      </trkpt>
      <trkpt lat="1.961692" lon="-76.730402">
        <ele>4314.419</ele>
        <time>2022-12-18T08:54:31Z</time>
      </trkpt>
      <trkpt lat="1.961742" lon="-76.730417">
        <ele>4314.597</ele>
        <time>2022-12-18T08:54:34Z</time>
      </trkpt>
      <trkpt lat="1.961792" lon="-76.730417">
        <ele>4314.292</ele>
        <time>2022-12-18T08:54:36Z</time>
      </trkpt>
      <trkpt lat="1.961857" lon="-76.730415">
        <ele>4312.833</ele>
        <time>2022-12-18T08:54:39Z</time>
      </trkpt>
      <trkpt lat="1.961911" lon="-76.730394">
        <ele>4312.570</ele>
        <time>2022-12-18T08:54:42Z</time>
      </trkpt>
      <trkpt lat="1.961957" lon="-76.730366">
        <ele>4312.762</ele>
        <time>2022-12-18T08:54:44Z</time>
      </trkpt>
      <trkpt lat="1.962006" lon="-76.73033">
        <ele>4313.183</ele>
        <time>2022-12-18T08:54:48Z</time>
      </trkpt>
      <trkpt lat="1.962048" lon="-76.7303">
        <ele>4313.511</ele>
        <time>2022-12-18T08:54:51Z</time>
      </trkpt>
      <trkpt lat="1.962305" lon="-76.730219">
        <ele>4313.709</ele>
        <time>2022-12-18T08:55:17Z</time>
      </trkpt>
      <trkpt lat="1.962439" lon="-76.730192">
        <ele>4315.137</ele>
        <time>2022-12-18T08:55:18Z</time>
      </trkpt>
      <trkpt lat="1.962488" lon="-76.730188">
        <ele>4315.428</ele>
        <time>2022-12-18T08:55:19Z</time>
      </trkpt>
      <trkpt lat="1.962541" lon="-76.730196">
        <ele>4315.327</ele>
        <time>2022-12-18T08:55:21Z</time>
      </trkpt>
      <trkpt lat="1.962586" lon="-76.730215">
        <ele>4315.581</ele>
        <time>2022-12-18T08:55:24Z</time>
      </trkpt>
      <trkpt lat="1.962648" lon="-76.730225">
        <ele>4315.818</ele>
        <time>2022-12-18T08:55:27Z</time>
      </trkpt>
      <trkpt lat="1.962696" lon="-76.73023">
        <ele>4316.196</ele>
        <time>2022-12-18T08:55:29Z</time>
      </trkpt>
      <trkpt lat="1.962762" lon="-76.73022">
        <ele>4316.281</ele>
        <time>2022-12-18T08:55:32Z</time>
      </trkpt>
      <trkpt lat="1.962811" lon="-76.730217">
        <ele>4316.622</ele>
        <time>2022-12-18T08:55:35Z</time>
      </trkpt>
      <trkpt lat="1.962927" lon="-76.730234">
        <ele>4316.729</ele>
        <time>2022-12-18T08:55:48Z</time>
      </trkpt>
      <trkpt lat="1.963009" lon="-76.730246">
        <ele>4317.851</ele>
        <time>2022-12-18T08:55:49Z</time>
      </trkpt>
      <trkpt lat="1.96306" lon="-76.73026">
        <ele>4318.801</ele>
        <time>2022-12-18T08:55:51Z</time>
      </trkpt>
      <trkpt lat="1.963111" lon="-76.73028">
        <ele>4320.311</ele>
        <time>2022-12-18T08:55:54Z</time>
      </trkpt>
      <trkpt lat="1.963172" lon="-76.730291">
        <ele>4321.409</ele>
        <time>2022-12-18T08:55:58Z</time>
      </trkpt>
      <trkpt lat="1.963232" lon="-76.730293">
        <ele>4321.716</ele>
        <time>2022-12-18T08:56:02Z</time>
      </trkpt>
      <trkpt lat="1.96328" lon="-76.730303">
        <ele>4321.867</ele>
        <time>2022-12-18T08:56:05Z</time>
      </trkpt>
      <trkpt lat="1.963328" lon="-76.73031">
        <ele>4322.586</ele>
        <time>2022-12-18T08:56:08Z</time>
      </trkpt>
      <trkpt lat="1.963383" lon="-76.730316">
        <ele>4322.750</ele>
        <time>2022-12-18T08:56:12Z</time>
      </trkpt>
      <trkpt lat="1.96343" lon="-76.730304">
        <ele>4322.897</ele>
        <time>2022-12-18T08:56:16Z</time>
      </trkpt>
      <trkpt lat="1.963477" lon="-76.730298">
        <ele>4323.225</ele>
        <time>2022-12-18T08:56:20Z</time>
      </trkpt>
      <trkpt lat="1.963521" lon="-76.730264">
        <ele>4323.660</ele>
        <time>2022-12-18T08:56:25Z</time>
      </trkpt>
      <trkpt lat="1.963563" lon="-76.730219">
        <ele>4324.261</ele>
        <time>2022-12-18T08:56:29Z</time>
      </trkpt>
      <trkpt lat="1.963597" lon="-76.730187">
        <ele>4326.168</ele>
        <time>2022-12-18T08:56:32Z</time>
      </trkpt>
      <trkpt lat="1.963643" lon="-76.730155">
        <ele>4327.031</ele>
        <time>2022-12-18T08:56:35Z</time>
      </trkpt>
      <trkpt lat="1.963683" lon="-76.730125">
        <ele>4328.261</ele>
        <time>2022-12-18T08:56:38Z</time>
      </trkpt>
      <trkpt lat="1.963722" lon="-76.73009">
        <ele>4328.807</ele>
        <time>2022-12-18T08:56:42Z</time>
      </trkpt>
      <trkpt lat="1.96376" lon="-76.730065">
        <ele>4329.909</ele>
        <time>2022-12-18T08:56:45Z</time>
      </trkpt>
      <trkpt lat="1.963802" lon="-76.730036">
        <ele>4330.374</ele>
        <time>2022-12-18T08:56:49Z</time>
      </trkpt>
      <trkpt lat="1.963829" lon="-76.729997">
        <ele>4330.725</ele>
        <time>2022-12-18T08:56:53Z</time>
      </trkpt>
      <trkpt lat="1.963875" lon="-76.729964">
        <ele>4331.864</ele>
        <time>2022-12-18T08:56:57Z</time>
      </trkpt>
      <trkpt lat="1.963912" lon="-76.729937">
        <ele>4332.828</ele>
        <time>2022-12-18T08:57:00Z</time>
      </trkpt>
      <trkpt lat="1.963961" lon="-76.729904">
        <ele>4334.385</ele>
        <time>2022-12-18T08:57:04Z</time>
      </trkpt>
      <trkpt lat="1.964009" lon="-76.729881">
        <ele>4335.123</ele>
        <time>2022-12-18T08:57:07Z</time>
      </trkpt>
      <trkpt lat="1.964058" lon="-76.729854">
        <ele>4336.028</ele>
        <time>2022-12-18T08:57:10Z</time>
      </trkpt>
      <trkpt lat="1.964109" lon="-76.729832">
        <ele>4336.169</ele>
        <time>2022-12-18T08:57:13Z</time>
      </trkpt>
      <trkpt lat="1.964163" lon="-76.729823">
        <ele>4336.466</ele>
        <time>2022-12-18T08:57:16Z</time>
      </trkpt>
      <trkpt lat="1.964224" lon="-76.729809">
        <ele>4336.458</ele>
        <time>2022-12-18T08:57:24Z</time>
      </trkpt>
      <trkpt lat="1.964278" lon="-76.729774">
        <ele>4336.552</ele>
        <time>2022-12-18T08:57:27Z</time>
      </trkpt>
      <trkpt lat="1.964328" lon="-76.729751">
        <ele>4336.617</ele>
        <time>2022-12-18T08:57:30Z</time>
      </trkpt>
      <trkpt lat="1.964366" lon="-76.729708">
        <ele>4337.109</ele>
        <time>2022-12-18T08:57:34Z</time>
      </trkpt>
      <trkpt lat="1.964398" lon="-76.729663">
        <ele>4337.376</ele>
        <time>2022-12-18T08:57:38Z</time>
      </trkpt>
      <trkpt lat="1.964407" lon="-76.729616">
        <ele>4337.387</ele>
        <time>2022-12-18T08:57:41Z</time>
      </trkpt>
      <trkpt lat="1.9644" lon="-76.72957">
        <ele>4337.536</ele>
        <time>2022-12-18T08:57:44Z</time>
      </trkpt>
      <trkpt lat="1.964368" lon="-76.729527">
        <ele>4337.680</ele>
        <time>2022-12-18T08:57:48Z</time>
      </trkpt>
      <trkpt lat="1.964314" lon="-76.729499">
        <ele>4338.047</ele>
        <time>2022-12-18T08:57:52Z</time>
      </trkpt>
      <trkpt lat="1.964268" lon="-76.729482">
        <ele>4338.055</ele>
        <time>2022-12-18T08:57:55Z</time>
      </trkpt>
      <trkpt lat="1.964219" lon="-76.729468">
        <ele>4337.550</ele>
        <time>2022-12-18T08:57:59Z</time>
      </trkpt>
      <trkpt lat="1.964167" lon="-76.72949">
        <ele>4336.331</ele>
        <time>2022-12-18T08:58:06Z</time>
      </trkpt>
      <trkpt lat="1.96411" lon="-76.729494">
        <ele>4334.618</ele>
        <time>2022-12-18T08:58:11Z</time>
      </trkpt>
      <trkpt lat="1.964056" lon="-76.729499">
        <ele>4334.031</ele>
        <time>2022-12-18T08:58:16Z</time>
      </trkpt>
      <trkpt lat="1.96399" lon="-76.7295">
        <ele>4333.461</ele>
        <time>2022-12-18T08:58:25Z</time>
      </trkpt>
      <trkpt lat="1.96393" lon="-76.729506">
        <ele>4333.207</ele>
        <time>2022-12-18T08:58:28Z</time>
      </trkpt>
      <trkpt lat="1.96388" lon="-76.729515">
        <ele>4330.309</ele>
        <time>2022-12-18T08:58:31Z</time>
      </trkpt>
      <trkpt lat="1.963834" lon="-76.729527">
        <ele>4329.014</ele>
        <time>2022-12-18T08:58:34Z</time>
      </trkpt>
      <trkpt lat="1.963786" lon="-76.729543">
        <ele>4328.995</ele>
        <time>2022-12-18T08:58:37Z</time>
      </trkpt>
      <trkpt lat="1.963741" lon="-76.729558">
        <ele>4328.894</ele>
        <time>2022-12-18T08:58:40Z</time>
      </trkpt>
      <trkpt lat="1.963685" lon="-76.729574">
        <ele>4328.838</ele>
        <time>2022-12-18T08:58:44Z</time>
      </trkpt>
      <trkpt lat="1.963631" lon="-76.729587">
        <ele>4328.125</ele>
        <time>2022-12-18T08:58:47Z</time>
      </trkpt>
      <trkpt lat="1.963567" lon="-76.729596">
        <ele>4327.773</ele>
        <time>2022-12-18T08:58:51Z</time>
      </trkpt>
      <trkpt lat="1.96351" lon="-76.729616">
        <ele>4327.018</ele>
        <time>2022-12-18T08:58:54Z</time>
      </trkpt>
      <trkpt lat="1.963454" lon="-76.729627">
        <ele>4326.289</ele>
        <time>2022-12-18T08:58:57Z</time>
      </trkpt>
      <trkpt lat="1.963405" lon="-76.72963">
        <ele>4324.516</ele>
        <time>2022-12-18T08:59:00Z</time>
      </trkpt>
      <trkpt lat="1.963358" lon="-76.729636">
        <ele>4324.812</ele>
        <time>2022-12-18T08:59:03Z</time>
      </trkpt>
      <trkpt lat="1.963306" lon="-76.729636">
        <ele>4326.232</ele>
        <time>2022-12-18T08:59:07Z</time>
      </trkpt>
      <trkpt lat="1.963252" lon="-76.729619">
        <ele>4329.805</ele>
        <time>2022-12-18T08:59:11Z</time>
      </trkpt>
      <trkpt lat="1.9632" lon="-76.729605">
        <ele>4331.009</ele>
        <time>2022-12-18T08:59:14Z</time>
      </trkpt>
      <trkpt lat="1.963153" lon="-76.729571">
        <ele>4331.572</ele>
        <time>2022-12-18T08:59:18Z</time>
      </trkpt>
      <trkpt lat="1.963123" lon="-76.72953">
        <ele>4332.133</ele>
        <time>2022-12-18T08:59:21Z</time>
      </trkpt>
      <trkpt lat="1.963105" lon="-76.729482">
        <ele>4332.572</ele>
        <time>2022-12-18T08:59:25Z</time>
      </trkpt>
      <trkpt lat="1.96309" lon="-76.729395">
        <ele>4332.746</ele>
        <time>2022-12-18T08:59:32Z</time>
      </trkpt>
      <trkpt lat="1.963114" lon="-76.729352">
        <ele>4333.313</ele>
        <time>2022-12-18T08:59:40Z</time>
      </trkpt>
      <trkpt lat="1.963146" lon="-76.729312">
        <ele>4334.251</ele>
        <time>2022-12-18T08:59:45Z</time>
      </trkpt>
      <trkpt lat="1.963173" lon="-76.729273">
        <ele>4337.226</ele>
        <time>2022-12-18T08:59:50Z</time>
      </trkpt>
      <trkpt lat="1.963211" lon="-76.729236">
        <ele>4340.827</ele>
        <time>2022-12-18T08:59:54Z</time>
      </trkpt>
      <trkpt lat="1.963247" lon="-76.729205">
        <ele>4341.264</ele>
        <time>2022-12-18T08:59:57Z</time>
      </trkpt>
      <trkpt lat="1.963282" lon="-76.729164">
        <ele>4344.298</ele>
        <time>2022-12-18T09:00:01Z</time>
      </trkpt>
      <trkpt lat="1.963297" lon="-76.729115">
        <ele>4345.815</ele>
        <time>2022-12-18T09:00:06Z</time>
      </trkpt>
      <trkpt lat="1.963316" lon="-76.729073">
        <ele>4347.226</ele>
        <time>2022-12-18T09:00:09Z</time>
      </trkpt>
      <trkpt lat="1.963334" lon="-76.729021">
        <ele>4348.109</ele>
        <time>2022-12-18T09:00:13Z</time>
      </trkpt>
      <trkpt lat="1.963336" lon="-76.728968">
        <ele>4348.440</ele>
        <time>2022-12-18T09:00:17Z</time>
      </trkpt>
      <trkpt lat="1.963315" lon="-76.728921">
        <ele>4348.461</ele>
        <time>2022-12-18T09:00:21Z</time>
      </trkpt>
      <trkpt lat="1.963274" lon="-76.72889">
        <ele>4349.070</ele>
        <time>2022-12-18T09:00:28Z</time>
      </trkpt>
      <trkpt lat="1.963226" lon="-76.728876">
        <ele>4349.574</ele>
        <time>2022-12-18T09:00:32Z</time>
      </trkpt>
      <trkpt lat="1.963179" lon="-76.728856">
        <ele>4350.441</ele>
        <time>2022-12-18T09:00:36Z</time>
      </trkpt>
      <trkpt lat="1.963134" lon="-76.728837">
        <ele>4349.159</ele>
        <time>2022-12-18T09:00:39Z</time>
      </trkpt>
      <trkpt lat="1.963093" lon="-76.728813">
        <ele>4350.324</ele>
        <time>2022-12-18T09:00:42Z</time>
      </trkpt>
      <trkpt lat="1.963051" lon="-76.728782">
        <ele>4350.355</ele>
        <time>2022-12-18T09:00:45Z</time>
      </trkpt>
      <trkpt lat="1.963004" lon="-76.728751">
        <ele>4332.652</ele>
        <time>2022-12-18T09:00:51Z</time>
      </trkpt>
      <trkpt lat="1.962945" lon="-76.72872">
        <ele>4331.543</ele>
        <time>2022-12-18T09:00:54Z</time>
      </trkpt>
      <trkpt lat="1.962901" lon="-76.728691">
        <ele>4338.064</ele>
        <time>2022-12-18T09:00:57Z</time>
      </trkpt>
      <trkpt lat="1.962862" lon="-76.728662">
        <ele>4344.810</ele>
        <time>2022-12-18T09:01:00Z</time>
      </trkpt>
      <trkpt lat="1.962822" lon="-76.728618">
        <ele>4346.509</ele>
        <time>2022-12-18T09:01:03Z</time>
      </trkpt>
      <trkpt lat="1.962762" lon="-76.728584">
        <ele>4348.515</ele>
        <time>2022-12-18T09:01:06Z</time>
      </trkpt>
      <trkpt lat="1.962712" lon="-76.728561">
        <ele>4350.676</ele>
        <time>2022-12-18T09:01:08Z</time>
      </trkpt>
      <trkpt lat="1.962644" lon="-76.728533">
        <ele>4353.025</ele>
        <time>2022-12-18T09:01:10Z</time>
      </trkpt>
      <trkpt lat="1.962577" lon="-76.728507">
        <ele>4353.889</ele>
        <time>2022-12-18T09:01:12Z</time>
      </trkpt>
      <trkpt lat="1.962517" lon="-76.72848">
        <ele>4354.086</ele>
        <time>2022-12-18T09:01:14Z</time>
      </trkpt>
      <trkpt lat="1.962468" lon="-76.728449">
        <ele>4353.664</ele>
        <time>2022-12-18T09:01:16Z</time>
      </trkpt>
      <trkpt lat="1.962425" lon="-76.728406">
        <ele>4354.029</ele>
        <time>2022-12-18T09:01:19Z</time>
      </trkpt>
      <trkpt lat="1.96239" lon="-76.728374">
        <ele>4356.910</ele>
        <time>2022-12-18T09:03:28Z</time>
      </trkpt>
      <trkpt lat="1.962375" lon="-76.728327">
        <ele>4356.917</ele>
        <time>2022-12-18T09:03:33Z</time>
      </trkpt>
      <trkpt lat="1.96235" lon="-76.728281">
        <ele>4356.918</ele>
        <time>2022-12-18T09:03:37Z</time>
      </trkpt>
      <trkpt lat="1.962333" lon="-76.728239">
        <ele>4356.998</ele>
        <time>2022-12-18T09:03:40Z</time>
      </trkpt>
      <trkpt lat="1.962319" lon="-76.728191">
        <ele>4357.017</ele>
        <time>2022-12-18T09:03:43Z</time>
      </trkpt>
      <trkpt lat="1.962318" lon="-76.728145">
        <ele>4357.009</ele>
        <time>2022-12-18T09:03:46Z</time>
      </trkpt>
      <trkpt lat="1.962329" lon="-76.728097">
        <ele>4359.212</ele>
        <time>2022-12-18T09:03:49Z</time>
      </trkpt>
      <trkpt lat="1.962346" lon="-76.728038">
        <ele>4359.913</ele>
        <time>2022-12-18T09:03:52Z</time>
      </trkpt>
      <trkpt lat="1.96237" lon="-76.727995">
        <ele>4360.152</ele>
        <time>2022-12-18T09:03:55Z</time>
      </trkpt>
      <trkpt lat="1.962405" lon="-76.727965">
        <ele>4360.486</ele>
        <time>2022-12-18T09:03:59Z</time>
      </trkpt>
      <trkpt lat="1.962452" lon="-76.727939">
        <ele>4361.473</ele>
        <time>2022-12-18T09:04:03Z</time>
      </trkpt>
      <trkpt lat="1.962498" lon="-76.727931">
        <ele>4361.731</ele>
        <time>2022-12-18T09:04:06Z</time>
      </trkpt>
      <trkpt lat="1.962551" lon="-76.727915">
        <ele>4362.226</ele>
        <time>2022-12-18T09:04:10Z</time>
      </trkpt>
      <trkpt lat="1.962602" lon="-76.727885">
        <ele>4362.567</ele>
        <time>2022-12-18T09:04:12Z</time>
      </trkpt>
      <trkpt lat="1.96266" lon="-76.72785">
        <ele>4362.644</ele>
        <time>2022-12-18T09:04:14Z</time>
      </trkpt>
      <trkpt lat="1.962721" lon="-76.727816">
        <ele>4363.011</ele>
        <time>2022-12-18T09:04:16Z</time>
      </trkpt>
      <trkpt lat="1.962784" lon="-76.727783">
        <ele>4361.721</ele>
        <time>2022-12-18T09:04:18Z</time>
      </trkpt>
      <trkpt lat="1.962836" lon="-76.727754">
        <ele>4360.703</ele>
        <time>2022-12-18T09:04:20Z</time>
      </trkpt>
      <trkpt lat="1.962879" lon="-76.727722">
        <ele>4360.409</ele>
        <time>2022-12-18T09:04:22Z</time>
      </trkpt>
      <trkpt lat="1.962917" lon="-76.727683">
        <ele>4360.412</ele>
        <time>2022-12-18T09:04:24Z</time>
      </trkpt>
      <trkpt lat="1.962972" lon="-76.727634">
        <ele>4360.483</ele>
        <time>2022-12-18T09:04:29Z</time>
      </trkpt>
      <trkpt lat="1.962949" lon="-76.727593">
        <ele>4361.552</ele>
        <time>2022-12-18T09:04:35Z</time>
      </trkpt>
      <trkpt lat="1.962959" lon="-76.727539">
        <ele>4361.186</ele>
        <time>2022-12-18T09:04:40Z</time>
      </trkpt>
      <trkpt lat="1.962963" lon="-76.727492">
        <ele>4362.363</ele>
        <time>2022-12-18T09:04:44Z</time>
      </trkpt>
      <trkpt lat="1.962987" lon="-76.727442">
        <ele>4363.791</ele>
        <time>2022-12-18T09:04:48Z</time>
      </trkpt>
      <trkpt lat="1.963022" lon="-76.727403">
        <ele>4363.946</ele>
        <time>2022-12-18T09:04:52Z</time>
      </trkpt>
      <trkpt lat="1.963067" lon="-76.727374">
        <ele>4365.637</ele>
        <time>2022-12-18T09:04:55Z</time>
      </trkpt>
      <trkpt lat="1.963114" lon="-76.727361">
        <ele>4366.234</ele>
        <time>2022-12-18T09:04:58Z</time>
      </trkpt>
      <trkpt lat="1.963168" lon="-76.727361">
        <ele>4366.379</ele>
        <time>2022-12-18T09:05:01Z</time>
      </trkpt>
      <trkpt lat="1.963242" lon="-76.727368">
        <ele>4366.505</ele>
        <time>2022-12-18T09:05:04Z</time>
      </trkpt>
      <trkpt lat="1.963314" lon="-76.727381">
        <ele>4367.025</ele>
        <time>2022-12-18T09:05:06Z</time>
      </trkpt>
      <trkpt lat="1.963393" lon="-76.727401">
        <ele>4367.009</ele>
        <time>2022-12-18T09:05:08Z</time>
      </trkpt>
      <trkpt lat="1.963471" lon="-76.727372">
        <ele>4368.398</ele>
        <time>2022-12-18T09:05:10Z</time>
      </trkpt>
      <trkpt lat="1.963514" lon="-76.727348">
        <ele>4368.649</ele>
        <time>2022-12-18T09:05:11Z</time>
      </trkpt>
      <trkpt lat="1.963582" lon="-76.727303">
        <ele>4369.348</ele>
        <time>2022-12-18T09:05:13Z</time>
      </trkpt>
      <trkpt lat="1.963646" lon="-76.727266">
        <ele>4369.712</ele>
        <time>2022-12-18T09:05:15Z</time>
      </trkpt>
      <trkpt lat="1.963722" lon="-76.727236">
        <ele>4370.589</ele>
        <time>2022-12-18T09:05:17Z</time>
      </trkpt>
      <trkpt lat="1.963787" lon="-76.727235">
        <ele>4370.577</ele>
        <time>2022-12-18T09:05:19Z</time>
      </trkpt>
      <trkpt lat="1.963844" lon="-76.727241">
        <ele>4372.632</ele>
        <time>2022-12-18T09:05:21Z</time>
      </trkpt>
      <trkpt lat="1.963889" lon="-76.727254">
        <ele>4373.123</ele>
        <time>2022-12-18T09:05:23Z</time>
      </trkpt>
      <trkpt lat="1.963932" lon="-76.72728">
        <ele>4373.150</ele>
        <time>2022-12-18T09:05:25Z</time>
      </trkpt>
      <trkpt lat="1.963971" lon="-76.727314">
        <ele>4373.038</ele>
        <time>2022-12-18T09:05:27Z</time>
      </trkpt>
      <trkpt lat="1.964007" lon="-76.727371">
        <ele>4373.070</ele>
        <time>2022-12-18T09:05:29Z</time>
      </trkpt>
      <trkpt lat="1.964046" lon="-76.727432">
        <ele>4373.017</ele>
        <time>2022-12-18T09:05:31Z</time>
      </trkpt>
      <trkpt lat="1.964072" lon="-76.727485">
        <ele>4373.209</ele>
        <time>2022-12-18T09:05:33Z</time>
      </trkpt>
      <trkpt lat="1.964099" lon="-76.727535">
        <ele>4374.934</ele>
        <time>2022-12-18T09:05:35Z</time>
      </trkpt>
      <trkpt lat="1.964153" lon="-76.727586">
        <ele>4374.985</ele>
        <time>2022-12-18T09:05:37Z</time>
      </trkpt>
      <trkpt lat="1.964196" lon="-76.727623">
        <ele>4374.924</ele>
        <time>2022-12-18T09:05:39Z</time>
      </trkpt>
      <trkpt lat="1.964266" lon="-76.727663">
        <ele>4359.888</ele>
        <time>2022-12-18T09:05:41Z</time>
      </trkpt>
      <trkpt lat="1.964326" lon="-76.727681">
        <ele>4356.155</ele>
        <time>2022-12-18T09:05:43Z</time>
      </trkpt>
      <trkpt lat="1.964401" lon="-76.727664">
        <ele>4366.463</ele>
        <time>2022-12-18T09:05:45Z</time>
      </trkpt>
      <trkpt lat="1.964448" lon="-76.727626">
        <ele>4370.528</ele>
        <time>2022-12-18T09:05:47Z</time>
      </trkpt>
      <trkpt lat="1.964478" lon="-76.727578">
        <ele>4374.059</ele>
        <time>2022-12-18T09:05:49Z</time>
      </trkpt>
      <trkpt lat="1.964505" lon="-76.727528">
        <ele>4374.526</ele>
        <time>2022-12-18T09:05:54Z</time>
      </trkpt>
      <trkpt lat="1.964551" lon="-76.727412">
        <ele>4377.811</ele>
        <time>2022-12-18T09:05:56Z</time>
      </trkpt>
      <trkpt lat="1.96458" lon="-76.727362">
        <ele>4378.121</ele>
        <time>2022-12-18T09:05:58Z</time>
      </trkpt>
      <trkpt lat="1.964624" lon="-76.727308">
        <ele>4378.703</ele>
        <time>2022-12-18T09:06:00Z</time>
      </trkpt>
      <trkpt lat="1.964663" lon="-76.72727">
        <ele>4379.009</ele>
        <time>2022-12-18T09:06:02Z</time>
      </trkpt>
      <trkpt lat="1.964702" lon="-76.727232">
        <ele>4378.992</ele>
        <time>2022-12-18T09:06:04Z</time>
      </trkpt>
      <trkpt lat="1.964744" lon="-76.727193">
        <ele>4378.893</ele>
        <time>2022-12-18T09:06:06Z</time>
      </trkpt>
      <trkpt lat="1.96479" lon="-76.727155">
        <ele>4376.412</ele>
        <time>2022-12-18T09:06:08Z</time>
      </trkpt>
      <trkpt lat="1.964834" lon="-76.727125">
        <ele>4376.276</ele>
        <time>2022-12-18T09:06:10Z</time>
      </trkpt>
      <trkpt lat="1.964882" lon="-76.727097">
        <ele>4376.263</ele>
        <time>2022-12-18T09:06:12Z</time>
      </trkpt>
      <trkpt lat="1.964928" lon="-76.727075">
        <ele>4378.111</ele>
        <time>2022-12-18T09:06:14Z</time>
      </trkpt>
      <trkpt lat="1.964987" lon="-76.727057">
        <ele>4381.086</ele>
        <time>2022-12-18T09:06:17Z</time>
      </trkpt>
      <trkpt lat="1.965049" lon="-76.727049">
        <ele>4383.967</ele>
        <time>2022-12-18T09:06:20Z</time>
      </trkpt>
      <trkpt lat="1.965104" lon="-76.727043">
        <ele>4385.274</ele>
        <time>2022-12-18T09:06:22Z</time>
      </trkpt>
      <trkpt lat="1.965166" lon="-76.727042">
        <ele>4386.637</ele>
        <time>2022-12-18T09:06:24Z</time>
      </trkpt>
      <trkpt lat="1.965226" lon="-76.727053">
        <ele>4386.949</ele>
        <time>2022-12-18T09:06:26Z</time>
      </trkpt>
      <trkpt lat="1.96528" lon="-76.727072">
        <ele>4387.013</ele>
        <time>2022-12-18T09:06:28Z</time>
      </trkpt>
      <trkpt lat="1.965338" lon="-76.727092">
        <ele>4386.909</ele>
        <time>2022-12-18T09:06:30Z</time>
      </trkpt>
      <trkpt lat="1.965399" lon="-76.727111">
        <ele>4386.874</ele>
        <time>2022-12-18T09:06:32Z</time>
      </trkpt>
      <trkpt lat="1.965464" lon="-76.727131">
        <ele>4371.865</ele>
        <time>2022-12-18T09:06:34Z</time>
      </trkpt>
      <trkpt lat="1.965535" lon="-76.727147">
        <ele>4371.854</ele>
        <time>2022-12-18T09:06:36Z</time>
      </trkpt>
      <trkpt lat="1.965603" lon="-76.727149">
        <ele>4376.358</ele>
        <time>2022-12-18T09:06:38Z</time>
      </trkpt>
      <trkpt lat="1.965677" lon="-76.727131">
        <ele>4378.025</ele>
        <time>2022-12-18T09:06:40Z</time>
      </trkpt>
      <trkpt lat="1.96572" lon="-76.72711">
        <ele>4378.743</ele>
        <time>2022-12-18T09:06:41Z</time>
      </trkpt>
      <trkpt lat="1.965779" lon="-76.727052">
        <ele>4380.978</ele>
        <time>2022-12-18T09:06:43Z</time>
      </trkpt>
      <trkpt lat="1.96581" lon="-76.726988">
        <ele>4383.929</ele>
        <time>2022-12-18T09:06:45Z</time>
      </trkpt>
      <trkpt lat="1.965835" lon="-76.726934">
        <ele>4384.156</ele>
        <time>2022-12-18T09:06:47Z</time>
      </trkpt>
      <trkpt lat="1.965855" lon="-76.726883">
        <ele>4384.222</ele>
        <time>2022-12-18T09:06:49Z</time>
      </trkpt>
      <trkpt lat="1.965898" lon="-76.726826">
        <ele>4384.162</ele>
        <time>2022-12-18T09:06:51Z</time>
      </trkpt>
      <trkpt lat="1.96595" lon="-76.726778">
        <ele>4384.108</ele>
        <time>2022-12-18T09:06:53Z</time>
      </trkpt>
      <trkpt lat="1.966014" lon="-76.726745">
        <ele>4384.109</ele>
        <time>2022-12-18T09:06:55Z</time>
      </trkpt>
      <trkpt lat="1.966081" lon="-76.726738">
        <ele>4384.183</ele>
        <time>2022-12-18T09:06:57Z</time>
      </trkpt>
      <trkpt lat="1.966161" lon="-76.726749">
        <ele>4386.124</ele>
        <time>2022-12-18T09:06:59Z</time>
      </trkpt>
      <trkpt lat="1.966242" lon="-76.72677">
        <ele>4387.563</ele>
        <time>2022-12-18T09:07:01Z</time>
      </trkpt>
      <trkpt lat="1.966288" lon="-76.726785">
        <ele>4387.957</ele>
        <time>2022-12-18T09:07:02Z</time>
      </trkpt>
      <trkpt lat="1.966376" lon="-76.726824">
        <ele>4388.414</ele>
        <time>2022-12-18T09:07:04Z</time>
      </trkpt>
      <trkpt lat="1.966441" lon="-76.726857">
        <ele>4389.392</ele>
        <time>2022-12-18T09:07:06Z</time>
      </trkpt>
      <trkpt lat="1.966483" lon="-76.726876">
        <ele>4389.687</ele>
        <time>2022-12-18T09:07:07Z</time>
      </trkpt>
      <trkpt lat="1.966571" lon="-76.726908">
        <ele>4390.368</ele>
        <time>2022-12-18T09:07:08Z</time>
      </trkpt>
      <trkpt lat="1.966619" lon="-76.726928">
        <ele>4390.645</ele>
        <time>2022-12-18T09:07:10Z</time>
      </trkpt>
      <trkpt lat="1.966677" lon="-76.726958">
        <ele>4390.863</ele>
        <time>2022-12-18T09:07:11Z</time>
      </trkpt>
      <trkpt lat="1.966721" lon="-76.726983">
        <ele>4390.944</ele>
        <time>2022-12-18T09:07:13Z</time>
      </trkpt>
      <trkpt lat="1.966805" lon="-76.72701">
        <ele>4391.218</ele>
        <time>2022-12-18T09:07:15Z</time>
      </trkpt>
      <trkpt lat="1.966878" lon="-76.727017">
        <ele>4391.309</ele>
        <time>2022-12-18T09:07:17Z</time>
      </trkpt>
      <trkpt lat="1.966953" lon="-76.727026">
        <ele>4392.437</ele>
        <time>2022-12-18T09:07:19Z</time>
      </trkpt>
      <trkpt lat="1.967024" lon="-76.727025">
        <ele>4393.898</ele>
        <time>2022-12-18T09:07:21Z</time>
      </trkpt>
      <trkpt lat="1.967089" lon="-76.726993">
        <ele>4394.177</ele>
        <time>2022-12-18T09:07:23Z</time>
      </trkpt>
      <trkpt lat="1.967125" lon="-76.726945">
        <ele>4394.291</ele>
        <time>2022-12-18T09:07:25Z</time>
      </trkpt>
      <trkpt lat="1.967178" lon="-76.726901">
        <ele>4394.328</ele>
        <time>2022-12-18T09:07:27Z</time>
      </trkpt>
      <trkpt lat="1.967233" lon="-76.726847">
        <ele>4395.526</ele>
        <time>2022-12-18T09:07:29Z</time>
      </trkpt>
      <trkpt lat="1.967288" lon="-76.726793">
        <ele>4396.161</ele>
        <time>2022-12-18T09:07:31Z</time>
      </trkpt>
      <trkpt lat="1.967345" lon="-76.726744">
        <ele>4396.512</ele>
        <time>2022-12-18T09:07:33Z</time>
      </trkpt>
      <trkpt lat="1.967407" lon="-76.726707">
        <ele>4398.049</ele>
        <time>2022-12-18T09:07:35Z</time>
      </trkpt>
      <trkpt lat="1.967476" lon="-76.726685">
        <ele>4398.438</ele>
        <time>2022-12-18T09:07:37Z</time>
      </trkpt>
      <trkpt lat="1.967563" lon="-76.726676">
        <ele>4398.370</ele>
        <time>2022-12-18T09:07:39Z</time>
      </trkpt>
      <trkpt lat="1.967652" lon="-76.726672">
        <ele>4398.217</ele>
        <time>2022-12-18T09:07:41Z</time>
      </trkpt>
      <trkpt lat="1.967724" lon="-76.726687">
        <ele>4398.209</ele>
        <time>2022-12-18T09:07:43Z</time>
      </trkpt>
      <trkpt lat="1.967795" lon="-76.726697">
        <ele>4398.254</ele>
        <time>2022-12-18T09:07:45Z</time>
      </trkpt>
      <trkpt lat="1.96786" lon="-76.726693">
        <ele>4398.715</ele>
        <time>2022-12-18T09:07:47Z</time>
      </trkpt>
      <trkpt lat="1.967921" lon="-76.726679">
        <ele>4400.194</ele>
        <time>2022-12-18T09:07:49Z</time>
      </trkpt>
      <trkpt lat="1.967971" lon="-76.726656">
        <ele>4400.888</ele>
        <time>2022-12-18T09:07:51Z</time>
      </trkpt>
      <trkpt lat="1.968016" lon="-76.72662">
        <ele>4402.265</ele>
        <time>2022-12-18T09:07:53Z</time>
      </trkpt>
      <trkpt lat="1.968041" lon="-76.726577">
        <ele>4402.823</ele>
        <time>2022-12-18T09:07:54Z</time>
      </trkpt>
      <trkpt lat="1.968088" lon="-76.726524">
        <ele>4402.858</ele>
        <time>2022-12-18T09:07:57Z</time>
      </trkpt>
      <trkpt lat="1.968132" lon="-76.726481">
        <ele>4402.879</ele>
        <time>2022-12-18T09:07:59Z</time>
      </trkpt>
      <trkpt lat="1.968172" lon="-76.726449">
        <ele>4403.026</ele>
        <time>2022-12-18T09:08:01Z</time>
      </trkpt>
      <trkpt lat="1.968226" lon="-76.726415">
        <ele>4403.473</ele>
        <time>2022-12-18T09:08:04Z</time>
      </trkpt>
      <trkpt lat="1.968273" lon="-76.726405">
        <ele>4404.585</ele>
        <time>2022-12-18T09:08:06Z</time>
      </trkpt>
      <trkpt lat="1.968324" lon="-76.726401">
        <ele>4404.613</ele>
        <time>2022-12-18T09:08:08Z</time>
      </trkpt>
      <trkpt lat="1.968385" lon="-76.72641">
        <ele>4404.809</ele>
        <time>2022-12-18T09:08:10Z</time>
      </trkpt>
      <trkpt lat="1.968446" lon="-76.726426">
        <ele>4405.068</ele>
        <time>2022-12-18T09:08:12Z</time>
      </trkpt>
      <trkpt lat="1.968499" lon="-76.72643">
        <ele>4405.179</ele>
        <time>2022-12-18T09:08:14Z</time>
      </trkpt>
      <trkpt lat="1.968554" lon="-76.726432">
        <ele>4404.898</ele>
        <time>2022-12-18T09:08:16Z</time>
      </trkpt>
      <trkpt lat="1.968605" lon="-76.726428">
        <ele>4404.122</ele>
        <time>2022-12-18T09:08:17Z</time>
      </trkpt>
      <trkpt lat="1.968823" lon="-76.72641">
        <ele>4404.139</ele>
        <time>2022-12-18T09:08:26Z</time>
      </trkpt>
      <trkpt lat="1.968857" lon="-76.726347">
        <ele>4401.717</ele>
        <time>2022-12-18T09:08:29Z</time>
      </trkpt>
      <trkpt lat="1.96894" lon="-76.72628">
        <ele>4403.382</ele>
        <time>2022-12-18T09:08:31Z</time>
      </trkpt>
      <trkpt lat="1.968991" lon="-76.726237">
        <ele>4404.563</ele>
        <time>2022-12-18T09:08:32Z</time>
      </trkpt>
      <trkpt lat="1.969032" lon="-76.726203">
        <ele>4404.720</ele>
        <time>2022-12-18T09:08:34Z</time>
      </trkpt>
      <trkpt lat="1.969084" lon="-76.726164">
        <ele>4405.279</ele>
        <time>2022-12-18T09:08:36Z</time>
      </trkpt>
      <trkpt lat="1.969134" lon="-76.726131">
        <ele>4405.305</ele>
        <time>2022-12-18T09:08:38Z</time>
      </trkpt>
      <trkpt lat="1.96918" lon="-76.72611">
        <ele>4405.525</ele>
        <time>2022-12-18T09:08:40Z</time>
      </trkpt>
      <trkpt lat="1.969228" lon="-76.726098">
        <ele>4405.709</ele>
        <time>2022-12-18T09:08:42Z</time>
      </trkpt>
      <trkpt lat="1.96928" lon="-76.726093">
        <ele>4406.678</ele>
        <time>2022-12-18T09:08:44Z</time>
      </trkpt>
      <trkpt lat="1.969331" lon="-76.726092">
        <ele>4408.129</ele>
        <time>2022-12-18T09:08:46Z</time>
      </trkpt>
      <trkpt lat="1.969604" lon="-76.726039">
        <ele>4408.638</ele>
        <time>2022-12-18T09:08:57Z</time>
      </trkpt>
      <trkpt lat="1.969571" lon="-76.726098">
        <ele>4408.882</ele>
        <time>2022-12-18T09:08:59Z</time>
      </trkpt>
      <trkpt lat="1.969615" lon="-76.726124">
        <ele>4408.129</ele>
        <time>2022-12-18T09:09:00Z</time>
      </trkpt>
      <trkpt lat="1.969666" lon="-76.726151">
        <ele>4408.157</ele>
        <time>2022-12-18T09:09:01Z</time>
      </trkpt>
      <trkpt lat="1.969713" lon="-76.72617">
        <ele>4408.122</ele>
        <time>2022-12-18T09:09:02Z</time>
      </trkpt>
      <trkpt lat="1.969763" lon="-76.72618">
        <ele>4408.173</ele>
        <time>2022-12-18T09:09:04Z</time>
      </trkpt>
      <trkpt lat="1.969815" lon="-76.726181">
        <ele>4408.260</ele>
        <time>2022-12-18T09:09:06Z</time>
      </trkpt>
      <trkpt lat="1.969879" lon="-76.726178">
        <ele>4408.267</ele>
        <time>2022-12-18T09:09:09Z</time>
      </trkpt>
      <trkpt lat="1.969937" lon="-76.726175">
        <ele>4408.781</ele>
        <time>2022-12-18T09:09:12Z</time>
      </trkpt>
      <trkpt lat="1.969986" lon="-76.726178">
        <ele>4415.419</ele>
        <time>2022-12-18T09:10:04Z</time>
      </trkpt>
      <trkpt lat="1.969951" lon="-76.726149">
        <ele>4416.009</ele>
        <time>2022-12-18T09:11:12Z</time>
      </trkpt>
      <trkpt lat="1.970001" lon="-76.726149">
        <ele>4416.777</ele>
        <time>2022-12-18T09:18:52Z</time>
      </trkpt>
      <trkpt lat="1.970053" lon="-76.726135">
        <ele>4415.398</ele>
        <time>2022-12-18T09:18:56Z</time>
      </trkpt>
      <trkpt lat="1.970099" lon="-76.726133">
        <ele>4417.237</ele>
        <time>2022-12-18T09:18:59Z</time>
      </trkpt>
      <trkpt lat="1.970157" lon="-76.726112">
        <ele>4419.271</ele>
        <time>2022-12-18T09:19:03Z</time>
      </trkpt>
      <trkpt lat="1.970201" lon="-76.726094">
        <ele>4419.288</ele>
        <time>2022-12-18T09:19:08Z</time>
      </trkpt>
      <trkpt lat="1.970243" lon="-76.726074">
        <ele>4418.426</ele>
        <time>2022-12-18T09:19:12Z</time>
      </trkpt>
      <trkpt lat="1.970283" lon="-76.726051">
        <ele>4418.461</ele>
        <time>2022-12-18T09:19:16Z</time>
      </trkpt>
      <trkpt lat="1.970323" lon="-76.72602">
        <ele>4418.452</ele>
        <time>2022-12-18T09:19:19Z</time>
      </trkpt>
      <trkpt lat="1.970357" lon="-76.72597">
        <ele>4418.439</ele>
        <time>2022-12-18T09:19:22Z</time>
      </trkpt>
      <trkpt lat="1.970394" lon="-76.725934">
        <ele>4417.063</ele>
        <time>2022-12-18T09:19:25Z</time>
      </trkpt>
      <trkpt lat="1.970438" lon="-76.725898">
        <ele>4414.044</ele>
        <time>2022-12-18T09:19:28Z</time>
      </trkpt>
      <trkpt lat="1.970467" lon="-76.725862">
        <ele>4413.418</ele>
        <time>2022-12-18T09:19:31Z</time>
      </trkpt>
      <trkpt lat="1.970506" lon="-76.725823">
        <ele>4413.509</ele>
        <time>2022-12-18T09:19:35Z</time>
      </trkpt>
      <trkpt lat="1.97054" lon="-76.725785">
        <ele>4414.367</ele>
        <time>2022-12-18T09:19:39Z</time>
      </trkpt>
      <trkpt lat="1.97058" lon="-76.725756">
        <ele>4414.668</ele>
        <time>2022-12-18T09:19:43Z</time>
      </trkpt>
      <trkpt lat="1.970627" lon="-76.72573">
        <ele>4415.317</ele>
        <time>2022-12-18T09:19:46Z</time>
      </trkpt>
      <trkpt lat="1.970674" lon="-76.725704">
        <ele>4415.981</ele>
        <time>2022-12-18T09:19:51Z</time>
      </trkpt>
      <trkpt lat="1.970727" lon="-76.725703">
        <ele>4416.488</ele>
        <time>2022-12-18T09:19:54Z</time>
      </trkpt>
      <trkpt lat="1.970773" lon="-76.725694">
        <ele>4417.136</ele>
        <time>2022-12-18T09:19:58Z</time>
      </trkpt>
      <trkpt lat="1.970828" lon="-76.725678">
        <ele>4417.131</ele>
        <time>2022-12-18T09:20:02Z</time>
      </trkpt>
      <trkpt lat="1.970883" lon="-76.725679">
        <ele>4416.892</ele>
        <time>2022-12-18T09:20:05Z</time>
      </trkpt>
      <trkpt lat="1.97093" lon="-76.725676">
        <ele>4416.219</ele>
        <time>2022-12-18T09:20:09Z</time>
      </trkpt>
      <trkpt lat="1.970978" lon="-76.725683">
        <ele>4416.052</ele>
        <time>2022-12-18T09:20:12Z</time>
      </trkpt>
      <trkpt lat="1.971028" lon="-76.725651">
        <ele>4415.753</ele>
        <time>2022-12-18T09:20:16Z</time>
      </trkpt>
      <trkpt lat="1.971072" lon="-76.725618">
        <ele>4415.908</ele>
        <time>2022-12-18T09:20:20Z</time>
      </trkpt>
      <trkpt lat="1.971106" lon="-76.725581">
        <ele>4416.509</ele>
        <time>2022-12-18T09:20:24Z</time>
      </trkpt>
      <trkpt lat="1.971144" lon="-76.725546">
        <ele>4418.646</ele>
        <time>2022-12-18T09:20:28Z</time>
      </trkpt>
      <trkpt lat="1.971179" lon="-76.725509">
        <ele>4419.467</ele>
        <time>2022-12-18T09:20:32Z</time>
      </trkpt>
      <trkpt lat="1.971219" lon="-76.725474">
        <ele>4419.436</ele>
        <time>2022-12-18T09:20:36Z</time>
      </trkpt>
      <trkpt lat="1.971262" lon="-76.725454">
        <ele>4419.470</ele>
        <time>2022-12-18T09:20:39Z</time>
      </trkpt>
      <trkpt lat="1.971308" lon="-76.725442">
        <ele>4419.417</ele>
        <time>2022-12-18T09:20:42Z</time>
      </trkpt>
      <trkpt lat="1.971354" lon="-76.725446">
        <ele>4419.165</ele>
        <time>2022-12-18T09:20:47Z</time>
      </trkpt>
      <trkpt lat="1.971397" lon="-76.725466">
        <ele>4419.060</ele>
        <time>2022-12-18T09:20:51Z</time>
      </trkpt>
      <trkpt lat="1.971453" lon="-76.725467">
        <ele>4418.981</ele>
        <time>2022-12-18T09:20:55Z</time>
      </trkpt>
    </trkseg>
  </trk>
</gpx>
